<?xml version="1.0"?>
<gpx
 version="1.1"
 creator="Satmap Active 20"
 xmlns:xsi="http://www.w3.org/2001/XMLSchema-instance"
 xmlns="http://www.topografix.com/GPX/1/1"
 xmlns:satmap="http://www.satmap.com/updates/xmlschemas/GpxExtensions/v2/GpxExtensions_v2.xsd"
 xsi:schemaLocation="http://www.topografix.com/GPX/1/1 http://www.topografix.com/GPX/1/1/gpx.xsd">
<metadata>
<time>2021-01-12T12:51:33Z</time>
<extensions>
<satmap:platform>43</satmap:platform>
<satmap:software version="3.13.037">SM15.exe</satmap:software>
<satmap:username>pieter metz</satmap:username>
<satmap:network_ids>
<satmap:network_id type="wifi">00-23-A7-CA-E3-5C</satmap:network_id>
<satmap:network_id type="bluetooth">80-BB-EB-78-4F-29</satmap:network_id>
</satmap:network_ids>
<satmap:snap_type>simple</satmap:snap_type>
</extensions>
</metadata>
<trk>
<name>2021-01-12_1251</name>
<desc>Track 1</desc>
<number>1</number>
<trkseg>
<trkpt lat="52.063899" lon="05.840221"><ele>25.9</ele><time>2021-01-12T12:51:33Z</time><name>PT1</name></trkpt>
<trkpt lat="52.063897" lon="05.840220"><ele>25.7</ele><time>2021-01-12T12:51:37Z</time><name>PT2</name></trkpt>
<trkpt lat="52.063890" lon="05.840209"><ele>25.4</ele><time>2021-01-12T12:51:38Z</time><name>PT3</name></trkpt>
<trkpt lat="52.063884" lon="05.840198"><ele>25.3</ele><time>2021-01-12T12:51:39Z</time><name>PT4</name></trkpt>
<trkpt lat="52.063877" lon="05.840187"><ele>25.3</ele><time>2021-01-12T12:51:40Z</time><name>PT5</name></trkpt>
<trkpt lat="52.063870" lon="05.840175"><ele>25.3</ele><time>2021-01-12T12:51:41Z</time><name>PT6</name></trkpt>
<trkpt lat="52.063864" lon="05.840161"><ele>25.4</ele><time>2021-01-12T12:51:42Z</time><name>PT7</name></trkpt>
<trkpt lat="52.063856" lon="05.840144"><ele>25.3</ele><time>2021-01-12T12:51:43Z</time><name>PT8</name></trkpt>
<trkpt lat="52.063849" lon="05.840131"><ele>25.3</ele><time>2021-01-12T12:51:44Z</time><name>PT9</name></trkpt>
<trkpt lat="52.063841" lon="05.840115"><ele>25.5</ele><time>2021-01-12T12:51:45Z</time><name>PT10</name></trkpt>
<trkpt lat="52.063835" lon="05.840099"><ele>25.6</ele><time>2021-01-12T12:51:46Z</time><name>PT11</name></trkpt>
<trkpt lat="52.063829" lon="05.840083"><ele>25.4</ele><time>2021-01-12T12:51:47Z</time><name>PT12</name></trkpt>
<trkpt lat="52.063823" lon="05.840071"><ele>25.6</ele><time>2021-01-12T12:51:48Z</time><name>PT13</name></trkpt>
<trkpt lat="52.063817" lon="05.840056"><ele>25.6</ele><time>2021-01-12T12:51:49Z</time><name>PT14</name></trkpt>
<trkpt lat="52.063810" lon="05.840044"><ele>25.6</ele><time>2021-01-12T12:51:50Z</time><name>PT15</name></trkpt>
<trkpt lat="52.063804" lon="05.840032"><ele>25.4</ele><time>2021-01-12T12:51:51Z</time><name>PT16</name></trkpt>
<trkpt lat="52.063796" lon="05.840020"><ele>25.4</ele><time>2021-01-12T12:51:52Z</time><name>PT17</name></trkpt>
<trkpt lat="52.063793" lon="05.840007"><ele>25.5</ele><time>2021-01-12T12:51:53Z</time><name>PT18</name></trkpt>
<trkpt lat="52.063792" lon="05.839994"><ele>25.3</ele><time>2021-01-12T12:51:54Z</time><name>PT19</name></trkpt>
<trkpt lat="52.063791" lon="05.839984"><ele>25.2</ele><time>2021-01-12T12:51:55Z</time><name>PT20</name></trkpt>
<trkpt lat="52.063786" lon="05.839972"><ele>25.1</ele><time>2021-01-12T12:51:56Z</time><name>PT21</name></trkpt>
<trkpt lat="52.063778" lon="05.839957"><ele>25.1</ele><time>2021-01-12T12:51:57Z</time><name>PT22</name></trkpt>
<trkpt lat="52.063770" lon="05.839944"><ele>25.3</ele><time>2021-01-12T12:51:58Z</time><name>PT23</name></trkpt>
<trkpt lat="52.063762" lon="05.839931"><ele>25.4</ele><time>2021-01-12T12:51:59Z</time><name>PT24</name></trkpt>
<trkpt lat="52.063755" lon="05.839918"><ele>25.7</ele><time>2021-01-12T12:52:00Z</time><name>PT25</name></trkpt>
<trkpt lat="52.063749" lon="05.839900"><ele>25.7</ele><time>2021-01-12T12:52:01Z</time><name>PT26</name></trkpt>
<trkpt lat="52.063746" lon="05.839883"><ele>25.7</ele><time>2021-01-12T12:52:02Z</time><name>PT27</name></trkpt>
<trkpt lat="52.063744" lon="05.839866"><ele>25.7</ele><time>2021-01-12T12:52:03Z</time><name>PT28</name></trkpt>
<trkpt lat="52.063741" lon="05.839847"><ele>25.6</ele><time>2021-01-12T12:52:04Z</time><name>PT29</name></trkpt>
<trkpt lat="52.063737" lon="05.839832"><ele>25.5</ele><time>2021-01-12T12:52:05Z</time><name>PT30</name></trkpt>
<trkpt lat="52.063735" lon="05.839818"><ele>25.5</ele><time>2021-01-12T12:52:06Z</time><name>PT31</name></trkpt>
<trkpt lat="52.063730" lon="05.839805"><ele>25.5</ele><time>2021-01-12T12:52:07Z</time><name>PT32</name></trkpt>
<trkpt lat="52.063726" lon="05.839796"><ele>25.4</ele><time>2021-01-12T12:52:08Z</time><name>PT33</name></trkpt>
<trkpt lat="52.063720" lon="05.839782"><ele>25.6</ele><time>2021-01-12T12:52:09Z</time><name>PT34</name></trkpt>
<trkpt lat="52.063717" lon="05.839767"><ele>25.6</ele><time>2021-01-12T12:52:10Z</time><name>PT35</name></trkpt>
<trkpt lat="52.063712" lon="05.839758"><ele>25.7</ele><time>2021-01-12T12:52:11Z</time><name>PT36</name></trkpt>
<trkpt lat="52.063707" lon="05.839750"><ele>25.9</ele><time>2021-01-12T12:52:12Z</time><name>PT37</name></trkpt>
<trkpt lat="52.063700" lon="05.839743"><ele>26</ele><time>2021-01-12T12:52:13Z</time><name>PT38</name></trkpt>
<trkpt lat="52.063690" lon="05.839737"><ele>25.8</ele><time>2021-01-12T12:52:14Z</time><name>PT39</name></trkpt>
<trkpt lat="52.063681" lon="05.839727"><ele>26</ele><time>2021-01-12T12:52:15Z</time><name>PT40</name></trkpt>
<trkpt lat="52.063670" lon="05.839721"><ele>25.9</ele><time>2021-01-12T12:52:16Z</time><name>PT41</name></trkpt>
<trkpt lat="52.063662" lon="05.839716"><ele>25.8</ele><time>2021-01-12T12:52:17Z</time><name>PT42</name></trkpt>
<trkpt lat="52.063655" lon="05.839711"><ele>25.8</ele><time>2021-01-12T12:52:18Z</time><name>PT43</name></trkpt>
<trkpt lat="52.063648" lon="05.839704"><ele>25.8</ele><time>2021-01-12T12:52:19Z</time><name>PT44</name></trkpt>
<trkpt lat="52.063641" lon="05.839699"><ele>25.8</ele><time>2021-01-12T12:52:20Z</time><name>PT45</name></trkpt>
<trkpt lat="52.063632" lon="05.839698"><ele>25.7</ele><time>2021-01-12T12:52:21Z</time><name>PT46</name></trkpt>
<trkpt lat="52.063622" lon="05.839697"><ele>25.7</ele><time>2021-01-12T12:52:22Z</time><name>PT47</name></trkpt>
<trkpt lat="52.063612" lon="05.839700"><ele>25.6</ele><time>2021-01-12T12:52:23Z</time><name>PT48</name></trkpt>
<trkpt lat="52.063601" lon="05.839699"><ele>25.7</ele><time>2021-01-12T12:52:24Z</time><name>PT49</name></trkpt>
<trkpt lat="52.063589" lon="05.839700"><ele>25.6</ele><time>2021-01-12T12:52:25Z</time><name>PT50</name></trkpt>
<trkpt lat="52.063579" lon="05.839706"><ele>25.7</ele><time>2021-01-12T12:52:26Z</time><name>PT51</name></trkpt>
<trkpt lat="52.063570" lon="05.839712"><ele>25.9</ele><time>2021-01-12T12:52:27Z</time><name>PT52</name></trkpt>
<trkpt lat="52.063561" lon="05.839715"><ele>26</ele><time>2021-01-12T12:52:28Z</time><name>PT53</name></trkpt>
<trkpt lat="52.063553" lon="05.839721"><ele>26</ele><time>2021-01-12T12:52:29Z</time><name>PT54</name></trkpt>
<trkpt lat="52.063545" lon="05.839733"><ele>26.1</ele><time>2021-01-12T12:52:30Z</time><name>PT55</name></trkpt>
<trkpt lat="52.063538" lon="05.839743"><ele>25.9</ele><time>2021-01-12T12:52:31Z</time><name>PT56</name></trkpt>
<trkpt lat="52.063532" lon="05.839756"><ele>25.9</ele><time>2021-01-12T12:52:32Z</time><name>PT57</name></trkpt>
<trkpt lat="52.063523" lon="05.839769"><ele>25.7</ele><time>2021-01-12T12:52:33Z</time><name>PT58</name></trkpt>
<trkpt lat="52.063515" lon="05.839780"><ele>25.7</ele><time>2021-01-12T12:52:34Z</time><name>PT59</name></trkpt>
<trkpt lat="52.063508" lon="05.839788"><ele>25.7</ele><time>2021-01-12T12:52:35Z</time><name>PT60</name></trkpt>
<trkpt lat="52.063499" lon="05.839792"><ele>25.7</ele><time>2021-01-12T12:52:36Z</time><name>PT61</name></trkpt>
<trkpt lat="52.063491" lon="05.839799"><ele>25.9</ele><time>2021-01-12T12:52:37Z</time><name>PT62</name></trkpt>
<trkpt lat="52.063485" lon="05.839807"><ele>25.8</ele><time>2021-01-12T12:52:38Z</time><name>PT63</name></trkpt>
<trkpt lat="52.063477" lon="05.839819"><ele>25.9</ele><time>2021-01-12T12:52:39Z</time><name>PT64</name></trkpt>
<trkpt lat="52.063470" lon="05.839830"><ele>25.9</ele><time>2021-01-12T12:52:40Z</time><name>PT65</name></trkpt>
<trkpt lat="52.063462" lon="05.839842"><ele>25.8</ele><time>2021-01-12T12:52:41Z</time><name>PT66</name></trkpt>
<trkpt lat="52.063450" lon="05.839851"><ele>25.7</ele><time>2021-01-12T12:52:42Z</time><name>PT67</name></trkpt>
<trkpt lat="52.063440" lon="05.839860"><ele>25.7</ele><time>2021-01-12T12:52:43Z</time><name>PT68</name></trkpt>
<trkpt lat="52.063430" lon="05.839869"><ele>25.7</ele><time>2021-01-12T12:52:44Z</time><name>PT69</name></trkpt>
<trkpt lat="52.063420" lon="05.839878"><ele>25.7</ele><time>2021-01-12T12:52:45Z</time><name>PT70</name></trkpt>
<trkpt lat="52.063409" lon="05.839885"><ele>25.9</ele><time>2021-01-12T12:52:46Z</time><name>PT71</name></trkpt>
<trkpt lat="52.063396" lon="05.839892"><ele>26</ele><time>2021-01-12T12:52:47Z</time><name>PT72</name></trkpt>
<trkpt lat="52.063389" lon="05.839902"><ele>26</ele><time>2021-01-12T12:52:48Z</time><name>PT73</name></trkpt>
<trkpt lat="52.063381" lon="05.839918"><ele>26</ele><time>2021-01-12T12:52:49Z</time><name>PT74</name></trkpt>
<trkpt lat="52.063377" lon="05.839938"><ele>25.8</ele><time>2021-01-12T12:52:50Z</time><name>PT75</name></trkpt>
<trkpt lat="52.063367" lon="05.839948"><ele>25.7</ele><time>2021-01-12T12:52:51Z</time><name>PT76</name></trkpt>
<trkpt lat="52.063354" lon="05.839958"><ele>25.7</ele><time>2021-01-12T12:52:52Z</time><name>PT77</name></trkpt>
<trkpt lat="52.063345" lon="05.839976"><ele>25.7</ele><time>2021-01-12T12:52:53Z</time><name>PT78</name></trkpt>
<trkpt lat="52.063338" lon="05.839990"><ele>25.8</ele><time>2021-01-12T12:52:54Z</time><name>PT79</name></trkpt>
<trkpt lat="52.063326" lon="05.840001"><ele>25.8</ele><time>2021-01-12T12:52:55Z</time><name>PT80</name></trkpt>
<trkpt lat="52.063315" lon="05.840012"><ele>25.9</ele><time>2021-01-12T12:52:56Z</time><name>PT81</name></trkpt>
<trkpt lat="52.063303" lon="05.840020"><ele>25.7</ele><time>2021-01-12T12:52:57Z</time><name>PT82</name></trkpt>
<trkpt lat="52.063291" lon="05.840028"><ele>25.7</ele><time>2021-01-12T12:52:58Z</time><name>PT83</name></trkpt>
<trkpt lat="52.063281" lon="05.840046"><ele>25.7</ele><time>2021-01-12T12:52:59Z</time><name>PT84</name></trkpt>
<trkpt lat="52.063271" lon="05.840055"><ele>25.7</ele><time>2021-01-12T12:53:00Z</time><name>PT85</name></trkpt>
<trkpt lat="52.063257" lon="05.840067"><ele>25.9</ele><time>2021-01-12T12:53:01Z</time><name>PT86</name></trkpt>
<trkpt lat="52.063243" lon="05.840077"><ele>26</ele><time>2021-01-12T12:53:02Z</time><name>PT87</name></trkpt>
<trkpt lat="52.063232" lon="05.840090"><ele>25.9</ele><time>2021-01-12T12:53:03Z</time><name>PT88</name></trkpt>
<trkpt lat="52.063222" lon="05.840098"><ele>25.7</ele><time>2021-01-12T12:53:04Z</time><name>PT89</name></trkpt>
<trkpt lat="52.063212" lon="05.840097"><ele>25.8</ele><time>2021-01-12T12:53:05Z</time><name>PT90</name></trkpt>
<trkpt lat="52.063201" lon="05.840091"><ele>25.7</ele><time>2021-01-12T12:53:06Z</time><name>PT91</name></trkpt>
<trkpt lat="52.063193" lon="05.840083"><ele>25.7</ele><time>2021-01-12T12:53:07Z</time><name>PT92</name></trkpt>
<trkpt lat="52.063187" lon="05.840069"><ele>25.7</ele><time>2021-01-12T12:53:08Z</time><name>PT93</name></trkpt>
<trkpt lat="52.063182" lon="05.840050"><ele>25.7</ele><time>2021-01-12T12:53:09Z</time><name>PT94</name></trkpt>
<trkpt lat="52.063179" lon="05.840034"><ele>25.7</ele><time>2021-01-12T12:53:10Z</time><name>PT95</name></trkpt>
<trkpt lat="52.063179" lon="05.840019"><ele>25.6</ele><time>2021-01-12T12:53:11Z</time><name>PT96</name></trkpt>
<trkpt lat="52.063180" lon="05.840001"><ele>25.7</ele><time>2021-01-12T12:53:12Z</time><name>PT97</name></trkpt>
<trkpt lat="52.063185" lon="05.839981"><ele>25.7</ele><time>2021-01-12T12:53:13Z</time><name>PT98</name></trkpt>
<trkpt lat="52.063186" lon="05.839964"><ele>25.8</ele><time>2021-01-12T12:53:14Z</time><name>PT99</name></trkpt>
<trkpt lat="52.063188" lon="05.839949"><ele>26</ele><time>2021-01-12T12:53:15Z</time><name>PT100</name></trkpt>
<trkpt lat="52.063191" lon="05.839932"><ele>26</ele><time>2021-01-12T12:53:16Z</time><name>PT101</name></trkpt>
<trkpt lat="52.063194" lon="05.839909"><ele>26.1</ele><time>2021-01-12T12:53:17Z</time><name>PT102</name></trkpt>
<trkpt lat="52.063194" lon="05.839885"><ele>26.1</ele><time>2021-01-12T12:53:18Z</time><name>PT103</name></trkpt>
<trkpt lat="52.063198" lon="05.839866"><ele>26.2</ele><time>2021-01-12T12:53:19Z</time><name>PT104</name></trkpt>
<trkpt lat="52.063204" lon="05.839847"><ele>26.1</ele><time>2021-01-12T12:53:20Z</time><name>PT105</name></trkpt>
<trkpt lat="52.063210" lon="05.839829"><ele>26</ele><time>2021-01-12T12:53:21Z</time><name>PT106</name></trkpt>
<trkpt lat="52.063215" lon="05.839814"><ele>26</ele><time>2021-01-12T12:53:22Z</time><name>PT107</name></trkpt>
<trkpt lat="52.063219" lon="05.839799"><ele>25.8</ele><time>2021-01-12T12:53:23Z</time><name>PT108</name></trkpt>
<trkpt lat="52.063223" lon="05.839785"><ele>26.1</ele><time>2021-01-12T12:53:24Z</time><name>PT109</name></trkpt>
<trkpt lat="52.063226" lon="05.839767"><ele>26.1</ele><time>2021-01-12T12:53:25Z</time><name>PT110</name></trkpt>
<trkpt lat="52.063229" lon="05.839746"><ele>26.1</ele><time>2021-01-12T12:53:26Z</time><name>PT111</name></trkpt>
<trkpt lat="52.063233" lon="05.839726"><ele>26</ele><time>2021-01-12T12:53:27Z</time><name>PT112</name></trkpt>
<trkpt lat="52.063238" lon="05.839708"><ele>25.9</ele><time>2021-01-12T12:53:28Z</time><name>PT113</name></trkpt>
<trkpt lat="52.063239" lon="05.839691"><ele>25.8</ele><time>2021-01-12T12:53:29Z</time><name>PT114</name></trkpt>
<trkpt lat="52.063239" lon="05.839672"><ele>25.9</ele><time>2021-01-12T12:53:30Z</time><name>PT115</name></trkpt>
<trkpt lat="52.063236" lon="05.839659"><ele>26</ele><time>2021-01-12T12:53:31Z</time><name>PT116</name></trkpt>
<trkpt lat="52.063233" lon="05.839639"><ele>26</ele><time>2021-01-12T12:53:32Z</time><name>PT117</name></trkpt>
<trkpt lat="52.063235" lon="05.839618"><ele>25.9</ele><time>2021-01-12T12:53:33Z</time><name>PT118</name></trkpt>
<trkpt lat="52.063235" lon="05.839602"><ele>25.7</ele><time>2021-01-12T12:53:34Z</time><name>PT119</name></trkpt>
<trkpt lat="52.063238" lon="05.839585"><ele>25.7</ele><time>2021-01-12T12:53:35Z</time><name>PT120</name></trkpt>
<trkpt lat="52.063240" lon="05.839568"><ele>25.8</ele><time>2021-01-12T12:53:36Z</time><name>PT121</name></trkpt>
<trkpt lat="52.063243" lon="05.839553"><ele>25.9</ele><time>2021-01-12T12:53:37Z</time><name>PT122</name></trkpt>
<trkpt lat="52.063246" lon="05.839530"><ele>26.1</ele><time>2021-01-12T12:53:38Z</time><name>PT123</name></trkpt>
<trkpt lat="52.063252" lon="05.839513"><ele>26</ele><time>2021-01-12T12:53:39Z</time><name>PT124</name></trkpt>
<trkpt lat="52.063258" lon="05.839499"><ele>25.8</ele><time>2021-01-12T12:53:40Z</time><name>PT125</name></trkpt>
<trkpt lat="52.063262" lon="05.839484"><ele>26</ele><time>2021-01-12T12:53:41Z</time><name>PT126</name></trkpt>
<trkpt lat="52.063266" lon="05.839465"><ele>25.9</ele><time>2021-01-12T12:53:42Z</time><name>PT127</name></trkpt>
<trkpt lat="52.063271" lon="05.839444"><ele>26</ele><time>2021-01-12T12:53:43Z</time><name>PT128</name></trkpt>
<trkpt lat="52.063275" lon="05.839424"><ele>26.2</ele><time>2021-01-12T12:53:44Z</time><name>PT129</name></trkpt>
<trkpt lat="52.063281" lon="05.839400"><ele>26.1</ele><time>2021-01-12T12:53:45Z</time><name>PT130</name></trkpt>
<trkpt lat="52.063282" lon="05.839376"><ele>26</ele><time>2021-01-12T12:53:46Z</time><name>PT131</name></trkpt>
<trkpt lat="52.063283" lon="05.839356"><ele>26</ele><time>2021-01-12T12:53:47Z</time><name>PT132</name></trkpt>
<trkpt lat="52.063283" lon="05.839338"><ele>25.8</ele><time>2021-01-12T12:53:48Z</time><name>PT133</name></trkpt>
<trkpt lat="52.063281" lon="05.839323"><ele>25.7</ele><time>2021-01-12T12:53:49Z</time><name>PT134</name></trkpt>
<trkpt lat="52.063285" lon="05.839309"><ele>25.8</ele><time>2021-01-12T12:53:50Z</time><name>PT135</name></trkpt>
<trkpt lat="52.063288" lon="05.839293"><ele>25.9</ele><time>2021-01-12T12:53:51Z</time><name>PT136</name></trkpt>
<trkpt lat="52.063290" lon="05.839268"><ele>25.9</ele><time>2021-01-12T12:53:52Z</time><name>PT137</name></trkpt>
<trkpt lat="52.063290" lon="05.839237"><ele>25.9</ele><time>2021-01-12T12:53:53Z</time><name>PT138</name></trkpt>
<trkpt lat="52.063291" lon="05.839211"><ele>26.2</ele><time>2021-01-12T12:53:54Z</time><name>PT139</name></trkpt>
<trkpt lat="52.063288" lon="05.839184"><ele>26.1</ele><time>2021-01-12T12:53:55Z</time><name>PT140</name></trkpt>
<trkpt lat="52.063288" lon="05.839164"><ele>25.9</ele><time>2021-01-12T12:53:56Z</time><name>PT141</name></trkpt>
<trkpt lat="52.063285" lon="05.839141"><ele>26</ele><time>2021-01-12T12:53:57Z</time><name>PT142</name></trkpt>
<trkpt lat="52.063282" lon="05.839122"><ele>25.9</ele><time>2021-01-12T12:53:58Z</time><name>PT143</name></trkpt>
<trkpt lat="52.063280" lon="05.839104"><ele>25.9</ele><time>2021-01-12T12:53:59Z</time><name>PT144</name></trkpt>
<trkpt lat="52.063278" lon="05.839091"><ele>25.9</ele><time>2021-01-12T12:54:00Z</time><name>PT145</name></trkpt>
<trkpt lat="52.063277" lon="05.839076"><ele>26.2</ele><time>2021-01-12T12:54:01Z</time><name>PT146</name></trkpt>
<trkpt lat="52.063277" lon="05.839058"><ele>26</ele><time>2021-01-12T12:54:02Z</time><name>PT147</name></trkpt>
<trkpt lat="52.063276" lon="05.839032"><ele>26.2</ele><time>2021-01-12T12:54:03Z</time><name>PT148</name></trkpt>
<trkpt lat="52.063278" lon="05.839009"><ele>26.1</ele><time>2021-01-12T12:54:04Z</time><name>PT149</name></trkpt>
<trkpt lat="52.063277" lon="05.838987"><ele>26</ele><time>2021-01-12T12:54:05Z</time><name>PT150</name></trkpt>
<trkpt lat="52.063275" lon="05.838963"><ele>26.1</ele><time>2021-01-12T12:54:06Z</time><name>PT151</name></trkpt>
<trkpt lat="52.063272" lon="05.838938"><ele>26.1</ele><time>2021-01-12T12:54:07Z</time><name>PT152</name></trkpt>
<trkpt lat="52.063272" lon="05.838914"><ele>26</ele><time>2021-01-12T12:54:08Z</time><name>PT153</name></trkpt>
<trkpt lat="52.063269" lon="05.838901"><ele>26.2</ele><time>2021-01-12T12:54:09Z</time><name>PT154</name></trkpt>
<trkpt lat="52.063264" lon="05.838886"><ele>26.2</ele><time>2021-01-12T12:54:10Z</time><name>PT155</name></trkpt>
<trkpt lat="52.063259" lon="05.838868"><ele>26.3</ele><time>2021-01-12T12:54:11Z</time><name>PT156</name></trkpt>
<trkpt lat="52.063252" lon="05.838848"><ele>26.4</ele><time>2021-01-12T12:54:12Z</time><name>PT157</name></trkpt>
<trkpt lat="52.063244" lon="05.838829"><ele>26.4</ele><time>2021-01-12T12:54:13Z</time><name>PT158</name></trkpt>
<trkpt lat="52.063237" lon="05.838802"><ele>26.5</ele><time>2021-01-12T12:54:14Z</time><name>PT159</name></trkpt>
<trkpt lat="52.063230" lon="05.838780"><ele>26.5</ele><time>2021-01-12T12:54:15Z</time><name>PT160</name></trkpt>
<trkpt lat="52.063223" lon="05.838761"><ele>26.5</ele><time>2021-01-12T12:54:16Z</time><name>PT161</name></trkpt>
<trkpt lat="52.063215" lon="05.838745"><ele>26.4</ele><time>2021-01-12T12:54:17Z</time><name>PT162</name></trkpt>
<trkpt lat="52.063209" lon="05.838733"><ele>26.1</ele><time>2021-01-12T12:54:18Z</time><name>PT163</name></trkpt>
<trkpt lat="52.063201" lon="05.838724"><ele>26.1</ele><time>2021-01-12T12:54:19Z</time><name>PT164</name></trkpt>
<trkpt lat="52.063191" lon="05.838718"><ele>26.1</ele><time>2021-01-12T12:54:20Z</time><name>PT165</name></trkpt>
<trkpt lat="52.063187" lon="05.838699"><ele>25.9</ele><time>2021-01-12T12:54:21Z</time><name>PT166</name></trkpt>
<trkpt lat="52.063182" lon="05.838682"><ele>26</ele><time>2021-01-12T12:54:22Z</time><name>PT167</name></trkpt>
<trkpt lat="52.063176" lon="05.838665"><ele>25.8</ele><time>2021-01-12T12:54:23Z</time><name>PT168</name></trkpt>
<trkpt lat="52.063167" lon="05.838643"><ele>25.8</ele><time>2021-01-12T12:54:24Z</time><name>PT169</name></trkpt>
<trkpt lat="52.063157" lon="05.838624"><ele>25.7</ele><time>2021-01-12T12:54:25Z</time><name>PT170</name></trkpt>
<trkpt lat="52.063148" lon="05.838608"><ele>25.7</ele><time>2021-01-12T12:54:26Z</time><name>PT171</name></trkpt>
<trkpt lat="52.063139" lon="05.838594"><ele>25.7</ele><time>2021-01-12T12:54:27Z</time><name>PT172</name></trkpt>
<trkpt lat="52.063132" lon="05.838582"><ele>25.6</ele><time>2021-01-12T12:54:28Z</time><name>PT173</name></trkpt>
<trkpt lat="52.063125" lon="05.838576"><ele>25.6</ele><time>2021-01-12T12:54:29Z</time><name>PT174</name></trkpt>
<trkpt lat="52.063118" lon="05.838566"><ele>25.6</ele><time>2021-01-12T12:54:30Z</time><name>PT175</name></trkpt>
<trkpt lat="52.063113" lon="05.838556"><ele>25.7</ele><time>2021-01-12T12:54:31Z</time><name>PT176</name></trkpt>
<trkpt lat="52.063105" lon="05.838538"><ele>25.7</ele><time>2021-01-12T12:54:32Z</time><name>PT177</name></trkpt>
<trkpt lat="52.063098" lon="05.838522"><ele>25.8</ele><time>2021-01-12T12:54:33Z</time><name>PT178</name></trkpt>
<trkpt lat="52.063093" lon="05.838506"><ele>25.8</ele><time>2021-01-12T12:54:34Z</time><name>PT179</name></trkpt>
<trkpt lat="52.063085" lon="05.838488"><ele>25.8</ele><time>2021-01-12T12:54:35Z</time><name>PT180</name></trkpt>
<trkpt lat="52.063077" lon="05.838464"><ele>25.9</ele><time>2021-01-12T12:54:36Z</time><name>PT181</name></trkpt>
<trkpt lat="52.063069" lon="05.838443"><ele>26</ele><time>2021-01-12T12:54:37Z</time><name>PT182</name></trkpt>
<trkpt lat="52.063061" lon="05.838420"><ele>25.8</ele><time>2021-01-12T12:54:38Z</time><name>PT183</name></trkpt>
<trkpt lat="52.063055" lon="05.838403"><ele>26</ele><time>2021-01-12T12:54:39Z</time><name>PT184</name></trkpt>
<trkpt lat="52.063049" lon="05.838390"><ele>26</ele><time>2021-01-12T12:54:40Z</time><name>PT185</name></trkpt>
<trkpt lat="52.063043" lon="05.838378"><ele>25.9</ele><time>2021-01-12T12:54:41Z</time><name>PT186</name></trkpt>
<trkpt lat="52.063034" lon="05.838365"><ele>26.2</ele><time>2021-01-12T12:54:42Z</time><name>PT187</name></trkpt>
<trkpt lat="52.063028" lon="05.838352"><ele>26.2</ele><time>2021-01-12T12:54:43Z</time><name>PT188</name></trkpt>
<trkpt lat="52.063022" lon="05.838337"><ele>26.2</ele><time>2021-01-12T12:54:44Z</time><name>PT189</name></trkpt>
<trkpt lat="52.063014" lon="05.838327"><ele>26.3</ele><time>2021-01-12T12:54:45Z</time><name>PT190</name></trkpt>
<trkpt lat="52.063007" lon="05.838315"><ele>26.3</ele><time>2021-01-12T12:54:46Z</time><name>PT191</name></trkpt>
<trkpt lat="52.063004" lon="05.838299"><ele>26.2</ele><time>2021-01-12T12:54:47Z</time><name>PT192</name></trkpt>
<trkpt lat="52.062999" lon="05.838284"><ele>26.4</ele><time>2021-01-12T12:54:48Z</time><name>PT193</name></trkpt>
<trkpt lat="52.062994" lon="05.838268"><ele>26.2</ele><time>2021-01-12T12:54:49Z</time><name>PT194</name></trkpt>
<trkpt lat="52.062989" lon="05.838267"><ele>26.2</ele><time>2021-01-12T12:54:50Z</time><name>PT195</name></trkpt>
<trkpt lat="52.062982" lon="05.838250"><ele>26.3</ele><time>2021-01-12T12:54:51Z</time><name>PT196</name></trkpt>
<trkpt lat="52.062978" lon="05.838232"><ele>26.3</ele><time>2021-01-12T12:54:52Z</time><name>PT197</name></trkpt>
<trkpt lat="52.062973" lon="05.838216"><ele>26.2</ele><time>2021-01-12T12:54:53Z</time><name>PT198</name></trkpt>
<trkpt lat="52.062969" lon="05.838200"><ele>26.1</ele><time>2021-01-12T12:54:54Z</time><name>PT199</name></trkpt>
<trkpt lat="52.062964" lon="05.838186"><ele>26</ele><time>2021-01-12T12:54:55Z</time><name>PT200</name></trkpt>
<trkpt lat="52.062957" lon="05.838175"><ele>25.9</ele><time>2021-01-12T12:54:56Z</time><name>PT201</name></trkpt>
<trkpt lat="52.062950" lon="05.838162"><ele>25.9</ele><time>2021-01-12T12:54:57Z</time><name>PT202</name></trkpt>
<trkpt lat="52.062946" lon="05.838151"><ele>26.1</ele><time>2021-01-12T12:54:58Z</time><name>PT203</name></trkpt>
<trkpt lat="52.062947" lon="05.838148"><ele>26.1</ele><time>2021-01-12T12:54:59Z</time><name>PT204</name></trkpt>
<trkpt lat="52.062949" lon="05.838150"><ele>26.2</ele><time>2021-01-12T12:55:00Z</time><name>PT205</name></trkpt>
<trkpt lat="52.062949" lon="05.838150"><ele>26.2</ele><time>2021-01-12T12:55:01Z</time><name>PT206</name></trkpt>
<trkpt lat="52.062949" lon="05.838156"><ele>26.2</ele><time>2021-01-12T12:55:02Z</time><name>PT207</name></trkpt>
<trkpt lat="52.062950" lon="05.838156"><ele>26.2</ele><time>2021-01-12T12:55:03Z</time><name>PT208</name></trkpt>
<trkpt lat="52.062950" lon="05.838159"><ele>26.3</ele><time>2021-01-12T12:55:04Z</time><name>PT209</name></trkpt>
<trkpt lat="52.062954" lon="05.838162"><ele>26.4</ele><time>2021-01-12T12:55:05Z</time><name>PT210</name></trkpt>
<trkpt lat="52.062958" lon="05.838167"><ele>26.4</ele><time>2021-01-12T12:55:06Z</time><name>PT211</name></trkpt>
<trkpt lat="52.062960" lon="05.838169"><ele>26.4</ele><time>2021-01-12T12:55:07Z</time><name>PT212</name></trkpt>
<trkpt lat="52.062959" lon="05.838171"><ele>26.3</ele><time>2021-01-12T12:55:08Z</time><name>PT213</name></trkpt>
<trkpt lat="52.062958" lon="05.838170"><ele>26.3</ele><time>2021-01-12T12:55:09Z</time><name>PT214</name></trkpt>
<trkpt lat="52.062958" lon="05.838172"><ele>26.2</ele><time>2021-01-12T12:55:10Z</time><name>PT215</name></trkpt>
<trkpt lat="52.062961" lon="05.838195"><ele>26.6</ele><time>2021-01-12T12:55:33Z</time><name>PT216</name></trkpt>
<trkpt lat="52.062961" lon="05.838203"><ele>26.5</ele><time>2021-01-12T12:55:34Z</time><name>PT217</name></trkpt>
<trkpt lat="52.062965" lon="05.838209"><ele>26.4</ele><time>2021-01-12T12:55:35Z</time><name>PT218</name></trkpt>
<trkpt lat="52.062970" lon="05.838199"><ele>26.3</ele><time>2021-01-12T12:55:36Z</time><name>PT219</name></trkpt>
<trkpt lat="52.062968" lon="05.838202"><ele>26.4</ele><time>2021-01-12T12:55:37Z</time><name>PT220</name></trkpt>
<trkpt lat="52.062966" lon="05.838202"><ele>26.2</ele><time>2021-01-12T12:55:38Z</time><name>PT221</name></trkpt>
<trkpt lat="52.062969" lon="05.838201"><ele>26.1</ele><time>2021-01-12T12:55:39Z</time><name>PT222</name></trkpt>
<trkpt lat="52.062971" lon="05.838203"><ele>26.2</ele><time>2021-01-12T12:55:41Z</time><name>PT223</name></trkpt>
<trkpt lat="52.062970" lon="05.838207"><ele>26.3</ele><time>2021-01-12T12:55:42Z</time><name>PT224</name></trkpt>
<trkpt lat="52.062966" lon="05.838205"><ele>26.5</ele><time>2021-01-12T12:55:43Z</time><name>PT225</name></trkpt>
<trkpt lat="52.062965" lon="05.838202"><ele>26.5</ele><time>2021-01-12T12:55:44Z</time><name>PT226</name></trkpt>
<trkpt lat="52.062964" lon="05.838196"><ele>26.5</ele><time>2021-01-12T12:55:45Z</time><name>PT227</name></trkpt>
<trkpt lat="52.062956" lon="05.838199"><ele>26.3</ele><time>2021-01-12T12:55:51Z</time><name>PT228</name></trkpt>
<trkpt lat="52.062948" lon="05.838183"><ele>26.2</ele><time>2021-01-12T12:55:52Z</time><name>PT229</name></trkpt>
<trkpt lat="52.062940" lon="05.838171"><ele>26.2</ele><time>2021-01-12T12:55:53Z</time><name>PT230</name></trkpt>
<trkpt lat="52.062937" lon="05.838159"><ele>26</ele><time>2021-01-12T12:55:54Z</time><name>PT231</name></trkpt>
<trkpt lat="52.062927" lon="05.838145"><ele>26</ele><time>2021-01-12T12:55:55Z</time><name>PT232</name></trkpt>
<trkpt lat="52.062918" lon="05.838133"><ele>26.2</ele><time>2021-01-12T12:55:56Z</time><name>PT233</name></trkpt>
<trkpt lat="52.062913" lon="05.838120"><ele>26.2</ele><time>2021-01-12T12:55:57Z</time><name>PT234</name></trkpt>
<trkpt lat="52.062906" lon="05.838110"><ele>26</ele><time>2021-01-12T12:55:58Z</time><name>PT235</name></trkpt>
<trkpt lat="52.062901" lon="05.838095"><ele>26</ele><time>2021-01-12T12:55:59Z</time><name>PT236</name></trkpt>
<trkpt lat="52.062895" lon="05.838081"><ele>26.1</ele><time>2021-01-12T12:56:00Z</time><name>PT237</name></trkpt>
<trkpt lat="52.062885" lon="05.838068"><ele>26.1</ele><time>2021-01-12T12:56:01Z</time><name>PT238</name></trkpt>
<trkpt lat="52.062877" lon="05.838055"><ele>26.1</ele><time>2021-01-12T12:56:02Z</time><name>PT239</name></trkpt>
<trkpt lat="52.062873" lon="05.838049"><ele>26.2</ele><time>2021-01-12T12:56:03Z</time><name>PT240</name></trkpt>
<trkpt lat="52.062868" lon="05.838037"><ele>26.2</ele><time>2021-01-12T12:56:04Z</time><name>PT241</name></trkpt>
<trkpt lat="52.062863" lon="05.838022"><ele>26.1</ele><time>2021-01-12T12:56:05Z</time><name>PT242</name></trkpt>
<trkpt lat="52.062857" lon="05.838010"><ele>26.1</ele><time>2021-01-12T12:56:06Z</time><name>PT243</name></trkpt>
<trkpt lat="52.062853" lon="05.837997"><ele>26.1</ele><time>2021-01-12T12:56:07Z</time><name>PT244</name></trkpt>
<trkpt lat="52.062848" lon="05.837987"><ele>26</ele><time>2021-01-12T12:56:08Z</time><name>PT245</name></trkpt>
<trkpt lat="52.062841" lon="05.837974"><ele>26</ele><time>2021-01-12T12:56:09Z</time><name>PT246</name></trkpt>
<trkpt lat="52.062834" lon="05.837964"><ele>26</ele><time>2021-01-12T12:56:10Z</time><name>PT247</name></trkpt>
<trkpt lat="52.062827" lon="05.837951"><ele>26.1</ele><time>2021-01-12T12:56:11Z</time><name>PT248</name></trkpt>
<trkpt lat="52.062820" lon="05.837935"><ele>26</ele><time>2021-01-12T12:56:12Z</time><name>PT249</name></trkpt>
<trkpt lat="52.062814" lon="05.837917"><ele>26</ele><time>2021-01-12T12:56:13Z</time><name>PT250</name></trkpt>
<trkpt lat="52.062812" lon="05.837905"><ele>26.1</ele><time>2021-01-12T12:56:14Z</time><name>PT251</name></trkpt>
<trkpt lat="52.062809" lon="05.837893"><ele>26.2</ele><time>2021-01-12T12:56:15Z</time><name>PT252</name></trkpt>
<trkpt lat="52.062807" lon="05.837883"><ele>26.3</ele><time>2021-01-12T12:56:16Z</time><name>PT253</name></trkpt>
<trkpt lat="52.062803" lon="05.837874"><ele>26.3</ele><time>2021-01-12T12:56:17Z</time><name>PT254</name></trkpt>
<trkpt lat="52.062799" lon="05.837863"><ele>26.2</ele><time>2021-01-12T12:56:18Z</time><name>PT255</name></trkpt>
<trkpt lat="52.062794" lon="05.837853"><ele>26.2</ele><time>2021-01-12T12:56:19Z</time><name>PT256</name></trkpt>
<trkpt lat="52.062787" lon="05.837840"><ele>26.1</ele><time>2021-01-12T12:56:20Z</time><name>PT257</name></trkpt>
<trkpt lat="52.062777" lon="05.837823"><ele>26</ele><time>2021-01-12T12:56:21Z</time><name>PT258</name></trkpt>
<trkpt lat="52.062766" lon="05.837798"><ele>26.1</ele><time>2021-01-12T12:56:22Z</time><name>PT259</name></trkpt>
<trkpt lat="52.062759" lon="05.837773"><ele>26.2</ele><time>2021-01-12T12:56:23Z</time><name>PT260</name></trkpt>
<trkpt lat="52.062753" lon="05.837755"><ele>26.1</ele><time>2021-01-12T12:56:24Z</time><name>PT261</name></trkpt>
<trkpt lat="52.062749" lon="05.837735"><ele>26</ele><time>2021-01-12T12:56:25Z</time><name>PT262</name></trkpt>
<trkpt lat="52.062745" lon="05.837717"><ele>26</ele><time>2021-01-12T12:56:26Z</time><name>PT263</name></trkpt>
<trkpt lat="52.062738" lon="05.837699"><ele>25.8</ele><time>2021-01-12T12:56:27Z</time><name>PT264</name></trkpt>
<trkpt lat="52.062729" lon="05.837680"><ele>25.7</ele><time>2021-01-12T12:56:28Z</time><name>PT265</name></trkpt>
<trkpt lat="52.062724" lon="05.837670"><ele>25.7</ele><time>2021-01-12T12:56:29Z</time><name>PT266</name></trkpt>
<trkpt lat="52.062719" lon="05.837656"><ele>25.8</ele><time>2021-01-12T12:56:30Z</time><name>PT267</name></trkpt>
<trkpt lat="52.062710" lon="05.837635"><ele>25.7</ele><time>2021-01-12T12:56:31Z</time><name>PT268</name></trkpt>
<trkpt lat="52.062703" lon="05.837617"><ele>25.7</ele><time>2021-01-12T12:56:32Z</time><name>PT269</name></trkpt>
<trkpt lat="52.062693" lon="05.837601"><ele>25.9</ele><time>2021-01-12T12:56:33Z</time><name>PT270</name></trkpt>
<trkpt lat="52.062684" lon="05.837596"><ele>26</ele><time>2021-01-12T12:56:34Z</time><name>PT271</name></trkpt>
<trkpt lat="52.062673" lon="05.837590"><ele>25.7</ele><time>2021-01-12T12:56:35Z</time><name>PT272</name></trkpt>
<trkpt lat="52.062661" lon="05.837581"><ele>25.8</ele><time>2021-01-12T12:56:36Z</time><name>PT273</name></trkpt>
<trkpt lat="52.062649" lon="05.837569"><ele>25.7</ele><time>2021-01-12T12:56:37Z</time><name>PT274</name></trkpt>
<trkpt lat="52.062636" lon="05.837548"><ele>25.7</ele><time>2021-01-12T12:56:38Z</time><name>PT275</name></trkpt>
<trkpt lat="52.062629" lon="05.837532"><ele>25.6</ele><time>2021-01-12T12:56:39Z</time><name>PT276</name></trkpt>
<trkpt lat="52.062622" lon="05.837523"><ele>25.5</ele><time>2021-01-12T12:56:40Z</time><name>PT277</name></trkpt>
<trkpt lat="52.062616" lon="05.837510"><ele>25.5</ele><time>2021-01-12T12:56:41Z</time><name>PT278</name></trkpt>
<trkpt lat="52.062609" lon="05.837486"><ele>25.6</ele><time>2021-01-12T12:56:42Z</time><name>PT279</name></trkpt>
<trkpt lat="52.062603" lon="05.837468"><ele>25.7</ele><time>2021-01-12T12:56:43Z</time><name>PT280</name></trkpt>
<trkpt lat="52.062596" lon="05.837449"><ele>25.5</ele><time>2021-01-12T12:56:44Z</time><name>PT281</name></trkpt>
<trkpt lat="52.062594" lon="05.837437"><ele>25.6</ele><time>2021-01-12T12:56:45Z</time><name>PT282</name></trkpt>
<trkpt lat="52.062589" lon="05.837423"><ele>25.6</ele><time>2021-01-12T12:56:46Z</time><name>PT283</name></trkpt>
<trkpt lat="52.062585" lon="05.837409"><ele>25.5</ele><time>2021-01-12T12:56:47Z</time><name>PT284</name></trkpt>
<trkpt lat="52.062579" lon="05.837390"><ele>25.7</ele><time>2021-01-12T12:56:48Z</time><name>PT285</name></trkpt>
<trkpt lat="52.062571" lon="05.837368"><ele>25.8</ele><time>2021-01-12T12:56:49Z</time><name>PT286</name></trkpt>
<trkpt lat="52.062561" lon="05.837341"><ele>25.8</ele><time>2021-01-12T12:56:50Z</time><name>PT287</name></trkpt>
<trkpt lat="52.062554" lon="05.837326"><ele>25.9</ele><time>2021-01-12T12:56:51Z</time><name>PT288</name></trkpt>
<trkpt lat="52.062547" lon="05.837305"><ele>25.9</ele><time>2021-01-12T12:56:52Z</time><name>PT289</name></trkpt>
<trkpt lat="52.062542" lon="05.837283"><ele>25.9</ele><time>2021-01-12T12:56:53Z</time><name>PT290</name></trkpt>
<trkpt lat="52.062537" lon="05.837271"><ele>25.8</ele><time>2021-01-12T12:56:54Z</time><name>PT291</name></trkpt>
<trkpt lat="52.062534" lon="05.837257"><ele>25.7</ele><time>2021-01-12T12:56:55Z</time><name>PT292</name></trkpt>
<trkpt lat="52.062528" lon="05.837241"><ele>25.7</ele><time>2021-01-12T12:56:56Z</time><name>PT293</name></trkpt>
<trkpt lat="52.062524" lon="05.837233"><ele>25.7</ele><time>2021-01-12T12:56:57Z</time><name>PT294</name></trkpt>
<trkpt lat="52.062511" lon="05.837212"><ele>25.7</ele><time>2021-01-12T12:56:58Z</time><name>PT295</name></trkpt>
<trkpt lat="52.062504" lon="05.837198"><ele>25.8</ele><time>2021-01-12T12:56:59Z</time><name>PT296</name></trkpt>
<trkpt lat="52.062493" lon="05.837179"><ele>25.9</ele><time>2021-01-12T12:57:00Z</time><name>PT297</name></trkpt>
<trkpt lat="52.062484" lon="05.837161"><ele>25.9</ele><time>2021-01-12T12:57:01Z</time><name>PT298</name></trkpt>
<trkpt lat="52.062480" lon="05.837142"><ele>25.8</ele><time>2021-01-12T12:57:02Z</time><name>PT299</name></trkpt>
<trkpt lat="52.062475" lon="05.837127"><ele>25.9</ele><time>2021-01-12T12:57:03Z</time><name>PT300</name></trkpt>
<trkpt lat="52.062471" lon="05.837112"><ele>25.7</ele><time>2021-01-12T12:57:04Z</time><name>PT301</name></trkpt>
<trkpt lat="52.062463" lon="05.837100"><ele>25.8</ele><time>2021-01-12T12:57:05Z</time><name>PT302</name></trkpt>
<trkpt lat="52.062454" lon="05.837083"><ele>25.8</ele><time>2021-01-12T12:57:06Z</time><name>PT303</name></trkpt>
<trkpt lat="52.062446" lon="05.837065"><ele>25.8</ele><time>2021-01-12T12:57:07Z</time><name>PT304</name></trkpt>
<trkpt lat="52.062438" lon="05.837046"><ele>25.7</ele><time>2021-01-12T12:57:08Z</time><name>PT305</name></trkpt>
<trkpt lat="52.062427" lon="05.837022"><ele>25.8</ele><time>2021-01-12T12:57:09Z</time><name>PT306</name></trkpt>
<trkpt lat="52.062418" lon="05.837005"><ele>25.7</ele><time>2021-01-12T12:57:10Z</time><name>PT307</name></trkpt>
<trkpt lat="52.062408" lon="05.836987"><ele>25.9</ele><time>2021-01-12T12:57:11Z</time><name>PT308</name></trkpt>
<trkpt lat="52.062398" lon="05.836975"><ele>25.7</ele><time>2021-01-12T12:57:12Z</time><name>PT309</name></trkpt>
<trkpt lat="52.062389" lon="05.836957"><ele>25.9</ele><time>2021-01-12T12:57:13Z</time><name>PT310</name></trkpt>
<trkpt lat="52.062380" lon="05.836937"><ele>26.1</ele><time>2021-01-12T12:57:14Z</time><name>PT311</name></trkpt>
<trkpt lat="52.062372" lon="05.836922"><ele>26</ele><time>2021-01-12T12:57:15Z</time><name>PT312</name></trkpt>
<trkpt lat="52.062366" lon="05.836908"><ele>25.9</ele><time>2021-01-12T12:57:16Z</time><name>PT313</name></trkpt>
<trkpt lat="52.062356" lon="05.836893"><ele>25.9</ele><time>2021-01-12T12:57:17Z</time><name>PT314</name></trkpt>
<trkpt lat="52.062348" lon="05.836882"><ele>25.7</ele><time>2021-01-12T12:57:18Z</time><name>PT315</name></trkpt>
<trkpt lat="52.062340" lon="05.836869"><ele>25.7</ele><time>2021-01-12T12:57:19Z</time><name>PT316</name></trkpt>
<trkpt lat="52.062334" lon="05.836860"><ele>25.6</ele><time>2021-01-12T12:57:20Z</time><name>PT317</name></trkpt>
<trkpt lat="52.062324" lon="05.836841"><ele>25.6</ele><time>2021-01-12T12:57:21Z</time><name>PT318</name></trkpt>
<trkpt lat="52.062314" lon="05.836817"><ele>25.5</ele><time>2021-01-12T12:57:22Z</time><name>PT319</name></trkpt>
<trkpt lat="52.062305" lon="05.836796"><ele>25.6</ele><time>2021-01-12T12:57:23Z</time><name>PT320</name></trkpt>
<trkpt lat="52.062295" lon="05.836774"><ele>25.6</ele><time>2021-01-12T12:57:24Z</time><name>PT321</name></trkpt>
<trkpt lat="52.062288" lon="05.836759"><ele>25.6</ele><time>2021-01-12T12:57:25Z</time><name>PT322</name></trkpt>
<trkpt lat="52.062279" lon="05.836731"><ele>25.7</ele><time>2021-01-12T12:57:26Z</time><name>PT323</name></trkpt>
<trkpt lat="52.062270" lon="05.836708"><ele>25.7</ele><time>2021-01-12T12:57:27Z</time><name>PT324</name></trkpt>
<trkpt lat="52.062266" lon="05.836699"><ele>25.6</ele><time>2021-01-12T12:57:28Z</time><name>PT325</name></trkpt>
<trkpt lat="52.062263" lon="05.836685"><ele>25.6</ele><time>2021-01-12T12:57:29Z</time><name>PT326</name></trkpt>
<trkpt lat="52.062254" lon="05.836667"><ele>25.7</ele><time>2021-01-12T12:57:30Z</time><name>PT327</name></trkpt>
<trkpt lat="52.062249" lon="05.836643"><ele>25.7</ele><time>2021-01-12T12:57:31Z</time><name>PT328</name></trkpt>
<trkpt lat="52.062242" lon="05.836627"><ele>25.7</ele><time>2021-01-12T12:57:32Z</time><name>PT329</name></trkpt>
<trkpt lat="52.062231" lon="05.836606"><ele>25.9</ele><time>2021-01-12T12:57:33Z</time><name>PT330</name></trkpt>
<trkpt lat="52.062224" lon="05.836590"><ele>26</ele><time>2021-01-12T12:57:34Z</time><name>PT331</name></trkpt>
<trkpt lat="52.062213" lon="05.836571"><ele>26</ele><time>2021-01-12T12:57:35Z</time><name>PT332</name></trkpt>
<trkpt lat="52.062201" lon="05.836541"><ele>26.1</ele><time>2021-01-12T12:57:36Z</time><name>PT333</name></trkpt>
<trkpt lat="52.062190" lon="05.836516"><ele>26</ele><time>2021-01-12T12:57:37Z</time><name>PT334</name></trkpt>
<trkpt lat="52.062182" lon="05.836504"><ele>25.8</ele><time>2021-01-12T12:57:38Z</time><name>PT335</name></trkpt>
<trkpt lat="52.062172" lon="05.836484"><ele>25.8</ele><time>2021-01-12T12:57:39Z</time><name>PT336</name></trkpt>
<trkpt lat="52.062164" lon="05.836463"><ele>26</ele><time>2021-01-12T12:57:40Z</time><name>PT337</name></trkpt>
<trkpt lat="52.062154" lon="05.836441"><ele>25.7</ele><time>2021-01-12T12:57:41Z</time><name>PT338</name></trkpt>
<trkpt lat="52.062143" lon="05.836417"><ele>25.8</ele><time>2021-01-12T12:57:42Z</time><name>PT339</name></trkpt>
<trkpt lat="52.062130" lon="05.836393"><ele>25.8</ele><time>2021-01-12T12:57:43Z</time><name>PT340</name></trkpt>
<trkpt lat="52.062120" lon="05.836372"><ele>25.7</ele><time>2021-01-12T12:57:44Z</time><name>PT341</name></trkpt>
<trkpt lat="52.062111" lon="05.836353"><ele>25.7</ele><time>2021-01-12T12:57:45Z</time><name>PT342</name></trkpt>
<trkpt lat="52.062103" lon="05.836336"><ele>25.7</ele><time>2021-01-12T12:57:46Z</time><name>PT343</name></trkpt>
<trkpt lat="52.062095" lon="05.836322"><ele>25.7</ele><time>2021-01-12T12:57:47Z</time><name>PT344</name></trkpt>
<trkpt lat="52.062087" lon="05.836307"><ele>26</ele><time>2021-01-12T12:57:48Z</time><name>PT345</name></trkpt>
<trkpt lat="52.062078" lon="05.836292"><ele>26.1</ele><time>2021-01-12T12:57:49Z</time><name>PT346</name></trkpt>
<trkpt lat="52.062071" lon="05.836273"><ele>26.3</ele><time>2021-01-12T12:57:50Z</time><name>PT347</name></trkpt>
<trkpt lat="52.062062" lon="05.836256"><ele>26.4</ele><time>2021-01-12T12:57:51Z</time><name>PT348</name></trkpt>
<trkpt lat="52.062056" lon="05.836238"><ele>26.4</ele><time>2021-01-12T12:57:52Z</time><name>PT349</name></trkpt>
<trkpt lat="52.062052" lon="05.836223"><ele>26.3</ele><time>2021-01-12T12:57:53Z</time><name>PT350</name></trkpt>
<trkpt lat="52.062046" lon="05.836206"><ele>26.2</ele><time>2021-01-12T12:57:54Z</time><name>PT351</name></trkpt>
<trkpt lat="52.062037" lon="05.836186"><ele>26.3</ele><time>2021-01-12T12:57:55Z</time><name>PT352</name></trkpt>
<trkpt lat="52.062029" lon="05.836170"><ele>26.2</ele><time>2021-01-12T12:57:56Z</time><name>PT353</name></trkpt>
<trkpt lat="52.062025" lon="05.836161"><ele>26.2</ele><time>2021-01-12T12:57:57Z</time><name>PT354</name></trkpt>
<trkpt lat="52.062022" lon="05.836148"><ele>26.4</ele><time>2021-01-12T12:57:58Z</time><name>PT355</name></trkpt>
<trkpt lat="52.062017" lon="05.836134"><ele>26.3</ele><time>2021-01-12T12:57:59Z</time><name>PT356</name></trkpt>
<trkpt lat="52.062010" lon="05.836118"><ele>26.1</ele><time>2021-01-12T12:58:00Z</time><name>PT357</name></trkpt>
<trkpt lat="52.062003" lon="05.836102"><ele>26.2</ele><time>2021-01-12T12:58:01Z</time><name>PT358</name></trkpt>
<trkpt lat="52.061998" lon="05.836080"><ele>26.1</ele><time>2021-01-12T12:58:02Z</time><name>PT359</name></trkpt>
<trkpt lat="52.061992" lon="05.836064"><ele>25.9</ele><time>2021-01-12T12:58:03Z</time><name>PT360</name></trkpt>
<trkpt lat="52.061986" lon="05.836050"><ele>25.8</ele><time>2021-01-12T12:58:04Z</time><name>PT361</name></trkpt>
<trkpt lat="52.061978" lon="05.836031"><ele>25.7</ele><time>2021-01-12T12:58:05Z</time><name>PT362</name></trkpt>
<trkpt lat="52.061972" lon="05.836016"><ele>25.8</ele><time>2021-01-12T12:58:06Z</time><name>PT363</name></trkpt>
<trkpt lat="52.061963" lon="05.836003"><ele>25.8</ele><time>2021-01-12T12:58:07Z</time><name>PT364</name></trkpt>
<trkpt lat="52.061958" lon="05.835996"><ele>25.8</ele><time>2021-01-12T12:58:08Z</time><name>PT365</name></trkpt>
<trkpt lat="52.061949" lon="05.835984"><ele>25.9</ele><time>2021-01-12T12:58:09Z</time><name>PT366</name></trkpt>
<trkpt lat="52.061944" lon="05.835978"><ele>26</ele><time>2021-01-12T12:58:10Z</time><name>PT367</name></trkpt>
<trkpt lat="52.061935" lon="05.835960"><ele>26.2</ele><time>2021-01-12T12:58:11Z</time><name>PT368</name></trkpt>
<trkpt lat="52.061929" lon="05.835943"><ele>26.3</ele><time>2021-01-12T12:58:12Z</time><name>PT369</name></trkpt>
<trkpt lat="52.061920" lon="05.835927"><ele>26.2</ele><time>2021-01-12T12:58:13Z</time><name>PT370</name></trkpt>
<trkpt lat="52.061914" lon="05.835918"><ele>26.2</ele><time>2021-01-12T12:58:14Z</time><name>PT371</name></trkpt>
<trkpt lat="52.061908" lon="05.835910"><ele>26.2</ele><time>2021-01-12T12:58:15Z</time><name>PT372</name></trkpt>
<trkpt lat="52.061903" lon="05.835903"><ele>26</ele><time>2021-01-12T12:58:16Z</time><name>PT373</name></trkpt>
<trkpt lat="52.061896" lon="05.835889"><ele>25.9</ele><time>2021-01-12T12:58:17Z</time><name>PT374</name></trkpt>
<trkpt lat="52.061892" lon="05.835887"><ele>26.1</ele><time>2021-01-12T12:58:18Z</time><name>PT375</name></trkpt>
<trkpt lat="52.061885" lon="05.835874"><ele>26</ele><time>2021-01-12T12:58:19Z</time><name>PT376</name></trkpt>
<trkpt lat="52.061876" lon="05.835857"><ele>26</ele><time>2021-01-12T12:58:20Z</time><name>PT377</name></trkpt>
<trkpt lat="52.061868" lon="05.835838"><ele>26.2</ele><time>2021-01-12T12:58:21Z</time><name>PT378</name></trkpt>
<trkpt lat="52.061859" lon="05.835815"><ele>26.1</ele><time>2021-01-12T12:58:22Z</time><name>PT379</name></trkpt>
<trkpt lat="52.061850" lon="05.835792"><ele>25.9</ele><time>2021-01-12T12:58:23Z</time><name>PT380</name></trkpt>
<trkpt lat="52.061841" lon="05.835768"><ele>25.8</ele><time>2021-01-12T12:58:24Z</time><name>PT381</name></trkpt>
<trkpt lat="52.061827" lon="05.835745"><ele>25.8</ele><time>2021-01-12T12:58:25Z</time><name>PT382</name></trkpt>
<trkpt lat="52.061814" lon="05.835727"><ele>25.7</ele><time>2021-01-12T12:58:26Z</time><name>PT383</name></trkpt>
<trkpt lat="52.061807" lon="05.835707"><ele>26</ele><time>2021-01-12T12:58:27Z</time><name>PT384</name></trkpt>
<trkpt lat="52.061797" lon="05.835693"><ele>26</ele><time>2021-01-12T12:58:28Z</time><name>PT385</name></trkpt>
<trkpt lat="52.061790" lon="05.835675"><ele>26.2</ele><time>2021-01-12T12:58:29Z</time><name>PT386</name></trkpt>
<trkpt lat="52.061784" lon="05.835657"><ele>26.2</ele><time>2021-01-12T12:58:30Z</time><name>PT387</name></trkpt>
<trkpt lat="52.061777" lon="05.835645"><ele>26.2</ele><time>2021-01-12T12:58:31Z</time><name>PT388</name></trkpt>
<trkpt lat="52.061768" lon="05.835630"><ele>26.2</ele><time>2021-01-12T12:58:32Z</time><name>PT389</name></trkpt>
<trkpt lat="52.061763" lon="05.835616"><ele>25.9</ele><time>2021-01-12T12:58:33Z</time><name>PT390</name></trkpt>
<trkpt lat="52.061755" lon="05.835602"><ele>25.9</ele><time>2021-01-12T12:58:34Z</time><name>PT391</name></trkpt>
<trkpt lat="52.061747" lon="05.835589"><ele>25.9</ele><time>2021-01-12T12:58:35Z</time><name>PT392</name></trkpt>
<trkpt lat="52.061740" lon="05.835575"><ele>26</ele><time>2021-01-12T12:58:36Z</time><name>PT393</name></trkpt>
<trkpt lat="52.061733" lon="05.835563"><ele>26</ele><time>2021-01-12T12:58:37Z</time><name>PT394</name></trkpt>
<trkpt lat="52.061727" lon="05.835552"><ele>25.9</ele><time>2021-01-12T12:58:38Z</time><name>PT395</name></trkpt>
<trkpt lat="52.061722" lon="05.835540"><ele>25.9</ele><time>2021-01-12T12:58:39Z</time><name>PT396</name></trkpt>
<trkpt lat="52.061714" lon="05.835524"><ele>26</ele><time>2021-01-12T12:58:40Z</time><name>PT397</name></trkpt>
<trkpt lat="52.061708" lon="05.835503"><ele>26</ele><time>2021-01-12T12:58:41Z</time><name>PT398</name></trkpt>
<trkpt lat="52.061703" lon="05.835484"><ele>26.1</ele><time>2021-01-12T12:58:42Z</time><name>PT399</name></trkpt>
<trkpt lat="52.061695" lon="05.835467"><ele>26</ele><time>2021-01-12T12:58:43Z</time><name>PT400</name></trkpt>
<trkpt lat="52.061690" lon="05.835459"><ele>25.9</ele><time>2021-01-12T12:58:44Z</time><name>PT401</name></trkpt>
<trkpt lat="52.061675" lon="05.835439"><ele>25.9</ele><time>2021-01-12T12:58:45Z</time><name>PT402</name></trkpt>
<trkpt lat="52.061663" lon="05.835426"><ele>25.8</ele><time>2021-01-12T12:58:46Z</time><name>PT403</name></trkpt>
<trkpt lat="52.061655" lon="05.835414"><ele>25.8</ele><time>2021-01-12T12:58:47Z</time><name>PT404</name></trkpt>
<trkpt lat="52.061649" lon="05.835407"><ele>25.7</ele><time>2021-01-12T12:58:48Z</time><name>PT405</name></trkpt>
<trkpt lat="52.061648" lon="05.835402"><ele>25.8</ele><time>2021-01-12T12:58:49Z</time><name>PT406</name></trkpt>
<trkpt lat="52.061644" lon="05.835388"><ele>25.7</ele><time>2021-01-12T12:58:50Z</time><name>PT407</name></trkpt>
<trkpt lat="52.061635" lon="05.835379"><ele>25.7</ele><time>2021-01-12T12:58:51Z</time><name>PT408</name></trkpt>
<trkpt lat="52.061628" lon="05.835367"><ele>25.7</ele><time>2021-01-12T12:58:52Z</time><name>PT409</name></trkpt>
<trkpt lat="52.061620" lon="05.835359"><ele>25.9</ele><time>2021-01-12T12:58:53Z</time><name>PT410</name></trkpt>
<trkpt lat="52.061612" lon="05.835344"><ele>25.9</ele><time>2021-01-12T12:58:54Z</time><name>PT411</name></trkpt>
<trkpt lat="52.061607" lon="05.835330"><ele>26</ele><time>2021-01-12T12:58:55Z</time><name>PT412</name></trkpt>
<trkpt lat="52.061605" lon="05.835316"><ele>26</ele><time>2021-01-12T12:58:56Z</time><name>PT413</name></trkpt>
<trkpt lat="52.061600" lon="05.835303"><ele>26</ele><time>2021-01-12T12:58:57Z</time><name>PT414</name></trkpt>
<trkpt lat="52.061583" lon="05.835281"><ele>25.8</ele><time>2021-01-12T12:58:58Z</time><name>PT415</name></trkpt>
<trkpt lat="52.061579" lon="05.835269"><ele>25.9</ele><time>2021-01-12T12:58:59Z</time><name>PT416</name></trkpt>
<trkpt lat="52.061575" lon="05.835250"><ele>26</ele><time>2021-01-12T12:59:00Z</time><name>PT417</name></trkpt>
<trkpt lat="52.061566" lon="05.835236"><ele>25.9</ele><time>2021-01-12T12:59:01Z</time><name>PT418</name></trkpt>
<trkpt lat="52.061558" lon="05.835218"><ele>26.1</ele><time>2021-01-12T12:59:02Z</time><name>PT419</name></trkpt>
<trkpt lat="52.061548" lon="05.835197"><ele>26.2</ele><time>2021-01-12T12:59:03Z</time><name>PT420</name></trkpt>
<trkpt lat="52.061541" lon="05.835182"><ele>26.2</ele><time>2021-01-12T12:59:04Z</time><name>PT421</name></trkpt>
<trkpt lat="52.061536" lon="05.835162"><ele>26.4</ele><time>2021-01-12T12:59:05Z</time><name>PT422</name></trkpt>
<trkpt lat="52.061531" lon="05.835141"><ele>26.6</ele><time>2021-01-12T12:59:06Z</time><name>PT423</name></trkpt>
<trkpt lat="52.061526" lon="05.835126"><ele>26.6</ele><time>2021-01-12T12:59:07Z</time><name>PT424</name></trkpt>
<trkpt lat="52.061518" lon="05.835109"><ele>26.5</ele><time>2021-01-12T12:59:08Z</time><name>PT425</name></trkpt>
<trkpt lat="52.061511" lon="05.835091"><ele>26.3</ele><time>2021-01-12T12:59:09Z</time><name>PT426</name></trkpt>
<trkpt lat="52.061503" lon="05.835071"><ele>26.4</ele><time>2021-01-12T12:59:10Z</time><name>PT427</name></trkpt>
<trkpt lat="52.061496" lon="05.835051"><ele>26.4</ele><time>2021-01-12T12:59:11Z</time><name>PT428</name></trkpt>
<trkpt lat="52.061490" lon="05.835036"><ele>26.5</ele><time>2021-01-12T12:59:12Z</time><name>PT429</name></trkpt>
<trkpt lat="52.061483" lon="05.835022"><ele>26.3</ele><time>2021-01-12T12:59:13Z</time><name>PT430</name></trkpt>
<trkpt lat="52.061481" lon="05.835013"><ele>26.3</ele><time>2021-01-12T12:59:14Z</time><name>PT431</name></trkpt>
<trkpt lat="52.061475" lon="05.834998"><ele>26.1</ele><time>2021-01-12T12:59:15Z</time><name>PT432</name></trkpt>
<trkpt lat="52.061463" lon="05.834979"><ele>25.9</ele><time>2021-01-12T12:59:16Z</time><name>PT433</name></trkpt>
<trkpt lat="52.061452" lon="05.834958"><ele>25.8</ele><time>2021-01-12T12:59:17Z</time><name>PT434</name></trkpt>
<trkpt lat="52.061442" lon="05.834945"><ele>26.1</ele><time>2021-01-12T12:59:18Z</time><name>PT435</name></trkpt>
<trkpt lat="52.061432" lon="05.834933"><ele>26</ele><time>2021-01-12T12:59:19Z</time><name>PT436</name></trkpt>
<trkpt lat="52.061426" lon="05.834918"><ele>26</ele><time>2021-01-12T12:59:20Z</time><name>PT437</name></trkpt>
<trkpt lat="52.061420" lon="05.834903"><ele>26.1</ele><time>2021-01-12T12:59:21Z</time><name>PT438</name></trkpt>
<trkpt lat="52.061413" lon="05.834891"><ele>26.1</ele><time>2021-01-12T12:59:22Z</time><name>PT439</name></trkpt>
<trkpt lat="52.061403" lon="05.834880"><ele>26</ele><time>2021-01-12T12:59:23Z</time><name>PT440</name></trkpt>
<trkpt lat="52.061397" lon="05.834868"><ele>26</ele><time>2021-01-12T12:59:24Z</time><name>PT441</name></trkpt>
<trkpt lat="52.061395" lon="05.834862"><ele>26.1</ele><time>2021-01-12T12:59:25Z</time><name>PT442</name></trkpt>
<trkpt lat="52.061389" lon="05.834850"><ele>26</ele><time>2021-01-12T12:59:26Z</time><name>PT443</name></trkpt>
<trkpt lat="52.061389" lon="05.834842"><ele>25.9</ele><time>2021-01-12T12:59:27Z</time><name>PT444</name></trkpt>
<trkpt lat="52.061380" lon="05.834819"><ele>26</ele><time>2021-01-12T12:59:28Z</time><name>PT445</name></trkpt>
<trkpt lat="52.061376" lon="05.834807"><ele>26</ele><time>2021-01-12T12:59:29Z</time><name>PT446</name></trkpt>
<trkpt lat="52.061367" lon="05.834787"><ele>26.1</ele><time>2021-01-12T12:59:30Z</time><name>PT447</name></trkpt>
<trkpt lat="52.061362" lon="05.834768"><ele>26.1</ele><time>2021-01-12T12:59:31Z</time><name>PT448</name></trkpt>
<trkpt lat="52.061359" lon="05.834752"><ele>26.1</ele><time>2021-01-12T12:59:32Z</time><name>PT449</name></trkpt>
<trkpt lat="52.061353" lon="05.834734"><ele>26.1</ele><time>2021-01-12T12:59:33Z</time><name>PT450</name></trkpt>
<trkpt lat="52.061351" lon="05.834724"><ele>26.2</ele><time>2021-01-12T12:59:34Z</time><name>PT451</name></trkpt>
<trkpt lat="52.061348" lon="05.834703"><ele>26.1</ele><time>2021-01-12T12:59:35Z</time><name>PT452</name></trkpt>
<trkpt lat="52.061348" lon="05.834674"><ele>26.2</ele><time>2021-01-12T12:59:36Z</time><name>PT453</name></trkpt>
<trkpt lat="52.061349" lon="05.834658"><ele>26.1</ele><time>2021-01-12T12:59:37Z</time><name>PT454</name></trkpt>
<trkpt lat="52.061353" lon="05.834641"><ele>26.2</ele><time>2021-01-12T12:59:38Z</time><name>PT455</name></trkpt>
<trkpt lat="52.061353" lon="05.834626"><ele>26</ele><time>2021-01-12T12:59:39Z</time><name>PT456</name></trkpt>
<trkpt lat="52.061354" lon="05.834608"><ele>25.9</ele><time>2021-01-12T12:59:40Z</time><name>PT457</name></trkpt>
<trkpt lat="52.061363" lon="05.834595"><ele>25.8</ele><time>2021-01-12T12:59:41Z</time><name>PT458</name></trkpt>
<trkpt lat="52.061370" lon="05.834580"><ele>25.7</ele><time>2021-01-12T12:59:42Z</time><name>PT459</name></trkpt>
<trkpt lat="52.061377" lon="05.834579"><ele>25.7</ele><time>2021-01-12T12:59:43Z</time><name>PT460</name></trkpt>
<trkpt lat="52.061387" lon="05.834567"><ele>25.7</ele><time>2021-01-12T12:59:44Z</time><name>PT461</name></trkpt>
<trkpt lat="52.061399" lon="05.834551"><ele>25.9</ele><time>2021-01-12T12:59:45Z</time><name>PT462</name></trkpt>
<trkpt lat="52.061407" lon="05.834535"><ele>25.8</ele><time>2021-01-12T12:59:46Z</time><name>PT463</name></trkpt>
<trkpt lat="52.061421" lon="05.834529"><ele>26</ele><time>2021-01-12T12:59:47Z</time><name>PT464</name></trkpt>
<trkpt lat="52.061434" lon="05.834521"><ele>25.9</ele><time>2021-01-12T12:59:48Z</time><name>PT465</name></trkpt>
<trkpt lat="52.061443" lon="05.834516"><ele>25.8</ele><time>2021-01-12T12:59:49Z</time><name>PT466</name></trkpt>
<trkpt lat="52.061452" lon="05.834494"><ele>25.8</ele><time>2021-01-12T12:59:50Z</time><name>PT467</name></trkpt>
<trkpt lat="52.061458" lon="05.834474"><ele>25.7</ele><time>2021-01-12T12:59:51Z</time><name>PT468</name></trkpt>
<trkpt lat="52.061464" lon="05.834467"><ele>25.7</ele><time>2021-01-12T12:59:52Z</time><name>PT469</name></trkpt>
<trkpt lat="52.061469" lon="05.834453"><ele>25.6</ele><time>2021-01-12T12:59:53Z</time><name>PT470</name></trkpt>
<trkpt lat="52.061476" lon="05.834442"><ele>25.6</ele><time>2021-01-12T12:59:54Z</time><name>PT471</name></trkpt>
<trkpt lat="52.061481" lon="05.834432"><ele>25.6</ele><time>2021-01-12T12:59:55Z</time><name>PT472</name></trkpt>
<trkpt lat="52.061488" lon="05.834425"><ele>25.6</ele><time>2021-01-12T12:59:56Z</time><name>PT473</name></trkpt>
<trkpt lat="52.061492" lon="05.834420"><ele>25.4</ele><time>2021-01-12T12:59:57Z</time><name>PT474</name></trkpt>
<trkpt lat="52.061498" lon="05.834413"><ele>25.5</ele><time>2021-01-12T12:59:58Z</time><name>PT475</name></trkpt>
<trkpt lat="52.061505" lon="05.834404"><ele>25.3</ele><time>2021-01-12T12:59:59Z</time><name>PT476</name></trkpt>
<trkpt lat="52.061517" lon="05.834396"><ele>25.3</ele><time>2021-01-12T13:00:00Z</time><name>PT477</name></trkpt>
<trkpt lat="52.061525" lon="05.834383"><ele>25.3</ele><time>2021-01-12T13:00:01Z</time><name>PT478</name></trkpt>
<trkpt lat="52.061537" lon="05.834373"><ele>25.4</ele><time>2021-01-12T13:00:02Z</time><name>PT479</name></trkpt>
<trkpt lat="52.061548" lon="05.834366"><ele>25.5</ele><time>2021-01-12T13:00:03Z</time><name>PT480</name></trkpt>
<trkpt lat="52.061556" lon="05.834361"><ele>25.5</ele><time>2021-01-12T13:00:04Z</time><name>PT481</name></trkpt>
<trkpt lat="52.061564" lon="05.834350"><ele>25.4</ele><time>2021-01-12T13:00:05Z</time><name>PT482</name></trkpt>
<trkpt lat="52.061583" lon="05.834344"><ele>25.3</ele><time>2021-01-12T13:00:06Z</time><name>PT483</name></trkpt>
<trkpt lat="52.061590" lon="05.834343"><ele>25.2</ele><time>2021-01-12T13:00:07Z</time><name>PT484</name></trkpt>
<trkpt lat="52.061601" lon="05.834340"><ele>25.1</ele><time>2021-01-12T13:00:08Z</time><name>PT485</name></trkpt>
<trkpt lat="52.061608" lon="05.834334"><ele>25.1</ele><time>2021-01-12T13:00:09Z</time><name>PT486</name></trkpt>
<trkpt lat="52.061615" lon="05.834328"><ele>25.2</ele><time>2021-01-12T13:00:10Z</time><name>PT487</name></trkpt>
<trkpt lat="52.061626" lon="05.834327"><ele>25.3</ele><time>2021-01-12T13:00:11Z</time><name>PT488</name></trkpt>
<trkpt lat="52.061636" lon="05.834321"><ele>25.3</ele><time>2021-01-12T13:00:12Z</time><name>PT489</name></trkpt>
<trkpt lat="52.061646" lon="05.834314"><ele>25.6</ele><time>2021-01-12T13:00:13Z</time><name>PT490</name></trkpt>
<trkpt lat="52.061654" lon="05.834304"><ele>25.4</ele><time>2021-01-12T13:00:14Z</time><name>PT491</name></trkpt>
<trkpt lat="52.061657" lon="05.834290"><ele>25.2</ele><time>2021-01-12T13:00:15Z</time><name>PT492</name></trkpt>
<trkpt lat="52.061657" lon="05.834270"><ele>25.1</ele><time>2021-01-12T13:00:16Z</time><name>PT493</name></trkpt>
<trkpt lat="52.061663" lon="05.834259"><ele>25.3</ele><time>2021-01-12T13:00:17Z</time><name>PT494</name></trkpt>
<trkpt lat="52.061672" lon="05.834249"><ele>25.2</ele><time>2021-01-12T13:00:18Z</time><name>PT495</name></trkpt>
<trkpt lat="52.061688" lon="05.834244"><ele>25.2</ele><time>2021-01-12T13:00:19Z</time><name>PT496</name></trkpt>
<trkpt lat="52.061698" lon="05.834228"><ele>25.1</ele><time>2021-01-12T13:00:20Z</time><name>PT497</name></trkpt>
<trkpt lat="52.061708" lon="05.834219"><ele>25.1</ele><time>2021-01-12T13:00:21Z</time><name>PT498</name></trkpt>
<trkpt lat="52.061717" lon="05.834207"><ele>24.9</ele><time>2021-01-12T13:00:22Z</time><name>PT499</name></trkpt>
<trkpt lat="52.061728" lon="05.834197"><ele>24.8</ele><time>2021-01-12T13:00:23Z</time><name>PT500</name></trkpt>
<trkpt lat="52.061735" lon="05.834184"><ele>24.7</ele><time>2021-01-12T13:00:24Z</time><name>PT501</name></trkpt>
<trkpt lat="52.061743" lon="05.834174"><ele>24.7</ele><time>2021-01-12T13:00:25Z</time><name>PT502</name></trkpt>
<trkpt lat="52.061755" lon="05.834160"><ele>24.6</ele><time>2021-01-12T13:00:26Z</time><name>PT503</name></trkpt>
<trkpt lat="52.061766" lon="05.834157"><ele>24.7</ele><time>2021-01-12T13:00:27Z</time><name>PT504</name></trkpt>
<trkpt lat="52.061776" lon="05.834156"><ele>24.7</ele><time>2021-01-12T13:00:28Z</time><name>PT505</name></trkpt>
<trkpt lat="52.061790" lon="05.834152"><ele>25.1</ele><time>2021-01-12T13:00:29Z</time><name>PT506</name></trkpt>
<trkpt lat="52.061801" lon="05.834139"><ele>24.8</ele><time>2021-01-12T13:00:30Z</time><name>PT507</name></trkpt>
<trkpt lat="52.061817" lon="05.834126"><ele>24.8</ele><time>2021-01-12T13:00:31Z</time><name>PT508</name></trkpt>
<trkpt lat="52.061828" lon="05.834108"><ele>24.9</ele><time>2021-01-12T13:00:32Z</time><name>PT509</name></trkpt>
<trkpt lat="52.061839" lon="05.834098"><ele>24.8</ele><time>2021-01-12T13:00:33Z</time><name>PT510</name></trkpt>
<trkpt lat="52.061854" lon="05.834093"><ele>24.7</ele><time>2021-01-12T13:00:34Z</time><name>PT511</name></trkpt>
<trkpt lat="52.061885" lon="05.834090"><ele>24.7</ele><time>2021-01-12T13:00:35Z</time><name>PT512</name></trkpt>
<trkpt lat="52.061912" lon="05.834093"><ele>24.6</ele><time>2021-01-12T13:00:36Z</time><name>PT513</name></trkpt>
<trkpt lat="52.061926" lon="05.834087"><ele>24.6</ele><time>2021-01-12T13:00:37Z</time><name>PT514</name></trkpt>
<trkpt lat="52.061939" lon="05.834080"><ele>24.6</ele><time>2021-01-12T13:00:38Z</time><name>PT515</name></trkpt>
<trkpt lat="52.061955" lon="05.834071"><ele>24.6</ele><time>2021-01-12T13:00:39Z</time><name>PT516</name></trkpt>
<trkpt lat="52.061970" lon="05.834063"><ele>24.6</ele><time>2021-01-12T13:00:40Z</time><name>PT517</name></trkpt>
<trkpt lat="52.061987" lon="05.834052"><ele>24.7</ele><time>2021-01-12T13:00:41Z</time><name>PT518</name></trkpt>
<trkpt lat="52.062001" lon="05.834042"><ele>24.5</ele><time>2021-01-12T13:00:42Z</time><name>PT519</name></trkpt>
<trkpt lat="52.062013" lon="05.834030"><ele>24.6</ele><time>2021-01-12T13:00:43Z</time><name>PT520</name></trkpt>
<trkpt lat="52.062032" lon="05.834021"><ele>24.6</ele><time>2021-01-12T13:00:44Z</time><name>PT521</name></trkpt>
<trkpt lat="52.062043" lon="05.834015"><ele>24.6</ele><time>2021-01-12T13:00:45Z</time><name>PT522</name></trkpt>
<trkpt lat="52.062048" lon="05.834007"><ele>24.6</ele><time>2021-01-12T13:00:46Z</time><name>PT523</name></trkpt>
<trkpt lat="52.062058" lon="05.834002"><ele>24.7</ele><time>2021-01-12T13:00:47Z</time><name>PT524</name></trkpt>
<trkpt lat="52.062069" lon="05.833995"><ele>24.7</ele><time>2021-01-12T13:00:48Z</time><name>PT525</name></trkpt>
<trkpt lat="52.062081" lon="05.833989"><ele>24.8</ele><time>2021-01-12T13:00:49Z</time><name>PT526</name></trkpt>
<trkpt lat="52.062095" lon="05.833980"><ele>24.8</ele><time>2021-01-12T13:00:50Z</time><name>PT527</name></trkpt>
<trkpt lat="52.062111" lon="05.833967"><ele>24.8</ele><time>2021-01-12T13:00:51Z</time><name>PT528</name></trkpt>
<trkpt lat="52.062127" lon="05.833964"><ele>24.7</ele><time>2021-01-12T13:00:52Z</time><name>PT529</name></trkpt>
<trkpt lat="52.062140" lon="05.833959"><ele>24.7</ele><time>2021-01-12T13:00:53Z</time><name>PT530</name></trkpt>
<trkpt lat="52.062158" lon="05.833958"><ele>24.6</ele><time>2021-01-12T13:00:54Z</time><name>PT531</name></trkpt>
<trkpt lat="52.062172" lon="05.833951"><ele>24.5</ele><time>2021-01-12T13:00:55Z</time><name>PT532</name></trkpt>
<trkpt lat="52.062190" lon="05.833944"><ele>24.4</ele><time>2021-01-12T13:00:56Z</time><name>PT533</name></trkpt>
<trkpt lat="52.062205" lon="05.833948"><ele>24.3</ele><time>2021-01-12T13:00:57Z</time><name>PT534</name></trkpt>
<trkpt lat="52.062224" lon="05.833952"><ele>24.2</ele><time>2021-01-12T13:00:58Z</time><name>PT535</name></trkpt>
<trkpt lat="52.062238" lon="05.833956"><ele>24.3</ele><time>2021-01-12T13:00:59Z</time><name>PT536</name></trkpt>
<trkpt lat="52.062244" lon="05.833950"><ele>24.2</ele><time>2021-01-12T13:01:00Z</time><name>PT537</name></trkpt>
<trkpt lat="52.062256" lon="05.833941"><ele>24.2</ele><time>2021-01-12T13:01:01Z</time><name>PT538</name></trkpt>
<trkpt lat="52.062266" lon="05.833929"><ele>24.2</ele><time>2021-01-12T13:01:02Z</time><name>PT539</name></trkpt>
<trkpt lat="52.062281" lon="05.833921"><ele>24.4</ele><time>2021-01-12T13:01:03Z</time><name>PT540</name></trkpt>
<trkpt lat="52.062296" lon="05.833901"><ele>24.6</ele><time>2021-01-12T13:01:04Z</time><name>PT541</name></trkpt>
<trkpt lat="52.062308" lon="05.833882"><ele>24.6</ele><time>2021-01-12T13:01:05Z</time><name>PT542</name></trkpt>
<trkpt lat="52.062321" lon="05.833874"><ele>24.6</ele><time>2021-01-12T13:01:06Z</time><name>PT543</name></trkpt>
<trkpt lat="52.062333" lon="05.833870"><ele>24.6</ele><time>2021-01-12T13:01:07Z</time><name>PT544</name></trkpt>
<trkpt lat="52.062353" lon="05.833872"><ele>24.6</ele><time>2021-01-12T13:01:08Z</time><name>PT545</name></trkpt>
<trkpt lat="52.062362" lon="05.833863"><ele>24.6</ele><time>2021-01-12T13:01:09Z</time><name>PT546</name></trkpt>
<trkpt lat="52.062373" lon="05.833850"><ele>24.7</ele><time>2021-01-12T13:01:10Z</time><name>PT547</name></trkpt>
<trkpt lat="52.062387" lon="05.833840"><ele>24.6</ele><time>2021-01-12T13:01:11Z</time><name>PT548</name></trkpt>
<trkpt lat="52.062396" lon="05.833831"><ele>24.6</ele><time>2021-01-12T13:01:12Z</time><name>PT549</name></trkpt>
<trkpt lat="52.062403" lon="05.833820"><ele>24.6</ele><time>2021-01-12T13:01:13Z</time><name>PT550</name></trkpt>
<trkpt lat="52.062411" lon="05.833810"><ele>24.8</ele><time>2021-01-12T13:01:14Z</time><name>PT551</name></trkpt>
<trkpt lat="52.062423" lon="05.833801"><ele>24.9</ele><time>2021-01-12T13:01:15Z</time><name>PT552</name></trkpt>
<trkpt lat="52.062437" lon="05.833789"><ele>25</ele><time>2021-01-12T13:01:16Z</time><name>PT553</name></trkpt>
<trkpt lat="52.062446" lon="05.833788"><ele>25.1</ele><time>2021-01-12T13:01:17Z</time><name>PT554</name></trkpt>
<trkpt lat="52.062461" lon="05.833786"><ele>24.8</ele><time>2021-01-12T13:01:18Z</time><name>PT555</name></trkpt>
<trkpt lat="52.062471" lon="05.833775"><ele>24.6</ele><time>2021-01-12T13:01:19Z</time><name>PT556</name></trkpt>
<trkpt lat="52.062481" lon="05.833762"><ele>24.5</ele><time>2021-01-12T13:01:20Z</time><name>PT557</name></trkpt>
<trkpt lat="52.062490" lon="05.833757"><ele>24.3</ele><time>2021-01-12T13:01:21Z</time><name>PT558</name></trkpt>
<trkpt lat="52.062502" lon="05.833752"><ele>24.2</ele><time>2021-01-12T13:01:22Z</time><name>PT559</name></trkpt>
<trkpt lat="52.062517" lon="05.833748"><ele>24.1</ele><time>2021-01-12T13:01:23Z</time><name>PT560</name></trkpt>
<trkpt lat="52.062533" lon="05.833747"><ele>24.1</ele><time>2021-01-12T13:01:24Z</time><name>PT561</name></trkpt>
<trkpt lat="52.062546" lon="05.833745"><ele>24.1</ele><time>2021-01-12T13:01:25Z</time><name>PT562</name></trkpt>
<trkpt lat="52.062556" lon="05.833739"><ele>24.2</ele><time>2021-01-12T13:01:26Z</time><name>PT563</name></trkpt>
<trkpt lat="52.062568" lon="05.833728"><ele>24.3</ele><time>2021-01-12T13:01:27Z</time><name>PT564</name></trkpt>
<trkpt lat="52.062585" lon="05.833717"><ele>24.3</ele><time>2021-01-12T13:01:28Z</time><name>PT565</name></trkpt>
<trkpt lat="52.062597" lon="05.833712"><ele>24.2</ele><time>2021-01-12T13:01:29Z</time><name>PT566</name></trkpt>
<trkpt lat="52.062613" lon="05.833706"><ele>24.1</ele><time>2021-01-12T13:01:30Z</time><name>PT567</name></trkpt>
<trkpt lat="52.062626" lon="05.833696"><ele>24.2</ele><time>2021-01-12T13:01:31Z</time><name>PT568</name></trkpt>
<trkpt lat="52.062637" lon="05.833689"><ele>24.3</ele><time>2021-01-12T13:01:32Z</time><name>PT569</name></trkpt>
<trkpt lat="52.062647" lon="05.833689"><ele>24.3</ele><time>2021-01-12T13:01:33Z</time><name>PT570</name></trkpt>
<trkpt lat="52.062661" lon="05.833682"><ele>24.1</ele><time>2021-01-12T13:01:34Z</time><name>PT571</name></trkpt>
<trkpt lat="52.062674" lon="05.833673"><ele>24.3</ele><time>2021-01-12T13:01:35Z</time><name>PT572</name></trkpt>
<trkpt lat="52.062686" lon="05.833662"><ele>24.5</ele><time>2021-01-12T13:01:36Z</time><name>PT573</name></trkpt>
<trkpt lat="52.062696" lon="05.833652"><ele>24.5</ele><time>2021-01-12T13:01:37Z</time><name>PT574</name></trkpt>
<trkpt lat="52.062706" lon="05.833642"><ele>24.6</ele><time>2021-01-12T13:01:38Z</time><name>PT575</name></trkpt>
<trkpt lat="52.062718" lon="05.833636"><ele>24.7</ele><time>2021-01-12T13:01:39Z</time><name>PT576</name></trkpt>
<trkpt lat="52.062732" lon="05.833628"><ele>24.6</ele><time>2021-01-12T13:01:40Z</time><name>PT577</name></trkpt>
<trkpt lat="52.062741" lon="05.833619"><ele>24.6</ele><time>2021-01-12T13:01:41Z</time><name>PT578</name></trkpt>
<trkpt lat="52.062751" lon="05.833610"><ele>24.6</ele><time>2021-01-12T13:01:42Z</time><name>PT579</name></trkpt>
<trkpt lat="52.062761" lon="05.833610"><ele>24.5</ele><time>2021-01-12T13:01:43Z</time><name>PT580</name></trkpt>
<trkpt lat="52.062771" lon="05.833604"><ele>24.7</ele><time>2021-01-12T13:01:44Z</time><name>PT581</name></trkpt>
<trkpt lat="52.062780" lon="05.833592"><ele>25</ele><time>2021-01-12T13:01:45Z</time><name>PT582</name></trkpt>
<trkpt lat="52.062789" lon="05.833579"><ele>25.1</ele><time>2021-01-12T13:01:46Z</time><name>PT583</name></trkpt>
<trkpt lat="52.062800" lon="05.833567"><ele>25.2</ele><time>2021-01-12T13:01:47Z</time><name>PT584</name></trkpt>
<trkpt lat="52.062806" lon="05.833560"><ele>25.1</ele><time>2021-01-12T13:01:48Z</time><name>PT585</name></trkpt>
<trkpt lat="52.062814" lon="05.833550"><ele>25.2</ele><time>2021-01-12T13:01:49Z</time><name>PT586</name></trkpt>
<trkpt lat="52.062826" lon="05.833551"><ele>25.5</ele><time>2021-01-12T13:01:50Z</time><name>PT587</name></trkpt>
<trkpt lat="52.062838" lon="05.833544"><ele>25.5</ele><time>2021-01-12T13:01:51Z</time><name>PT588</name></trkpt>
<trkpt lat="52.062847" lon="05.833538"><ele>25.7</ele><time>2021-01-12T13:01:52Z</time><name>PT589</name></trkpt>
<trkpt lat="52.062858" lon="05.833535"><ele>25.8</ele><time>2021-01-12T13:01:53Z</time><name>PT590</name></trkpt>
<trkpt lat="52.062877" lon="05.833528"><ele>25.4</ele><time>2021-01-12T13:01:54Z</time><name>PT591</name></trkpt>
<trkpt lat="52.062896" lon="05.833524"><ele>25.3</ele><time>2021-01-12T13:01:55Z</time><name>PT592</name></trkpt>
<trkpt lat="52.062907" lon="05.833516"><ele>25.2</ele><time>2021-01-12T13:01:56Z</time><name>PT593</name></trkpt>
<trkpt lat="52.062921" lon="05.833509"><ele>25</ele><time>2021-01-12T13:01:57Z</time><name>PT594</name></trkpt>
<trkpt lat="52.062935" lon="05.833498"><ele>24.9</ele><time>2021-01-12T13:01:58Z</time><name>PT595</name></trkpt>
<trkpt lat="52.062949" lon="05.833490"><ele>25.1</ele><time>2021-01-12T13:01:59Z</time><name>PT596</name></trkpt>
<trkpt lat="52.062959" lon="05.833484"><ele>25.1</ele><time>2021-01-12T13:02:00Z</time><name>PT597</name></trkpt>
<trkpt lat="52.062971" lon="05.833475"><ele>25.1</ele><time>2021-01-12T13:02:01Z</time><name>PT598</name></trkpt>
<trkpt lat="52.062979" lon="05.833464"><ele>25.2</ele><time>2021-01-12T13:02:02Z</time><name>PT599</name></trkpt>
<trkpt lat="52.062989" lon="05.833463"><ele>25.1</ele><time>2021-01-12T13:02:03Z</time><name>PT600</name></trkpt>
<trkpt lat="52.063002" lon="05.833460"><ele>25.3</ele><time>2021-01-12T13:02:04Z</time><name>PT601</name></trkpt>
<trkpt lat="52.063014" lon="05.833459"><ele>25.4</ele><time>2021-01-12T13:02:05Z</time><name>PT602</name></trkpt>
<trkpt lat="52.063027" lon="05.833454"><ele>25.3</ele><time>2021-01-12T13:02:06Z</time><name>PT603</name></trkpt>
<trkpt lat="52.063042" lon="05.833441"><ele>25.4</ele><time>2021-01-12T13:02:07Z</time><name>PT604</name></trkpt>
<trkpt lat="52.063050" lon="05.833438"><ele>25.3</ele><time>2021-01-12T13:02:08Z</time><name>PT605</name></trkpt>
<trkpt lat="52.063060" lon="05.833432"><ele>25.1</ele><time>2021-01-12T13:02:09Z</time><name>PT606</name></trkpt>
<trkpt lat="52.063072" lon="05.833425"><ele>25</ele><time>2021-01-12T13:02:10Z</time><name>PT607</name></trkpt>
<trkpt lat="52.063083" lon="05.833419"><ele>24.8</ele><time>2021-01-12T13:02:11Z</time><name>PT608</name></trkpt>
<trkpt lat="52.063093" lon="05.833407"><ele>24.6</ele><time>2021-01-12T13:02:12Z</time><name>PT609</name></trkpt>
<trkpt lat="52.063107" lon="05.833390"><ele>24.6</ele><time>2021-01-12T13:02:13Z</time><name>PT610</name></trkpt>
<trkpt lat="52.063116" lon="05.833376"><ele>24.3</ele><time>2021-01-12T13:02:14Z</time><name>PT611</name></trkpt>
<trkpt lat="52.063130" lon="05.833345"><ele>24.2</ele><time>2021-01-12T13:02:15Z</time><name>PT612</name></trkpt>
<trkpt lat="52.063144" lon="05.833327"><ele>24.2</ele><time>2021-01-12T13:02:16Z</time><name>PT613</name></trkpt>
<trkpt lat="52.063153" lon="05.833319"><ele>24.4</ele><time>2021-01-12T13:02:17Z</time><name>PT614</name></trkpt>
<trkpt lat="52.063163" lon="05.833318"><ele>24.6</ele><time>2021-01-12T13:02:18Z</time><name>PT615</name></trkpt>
<trkpt lat="52.063170" lon="05.833305"><ele>24.7</ele><time>2021-01-12T13:02:19Z</time><name>PT616</name></trkpt>
<trkpt lat="52.063181" lon="05.833293"><ele>24.7</ele><time>2021-01-12T13:02:20Z</time><name>PT617</name></trkpt>
<trkpt lat="52.063193" lon="05.833281"><ele>24.6</ele><time>2021-01-12T13:02:21Z</time><name>PT618</name></trkpt>
<trkpt lat="52.063202" lon="05.833273"><ele>24.6</ele><time>2021-01-12T13:02:22Z</time><name>PT619</name></trkpt>
<trkpt lat="52.063210" lon="05.833263"><ele>24.3</ele><time>2021-01-12T13:02:23Z</time><name>PT620</name></trkpt>
<trkpt lat="52.063220" lon="05.833259"><ele>24.1</ele><time>2021-01-12T13:02:24Z</time><name>PT621</name></trkpt>
<trkpt lat="52.063229" lon="05.833248"><ele>23.8</ele><time>2021-01-12T13:02:25Z</time><name>PT622</name></trkpt>
<trkpt lat="52.063240" lon="05.833237"><ele>23.7</ele><time>2021-01-12T13:02:26Z</time><name>PT623</name></trkpt>
<trkpt lat="52.063253" lon="05.833221"><ele>23.6</ele><time>2021-01-12T13:02:27Z</time><name>PT624</name></trkpt>
<trkpt lat="52.063264" lon="05.833211"><ele>23.6</ele><time>2021-01-12T13:02:28Z</time><name>PT625</name></trkpt>
<trkpt lat="52.063275" lon="05.833193"><ele>23.7</ele><time>2021-01-12T13:02:29Z</time><name>PT626</name></trkpt>
<trkpt lat="52.063283" lon="05.833182"><ele>23.9</ele><time>2021-01-12T13:02:30Z</time><name>PT627</name></trkpt>
<trkpt lat="52.063294" lon="05.833165"><ele>23.9</ele><time>2021-01-12T13:02:31Z</time><name>PT628</name></trkpt>
<trkpt lat="52.063300" lon="05.833164"><ele>23.9</ele><time>2021-01-12T13:02:32Z</time><name>PT629</name></trkpt>
<trkpt lat="52.063310" lon="05.833149"><ele>23.9</ele><time>2021-01-12T13:02:33Z</time><name>PT630</name></trkpt>
<trkpt lat="52.063318" lon="05.833127"><ele>23.8</ele><time>2021-01-12T13:02:34Z</time><name>PT631</name></trkpt>
<trkpt lat="52.063326" lon="05.833115"><ele>23.8</ele><time>2021-01-12T13:02:35Z</time><name>PT632</name></trkpt>
<trkpt lat="52.063332" lon="05.833103"><ele>23.7</ele><time>2021-01-12T13:02:36Z</time><name>PT633</name></trkpt>
<trkpt lat="52.063341" lon="05.833090"><ele>23.8</ele><time>2021-01-12T13:02:37Z</time><name>PT634</name></trkpt>
<trkpt lat="52.063350" lon="05.833065"><ele>23.6</ele><time>2021-01-12T13:02:38Z</time><name>PT635</name></trkpt>
<trkpt lat="52.063361" lon="05.833050"><ele>23.5</ele><time>2021-01-12T13:02:39Z</time><name>PT636</name></trkpt>
<trkpt lat="52.063361" lon="05.833051"><ele>23.4</ele><time>2021-01-12T13:02:40Z</time><name>PT637</name></trkpt>
<trkpt lat="52.063376" lon="05.833039"><ele>23.2</ele><time>2021-01-12T13:02:41Z</time><name>PT638</name></trkpt>
<trkpt lat="52.063385" lon="05.833025"><ele>23.4</ele><time>2021-01-12T13:02:42Z</time><name>PT639</name></trkpt>
<trkpt lat="52.063395" lon="05.833008"><ele>23.4</ele><time>2021-01-12T13:02:43Z</time><name>PT640</name></trkpt>
<trkpt lat="52.063412" lon="05.833000"><ele>23.2</ele><time>2021-01-12T13:02:44Z</time><name>PT641</name></trkpt>
<trkpt lat="52.063428" lon="05.832985"><ele>23.3</ele><time>2021-01-12T13:02:45Z</time><name>PT642</name></trkpt>
<trkpt lat="52.063444" lon="05.832987"><ele>23.3</ele><time>2021-01-12T13:02:46Z</time><name>PT643</name></trkpt>
<trkpt lat="52.063456" lon="05.832985"><ele>23.1</ele><time>2021-01-12T13:02:47Z</time><name>PT644</name></trkpt>
<trkpt lat="52.063467" lon="05.832974"><ele>23.1</ele><time>2021-01-12T13:02:48Z</time><name>PT645</name></trkpt>
<trkpt lat="52.063481" lon="05.832970"><ele>23.1</ele><time>2021-01-12T13:02:49Z</time><name>PT646</name></trkpt>
<trkpt lat="52.063495" lon="05.832948"><ele>23</ele><time>2021-01-12T13:02:50Z</time><name>PT647</name></trkpt>
<trkpt lat="52.063511" lon="05.832939"><ele>22.9</ele><time>2021-01-12T13:02:51Z</time><name>PT648</name></trkpt>
<trkpt lat="52.063525" lon="05.832925"><ele>22.9</ele><time>2021-01-12T13:02:52Z</time><name>PT649</name></trkpt>
<trkpt lat="52.063535" lon="05.832907"><ele>23</ele><time>2021-01-12T13:02:53Z</time><name>PT650</name></trkpt>
<trkpt lat="52.063541" lon="05.832897"><ele>22.9</ele><time>2021-01-12T13:02:54Z</time><name>PT651</name></trkpt>
<trkpt lat="52.063543" lon="05.832880"><ele>23</ele><time>2021-01-12T13:02:55Z</time><name>PT652</name></trkpt>
<trkpt lat="52.063546" lon="05.832868"><ele>23</ele><time>2021-01-12T13:02:56Z</time><name>PT653</name></trkpt>
<trkpt lat="52.063555" lon="05.832864"><ele>23.1</ele><time>2021-01-12T13:02:57Z</time><name>PT654</name></trkpt>
<trkpt lat="52.063568" lon="05.832862"><ele>22.9</ele><time>2021-01-12T13:02:58Z</time><name>PT655</name></trkpt>
<trkpt lat="52.063579" lon="05.832856"><ele>23.1</ele><time>2021-01-12T13:02:59Z</time><name>PT656</name></trkpt>
<trkpt lat="52.063588" lon="05.832839"><ele>23.1</ele><time>2021-01-12T13:03:00Z</time><name>PT657</name></trkpt>
<trkpt lat="52.063598" lon="05.832823"><ele>23.1</ele><time>2021-01-12T13:03:01Z</time><name>PT658</name></trkpt>
<trkpt lat="52.063611" lon="05.832807"><ele>23.1</ele><time>2021-01-12T13:03:02Z</time><name>PT659</name></trkpt>
<trkpt lat="52.063623" lon="05.832797"><ele>23.1</ele><time>2021-01-12T13:03:03Z</time><name>PT660</name></trkpt>
<trkpt lat="52.063635" lon="05.832787"><ele>23.1</ele><time>2021-01-12T13:03:04Z</time><name>PT661</name></trkpt>
<trkpt lat="52.063645" lon="05.832771"><ele>23.4</ele><time>2021-01-12T13:03:05Z</time><name>PT662</name></trkpt>
<trkpt lat="52.063657" lon="05.832762"><ele>23.6</ele><time>2021-01-12T13:03:06Z</time><name>PT663</name></trkpt>
<trkpt lat="52.063664" lon="05.832758"><ele>23.6</ele><time>2021-01-12T13:03:07Z</time><name>PT664</name></trkpt>
<trkpt lat="52.063673" lon="05.832747"><ele>24</ele><time>2021-01-12T13:03:08Z</time><name>PT665</name></trkpt>
<trkpt lat="52.063684" lon="05.832739"><ele>23.9</ele><time>2021-01-12T13:03:09Z</time><name>PT666</name></trkpt>
<trkpt lat="52.063696" lon="05.832742"><ele>23.9</ele><time>2021-01-12T13:03:10Z</time><name>PT667</name></trkpt>
<trkpt lat="52.063705" lon="05.832732"><ele>23.8</ele><time>2021-01-12T13:03:11Z</time><name>PT668</name></trkpt>
<trkpt lat="52.063715" lon="05.832724"><ele>23.7</ele><time>2021-01-12T13:03:12Z</time><name>PT669</name></trkpt>
<trkpt lat="52.063725" lon="05.832714"><ele>23.6</ele><time>2021-01-12T13:03:13Z</time><name>PT670</name></trkpt>
<trkpt lat="52.063733" lon="05.832706"><ele>23.6</ele><time>2021-01-12T13:03:14Z</time><name>PT671</name></trkpt>
<trkpt lat="52.063743" lon="05.832697"><ele>23.7</ele><time>2021-01-12T13:03:15Z</time><name>PT672</name></trkpt>
<trkpt lat="52.063754" lon="05.832671"><ele>23.8</ele><time>2021-01-12T13:03:16Z</time><name>PT673</name></trkpt>
<trkpt lat="52.063762" lon="05.832665"><ele>23.8</ele><time>2021-01-12T13:03:17Z</time><name>PT674</name></trkpt>
<trkpt lat="52.063771" lon="05.832654"><ele>23.9</ele><time>2021-01-12T13:03:18Z</time><name>PT675</name></trkpt>
<trkpt lat="52.063783" lon="05.832643"><ele>23.8</ele><time>2021-01-12T13:03:19Z</time><name>PT676</name></trkpt>
<trkpt lat="52.063792" lon="05.832627"><ele>24</ele><time>2021-01-12T13:03:20Z</time><name>PT677</name></trkpt>
<trkpt lat="52.063801" lon="05.832613"><ele>23.9</ele><time>2021-01-12T13:03:21Z</time><name>PT678</name></trkpt>
<trkpt lat="52.063812" lon="05.832601"><ele>23.9</ele><time>2021-01-12T13:03:22Z</time><name>PT679</name></trkpt>
<trkpt lat="52.063815" lon="05.832589"><ele>24</ele><time>2021-01-12T13:03:23Z</time><name>PT680</name></trkpt>
<trkpt lat="52.063821" lon="05.832574"><ele>23.9</ele><time>2021-01-12T13:03:24Z</time><name>PT681</name></trkpt>
<trkpt lat="52.063831" lon="05.832564"><ele>23.7</ele><time>2021-01-12T13:03:25Z</time><name>PT682</name></trkpt>
<trkpt lat="52.063841" lon="05.832558"><ele>23.6</ele><time>2021-01-12T13:03:26Z</time><name>PT683</name></trkpt>
<trkpt lat="52.063852" lon="05.832542"><ele>23.3</ele><time>2021-01-12T13:03:27Z</time><name>PT684</name></trkpt>
<trkpt lat="52.063864" lon="05.832528"><ele>23.2</ele><time>2021-01-12T13:03:28Z</time><name>PT685</name></trkpt>
<trkpt lat="52.063878" lon="05.832523"><ele>23.1</ele><time>2021-01-12T13:03:29Z</time><name>PT686</name></trkpt>
<trkpt lat="52.063887" lon="05.832519"><ele>22.7</ele><time>2021-01-12T13:03:30Z</time><name>PT687</name></trkpt>
<trkpt lat="52.063894" lon="05.832506"><ele>22.6</ele><time>2021-01-12T13:03:31Z</time><name>PT688</name></trkpt>
<trkpt lat="52.063902" lon="05.832502"><ele>22.6</ele><time>2021-01-12T13:03:32Z</time><name>PT689</name></trkpt>
<trkpt lat="52.063910" lon="05.832505"><ele>22.4</ele><time>2021-01-12T13:03:33Z</time><name>PT690</name></trkpt>
<trkpt lat="52.063920" lon="05.832501"><ele>22.3</ele><time>2021-01-12T13:03:34Z</time><name>PT691</name></trkpt>
<trkpt lat="52.063936" lon="05.832495"><ele>22.2</ele><time>2021-01-12T13:03:35Z</time><name>PT692</name></trkpt>
<trkpt lat="52.063947" lon="05.832492"><ele>22.1</ele><time>2021-01-12T13:03:36Z</time><name>PT693</name></trkpt>
<trkpt lat="52.063961" lon="05.832493"><ele>22.1</ele><time>2021-01-12T13:03:37Z</time><name>PT694</name></trkpt>
<trkpt lat="52.063976" lon="05.832486"><ele>21.9</ele><time>2021-01-12T13:03:38Z</time><name>PT695</name></trkpt>
<trkpt lat="52.063988" lon="05.832481"><ele>22</ele><time>2021-01-12T13:03:39Z</time><name>PT696</name></trkpt>
<trkpt lat="52.063998" lon="05.832473"><ele>21.8</ele><time>2021-01-12T13:03:40Z</time><name>PT697</name></trkpt>
<trkpt lat="52.064011" lon="05.832468"><ele>21.6</ele><time>2021-01-12T13:03:41Z</time><name>PT698</name></trkpt>
<trkpt lat="52.064019" lon="05.832462"><ele>21.6</ele><time>2021-01-12T13:03:42Z</time><name>PT699</name></trkpt>
<trkpt lat="52.064031" lon="05.832451"><ele>21.5</ele><time>2021-01-12T13:03:43Z</time><name>PT700</name></trkpt>
<trkpt lat="52.064044" lon="05.832434"><ele>21.5</ele><time>2021-01-12T13:03:44Z</time><name>PT701</name></trkpt>
<trkpt lat="52.064055" lon="05.832424"><ele>21.3</ele><time>2021-01-12T13:03:45Z</time><name>PT702</name></trkpt>
<trkpt lat="52.064065" lon="05.832417"><ele>21.2</ele><time>2021-01-12T13:03:46Z</time><name>PT703</name></trkpt>
<trkpt lat="52.064074" lon="05.832407"><ele>21.1</ele><time>2021-01-12T13:03:47Z</time><name>PT704</name></trkpt>
<trkpt lat="52.064080" lon="05.832400"><ele>21</ele><time>2021-01-12T13:03:48Z</time><name>PT705</name></trkpt>
<trkpt lat="52.064089" lon="05.832391"><ele>21</ele><time>2021-01-12T13:03:49Z</time><name>PT706</name></trkpt>
<trkpt lat="52.064096" lon="05.832386"><ele>20.7</ele><time>2021-01-12T13:03:50Z</time><name>PT707</name></trkpt>
<trkpt lat="52.064099" lon="05.832382"><ele>20.6</ele><time>2021-01-12T13:03:51Z</time><name>PT708</name></trkpt>
<trkpt lat="52.064113" lon="05.832374"><ele>20.6</ele><time>2021-01-12T13:03:52Z</time><name>PT709</name></trkpt>
<trkpt lat="52.064129" lon="05.832363"><ele>20.5</ele><time>2021-01-12T13:03:53Z</time><name>PT710</name></trkpt>
<trkpt lat="52.064142" lon="05.832346"><ele>20.5</ele><time>2021-01-12T13:03:54Z</time><name>PT711</name></trkpt>
<trkpt lat="52.064154" lon="05.832335"><ele>20.6</ele><time>2021-01-12T13:03:55Z</time><name>PT712</name></trkpt>
<trkpt lat="52.064167" lon="05.832325"><ele>20.6</ele><time>2021-01-12T13:03:56Z</time><name>PT713</name></trkpt>
<trkpt lat="52.064181" lon="05.832311"><ele>20.5</ele><time>2021-01-12T13:03:57Z</time><name>PT714</name></trkpt>
<trkpt lat="52.064193" lon="05.832301"><ele>20.4</ele><time>2021-01-12T13:03:58Z</time><name>PT715</name></trkpt>
<trkpt lat="52.064214" lon="05.832294"><ele>20.2</ele><time>2021-01-12T13:03:59Z</time><name>PT716</name></trkpt>
<trkpt lat="52.064226" lon="05.832287"><ele>20.1</ele><time>2021-01-12T13:04:00Z</time><name>PT717</name></trkpt>
<trkpt lat="52.064237" lon="05.832278"><ele>20</ele><time>2021-01-12T13:04:01Z</time><name>PT718</name></trkpt>
<trkpt lat="52.064251" lon="05.832268"><ele>19.8</ele><time>2021-01-12T13:04:02Z</time><name>PT719</name></trkpt>
<trkpt lat="52.064261" lon="05.832261"><ele>19.8</ele><time>2021-01-12T13:04:03Z</time><name>PT720</name></trkpt>
<trkpt lat="52.064272" lon="05.832259"><ele>19.8</ele><time>2021-01-12T13:04:04Z</time><name>PT721</name></trkpt>
<trkpt lat="52.064284" lon="05.832251"><ele>19.7</ele><time>2021-01-12T13:04:05Z</time><name>PT722</name></trkpt>
<trkpt lat="52.064297" lon="05.832245"><ele>19.8</ele><time>2021-01-12T13:04:06Z</time><name>PT723</name></trkpt>
<trkpt lat="52.064312" lon="05.832231"><ele>20</ele><time>2021-01-12T13:04:07Z</time><name>PT724</name></trkpt>
<trkpt lat="52.064328" lon="05.832220"><ele>19.9</ele><time>2021-01-12T13:04:08Z</time><name>PT725</name></trkpt>
<trkpt lat="52.064345" lon="05.832210"><ele>19.7</ele><time>2021-01-12T13:04:09Z</time><name>PT726</name></trkpt>
<trkpt lat="52.064358" lon="05.832201"><ele>19.7</ele><time>2021-01-12T13:04:10Z</time><name>PT727</name></trkpt>
<trkpt lat="52.064367" lon="05.832192"><ele>19.5</ele><time>2021-01-12T13:04:11Z</time><name>PT728</name></trkpt>
<trkpt lat="52.064380" lon="05.832181"><ele>19.5</ele><time>2021-01-12T13:04:12Z</time><name>PT729</name></trkpt>
<trkpt lat="52.064392" lon="05.832175"><ele>19.5</ele><time>2021-01-12T13:04:13Z</time><name>PT730</name></trkpt>
<trkpt lat="52.064406" lon="05.832175"><ele>19.5</ele><time>2021-01-12T13:04:14Z</time><name>PT731</name></trkpt>
<trkpt lat="52.064419" lon="05.832167"><ele>19.2</ele><time>2021-01-12T13:04:15Z</time><name>PT732</name></trkpt>
<trkpt lat="52.064432" lon="05.832159"><ele>19.3</ele><time>2021-01-12T13:04:16Z</time><name>PT733</name></trkpt>
<trkpt lat="52.064443" lon="05.832150"><ele>19.2</ele><time>2021-01-12T13:04:17Z</time><name>PT734</name></trkpt>
<trkpt lat="52.064455" lon="05.832140"><ele>19.1</ele><time>2021-01-12T13:04:18Z</time><name>PT735</name></trkpt>
<trkpt lat="52.064469" lon="05.832133"><ele>19</ele><time>2021-01-12T13:04:19Z</time><name>PT736</name></trkpt>
<trkpt lat="52.064480" lon="05.832123"><ele>19</ele><time>2021-01-12T13:04:20Z</time><name>PT737</name></trkpt>
<trkpt lat="52.064492" lon="05.832109"><ele>19</ele><time>2021-01-12T13:04:21Z</time><name>PT738</name></trkpt>
<trkpt lat="52.064504" lon="05.832094"><ele>19</ele><time>2021-01-12T13:04:22Z</time><name>PT739</name></trkpt>
<trkpt lat="52.064513" lon="05.832089"><ele>18.9</ele><time>2021-01-12T13:04:23Z</time><name>PT740</name></trkpt>
<trkpt lat="52.064523" lon="05.832080"><ele>18.8</ele><time>2021-01-12T13:04:24Z</time><name>PT741</name></trkpt>
<trkpt lat="52.064534" lon="05.832069"><ele>18.9</ele><time>2021-01-12T13:04:25Z</time><name>PT742</name></trkpt>
<trkpt lat="52.064546" lon="05.832062"><ele>18.8</ele><time>2021-01-12T13:04:26Z</time><name>PT743</name></trkpt>
<trkpt lat="52.064554" lon="05.832054"><ele>18.9</ele><time>2021-01-12T13:04:27Z</time><name>PT744</name></trkpt>
<trkpt lat="52.064566" lon="05.832045"><ele>18.8</ele><time>2021-01-12T13:04:28Z</time><name>PT745</name></trkpt>
<trkpt lat="52.064580" lon="05.832040"><ele>18.8</ele><time>2021-01-12T13:04:29Z</time><name>PT746</name></trkpt>
<trkpt lat="52.064595" lon="05.832039"><ele>18.7</ele><time>2021-01-12T13:04:30Z</time><name>PT747</name></trkpt>
<trkpt lat="52.064610" lon="05.832033"><ele>18.8</ele><time>2021-01-12T13:04:31Z</time><name>PT748</name></trkpt>
<trkpt lat="52.064625" lon="05.832028"><ele>18.8</ele><time>2021-01-12T13:04:32Z</time><name>PT749</name></trkpt>
<trkpt lat="52.064640" lon="05.832018"><ele>18.9</ele><time>2021-01-12T13:04:33Z</time><name>PT750</name></trkpt>
<trkpt lat="52.064650" lon="05.832014"><ele>19</ele><time>2021-01-12T13:04:34Z</time><name>PT751</name></trkpt>
<trkpt lat="52.064661" lon="05.832012"><ele>19</ele><time>2021-01-12T13:04:35Z</time><name>PT752</name></trkpt>
<trkpt lat="52.064674" lon="05.832011"><ele>18.9</ele><time>2021-01-12T13:04:36Z</time><name>PT753</name></trkpt>
<trkpt lat="52.064689" lon="05.832003"><ele>18.8</ele><time>2021-01-12T13:04:37Z</time><name>PT754</name></trkpt>
<trkpt lat="52.064699" lon="05.831998"><ele>18.7</ele><time>2021-01-12T13:04:38Z</time><name>PT755</name></trkpt>
<trkpt lat="52.064712" lon="05.831993"><ele>18.9</ele><time>2021-01-12T13:04:39Z</time><name>PT756</name></trkpt>
<trkpt lat="52.064726" lon="05.831991"><ele>18.9</ele><time>2021-01-12T13:04:40Z</time><name>PT757</name></trkpt>
<trkpt lat="52.064740" lon="05.831994"><ele>18.9</ele><time>2021-01-12T13:04:41Z</time><name>PT758</name></trkpt>
<trkpt lat="52.064757" lon="05.831985"><ele>18.8</ele><time>2021-01-12T13:04:42Z</time><name>PT759</name></trkpt>
<trkpt lat="52.064771" lon="05.831979"><ele>18.7</ele><time>2021-01-12T13:04:43Z</time><name>PT760</name></trkpt>
<trkpt lat="52.064784" lon="05.831970"><ele>18.6</ele><time>2021-01-12T13:04:44Z</time><name>PT761</name></trkpt>
<trkpt lat="52.064798" lon="05.831960"><ele>18.6</ele><time>2021-01-12T13:04:45Z</time><name>PT762</name></trkpt>
<trkpt lat="52.064811" lon="05.831957"><ele>18.8</ele><time>2021-01-12T13:04:46Z</time><name>PT763</name></trkpt>
<trkpt lat="52.064821" lon="05.831948"><ele>18.8</ele><time>2021-01-12T13:04:47Z</time><name>PT764</name></trkpt>
<trkpt lat="52.064832" lon="05.831937"><ele>18.8</ele><time>2021-01-12T13:04:48Z</time><name>PT765</name></trkpt>
<trkpt lat="52.064843" lon="05.831924"><ele>18.7</ele><time>2021-01-12T13:04:49Z</time><name>PT766</name></trkpt>
<trkpt lat="52.064855" lon="05.831914"><ele>18.6</ele><time>2021-01-12T13:04:50Z</time><name>PT767</name></trkpt>
<trkpt lat="52.064865" lon="05.831905"><ele>18.5</ele><time>2021-01-12T13:04:51Z</time><name>PT768</name></trkpt>
<trkpt lat="52.064877" lon="05.831894"><ele>18.5</ele><time>2021-01-12T13:04:52Z</time><name>PT769</name></trkpt>
<trkpt lat="52.064888" lon="05.831890"><ele>18.4</ele><time>2021-01-12T13:04:53Z</time><name>PT770</name></trkpt>
<trkpt lat="52.064900" lon="05.831879"><ele>18.1</ele><time>2021-01-12T13:04:54Z</time><name>PT771</name></trkpt>
<trkpt lat="52.064911" lon="05.831876"><ele>18</ele><time>2021-01-12T13:04:55Z</time><name>PT772</name></trkpt>
<trkpt lat="52.064920" lon="05.831870"><ele>17.8</ele><time>2021-01-12T13:04:56Z</time><name>PT773</name></trkpt>
<trkpt lat="52.064930" lon="05.831863"><ele>17.6</ele><time>2021-01-12T13:04:57Z</time><name>PT774</name></trkpt>
<trkpt lat="52.064942" lon="05.831855"><ele>17.6</ele><time>2021-01-12T13:04:58Z</time><name>PT775</name></trkpt>
<trkpt lat="52.064953" lon="05.831839"><ele>17.5</ele><time>2021-01-12T13:04:59Z</time><name>PT776</name></trkpt>
<trkpt lat="52.064962" lon="05.831831"><ele>17.8</ele><time>2021-01-12T13:05:00Z</time><name>PT777</name></trkpt>
<trkpt lat="52.064973" lon="05.831823"><ele>17.7</ele><time>2021-01-12T13:05:01Z</time><name>PT778</name></trkpt>
<trkpt lat="52.064984" lon="05.831814"><ele>17.8</ele><time>2021-01-12T13:05:02Z</time><name>PT779</name></trkpt>
<trkpt lat="52.064995" lon="05.831805"><ele>17.9</ele><time>2021-01-12T13:05:03Z</time><name>PT780</name></trkpt>
<trkpt lat="52.065008" lon="05.831792"><ele>17.7</ele><time>2021-01-12T13:05:04Z</time><name>PT781</name></trkpt>
<trkpt lat="52.065019" lon="05.831786"><ele>17.5</ele><time>2021-01-12T13:05:05Z</time><name>PT782</name></trkpt>
<trkpt lat="52.065028" lon="05.831782"><ele>17.5</ele><time>2021-01-12T13:05:06Z</time><name>PT783</name></trkpt>
<trkpt lat="52.065045" lon="05.831774"><ele>17.3</ele><time>2021-01-12T13:05:07Z</time><name>PT784</name></trkpt>
<trkpt lat="52.065061" lon="05.831766"><ele>17.1</ele><time>2021-01-12T13:05:08Z</time><name>PT785</name></trkpt>
<trkpt lat="52.065071" lon="05.831761"><ele>17.5</ele><time>2021-01-12T13:05:09Z</time><name>PT786</name></trkpt>
<trkpt lat="52.065082" lon="05.831757"><ele>17.2</ele><time>2021-01-12T13:05:10Z</time><name>PT787</name></trkpt>
<trkpt lat="52.065096" lon="05.831751"><ele>17.2</ele><time>2021-01-12T13:05:11Z</time><name>PT788</name></trkpt>
<trkpt lat="52.065107" lon="05.831745"><ele>17.2</ele><time>2021-01-12T13:05:12Z</time><name>PT789</name></trkpt>
<trkpt lat="52.065121" lon="05.831735"><ele>17.2</ele><time>2021-01-12T13:05:13Z</time><name>PT790</name></trkpt>
<trkpt lat="52.065133" lon="05.831730"><ele>17.1</ele><time>2021-01-12T13:05:14Z</time><name>PT791</name></trkpt>
<trkpt lat="52.065144" lon="05.831722"><ele>17.2</ele><time>2021-01-12T13:05:15Z</time><name>PT792</name></trkpt>
<trkpt lat="52.065162" lon="05.831706"><ele>17.1</ele><time>2021-01-12T13:05:16Z</time><name>PT793</name></trkpt>
<trkpt lat="52.065175" lon="05.831694"><ele>17</ele><time>2021-01-12T13:05:17Z</time><name>PT794</name></trkpt>
<trkpt lat="52.065191" lon="05.831681"><ele>17</ele><time>2021-01-12T13:05:18Z</time><name>PT795</name></trkpt>
<trkpt lat="52.065201" lon="05.831671"><ele>17</ele><time>2021-01-12T13:05:19Z</time><name>PT796</name></trkpt>
<trkpt lat="52.065212" lon="05.831666"><ele>17.2</ele><time>2021-01-12T13:05:20Z</time><name>PT797</name></trkpt>
<trkpt lat="52.065224" lon="05.831661"><ele>17.3</ele><time>2021-01-12T13:05:21Z</time><name>PT798</name></trkpt>
<trkpt lat="52.065234" lon="05.831654"><ele>17.2</ele><time>2021-01-12T13:05:22Z</time><name>PT799</name></trkpt>
<trkpt lat="52.065246" lon="05.831648"><ele>17.1</ele><time>2021-01-12T13:05:23Z</time><name>PT800</name></trkpt>
<trkpt lat="52.065264" lon="05.831642"><ele>17</ele><time>2021-01-12T13:05:24Z</time><name>PT801</name></trkpt>
<trkpt lat="52.065279" lon="05.831639"><ele>17</ele><time>2021-01-12T13:05:25Z</time><name>PT802</name></trkpt>
<trkpt lat="52.065294" lon="05.831634"><ele>17</ele><time>2021-01-12T13:05:26Z</time><name>PT803</name></trkpt>
<trkpt lat="52.065307" lon="05.831623"><ele>16.7</ele><time>2021-01-12T13:05:27Z</time><name>PT804</name></trkpt>
<trkpt lat="52.065322" lon="05.831611"><ele>16.6</ele><time>2021-01-12T13:05:28Z</time><name>PT805</name></trkpt>
<trkpt lat="52.065334" lon="05.831601"><ele>16.5</ele><time>2021-01-12T13:05:29Z</time><name>PT806</name></trkpt>
<trkpt lat="52.065346" lon="05.831590"><ele>16.5</ele><time>2021-01-12T13:05:30Z</time><name>PT807</name></trkpt>
<trkpt lat="52.065359" lon="05.831581"><ele>16.5</ele><time>2021-01-12T13:05:31Z</time><name>PT808</name></trkpt>
<trkpt lat="52.065371" lon="05.831572"><ele>16.7</ele><time>2021-01-12T13:05:32Z</time><name>PT809</name></trkpt>
<trkpt lat="52.065383" lon="05.831563"><ele>16.6</ele><time>2021-01-12T13:05:33Z</time><name>PT810</name></trkpt>
<trkpt lat="52.065397" lon="05.831556"><ele>16.5</ele><time>2021-01-12T13:05:34Z</time><name>PT811</name></trkpt>
<trkpt lat="52.065412" lon="05.831547"><ele>16.5</ele><time>2021-01-12T13:05:35Z</time><name>PT812</name></trkpt>
<trkpt lat="52.065426" lon="05.831536"><ele>16.7</ele><time>2021-01-12T13:05:36Z</time><name>PT813</name></trkpt>
<trkpt lat="52.065442" lon="05.831529"><ele>16.6</ele><time>2021-01-12T13:05:37Z</time><name>PT814</name></trkpt>
<trkpt lat="52.065455" lon="05.831524"><ele>16.5</ele><time>2021-01-12T13:05:38Z</time><name>PT815</name></trkpt>
<trkpt lat="52.065467" lon="05.831518"><ele>16.5</ele><time>2021-01-12T13:05:39Z</time><name>PT816</name></trkpt>
<trkpt lat="52.065476" lon="05.831510"><ele>16.3</ele><time>2021-01-12T13:05:40Z</time><name>PT817</name></trkpt>
<trkpt lat="52.065488" lon="05.831504"><ele>16.4</ele><time>2021-01-12T13:05:41Z</time><name>PT818</name></trkpt>
<trkpt lat="52.065500" lon="05.831498"><ele>16.2</ele><time>2021-01-12T13:05:42Z</time><name>PT819</name></trkpt>
<trkpt lat="52.065510" lon="05.831496"><ele>16.1</ele><time>2021-01-12T13:05:43Z</time><name>PT820</name></trkpt>
<trkpt lat="52.065519" lon="05.831493"><ele>16.1</ele><time>2021-01-12T13:05:44Z</time><name>PT821</name></trkpt>
<trkpt lat="52.065528" lon="05.831486"><ele>15.9</ele><time>2021-01-12T13:05:45Z</time><name>PT822</name></trkpt>
<trkpt lat="52.065539" lon="05.831477"><ele>16</ele><time>2021-01-12T13:05:46Z</time><name>PT823</name></trkpt>
<trkpt lat="52.065552" lon="05.831473"><ele>15.9</ele><time>2021-01-12T13:05:47Z</time><name>PT824</name></trkpt>
<trkpt lat="52.065563" lon="05.831465"><ele>15.6</ele><time>2021-01-12T13:05:48Z</time><name>PT825</name></trkpt>
<trkpt lat="52.065574" lon="05.831459"><ele>15.6</ele><time>2021-01-12T13:05:49Z</time><name>PT826</name></trkpt>
<trkpt lat="52.065584" lon="05.831455"><ele>15.4</ele><time>2021-01-12T13:05:50Z</time><name>PT827</name></trkpt>
<trkpt lat="52.065596" lon="05.831443"><ele>15.2</ele><time>2021-01-12T13:05:51Z</time><name>PT828</name></trkpt>
<trkpt lat="52.065603" lon="05.831438"><ele>15.1</ele><time>2021-01-12T13:05:52Z</time><name>PT829</name></trkpt>
<trkpt lat="52.065605" lon="05.831436"><ele>15.1</ele><time>2021-01-12T13:05:53Z</time><name>PT830</name></trkpt>
<trkpt lat="52.065607" lon="05.831428"><ele>15.2</ele><time>2021-01-12T13:05:54Z</time><name>PT831</name></trkpt>
<trkpt lat="52.065612" lon="05.831423"><ele>15.3</ele><time>2021-01-12T13:05:55Z</time><name>PT832</name></trkpt>
<trkpt lat="52.065615" lon="05.831417"><ele>15.4</ele><time>2021-01-12T13:05:56Z</time><name>PT833</name></trkpt>
<trkpt lat="52.065614" lon="05.831416"><ele>15.4</ele><time>2021-01-12T13:05:57Z</time><name>PT834</name></trkpt>
<trkpt lat="52.065615" lon="05.831417"><ele>15.4</ele><time>2021-01-12T13:05:58Z</time><name>PT835</name></trkpt>
<trkpt lat="52.065617" lon="05.831420"><ele>15.4</ele><time>2021-01-12T13:06:01Z</time><name>PT836</name></trkpt>
<trkpt lat="52.065617" lon="05.831428"><ele>15.2</ele><time>2021-01-12T13:06:02Z</time><name>PT837</name></trkpt>
<trkpt lat="52.065620" lon="05.831431"><ele>15.3</ele><time>2021-01-12T13:06:03Z</time><name>PT838</name></trkpt>
<trkpt lat="52.065627" lon="05.831424"><ele>15.3</ele><time>2021-01-12T13:06:04Z</time><name>PT839</name></trkpt>
<trkpt lat="52.065639" lon="05.831413"><ele>15.4</ele><time>2021-01-12T13:06:05Z</time><name>PT840</name></trkpt>
<trkpt lat="52.065652" lon="05.831401"><ele>15.3</ele><time>2021-01-12T13:06:06Z</time><name>PT841</name></trkpt>
<trkpt lat="52.065666" lon="05.831393"><ele>15.1</ele><time>2021-01-12T13:06:07Z</time><name>PT842</name></trkpt>
<trkpt lat="52.065683" lon="05.831385"><ele>15</ele><time>2021-01-12T13:06:08Z</time><name>PT843</name></trkpt>
<trkpt lat="52.065695" lon="05.831380"><ele>14.9</ele><time>2021-01-12T13:06:09Z</time><name>PT844</name></trkpt>
<trkpt lat="52.065707" lon="05.831375"><ele>15</ele><time>2021-01-12T13:06:10Z</time><name>PT845</name></trkpt>
<trkpt lat="52.065716" lon="05.831368"><ele>15</ele><time>2021-01-12T13:06:11Z</time><name>PT846</name></trkpt>
<trkpt lat="52.065727" lon="05.831360"><ele>15.1</ele><time>2021-01-12T13:06:12Z</time><name>PT847</name></trkpt>
<trkpt lat="52.065740" lon="05.831347"><ele>15.1</ele><time>2021-01-12T13:06:13Z</time><name>PT848</name></trkpt>
<trkpt lat="52.065752" lon="05.831333"><ele>14.9</ele><time>2021-01-12T13:06:14Z</time><name>PT849</name></trkpt>
<trkpt lat="52.065767" lon="05.831323"><ele>14.8</ele><time>2021-01-12T13:06:15Z</time><name>PT850</name></trkpt>
<trkpt lat="52.065776" lon="05.831316"><ele>14.7</ele><time>2021-01-12T13:06:16Z</time><name>PT851</name></trkpt>
<trkpt lat="52.065787" lon="05.831309"><ele>14.5</ele><time>2021-01-12T13:06:17Z</time><name>PT852</name></trkpt>
<trkpt lat="52.065797" lon="05.831305"><ele>14.5</ele><time>2021-01-12T13:06:18Z</time><name>PT853</name></trkpt>
<trkpt lat="52.065803" lon="05.831304"><ele>14.3</ele><time>2021-01-12T13:06:19Z</time><name>PT854</name></trkpt>
<trkpt lat="52.065812" lon="05.831301"><ele>14.1</ele><time>2021-01-12T13:06:20Z</time><name>PT855</name></trkpt>
<trkpt lat="52.065823" lon="05.831294"><ele>14</ele><time>2021-01-12T13:06:21Z</time><name>PT856</name></trkpt>
<trkpt lat="52.065832" lon="05.831286"><ele>13.9</ele><time>2021-01-12T13:06:22Z</time><name>PT857</name></trkpt>
<trkpt lat="52.065843" lon="05.831277"><ele>13.7</ele><time>2021-01-12T13:06:23Z</time><name>PT858</name></trkpt>
<trkpt lat="52.065855" lon="05.831269"><ele>13.6</ele><time>2021-01-12T13:06:24Z</time><name>PT859</name></trkpt>
<trkpt lat="52.065866" lon="05.831262"><ele>13.5</ele><time>2021-01-12T13:06:25Z</time><name>PT860</name></trkpt>
<trkpt lat="52.065878" lon="05.831255"><ele>13.4</ele><time>2021-01-12T13:06:26Z</time><name>PT861</name></trkpt>
<trkpt lat="52.065890" lon="05.831247"><ele>13.4</ele><time>2021-01-12T13:06:27Z</time><name>PT862</name></trkpt>
<trkpt lat="52.065903" lon="05.831236"><ele>13.3</ele><time>2021-01-12T13:06:28Z</time><name>PT863</name></trkpt>
<trkpt lat="52.065913" lon="05.831228"><ele>13.3</ele><time>2021-01-12T13:06:29Z</time><name>PT864</name></trkpt>
<trkpt lat="52.065922" lon="05.831223"><ele>13.1</ele><time>2021-01-12T13:06:30Z</time><name>PT865</name></trkpt>
<trkpt lat="52.065930" lon="05.831220"><ele>13.2</ele><time>2021-01-12T13:06:31Z</time><name>PT866</name></trkpt>
<trkpt lat="52.065945" lon="05.831212"><ele>13.3</ele><time>2021-01-12T13:06:32Z</time><name>PT867</name></trkpt>
<trkpt lat="52.065958" lon="05.831204"><ele>13.2</ele><time>2021-01-12T13:06:33Z</time><name>PT868</name></trkpt>
<trkpt lat="52.065976" lon="05.831196"><ele>13.2</ele><time>2021-01-12T13:06:34Z</time><name>PT869</name></trkpt>
<trkpt lat="52.065987" lon="05.831188"><ele>13.2</ele><time>2021-01-12T13:06:35Z</time><name>PT870</name></trkpt>
<trkpt lat="52.065998" lon="05.831180"><ele>13.2</ele><time>2021-01-12T13:06:36Z</time><name>PT871</name></trkpt>
<trkpt lat="52.066010" lon="05.831179"><ele>13.4</ele><time>2021-01-12T13:06:37Z</time><name>PT872</name></trkpt>
<trkpt lat="52.066022" lon="05.831175"><ele>13.4</ele><time>2021-01-12T13:06:38Z</time><name>PT873</name></trkpt>
<trkpt lat="52.066038" lon="05.831172"><ele>13.5</ele><time>2021-01-12T13:06:39Z</time><name>PT874</name></trkpt>
<trkpt lat="52.066045" lon="05.831167"><ele>13.3</ele><time>2021-01-12T13:06:40Z</time><name>PT875</name></trkpt>
<trkpt lat="52.066054" lon="05.831160"><ele>13</ele><time>2021-01-12T13:06:41Z</time><name>PT876</name></trkpt>
<trkpt lat="52.066065" lon="05.831154"><ele>12.9</ele><time>2021-01-12T13:06:42Z</time><name>PT877</name></trkpt>
<trkpt lat="52.066082" lon="05.831150"><ele>13</ele><time>2021-01-12T13:06:43Z</time><name>PT878</name></trkpt>
<trkpt lat="52.066095" lon="05.831148"><ele>13</ele><time>2021-01-12T13:06:44Z</time><name>PT879</name></trkpt>
<trkpt lat="52.066107" lon="05.831143"><ele>13.1</ele><time>2021-01-12T13:06:45Z</time><name>PT880</name></trkpt>
<trkpt lat="52.066121" lon="05.831139"><ele>13.2</ele><time>2021-01-12T13:06:46Z</time><name>PT881</name></trkpt>
<trkpt lat="52.066133" lon="05.831132"><ele>12.9</ele><time>2021-01-12T13:06:47Z</time><name>PT882</name></trkpt>
<trkpt lat="52.066145" lon="05.831127"><ele>12.8</ele><time>2021-01-12T13:06:48Z</time><name>PT883</name></trkpt>
<trkpt lat="52.066157" lon="05.831125"><ele>12.5</ele><time>2021-01-12T13:06:49Z</time><name>PT884</name></trkpt>
<trkpt lat="52.066166" lon="05.831120"><ele>12.4</ele><time>2021-01-12T13:06:50Z</time><name>PT885</name></trkpt>
<trkpt lat="52.066177" lon="05.831116"><ele>12.4</ele><time>2021-01-12T13:06:51Z</time><name>PT886</name></trkpt>
<trkpt lat="52.066188" lon="05.831115"><ele>12.5</ele><time>2021-01-12T13:06:52Z</time><name>PT887</name></trkpt>
<trkpt lat="52.066198" lon="05.831110"><ele>12.5</ele><time>2021-01-12T13:06:53Z</time><name>PT888</name></trkpt>
<trkpt lat="52.066212" lon="05.831099"><ele>12.6</ele><time>2021-01-12T13:06:54Z</time><name>PT889</name></trkpt>
<trkpt lat="52.066226" lon="05.831093"><ele>12.7</ele><time>2021-01-12T13:06:55Z</time><name>PT890</name></trkpt>
<trkpt lat="52.066238" lon="05.831090"><ele>12.6</ele><time>2021-01-12T13:06:56Z</time><name>PT891</name></trkpt>
<trkpt lat="52.066255" lon="05.831087"><ele>12.6</ele><time>2021-01-12T13:06:57Z</time><name>PT892</name></trkpt>
<trkpt lat="52.066265" lon="05.831078"><ele>12.6</ele><time>2021-01-12T13:06:58Z</time><name>PT893</name></trkpt>
<trkpt lat="52.066276" lon="05.831067"><ele>12.4</ele><time>2021-01-12T13:06:59Z</time><name>PT894</name></trkpt>
<trkpt lat="52.066287" lon="05.831061"><ele>12.3</ele><time>2021-01-12T13:07:00Z</time><name>PT895</name></trkpt>
<trkpt lat="52.066297" lon="05.831052"><ele>12.3</ele><time>2021-01-12T13:07:01Z</time><name>PT896</name></trkpt>
<trkpt lat="52.066306" lon="05.831040"><ele>12.3</ele><time>2021-01-12T13:07:02Z</time><name>PT897</name></trkpt>
<trkpt lat="52.066318" lon="05.831029"><ele>12.4</ele><time>2021-01-12T13:07:03Z</time><name>PT898</name></trkpt>
<trkpt lat="52.066330" lon="05.831020"><ele>12.5</ele><time>2021-01-12T13:07:04Z</time><name>PT899</name></trkpt>
<trkpt lat="52.066341" lon="05.831012"><ele>12.5</ele><time>2021-01-12T13:07:05Z</time><name>PT900</name></trkpt>
<trkpt lat="52.066346" lon="05.831008"><ele>12.5</ele><time>2021-01-12T13:07:06Z</time><name>PT901</name></trkpt>
<trkpt lat="52.066356" lon="05.831005"><ele>12.5</ele><time>2021-01-12T13:07:07Z</time><name>PT902</name></trkpt>
<trkpt lat="52.066363" lon="05.831000"><ele>12.6</ele><time>2021-01-12T13:07:08Z</time><name>PT903</name></trkpt>
<trkpt lat="52.066371" lon="05.830990"><ele>12.7</ele><time>2021-01-12T13:07:09Z</time><name>PT904</name></trkpt>
<trkpt lat="52.066383" lon="05.830981"><ele>12.8</ele><time>2021-01-12T13:07:10Z</time><name>PT905</name></trkpt>
<trkpt lat="52.066390" lon="05.830976"><ele>12.9</ele><time>2021-01-12T13:07:11Z</time><name>PT906</name></trkpt>
<trkpt lat="52.066399" lon="05.830971"><ele>12.8</ele><time>2021-01-12T13:07:12Z</time><name>PT907</name></trkpt>
<trkpt lat="52.066416" lon="05.830959"><ele>12.9</ele><time>2021-01-12T13:07:13Z</time><name>PT908</name></trkpt>
<trkpt lat="52.066428" lon="05.830946"><ele>12.6</ele><time>2021-01-12T13:07:14Z</time><name>PT909</name></trkpt>
<trkpt lat="52.066441" lon="05.830936"><ele>12.5</ele><time>2021-01-12T13:07:15Z</time><name>PT910</name></trkpt>
<trkpt lat="52.066455" lon="05.830928"><ele>12.4</ele><time>2021-01-12T13:07:16Z</time><name>PT911</name></trkpt>
<trkpt lat="52.066471" lon="05.830918"><ele>12.4</ele><time>2021-01-12T13:07:17Z</time><name>PT912</name></trkpt>
<trkpt lat="52.066483" lon="05.830912"><ele>12.4</ele><time>2021-01-12T13:07:18Z</time><name>PT913</name></trkpt>
<trkpt lat="52.066494" lon="05.830907"><ele>12.5</ele><time>2021-01-12T13:07:19Z</time><name>PT914</name></trkpt>
<trkpt lat="52.066502" lon="05.830902"><ele>12.5</ele><time>2021-01-12T13:07:20Z</time><name>PT915</name></trkpt>
<trkpt lat="52.066513" lon="05.830896"><ele>12.7</ele><time>2021-01-12T13:07:21Z</time><name>PT916</name></trkpt>
<trkpt lat="52.066524" lon="05.830885"><ele>12.7</ele><time>2021-01-12T13:07:22Z</time><name>PT917</name></trkpt>
<trkpt lat="52.066536" lon="05.830877"><ele>12.7</ele><time>2021-01-12T13:07:23Z</time><name>PT918</name></trkpt>
<trkpt lat="52.066548" lon="05.830868"><ele>12.6</ele><time>2021-01-12T13:07:24Z</time><name>PT919</name></trkpt>
<trkpt lat="52.066563" lon="05.830858"><ele>12.6</ele><time>2021-01-12T13:07:25Z</time><name>PT920</name></trkpt>
<trkpt lat="52.066573" lon="05.830854"><ele>12.4</ele><time>2021-01-12T13:07:26Z</time><name>PT921</name></trkpt>
<trkpt lat="52.066587" lon="05.830847"><ele>12.2</ele><time>2021-01-12T13:07:27Z</time><name>PT922</name></trkpt>
<trkpt lat="52.066599" lon="05.830841"><ele>12.2</ele><time>2021-01-12T13:07:28Z</time><name>PT923</name></trkpt>
<trkpt lat="52.066609" lon="05.830831"><ele>12.3</ele><time>2021-01-12T13:07:29Z</time><name>PT924</name></trkpt>
<trkpt lat="52.066623" lon="05.830821"><ele>12.4</ele><time>2021-01-12T13:07:30Z</time><name>PT925</name></trkpt>
<trkpt lat="52.066637" lon="05.830813"><ele>12.4</ele><time>2021-01-12T13:07:31Z</time><name>PT926</name></trkpt>
<trkpt lat="52.066646" lon="05.830807"><ele>12.4</ele><time>2021-01-12T13:07:32Z</time><name>PT927</name></trkpt>
<trkpt lat="52.066660" lon="05.830799"><ele>12.4</ele><time>2021-01-12T13:07:33Z</time><name>PT928</name></trkpt>
<trkpt lat="52.066676" lon="05.830791"><ele>12.3</ele><time>2021-01-12T13:07:34Z</time><name>PT929</name></trkpt>
<trkpt lat="52.066688" lon="05.830781"><ele>12.3</ele><time>2021-01-12T13:07:35Z</time><name>PT930</name></trkpt>
<trkpt lat="52.066703" lon="05.830767"><ele>12</ele><time>2021-01-12T13:07:36Z</time><name>PT931</name></trkpt>
<trkpt lat="52.066715" lon="05.830754"><ele>11.9</ele><time>2021-01-12T13:07:37Z</time><name>PT932</name></trkpt>
<trkpt lat="52.066728" lon="05.830748"><ele>11.8</ele><time>2021-01-12T13:07:38Z</time><name>PT933</name></trkpt>
<trkpt lat="52.066739" lon="05.830738"><ele>11.9</ele><time>2021-01-12T13:07:39Z</time><name>PT934</name></trkpt>
<trkpt lat="52.066748" lon="05.830731"><ele>11.8</ele><time>2021-01-12T13:07:40Z</time><name>PT935</name></trkpt>
<trkpt lat="52.066759" lon="05.830725"><ele>11.6</ele><time>2021-01-12T13:07:41Z</time><name>PT936</name></trkpt>
<trkpt lat="52.066771" lon="05.830720"><ele>11.5</ele><time>2021-01-12T13:07:42Z</time><name>PT937</name></trkpt>
<trkpt lat="52.066784" lon="05.830714"><ele>11.4</ele><time>2021-01-12T13:07:43Z</time><name>PT938</name></trkpt>
<trkpt lat="52.066797" lon="05.830709"><ele>11.4</ele><time>2021-01-12T13:07:44Z</time><name>PT939</name></trkpt>
<trkpt lat="52.066809" lon="05.830703"><ele>11.4</ele><time>2021-01-12T13:07:45Z</time><name>PT940</name></trkpt>
<trkpt lat="52.066824" lon="05.830696"><ele>11.4</ele><time>2021-01-12T13:07:46Z</time><name>PT941</name></trkpt>
<trkpt lat="52.066836" lon="05.830695"><ele>11.6</ele><time>2021-01-12T13:07:47Z</time><name>PT942</name></trkpt>
<trkpt lat="52.066853" lon="05.830689"><ele>11.6</ele><time>2021-01-12T13:07:48Z</time><name>PT943</name></trkpt>
<trkpt lat="52.066871" lon="05.830682"><ele>11.4</ele><time>2021-01-12T13:07:49Z</time><name>PT944</name></trkpt>
<trkpt lat="52.066881" lon="05.830673"><ele>11.4</ele><time>2021-01-12T13:07:50Z</time><name>PT945</name></trkpt>
<trkpt lat="52.066893" lon="05.830665"><ele>11.1</ele><time>2021-01-12T13:07:51Z</time><name>PT946</name></trkpt>
<trkpt lat="52.066906" lon="05.830664"><ele>11</ele><time>2021-01-12T13:07:52Z</time><name>PT947</name></trkpt>
<trkpt lat="52.066920" lon="05.830658"><ele>11</ele><time>2021-01-12T13:07:53Z</time><name>PT948</name></trkpt>
<trkpt lat="52.066931" lon="05.830656"><ele>11</ele><time>2021-01-12T13:07:54Z</time><name>PT949</name></trkpt>
<trkpt lat="52.066938" lon="05.830652"><ele>11</ele><time>2021-01-12T13:07:55Z</time><name>PT950</name></trkpt>
<trkpt lat="52.066947" lon="05.830645"><ele>11.2</ele><time>2021-01-12T13:07:56Z</time><name>PT951</name></trkpt>
<trkpt lat="52.066957" lon="05.830638"><ele>11.3</ele><time>2021-01-12T13:07:57Z</time><name>PT952</name></trkpt>
<trkpt lat="52.066969" lon="05.830630"><ele>11.3</ele><time>2021-01-12T13:07:58Z</time><name>PT953</name></trkpt>
<trkpt lat="52.066983" lon="05.830626"><ele>11.3</ele><time>2021-01-12T13:07:59Z</time><name>PT954</name></trkpt>
<trkpt lat="52.066996" lon="05.830620"><ele>11.2</ele><time>2021-01-12T13:08:00Z</time><name>PT955</name></trkpt>
<trkpt lat="52.067010" lon="05.830614"><ele>11.4</ele><time>2021-01-12T13:08:01Z</time><name>PT956</name></trkpt>
<trkpt lat="52.067025" lon="05.830610"><ele>11.4</ele><time>2021-01-12T13:08:02Z</time><name>PT957</name></trkpt>
<trkpt lat="52.067034" lon="05.830600"><ele>11.4</ele><time>2021-01-12T13:08:03Z</time><name>PT958</name></trkpt>
<trkpt lat="52.067046" lon="05.830592"><ele>11.4</ele><time>2021-01-12T13:08:04Z</time><name>PT959</name></trkpt>
<trkpt lat="52.067054" lon="05.830584"><ele>11.4</ele><time>2021-01-12T13:08:05Z</time><name>PT960</name></trkpt>
<trkpt lat="52.067062" lon="05.830574"><ele>11.6</ele><time>2021-01-12T13:08:06Z</time><name>PT961</name></trkpt>
<trkpt lat="52.067075" lon="05.830566"><ele>11.5</ele><time>2021-01-12T13:08:07Z</time><name>PT962</name></trkpt>
<trkpt lat="52.067087" lon="05.830559"><ele>11.6</ele><time>2021-01-12T13:08:08Z</time><name>PT963</name></trkpt>
<trkpt lat="52.067101" lon="05.830553"><ele>11.8</ele><time>2021-01-12T13:08:09Z</time><name>PT964</name></trkpt>
<trkpt lat="52.067112" lon="05.830545"><ele>11.9</ele><time>2021-01-12T13:08:10Z</time><name>PT965</name></trkpt>
<trkpt lat="52.067124" lon="05.830532"><ele>12.1</ele><time>2021-01-12T13:08:11Z</time><name>PT966</name></trkpt>
<trkpt lat="52.067132" lon="05.830521"><ele>12.4</ele><time>2021-01-12T13:08:12Z</time><name>PT967</name></trkpt>
<trkpt lat="52.067140" lon="05.830510"><ele>12.4</ele><time>2021-01-12T13:08:13Z</time><name>PT968</name></trkpt>
<trkpt lat="52.067153" lon="05.830506"><ele>12.4</ele><time>2021-01-12T13:08:14Z</time><name>PT969</name></trkpt>
<trkpt lat="52.067162" lon="05.830498"><ele>12.5</ele><time>2021-01-12T13:08:15Z</time><name>PT970</name></trkpt>
<trkpt lat="52.067174" lon="05.830498"><ele>12.4</ele><time>2021-01-12T13:08:16Z</time><name>PT971</name></trkpt>
<trkpt lat="52.067187" lon="05.830492"><ele>12.4</ele><time>2021-01-12T13:08:17Z</time><name>PT972</name></trkpt>
<trkpt lat="52.067202" lon="05.830488"><ele>12.2</ele><time>2021-01-12T13:08:18Z</time><name>PT973</name></trkpt>
<trkpt lat="52.067214" lon="05.830483"><ele>12.2</ele><time>2021-01-12T13:08:19Z</time><name>PT974</name></trkpt>
<trkpt lat="52.067228" lon="05.830479"><ele>12.1</ele><time>2021-01-12T13:08:20Z</time><name>PT975</name></trkpt>
<trkpt lat="52.067237" lon="05.830474"><ele>11.9</ele><time>2021-01-12T13:08:21Z</time><name>PT976</name></trkpt>
<trkpt lat="52.067247" lon="05.830468"><ele>11.9</ele><time>2021-01-12T13:08:22Z</time><name>PT977</name></trkpt>
<trkpt lat="52.067257" lon="05.830462"><ele>11.7</ele><time>2021-01-12T13:08:23Z</time><name>PT978</name></trkpt>
<trkpt lat="52.067269" lon="05.830453"><ele>11.4</ele><time>2021-01-12T13:08:24Z</time><name>PT979</name></trkpt>
<trkpt lat="52.067282" lon="05.830447"><ele>11.4</ele><time>2021-01-12T13:08:25Z</time><name>PT980</name></trkpt>
<trkpt lat="52.067293" lon="05.830441"><ele>11</ele><time>2021-01-12T13:08:26Z</time><name>PT981</name></trkpt>
<trkpt lat="52.067308" lon="05.830430"><ele>10.9</ele><time>2021-01-12T13:08:27Z</time><name>PT982</name></trkpt>
<trkpt lat="52.067320" lon="05.830422"><ele>10.8</ele><time>2021-01-12T13:08:28Z</time><name>PT983</name></trkpt>
<trkpt lat="52.067332" lon="05.830411"><ele>10.7</ele><time>2021-01-12T13:08:29Z</time><name>PT984</name></trkpt>
<trkpt lat="52.067342" lon="05.830402"><ele>10.6</ele><time>2021-01-12T13:08:30Z</time><name>PT985</name></trkpt>
<trkpt lat="52.067353" lon="05.830395"><ele>10.6</ele><time>2021-01-12T13:08:31Z</time><name>PT986</name></trkpt>
<trkpt lat="52.067369" lon="05.830386"><ele>10.4</ele><time>2021-01-12T13:08:32Z</time><name>PT987</name></trkpt>
<trkpt lat="52.067382" lon="05.830375"><ele>10.4</ele><time>2021-01-12T13:08:33Z</time><name>PT988</name></trkpt>
<trkpt lat="52.067387" lon="05.830366"><ele>10.5</ele><time>2021-01-12T13:08:34Z</time><name>PT989</name></trkpt>
<trkpt lat="52.067398" lon="05.830352"><ele>10.1</ele><time>2021-01-12T13:08:35Z</time><name>PT990</name></trkpt>
<trkpt lat="52.067411" lon="05.830339"><ele>10</ele><time>2021-01-12T13:08:36Z</time><name>PT991</name></trkpt>
<trkpt lat="52.067424" lon="05.830333"><ele>10</ele><time>2021-01-12T13:08:37Z</time><name>PT992</name></trkpt>
<trkpt lat="52.067436" lon="05.830326"><ele>9.9</ele><time>2021-01-12T13:08:38Z</time><name>PT993</name></trkpt>
<trkpt lat="52.067449" lon="05.830315"><ele>10</ele><time>2021-01-12T13:08:39Z</time><name>PT994</name></trkpt>
<trkpt lat="52.067461" lon="05.830306"><ele>10.1</ele><time>2021-01-12T13:08:40Z</time><name>PT995</name></trkpt>
<trkpt lat="52.067475" lon="05.830295"><ele>10.1</ele><time>2021-01-12T13:08:41Z</time><name>PT996</name></trkpt>
<trkpt lat="52.067490" lon="05.830286"><ele>10</ele><time>2021-01-12T13:08:42Z</time><name>PT997</name></trkpt>
<trkpt lat="52.067504" lon="05.830281"><ele>9.9</ele><time>2021-01-12T13:08:43Z</time><name>PT998</name></trkpt>
<trkpt lat="52.067516" lon="05.830270"><ele>9.9</ele><time>2021-01-12T13:08:44Z</time><name>PT999</name></trkpt>
<trkpt lat="52.067528" lon="05.830258"><ele>9.7</ele><time>2021-01-12T13:08:45Z</time><name>PT1000</name></trkpt>
<trkpt lat="52.067541" lon="05.830248"><ele>9.7</ele><time>2021-01-12T13:08:46Z</time><name>PT1001</name></trkpt>
<trkpt lat="52.067553" lon="05.830240"><ele>9.7</ele><time>2021-01-12T13:08:47Z</time><name>PT1002</name></trkpt>
<trkpt lat="52.067564" lon="05.830227"><ele>9.7</ele><time>2021-01-12T13:08:48Z</time><name>PT1003</name></trkpt>
<trkpt lat="52.067574" lon="05.830216"><ele>9.5</ele><time>2021-01-12T13:08:49Z</time><name>PT1004</name></trkpt>
<trkpt lat="52.067587" lon="05.830208"><ele>9.7</ele><time>2021-01-12T13:08:50Z</time><name>PT1005</name></trkpt>
<trkpt lat="52.067598" lon="05.830203"><ele>9.7</ele><time>2021-01-12T13:08:51Z</time><name>PT1006</name></trkpt>
<trkpt lat="52.067609" lon="05.830195"><ele>9.7</ele><time>2021-01-12T13:08:52Z</time><name>PT1007</name></trkpt>
<trkpt lat="52.067619" lon="05.830185"><ele>9.7</ele><time>2021-01-12T13:08:53Z</time><name>PT1008</name></trkpt>
<trkpt lat="52.067630" lon="05.830180"><ele>9.7</ele><time>2021-01-12T13:08:54Z</time><name>PT1009</name></trkpt>
<trkpt lat="52.067641" lon="05.830176"><ele>9.6</ele><time>2021-01-12T13:08:55Z</time><name>PT1010</name></trkpt>
<trkpt lat="52.067651" lon="05.830168"><ele>9.6</ele><time>2021-01-12T13:08:56Z</time><name>PT1011</name></trkpt>
<trkpt lat="52.067661" lon="05.830164"><ele>9.7</ele><time>2021-01-12T13:08:57Z</time><name>PT1012</name></trkpt>
<trkpt lat="52.067673" lon="05.830158"><ele>9.6</ele><time>2021-01-12T13:08:58Z</time><name>PT1013</name></trkpt>
<trkpt lat="52.067687" lon="05.830155"><ele>9.5</ele><time>2021-01-12T13:08:59Z</time><name>PT1014</name></trkpt>
<trkpt lat="52.067701" lon="05.830152"><ele>9.4</ele><time>2021-01-12T13:09:00Z</time><name>PT1015</name></trkpt>
<trkpt lat="52.067716" lon="05.830148"><ele>9.4</ele><time>2021-01-12T13:09:01Z</time><name>PT1016</name></trkpt>
<trkpt lat="52.067727" lon="05.830143"><ele>9.4</ele><time>2021-01-12T13:09:02Z</time><name>PT1017</name></trkpt>
<trkpt lat="52.067737" lon="05.830141"><ele>9.7</ele><time>2021-01-12T13:09:03Z</time><name>PT1018</name></trkpt>
<trkpt lat="52.067750" lon="05.830137"><ele>9.7</ele><time>2021-01-12T13:09:04Z</time><name>PT1019</name></trkpt>
<trkpt lat="52.067762" lon="05.830136"><ele>9.6</ele><time>2021-01-12T13:09:05Z</time><name>PT1020</name></trkpt>
<trkpt lat="52.067777" lon="05.830132"><ele>9.5</ele><time>2021-01-12T13:09:06Z</time><name>PT1021</name></trkpt>
<trkpt lat="52.067787" lon="05.830128"><ele>9.4</ele><time>2021-01-12T13:09:07Z</time><name>PT1022</name></trkpt>
<trkpt lat="52.067796" lon="05.830129"><ele>9.4</ele><time>2021-01-12T13:09:08Z</time><name>PT1023</name></trkpt>
<trkpt lat="52.067801" lon="05.830123"><ele>9.5</ele><time>2021-01-12T13:09:09Z</time><name>PT1024</name></trkpt>
<trkpt lat="52.067808" lon="05.830115"><ele>9.7</ele><time>2021-01-12T13:09:10Z</time><name>PT1025</name></trkpt>
<trkpt lat="52.067814" lon="05.830101"><ele>9.9</ele><time>2021-01-12T13:09:11Z</time><name>PT1026</name></trkpt>
<trkpt lat="52.067818" lon="05.830088"><ele>9.9</ele><time>2021-01-12T13:09:12Z</time><name>PT1027</name></trkpt>
<trkpt lat="52.067827" lon="05.830084"><ele>10.1</ele><time>2021-01-12T13:09:13Z</time><name>PT1028</name></trkpt>
<trkpt lat="52.067837" lon="05.830076"><ele>10.1</ele><time>2021-01-12T13:09:14Z</time><name>PT1029</name></trkpt>
<trkpt lat="52.067851" lon="05.830072"><ele>10.1</ele><time>2021-01-12T13:09:15Z</time><name>PT1030</name></trkpt>
<trkpt lat="52.067862" lon="05.830066"><ele>10</ele><time>2021-01-12T13:09:16Z</time><name>PT1031</name></trkpt>
<trkpt lat="52.067869" lon="05.830066"><ele>9.9</ele><time>2021-01-12T13:09:17Z</time><name>PT1032</name></trkpt>
<trkpt lat="52.067881" lon="05.830064"><ele>9.9</ele><time>2021-01-12T13:09:18Z</time><name>PT1033</name></trkpt>
<trkpt lat="52.067890" lon="05.830055"><ele>9.9</ele><time>2021-01-12T13:09:19Z</time><name>PT1034</name></trkpt>
<trkpt lat="52.067897" lon="05.830046"><ele>10</ele><time>2021-01-12T13:09:20Z</time><name>PT1035</name></trkpt>
<trkpt lat="52.067904" lon="05.830035"><ele>10</ele><time>2021-01-12T13:09:21Z</time><name>PT1036</name></trkpt>
<trkpt lat="52.067915" lon="05.830027"><ele>10</ele><time>2021-01-12T13:09:22Z</time><name>PT1037</name></trkpt>
<trkpt lat="52.067926" lon="05.830023"><ele>9.9</ele><time>2021-01-12T13:09:23Z</time><name>PT1038</name></trkpt>
<trkpt lat="52.067939" lon="05.830018"><ele>9.9</ele><time>2021-01-12T13:09:24Z</time><name>PT1039</name></trkpt>
<trkpt lat="52.067951" lon="05.830005"><ele>9.8</ele><time>2021-01-12T13:09:25Z</time><name>PT1040</name></trkpt>
<trkpt lat="52.067960" lon="05.830003"><ele>9.7</ele><time>2021-01-12T13:09:26Z</time><name>PT1041</name></trkpt>
<trkpt lat="52.067968" lon="05.829996"><ele>9.7</ele><time>2021-01-12T13:09:27Z</time><name>PT1042</name></trkpt>
<trkpt lat="52.067976" lon="05.829981"><ele>9.7</ele><time>2021-01-12T13:09:28Z</time><name>PT1043</name></trkpt>
<trkpt lat="52.067982" lon="05.829965"><ele>9.4</ele><time>2021-01-12T13:09:29Z</time><name>PT1044</name></trkpt>
<trkpt lat="52.067991" lon="05.829958"><ele>9.4</ele><time>2021-01-12T13:09:30Z</time><name>PT1045</name></trkpt>
<trkpt lat="52.068005" lon="05.829958"><ele>9.3</ele><time>2021-01-12T13:09:31Z</time><name>PT1046</name></trkpt>
<trkpt lat="52.068015" lon="05.829945"><ele>9</ele><time>2021-01-12T13:09:32Z</time><name>PT1047</name></trkpt>
<trkpt lat="52.068030" lon="05.829935"><ele>9</ele><time>2021-01-12T13:09:33Z</time><name>PT1048</name></trkpt>
<trkpt lat="52.068045" lon="05.829928"><ele>8.9</ele><time>2021-01-12T13:09:34Z</time><name>PT1049</name></trkpt>
<trkpt lat="52.068055" lon="05.829919"><ele>8.9</ele><time>2021-01-12T13:09:35Z</time><name>PT1050</name></trkpt>
<trkpt lat="52.068067" lon="05.829912"><ele>9.1</ele><time>2021-01-12T13:09:36Z</time><name>PT1051</name></trkpt>
<trkpt lat="52.068077" lon="05.829902"><ele>9.1</ele><time>2021-01-12T13:09:37Z</time><name>PT1052</name></trkpt>
<trkpt lat="52.068089" lon="05.829890"><ele>9.4</ele><time>2021-01-12T13:09:38Z</time><name>PT1053</name></trkpt>
<trkpt lat="52.068101" lon="05.829885"><ele>9.7</ele><time>2021-01-12T13:09:39Z</time><name>PT1054</name></trkpt>
<trkpt lat="52.068113" lon="05.829881"><ele>9.8</ele><time>2021-01-12T13:09:40Z</time><name>PT1055</name></trkpt>
<trkpt lat="52.068128" lon="05.829875"><ele>9.6</ele><time>2021-01-12T13:09:41Z</time><name>PT1056</name></trkpt>
<trkpt lat="52.068141" lon="05.829865"><ele>9.6</ele><time>2021-01-12T13:09:42Z</time><name>PT1057</name></trkpt>
<trkpt lat="52.068154" lon="05.829861"><ele>9.4</ele><time>2021-01-12T13:09:43Z</time><name>PT1058</name></trkpt>
<trkpt lat="52.068164" lon="05.829852"><ele>9.4</ele><time>2021-01-12T13:09:44Z</time><name>PT1059</name></trkpt>
<trkpt lat="52.068179" lon="05.829840"><ele>9.4</ele><time>2021-01-12T13:09:45Z</time><name>PT1060</name></trkpt>
<trkpt lat="52.068193" lon="05.829828"><ele>9.4</ele><time>2021-01-12T13:09:46Z</time><name>PT1061</name></trkpt>
<trkpt lat="52.068205" lon="05.829818"><ele>9.4</ele><time>2021-01-12T13:09:47Z</time><name>PT1062</name></trkpt>
<trkpt lat="52.068219" lon="05.829804"><ele>9.3</ele><time>2021-01-12T13:09:48Z</time><name>PT1063</name></trkpt>
<trkpt lat="52.068231" lon="05.829795"><ele>9.2</ele><time>2021-01-12T13:09:49Z</time><name>PT1064</name></trkpt>
<trkpt lat="52.068244" lon="05.829779"><ele>9.4</ele><time>2021-01-12T13:09:50Z</time><name>PT1065</name></trkpt>
<trkpt lat="52.068257" lon="05.829768"><ele>9.5</ele><time>2021-01-12T13:09:51Z</time><name>PT1066</name></trkpt>
<trkpt lat="52.068268" lon="05.829757"><ele>9.5</ele><time>2021-01-12T13:09:52Z</time><name>PT1067</name></trkpt>
<trkpt lat="52.068273" lon="05.829739"><ele>9.4</ele><time>2021-01-12T13:09:53Z</time><name>PT1068</name></trkpt>
<trkpt lat="52.068282" lon="05.829733"><ele>9.4</ele><time>2021-01-12T13:09:54Z</time><name>PT1069</name></trkpt>
<trkpt lat="52.068293" lon="05.829727"><ele>9.4</ele><time>2021-01-12T13:09:55Z</time><name>PT1070</name></trkpt>
<trkpt lat="52.068302" lon="05.829720"><ele>9.4</ele><time>2021-01-12T13:09:56Z</time><name>PT1071</name></trkpt>
<trkpt lat="52.068315" lon="05.829695"><ele>9.4</ele><time>2021-01-12T13:09:57Z</time><name>PT1072</name></trkpt>
<trkpt lat="52.068324" lon="05.829690"><ele>9.4</ele><time>2021-01-12T13:09:58Z</time><name>PT1073</name></trkpt>
<trkpt lat="52.068337" lon="05.829687"><ele>9.3</ele><time>2021-01-12T13:09:59Z</time><name>PT1074</name></trkpt>
<trkpt lat="52.068346" lon="05.829682"><ele>9</ele><time>2021-01-12T13:10:00Z</time><name>PT1075</name></trkpt>
<trkpt lat="52.068357" lon="05.829680"><ele>9.3</ele><time>2021-01-12T13:10:01Z</time><name>PT1076</name></trkpt>
<trkpt lat="52.068367" lon="05.829674"><ele>9.2</ele><time>2021-01-12T13:10:02Z</time><name>PT1077</name></trkpt>
<trkpt lat="52.068380" lon="05.829670"><ele>9</ele><time>2021-01-12T13:10:03Z</time><name>PT1078</name></trkpt>
<trkpt lat="52.068390" lon="05.829662"><ele>9</ele><time>2021-01-12T13:10:04Z</time><name>PT1079</name></trkpt>
<trkpt lat="52.068399" lon="05.829657"><ele>8.7</ele><time>2021-01-12T13:10:05Z</time><name>PT1080</name></trkpt>
<trkpt lat="52.068405" lon="05.829649"><ele>8.4</ele><time>2021-01-12T13:10:06Z</time><name>PT1081</name></trkpt>
<trkpt lat="52.068411" lon="05.829642"><ele>8.2</ele><time>2021-01-12T13:10:07Z</time><name>PT1082</name></trkpt>
<trkpt lat="52.068421" lon="05.829636"><ele>8.3</ele><time>2021-01-12T13:10:08Z</time><name>PT1083</name></trkpt>
<trkpt lat="52.068430" lon="05.829628"><ele>8.4</ele><time>2021-01-12T13:10:09Z</time><name>PT1084</name></trkpt>
<trkpt lat="52.068445" lon="05.829623"><ele>8.6</ele><time>2021-01-12T13:10:10Z</time><name>PT1085</name></trkpt>
<trkpt lat="52.068457" lon="05.829619"><ele>8.7</ele><time>2021-01-12T13:10:11Z</time><name>PT1086</name></trkpt>
<trkpt lat="52.068470" lon="05.829618"><ele>8.8</ele><time>2021-01-12T13:10:12Z</time><name>PT1087</name></trkpt>
<trkpt lat="52.068486" lon="05.829612"><ele>8.8</ele><time>2021-01-12T13:10:13Z</time><name>PT1088</name></trkpt>
<trkpt lat="52.068499" lon="05.829603"><ele>8.9</ele><time>2021-01-12T13:10:14Z</time><name>PT1089</name></trkpt>
<trkpt lat="52.068514" lon="05.829595"><ele>9</ele><time>2021-01-12T13:10:15Z</time><name>PT1090</name></trkpt>
<trkpt lat="52.068528" lon="05.829590"><ele>8.9</ele><time>2021-01-12T13:10:16Z</time><name>PT1091</name></trkpt>
<trkpt lat="52.068539" lon="05.829580"><ele>8.9</ele><time>2021-01-12T13:10:17Z</time><name>PT1092</name></trkpt>
<trkpt lat="52.068548" lon="05.829570"><ele>8.9</ele><time>2021-01-12T13:10:18Z</time><name>PT1093</name></trkpt>
<trkpt lat="52.068559" lon="05.829563"><ele>8.8</ele><time>2021-01-12T13:10:19Z</time><name>PT1094</name></trkpt>
<trkpt lat="52.068574" lon="05.829556"><ele>8.9</ele><time>2021-01-12T13:10:20Z</time><name>PT1095</name></trkpt>
<trkpt lat="52.068591" lon="05.829547"><ele>9</ele><time>2021-01-12T13:10:21Z</time><name>PT1096</name></trkpt>
<trkpt lat="52.068606" lon="05.829540"><ele>9</ele><time>2021-01-12T13:10:22Z</time><name>PT1097</name></trkpt>
<trkpt lat="52.068618" lon="05.829538"><ele>9</ele><time>2021-01-12T13:10:23Z</time><name>PT1098</name></trkpt>
<trkpt lat="52.068629" lon="05.829532"><ele>8.9</ele><time>2021-01-12T13:10:24Z</time><name>PT1099</name></trkpt>
<trkpt lat="52.068638" lon="05.829524"><ele>8.9</ele><time>2021-01-12T13:10:25Z</time><name>PT1100</name></trkpt>
<trkpt lat="52.068647" lon="05.829522"><ele>8.9</ele><time>2021-01-12T13:10:26Z</time><name>PT1101</name></trkpt>
<trkpt lat="52.068656" lon="05.829516"><ele>8.9</ele><time>2021-01-12T13:10:27Z</time><name>PT1102</name></trkpt>
<trkpt lat="52.068669" lon="05.829511"><ele>8.9</ele><time>2021-01-12T13:10:28Z</time><name>PT1103</name></trkpt>
<trkpt lat="52.068681" lon="05.829507"><ele>9.1</ele><time>2021-01-12T13:10:29Z</time><name>PT1104</name></trkpt>
<trkpt lat="52.068692" lon="05.829504"><ele>8.9</ele><time>2021-01-12T13:10:30Z</time><name>PT1105</name></trkpt>
<trkpt lat="52.068703" lon="05.829501"><ele>8.9</ele><time>2021-01-12T13:10:31Z</time><name>PT1106</name></trkpt>
<trkpt lat="52.068714" lon="05.829497"><ele>8.6</ele><time>2021-01-12T13:10:32Z</time><name>PT1107</name></trkpt>
<trkpt lat="52.068728" lon="05.829491"><ele>8.5</ele><time>2021-01-12T13:10:33Z</time><name>PT1108</name></trkpt>
<trkpt lat="52.068739" lon="05.829486"><ele>8.5</ele><time>2021-01-12T13:10:34Z</time><name>PT1109</name></trkpt>
<trkpt lat="52.068750" lon="05.829477"><ele>8.7</ele><time>2021-01-12T13:10:35Z</time><name>PT1110</name></trkpt>
<trkpt lat="52.068763" lon="05.829471"><ele>8.8</ele><time>2021-01-12T13:10:36Z</time><name>PT1111</name></trkpt>
<trkpt lat="52.068772" lon="05.829462"><ele>8.9</ele><time>2021-01-12T13:10:37Z</time><name>PT1112</name></trkpt>
<trkpt lat="52.068777" lon="05.829450"><ele>8.9</ele><time>2021-01-12T13:10:38Z</time><name>PT1113</name></trkpt>
<trkpt lat="52.068788" lon="05.829439"><ele>8.9</ele><time>2021-01-12T13:10:39Z</time><name>PT1114</name></trkpt>
<trkpt lat="52.068797" lon="05.829431"><ele>8.9</ele><time>2021-01-12T13:10:40Z</time><name>PT1115</name></trkpt>
<trkpt lat="52.068809" lon="05.829425"><ele>8.8</ele><time>2021-01-12T13:10:41Z</time><name>PT1116</name></trkpt>
<trkpt lat="52.068823" lon="05.829422"><ele>8.4</ele><time>2021-01-12T13:10:42Z</time><name>PT1117</name></trkpt>
<trkpt lat="52.068838" lon="05.829415"><ele>8.4</ele><time>2021-01-12T13:10:43Z</time><name>PT1118</name></trkpt>
<trkpt lat="52.068854" lon="05.829409"><ele>8.1</ele><time>2021-01-12T13:10:44Z</time><name>PT1119</name></trkpt>
<trkpt lat="52.068871" lon="05.829399"><ele>8</ele><time>2021-01-12T13:10:45Z</time><name>PT1120</name></trkpt>
<trkpt lat="52.068885" lon="05.829393"><ele>7.9</ele><time>2021-01-12T13:10:46Z</time><name>PT1121</name></trkpt>
<trkpt lat="52.068900" lon="05.829384"><ele>7.9</ele><time>2021-01-12T13:10:47Z</time><name>PT1122</name></trkpt>
<trkpt lat="52.068915" lon="05.829376"><ele>7.9</ele><time>2021-01-12T13:10:48Z</time><name>PT1123</name></trkpt>
<trkpt lat="52.068930" lon="05.829368"><ele>7.9</ele><time>2021-01-12T13:10:49Z</time><name>PT1124</name></trkpt>
<trkpt lat="52.068944" lon="05.829358"><ele>7.8</ele><time>2021-01-12T13:10:50Z</time><name>PT1125</name></trkpt>
<trkpt lat="52.068954" lon="05.829346"><ele>7.9</ele><time>2021-01-12T13:10:51Z</time><name>PT1126</name></trkpt>
<trkpt lat="52.068966" lon="05.829335"><ele>8.2</ele><time>2021-01-12T13:10:52Z</time><name>PT1127</name></trkpt>
<trkpt lat="52.068979" lon="05.829323"><ele>8.5</ele><time>2021-01-12T13:10:53Z</time><name>PT1128</name></trkpt>
<trkpt lat="52.068991" lon="05.829313"><ele>8.9</ele><time>2021-01-12T13:10:54Z</time><name>PT1129</name></trkpt>
<trkpt lat="52.069001" lon="05.829303"><ele>8.9</ele><time>2021-01-12T13:10:55Z</time><name>PT1130</name></trkpt>
<trkpt lat="52.069013" lon="05.829294"><ele>8.7</ele><time>2021-01-12T13:10:56Z</time><name>PT1131</name></trkpt>
<trkpt lat="52.069023" lon="05.829286"><ele>8.4</ele><time>2021-01-12T13:10:57Z</time><name>PT1132</name></trkpt>
<trkpt lat="52.069036" lon="05.829274"><ele>8.5</ele><time>2021-01-12T13:10:58Z</time><name>PT1133</name></trkpt>
<trkpt lat="52.069050" lon="05.829263"><ele>8.5</ele><time>2021-01-12T13:10:59Z</time><name>PT1134</name></trkpt>
<trkpt lat="52.069063" lon="05.829253"><ele>8.6</ele><time>2021-01-12T13:11:00Z</time><name>PT1135</name></trkpt>
<trkpt lat="52.069074" lon="05.829243"><ele>8.7</ele><time>2021-01-12T13:11:01Z</time><name>PT1136</name></trkpt>
<trkpt lat="52.069084" lon="05.829233"><ele>8.7</ele><time>2021-01-12T13:11:02Z</time><name>PT1137</name></trkpt>
<trkpt lat="52.069094" lon="05.829221"><ele>8.5</ele><time>2021-01-12T13:11:03Z</time><name>PT1138</name></trkpt>
<trkpt lat="52.069105" lon="05.829208"><ele>8.6</ele><time>2021-01-12T13:11:04Z</time><name>PT1139</name></trkpt>
<trkpt lat="52.069117" lon="05.829194"><ele>8.4</ele><time>2021-01-12T13:11:05Z</time><name>PT1140</name></trkpt>
<trkpt lat="52.069127" lon="05.829180"><ele>8.3</ele><time>2021-01-12T13:11:06Z</time><name>PT1141</name></trkpt>
<trkpt lat="52.069138" lon="05.829168"><ele>8.3</ele><time>2021-01-12T13:11:07Z</time><name>PT1142</name></trkpt>
<trkpt lat="52.069149" lon="05.829157"><ele>8.1</ele><time>2021-01-12T13:11:08Z</time><name>PT1143</name></trkpt>
<trkpt lat="52.069160" lon="05.829146"><ele>8.1</ele><time>2021-01-12T13:11:09Z</time><name>PT1144</name></trkpt>
<trkpt lat="52.069170" lon="05.829134"><ele>8.3</ele><time>2021-01-12T13:11:10Z</time><name>PT1145</name></trkpt>
<trkpt lat="52.069178" lon="05.829126"><ele>8.2</ele><time>2021-01-12T13:11:11Z</time><name>PT1146</name></trkpt>
<trkpt lat="52.069187" lon="05.829116"><ele>8.1</ele><time>2021-01-12T13:11:12Z</time><name>PT1147</name></trkpt>
<trkpt lat="52.069198" lon="05.829105"><ele>8.1</ele><time>2021-01-12T13:11:13Z</time><name>PT1148</name></trkpt>
<trkpt lat="52.069210" lon="05.829093"><ele>8</ele><time>2021-01-12T13:11:14Z</time><name>PT1149</name></trkpt>
<trkpt lat="52.069220" lon="05.829080"><ele>8.2</ele><time>2021-01-12T13:11:15Z</time><name>PT1150</name></trkpt>
<trkpt lat="52.069231" lon="05.829067"><ele>8.2</ele><time>2021-01-12T13:11:16Z</time><name>PT1151</name></trkpt>
<trkpt lat="52.069242" lon="05.829054"><ele>8.1</ele><time>2021-01-12T13:11:17Z</time><name>PT1152</name></trkpt>
<trkpt lat="52.069251" lon="05.829040"><ele>8.2</ele><time>2021-01-12T13:11:18Z</time><name>PT1153</name></trkpt>
<trkpt lat="52.069262" lon="05.829023"><ele>8.2</ele><time>2021-01-12T13:11:19Z</time><name>PT1154</name></trkpt>
<trkpt lat="52.069271" lon="05.829007"><ele>8.2</ele><time>2021-01-12T13:11:20Z</time><name>PT1155</name></trkpt>
<trkpt lat="52.069280" lon="05.828991"><ele>8.2</ele><time>2021-01-12T13:11:21Z</time><name>PT1156</name></trkpt>
<trkpt lat="52.069290" lon="05.828981"><ele>8.2</ele><time>2021-01-12T13:11:22Z</time><name>PT1157</name></trkpt>
<trkpt lat="52.069297" lon="05.828964"><ele>8.1</ele><time>2021-01-12T13:11:23Z</time><name>PT1158</name></trkpt>
<trkpt lat="52.069304" lon="05.828948"><ele>8</ele><time>2021-01-12T13:11:24Z</time><name>PT1159</name></trkpt>
<trkpt lat="52.069314" lon="05.828932"><ele>7.9</ele><time>2021-01-12T13:11:25Z</time><name>PT1160</name></trkpt>
<trkpt lat="52.069324" lon="05.828915"><ele>7.9</ele><time>2021-01-12T13:11:26Z</time><name>PT1161</name></trkpt>
<trkpt lat="52.069332" lon="05.828898"><ele>7.9</ele><time>2021-01-12T13:11:27Z</time><name>PT1162</name></trkpt>
<trkpt lat="52.069341" lon="05.828881"><ele>8</ele><time>2021-01-12T13:11:28Z</time><name>PT1163</name></trkpt>
<trkpt lat="52.069349" lon="05.828866"><ele>7.9</ele><time>2021-01-12T13:11:29Z</time><name>PT1164</name></trkpt>
<trkpt lat="52.069356" lon="05.828847"><ele>7.8</ele><time>2021-01-12T13:11:30Z</time><name>PT1165</name></trkpt>
<trkpt lat="52.069364" lon="05.828828"><ele>7.6</ele><time>2021-01-12T13:11:31Z</time><name>PT1166</name></trkpt>
<trkpt lat="52.069373" lon="05.828807"><ele>7.4</ele><time>2021-01-12T13:11:32Z</time><name>PT1167</name></trkpt>
<trkpt lat="52.069379" lon="05.828792"><ele>7.4</ele><time>2021-01-12T13:11:33Z</time><name>PT1168</name></trkpt>
<trkpt lat="52.069386" lon="05.828776"><ele>7.3</ele><time>2021-01-12T13:11:34Z</time><name>PT1169</name></trkpt>
<trkpt lat="52.069393" lon="05.828761"><ele>7.2</ele><time>2021-01-12T13:11:35Z</time><name>PT1170</name></trkpt>
<trkpt lat="52.069401" lon="05.828744"><ele>7.4</ele><time>2021-01-12T13:11:36Z</time><name>PT1171</name></trkpt>
<trkpt lat="52.069407" lon="05.828727"><ele>7.5</ele><time>2021-01-12T13:11:37Z</time><name>PT1172</name></trkpt>
<trkpt lat="52.069416" lon="05.828713"><ele>7.5</ele><time>2021-01-12T13:11:38Z</time><name>PT1173</name></trkpt>
<trkpt lat="52.069426" lon="05.828696"><ele>7.7</ele><time>2021-01-12T13:11:39Z</time><name>PT1174</name></trkpt>
<trkpt lat="52.069433" lon="05.828674"><ele>7.6</ele><time>2021-01-12T13:11:40Z</time><name>PT1175</name></trkpt>
<trkpt lat="52.069440" lon="05.828658"><ele>7.6</ele><time>2021-01-12T13:11:41Z</time><name>PT1176</name></trkpt>
<trkpt lat="52.069448" lon="05.828642"><ele>7.8</ele><time>2021-01-12T13:11:42Z</time><name>PT1177</name></trkpt>
<trkpt lat="52.069455" lon="05.828624"><ele>7.9</ele><time>2021-01-12T13:11:43Z</time><name>PT1178</name></trkpt>
<trkpt lat="52.069461" lon="05.828606"><ele>8.3</ele><time>2021-01-12T13:11:44Z</time><name>PT1179</name></trkpt>
<trkpt lat="52.069467" lon="05.828585"><ele>8.4</ele><time>2021-01-12T13:11:45Z</time><name>PT1180</name></trkpt>
<trkpt lat="52.069472" lon="05.828566"><ele>8.4</ele><time>2021-01-12T13:11:46Z</time><name>PT1181</name></trkpt>
<trkpt lat="52.069479" lon="05.828549"><ele>8.5</ele><time>2021-01-12T13:11:47Z</time><name>PT1182</name></trkpt>
<trkpt lat="52.069486" lon="05.828532"><ele>8.4</ele><time>2021-01-12T13:11:48Z</time><name>PT1183</name></trkpt>
<trkpt lat="52.069493" lon="05.828516"><ele>8.4</ele><time>2021-01-12T13:11:49Z</time><name>PT1184</name></trkpt>
<trkpt lat="52.069500" lon="05.828501"><ele>8.4</ele><time>2021-01-12T13:11:50Z</time><name>PT1185</name></trkpt>
<trkpt lat="52.069507" lon="05.828485"><ele>8.2</ele><time>2021-01-12T13:11:51Z</time><name>PT1186</name></trkpt>
<trkpt lat="52.069514" lon="05.828469"><ele>8.3</ele><time>2021-01-12T13:11:52Z</time><name>PT1187</name></trkpt>
<trkpt lat="52.069521" lon="05.828453"><ele>8.3</ele><time>2021-01-12T13:11:53Z</time><name>PT1188</name></trkpt>
<trkpt lat="52.069528" lon="05.828437"><ele>8.3</ele><time>2021-01-12T13:11:54Z</time><name>PT1189</name></trkpt>
<trkpt lat="52.069535" lon="05.828428"><ele>8</ele><time>2021-01-12T13:11:55Z</time><name>PT1190</name></trkpt>
<trkpt lat="52.069540" lon="05.828419"><ele>7.9</ele><time>2021-01-12T13:11:56Z</time><name>PT1191</name></trkpt>
<trkpt lat="52.069544" lon="05.828409"><ele>7.6</ele><time>2021-01-12T13:11:57Z</time><name>PT1192</name></trkpt>
<trkpt lat="52.069546" lon="05.828402"><ele>7.5</ele><time>2021-01-12T13:11:58Z</time><name>PT1193</name></trkpt>
<trkpt lat="52.069546" lon="05.828401"><ele>8</ele><time>2021-01-12T13:11:59Z</time><name>PT1194</name></trkpt>
<trkpt lat="52.069545" lon="05.828399"><ele>8.7</ele><time>2021-01-12T13:12:00Z</time><name>PT1195</name></trkpt>
<trkpt lat="52.069550" lon="05.828395"><ele>8.9</ele><time>2021-01-12T13:12:09Z</time><name>PT1196</name></trkpt>
<trkpt lat="52.069552" lon="05.828389"><ele>8.7</ele><time>2021-01-12T13:12:10Z</time><name>PT1197</name></trkpt>
<trkpt lat="52.069550" lon="05.828379"><ele>8.9</ele><time>2021-01-12T13:12:11Z</time><name>PT1198</name></trkpt>
<trkpt lat="52.069549" lon="05.828376"><ele>8.8</ele><time>2021-01-12T13:12:12Z</time><name>PT1199</name></trkpt>
<trkpt lat="52.069551" lon="05.828364"><ele>8.6</ele><time>2021-01-12T13:12:13Z</time><name>PT1200</name></trkpt>
<trkpt lat="52.069553" lon="05.828347"><ele>8.4</ele><time>2021-01-12T13:12:14Z</time><name>PT1201</name></trkpt>
<trkpt lat="52.069557" lon="05.828332"><ele>7.7</ele><time>2021-01-12T13:12:15Z</time><name>PT1202</name></trkpt>
<trkpt lat="52.069561" lon="05.828314"><ele>7.4</ele><time>2021-01-12T13:12:16Z</time><name>PT1203</name></trkpt>
<trkpt lat="52.069565" lon="05.828302"><ele>7.3</ele><time>2021-01-12T13:12:17Z</time><name>PT1204</name></trkpt>
<trkpt lat="52.069568" lon="05.828288"><ele>7.4</ele><time>2021-01-12T13:12:18Z</time><name>PT1205</name></trkpt>
<trkpt lat="52.069574" lon="05.828278"><ele>7.4</ele><time>2021-01-12T13:12:19Z</time><name>PT1206</name></trkpt>
<trkpt lat="52.069580" lon="05.828268"><ele>7.4</ele><time>2021-01-12T13:12:20Z</time><name>PT1207</name></trkpt>
<trkpt lat="52.069584" lon="05.828256"><ele>7.4</ele><time>2021-01-12T13:12:21Z</time><name>PT1208</name></trkpt>
<trkpt lat="52.069588" lon="05.828248"><ele>7.4</ele><time>2021-01-12T13:12:22Z</time><name>PT1209</name></trkpt>
<trkpt lat="52.069588" lon="05.828243"><ele>7.2</ele><time>2021-01-12T13:12:23Z</time><name>PT1210</name></trkpt>
<trkpt lat="52.069587" lon="05.828234"><ele>7.7</ele><time>2021-01-12T13:12:24Z</time><name>PT1211</name></trkpt>
<trkpt lat="52.069587" lon="05.828227"><ele>8.2</ele><time>2021-01-12T13:12:25Z</time><name>PT1212</name></trkpt>
<trkpt lat="52.069587" lon="05.828221"><ele>8.5</ele><time>2021-01-12T13:12:26Z</time><name>PT1213</name></trkpt>
<trkpt lat="52.069586" lon="05.828220"><ele>9.1</ele><time>2021-01-12T13:12:27Z</time><name>PT1214</name></trkpt>
<trkpt lat="52.069586" lon="05.828226"><ele>9.2</ele><time>2021-01-12T13:12:28Z</time><name>PT1215</name></trkpt>
<trkpt lat="52.069585" lon="05.828223"><ele>8.9</ele><time>2021-01-12T13:12:37Z</time><name>PT1216</name></trkpt>
<trkpt lat="52.069589" lon="05.828214"><ele>8.3</ele><time>2021-01-12T13:12:38Z</time><name>PT1217</name></trkpt>
<trkpt lat="52.069591" lon="05.828209"><ele>8.1</ele><time>2021-01-12T13:12:59Z</time><name>PT1218</name></trkpt>
<trkpt lat="52.069596" lon="05.828201"><ele>7.8</ele><time>2021-01-12T13:13:00Z</time><name>PT1219</name></trkpt>
<trkpt lat="52.069599" lon="05.828194"><ele>7.9</ele><time>2021-01-12T13:13:01Z</time><name>PT1220</name></trkpt>
<trkpt lat="52.069599" lon="05.828187"><ele>8</ele><time>2021-01-12T13:13:02Z</time><name>PT1221</name></trkpt>
<trkpt lat="52.069598" lon="05.828183"><ele>8.4</ele><time>2021-01-12T13:13:03Z</time><name>PT1222</name></trkpt>
<trkpt lat="52.069598" lon="05.828180"><ele>8.1</ele><time>2021-01-12T13:13:16Z</time><name>PT1223</name></trkpt>
<trkpt lat="52.069603" lon="05.828180"><ele>7.9</ele><time>2021-01-12T13:13:17Z</time><name>PT1224</name></trkpt>
<trkpt lat="52.069603" lon="05.828179"><ele>8.1</ele><time>2021-01-12T13:13:18Z</time><name>PT1225</name></trkpt>
<trkpt lat="52.069606" lon="05.828174"><ele>8.4</ele><time>2021-01-12T13:13:27Z</time><name>PT1226</name></trkpt>
<trkpt lat="52.069608" lon="05.828170"><ele>8.3</ele><time>2021-01-12T13:13:28Z</time><name>PT1227</name></trkpt>
<trkpt lat="52.069611" lon="05.828172"><ele>8.3</ele><time>2021-01-12T13:13:29Z</time><name>PT1228</name></trkpt>
<trkpt lat="52.069614" lon="05.828168"><ele>8.2</ele><time>2021-01-12T13:13:44Z</time><name>PT1229</name></trkpt>
<trkpt lat="52.069615" lon="05.828167"><ele>8.3</ele><time>2021-01-12T13:13:45Z</time><name>PT1230</name></trkpt>
<trkpt lat="52.069615" lon="05.828164"><ele>8.2</ele><time>2021-01-12T13:13:46Z</time><name>PT1231</name></trkpt>
<trkpt lat="52.069614" lon="05.828159"><ele>8.4</ele><time>2021-01-12T13:13:47Z</time><name>PT1232</name></trkpt>
<trkpt lat="52.069612" lon="05.828152"><ele>8.2</ele><time>2021-01-12T13:13:49Z</time><name>PT1233</name></trkpt>
<trkpt lat="52.069610" lon="05.828139"><ele>8.3</ele><time>2021-01-12T13:13:50Z</time><name>PT1234</name></trkpt>
<trkpt lat="52.069610" lon="05.828128"><ele>8.4</ele><time>2021-01-12T13:13:51Z</time><name>PT1235</name></trkpt>
<trkpt lat="52.069605" lon="05.828116"><ele>8.5</ele><time>2021-01-12T13:13:52Z</time><name>PT1236</name></trkpt>
<trkpt lat="52.069603" lon="05.828111"><ele>8.6</ele><time>2021-01-12T13:13:53Z</time><name>PT1237</name></trkpt>
<trkpt lat="52.069603" lon="05.828111"><ele>8.5</ele><time>2021-01-12T13:13:54Z</time><name>PT1238</name></trkpt>
<trkpt lat="52.069604" lon="05.828112"><ele>8.4</ele><time>2021-01-12T13:13:55Z</time><name>PT1239</name></trkpt>
<trkpt lat="52.069607" lon="05.828111"><ele>8.5</ele><time>2021-01-12T13:13:56Z</time><name>PT1240</name></trkpt>
<trkpt lat="52.069609" lon="05.828103"><ele>7.9</ele><time>2021-01-12T13:15:30Z</time><name>PT1241</name></trkpt>
<trkpt lat="52.069607" lon="05.828088"><ele>7.9</ele><time>2021-01-12T13:15:31Z</time><name>PT1242</name></trkpt>
<trkpt lat="52.069605" lon="05.828079"><ele>7.9</ele><time>2021-01-12T13:15:32Z</time><name>PT1243</name></trkpt>
<trkpt lat="52.069603" lon="05.828068"><ele>8.2</ele><time>2021-01-12T13:15:33Z</time><name>PT1244</name></trkpt>
<trkpt lat="52.069601" lon="05.828059"><ele>8.1</ele><time>2021-01-12T13:15:34Z</time><name>PT1245</name></trkpt>
<trkpt lat="52.069597" lon="05.828048"><ele>8</ele><time>2021-01-12T13:15:35Z</time><name>PT1246</name></trkpt>
<trkpt lat="52.069596" lon="05.828047"><ele>8</ele><time>2021-01-12T13:15:36Z</time><name>PT1247</name></trkpt>
<trkpt lat="52.069592" lon="05.828040"><ele>7.9</ele><time>2021-01-12T13:15:37Z</time><name>PT1248</name></trkpt>
<trkpt lat="52.069589" lon="05.828037"><ele>7.9</ele><time>2021-01-12T13:15:38Z</time><name>PT1249</name></trkpt>
<trkpt lat="52.069587" lon="05.828036"><ele>8.3</ele><time>2021-01-12T13:15:39Z</time><name>PT1250</name></trkpt>
<trkpt lat="52.069585" lon="05.828034"><ele>8.4</ele><time>2021-01-12T13:15:40Z</time><name>PT1251</name></trkpt>
<trkpt lat="52.069583" lon="05.828018"><ele>8.4</ele><time>2021-01-12T13:15:41Z</time><name>PT1252</name></trkpt>
<trkpt lat="52.069571" lon="05.828017"><ele>8.6</ele><time>2021-01-12T13:15:42Z</time><name>PT1253</name></trkpt>
<trkpt lat="52.069567" lon="05.828006"><ele>8.2</ele><time>2021-01-12T13:15:48Z</time><name>PT1254</name></trkpt>
<trkpt lat="52.069561" lon="05.827987"><ele>8.2</ele><time>2021-01-12T13:15:49Z</time><name>PT1255</name></trkpt>
<trkpt lat="52.069559" lon="05.827973"><ele>8.4</ele><time>2021-01-12T13:15:50Z</time><name>PT1256</name></trkpt>
<trkpt lat="52.069557" lon="05.827961"><ele>8.3</ele><time>2021-01-12T13:15:51Z</time><name>PT1257</name></trkpt>
<trkpt lat="52.069553" lon="05.827949"><ele>8.2</ele><time>2021-01-12T13:15:52Z</time><name>PT1258</name></trkpt>
<trkpt lat="52.069547" lon="05.827937"><ele>8.3</ele><time>2021-01-12T13:15:53Z</time><name>PT1259</name></trkpt>
<trkpt lat="52.069541" lon="05.827922"><ele>8.2</ele><time>2021-01-12T13:15:54Z</time><name>PT1260</name></trkpt>
<trkpt lat="52.069537" lon="05.827909"><ele>8.2</ele><time>2021-01-12T13:15:55Z</time><name>PT1261</name></trkpt>
<trkpt lat="52.069535" lon="05.827895"><ele>8.1</ele><time>2021-01-12T13:15:56Z</time><name>PT1262</name></trkpt>
<trkpt lat="52.069535" lon="05.827884"><ele>8.1</ele><time>2021-01-12T13:15:57Z</time><name>PT1263</name></trkpt>
<trkpt lat="52.069533" lon="05.827867"><ele>7.9</ele><time>2021-01-12T13:15:58Z</time><name>PT1264</name></trkpt>
<trkpt lat="52.069532" lon="05.827852"><ele>7.9</ele><time>2021-01-12T13:15:59Z</time><name>PT1265</name></trkpt>
<trkpt lat="52.069533" lon="05.827838"><ele>7.9</ele><time>2021-01-12T13:16:00Z</time><name>PT1266</name></trkpt>
<trkpt lat="52.069534" lon="05.827822"><ele>7.6</ele><time>2021-01-12T13:16:01Z</time><name>PT1267</name></trkpt>
<trkpt lat="52.069534" lon="05.827806"><ele>7.8</ele><time>2021-01-12T13:16:02Z</time><name>PT1268</name></trkpt>
<trkpt lat="52.069536" lon="05.827789"><ele>7.6</ele><time>2021-01-12T13:16:03Z</time><name>PT1269</name></trkpt>
<trkpt lat="52.069537" lon="05.827772"><ele>7.6</ele><time>2021-01-12T13:16:04Z</time><name>PT1270</name></trkpt>
<trkpt lat="52.069537" lon="05.827751"><ele>7.4</ele><time>2021-01-12T13:16:05Z</time><name>PT1271</name></trkpt>
<trkpt lat="52.069537" lon="05.827731"><ele>7.4</ele><time>2021-01-12T13:16:06Z</time><name>PT1272</name></trkpt>
<trkpt lat="52.069537" lon="05.827711"><ele>7.4</ele><time>2021-01-12T13:16:07Z</time><name>PT1273</name></trkpt>
<trkpt lat="52.069538" lon="05.827695"><ele>7.4</ele><time>2021-01-12T13:16:08Z</time><name>PT1274</name></trkpt>
<trkpt lat="52.069539" lon="05.827682"><ele>7.6</ele><time>2021-01-12T13:16:09Z</time><name>PT1275</name></trkpt>
<trkpt lat="52.069538" lon="05.827663"><ele>7.6</ele><time>2021-01-12T13:16:10Z</time><name>PT1276</name></trkpt>
<trkpt lat="52.069541" lon="05.827646"><ele>7.6</ele><time>2021-01-12T13:16:11Z</time><name>PT1277</name></trkpt>
<trkpt lat="52.069546" lon="05.827629"><ele>7.5</ele><time>2021-01-12T13:16:12Z</time><name>PT1278</name></trkpt>
<trkpt lat="52.069552" lon="05.827619"><ele>7.4</ele><time>2021-01-12T13:16:13Z</time><name>PT1279</name></trkpt>
<trkpt lat="52.069559" lon="05.827613"><ele>7.4</ele><time>2021-01-12T13:16:14Z</time><name>PT1280</name></trkpt>
<trkpt lat="52.069563" lon="05.827605"><ele>7.4</ele><time>2021-01-12T13:16:15Z</time><name>PT1281</name></trkpt>
<trkpt lat="52.069566" lon="05.827595"><ele>7.4</ele><time>2021-01-12T13:16:16Z</time><name>PT1282</name></trkpt>
<trkpt lat="52.069567" lon="05.827590"><ele>7.4</ele><time>2021-01-12T13:16:17Z</time><name>PT1283</name></trkpt>
<trkpt lat="52.069567" lon="05.827590"><ele>7.4</ele><time>2021-01-12T13:16:18Z</time><name>PT1284</name></trkpt>
<trkpt lat="52.069566" lon="05.827590"><ele>7.4</ele><time>2021-01-12T13:16:19Z</time><name>PT1285</name></trkpt>
<trkpt lat="52.069566" lon="05.827583"><ele>7.7</ele><time>2021-01-12T13:16:30Z</time><name>PT1286</name></trkpt>
<trkpt lat="52.069567" lon="05.827576"><ele>7.7</ele><time>2021-01-12T13:16:31Z</time><name>PT1287</name></trkpt>
<trkpt lat="52.069568" lon="05.827570"><ele>7.7</ele><time>2021-01-12T13:16:32Z</time><name>PT1288</name></trkpt>
<trkpt lat="52.069568" lon="05.827566"><ele>7.7</ele><time>2021-01-12T13:16:33Z</time><name>PT1289</name></trkpt>
<trkpt lat="52.069568" lon="05.827563"><ele>7.8</ele><time>2021-01-12T13:16:34Z</time><name>PT1290</name></trkpt>
<trkpt lat="52.069565" lon="05.827553"><ele>7.3</ele><time>2021-01-12T13:17:11Z</time><name>PT1291</name></trkpt>
<trkpt lat="52.069566" lon="05.827549"><ele>7.4</ele><time>2021-01-12T13:17:12Z</time><name>PT1292</name></trkpt>
<trkpt lat="52.069565" lon="05.827546"><ele>7.4</ele><time>2021-01-12T13:17:13Z</time><name>PT1293</name></trkpt>
<trkpt lat="52.069568" lon="05.827544"><ele>7.4</ele><time>2021-01-12T13:17:14Z</time><name>PT1294</name></trkpt>
<trkpt lat="52.069569" lon="05.827544"><ele>7.4</ele><time>2021-01-12T13:17:15Z</time><name>PT1295</name></trkpt>
<trkpt lat="52.069570" lon="05.827541"><ele>7.4</ele><time>2021-01-12T13:17:18Z</time><name>PT1296</name></trkpt>
<trkpt lat="52.069572" lon="05.827529"><ele>7.3</ele><time>2021-01-12T13:17:19Z</time><name>PT1297</name></trkpt>
<trkpt lat="52.069572" lon="05.827519"><ele>7.4</ele><time>2021-01-12T13:17:20Z</time><name>PT1298</name></trkpt>
<trkpt lat="52.069572" lon="05.827504"><ele>7.5</ele><time>2021-01-12T13:17:21Z</time><name>PT1299</name></trkpt>
<trkpt lat="52.069576" lon="05.827486"><ele>7.7</ele><time>2021-01-12T13:17:22Z</time><name>PT1300</name></trkpt>
<trkpt lat="52.069579" lon="05.827468"><ele>7.8</ele><time>2021-01-12T13:17:23Z</time><name>PT1301</name></trkpt>
<trkpt lat="52.069580" lon="05.827445"><ele>7.9</ele><time>2021-01-12T13:17:24Z</time><name>PT1302</name></trkpt>
<trkpt lat="52.069579" lon="05.827425"><ele>7.9</ele><time>2021-01-12T13:17:25Z</time><name>PT1303</name></trkpt>
<trkpt lat="52.069580" lon="05.827404"><ele>7.8</ele><time>2021-01-12T13:17:26Z</time><name>PT1304</name></trkpt>
<trkpt lat="52.069579" lon="05.827387"><ele>7.6</ele><time>2021-01-12T13:17:27Z</time><name>PT1305</name></trkpt>
<trkpt lat="52.069579" lon="05.827370"><ele>7.5</ele><time>2021-01-12T13:17:28Z</time><name>PT1306</name></trkpt>
<trkpt lat="52.069581" lon="05.827350"><ele>7.7</ele><time>2021-01-12T13:17:29Z</time><name>PT1307</name></trkpt>
<trkpt lat="52.069583" lon="05.827331"><ele>7.6</ele><time>2021-01-12T13:17:30Z</time><name>PT1308</name></trkpt>
<trkpt lat="52.069582" lon="05.827314"><ele>7.4</ele><time>2021-01-12T13:17:31Z</time><name>PT1309</name></trkpt>
<trkpt lat="52.069582" lon="05.827295"><ele>7.5</ele><time>2021-01-12T13:17:32Z</time><name>PT1310</name></trkpt>
<trkpt lat="52.069581" lon="05.827279"><ele>7.7</ele><time>2021-01-12T13:17:33Z</time><name>PT1311</name></trkpt>
<trkpt lat="52.069579" lon="05.827263"><ele>7.7</ele><time>2021-01-12T13:17:34Z</time><name>PT1312</name></trkpt>
<trkpt lat="52.069580" lon="05.827250"><ele>7.8</ele><time>2021-01-12T13:17:35Z</time><name>PT1313</name></trkpt>
<trkpt lat="52.069581" lon="05.827231"><ele>7.9</ele><time>2021-01-12T13:17:36Z</time><name>PT1314</name></trkpt>
<trkpt lat="52.069582" lon="05.827214"><ele>7.9</ele><time>2021-01-12T13:17:37Z</time><name>PT1315</name></trkpt>
<trkpt lat="52.069582" lon="05.827199"><ele>7.8</ele><time>2021-01-12T13:17:38Z</time><name>PT1316</name></trkpt>
<trkpt lat="52.069582" lon="05.827191"><ele>7.9</ele><time>2021-01-12T13:17:39Z</time><name>PT1317</name></trkpt>
<trkpt lat="52.069582" lon="05.827186"><ele>7.9</ele><time>2021-01-12T13:17:40Z</time><name>PT1318</name></trkpt>
<trkpt lat="52.069585" lon="05.827183"><ele>7.9</ele><time>2021-01-12T13:17:41Z</time><name>PT1319</name></trkpt>
<trkpt lat="52.069586" lon="05.827181"><ele>7.9</ele><time>2021-01-12T13:17:42Z</time><name>PT1320</name></trkpt>
<trkpt lat="52.069588" lon="05.827182"><ele>7.9</ele><time>2021-01-12T13:17:43Z</time><name>PT1321</name></trkpt>
<trkpt lat="52.069589" lon="05.827183"><ele>7.9</ele><time>2021-01-12T13:17:44Z</time><name>PT1322</name></trkpt>
<trkpt lat="52.069588" lon="05.827182"><ele>7.9</ele><time>2021-01-12T13:17:45Z</time><name>PT1323</name></trkpt>
<trkpt lat="52.069589" lon="05.827183"><ele>7.4</ele><time>2021-01-12T13:17:52Z</time><name>PT1324</name></trkpt>
<trkpt lat="52.069590" lon="05.827181"><ele>7.4</ele><time>2021-01-12T13:17:53Z</time><name>PT1325</name></trkpt>
<trkpt lat="52.069590" lon="05.827172"><ele>7.9</ele><time>2021-01-12T13:17:56Z</time><name>PT1326</name></trkpt>
<trkpt lat="52.069587" lon="05.827152"><ele>7.6</ele><time>2021-01-12T13:17:57Z</time><name>PT1327</name></trkpt>
<trkpt lat="52.069587" lon="05.827130"><ele>7.6</ele><time>2021-01-12T13:17:58Z</time><name>PT1328</name></trkpt>
<trkpt lat="52.069587" lon="05.827111"><ele>7.6</ele><time>2021-01-12T13:17:59Z</time><name>PT1329</name></trkpt>
<trkpt lat="52.069586" lon="05.827090"><ele>7.5</ele><time>2021-01-12T13:18:00Z</time><name>PT1330</name></trkpt>
<trkpt lat="52.069585" lon="05.827071"><ele>7.4</ele><time>2021-01-12T13:18:01Z</time><name>PT1331</name></trkpt>
<trkpt lat="52.069580" lon="05.827046"><ele>7.5</ele><time>2021-01-12T13:18:02Z</time><name>PT1332</name></trkpt>
<trkpt lat="52.069576" lon="05.827032"><ele>7.4</ele><time>2021-01-12T13:18:03Z</time><name>PT1333</name></trkpt>
<trkpt lat="52.069572" lon="05.827015"><ele>7.3</ele><time>2021-01-12T13:18:04Z</time><name>PT1334</name></trkpt>
<trkpt lat="52.069571" lon="05.827001"><ele>7.3</ele><time>2021-01-12T13:18:05Z</time><name>PT1335</name></trkpt>
<trkpt lat="52.069570" lon="05.826986"><ele>7.3</ele><time>2021-01-12T13:18:06Z</time><name>PT1336</name></trkpt>
<trkpt lat="52.069569" lon="05.826970"><ele>7.3</ele><time>2021-01-12T13:18:07Z</time><name>PT1337</name></trkpt>
<trkpt lat="52.069568" lon="05.826954"><ele>7.3</ele><time>2021-01-12T13:18:08Z</time><name>PT1338</name></trkpt>
<trkpt lat="52.069565" lon="05.826935"><ele>7.4</ele><time>2021-01-12T13:18:09Z</time><name>PT1339</name></trkpt>
<trkpt lat="52.069564" lon="05.826921"><ele>7.3</ele><time>2021-01-12T13:18:10Z</time><name>PT1340</name></trkpt>
<trkpt lat="52.069565" lon="05.826910"><ele>7.3</ele><time>2021-01-12T13:18:11Z</time><name>PT1341</name></trkpt>
<trkpt lat="52.069566" lon="05.826897"><ele>7.3</ele><time>2021-01-12T13:18:12Z</time><name>PT1342</name></trkpt>
<trkpt lat="52.069565" lon="05.826881"><ele>7.1</ele><time>2021-01-12T13:18:13Z</time><name>PT1343</name></trkpt>
<trkpt lat="52.069564" lon="05.826866"><ele>7</ele><time>2021-01-12T13:18:14Z</time><name>PT1344</name></trkpt>
<trkpt lat="52.069562" lon="05.826852"><ele>7.2</ele><time>2021-01-12T13:18:15Z</time><name>PT1345</name></trkpt>
<trkpt lat="52.069561" lon="05.826835"><ele>6.9</ele><time>2021-01-12T13:18:16Z</time><name>PT1346</name></trkpt>
<trkpt lat="52.069561" lon="05.826819"><ele>6.9</ele><time>2021-01-12T13:18:17Z</time><name>PT1347</name></trkpt>
<trkpt lat="52.069560" lon="05.826801"><ele>6.8</ele><time>2021-01-12T13:18:18Z</time><name>PT1348</name></trkpt>
<trkpt lat="52.069559" lon="05.826788"><ele>6.9</ele><time>2021-01-12T13:18:19Z</time><name>PT1349</name></trkpt>
<trkpt lat="52.069558" lon="05.826772"><ele>6.7</ele><time>2021-01-12T13:18:20Z</time><name>PT1350</name></trkpt>
<trkpt lat="52.069557" lon="05.826753"><ele>6.8</ele><time>2021-01-12T13:18:21Z</time><name>PT1351</name></trkpt>
<trkpt lat="52.069557" lon="05.826733"><ele>6.8</ele><time>2021-01-12T13:18:22Z</time><name>PT1352</name></trkpt>
<trkpt lat="52.069554" lon="05.826716"><ele>6.8</ele><time>2021-01-12T13:18:23Z</time><name>PT1353</name></trkpt>
<trkpt lat="52.069552" lon="05.826702"><ele>6.6</ele><time>2021-01-12T13:18:24Z</time><name>PT1354</name></trkpt>
<trkpt lat="52.069551" lon="05.826683"><ele>6.6</ele><time>2021-01-12T13:18:25Z</time><name>PT1355</name></trkpt>
<trkpt lat="52.069553" lon="05.826666"><ele>6.6</ele><time>2021-01-12T13:18:26Z</time><name>PT1356</name></trkpt>
<trkpt lat="52.069554" lon="05.826645"><ele>6.7</ele><time>2021-01-12T13:18:27Z</time><name>PT1357</name></trkpt>
<trkpt lat="52.069553" lon="05.826623"><ele>6.5</ele><time>2021-01-12T13:18:28Z</time><name>PT1358</name></trkpt>
<trkpt lat="52.069554" lon="05.826602"><ele>6.5</ele><time>2021-01-12T13:18:29Z</time><name>PT1359</name></trkpt>
<trkpt lat="52.069554" lon="05.826584"><ele>6.4</ele><time>2021-01-12T13:18:30Z</time><name>PT1360</name></trkpt>
<trkpt lat="52.069555" lon="05.826566"><ele>6.5</ele><time>2021-01-12T13:18:31Z</time><name>PT1361</name></trkpt>
<trkpt lat="52.069556" lon="05.826546"><ele>6.6</ele><time>2021-01-12T13:18:32Z</time><name>PT1362</name></trkpt>
<trkpt lat="52.069558" lon="05.826527"><ele>6.9</ele><time>2021-01-12T13:18:33Z</time><name>PT1363</name></trkpt>
<trkpt lat="52.069557" lon="05.826510"><ele>7.1</ele><time>2021-01-12T13:18:34Z</time><name>PT1364</name></trkpt>
<trkpt lat="52.069561" lon="05.826492"><ele>7.4</ele><time>2021-01-12T13:18:35Z</time><name>PT1365</name></trkpt>
<trkpt lat="52.069565" lon="05.826474"><ele>7.4</ele><time>2021-01-12T13:18:36Z</time><name>PT1366</name></trkpt>
<trkpt lat="52.069569" lon="05.826456"><ele>7.4</ele><time>2021-01-12T13:18:37Z</time><name>PT1367</name></trkpt>
<trkpt lat="52.069570" lon="05.826438"><ele>7.3</ele><time>2021-01-12T13:18:38Z</time><name>PT1368</name></trkpt>
<trkpt lat="52.069570" lon="05.826421"><ele>7.3</ele><time>2021-01-12T13:18:39Z</time><name>PT1369</name></trkpt>
<trkpt lat="52.069571" lon="05.826400"><ele>7.2</ele><time>2021-01-12T13:18:40Z</time><name>PT1370</name></trkpt>
<trkpt lat="52.069568" lon="05.826380"><ele>7.5</ele><time>2021-01-12T13:18:41Z</time><name>PT1371</name></trkpt>
<trkpt lat="52.069567" lon="05.826360"><ele>7.6</ele><time>2021-01-12T13:18:42Z</time><name>PT1372</name></trkpt>
<trkpt lat="52.069567" lon="05.826340"><ele>7.6</ele><time>2021-01-12T13:18:43Z</time><name>PT1373</name></trkpt>
<trkpt lat="52.069567" lon="05.826319"><ele>7.6</ele><time>2021-01-12T13:18:44Z</time><name>PT1374</name></trkpt>
<trkpt lat="52.069570" lon="05.826295"><ele>7.5</ele><time>2021-01-12T13:18:45Z</time><name>PT1375</name></trkpt>
<trkpt lat="52.069574" lon="05.826281"><ele>7.4</ele><time>2021-01-12T13:18:46Z</time><name>PT1376</name></trkpt>
<trkpt lat="52.069577" lon="05.826267"><ele>7.3</ele><time>2021-01-12T13:18:47Z</time><name>PT1377</name></trkpt>
<trkpt lat="52.069581" lon="05.826243"><ele>7</ele><time>2021-01-12T13:18:48Z</time><name>PT1378</name></trkpt>
<trkpt lat="52.069583" lon="05.826226"><ele>6.9</ele><time>2021-01-12T13:18:49Z</time><name>PT1379</name></trkpt>
<trkpt lat="52.069584" lon="05.826214"><ele>6.8</ele><time>2021-01-12T13:18:50Z</time><name>PT1380</name></trkpt>
<trkpt lat="52.069583" lon="05.826196"><ele>6.9</ele><time>2021-01-12T13:18:51Z</time><name>PT1381</name></trkpt>
<trkpt lat="52.069584" lon="05.826175"><ele>6.9</ele><time>2021-01-12T13:18:52Z</time><name>PT1382</name></trkpt>
<trkpt lat="52.069584" lon="05.826156"><ele>7</ele><time>2021-01-12T13:18:53Z</time><name>PT1383</name></trkpt>
<trkpt lat="52.069585" lon="05.826135"><ele>7.2</ele><time>2021-01-12T13:18:54Z</time><name>PT1384</name></trkpt>
<trkpt lat="52.069586" lon="05.826118"><ele>7.3</ele><time>2021-01-12T13:18:55Z</time><name>PT1385</name></trkpt>
<trkpt lat="52.069589" lon="05.826106"><ele>7.4</ele><time>2021-01-12T13:18:56Z</time><name>PT1386</name></trkpt>
<trkpt lat="52.069592" lon="05.826088"><ele>7.4</ele><time>2021-01-12T13:18:57Z</time><name>PT1387</name></trkpt>
<trkpt lat="52.069594" lon="05.826067"><ele>7.5</ele><time>2021-01-12T13:18:58Z</time><name>PT1388</name></trkpt>
<trkpt lat="52.069595" lon="05.826046"><ele>7.4</ele><time>2021-01-12T13:18:59Z</time><name>PT1389</name></trkpt>
<trkpt lat="52.069595" lon="05.826028"><ele>7.4</ele><time>2021-01-12T13:19:00Z</time><name>PT1390</name></trkpt>
<trkpt lat="52.069595" lon="05.826011"><ele>7.4</ele><time>2021-01-12T13:19:01Z</time><name>PT1391</name></trkpt>
<trkpt lat="52.069598" lon="05.825992"><ele>7.3</ele><time>2021-01-12T13:19:02Z</time><name>PT1392</name></trkpt>
<trkpt lat="52.069599" lon="05.825973"><ele>7.2</ele><time>2021-01-12T13:19:03Z</time><name>PT1393</name></trkpt>
<trkpt lat="52.069601" lon="05.825954"><ele>7.1</ele><time>2021-01-12T13:19:04Z</time><name>PT1394</name></trkpt>
<trkpt lat="52.069600" lon="05.825940"><ele>7</ele><time>2021-01-12T13:19:05Z</time><name>PT1395</name></trkpt>
<trkpt lat="52.069601" lon="05.825923"><ele>7</ele><time>2021-01-12T13:19:06Z</time><name>PT1396</name></trkpt>
<trkpt lat="52.069600" lon="05.825905"><ele>7</ele><time>2021-01-12T13:19:07Z</time><name>PT1397</name></trkpt>
<trkpt lat="52.069601" lon="05.825890"><ele>6.9</ele><time>2021-01-12T13:19:08Z</time><name>PT1398</name></trkpt>
<trkpt lat="52.069605" lon="05.825876"><ele>6.9</ele><time>2021-01-12T13:19:09Z</time><name>PT1399</name></trkpt>
<trkpt lat="52.069608" lon="05.825856"><ele>6.9</ele><time>2021-01-12T13:19:10Z</time><name>PT1400</name></trkpt>
<trkpt lat="52.069610" lon="05.825832"><ele>6.9</ele><time>2021-01-12T13:19:11Z</time><name>PT1401</name></trkpt>
<trkpt lat="52.069611" lon="05.825808"><ele>7</ele><time>2021-01-12T13:19:12Z</time><name>PT1402</name></trkpt>
<trkpt lat="52.069612" lon="05.825785"><ele>7.1</ele><time>2021-01-12T13:19:13Z</time><name>PT1403</name></trkpt>
<trkpt lat="52.069613" lon="05.825766"><ele>7.1</ele><time>2021-01-12T13:19:14Z</time><name>PT1404</name></trkpt>
<trkpt lat="52.069611" lon="05.825749"><ele>7.1</ele><time>2021-01-12T13:19:15Z</time><name>PT1405</name></trkpt>
<trkpt lat="52.069613" lon="05.825730"><ele>7</ele><time>2021-01-12T13:19:16Z</time><name>PT1406</name></trkpt>
<trkpt lat="52.069613" lon="05.825712"><ele>6.9</ele><time>2021-01-12T13:19:17Z</time><name>PT1407</name></trkpt>
<trkpt lat="52.069613" lon="05.825696"><ele>6.9</ele><time>2021-01-12T13:19:18Z</time><name>PT1408</name></trkpt>
<trkpt lat="52.069615" lon="05.825680"><ele>6.9</ele><time>2021-01-12T13:19:19Z</time><name>PT1409</name></trkpt>
<trkpt lat="52.069616" lon="05.825660"><ele>6.9</ele><time>2021-01-12T13:19:20Z</time><name>PT1410</name></trkpt>
<trkpt lat="52.069618" lon="05.825641"><ele>7.1</ele><time>2021-01-12T13:19:21Z</time><name>PT1411</name></trkpt>
<trkpt lat="52.069618" lon="05.825624"><ele>7</ele><time>2021-01-12T13:19:22Z</time><name>PT1412</name></trkpt>
<trkpt lat="52.069618" lon="05.825604"><ele>7.1</ele><time>2021-01-12T13:19:23Z</time><name>PT1413</name></trkpt>
<trkpt lat="52.069618" lon="05.825585"><ele>7.2</ele><time>2021-01-12T13:19:24Z</time><name>PT1414</name></trkpt>
<trkpt lat="52.069621" lon="05.825567"><ele>7.3</ele><time>2021-01-12T13:19:25Z</time><name>PT1415</name></trkpt>
<trkpt lat="52.069622" lon="05.825549"><ele>7.4</ele><time>2021-01-12T13:19:26Z</time><name>PT1416</name></trkpt>
<trkpt lat="52.069624" lon="05.825532"><ele>7.3</ele><time>2021-01-12T13:19:27Z</time><name>PT1417</name></trkpt>
<trkpt lat="52.069624" lon="05.825513"><ele>7.2</ele><time>2021-01-12T13:19:28Z</time><name>PT1418</name></trkpt>
<trkpt lat="52.069622" lon="05.825498"><ele>7.1</ele><time>2021-01-12T13:19:29Z</time><name>PT1419</name></trkpt>
<trkpt lat="52.069624" lon="05.825491"><ele>7.2</ele><time>2021-01-12T13:19:30Z</time><name>PT1420</name></trkpt>
<trkpt lat="52.069626" lon="05.825488"><ele>7.2</ele><time>2021-01-12T13:19:31Z</time><name>PT1421</name></trkpt>
<trkpt lat="52.069625" lon="05.825485"><ele>7.2</ele><time>2021-01-12T13:19:32Z</time><name>PT1422</name></trkpt>
<trkpt lat="52.069624" lon="05.825482"><ele>7.3</ele><time>2021-01-12T13:19:33Z</time><name>PT1423</name></trkpt>
<trkpt lat="52.069623" lon="05.825474"><ele>7.2</ele><time>2021-01-12T13:19:37Z</time><name>PT1424</name></trkpt>
<trkpt lat="52.069624" lon="05.825455"><ele>7.1</ele><time>2021-01-12T13:19:38Z</time><name>PT1425</name></trkpt>
<trkpt lat="52.069626" lon="05.825435"><ele>7.1</ele><time>2021-01-12T13:19:39Z</time><name>PT1426</name></trkpt>
<trkpt lat="52.069627" lon="05.825414"><ele>7.1</ele><time>2021-01-12T13:19:40Z</time><name>PT1427</name></trkpt>
<trkpt lat="52.069624" lon="05.825396"><ele>7.1</ele><time>2021-01-12T13:19:41Z</time><name>PT1428</name></trkpt>
<trkpt lat="52.069622" lon="05.825375"><ele>7.2</ele><time>2021-01-12T13:19:42Z</time><name>PT1429</name></trkpt>
<trkpt lat="52.069622" lon="05.825359"><ele>7.2</ele><time>2021-01-12T13:19:43Z</time><name>PT1430</name></trkpt>
<trkpt lat="52.069622" lon="05.825341"><ele>7.2</ele><time>2021-01-12T13:19:44Z</time><name>PT1431</name></trkpt>
<trkpt lat="52.069622" lon="05.825321"><ele>7.1</ele><time>2021-01-12T13:19:45Z</time><name>PT1432</name></trkpt>
<trkpt lat="52.069622" lon="05.825305"><ele>7.1</ele><time>2021-01-12T13:19:46Z</time><name>PT1433</name></trkpt>
<trkpt lat="52.069622" lon="05.825289"><ele>7.2</ele><time>2021-01-12T13:19:47Z</time><name>PT1434</name></trkpt>
<trkpt lat="52.069624" lon="05.825271"><ele>7</ele><time>2021-01-12T13:19:48Z</time><name>PT1435</name></trkpt>
<trkpt lat="52.069627" lon="05.825250"><ele>7.2</ele><time>2021-01-12T13:19:49Z</time><name>PT1436</name></trkpt>
<trkpt lat="52.069630" lon="05.825238"><ele>7.2</ele><time>2021-01-12T13:19:50Z</time><name>PT1437</name></trkpt>
<trkpt lat="52.069631" lon="05.825222"><ele>7.3</ele><time>2021-01-12T13:19:51Z</time><name>PT1438</name></trkpt>
<trkpt lat="52.069631" lon="05.825205"><ele>7.3</ele><time>2021-01-12T13:19:52Z</time><name>PT1439</name></trkpt>
<trkpt lat="52.069633" lon="05.825184"><ele>7.2</ele><time>2021-01-12T13:19:53Z</time><name>PT1440</name></trkpt>
<trkpt lat="52.069637" lon="05.825165"><ele>7.2</ele><time>2021-01-12T13:19:54Z</time><name>PT1441</name></trkpt>
<trkpt lat="52.069641" lon="05.825150"><ele>7.1</ele><time>2021-01-12T13:19:55Z</time><name>PT1442</name></trkpt>
<trkpt lat="52.069644" lon="05.825131"><ele>7.1</ele><time>2021-01-12T13:19:56Z</time><name>PT1443</name></trkpt>
<trkpt lat="52.069647" lon="05.825115"><ele>7.4</ele><time>2021-01-12T13:19:57Z</time><name>PT1444</name></trkpt>
<trkpt lat="52.069651" lon="05.825094"><ele>7.4</ele><time>2021-01-12T13:19:58Z</time><name>PT1445</name></trkpt>
<trkpt lat="52.069656" lon="05.825080"><ele>7.5</ele><time>2021-01-12T13:19:59Z</time><name>PT1446</name></trkpt>
<trkpt lat="52.069660" lon="05.825062"><ele>7.7</ele><time>2021-01-12T13:20:00Z</time><name>PT1447</name></trkpt>
<trkpt lat="52.069666" lon="05.825043"><ele>7.6</ele><time>2021-01-12T13:20:01Z</time><name>PT1448</name></trkpt>
<trkpt lat="52.069670" lon="05.825029"><ele>7.7</ele><time>2021-01-12T13:20:02Z</time><name>PT1449</name></trkpt>
<trkpt lat="52.069674" lon="05.825014"><ele>7.6</ele><time>2021-01-12T13:20:03Z</time><name>PT1450</name></trkpt>
<trkpt lat="52.069679" lon="05.824999"><ele>7.6</ele><time>2021-01-12T13:20:04Z</time><name>PT1451</name></trkpt>
<trkpt lat="52.069685" lon="05.824986"><ele>7.5</ele><time>2021-01-12T13:20:05Z</time><name>PT1452</name></trkpt>
<trkpt lat="52.069688" lon="05.824972"><ele>7.4</ele><time>2021-01-12T13:20:06Z</time><name>PT1453</name></trkpt>
<trkpt lat="52.069691" lon="05.824951"><ele>7.5</ele><time>2021-01-12T13:20:07Z</time><name>PT1454</name></trkpt>
<trkpt lat="52.069698" lon="05.824934"><ele>7.5</ele><time>2021-01-12T13:20:08Z</time><name>PT1455</name></trkpt>
<trkpt lat="52.069701" lon="05.824918"><ele>7.4</ele><time>2021-01-12T13:20:09Z</time><name>PT1456</name></trkpt>
<trkpt lat="52.069704" lon="05.824904"><ele>7.4</ele><time>2021-01-12T13:20:10Z</time><name>PT1457</name></trkpt>
<trkpt lat="52.069709" lon="05.824887"><ele>7.4</ele><time>2021-01-12T13:20:11Z</time><name>PT1458</name></trkpt>
<trkpt lat="52.069715" lon="05.824866"><ele>7.2</ele><time>2021-01-12T13:20:12Z</time><name>PT1459</name></trkpt>
<trkpt lat="52.069717" lon="05.824847"><ele>7</ele><time>2021-01-12T13:20:13Z</time><name>PT1460</name></trkpt>
<trkpt lat="52.069721" lon="05.824831"><ele>7</ele><time>2021-01-12T13:20:14Z</time><name>PT1461</name></trkpt>
<trkpt lat="52.069725" lon="05.824813"><ele>6.9</ele><time>2021-01-12T13:20:15Z</time><name>PT1462</name></trkpt>
<trkpt lat="52.069733" lon="05.824795"><ele>6.7</ele><time>2021-01-12T13:20:16Z</time><name>PT1463</name></trkpt>
<trkpt lat="52.069738" lon="05.824780"><ele>6.5</ele><time>2021-01-12T13:20:17Z</time><name>PT1464</name></trkpt>
<trkpt lat="52.069743" lon="05.824765"><ele>6.4</ele><time>2021-01-12T13:20:18Z</time><name>PT1465</name></trkpt>
<trkpt lat="52.069747" lon="05.824750"><ele>6.4</ele><time>2021-01-12T13:20:19Z</time><name>PT1466</name></trkpt>
<trkpt lat="52.069753" lon="05.824730"><ele>6.3</ele><time>2021-01-12T13:20:20Z</time><name>PT1467</name></trkpt>
<trkpt lat="52.069759" lon="05.824715"><ele>6.2</ele><time>2021-01-12T13:20:21Z</time><name>PT1468</name></trkpt>
<trkpt lat="52.069763" lon="05.824699"><ele>6.4</ele><time>2021-01-12T13:20:22Z</time><name>PT1469</name></trkpt>
<trkpt lat="52.069767" lon="05.824683"><ele>6.4</ele><time>2021-01-12T13:20:23Z</time><name>PT1470</name></trkpt>
<trkpt lat="52.069770" lon="05.824670"><ele>6.6</ele><time>2021-01-12T13:20:24Z</time><name>PT1471</name></trkpt>
<trkpt lat="52.069770" lon="05.824660"><ele>6.8</ele><time>2021-01-12T13:20:25Z</time><name>PT1472</name></trkpt>
<trkpt lat="52.069770" lon="05.824657"><ele>7</ele><time>2021-01-12T13:20:26Z</time><name>PT1473</name></trkpt>
<trkpt lat="52.069770" lon="05.824654"><ele>7.1</ele><time>2021-01-12T13:20:27Z</time><name>PT1474</name></trkpt>
<trkpt lat="52.069769" lon="05.824651"><ele>7.1</ele><time>2021-01-12T13:20:28Z</time><name>PT1475</name></trkpt>
<trkpt lat="52.069770" lon="05.824651"><ele>6.9</ele><time>2021-01-12T13:20:30Z</time><name>PT1476</name></trkpt>
<trkpt lat="52.069780" lon="05.824634"><ele>6.8</ele><time>2021-01-12T13:20:31Z</time><name>PT1477</name></trkpt>
<trkpt lat="52.069784" lon="05.824613"><ele>6.8</ele><time>2021-01-12T13:20:32Z</time><name>PT1478</name></trkpt>
<trkpt lat="52.069789" lon="05.824596"><ele>6.7</ele><time>2021-01-12T13:20:33Z</time><name>PT1479</name></trkpt>
<trkpt lat="52.069798" lon="05.824586"><ele>6.8</ele><time>2021-01-12T13:20:34Z</time><name>PT1480</name></trkpt>
<trkpt lat="52.069803" lon="05.824570"><ele>6.9</ele><time>2021-01-12T13:20:35Z</time><name>PT1481</name></trkpt>
<trkpt lat="52.069811" lon="05.824557"><ele>6.9</ele><time>2021-01-12T13:20:36Z</time><name>PT1482</name></trkpt>
<trkpt lat="52.069818" lon="05.824545"><ele>6.8</ele><time>2021-01-12T13:20:37Z</time><name>PT1483</name></trkpt>
<trkpt lat="52.069824" lon="05.824536"><ele>6.9</ele><time>2021-01-12T13:20:38Z</time><name>PT1484</name></trkpt>
<trkpt lat="52.069831" lon="05.824523"><ele>7</ele><time>2021-01-12T13:20:39Z</time><name>PT1485</name></trkpt>
<trkpt lat="52.069840" lon="05.824513"><ele>6.9</ele><time>2021-01-12T13:20:40Z</time><name>PT1486</name></trkpt>
<trkpt lat="52.069847" lon="05.824503"><ele>6.9</ele><time>2021-01-12T13:20:41Z</time><name>PT1487</name></trkpt>
<trkpt lat="52.069856" lon="05.824491"><ele>6.9</ele><time>2021-01-12T13:20:42Z</time><name>PT1488</name></trkpt>
<trkpt lat="52.069863" lon="05.824482"><ele>6.8</ele><time>2021-01-12T13:20:43Z</time><name>PT1489</name></trkpt>
<trkpt lat="52.069872" lon="05.824470"><ele>6.7</ele><time>2021-01-12T13:20:44Z</time><name>PT1490</name></trkpt>
<trkpt lat="52.069877" lon="05.824460"><ele>6.8</ele><time>2021-01-12T13:20:45Z</time><name>PT1491</name></trkpt>
<trkpt lat="52.069884" lon="05.824453"><ele>6.9</ele><time>2021-01-12T13:20:46Z</time><name>PT1492</name></trkpt>
<trkpt lat="52.069891" lon="05.824448"><ele>6.9</ele><time>2021-01-12T13:20:47Z</time><name>PT1493</name></trkpt>
<trkpt lat="52.069900" lon="05.824444"><ele>6.9</ele><time>2021-01-12T13:20:48Z</time><name>PT1494</name></trkpt>
<trkpt lat="52.069909" lon="05.824441"><ele>6.9</ele><time>2021-01-12T13:20:49Z</time><name>PT1495</name></trkpt>
<trkpt lat="52.069916" lon="05.824436"><ele>6.9</ele><time>2021-01-12T13:20:50Z</time><name>PT1496</name></trkpt>
<trkpt lat="52.069926" lon="05.824433"><ele>6.9</ele><time>2021-01-12T13:20:51Z</time><name>PT1497</name></trkpt>
<trkpt lat="52.069935" lon="05.824428"><ele>6.7</ele><time>2021-01-12T13:20:52Z</time><name>PT1498</name></trkpt>
<trkpt lat="52.069941" lon="05.824424"><ele>6.6</ele><time>2021-01-12T13:20:53Z</time><name>PT1499</name></trkpt>
<trkpt lat="52.069948" lon="05.824421"><ele>6.7</ele><time>2021-01-12T13:20:54Z</time><name>PT1500</name></trkpt>
<trkpt lat="52.069957" lon="05.824416"><ele>6.6</ele><time>2021-01-12T13:20:55Z</time><name>PT1501</name></trkpt>
<trkpt lat="52.069963" lon="05.824411"><ele>6.6</ele><time>2021-01-12T13:20:56Z</time><name>PT1502</name></trkpt>
<trkpt lat="52.069965" lon="05.824407"><ele>6.8</ele><time>2021-01-12T13:20:57Z</time><name>PT1503</name></trkpt>
<trkpt lat="52.069968" lon="05.824408"><ele>7</ele><time>2021-01-12T13:20:58Z</time><name>PT1504</name></trkpt>
<trkpt lat="52.069969" lon="05.824408"><ele>7</ele><time>2021-01-12T13:20:59Z</time><name>PT1505</name></trkpt>
<trkpt lat="52.069973" lon="05.824407"><ele>6.7</ele><time>2021-01-12T13:21:03Z</time><name>PT1506</name></trkpt>
<trkpt lat="52.069989" lon="05.824396"><ele>6.7</ele><time>2021-01-12T13:21:04Z</time><name>PT1507</name></trkpt>
<trkpt lat="52.069999" lon="05.824392"><ele>6.4</ele><time>2021-01-12T13:21:05Z</time><name>PT1508</name></trkpt>
<trkpt lat="52.070013" lon="05.824386"><ele>6.3</ele><time>2021-01-12T13:21:06Z</time><name>PT1509</name></trkpt>
<trkpt lat="52.070022" lon="05.824380"><ele>6.2</ele><time>2021-01-12T13:21:07Z</time><name>PT1510</name></trkpt>
<trkpt lat="52.070032" lon="05.824375"><ele>6.3</ele><time>2021-01-12T13:21:08Z</time><name>PT1511</name></trkpt>
<trkpt lat="52.070044" lon="05.824372"><ele>6.2</ele><time>2021-01-12T13:21:09Z</time><name>PT1512</name></trkpt>
<trkpt lat="52.070055" lon="05.824369"><ele>6</ele><time>2021-01-12T13:21:10Z</time><name>PT1513</name></trkpt>
<trkpt lat="52.070065" lon="05.824363"><ele>5.9</ele><time>2021-01-12T13:21:11Z</time><name>PT1514</name></trkpt>
<trkpt lat="52.070074" lon="05.824356"><ele>6</ele><time>2021-01-12T13:21:12Z</time><name>PT1515</name></trkpt>
<trkpt lat="52.070083" lon="05.824345"><ele>6</ele><time>2021-01-12T13:21:13Z</time><name>PT1516</name></trkpt>
<trkpt lat="52.070092" lon="05.824338"><ele>6.4</ele><time>2021-01-12T13:21:14Z</time><name>PT1517</name></trkpt>
<trkpt lat="52.070101" lon="05.824334"><ele>6.8</ele><time>2021-01-12T13:21:15Z</time><name>PT1518</name></trkpt>
<trkpt lat="52.070113" lon="05.824329"><ele>6.8</ele><time>2021-01-12T13:21:16Z</time><name>PT1519</name></trkpt>
<trkpt lat="52.070126" lon="05.824320"><ele>6.6</ele><time>2021-01-12T13:21:17Z</time><name>PT1520</name></trkpt>
<trkpt lat="52.070136" lon="05.824316"><ele>6.5</ele><time>2021-01-12T13:21:18Z</time><name>PT1521</name></trkpt>
<trkpt lat="52.070146" lon="05.824312"><ele>6.4</ele><time>2021-01-12T13:21:19Z</time><name>PT1522</name></trkpt>
<trkpt lat="52.070156" lon="05.824304"><ele>6.4</ele><time>2021-01-12T13:21:20Z</time><name>PT1523</name></trkpt>
<trkpt lat="52.070166" lon="05.824293"><ele>6.3</ele><time>2021-01-12T13:21:21Z</time><name>PT1524</name></trkpt>
<trkpt lat="52.070177" lon="05.824280"><ele>6.3</ele><time>2021-01-12T13:21:22Z</time><name>PT1525</name></trkpt>
<trkpt lat="52.070187" lon="05.824270"><ele>6.4</ele><time>2021-01-12T13:21:23Z</time><name>PT1526</name></trkpt>
<trkpt lat="52.070198" lon="05.824264"><ele>6.5</ele><time>2021-01-12T13:21:24Z</time><name>PT1527</name></trkpt>
<trkpt lat="52.070208" lon="05.824256"><ele>6.5</ele><time>2021-01-12T13:21:25Z</time><name>PT1528</name></trkpt>
<trkpt lat="52.070219" lon="05.824246"><ele>6.6</ele><time>2021-01-12T13:21:26Z</time><name>PT1529</name></trkpt>
<trkpt lat="52.070232" lon="05.824238"><ele>6.5</ele><time>2021-01-12T13:21:27Z</time><name>PT1530</name></trkpt>
<trkpt lat="52.070242" lon="05.824230"><ele>6.4</ele><time>2021-01-12T13:21:28Z</time><name>PT1531</name></trkpt>
<trkpt lat="52.070253" lon="05.824218"><ele>6.4</ele><time>2021-01-12T13:21:29Z</time><name>PT1532</name></trkpt>
<trkpt lat="52.070261" lon="05.824207"><ele>6.4</ele><time>2021-01-12T13:21:30Z</time><name>PT1533</name></trkpt>
<trkpt lat="52.070270" lon="05.824194"><ele>6.3</ele><time>2021-01-12T13:21:31Z</time><name>PT1534</name></trkpt>
<trkpt lat="52.070278" lon="05.824178"><ele>6.1</ele><time>2021-01-12T13:21:32Z</time><name>PT1535</name></trkpt>
<trkpt lat="52.070288" lon="05.824165"><ele>6.2</ele><time>2021-01-12T13:21:33Z</time><name>PT1536</name></trkpt>
<trkpt lat="52.070295" lon="05.824150"><ele>6.4</ele><time>2021-01-12T13:21:34Z</time><name>PT1537</name></trkpt>
<trkpt lat="52.070300" lon="05.824135"><ele>6.4</ele><time>2021-01-12T13:21:35Z</time><name>PT1538</name></trkpt>
<trkpt lat="52.070307" lon="05.824120"><ele>6.8</ele><time>2021-01-12T13:21:36Z</time><name>PT1539</name></trkpt>
<trkpt lat="52.070314" lon="05.824104"><ele>6.9</ele><time>2021-01-12T13:21:37Z</time><name>PT1540</name></trkpt>
<trkpt lat="52.070322" lon="05.824091"><ele>7</ele><time>2021-01-12T13:21:38Z</time><name>PT1541</name></trkpt>
<trkpt lat="52.070330" lon="05.824081"><ele>7</ele><time>2021-01-12T13:21:39Z</time><name>PT1542</name></trkpt>
<trkpt lat="52.070334" lon="05.824070"><ele>7</ele><time>2021-01-12T13:21:40Z</time><name>PT1543</name></trkpt>
<trkpt lat="52.070338" lon="05.824053"><ele>6.9</ele><time>2021-01-12T13:21:41Z</time><name>PT1544</name></trkpt>
<trkpt lat="52.070339" lon="05.824035"><ele>6.9</ele><time>2021-01-12T13:21:42Z</time><name>PT1545</name></trkpt>
<trkpt lat="52.070345" lon="05.824016"><ele>6.8</ele><time>2021-01-12T13:21:43Z</time><name>PT1546</name></trkpt>
<trkpt lat="52.070350" lon="05.823998"><ele>6.6</ele><time>2021-01-12T13:21:44Z</time><name>PT1547</name></trkpt>
<trkpt lat="52.070354" lon="05.823984"><ele>6.7</ele><time>2021-01-12T13:21:45Z</time><name>PT1548</name></trkpt>
<trkpt lat="52.070357" lon="05.823967"><ele>6.6</ele><time>2021-01-12T13:21:46Z</time><name>PT1549</name></trkpt>
<trkpt lat="52.070362" lon="05.823952"><ele>6.5</ele><time>2021-01-12T13:21:47Z</time><name>PT1550</name></trkpt>
<trkpt lat="52.070366" lon="05.823936"><ele>6.5</ele><time>2021-01-12T13:21:48Z</time><name>PT1551</name></trkpt>
<trkpt lat="52.070371" lon="05.823917"><ele>6.4</ele><time>2021-01-12T13:21:49Z</time><name>PT1552</name></trkpt>
<trkpt lat="52.070377" lon="05.823900"><ele>6.3</ele><time>2021-01-12T13:21:50Z</time><name>PT1553</name></trkpt>
<trkpt lat="52.070380" lon="05.823882"><ele>6.4</ele><time>2021-01-12T13:21:51Z</time><name>PT1554</name></trkpt>
<trkpt lat="52.070384" lon="05.823865"><ele>6.6</ele><time>2021-01-12T13:21:52Z</time><name>PT1555</name></trkpt>
<trkpt lat="52.070386" lon="05.823855"><ele>6.7</ele><time>2021-01-12T13:21:53Z</time><name>PT1556</name></trkpt>
<trkpt lat="52.070386" lon="05.823856"><ele>6.7</ele><time>2021-01-12T13:21:54Z</time><name>PT1557</name></trkpt>
<trkpt lat="52.070388" lon="05.823846"><ele>6.9</ele><time>2021-01-12T13:21:55Z</time><name>PT1558</name></trkpt>
<trkpt lat="52.070387" lon="05.823830"><ele>6.9</ele><time>2021-01-12T13:21:56Z</time><name>PT1559</name></trkpt>
<trkpt lat="52.070389" lon="05.823814"><ele>6.8</ele><time>2021-01-12T13:21:57Z</time><name>PT1560</name></trkpt>
<trkpt lat="52.070390" lon="05.823798"><ele>6.6</ele><time>2021-01-12T13:21:58Z</time><name>PT1561</name></trkpt>
<trkpt lat="52.070394" lon="05.823786"><ele>6.7</ele><time>2021-01-12T13:21:59Z</time><name>PT1562</name></trkpt>
<trkpt lat="52.070397" lon="05.823768"><ele>6.4</ele><time>2021-01-12T13:22:00Z</time><name>PT1563</name></trkpt>
<trkpt lat="52.070401" lon="05.823751"><ele>6.4</ele><time>2021-01-12T13:22:01Z</time><name>PT1564</name></trkpt>
<trkpt lat="52.070405" lon="05.823730"><ele>6.3</ele><time>2021-01-12T13:22:02Z</time><name>PT1565</name></trkpt>
<trkpt lat="52.070407" lon="05.823711"><ele>6.4</ele><time>2021-01-12T13:22:03Z</time><name>PT1566</name></trkpt>
<trkpt lat="52.070407" lon="05.823692"><ele>6.2</ele><time>2021-01-12T13:22:04Z</time><name>PT1567</name></trkpt>
<trkpt lat="52.070405" lon="05.823674"><ele>6.3</ele><time>2021-01-12T13:22:05Z</time><name>PT1568</name></trkpt>
<trkpt lat="52.070404" lon="05.823654"><ele>6.3</ele><time>2021-01-12T13:22:06Z</time><name>PT1569</name></trkpt>
<trkpt lat="52.070404" lon="05.823636"><ele>6.4</ele><time>2021-01-12T13:22:07Z</time><name>PT1570</name></trkpt>
<trkpt lat="52.070407" lon="05.823622"><ele>6.4</ele><time>2021-01-12T13:22:08Z</time><name>PT1571</name></trkpt>
<trkpt lat="52.070410" lon="05.823607"><ele>6.3</ele><time>2021-01-12T13:22:09Z</time><name>PT1572</name></trkpt>
<trkpt lat="52.070414" lon="05.823590"><ele>6.3</ele><time>2021-01-12T13:22:10Z</time><name>PT1573</name></trkpt>
<trkpt lat="52.070416" lon="05.823571"><ele>6.4</ele><time>2021-01-12T13:22:11Z</time><name>PT1574</name></trkpt>
<trkpt lat="52.070418" lon="05.823552"><ele>6.4</ele><time>2021-01-12T13:22:12Z</time><name>PT1575</name></trkpt>
<trkpt lat="52.070420" lon="05.823533"><ele>6.4</ele><time>2021-01-12T13:22:13Z</time><name>PT1576</name></trkpt>
<trkpt lat="52.070419" lon="05.823514"><ele>6.6</ele><time>2021-01-12T13:22:14Z</time><name>PT1577</name></trkpt>
<trkpt lat="52.070418" lon="05.823497"><ele>6.5</ele><time>2021-01-12T13:22:15Z</time><name>PT1578</name></trkpt>
<trkpt lat="52.070418" lon="05.823476"><ele>6.5</ele><time>2021-01-12T13:22:16Z</time><name>PT1579</name></trkpt>
<trkpt lat="52.070417" lon="05.823457"><ele>6.5</ele><time>2021-01-12T13:22:17Z</time><name>PT1580</name></trkpt>
<trkpt lat="52.070417" lon="05.823437"><ele>6.6</ele><time>2021-01-12T13:22:18Z</time><name>PT1581</name></trkpt>
<trkpt lat="52.070418" lon="05.823416"><ele>6.5</ele><time>2021-01-12T13:22:19Z</time><name>PT1582</name></trkpt>
<trkpt lat="52.070420" lon="05.823396"><ele>6.5</ele><time>2021-01-12T13:22:20Z</time><name>PT1583</name></trkpt>
<trkpt lat="52.070421" lon="05.823379"><ele>6.4</ele><time>2021-01-12T13:22:21Z</time><name>PT1584</name></trkpt>
<trkpt lat="52.070425" lon="05.823363"><ele>6.4</ele><time>2021-01-12T13:22:22Z</time><name>PT1585</name></trkpt>
<trkpt lat="52.070428" lon="05.823346"><ele>6.4</ele><time>2021-01-12T13:22:23Z</time><name>PT1586</name></trkpt>
<trkpt lat="52.070432" lon="05.823330"><ele>6.4</ele><time>2021-01-12T13:22:24Z</time><name>PT1587</name></trkpt>
<trkpt lat="52.070436" lon="05.823313"><ele>6.4</ele><time>2021-01-12T13:22:25Z</time><name>PT1588</name></trkpt>
<trkpt lat="52.070440" lon="05.823296"><ele>6.5</ele><time>2021-01-12T13:22:26Z</time><name>PT1589</name></trkpt>
<trkpt lat="52.070440" lon="05.823280"><ele>6.7</ele><time>2021-01-12T13:22:27Z</time><name>PT1590</name></trkpt>
<trkpt lat="52.070440" lon="05.823262"><ele>6.6</ele><time>2021-01-12T13:22:28Z</time><name>PT1591</name></trkpt>
<trkpt lat="52.070440" lon="05.823244"><ele>6.6</ele><time>2021-01-12T13:22:29Z</time><name>PT1592</name></trkpt>
<trkpt lat="52.070439" lon="05.823226"><ele>6.5</ele><time>2021-01-12T13:22:30Z</time><name>PT1593</name></trkpt>
<trkpt lat="52.070437" lon="05.823207"><ele>6.7</ele><time>2021-01-12T13:22:31Z</time><name>PT1594</name></trkpt>
<trkpt lat="52.070437" lon="05.823190"><ele>6.6</ele><time>2021-01-12T13:22:32Z</time><name>PT1595</name></trkpt>
<trkpt lat="52.070437" lon="05.823173"><ele>6.4</ele><time>2021-01-12T13:22:33Z</time><name>PT1596</name></trkpt>
<trkpt lat="52.070438" lon="05.823155"><ele>6.4</ele><time>2021-01-12T13:22:34Z</time><name>PT1597</name></trkpt>
<trkpt lat="52.070438" lon="05.823133"><ele>6.4</ele><time>2021-01-12T13:22:35Z</time><name>PT1598</name></trkpt>
<trkpt lat="52.070439" lon="05.823115"><ele>6.3</ele><time>2021-01-12T13:22:36Z</time><name>PT1599</name></trkpt>
<trkpt lat="52.070438" lon="05.823096"><ele>6.3</ele><time>2021-01-12T13:22:37Z</time><name>PT1600</name></trkpt>
<trkpt lat="52.070436" lon="05.823077"><ele>6.2</ele><time>2021-01-12T13:22:38Z</time><name>PT1601</name></trkpt>
<trkpt lat="52.070434" lon="05.823058"><ele>6.4</ele><time>2021-01-12T13:22:39Z</time><name>PT1602</name></trkpt>
<trkpt lat="52.070430" lon="05.823039"><ele>6.4</ele><time>2021-01-12T13:22:40Z</time><name>PT1603</name></trkpt>
<trkpt lat="52.070427" lon="05.823020"><ele>6.5</ele><time>2021-01-12T13:22:41Z</time><name>PT1604</name></trkpt>
<trkpt lat="52.070424" lon="05.822999"><ele>6.6</ele><time>2021-01-12T13:22:42Z</time><name>PT1605</name></trkpt>
<trkpt lat="52.070420" lon="05.822980"><ele>6.9</ele><time>2021-01-12T13:22:43Z</time><name>PT1606</name></trkpt>
<trkpt lat="52.070418" lon="05.822961"><ele>6.9</ele><time>2021-01-12T13:22:44Z</time><name>PT1607</name></trkpt>
<trkpt lat="52.070416" lon="05.822945"><ele>6.8</ele><time>2021-01-12T13:22:45Z</time><name>PT1608</name></trkpt>
<trkpt lat="52.070414" lon="05.822928"><ele>6.9</ele><time>2021-01-12T13:22:46Z</time><name>PT1609</name></trkpt>
<trkpt lat="52.070412" lon="05.822909"><ele>7</ele><time>2021-01-12T13:22:47Z</time><name>PT1610</name></trkpt>
<trkpt lat="52.070412" lon="05.822891"><ele>6.9</ele><time>2021-01-12T13:22:48Z</time><name>PT1611</name></trkpt>
<trkpt lat="52.070411" lon="05.822875"><ele>6.9</ele><time>2021-01-12T13:22:49Z</time><name>PT1612</name></trkpt>
<trkpt lat="52.070410" lon="05.822858"><ele>6.9</ele><time>2021-01-12T13:22:50Z</time><name>PT1613</name></trkpt>
<trkpt lat="52.070408" lon="05.822836"><ele>7</ele><time>2021-01-12T13:22:51Z</time><name>PT1614</name></trkpt>
<trkpt lat="52.070406" lon="05.822816"><ele>7</ele><time>2021-01-12T13:22:52Z</time><name>PT1615</name></trkpt>
<trkpt lat="52.070404" lon="05.822799"><ele>7</ele><time>2021-01-12T13:22:53Z</time><name>PT1616</name></trkpt>
<trkpt lat="52.070400" lon="05.822783"><ele>7.2</ele><time>2021-01-12T13:22:54Z</time><name>PT1617</name></trkpt>
<trkpt lat="52.070397" lon="05.822765"><ele>7.2</ele><time>2021-01-12T13:22:55Z</time><name>PT1618</name></trkpt>
<trkpt lat="52.070395" lon="05.822746"><ele>7</ele><time>2021-01-12T13:22:56Z</time><name>PT1619</name></trkpt>
<trkpt lat="52.070393" lon="05.822729"><ele>6.9</ele><time>2021-01-12T13:22:57Z</time><name>PT1620</name></trkpt>
<trkpt lat="52.070392" lon="05.822713"><ele>6.8</ele><time>2021-01-12T13:22:58Z</time><name>PT1621</name></trkpt>
<trkpt lat="52.070391" lon="05.822698"><ele>6.4</ele><time>2021-01-12T13:22:59Z</time><name>PT1622</name></trkpt>
<trkpt lat="52.070392" lon="05.822683"><ele>6.4</ele><time>2021-01-12T13:23:00Z</time><name>PT1623</name></trkpt>
<trkpt lat="52.070390" lon="05.822666"><ele>6.4</ele><time>2021-01-12T13:23:01Z</time><name>PT1624</name></trkpt>
<trkpt lat="52.070388" lon="05.822648"><ele>6.6</ele><time>2021-01-12T13:23:02Z</time><name>PT1625</name></trkpt>
<trkpt lat="52.070387" lon="05.822632"><ele>6.7</ele><time>2021-01-12T13:23:03Z</time><name>PT1626</name></trkpt>
<trkpt lat="52.070385" lon="05.822613"><ele>6.8</ele><time>2021-01-12T13:23:04Z</time><name>PT1627</name></trkpt>
<trkpt lat="52.070380" lon="05.822588"><ele>6.9</ele><time>2021-01-12T13:23:05Z</time><name>PT1628</name></trkpt>
<trkpt lat="52.070379" lon="05.822567"><ele>6.9</ele><time>2021-01-12T13:23:06Z</time><name>PT1629</name></trkpt>
<trkpt lat="52.070379" lon="05.822553"><ele>6.9</ele><time>2021-01-12T13:23:07Z</time><name>PT1630</name></trkpt>
<trkpt lat="52.070378" lon="05.822536"><ele>6.7</ele><time>2021-01-12T13:23:08Z</time><name>PT1631</name></trkpt>
<trkpt lat="52.070375" lon="05.822519"><ele>6.6</ele><time>2021-01-12T13:23:09Z</time><name>PT1632</name></trkpt>
<trkpt lat="52.070374" lon="05.822500"><ele>6.6</ele><time>2021-01-12T13:23:10Z</time><name>PT1633</name></trkpt>
<trkpt lat="52.070372" lon="05.822480"><ele>6.6</ele><time>2021-01-12T13:23:11Z</time><name>PT1634</name></trkpt>
<trkpt lat="52.070372" lon="05.822460"><ele>6.5</ele><time>2021-01-12T13:23:12Z</time><name>PT1635</name></trkpt>
<trkpt lat="52.070373" lon="05.822442"><ele>6.4</ele><time>2021-01-12T13:23:13Z</time><name>PT1636</name></trkpt>
<trkpt lat="52.070371" lon="05.822424"><ele>6.4</ele><time>2021-01-12T13:23:14Z</time><name>PT1637</name></trkpt>
<trkpt lat="52.070369" lon="05.822403"><ele>6.4</ele><time>2021-01-12T13:23:15Z</time><name>PT1638</name></trkpt>
<trkpt lat="52.070370" lon="05.822383"><ele>6.3</ele><time>2021-01-12T13:23:16Z</time><name>PT1639</name></trkpt>
<trkpt lat="52.070368" lon="05.822367"><ele>6.3</ele><time>2021-01-12T13:23:17Z</time><name>PT1640</name></trkpt>
<trkpt lat="52.070365" lon="05.822350"><ele>6.2</ele><time>2021-01-12T13:23:18Z</time><name>PT1641</name></trkpt>
<trkpt lat="52.070366" lon="05.822333"><ele>6</ele><time>2021-01-12T13:23:19Z</time><name>PT1642</name></trkpt>
<trkpt lat="52.070367" lon="05.822313"><ele>6</ele><time>2021-01-12T13:23:20Z</time><name>PT1643</name></trkpt>
<trkpt lat="52.070368" lon="05.822294"><ele>5.9</ele><time>2021-01-12T13:23:21Z</time><name>PT1644</name></trkpt>
<trkpt lat="52.070369" lon="05.822278"><ele>6</ele><time>2021-01-12T13:23:22Z</time><name>PT1645</name></trkpt>
<trkpt lat="52.070371" lon="05.822263"><ele>5.9</ele><time>2021-01-12T13:23:23Z</time><name>PT1646</name></trkpt>
<trkpt lat="52.070371" lon="05.822244"><ele>6.2</ele><time>2021-01-12T13:23:24Z</time><name>PT1647</name></trkpt>
<trkpt lat="52.070370" lon="05.822226"><ele>6.2</ele><time>2021-01-12T13:23:25Z</time><name>PT1648</name></trkpt>
<trkpt lat="52.070373" lon="05.822209"><ele>6.2</ele><time>2021-01-12T13:23:26Z</time><name>PT1649</name></trkpt>
<trkpt lat="52.070372" lon="05.822194"><ele>6.2</ele><time>2021-01-12T13:23:27Z</time><name>PT1650</name></trkpt>
<trkpt lat="52.070369" lon="05.822175"><ele>6.4</ele><time>2021-01-12T13:23:28Z</time><name>PT1651</name></trkpt>
<trkpt lat="52.070365" lon="05.822160"><ele>6.5</ele><time>2021-01-12T13:23:29Z</time><name>PT1652</name></trkpt>
<trkpt lat="52.070362" lon="05.822142"><ele>6.5</ele><time>2021-01-12T13:23:30Z</time><name>PT1653</name></trkpt>
<trkpt lat="52.070358" lon="05.822120"><ele>6.6</ele><time>2021-01-12T13:23:31Z</time><name>PT1654</name></trkpt>
<trkpt lat="52.070356" lon="05.822098"><ele>6.9</ele><time>2021-01-12T13:23:32Z</time><name>PT1655</name></trkpt>
<trkpt lat="52.070353" lon="05.822079"><ele>6.4</ele><time>2021-01-12T13:23:33Z</time><name>PT1656</name></trkpt>
<trkpt lat="52.070349" lon="05.822060"><ele>6.4</ele><time>2021-01-12T13:23:34Z</time><name>PT1657</name></trkpt>
<trkpt lat="52.070345" lon="05.822042"><ele>6.4</ele><time>2021-01-12T13:23:35Z</time><name>PT1658</name></trkpt>
<trkpt lat="52.070340" lon="05.822019"><ele>6.2</ele><time>2021-01-12T13:23:36Z</time><name>PT1659</name></trkpt>
<trkpt lat="52.070337" lon="05.822006"><ele>6.1</ele><time>2021-01-12T13:23:37Z</time><name>PT1660</name></trkpt>
<trkpt lat="52.070334" lon="05.821990"><ele>6.3</ele><time>2021-01-12T13:23:38Z</time><name>PT1661</name></trkpt>
<trkpt lat="52.070332" lon="05.821974"><ele>6.2</ele><time>2021-01-12T13:23:39Z</time><name>PT1662</name></trkpt>
<trkpt lat="52.070330" lon="05.821960"><ele>6.1</ele><time>2021-01-12T13:23:40Z</time><name>PT1663</name></trkpt>
<trkpt lat="52.070326" lon="05.821945"><ele>6.1</ele><time>2021-01-12T13:23:41Z</time><name>PT1664</name></trkpt>
<trkpt lat="52.070321" lon="05.821926"><ele>6.1</ele><time>2021-01-12T13:23:42Z</time><name>PT1665</name></trkpt>
<trkpt lat="52.070316" lon="05.821912"><ele>6.3</ele><time>2021-01-12T13:23:43Z</time><name>PT1666</name></trkpt>
<trkpt lat="52.070313" lon="05.821898"><ele>6.3</ele><time>2021-01-12T13:23:44Z</time><name>PT1667</name></trkpt>
<trkpt lat="52.070308" lon="05.821881"><ele>6.2</ele><time>2021-01-12T13:23:45Z</time><name>PT1668</name></trkpt>
<trkpt lat="52.070304" lon="05.821865"><ele>6.3</ele><time>2021-01-12T13:23:46Z</time><name>PT1669</name></trkpt>
<trkpt lat="52.070299" lon="05.821855"><ele>6.1</ele><time>2021-01-12T13:23:47Z</time><name>PT1670</name></trkpt>
<trkpt lat="52.070301" lon="05.821838"><ele>5.9</ele><time>2021-01-12T13:23:48Z</time><name>PT1671</name></trkpt>
<trkpt lat="52.070297" lon="05.821818"><ele>5.8</ele><time>2021-01-12T13:23:49Z</time><name>PT1672</name></trkpt>
<trkpt lat="52.070297" lon="05.821799"><ele>5.7</ele><time>2021-01-12T13:23:50Z</time><name>PT1673</name></trkpt>
<trkpt lat="52.070299" lon="05.821785"><ele>5.5</ele><time>2021-01-12T13:23:51Z</time><name>PT1674</name></trkpt>
<trkpt lat="52.070299" lon="05.821769"><ele>5.7</ele><time>2021-01-12T13:23:52Z</time><name>PT1675</name></trkpt>
<trkpt lat="52.070297" lon="05.821751"><ele>5.7</ele><time>2021-01-12T13:23:53Z</time><name>PT1676</name></trkpt>
<trkpt lat="52.070293" lon="05.821737"><ele>5.9</ele><time>2021-01-12T13:23:54Z</time><name>PT1677</name></trkpt>
<trkpt lat="52.070290" lon="05.821721"><ele>6</ele><time>2021-01-12T13:23:55Z</time><name>PT1678</name></trkpt>
<trkpt lat="52.070287" lon="05.821705"><ele>6</ele><time>2021-01-12T13:23:56Z</time><name>PT1679</name></trkpt>
<trkpt lat="52.070285" lon="05.821687"><ele>5.9</ele><time>2021-01-12T13:23:57Z</time><name>PT1680</name></trkpt>
<trkpt lat="52.070285" lon="05.821669"><ele>5.9</ele><time>2021-01-12T13:23:58Z</time><name>PT1681</name></trkpt>
<trkpt lat="52.070285" lon="05.821656"><ele>5.8</ele><time>2021-01-12T13:23:59Z</time><name>PT1682</name></trkpt>
<trkpt lat="52.070285" lon="05.821638"><ele>5.6</ele><time>2021-01-12T13:24:00Z</time><name>PT1683</name></trkpt>
<trkpt lat="52.070285" lon="05.821617"><ele>5.6</ele><time>2021-01-12T13:24:01Z</time><name>PT1684</name></trkpt>
<trkpt lat="52.070286" lon="05.821597"><ele>5.4</ele><time>2021-01-12T13:24:02Z</time><name>PT1685</name></trkpt>
<trkpt lat="52.070289" lon="05.821583"><ele>5.3</ele><time>2021-01-12T13:24:03Z</time><name>PT1686</name></trkpt>
<trkpt lat="52.070289" lon="05.821561"><ele>5.3</ele><time>2021-01-12T13:24:04Z</time><name>PT1687</name></trkpt>
<trkpt lat="52.070286" lon="05.821538"><ele>5.2</ele><time>2021-01-12T13:24:05Z</time><name>PT1688</name></trkpt>
<trkpt lat="52.070285" lon="05.821519"><ele>5.1</ele><time>2021-01-12T13:24:06Z</time><name>PT1689</name></trkpt>
<trkpt lat="52.070285" lon="05.821500"><ele>5.1</ele><time>2021-01-12T13:24:07Z</time><name>PT1690</name></trkpt>
<trkpt lat="52.070285" lon="05.821483"><ele>5.1</ele><time>2021-01-12T13:24:08Z</time><name>PT1691</name></trkpt>
<trkpt lat="52.070285" lon="05.821462"><ele>4.7</ele><time>2021-01-12T13:24:09Z</time><name>PT1692</name></trkpt>
<trkpt lat="52.070284" lon="05.821445"><ele>4.8</ele><time>2021-01-12T13:24:10Z</time><name>PT1693</name></trkpt>
<trkpt lat="52.070284" lon="05.821425"><ele>4.4</ele><time>2021-01-12T13:24:11Z</time><name>PT1694</name></trkpt>
<trkpt lat="52.070282" lon="05.821407"><ele>4.5</ele><time>2021-01-12T13:24:12Z</time><name>PT1695</name></trkpt>
<trkpt lat="52.070276" lon="05.821387"><ele>4.7</ele><time>2021-01-12T13:24:13Z</time><name>PT1696</name></trkpt>
<trkpt lat="52.070269" lon="05.821376"><ele>5.1</ele><time>2021-01-12T13:24:14Z</time><name>PT1697</name></trkpt>
<trkpt lat="52.070268" lon="05.821372"><ele>5.4</ele><time>2021-01-12T13:24:15Z</time><name>PT1698</name></trkpt>
<trkpt lat="52.070268" lon="05.821369"><ele>5.6</ele><time>2021-01-12T13:24:16Z</time><name>PT1699</name></trkpt>
<trkpt lat="52.070268" lon="05.821363"><ele>5.7</ele><time>2021-01-12T13:24:17Z</time><name>PT1700</name></trkpt>
<trkpt lat="52.070269" lon="05.821347"><ele>5.5</ele><time>2021-01-12T13:24:18Z</time><name>PT1701</name></trkpt>
<trkpt lat="52.070267" lon="05.821325"><ele>5.4</ele><time>2021-01-12T13:24:19Z</time><name>PT1702</name></trkpt>
<trkpt lat="52.070266" lon="05.821307"><ele>5.4</ele><time>2021-01-12T13:24:20Z</time><name>PT1703</name></trkpt>
<trkpt lat="52.070268" lon="05.821293"><ele>5.4</ele><time>2021-01-12T13:24:21Z</time><name>PT1704</name></trkpt>
<trkpt lat="52.070269" lon="05.821279"><ele>5.4</ele><time>2021-01-12T13:24:22Z</time><name>PT1705</name></trkpt>
<trkpt lat="52.070266" lon="05.821267"><ele>5.5</ele><time>2021-01-12T13:24:23Z</time><name>PT1706</name></trkpt>
<trkpt lat="52.070264" lon="05.821255"><ele>5.5</ele><time>2021-01-12T13:24:24Z</time><name>PT1707</name></trkpt>
<trkpt lat="52.070264" lon="05.821250"><ele>5.4</ele><time>2021-01-12T13:24:25Z</time><name>PT1708</name></trkpt>
<trkpt lat="52.070264" lon="05.821245"><ele>5.7</ele><time>2021-01-12T13:24:26Z</time><name>PT1709</name></trkpt>
<trkpt lat="52.070269" lon="05.821237"><ele>6.3</ele><time>2021-01-12T13:24:31Z</time><name>PT1710</name></trkpt>
<trkpt lat="52.070268" lon="05.821235"><ele>6.4</ele><time>2021-01-12T13:24:32Z</time><name>PT1711</name></trkpt>
<trkpt lat="52.070267" lon="05.821233"><ele>6.2</ele><time>2021-01-12T13:24:33Z</time><name>PT1712</name></trkpt>
<trkpt lat="52.070264" lon="05.821233"><ele>6.1</ele><time>2021-01-12T13:24:34Z</time><name>PT1713</name></trkpt>
<trkpt lat="52.070259" lon="05.821228"><ele>5.7</ele><time>2021-01-12T13:25:35Z</time><name>PT1714</name></trkpt>
<trkpt lat="52.070256" lon="05.821225"><ele>5.6</ele><time>2021-01-12T13:25:36Z</time><name>PT1715</name></trkpt>
<trkpt lat="52.070256" lon="05.821219"><ele>5.6</ele><time>2021-01-12T13:25:37Z</time><name>PT1716</name></trkpt>
<trkpt lat="52.070255" lon="05.821213"><ele>5.8</ele><time>2021-01-12T13:26:03Z</time><name>PT1717</name></trkpt>
<trkpt lat="52.070261" lon="05.821208"><ele>5.6</ele><time>2021-01-12T13:26:04Z</time><name>PT1718</name></trkpt>
<trkpt lat="52.070267" lon="05.821200"><ele>5.4</ele><time>2021-01-12T13:26:05Z</time><name>PT1719</name></trkpt>
<trkpt lat="52.070268" lon="05.821194"><ele>5.6</ele><time>2021-01-12T13:26:06Z</time><name>PT1720</name></trkpt>
<trkpt lat="52.070267" lon="05.821182"><ele>5.5</ele><time>2021-01-12T13:26:07Z</time><name>PT1721</name></trkpt>
<trkpt lat="52.070267" lon="05.821170"><ele>5.9</ele><time>2021-01-12T13:26:08Z</time><name>PT1722</name></trkpt>
<trkpt lat="52.070268" lon="05.821159"><ele>5.9</ele><time>2021-01-12T13:26:09Z</time><name>PT1723</name></trkpt>
<trkpt lat="52.070270" lon="05.821149"><ele>5.7</ele><time>2021-01-12T13:26:10Z</time><name>PT1724</name></trkpt>
<trkpt lat="52.070270" lon="05.821138"><ele>5.8</ele><time>2021-01-12T13:26:11Z</time><name>PT1725</name></trkpt>
<trkpt lat="52.070269" lon="05.821127"><ele>5.9</ele><time>2021-01-12T13:26:12Z</time><name>PT1726</name></trkpt>
<trkpt lat="52.070272" lon="05.821112"><ele>5.9</ele><time>2021-01-12T13:26:13Z</time><name>PT1727</name></trkpt>
<trkpt lat="52.070276" lon="05.821095"><ele>6.3</ele><time>2021-01-12T13:26:14Z</time><name>PT1728</name></trkpt>
<trkpt lat="52.070277" lon="05.821079"><ele>6.5</ele><time>2021-01-12T13:26:15Z</time><name>PT1729</name></trkpt>
<trkpt lat="52.070278" lon="05.821065"><ele>6.7</ele><time>2021-01-12T13:26:16Z</time><name>PT1730</name></trkpt>
<trkpt lat="52.070283" lon="05.821047"><ele>6.9</ele><time>2021-01-12T13:26:17Z</time><name>PT1731</name></trkpt>
<trkpt lat="52.070285" lon="05.821030"><ele>7.1</ele><time>2021-01-12T13:26:18Z</time><name>PT1732</name></trkpt>
<trkpt lat="52.070287" lon="05.821016"><ele>7.2</ele><time>2021-01-12T13:26:19Z</time><name>PT1733</name></trkpt>
<trkpt lat="52.070288" lon="05.821006"><ele>7.3</ele><time>2021-01-12T13:26:20Z</time><name>PT1734</name></trkpt>
<trkpt lat="52.070292" lon="05.820992"><ele>7.3</ele><time>2021-01-12T13:26:21Z</time><name>PT1735</name></trkpt>
<trkpt lat="52.070298" lon="05.820980"><ele>7.4</ele><time>2021-01-12T13:26:22Z</time><name>PT1736</name></trkpt>
<trkpt lat="52.070302" lon="05.820967"><ele>7.4</ele><time>2021-01-12T13:26:23Z</time><name>PT1737</name></trkpt>
<trkpt lat="52.070302" lon="05.820955"><ele>7.3</ele><time>2021-01-12T13:26:24Z</time><name>PT1738</name></trkpt>
<trkpt lat="52.070303" lon="05.820943"><ele>7.2</ele><time>2021-01-12T13:26:25Z</time><name>PT1739</name></trkpt>
<trkpt lat="52.070308" lon="05.820934"><ele>7.1</ele><time>2021-01-12T13:26:26Z</time><name>PT1740</name></trkpt>
<trkpt lat="52.070313" lon="05.820922"><ele>6.9</ele><time>2021-01-12T13:26:27Z</time><name>PT1741</name></trkpt>
<trkpt lat="52.070316" lon="05.820910"><ele>6.8</ele><time>2021-01-12T13:26:28Z</time><name>PT1742</name></trkpt>
<trkpt lat="52.070320" lon="05.820900"><ele>6.8</ele><time>2021-01-12T13:26:29Z</time><name>PT1743</name></trkpt>
<trkpt lat="52.070324" lon="05.820889"><ele>6.8</ele><time>2021-01-12T13:26:30Z</time><name>PT1744</name></trkpt>
<trkpt lat="52.070329" lon="05.820880"><ele>6.7</ele><time>2021-01-12T13:26:31Z</time><name>PT1745</name></trkpt>
<trkpt lat="52.070333" lon="05.820869"><ele>7</ele><time>2021-01-12T13:26:32Z</time><name>PT1746</name></trkpt>
<trkpt lat="52.070337" lon="05.820856"><ele>7.2</ele><time>2021-01-12T13:26:33Z</time><name>PT1747</name></trkpt>
<trkpt lat="52.070341" lon="05.820846"><ele>7.2</ele><time>2021-01-12T13:26:34Z</time><name>PT1748</name></trkpt>
<trkpt lat="52.070346" lon="05.820835"><ele>7.3</ele><time>2021-01-12T13:26:35Z</time><name>PT1749</name></trkpt>
<trkpt lat="52.070351" lon="05.820824"><ele>7</ele><time>2021-01-12T13:26:36Z</time><name>PT1750</name></trkpt>
<trkpt lat="52.070356" lon="05.820810"><ele>6.9</ele><time>2021-01-12T13:26:37Z</time><name>PT1751</name></trkpt>
<trkpt lat="52.070361" lon="05.820797"><ele>7.2</ele><time>2021-01-12T13:26:38Z</time><name>PT1752</name></trkpt>
<trkpt lat="52.070369" lon="05.820787"><ele>7</ele><time>2021-01-12T13:26:39Z</time><name>PT1753</name></trkpt>
<trkpt lat="52.070378" lon="05.820779"><ele>7</ele><time>2021-01-12T13:26:40Z</time><name>PT1754</name></trkpt>
<trkpt lat="52.070384" lon="05.820765"><ele>7.1</ele><time>2021-01-12T13:26:41Z</time><name>PT1755</name></trkpt>
<trkpt lat="52.070390" lon="05.820752"><ele>6.9</ele><time>2021-01-12T13:26:42Z</time><name>PT1756</name></trkpt>
<trkpt lat="52.070395" lon="05.820747"><ele>6.9</ele><time>2021-01-12T13:26:43Z</time><name>PT1757</name></trkpt>
<trkpt lat="52.070399" lon="05.820735"><ele>6.7</ele><time>2021-01-12T13:26:44Z</time><name>PT1758</name></trkpt>
<trkpt lat="52.070407" lon="05.820722"><ele>6.7</ele><time>2021-01-12T13:26:45Z</time><name>PT1759</name></trkpt>
<trkpt lat="52.070414" lon="05.820708"><ele>6.4</ele><time>2021-01-12T13:26:46Z</time><name>PT1760</name></trkpt>
<trkpt lat="52.070421" lon="05.820695"><ele>6.4</ele><time>2021-01-12T13:26:47Z</time><name>PT1761</name></trkpt>
<trkpt lat="52.070428" lon="05.820679"><ele>6.3</ele><time>2021-01-12T13:26:48Z</time><name>PT1762</name></trkpt>
<trkpt lat="52.070432" lon="05.820668"><ele>6.2</ele><time>2021-01-12T13:26:49Z</time><name>PT1763</name></trkpt>
<trkpt lat="52.070437" lon="05.820650"><ele>6.4</ele><time>2021-01-12T13:26:50Z</time><name>PT1764</name></trkpt>
<trkpt lat="52.070442" lon="05.820634"><ele>6.3</ele><time>2021-01-12T13:26:51Z</time><name>PT1765</name></trkpt>
<trkpt lat="52.070449" lon="05.820619"><ele>6.3</ele><time>2021-01-12T13:26:52Z</time><name>PT1766</name></trkpt>
<trkpt lat="52.070452" lon="05.820602"><ele>6.1</ele><time>2021-01-12T13:26:53Z</time><name>PT1767</name></trkpt>
<trkpt lat="52.070459" lon="05.820587"><ele>5.9</ele><time>2021-01-12T13:26:54Z</time><name>PT1768</name></trkpt>
<trkpt lat="52.070464" lon="05.820568"><ele>5.9</ele><time>2021-01-12T13:26:55Z</time><name>PT1769</name></trkpt>
<trkpt lat="52.070471" lon="05.820548"><ele>5.9</ele><time>2021-01-12T13:26:56Z</time><name>PT1770</name></trkpt>
<trkpt lat="52.070475" lon="05.820531"><ele>6</ele><time>2021-01-12T13:26:57Z</time><name>PT1771</name></trkpt>
<trkpt lat="52.070480" lon="05.820512"><ele>6.1</ele><time>2021-01-12T13:26:58Z</time><name>PT1772</name></trkpt>
<trkpt lat="52.070484" lon="05.820493"><ele>6.1</ele><time>2021-01-12T13:26:59Z</time><name>PT1773</name></trkpt>
<trkpt lat="52.070487" lon="05.820473"><ele>6</ele><time>2021-01-12T13:27:00Z</time><name>PT1774</name></trkpt>
<trkpt lat="52.070487" lon="05.820457"><ele>6.1</ele><time>2021-01-12T13:27:01Z</time><name>PT1775</name></trkpt>
<trkpt lat="52.070492" lon="05.820441"><ele>6</ele><time>2021-01-12T13:27:02Z</time><name>PT1776</name></trkpt>
<trkpt lat="52.070498" lon="05.820425"><ele>5.9</ele><time>2021-01-12T13:27:03Z</time><name>PT1777</name></trkpt>
<trkpt lat="52.070502" lon="05.820407"><ele>5.9</ele><time>2021-01-12T13:27:04Z</time><name>PT1778</name></trkpt>
<trkpt lat="52.070507" lon="05.820391"><ele>6.1</ele><time>2021-01-12T13:27:05Z</time><name>PT1779</name></trkpt>
<trkpt lat="52.070513" lon="05.820372"><ele>6</ele><time>2021-01-12T13:27:06Z</time><name>PT1780</name></trkpt>
<trkpt lat="52.070519" lon="05.820356"><ele>6</ele><time>2021-01-12T13:27:07Z</time><name>PT1781</name></trkpt>
<trkpt lat="52.070524" lon="05.820336"><ele>6.2</ele><time>2021-01-12T13:27:08Z</time><name>PT1782</name></trkpt>
<trkpt lat="52.070532" lon="05.820324"><ele>6.1</ele><time>2021-01-12T13:27:09Z</time><name>PT1783</name></trkpt>
<trkpt lat="52.070536" lon="05.820308"><ele>6.2</ele><time>2021-01-12T13:27:10Z</time><name>PT1784</name></trkpt>
<trkpt lat="52.070540" lon="05.820292"><ele>6.1</ele><time>2021-01-12T13:27:11Z</time><name>PT1785</name></trkpt>
<trkpt lat="52.070546" lon="05.820276"><ele>6.2</ele><time>2021-01-12T13:27:12Z</time><name>PT1786</name></trkpt>
<trkpt lat="52.070552" lon="05.820265"><ele>6.2</ele><time>2021-01-12T13:27:13Z</time><name>PT1787</name></trkpt>
<trkpt lat="52.070557" lon="05.820254"><ele>6.4</ele><time>2021-01-12T13:27:14Z</time><name>PT1788</name></trkpt>
<trkpt lat="52.070562" lon="05.820240"><ele>6.4</ele><time>2021-01-12T13:27:15Z</time><name>PT1789</name></trkpt>
<trkpt lat="52.070568" lon="05.820224"><ele>6.5</ele><time>2021-01-12T13:27:16Z</time><name>PT1790</name></trkpt>
<trkpt lat="52.070574" lon="05.820207"><ele>6.5</ele><time>2021-01-12T13:27:17Z</time><name>PT1791</name></trkpt>
<trkpt lat="52.070579" lon="05.820191"><ele>6.5</ele><time>2021-01-12T13:27:18Z</time><name>PT1792</name></trkpt>
<trkpt lat="52.070584" lon="05.820176"><ele>6.4</ele><time>2021-01-12T13:27:19Z</time><name>PT1793</name></trkpt>
<trkpt lat="52.070586" lon="05.820161"><ele>6.5</ele><time>2021-01-12T13:27:20Z</time><name>PT1794</name></trkpt>
<trkpt lat="52.070592" lon="05.820141"><ele>6.8</ele><time>2021-01-12T13:27:21Z</time><name>PT1795</name></trkpt>
<trkpt lat="52.070597" lon="05.820120"><ele>6.9</ele><time>2021-01-12T13:27:22Z</time><name>PT1796</name></trkpt>
<trkpt lat="52.070601" lon="05.820102"><ele>7</ele><time>2021-01-12T13:27:23Z</time><name>PT1797</name></trkpt>
<trkpt lat="52.070604" lon="05.820086"><ele>7.3</ele><time>2021-01-12T13:27:24Z</time><name>PT1798</name></trkpt>
<trkpt lat="52.070609" lon="05.820071"><ele>7.4</ele><time>2021-01-12T13:27:25Z</time><name>PT1799</name></trkpt>
<trkpt lat="52.070612" lon="05.820054"><ele>7.4</ele><time>2021-01-12T13:27:26Z</time><name>PT1800</name></trkpt>
<trkpt lat="52.070618" lon="05.820039"><ele>7.4</ele><time>2021-01-12T13:27:27Z</time><name>PT1801</name></trkpt>
<trkpt lat="52.070623" lon="05.820024"><ele>7.3</ele><time>2021-01-12T13:27:28Z</time><name>PT1802</name></trkpt>
<trkpt lat="52.070629" lon="05.820009"><ele>7.2</ele><time>2021-01-12T13:27:29Z</time><name>PT1803</name></trkpt>
<trkpt lat="52.070630" lon="05.819995"><ele>7.2</ele><time>2021-01-12T13:27:30Z</time><name>PT1804</name></trkpt>
<trkpt lat="52.070633" lon="05.819985"><ele>7.3</ele><time>2021-01-12T13:27:31Z</time><name>PT1805</name></trkpt>
<trkpt lat="52.070636" lon="05.819972"><ele>7.4</ele><time>2021-01-12T13:27:32Z</time><name>PT1806</name></trkpt>
<trkpt lat="52.070638" lon="05.819965"><ele>7.6</ele><time>2021-01-12T13:27:33Z</time><name>PT1807</name></trkpt>
<trkpt lat="52.070641" lon="05.819957"><ele>7.6</ele><time>2021-01-12T13:27:34Z</time><name>PT1808</name></trkpt>
<trkpt lat="52.070642" lon="05.819950"><ele>7.9</ele><time>2021-01-12T13:27:35Z</time><name>PT1809</name></trkpt>
<trkpt lat="52.070639" lon="05.819936"><ele>8.2</ele><time>2021-01-12T13:27:36Z</time><name>PT1810</name></trkpt>
<trkpt lat="52.070640" lon="05.819921"><ele>8.3</ele><time>2021-01-12T13:27:37Z</time><name>PT1811</name></trkpt>
<trkpt lat="52.070643" lon="05.819905"><ele>8.5</ele><time>2021-01-12T13:27:38Z</time><name>PT1812</name></trkpt>
<trkpt lat="52.070647" lon="05.819891"><ele>8.4</ele><time>2021-01-12T13:27:39Z</time><name>PT1813</name></trkpt>
<trkpt lat="52.070651" lon="05.819874"><ele>8.3</ele><time>2021-01-12T13:27:40Z</time><name>PT1814</name></trkpt>
<trkpt lat="52.070656" lon="05.819864"><ele>8.2</ele><time>2021-01-12T13:27:41Z</time><name>PT1815</name></trkpt>
<trkpt lat="52.070661" lon="05.819853"><ele>8.2</ele><time>2021-01-12T13:27:42Z</time><name>PT1816</name></trkpt>
<trkpt lat="52.070667" lon="05.819838"><ele>8.1</ele><time>2021-01-12T13:27:43Z</time><name>PT1817</name></trkpt>
<trkpt lat="52.070674" lon="05.819821"><ele>8.1</ele><time>2021-01-12T13:27:44Z</time><name>PT1818</name></trkpt>
<trkpt lat="52.070677" lon="05.819808"><ele>8.1</ele><time>2021-01-12T13:27:45Z</time><name>PT1819</name></trkpt>
<trkpt lat="52.070678" lon="05.819797"><ele>7.9</ele><time>2021-01-12T13:27:46Z</time><name>PT1820</name></trkpt>
<trkpt lat="52.070680" lon="05.819782"><ele>7.8</ele><time>2021-01-12T13:27:47Z</time><name>PT1821</name></trkpt>
<trkpt lat="52.070683" lon="05.819766"><ele>7.7</ele><time>2021-01-12T13:27:48Z</time><name>PT1822</name></trkpt>
<trkpt lat="52.070686" lon="05.819751"><ele>7.4</ele><time>2021-01-12T13:27:49Z</time><name>PT1823</name></trkpt>
<trkpt lat="52.070688" lon="05.819740"><ele>7.5</ele><time>2021-01-12T13:27:50Z</time><name>PT1824</name></trkpt>
<trkpt lat="52.070692" lon="05.819725"><ele>7.4</ele><time>2021-01-12T13:27:51Z</time><name>PT1825</name></trkpt>
<trkpt lat="52.070698" lon="05.819709"><ele>7.4</ele><time>2021-01-12T13:27:52Z</time><name>PT1826</name></trkpt>
<trkpt lat="52.070702" lon="05.819689"><ele>7.3</ele><time>2021-01-12T13:27:53Z</time><name>PT1827</name></trkpt>
<trkpt lat="52.070706" lon="05.819668"><ele>7.1</ele><time>2021-01-12T13:27:54Z</time><name>PT1828</name></trkpt>
<trkpt lat="52.070708" lon="05.819650"><ele>7.1</ele><time>2021-01-12T13:27:55Z</time><name>PT1829</name></trkpt>
<trkpt lat="52.070709" lon="05.819631"><ele>6.9</ele><time>2021-01-12T13:27:56Z</time><name>PT1830</name></trkpt>
<trkpt lat="52.070711" lon="05.819610"><ele>6.9</ele><time>2021-01-12T13:27:57Z</time><name>PT1831</name></trkpt>
<trkpt lat="52.070711" lon="05.819589"><ele>6.8</ele><time>2021-01-12T13:27:58Z</time><name>PT1832</name></trkpt>
<trkpt lat="52.070712" lon="05.819566"><ele>6.8</ele><time>2021-01-12T13:27:59Z</time><name>PT1833</name></trkpt>
<trkpt lat="52.070714" lon="05.819552"><ele>6.9</ele><time>2021-01-12T13:28:00Z</time><name>PT1834</name></trkpt>
<trkpt lat="52.070715" lon="05.819534"><ele>6.9</ele><time>2021-01-12T13:28:01Z</time><name>PT1835</name></trkpt>
<trkpt lat="52.070714" lon="05.819514"><ele>6.7</ele><time>2021-01-12T13:28:02Z</time><name>PT1836</name></trkpt>
<trkpt lat="52.070717" lon="05.819497"><ele>6.4</ele><time>2021-01-12T13:28:03Z</time><name>PT1837</name></trkpt>
<trkpt lat="52.070722" lon="05.819476"><ele>6.5</ele><time>2021-01-12T13:28:04Z</time><name>PT1838</name></trkpt>
<trkpt lat="52.070727" lon="05.819456"><ele>6.3</ele><time>2021-01-12T13:28:05Z</time><name>PT1839</name></trkpt>
<trkpt lat="52.070729" lon="05.819441"><ele>6.4</ele><time>2021-01-12T13:28:06Z</time><name>PT1840</name></trkpt>
<trkpt lat="52.070731" lon="05.819429"><ele>6.4</ele><time>2021-01-12T13:28:07Z</time><name>PT1841</name></trkpt>
<trkpt lat="52.070734" lon="05.819415"><ele>6.6</ele><time>2021-01-12T13:28:08Z</time><name>PT1842</name></trkpt>
<trkpt lat="52.070735" lon="05.819401"><ele>6.7</ele><time>2021-01-12T13:28:09Z</time><name>PT1843</name></trkpt>
<trkpt lat="52.070738" lon="05.819386"><ele>6.8</ele><time>2021-01-12T13:28:10Z</time><name>PT1844</name></trkpt>
<trkpt lat="52.070738" lon="05.819372"><ele>6.4</ele><time>2021-01-12T13:28:11Z</time><name>PT1845</name></trkpt>
<trkpt lat="52.070740" lon="05.819357"><ele>6.4</ele><time>2021-01-12T13:28:12Z</time><name>PT1846</name></trkpt>
<trkpt lat="52.070743" lon="05.819341"><ele>6.5</ele><time>2021-01-12T13:28:13Z</time><name>PT1847</name></trkpt>
<trkpt lat="52.070744" lon="05.819327"><ele>6.4</ele><time>2021-01-12T13:28:14Z</time><name>PT1848</name></trkpt>
<trkpt lat="52.070746" lon="05.819311"><ele>6.4</ele><time>2021-01-12T13:28:15Z</time><name>PT1849</name></trkpt>
<trkpt lat="52.070749" lon="05.819294"><ele>6</ele><time>2021-01-12T13:28:16Z</time><name>PT1850</name></trkpt>
<trkpt lat="52.070751" lon="05.819276"><ele>5.5</ele><time>2021-01-12T13:28:17Z</time><name>PT1851</name></trkpt>
<trkpt lat="52.070753" lon="05.819260"><ele>5.3</ele><time>2021-01-12T13:28:18Z</time><name>PT1852</name></trkpt>
<trkpt lat="52.070756" lon="05.819240"><ele>5.2</ele><time>2021-01-12T13:28:19Z</time><name>PT1853</name></trkpt>
<trkpt lat="52.070757" lon="05.819222"><ele>5.2</ele><time>2021-01-12T13:28:20Z</time><name>PT1854</name></trkpt>
<trkpt lat="52.070758" lon="05.819203"><ele>5.3</ele><time>2021-01-12T13:28:21Z</time><name>PT1855</name></trkpt>
<trkpt lat="52.070759" lon="05.819182"><ele>5.3</ele><time>2021-01-12T13:28:22Z</time><name>PT1856</name></trkpt>
<trkpt lat="52.070761" lon="05.819166"><ele>5.3</ele><time>2021-01-12T13:28:23Z</time><name>PT1857</name></trkpt>
<trkpt lat="52.070763" lon="05.819150"><ele>5.4</ele><time>2021-01-12T13:28:24Z</time><name>PT1858</name></trkpt>
<trkpt lat="52.070764" lon="05.819135"><ele>5.4</ele><time>2021-01-12T13:28:25Z</time><name>PT1859</name></trkpt>
<trkpt lat="52.070766" lon="05.819122"><ele>5.4</ele><time>2021-01-12T13:28:26Z</time><name>PT1860</name></trkpt>
<trkpt lat="52.070767" lon="05.819107"><ele>5.2</ele><time>2021-01-12T13:28:27Z</time><name>PT1861</name></trkpt>
<trkpt lat="52.070770" lon="05.819090"><ele>5.2</ele><time>2021-01-12T13:28:28Z</time><name>PT1862</name></trkpt>
<trkpt lat="52.070774" lon="05.819068"><ele>4.9</ele><time>2021-01-12T13:28:29Z</time><name>PT1863</name></trkpt>
<trkpt lat="52.070778" lon="05.819050"><ele>4.9</ele><time>2021-01-12T13:28:30Z</time><name>PT1864</name></trkpt>
<trkpt lat="52.070780" lon="05.819029"><ele>4.9</ele><time>2021-01-12T13:28:31Z</time><name>PT1865</name></trkpt>
<trkpt lat="52.070782" lon="05.819009"><ele>4.8</ele><time>2021-01-12T13:28:32Z</time><name>PT1866</name></trkpt>
<trkpt lat="52.070786" lon="05.818992"><ele>4.8</ele><time>2021-01-12T13:28:33Z</time><name>PT1867</name></trkpt>
<trkpt lat="52.070790" lon="05.818972"><ele>4.8</ele><time>2021-01-12T13:28:34Z</time><name>PT1868</name></trkpt>
<trkpt lat="52.070793" lon="05.818953"><ele>4.8</ele><time>2021-01-12T13:28:35Z</time><name>PT1869</name></trkpt>
<trkpt lat="52.070797" lon="05.818936"><ele>4.9</ele><time>2021-01-12T13:28:36Z</time><name>PT1870</name></trkpt>
<trkpt lat="52.070802" lon="05.818916"><ele>4.8</ele><time>2021-01-12T13:28:37Z</time><name>PT1871</name></trkpt>
<trkpt lat="52.070806" lon="05.818897"><ele>4.7</ele><time>2021-01-12T13:28:38Z</time><name>PT1872</name></trkpt>
<trkpt lat="52.070811" lon="05.818879"><ele>4.6</ele><time>2021-01-12T13:28:39Z</time><name>PT1873</name></trkpt>
<trkpt lat="52.070817" lon="05.818864"><ele>4.7</ele><time>2021-01-12T13:28:40Z</time><name>PT1874</name></trkpt>
<trkpt lat="52.070824" lon="05.818848"><ele>4.8</ele><time>2021-01-12T13:28:41Z</time><name>PT1875</name></trkpt>
<trkpt lat="52.070834" lon="05.818834"><ele>4.9</ele><time>2021-01-12T13:28:42Z</time><name>PT1876</name></trkpt>
<trkpt lat="52.070842" lon="05.818816"><ele>4.8</ele><time>2021-01-12T13:28:43Z</time><name>PT1877</name></trkpt>
<trkpt lat="52.070848" lon="05.818802"><ele>4.6</ele><time>2021-01-12T13:28:44Z</time><name>PT1878</name></trkpt>
<trkpt lat="52.070856" lon="05.818785"><ele>4.4</ele><time>2021-01-12T13:28:45Z</time><name>PT1879</name></trkpt>
<trkpt lat="52.070861" lon="05.818767"><ele>4.4</ele><time>2021-01-12T13:28:46Z</time><name>PT1880</name></trkpt>
<trkpt lat="52.070868" lon="05.818750"><ele>4.4</ele><time>2021-01-12T13:28:47Z</time><name>PT1881</name></trkpt>
<trkpt lat="52.070873" lon="05.818736"><ele>4.4</ele><time>2021-01-12T13:28:48Z</time><name>PT1882</name></trkpt>
<trkpt lat="52.070878" lon="05.818723"><ele>4.4</ele><time>2021-01-12T13:28:49Z</time><name>PT1883</name></trkpt>
<trkpt lat="52.070884" lon="05.818708"><ele>4.5</ele><time>2021-01-12T13:28:50Z</time><name>PT1884</name></trkpt>
<trkpt lat="52.070891" lon="05.818690"><ele>4.5</ele><time>2021-01-12T13:28:51Z</time><name>PT1885</name></trkpt>
<trkpt lat="52.070897" lon="05.818673"><ele>4.5</ele><time>2021-01-12T13:28:52Z</time><name>PT1886</name></trkpt>
<trkpt lat="52.070900" lon="05.818656"><ele>4.6</ele><time>2021-01-12T13:28:53Z</time><name>PT1887</name></trkpt>
<trkpt lat="52.070903" lon="05.818637"><ele>4.4</ele><time>2021-01-12T13:28:54Z</time><name>PT1888</name></trkpt>
<trkpt lat="52.070907" lon="05.818618"><ele>4.5</ele><time>2021-01-12T13:28:55Z</time><name>PT1889</name></trkpt>
<trkpt lat="52.070911" lon="05.818600"><ele>4.4</ele><time>2021-01-12T13:28:56Z</time><name>PT1890</name></trkpt>
<trkpt lat="52.070914" lon="05.818585"><ele>4.2</ele><time>2021-01-12T13:28:57Z</time><name>PT1891</name></trkpt>
<trkpt lat="52.070918" lon="05.818568"><ele>4.4</ele><time>2021-01-12T13:28:58Z</time><name>PT1892</name></trkpt>
<trkpt lat="52.070921" lon="05.818552"><ele>4.3</ele><time>2021-01-12T13:28:59Z</time><name>PT1893</name></trkpt>
<trkpt lat="52.070926" lon="05.818534"><ele>4.4</ele><time>2021-01-12T13:29:00Z</time><name>PT1894</name></trkpt>
<trkpt lat="52.070930" lon="05.818514"><ele>4.3</ele><time>2021-01-12T13:29:01Z</time><name>PT1895</name></trkpt>
<trkpt lat="52.070933" lon="05.818496"><ele>4.3</ele><time>2021-01-12T13:29:02Z</time><name>PT1896</name></trkpt>
<trkpt lat="52.070935" lon="05.818478"><ele>4.3</ele><time>2021-01-12T13:29:03Z</time><name>PT1897</name></trkpt>
<trkpt lat="52.070936" lon="05.818460"><ele>4.2</ele><time>2021-01-12T13:29:04Z</time><name>PT1898</name></trkpt>
<trkpt lat="52.070937" lon="05.818441"><ele>4.4</ele><time>2021-01-12T13:29:05Z</time><name>PT1899</name></trkpt>
<trkpt lat="52.070939" lon="05.818421"><ele>4.3</ele><time>2021-01-12T13:29:06Z</time><name>PT1900</name></trkpt>
<trkpt lat="52.070938" lon="05.818399"><ele>4.2</ele><time>2021-01-12T13:29:07Z</time><name>PT1901</name></trkpt>
<trkpt lat="52.070937" lon="05.818376"><ele>4.4</ele><time>2021-01-12T13:29:08Z</time><name>PT1902</name></trkpt>
<trkpt lat="52.070937" lon="05.818359"><ele>4.6</ele><time>2021-01-12T13:29:09Z</time><name>PT1903</name></trkpt>
<trkpt lat="52.070937" lon="05.818345"><ele>4.8</ele><time>2021-01-12T13:29:10Z</time><name>PT1904</name></trkpt>
<trkpt lat="52.070938" lon="05.818330"><ele>4.9</ele><time>2021-01-12T13:29:11Z</time><name>PT1905</name></trkpt>
<trkpt lat="52.070939" lon="05.818311"><ele>4.9</ele><time>2021-01-12T13:29:12Z</time><name>PT1906</name></trkpt>
<trkpt lat="52.070939" lon="05.818291"><ele>4.9</ele><time>2021-01-12T13:29:13Z</time><name>PT1907</name></trkpt>
<trkpt lat="52.070937" lon="05.818274"><ele>4.9</ele><time>2021-01-12T13:29:14Z</time><name>PT1908</name></trkpt>
<trkpt lat="52.070933" lon="05.818258"><ele>4.9</ele><time>2021-01-12T13:29:15Z</time><name>PT1909</name></trkpt>
<trkpt lat="52.070930" lon="05.818241"><ele>4.9</ele><time>2021-01-12T13:29:16Z</time><name>PT1910</name></trkpt>
<trkpt lat="52.070926" lon="05.818219"><ele>4.8</ele><time>2021-01-12T13:29:17Z</time><name>PT1911</name></trkpt>
<trkpt lat="52.070923" lon="05.818200"><ele>4.7</ele><time>2021-01-12T13:29:18Z</time><name>PT1912</name></trkpt>
<trkpt lat="52.070922" lon="05.818183"><ele>4.6</ele><time>2021-01-12T13:29:19Z</time><name>PT1913</name></trkpt>
<trkpt lat="52.070919" lon="05.818167"><ele>4.7</ele><time>2021-01-12T13:29:20Z</time><name>PT1914</name></trkpt>
<trkpt lat="52.070917" lon="05.818151"><ele>4.7</ele><time>2021-01-12T13:29:21Z</time><name>PT1915</name></trkpt>
<trkpt lat="52.070914" lon="05.818133"><ele>4.7</ele><time>2021-01-12T13:29:22Z</time><name>PT1916</name></trkpt>
<trkpt lat="52.070912" lon="05.818118"><ele>4.7</ele><time>2021-01-12T13:29:23Z</time><name>PT1917</name></trkpt>
<trkpt lat="52.070910" lon="05.818101"><ele>5.1</ele><time>2021-01-12T13:29:24Z</time><name>PT1918</name></trkpt>
<trkpt lat="52.070906" lon="05.818084"><ele>5.1</ele><time>2021-01-12T13:29:25Z</time><name>PT1919</name></trkpt>
<trkpt lat="52.070901" lon="05.818067"><ele>5.2</ele><time>2021-01-12T13:29:26Z</time><name>PT1920</name></trkpt>
<trkpt lat="52.070896" lon="05.818052"><ele>5.4</ele><time>2021-01-12T13:29:27Z</time><name>PT1921</name></trkpt>
<trkpt lat="52.070894" lon="05.818034"><ele>5.3</ele><time>2021-01-12T13:29:28Z</time><name>PT1922</name></trkpt>
<trkpt lat="52.070891" lon="05.818017"><ele>5.1</ele><time>2021-01-12T13:29:29Z</time><name>PT1923</name></trkpt>
<trkpt lat="52.070888" lon="05.818000"><ele>5.1</ele><time>2021-01-12T13:29:30Z</time><name>PT1924</name></trkpt>
<trkpt lat="52.070888" lon="05.817980"><ele>4.9</ele><time>2021-01-12T13:29:31Z</time><name>PT1925</name></trkpt>
<trkpt lat="52.070885" lon="05.817959"><ele>4.8</ele><time>2021-01-12T13:29:32Z</time><name>PT1926</name></trkpt>
<trkpt lat="52.070881" lon="05.817943"><ele>4.8</ele><time>2021-01-12T13:29:33Z</time><name>PT1927</name></trkpt>
<trkpt lat="52.070879" lon="05.817928"><ele>4.8</ele><time>2021-01-12T13:29:34Z</time><name>PT1928</name></trkpt>
<trkpt lat="52.070876" lon="05.817911"><ele>4.9</ele><time>2021-01-12T13:29:35Z</time><name>PT1929</name></trkpt>
<trkpt lat="52.070873" lon="05.817895"><ele>4.8</ele><time>2021-01-12T13:29:36Z</time><name>PT1930</name></trkpt>
<trkpt lat="52.070870" lon="05.817879"><ele>4.8</ele><time>2021-01-12T13:29:37Z</time><name>PT1931</name></trkpt>
<trkpt lat="52.070867" lon="05.817864"><ele>4.6</ele><time>2021-01-12T13:29:38Z</time><name>PT1932</name></trkpt>
<trkpt lat="52.070868" lon="05.817847"><ele>4.6</ele><time>2021-01-12T13:29:39Z</time><name>PT1933</name></trkpt>
<trkpt lat="52.070868" lon="05.817829"><ele>4.7</ele><time>2021-01-12T13:29:40Z</time><name>PT1934</name></trkpt>
<trkpt lat="52.070870" lon="05.817814"><ele>4.5</ele><time>2021-01-12T13:29:41Z</time><name>PT1935</name></trkpt>
<trkpt lat="52.070870" lon="05.817798"><ele>4.5</ele><time>2021-01-12T13:29:42Z</time><name>PT1936</name></trkpt>
<trkpt lat="52.070870" lon="05.817782"><ele>4.6</ele><time>2021-01-12T13:29:43Z</time><name>PT1937</name></trkpt>
<trkpt lat="52.070870" lon="05.817763"><ele>4.5</ele><time>2021-01-12T13:29:44Z</time><name>PT1938</name></trkpt>
<trkpt lat="52.070869" lon="05.817744"><ele>4.7</ele><time>2021-01-12T13:29:45Z</time><name>PT1939</name></trkpt>
<trkpt lat="52.070870" lon="05.817726"><ele>4.6</ele><time>2021-01-12T13:29:46Z</time><name>PT1940</name></trkpt>
<trkpt lat="52.070873" lon="05.817713"><ele>4.4</ele><time>2021-01-12T13:29:47Z</time><name>PT1941</name></trkpt>
<trkpt lat="52.070876" lon="05.817697"><ele>4.2</ele><time>2021-01-12T13:29:48Z</time><name>PT1942</name></trkpt>
<trkpt lat="52.070879" lon="05.817675"><ele>4.3</ele><time>2021-01-12T13:29:49Z</time><name>PT1943</name></trkpt>
<trkpt lat="52.070882" lon="05.817656"><ele>4.3</ele><time>2021-01-12T13:29:50Z</time><name>PT1944</name></trkpt>
<trkpt lat="52.070886" lon="05.817639"><ele>4.4</ele><time>2021-01-12T13:29:51Z</time><name>PT1945</name></trkpt>
<trkpt lat="52.070889" lon="05.817622"><ele>4.4</ele><time>2021-01-12T13:29:52Z</time><name>PT1946</name></trkpt>
<trkpt lat="52.070895" lon="05.817604"><ele>4.3</ele><time>2021-01-12T13:29:53Z</time><name>PT1947</name></trkpt>
<trkpt lat="52.070902" lon="05.817586"><ele>4</ele><time>2021-01-12T13:29:54Z</time><name>PT1948</name></trkpt>
<trkpt lat="52.070906" lon="05.817573"><ele>4</ele><time>2021-01-12T13:29:55Z</time><name>PT1949</name></trkpt>
<trkpt lat="52.070912" lon="05.817558"><ele>4</ele><time>2021-01-12T13:29:56Z</time><name>PT1950</name></trkpt>
<trkpt lat="52.070918" lon="05.817544"><ele>4.2</ele><time>2021-01-12T13:29:57Z</time><name>PT1951</name></trkpt>
<trkpt lat="52.070920" lon="05.817527"><ele>4.3</ele><time>2021-01-12T13:29:58Z</time><name>PT1952</name></trkpt>
<trkpt lat="52.070926" lon="05.817506"><ele>4.1</ele><time>2021-01-12T13:29:59Z</time><name>PT1953</name></trkpt>
<trkpt lat="52.070933" lon="05.817487"><ele>4.1</ele><time>2021-01-12T13:30:00Z</time><name>PT1954</name></trkpt>
<trkpt lat="52.070940" lon="05.817470"><ele>3.9</ele><time>2021-01-12T13:30:01Z</time><name>PT1955</name></trkpt>
<trkpt lat="52.070946" lon="05.817453"><ele>4</ele><time>2021-01-12T13:30:02Z</time><name>PT1956</name></trkpt>
<trkpt lat="52.070951" lon="05.817437"><ele>4.3</ele><time>2021-01-12T13:30:03Z</time><name>PT1957</name></trkpt>
<trkpt lat="52.070954" lon="05.817418"><ele>4.4</ele><time>2021-01-12T13:30:04Z</time><name>PT1958</name></trkpt>
<trkpt lat="52.070957" lon="05.817397"><ele>4.6</ele><time>2021-01-12T13:30:05Z</time><name>PT1959</name></trkpt>
<trkpt lat="52.070960" lon="05.817379"><ele>4.6</ele><time>2021-01-12T13:30:06Z</time><name>PT1960</name></trkpt>
<trkpt lat="52.070963" lon="05.817360"><ele>4.8</ele><time>2021-01-12T13:30:07Z</time><name>PT1961</name></trkpt>
<trkpt lat="52.070967" lon="05.817339"><ele>4.7</ele><time>2021-01-12T13:30:08Z</time><name>PT1962</name></trkpt>
<trkpt lat="52.070969" lon="05.817321"><ele>4.8</ele><time>2021-01-12T13:30:09Z</time><name>PT1963</name></trkpt>
<trkpt lat="52.070972" lon="05.817305"><ele>4.7</ele><time>2021-01-12T13:30:10Z</time><name>PT1964</name></trkpt>
<trkpt lat="52.070974" lon="05.817286"><ele>4.6</ele><time>2021-01-12T13:30:11Z</time><name>PT1965</name></trkpt>
<trkpt lat="52.070975" lon="05.817269"><ele>4.5</ele><time>2021-01-12T13:30:12Z</time><name>PT1966</name></trkpt>
<trkpt lat="52.070977" lon="05.817253"><ele>4.4</ele><time>2021-01-12T13:30:13Z</time><name>PT1967</name></trkpt>
<trkpt lat="52.070978" lon="05.817232"><ele>4.6</ele><time>2021-01-12T13:30:14Z</time><name>PT1968</name></trkpt>
<trkpt lat="52.070978" lon="05.817210"><ele>4.8</ele><time>2021-01-12T13:30:15Z</time><name>PT1969</name></trkpt>
<trkpt lat="52.070979" lon="05.817189"><ele>4.9</ele><time>2021-01-12T13:30:16Z</time><name>PT1970</name></trkpt>
<trkpt lat="52.070980" lon="05.817173"><ele>4.9</ele><time>2021-01-12T13:30:17Z</time><name>PT1971</name></trkpt>
<trkpt lat="52.070980" lon="05.817155"><ele>4.8</ele><time>2021-01-12T13:30:18Z</time><name>PT1972</name></trkpt>
<trkpt lat="52.070979" lon="05.817136"><ele>4.7</ele><time>2021-01-12T13:30:19Z</time><name>PT1973</name></trkpt>
<trkpt lat="52.070979" lon="05.817116"><ele>4.7</ele><time>2021-01-12T13:30:20Z</time><name>PT1974</name></trkpt>
<trkpt lat="52.070978" lon="05.817097"><ele>4.7</ele><time>2021-01-12T13:30:21Z</time><name>PT1975</name></trkpt>
<trkpt lat="52.070976" lon="05.817078"><ele>4.7</ele><time>2021-01-12T13:30:22Z</time><name>PT1976</name></trkpt>
<trkpt lat="52.070974" lon="05.817059"><ele>4.7</ele><time>2021-01-12T13:30:23Z</time><name>PT1977</name></trkpt>
<trkpt lat="52.070971" lon="05.817041"><ele>4.6</ele><time>2021-01-12T13:30:24Z</time><name>PT1978</name></trkpt>
<trkpt lat="52.070968" lon="05.817027"><ele>4.4</ele><time>2021-01-12T13:30:25Z</time><name>PT1979</name></trkpt>
<trkpt lat="52.070967" lon="05.817012"><ele>4.4</ele><time>2021-01-12T13:30:26Z</time><name>PT1980</name></trkpt>
<trkpt lat="52.070968" lon="05.817000"><ele>4.4</ele><time>2021-01-12T13:30:27Z</time><name>PT1981</name></trkpt>
<trkpt lat="52.070967" lon="05.816985"><ele>4.4</ele><time>2021-01-12T13:30:28Z</time><name>PT1982</name></trkpt>
<trkpt lat="52.070966" lon="05.816968"><ele>4.4</ele><time>2021-01-12T13:30:29Z</time><name>PT1983</name></trkpt>
<trkpt lat="52.070967" lon="05.816951"><ele>4.3</ele><time>2021-01-12T13:30:30Z</time><name>PT1984</name></trkpt>
<trkpt lat="52.070965" lon="05.816932"><ele>4.3</ele><time>2021-01-12T13:30:31Z</time><name>PT1985</name></trkpt>
<trkpt lat="52.070961" lon="05.816912"><ele>4.2</ele><time>2021-01-12T13:30:32Z</time><name>PT1986</name></trkpt>
<trkpt lat="52.070959" lon="05.816894"><ele>4.1</ele><time>2021-01-12T13:30:33Z</time><name>PT1987</name></trkpt>
<trkpt lat="52.070956" lon="05.816877"><ele>4.4</ele><time>2021-01-12T13:30:34Z</time><name>PT1988</name></trkpt>
<trkpt lat="52.070955" lon="05.816861"><ele>4.4</ele><time>2021-01-12T13:30:35Z</time><name>PT1989</name></trkpt>
<trkpt lat="52.070952" lon="05.816842"><ele>4.7</ele><time>2021-01-12T13:30:36Z</time><name>PT1990</name></trkpt>
<trkpt lat="52.070948" lon="05.816823"><ele>4.6</ele><time>2021-01-12T13:30:37Z</time><name>PT1991</name></trkpt>
<trkpt lat="52.070946" lon="05.816807"><ele>4.6</ele><time>2021-01-12T13:30:38Z</time><name>PT1992</name></trkpt>
<trkpt lat="52.070940" lon="05.816790"><ele>4.4</ele><time>2021-01-12T13:30:39Z</time><name>PT1993</name></trkpt>
<trkpt lat="52.070938" lon="05.816779"><ele>4.4</ele><time>2021-01-12T13:30:40Z</time><name>PT1994</name></trkpt>
<trkpt lat="52.070936" lon="05.816765"><ele>4.4</ele><time>2021-01-12T13:30:41Z</time><name>PT1995</name></trkpt>
<trkpt lat="52.070934" lon="05.816752"><ele>4.4</ele><time>2021-01-12T13:30:42Z</time><name>PT1996</name></trkpt>
<trkpt lat="52.070930" lon="05.816738"><ele>4.4</ele><time>2021-01-12T13:30:43Z</time><name>PT1997</name></trkpt>
<trkpt lat="52.070924" lon="05.816722"><ele>4.6</ele><time>2021-01-12T13:30:44Z</time><name>PT1998</name></trkpt>
<trkpt lat="52.070920" lon="05.816704"><ele>4.7</ele><time>2021-01-12T13:30:45Z</time><name>PT1999</name></trkpt>
<trkpt lat="52.070916" lon="05.816687"><ele>4.8</ele><time>2021-01-12T13:30:46Z</time><name>PT2000</name></trkpt>
<trkpt lat="52.070909" lon="05.816665"><ele>4.8</ele><time>2021-01-12T13:30:47Z</time><name>PT2001</name></trkpt>
<trkpt lat="52.070903" lon="05.816651"><ele>4.4</ele><time>2021-01-12T13:30:48Z</time><name>PT2002</name></trkpt>
<trkpt lat="52.070899" lon="05.816633"><ele>4.4</ele><time>2021-01-12T13:30:49Z</time><name>PT2003</name></trkpt>
<trkpt lat="52.070899" lon="05.816619"><ele>4.4</ele><time>2021-01-12T13:30:50Z</time><name>PT2004</name></trkpt>
<trkpt lat="52.070900" lon="05.816605"><ele>4.3</ele><time>2021-01-12T13:30:51Z</time><name>PT2005</name></trkpt>
<trkpt lat="52.070900" lon="05.816593"><ele>4.4</ele><time>2021-01-12T13:30:52Z</time><name>PT2006</name></trkpt>
<trkpt lat="52.070900" lon="05.816578"><ele>4.6</ele><time>2021-01-12T13:30:53Z</time><name>PT2007</name></trkpt>
<trkpt lat="52.070901" lon="05.816571"><ele>4.9</ele><time>2021-01-12T13:30:54Z</time><name>PT2008</name></trkpt>
<trkpt lat="52.070899" lon="05.816559"><ele>4.8</ele><time>2021-01-12T13:30:55Z</time><name>PT2009</name></trkpt>
<trkpt lat="52.070900" lon="05.816544"><ele>4.9</ele><time>2021-01-12T13:30:56Z</time><name>PT2010</name></trkpt>
<trkpt lat="52.070902" lon="05.816531"><ele>4.9</ele><time>2021-01-12T13:30:57Z</time><name>PT2011</name></trkpt>
<trkpt lat="52.070904" lon="05.816518"><ele>4.8</ele><time>2021-01-12T13:30:58Z</time><name>PT2012</name></trkpt>
<trkpt lat="52.070909" lon="05.816511"><ele>4.8</ele><time>2021-01-12T13:30:59Z</time><name>PT2013</name></trkpt>
<trkpt lat="52.070914" lon="05.816503"><ele>4.6</ele><time>2021-01-12T13:31:00Z</time><name>PT2014</name></trkpt>
<trkpt lat="52.070920" lon="05.816492"><ele>4.6</ele><time>2021-01-12T13:31:01Z</time><name>PT2015</name></trkpt>
<trkpt lat="52.070926" lon="05.816480"><ele>4.7</ele><time>2021-01-12T13:31:02Z</time><name>PT2016</name></trkpt>
<trkpt lat="52.070931" lon="05.816470"><ele>4.9</ele><time>2021-01-12T13:31:03Z</time><name>PT2017</name></trkpt>
<trkpt lat="52.070934" lon="05.816463"><ele>5</ele><time>2021-01-12T13:31:04Z</time><name>PT2018</name></trkpt>
<trkpt lat="52.070936" lon="05.816456"><ele>5</ele><time>2021-01-12T13:31:05Z</time><name>PT2019</name></trkpt>
<trkpt lat="52.070943" lon="05.816445"><ele>4.8</ele><time>2021-01-12T13:31:06Z</time><name>PT2020</name></trkpt>
<trkpt lat="52.070949" lon="05.816429"><ele>4.8</ele><time>2021-01-12T13:31:07Z</time><name>PT2021</name></trkpt>
<trkpt lat="52.070954" lon="05.816412"><ele>4.6</ele><time>2021-01-12T13:31:08Z</time><name>PT2022</name></trkpt>
<trkpt lat="52.070958" lon="05.816390"><ele>4.5</ele><time>2021-01-12T13:31:09Z</time><name>PT2023</name></trkpt>
<trkpt lat="52.070962" lon="05.816369"><ele>4.4</ele><time>2021-01-12T13:31:10Z</time><name>PT2024</name></trkpt>
<trkpt lat="52.070967" lon="05.816350"><ele>4.4</ele><time>2021-01-12T13:31:11Z</time><name>PT2025</name></trkpt>
<trkpt lat="52.070972" lon="05.816330"><ele>4.2</ele><time>2021-01-12T13:31:12Z</time><name>PT2026</name></trkpt>
<trkpt lat="52.070975" lon="05.816310"><ele>4.2</ele><time>2021-01-12T13:31:13Z</time><name>PT2027</name></trkpt>
<trkpt lat="52.070982" lon="05.816291"><ele>4.3</ele><time>2021-01-12T13:31:14Z</time><name>PT2028</name></trkpt>
<trkpt lat="52.070987" lon="05.816276"><ele>4.1</ele><time>2021-01-12T13:31:15Z</time><name>PT2029</name></trkpt>
<trkpt lat="52.070990" lon="05.816261"><ele>4.2</ele><time>2021-01-12T13:31:16Z</time><name>PT2030</name></trkpt>
<trkpt lat="52.070995" lon="05.816244"><ele>4.3</ele><time>2021-01-12T13:31:17Z</time><name>PT2031</name></trkpt>
<trkpt lat="52.071001" lon="05.816229"><ele>3.9</ele><time>2021-01-12T13:31:18Z</time><name>PT2032</name></trkpt>
<trkpt lat="52.071008" lon="05.816217"><ele>3.9</ele><time>2021-01-12T13:31:19Z</time><name>PT2033</name></trkpt>
<trkpt lat="52.071011" lon="05.816204"><ele>3.9</ele><time>2021-01-12T13:31:20Z</time><name>PT2034</name></trkpt>
<trkpt lat="52.071018" lon="05.816192"><ele>3.9</ele><time>2021-01-12T13:31:21Z</time><name>PT2035</name></trkpt>
<trkpt lat="52.071020" lon="05.816180"><ele>4</ele><time>2021-01-12T13:31:22Z</time><name>PT2036</name></trkpt>
<trkpt lat="52.071024" lon="05.816169"><ele>4.1</ele><time>2021-01-12T13:31:23Z</time><name>PT2037</name></trkpt>
<trkpt lat="52.071031" lon="05.816155"><ele>4</ele><time>2021-01-12T13:31:24Z</time><name>PT2038</name></trkpt>
<trkpt lat="52.071037" lon="05.816144"><ele>3.9</ele><time>2021-01-12T13:31:25Z</time><name>PT2039</name></trkpt>
<trkpt lat="52.071042" lon="05.816129"><ele>3.9</ele><time>2021-01-12T13:31:26Z</time><name>PT2040</name></trkpt>
<trkpt lat="52.071045" lon="05.816111"><ele>4</ele><time>2021-01-12T13:31:27Z</time><name>PT2041</name></trkpt>
<trkpt lat="52.071049" lon="05.816088"><ele>4.1</ele><time>2021-01-12T13:31:28Z</time><name>PT2042</name></trkpt>
<trkpt lat="52.071050" lon="05.816066"><ele>4.2</ele><time>2021-01-12T13:31:29Z</time><name>PT2043</name></trkpt>
<trkpt lat="52.071054" lon="05.816049"><ele>4.2</ele><time>2021-01-12T13:31:30Z</time><name>PT2044</name></trkpt>
<trkpt lat="52.071058" lon="05.816028"><ele>4</ele><time>2021-01-12T13:31:31Z</time><name>PT2045</name></trkpt>
<trkpt lat="52.071062" lon="05.816006"><ele>4</ele><time>2021-01-12T13:31:32Z</time><name>PT2046</name></trkpt>
<trkpt lat="52.071067" lon="05.815986"><ele>3.9</ele><time>2021-01-12T13:31:33Z</time><name>PT2047</name></trkpt>
<trkpt lat="52.071071" lon="05.815967"><ele>3.9</ele><time>2021-01-12T13:31:34Z</time><name>PT2048</name></trkpt>
<trkpt lat="52.071074" lon="05.815948"><ele>3.9</ele><time>2021-01-12T13:31:35Z</time><name>PT2049</name></trkpt>
<trkpt lat="52.071078" lon="05.815933"><ele>3.9</ele><time>2021-01-12T13:31:36Z</time><name>PT2050</name></trkpt>
<trkpt lat="52.071084" lon="05.815917"><ele>3.9</ele><time>2021-01-12T13:31:37Z</time><name>PT2051</name></trkpt>
<trkpt lat="52.071089" lon="05.815898"><ele>4</ele><time>2021-01-12T13:31:38Z</time><name>PT2052</name></trkpt>
<trkpt lat="52.071093" lon="05.815880"><ele>4.1</ele><time>2021-01-12T13:31:39Z</time><name>PT2053</name></trkpt>
<trkpt lat="52.071098" lon="05.815858"><ele>4.1</ele><time>2021-01-12T13:31:40Z</time><name>PT2054</name></trkpt>
<trkpt lat="52.071103" lon="05.815837"><ele>4</ele><time>2021-01-12T13:31:41Z</time><name>PT2055</name></trkpt>
<trkpt lat="52.071107" lon="05.815818"><ele>3.9</ele><time>2021-01-12T13:31:42Z</time><name>PT2056</name></trkpt>
<trkpt lat="52.071108" lon="05.815800"><ele>3.9</ele><time>2021-01-12T13:31:43Z</time><name>PT2057</name></trkpt>
<trkpt lat="52.071111" lon="05.815782"><ele>3.7</ele><time>2021-01-12T13:31:44Z</time><name>PT2058</name></trkpt>
<trkpt lat="52.071114" lon="05.815760"><ele>3.9</ele><time>2021-01-12T13:31:45Z</time><name>PT2059</name></trkpt>
<trkpt lat="52.071117" lon="05.815740"><ele>3.9</ele><time>2021-01-12T13:31:46Z</time><name>PT2060</name></trkpt>
<trkpt lat="52.071121" lon="05.815721"><ele>3.7</ele><time>2021-01-12T13:31:47Z</time><name>PT2061</name></trkpt>
<trkpt lat="52.071124" lon="05.815706"><ele>3.8</ele><time>2021-01-12T13:31:48Z</time><name>PT2062</name></trkpt>
<trkpt lat="52.071130" lon="05.815689"><ele>3.9</ele><time>2021-01-12T13:31:49Z</time><name>PT2063</name></trkpt>
<trkpt lat="52.071137" lon="05.815675"><ele>3.7</ele><time>2021-01-12T13:31:50Z</time><name>PT2064</name></trkpt>
<trkpt lat="52.071141" lon="05.815658"><ele>3.7</ele><time>2021-01-12T13:31:51Z</time><name>PT2065</name></trkpt>
<trkpt lat="52.071142" lon="05.815638"><ele>3.9</ele><time>2021-01-12T13:31:52Z</time><name>PT2066</name></trkpt>
<trkpt lat="52.071145" lon="05.815618"><ele>3.8</ele><time>2021-01-12T13:31:53Z</time><name>PT2067</name></trkpt>
<trkpt lat="52.071146" lon="05.815595"><ele>3.6</ele><time>2021-01-12T13:31:54Z</time><name>PT2068</name></trkpt>
<trkpt lat="52.071149" lon="05.815573"><ele>3.7</ele><time>2021-01-12T13:31:55Z</time><name>PT2069</name></trkpt>
<trkpt lat="52.071153" lon="05.815553"><ele>3.5</ele><time>2021-01-12T13:31:56Z</time><name>PT2070</name></trkpt>
<trkpt lat="52.071157" lon="05.815532"><ele>3.3</ele><time>2021-01-12T13:31:57Z</time><name>PT2071</name></trkpt>
<trkpt lat="52.071161" lon="05.815511"><ele>3.3</ele><time>2021-01-12T13:31:58Z</time><name>PT2072</name></trkpt>
<trkpt lat="52.071163" lon="05.815489"><ele>3.3</ele><time>2021-01-12T13:31:59Z</time><name>PT2073</name></trkpt>
<trkpt lat="52.071168" lon="05.815472"><ele>3.4</ele><time>2021-01-12T13:32:00Z</time><name>PT2074</name></trkpt>
<trkpt lat="52.071173" lon="05.815456"><ele>3.4</ele><time>2021-01-12T13:32:01Z</time><name>PT2075</name></trkpt>
<trkpt lat="52.071178" lon="05.815441"><ele>3.8</ele><time>2021-01-12T13:32:02Z</time><name>PT2076</name></trkpt>
<trkpt lat="52.071182" lon="05.815423"><ele>4</ele><time>2021-01-12T13:32:03Z</time><name>PT2077</name></trkpt>
<trkpt lat="52.071188" lon="05.815402"><ele>4.2</ele><time>2021-01-12T13:32:04Z</time><name>PT2078</name></trkpt>
<trkpt lat="52.071192" lon="05.815385"><ele>4.4</ele><time>2021-01-12T13:32:05Z</time><name>PT2079</name></trkpt>
<trkpt lat="52.071197" lon="05.815369"><ele>4.4</ele><time>2021-01-12T13:32:06Z</time><name>PT2080</name></trkpt>
<trkpt lat="52.071201" lon="05.815351"><ele>4.3</ele><time>2021-01-12T13:32:07Z</time><name>PT2081</name></trkpt>
<trkpt lat="52.071205" lon="05.815330"><ele>4.2</ele><time>2021-01-12T13:32:08Z</time><name>PT2082</name></trkpt>
<trkpt lat="52.071211" lon="05.815311"><ele>3.8</ele><time>2021-01-12T13:32:09Z</time><name>PT2083</name></trkpt>
<trkpt lat="52.071215" lon="05.815294"><ele>3.9</ele><time>2021-01-12T13:32:10Z</time><name>PT2084</name></trkpt>
<trkpt lat="52.071220" lon="05.815280"><ele>3.8</ele><time>2021-01-12T13:32:11Z</time><name>PT2085</name></trkpt>
<trkpt lat="52.071224" lon="05.815264"><ele>3.8</ele><time>2021-01-12T13:32:12Z</time><name>PT2086</name></trkpt>
<trkpt lat="52.071229" lon="05.815248"><ele>3.8</ele><time>2021-01-12T13:32:13Z</time><name>PT2087</name></trkpt>
<trkpt lat="52.071237" lon="05.815236"><ele>3.5</ele><time>2021-01-12T13:32:14Z</time><name>PT2088</name></trkpt>
<trkpt lat="52.071241" lon="05.815218"><ele>3.1</ele><time>2021-01-12T13:32:15Z</time><name>PT2089</name></trkpt>
<trkpt lat="52.071243" lon="05.815201"><ele>3</ele><time>2021-01-12T13:32:16Z</time><name>PT2090</name></trkpt>
<trkpt lat="52.071247" lon="05.815185"><ele>2.9</ele><time>2021-01-12T13:32:17Z</time><name>PT2091</name></trkpt>
<trkpt lat="52.071250" lon="05.815172"><ele>2.8</ele><time>2021-01-12T13:32:18Z</time><name>PT2092</name></trkpt>
<trkpt lat="52.071254" lon="05.815159"><ele>2.9</ele><time>2021-01-12T13:32:19Z</time><name>PT2093</name></trkpt>
<trkpt lat="52.071258" lon="05.815145"><ele>2.9</ele><time>2021-01-12T13:32:20Z</time><name>PT2094</name></trkpt>
<trkpt lat="52.071259" lon="05.815127"><ele>2.9</ele><time>2021-01-12T13:32:21Z</time><name>PT2095</name></trkpt>
<trkpt lat="52.071262" lon="05.815114"><ele>3.1</ele><time>2021-01-12T13:32:22Z</time><name>PT2096</name></trkpt>
<trkpt lat="52.071265" lon="05.815101"><ele>3.3</ele><time>2021-01-12T13:32:23Z</time><name>PT2097</name></trkpt>
<trkpt lat="52.071267" lon="05.815085"><ele>3.4</ele><time>2021-01-12T13:32:24Z</time><name>PT2098</name></trkpt>
<trkpt lat="52.071270" lon="05.815068"><ele>3.5</ele><time>2021-01-12T13:32:25Z</time><name>PT2099</name></trkpt>
<trkpt lat="52.071273" lon="05.815054"><ele>3.6</ele><time>2021-01-12T13:32:26Z</time><name>PT2100</name></trkpt>
<trkpt lat="52.071276" lon="05.815041"><ele>3.6</ele><time>2021-01-12T13:32:27Z</time><name>PT2101</name></trkpt>
<trkpt lat="52.071281" lon="05.815027"><ele>3.6</ele><time>2021-01-12T13:32:28Z</time><name>PT2102</name></trkpt>
<trkpt lat="52.071286" lon="05.815012"><ele>3.6</ele><time>2021-01-12T13:32:29Z</time><name>PT2103</name></trkpt>
<trkpt lat="52.071290" lon="05.814999"><ele>3.9</ele><time>2021-01-12T13:32:30Z</time><name>PT2104</name></trkpt>
<trkpt lat="52.071293" lon="05.814983"><ele>4.1</ele><time>2021-01-12T13:32:31Z</time><name>PT2105</name></trkpt>
<trkpt lat="52.071296" lon="05.814963"><ele>4.3</ele><time>2021-01-12T13:32:32Z</time><name>PT2106</name></trkpt>
<trkpt lat="52.071300" lon="05.814942"><ele>4.4</ele><time>2021-01-12T13:32:33Z</time><name>PT2107</name></trkpt>
<trkpt lat="52.071304" lon="05.814929"><ele>4.5</ele><time>2021-01-12T13:32:34Z</time><name>PT2108</name></trkpt>
<trkpt lat="52.071310" lon="05.814918"><ele>4.5</ele><time>2021-01-12T13:32:35Z</time><name>PT2109</name></trkpt>
<trkpt lat="52.071315" lon="05.814902"><ele>4.4</ele><time>2021-01-12T13:32:36Z</time><name>PT2110</name></trkpt>
<trkpt lat="52.071320" lon="05.814889"><ele>4.4</ele><time>2021-01-12T13:32:37Z</time><name>PT2111</name></trkpt>
<trkpt lat="52.071325" lon="05.814872"><ele>4.4</ele><time>2021-01-12T13:32:38Z</time><name>PT2112</name></trkpt>
<trkpt lat="52.071329" lon="05.814853"><ele>4.4</ele><time>2021-01-12T13:32:39Z</time><name>PT2113</name></trkpt>
<trkpt lat="52.071334" lon="05.814840"><ele>4.4</ele><time>2021-01-12T13:32:40Z</time><name>PT2114</name></trkpt>
<trkpt lat="52.071337" lon="05.814827"><ele>4.4</ele><time>2021-01-12T13:32:41Z</time><name>PT2115</name></trkpt>
<trkpt lat="52.071343" lon="05.814815"><ele>4</ele><time>2021-01-12T13:32:42Z</time><name>PT2116</name></trkpt>
<trkpt lat="52.071349" lon="05.814801"><ele>4.2</ele><time>2021-01-12T13:32:43Z</time><name>PT2117</name></trkpt>
<trkpt lat="52.071356" lon="05.814789"><ele>4</ele><time>2021-01-12T13:32:44Z</time><name>PT2118</name></trkpt>
<trkpt lat="52.071363" lon="05.814774"><ele>3.8</ele><time>2021-01-12T13:32:45Z</time><name>PT2119</name></trkpt>
<trkpt lat="52.071369" lon="05.814765"><ele>3.8</ele><time>2021-01-12T13:32:46Z</time><name>PT2120</name></trkpt>
<trkpt lat="52.071375" lon="05.814754"><ele>3.4</ele><time>2021-01-12T13:32:47Z</time><name>PT2121</name></trkpt>
<trkpt lat="52.071381" lon="05.814740"><ele>3.3</ele><time>2021-01-12T13:32:48Z</time><name>PT2122</name></trkpt>
<trkpt lat="52.071387" lon="05.814730"><ele>3</ele><time>2021-01-12T13:32:49Z</time><name>PT2123</name></trkpt>
<trkpt lat="52.071392" lon="05.814724"><ele>2.9</ele><time>2021-01-12T13:32:50Z</time><name>PT2124</name></trkpt>
<trkpt lat="52.071394" lon="05.814724"><ele>3</ele><time>2021-01-12T13:32:51Z</time><name>PT2125</name></trkpt>
<trkpt lat="52.071394" lon="05.814722"><ele>3.1</ele><time>2021-01-12T13:32:52Z</time><name>PT2126</name></trkpt>
<trkpt lat="52.071395" lon="05.814721"><ele>3.5</ele><time>2021-01-12T13:32:53Z</time><name>PT2127</name></trkpt>
<trkpt lat="52.071396" lon="05.814716"><ele>3.9</ele><time>2021-01-12T13:32:54Z</time><name>PT2128</name></trkpt>
<trkpt lat="52.071400" lon="05.814713"><ele>4</ele><time>2021-01-12T13:33:01Z</time><name>PT2129</name></trkpt>
<trkpt lat="52.071399" lon="05.814717"><ele>3.9</ele><time>2021-01-12T13:33:02Z</time><name>PT2130</name></trkpt>
<trkpt lat="52.071400" lon="05.814721"><ele>4.1</ele><time>2021-01-12T13:33:03Z</time><name>PT2131</name></trkpt>
<trkpt lat="52.071397" lon="05.814726"><ele>4.1</ele><time>2021-01-12T13:33:04Z</time><name>PT2132</name></trkpt>
<trkpt lat="52.071394" lon="05.814732"><ele>4.2</ele><time>2021-01-12T13:33:05Z</time><name>PT2133</name></trkpt>
<trkpt lat="52.071393" lon="05.814735"><ele>4.2</ele><time>2021-01-12T13:33:06Z</time><name>PT2134</name></trkpt>
<trkpt lat="52.071392" lon="05.814733"><ele>4.2</ele><time>2021-01-12T13:33:07Z</time><name>PT2135</name></trkpt>
<trkpt lat="52.071389" lon="05.814737"><ele>4</ele><time>2021-01-12T13:33:08Z</time><name>PT2136</name></trkpt>
<trkpt lat="52.071387" lon="05.814741"><ele>3.9</ele><time>2021-01-12T13:33:09Z</time><name>PT2137</name></trkpt>
<trkpt lat="52.071387" lon="05.814741"><ele>3.9</ele><time>2021-01-12T13:33:10Z</time><name>PT2138</name></trkpt>
<trkpt lat="52.071387" lon="05.814740"><ele>3.9</ele><time>2021-01-12T13:33:11Z</time><name>PT2139</name></trkpt>
<trkpt lat="52.071388" lon="05.814740"><ele>4</ele><time>2021-01-12T13:33:13Z</time><name>PT2140</name></trkpt>
<trkpt lat="52.071387" lon="05.814729"><ele>4.2</ele><time>2021-01-12T13:33:14Z</time><name>PT2141</name></trkpt>
<trkpt lat="52.071389" lon="05.814720"><ele>4.3</ele><time>2021-01-12T13:33:15Z</time><name>PT2142</name></trkpt>
<trkpt lat="52.071392" lon="05.814708"><ele>4.4</ele><time>2021-01-12T13:33:16Z</time><name>PT2143</name></trkpt>
<trkpt lat="52.071399" lon="05.814699"><ele>4.4</ele><time>2021-01-12T13:33:17Z</time><name>PT2144</name></trkpt>
<trkpt lat="52.071406" lon="05.814691"><ele>4.2</ele><time>2021-01-12T13:33:18Z</time><name>PT2145</name></trkpt>
<trkpt lat="52.071414" lon="05.814681"><ele>3.9</ele><time>2021-01-12T13:33:19Z</time><name>PT2146</name></trkpt>
<trkpt lat="52.071423" lon="05.814670"><ele>3.4</ele><time>2021-01-12T13:33:20Z</time><name>PT2147</name></trkpt>
<trkpt lat="52.071432" lon="05.814656"><ele>3.1</ele><time>2021-01-12T13:33:21Z</time><name>PT2148</name></trkpt>
<trkpt lat="52.071440" lon="05.814647"><ele>2.9</ele><time>2021-01-12T13:33:22Z</time><name>PT2149</name></trkpt>
<trkpt lat="52.071449" lon="05.814639"><ele>2.9</ele><time>2021-01-12T13:33:23Z</time><name>PT2150</name></trkpt>
<trkpt lat="52.071459" lon="05.814631"><ele>3.1</ele><time>2021-01-12T13:33:24Z</time><name>PT2151</name></trkpt>
<trkpt lat="52.071471" lon="05.814620"><ele>2.9</ele><time>2021-01-12T13:33:25Z</time><name>PT2152</name></trkpt>
<trkpt lat="52.071485" lon="05.814607"><ele>2.9</ele><time>2021-01-12T13:33:26Z</time><name>PT2153</name></trkpt>
<trkpt lat="52.071499" lon="05.814597"><ele>2.9</ele><time>2021-01-12T13:33:27Z</time><name>PT2154</name></trkpt>
<trkpt lat="52.071509" lon="05.814586"><ele>2.8</ele><time>2021-01-12T13:33:28Z</time><name>PT2155</name></trkpt>
<trkpt lat="52.071519" lon="05.814577"><ele>2.8</ele><time>2021-01-12T13:33:29Z</time><name>PT2156</name></trkpt>
<trkpt lat="52.071529" lon="05.814567"><ele>2.6</ele><time>2021-01-12T13:33:30Z</time><name>PT2157</name></trkpt>
<trkpt lat="52.071537" lon="05.814559"><ele>2.7</ele><time>2021-01-12T13:33:31Z</time><name>PT2158</name></trkpt>
<trkpt lat="52.071546" lon="05.814551"><ele>2.7</ele><time>2021-01-12T13:33:32Z</time><name>PT2159</name></trkpt>
<trkpt lat="52.071555" lon="05.814543"><ele>2.9</ele><time>2021-01-12T13:33:33Z</time><name>PT2160</name></trkpt>
<trkpt lat="52.071565" lon="05.814534"><ele>2.9</ele><time>2021-01-12T13:33:34Z</time><name>PT2161</name></trkpt>
<trkpt lat="52.071573" lon="05.814523"><ele>3.1</ele><time>2021-01-12T13:33:35Z</time><name>PT2162</name></trkpt>
<trkpt lat="52.071583" lon="05.814513"><ele>3.4</ele><time>2021-01-12T13:33:36Z</time><name>PT2163</name></trkpt>
<trkpt lat="52.071591" lon="05.814504"><ele>3.4</ele><time>2021-01-12T13:33:37Z</time><name>PT2164</name></trkpt>
<trkpt lat="52.071601" lon="05.814491"><ele>3.4</ele><time>2021-01-12T13:33:38Z</time><name>PT2165</name></trkpt>
<trkpt lat="52.071610" lon="05.814481"><ele>3.3</ele><time>2021-01-12T13:33:39Z</time><name>PT2166</name></trkpt>
<trkpt lat="52.071619" lon="05.814471"><ele>3.2</ele><time>2021-01-12T13:33:40Z</time><name>PT2167</name></trkpt>
<trkpt lat="52.071626" lon="05.814462"><ele>3.3</ele><time>2021-01-12T13:33:41Z</time><name>PT2168</name></trkpt>
<trkpt lat="52.071633" lon="05.814451"><ele>3.8</ele><time>2021-01-12T13:33:42Z</time><name>PT2169</name></trkpt>
<trkpt lat="52.071641" lon="05.814435"><ele>3.8</ele><time>2021-01-12T13:33:43Z</time><name>PT2170</name></trkpt>
<trkpt lat="52.071651" lon="05.814423"><ele>3.9</ele><time>2021-01-12T13:33:44Z</time><name>PT2171</name></trkpt>
<trkpt lat="52.071660" lon="05.814412"><ele>3.7</ele><time>2021-01-12T13:33:45Z</time><name>PT2172</name></trkpt>
<trkpt lat="52.071669" lon="05.814401"><ele>3.4</ele><time>2021-01-12T13:33:46Z</time><name>PT2173</name></trkpt>
<trkpt lat="52.071676" lon="05.814388"><ele>3.4</ele><time>2021-01-12T13:33:47Z</time><name>PT2174</name></trkpt>
<trkpt lat="52.071686" lon="05.814374"><ele>3.2</ele><time>2021-01-12T13:33:48Z</time><name>PT2175</name></trkpt>
<trkpt lat="52.071697" lon="05.814364"><ele>3.1</ele><time>2021-01-12T13:33:49Z</time><name>PT2176</name></trkpt>
<trkpt lat="52.071707" lon="05.814357"><ele>3.1</ele><time>2021-01-12T13:33:50Z</time><name>PT2177</name></trkpt>
<trkpt lat="52.071716" lon="05.814347"><ele>3.1</ele><time>2021-01-12T13:33:51Z</time><name>PT2178</name></trkpt>
<trkpt lat="52.071724" lon="05.814342"><ele>2.9</ele><time>2021-01-12T13:33:52Z</time><name>PT2179</name></trkpt>
<trkpt lat="52.071735" lon="05.814337"><ele>3.1</ele><time>2021-01-12T13:33:53Z</time><name>PT2180</name></trkpt>
<trkpt lat="52.071745" lon="05.814333"><ele>3.4</ele><time>2021-01-12T13:33:54Z</time><name>PT2181</name></trkpt>
<trkpt lat="52.071756" lon="05.814326"><ele>3.5</ele><time>2021-01-12T13:33:55Z</time><name>PT2182</name></trkpt>
<trkpt lat="52.071765" lon="05.814318"><ele>3.9</ele><time>2021-01-12T13:33:56Z</time><name>PT2183</name></trkpt>
<trkpt lat="52.071775" lon="05.814310"><ele>4</ele><time>2021-01-12T13:33:57Z</time><name>PT2184</name></trkpt>
<trkpt lat="52.071783" lon="05.814301"><ele>4.1</ele><time>2021-01-12T13:33:58Z</time><name>PT2185</name></trkpt>
<trkpt lat="52.071791" lon="05.814288"><ele>4</ele><time>2021-01-12T13:33:59Z</time><name>PT2186</name></trkpt>
<trkpt lat="52.071801" lon="05.814278"><ele>3.8</ele><time>2021-01-12T13:34:00Z</time><name>PT2187</name></trkpt>
<trkpt lat="52.071810" lon="05.814270"><ele>3.6</ele><time>2021-01-12T13:34:01Z</time><name>PT2188</name></trkpt>
<trkpt lat="52.071816" lon="05.814263"><ele>3.6</ele><time>2021-01-12T13:34:02Z</time><name>PT2189</name></trkpt>
<trkpt lat="52.071821" lon="05.814253"><ele>3.7</ele><time>2021-01-12T13:34:03Z</time><name>PT2190</name></trkpt>
<trkpt lat="52.071830" lon="05.814247"><ele>3.5</ele><time>2021-01-12T13:34:04Z</time><name>PT2191</name></trkpt>
<trkpt lat="52.071842" lon="05.814237"><ele>3.8</ele><time>2021-01-12T13:34:05Z</time><name>PT2192</name></trkpt>
<trkpt lat="52.071856" lon="05.814226"><ele>3.5</ele><time>2021-01-12T13:34:06Z</time><name>PT2193</name></trkpt>
<trkpt lat="52.071867" lon="05.814220"><ele>3.4</ele><time>2021-01-12T13:34:07Z</time><name>PT2194</name></trkpt>
<trkpt lat="52.071878" lon="05.814212"><ele>3.4</ele><time>2021-01-12T13:34:08Z</time><name>PT2195</name></trkpt>
<trkpt lat="52.071889" lon="05.814199"><ele>3.3</ele><time>2021-01-12T13:34:09Z</time><name>PT2196</name></trkpt>
<trkpt lat="52.071901" lon="05.814192"><ele>3.4</ele><time>2021-01-12T13:34:10Z</time><name>PT2197</name></trkpt>
<trkpt lat="52.071910" lon="05.814178"><ele>3.4</ele><time>2021-01-12T13:34:11Z</time><name>PT2198</name></trkpt>
<trkpt lat="52.071919" lon="05.814171"><ele>3.2</ele><time>2021-01-12T13:34:12Z</time><name>PT2199</name></trkpt>
<trkpt lat="52.071929" lon="05.814166"><ele>3.2</ele><time>2021-01-12T13:34:13Z</time><name>PT2200</name></trkpt>
<trkpt lat="52.071938" lon="05.814157"><ele>2.9</ele><time>2021-01-12T13:34:14Z</time><name>PT2201</name></trkpt>
<trkpt lat="52.071948" lon="05.814147"><ele>2.8</ele><time>2021-01-12T13:34:15Z</time><name>PT2202</name></trkpt>
<trkpt lat="52.071961" lon="05.814140"><ele>2.7</ele><time>2021-01-12T13:34:16Z</time><name>PT2203</name></trkpt>
<trkpt lat="52.071971" lon="05.814133"><ele>2.8</ele><time>2021-01-12T13:34:17Z</time><name>PT2204</name></trkpt>
<trkpt lat="52.071983" lon="05.814126"><ele>2.9</ele><time>2021-01-12T13:34:18Z</time><name>PT2205</name></trkpt>
<trkpt lat="52.071992" lon="05.814121"><ele>3.2</ele><time>2021-01-12T13:34:19Z</time><name>PT2206</name></trkpt>
<trkpt lat="52.072003" lon="05.814119"><ele>3.3</ele><time>2021-01-12T13:34:20Z</time><name>PT2207</name></trkpt>
<trkpt lat="52.072013" lon="05.814118"><ele>3.4</ele><time>2021-01-12T13:34:21Z</time><name>PT2208</name></trkpt>
<trkpt lat="52.072023" lon="05.814112"><ele>3.4</ele><time>2021-01-12T13:34:22Z</time><name>PT2209</name></trkpt>
<trkpt lat="52.072032" lon="05.814105"><ele>3.4</ele><time>2021-01-12T13:34:23Z</time><name>PT2210</name></trkpt>
<trkpt lat="52.072041" lon="05.814095"><ele>3.6</ele><time>2021-01-12T13:34:24Z</time><name>PT2211</name></trkpt>
<trkpt lat="52.072049" lon="05.814088"><ele>3.6</ele><time>2021-01-12T13:34:25Z</time><name>PT2212</name></trkpt>
<trkpt lat="52.072056" lon="05.814081"><ele>3.9</ele><time>2021-01-12T13:34:26Z</time><name>PT2213</name></trkpt>
<trkpt lat="52.072064" lon="05.814074"><ele>4.1</ele><time>2021-01-12T13:34:27Z</time><name>PT2214</name></trkpt>
<trkpt lat="52.072070" lon="05.814067"><ele>4.1</ele><time>2021-01-12T13:34:28Z</time><name>PT2215</name></trkpt>
<trkpt lat="52.072076" lon="05.814063"><ele>4.2</ele><time>2021-01-12T13:34:29Z</time><name>PT2216</name></trkpt>
<trkpt lat="52.072082" lon="05.814057"><ele>4.3</ele><time>2021-01-12T13:34:30Z</time><name>PT2217</name></trkpt>
<trkpt lat="52.072089" lon="05.814055"><ele>4.3</ele><time>2021-01-12T13:34:31Z</time><name>PT2218</name></trkpt>
<trkpt lat="52.072096" lon="05.814048"><ele>4.3</ele><time>2021-01-12T13:34:32Z</time><name>PT2219</name></trkpt>
<trkpt lat="52.072103" lon="05.814039"><ele>4.5</ele><time>2021-01-12T13:34:33Z</time><name>PT2220</name></trkpt>
<trkpt lat="52.072109" lon="05.814031"><ele>4.8</ele><time>2021-01-12T13:34:34Z</time><name>PT2221</name></trkpt>
<trkpt lat="52.072115" lon="05.814018"><ele>4.9</ele><time>2021-01-12T13:34:35Z</time><name>PT2222</name></trkpt>
<trkpt lat="52.072121" lon="05.814005"><ele>4.9</ele><time>2021-01-12T13:34:36Z</time><name>PT2223</name></trkpt>
<trkpt lat="52.072128" lon="05.813995"><ele>4.9</ele><time>2021-01-12T13:34:37Z</time><name>PT2224</name></trkpt>
<trkpt lat="52.072135" lon="05.813986"><ele>4.9</ele><time>2021-01-12T13:34:38Z</time><name>PT2225</name></trkpt>
<trkpt lat="52.072141" lon="05.813980"><ele>5.1</ele><time>2021-01-12T13:34:39Z</time><name>PT2226</name></trkpt>
<trkpt lat="52.072144" lon="05.813966"><ele>5.2</ele><time>2021-01-12T13:34:40Z</time><name>PT2227</name></trkpt>
<trkpt lat="52.072149" lon="05.813954"><ele>5.4</ele><time>2021-01-12T13:34:41Z</time><name>PT2228</name></trkpt>
<trkpt lat="52.072156" lon="05.813942"><ele>5.7</ele><time>2021-01-12T13:34:42Z</time><name>PT2229</name></trkpt>
<trkpt lat="52.072164" lon="05.813930"><ele>5.7</ele><time>2021-01-12T13:34:43Z</time><name>PT2230</name></trkpt>
<trkpt lat="52.072171" lon="05.813916"><ele>6</ele><time>2021-01-12T13:34:44Z</time><name>PT2231</name></trkpt>
<trkpt lat="52.072180" lon="05.813909"><ele>5.9</ele><time>2021-01-12T13:34:45Z</time><name>PT2232</name></trkpt>
<trkpt lat="52.072188" lon="05.813900"><ele>6</ele><time>2021-01-12T13:34:46Z</time><name>PT2233</name></trkpt>
<trkpt lat="52.072196" lon="05.813896"><ele>5.9</ele><time>2021-01-12T13:34:47Z</time><name>PT2234</name></trkpt>
<trkpt lat="52.072205" lon="05.813892"><ele>5.8</ele><time>2021-01-12T13:34:48Z</time><name>PT2235</name></trkpt>
<trkpt lat="52.072217" lon="05.813887"><ele>5.6</ele><time>2021-01-12T13:34:49Z</time><name>PT2236</name></trkpt>
<trkpt lat="52.072226" lon="05.813882"><ele>5.5</ele><time>2021-01-12T13:34:50Z</time><name>PT2237</name></trkpt>
<trkpt lat="52.072235" lon="05.813876"><ele>5.4</ele><time>2021-01-12T13:34:51Z</time><name>PT2238</name></trkpt>
<trkpt lat="52.072244" lon="05.813868"><ele>5.4</ele><time>2021-01-12T13:34:52Z</time><name>PT2239</name></trkpt>
<trkpt lat="52.072254" lon="05.813859"><ele>5.4</ele><time>2021-01-12T13:34:53Z</time><name>PT2240</name></trkpt>
<trkpt lat="52.072265" lon="05.813852"><ele>5.4</ele><time>2021-01-12T13:34:54Z</time><name>PT2241</name></trkpt>
<trkpt lat="52.072275" lon="05.813848"><ele>5.4</ele><time>2021-01-12T13:34:55Z</time><name>PT2242</name></trkpt>
<trkpt lat="52.072286" lon="05.813846"><ele>5.4</ele><time>2021-01-12T13:34:56Z</time><name>PT2243</name></trkpt>
<trkpt lat="52.072298" lon="05.813841"><ele>5.4</ele><time>2021-01-12T13:34:57Z</time><name>PT2244</name></trkpt>
<trkpt lat="52.072308" lon="05.813837"><ele>5.3</ele><time>2021-01-12T13:34:58Z</time><name>PT2245</name></trkpt>
<trkpt lat="52.072320" lon="05.813835"><ele>5.1</ele><time>2021-01-12T13:34:59Z</time><name>PT2246</name></trkpt>
<trkpt lat="52.072331" lon="05.813832"><ele>4.9</ele><time>2021-01-12T13:35:00Z</time><name>PT2247</name></trkpt>
<trkpt lat="52.072342" lon="05.813826"><ele>4.9</ele><time>2021-01-12T13:35:01Z</time><name>PT2248</name></trkpt>
<trkpt lat="52.072353" lon="05.813824"><ele>5</ele><time>2021-01-12T13:35:02Z</time><name>PT2249</name></trkpt>
<trkpt lat="52.072362" lon="05.813824"><ele>5.2</ele><time>2021-01-12T13:35:03Z</time><name>PT2250</name></trkpt>
<trkpt lat="52.072373" lon="05.813826"><ele>5.3</ele><time>2021-01-12T13:35:04Z</time><name>PT2251</name></trkpt>
<trkpt lat="52.072384" lon="05.813830"><ele>5.5</ele><time>2021-01-12T13:35:05Z</time><name>PT2252</name></trkpt>
<trkpt lat="52.072391" lon="05.813832"><ele>5.5</ele><time>2021-01-12T13:35:06Z</time><name>PT2253</name></trkpt>
<trkpt lat="52.072399" lon="05.813831"><ele>5.4</ele><time>2021-01-12T13:35:07Z</time><name>PT2254</name></trkpt>
<trkpt lat="52.072407" lon="05.813832"><ele>5.5</ele><time>2021-01-12T13:35:08Z</time><name>PT2255</name></trkpt>
<trkpt lat="52.072418" lon="05.813834"><ele>5.4</ele><time>2021-01-12T13:35:09Z</time><name>PT2256</name></trkpt>
<trkpt lat="52.072428" lon="05.813835"><ele>5.4</ele><time>2021-01-12T13:35:10Z</time><name>PT2257</name></trkpt>
<trkpt lat="52.072439" lon="05.813838"><ele>5.4</ele><time>2021-01-12T13:35:11Z</time><name>PT2258</name></trkpt>
<trkpt lat="52.072449" lon="05.813845"><ele>5.3</ele><time>2021-01-12T13:35:12Z</time><name>PT2259</name></trkpt>
<trkpt lat="52.072456" lon="05.813849"><ele>5.2</ele><time>2021-01-12T13:35:13Z</time><name>PT2260</name></trkpt>
<trkpt lat="52.072464" lon="05.813852"><ele>5.1</ele><time>2021-01-12T13:35:14Z</time><name>PT2261</name></trkpt>
<trkpt lat="52.072475" lon="05.813857"><ele>4.9</ele><time>2021-01-12T13:35:15Z</time><name>PT2262</name></trkpt>
<trkpt lat="52.072482" lon="05.813861"><ele>4.9</ele><time>2021-01-12T13:35:16Z</time><name>PT2263</name></trkpt>
<trkpt lat="52.072490" lon="05.813869"><ele>4.8</ele><time>2021-01-12T13:35:17Z</time><name>PT2264</name></trkpt>
<trkpt lat="52.072498" lon="05.813875"><ele>4.7</ele><time>2021-01-12T13:35:18Z</time><name>PT2265</name></trkpt>
<trkpt lat="52.072506" lon="05.813880"><ele>4.4</ele><time>2021-01-12T13:35:19Z</time><name>PT2266</name></trkpt>
<trkpt lat="52.072518" lon="05.813882"><ele>4.4</ele><time>2021-01-12T13:35:20Z</time><name>PT2267</name></trkpt>
<trkpt lat="52.072533" lon="05.813881"><ele>4.1</ele><time>2021-01-12T13:35:21Z</time><name>PT2268</name></trkpt>
<trkpt lat="52.072546" lon="05.813880"><ele>3.9</ele><time>2021-01-12T13:35:22Z</time><name>PT2269</name></trkpt>
<trkpt lat="52.072557" lon="05.813879"><ele>3.9</ele><time>2021-01-12T13:35:23Z</time><name>PT2270</name></trkpt>
<trkpt lat="52.072567" lon="05.813877"><ele>3.8</ele><time>2021-01-12T13:35:24Z</time><name>PT2271</name></trkpt>
<trkpt lat="52.072577" lon="05.813878"><ele>3.9</ele><time>2021-01-12T13:35:25Z</time><name>PT2272</name></trkpt>
<trkpt lat="52.072590" lon="05.813878"><ele>3.9</ele><time>2021-01-12T13:35:26Z</time><name>PT2273</name></trkpt>
<trkpt lat="52.072603" lon="05.813876"><ele>3.9</ele><time>2021-01-12T13:35:27Z</time><name>PT2274</name></trkpt>
<trkpt lat="52.072616" lon="05.813873"><ele>3.7</ele><time>2021-01-12T13:35:28Z</time><name>PT2275</name></trkpt>
<trkpt lat="52.072628" lon="05.813869"><ele>3.6</ele><time>2021-01-12T13:35:29Z</time><name>PT2276</name></trkpt>
<trkpt lat="52.072637" lon="05.813863"><ele>3.4</ele><time>2021-01-12T13:35:30Z</time><name>PT2277</name></trkpt>
<trkpt lat="52.072646" lon="05.813858"><ele>3.4</ele><time>2021-01-12T13:35:31Z</time><name>PT2278</name></trkpt>
<trkpt lat="52.072656" lon="05.813850"><ele>3.4</ele><time>2021-01-12T13:35:32Z</time><name>PT2279</name></trkpt>
<trkpt lat="52.072664" lon="05.813841"><ele>3.4</ele><time>2021-01-12T13:35:33Z</time><name>PT2280</name></trkpt>
<trkpt lat="52.072673" lon="05.813832"><ele>3.5</ele><time>2021-01-12T13:35:34Z</time><name>PT2281</name></trkpt>
<trkpt lat="52.072680" lon="05.813825"><ele>3.4</ele><time>2021-01-12T13:35:35Z</time><name>PT2282</name></trkpt>
<trkpt lat="52.072685" lon="05.813817"><ele>3.6</ele><time>2021-01-12T13:35:36Z</time><name>PT2283</name></trkpt>
<trkpt lat="52.072691" lon="05.813811"><ele>3.8</ele><time>2021-01-12T13:35:37Z</time><name>PT2284</name></trkpt>
<trkpt lat="52.072698" lon="05.813800"><ele>3.9</ele><time>2021-01-12T13:35:38Z</time><name>PT2285</name></trkpt>
<trkpt lat="52.072704" lon="05.813789"><ele>4.3</ele><time>2021-01-12T13:35:39Z</time><name>PT2286</name></trkpt>
<trkpt lat="52.072710" lon="05.813779"><ele>4.4</ele><time>2021-01-12T13:35:40Z</time><name>PT2287</name></trkpt>
<trkpt lat="52.072717" lon="05.813766"><ele>4.5</ele><time>2021-01-12T13:35:41Z</time><name>PT2288</name></trkpt>
<trkpt lat="52.072723" lon="05.813757"><ele>4.7</ele><time>2021-01-12T13:35:42Z</time><name>PT2289</name></trkpt>
<trkpt lat="52.072729" lon="05.813751"><ele>4.6</ele><time>2021-01-12T13:35:43Z</time><name>PT2290</name></trkpt>
<trkpt lat="52.072736" lon="05.813742"><ele>4.7</ele><time>2021-01-12T13:35:44Z</time><name>PT2291</name></trkpt>
<trkpt lat="52.072742" lon="05.813730"><ele>4.9</ele><time>2021-01-12T13:35:45Z</time><name>PT2292</name></trkpt>
<trkpt lat="52.072750" lon="05.813719"><ele>5</ele><time>2021-01-12T13:35:46Z</time><name>PT2293</name></trkpt>
<trkpt lat="52.072756" lon="05.813707"><ele>5.1</ele><time>2021-01-12T13:35:47Z</time><name>PT2294</name></trkpt>
<trkpt lat="52.072765" lon="05.813697"><ele>5</ele><time>2021-01-12T13:35:48Z</time><name>PT2295</name></trkpt>
<trkpt lat="52.072773" lon="05.813687"><ele>5</ele><time>2021-01-12T13:35:49Z</time><name>PT2296</name></trkpt>
<trkpt lat="52.072780" lon="05.813677"><ele>4.9</ele><time>2021-01-12T13:35:50Z</time><name>PT2297</name></trkpt>
<trkpt lat="52.072789" lon="05.813667"><ele>4.9</ele><time>2021-01-12T13:35:51Z</time><name>PT2298</name></trkpt>
<trkpt lat="52.072798" lon="05.813659"><ele>4.8</ele><time>2021-01-12T13:35:52Z</time><name>PT2299</name></trkpt>
<trkpt lat="52.072806" lon="05.813652"><ele>4.6</ele><time>2021-01-12T13:35:53Z</time><name>PT2300</name></trkpt>
<trkpt lat="52.072811" lon="05.813645"><ele>4.4</ele><time>2021-01-12T13:35:54Z</time><name>PT2301</name></trkpt>
<trkpt lat="52.072818" lon="05.813639"><ele>4.2</ele><time>2021-01-12T13:35:55Z</time><name>PT2302</name></trkpt>
<trkpt lat="52.072826" lon="05.813635"><ele>3.8</ele><time>2021-01-12T13:35:56Z</time><name>PT2303</name></trkpt>
<trkpt lat="52.072835" lon="05.813629"><ele>3.6</ele><time>2021-01-12T13:35:57Z</time><name>PT2304</name></trkpt>
<trkpt lat="52.072846" lon="05.813622"><ele>3.6</ele><time>2021-01-12T13:35:58Z</time><name>PT2305</name></trkpt>
<trkpt lat="52.072856" lon="05.813616"><ele>3.5</ele><time>2021-01-12T13:35:59Z</time><name>PT2306</name></trkpt>
<trkpt lat="52.072868" lon="05.813609"><ele>3.8</ele><time>2021-01-12T13:36:00Z</time><name>PT2307</name></trkpt>
<trkpt lat="52.072882" lon="05.813601"><ele>4</ele><time>2021-01-12T13:36:01Z</time><name>PT2308</name></trkpt>
<trkpt lat="52.072896" lon="05.813595"><ele>4</ele><time>2021-01-12T13:36:02Z</time><name>PT2309</name></trkpt>
<trkpt lat="52.072908" lon="05.813587"><ele>4.1</ele><time>2021-01-12T13:36:03Z</time><name>PT2310</name></trkpt>
<trkpt lat="52.072918" lon="05.813578"><ele>4.1</ele><time>2021-01-12T13:36:04Z</time><name>PT2311</name></trkpt>
<trkpt lat="52.072929" lon="05.813568"><ele>4.2</ele><time>2021-01-12T13:36:05Z</time><name>PT2312</name></trkpt>
<trkpt lat="52.072939" lon="05.813558"><ele>4.2</ele><time>2021-01-12T13:36:06Z</time><name>PT2313</name></trkpt>
<trkpt lat="52.072948" lon="05.813552"><ele>4.3</ele><time>2021-01-12T13:36:07Z</time><name>PT2314</name></trkpt>
<trkpt lat="52.072959" lon="05.813547"><ele>4.4</ele><time>2021-01-12T13:36:08Z</time><name>PT2315</name></trkpt>
<trkpt lat="52.072967" lon="05.813540"><ele>4.4</ele><time>2021-01-12T13:36:09Z</time><name>PT2316</name></trkpt>
<trkpt lat="52.072975" lon="05.813532"><ele>4.5</ele><time>2021-01-12T13:36:10Z</time><name>PT2317</name></trkpt>
<trkpt lat="52.072982" lon="05.813523"><ele>4.5</ele><time>2021-01-12T13:36:11Z</time><name>PT2318</name></trkpt>
<trkpt lat="52.072990" lon="05.813518"><ele>4.6</ele><time>2021-01-12T13:36:12Z</time><name>PT2319</name></trkpt>
<trkpt lat="52.072996" lon="05.813513"><ele>4.6</ele><time>2021-01-12T13:36:13Z</time><name>PT2320</name></trkpt>
<trkpt lat="52.073006" lon="05.813511"><ele>4.6</ele><time>2021-01-12T13:36:14Z</time><name>PT2321</name></trkpt>
<trkpt lat="52.073015" lon="05.813506"><ele>4.7</ele><time>2021-01-12T13:36:15Z</time><name>PT2322</name></trkpt>
<trkpt lat="52.073023" lon="05.813501"><ele>4.8</ele><time>2021-01-12T13:36:16Z</time><name>PT2323</name></trkpt>
<trkpt lat="52.073030" lon="05.813495"><ele>4.9</ele><time>2021-01-12T13:36:17Z</time><name>PT2324</name></trkpt>
<trkpt lat="52.073038" lon="05.813487"><ele>5</ele><time>2021-01-12T13:36:18Z</time><name>PT2325</name></trkpt>
<trkpt lat="52.073046" lon="05.813478"><ele>4.9</ele><time>2021-01-12T13:36:19Z</time><name>PT2326</name></trkpt>
<trkpt lat="52.073051" lon="05.813473"><ele>4.8</ele><time>2021-01-12T13:36:20Z</time><name>PT2327</name></trkpt>
<trkpt lat="52.073059" lon="05.813468"><ele>4.8</ele><time>2021-01-12T13:36:21Z</time><name>PT2328</name></trkpt>
<trkpt lat="52.073067" lon="05.813462"><ele>4.9</ele><time>2021-01-12T13:36:22Z</time><name>PT2329</name></trkpt>
<trkpt lat="52.073075" lon="05.813456"><ele>5.1</ele><time>2021-01-12T13:36:23Z</time><name>PT2330</name></trkpt>
<trkpt lat="52.073084" lon="05.813454"><ele>5.2</ele><time>2021-01-12T13:36:24Z</time><name>PT2331</name></trkpt>
<trkpt lat="52.073092" lon="05.813447"><ele>5.2</ele><time>2021-01-12T13:36:25Z</time><name>PT2332</name></trkpt>
<trkpt lat="52.073098" lon="05.813441"><ele>5.3</ele><time>2021-01-12T13:36:26Z</time><name>PT2333</name></trkpt>
<trkpt lat="52.073104" lon="05.813434"><ele>5.4</ele><time>2021-01-12T13:36:27Z</time><name>PT2334</name></trkpt>
<trkpt lat="52.073106" lon="05.813431"><ele>5.5</ele><time>2021-01-12T13:36:28Z</time><name>PT2335</name></trkpt>
<trkpt lat="52.073107" lon="05.813429"><ele>5.7</ele><time>2021-01-12T13:36:29Z</time><name>PT2336</name></trkpt>
<trkpt lat="52.073106" lon="05.813431"><ele>5.7</ele><time>2021-01-12T13:36:30Z</time><name>PT2337</name></trkpt>
<trkpt lat="52.073106" lon="05.813432"><ele>5.6</ele><time>2021-01-12T13:36:31Z</time><name>PT2338</name></trkpt>
<trkpt lat="52.073113" lon="05.813426"><ele>6.3</ele><time>2021-01-12T13:36:40Z</time><name>PT2339</name></trkpt>
<trkpt lat="52.073117" lon="05.813425"><ele>6</ele><time>2021-01-12T13:36:41Z</time><name>PT2340</name></trkpt>
<trkpt lat="52.073123" lon="05.813424"><ele>6.1</ele><time>2021-01-12T13:36:48Z</time><name>PT2341</name></trkpt>
<trkpt lat="52.073130" lon="05.813421"><ele>5.9</ele><time>2021-01-12T13:36:49Z</time><name>PT2342</name></trkpt>
<trkpt lat="52.073136" lon="05.813417"><ele>5.7</ele><time>2021-01-12T13:36:50Z</time><name>PT2343</name></trkpt>
<trkpt lat="52.073141" lon="05.813415"><ele>5.5</ele><time>2021-01-12T13:36:51Z</time><name>PT2344</name></trkpt>
<trkpt lat="52.073149" lon="05.813412"><ele>5.4</ele><time>2021-01-12T13:36:52Z</time><name>PT2345</name></trkpt>
<trkpt lat="52.073157" lon="05.813409"><ele>5.4</ele><time>2021-01-12T13:36:53Z</time><name>PT2346</name></trkpt>
<trkpt lat="52.073164" lon="05.813405"><ele>5.4</ele><time>2021-01-12T13:36:54Z</time><name>PT2347</name></trkpt>
<trkpt lat="52.073168" lon="05.813401"><ele>5.5</ele><time>2021-01-12T13:36:55Z</time><name>PT2348</name></trkpt>
<trkpt lat="52.073173" lon="05.813399"><ele>5.6</ele><time>2021-01-12T13:36:56Z</time><name>PT2349</name></trkpt>
<trkpt lat="52.073179" lon="05.813396"><ele>5.6</ele><time>2021-01-12T13:36:57Z</time><name>PT2350</name></trkpt>
<trkpt lat="52.073184" lon="05.813390"><ele>5.7</ele><time>2021-01-12T13:36:58Z</time><name>PT2351</name></trkpt>
<trkpt lat="52.073188" lon="05.813384"><ele>6</ele><time>2021-01-12T13:36:59Z</time><name>PT2352</name></trkpt>
<trkpt lat="52.073192" lon="05.813382"><ele>6.3</ele><time>2021-01-12T13:37:00Z</time><name>PT2353</name></trkpt>
<trkpt lat="52.073194" lon="05.813382"><ele>6.3</ele><time>2021-01-12T13:37:01Z</time><name>PT2354</name></trkpt>
<trkpt lat="52.073195" lon="05.813380"><ele>6.9</ele><time>2021-01-12T13:37:02Z</time><name>PT2355</name></trkpt>
<trkpt lat="52.073196" lon="05.813379"><ele>7.7</ele><time>2021-01-12T13:37:05Z</time><name>PT2356</name></trkpt>
<trkpt lat="52.073203" lon="05.813374"><ele>7.7</ele><time>2021-01-12T13:37:06Z</time><name>PT2357</name></trkpt>
<trkpt lat="52.073209" lon="05.813371"><ele>7.8</ele><time>2021-01-12T13:37:07Z</time><name>PT2358</name></trkpt>
<trkpt lat="52.073211" lon="05.813368"><ele>7.6</ele><time>2021-01-12T13:37:08Z</time><name>PT2359</name></trkpt>
<trkpt lat="52.073211" lon="05.813371"><ele>7.9</ele><time>2021-01-12T13:37:09Z</time><name>PT2360</name></trkpt>
<trkpt lat="52.073212" lon="05.813374"><ele>8</ele><time>2021-01-12T13:37:10Z</time><name>PT2361</name></trkpt>
<trkpt lat="52.073213" lon="05.813365"><ele>8.1</ele><time>2021-01-12T13:37:11Z</time><name>PT2362</name></trkpt>
<trkpt lat="52.073219" lon="05.813358"><ele>8.2</ele><time>2021-01-12T13:37:12Z</time><name>PT2363</name></trkpt>
<trkpt lat="52.073227" lon="05.813361"><ele>8.2</ele><time>2021-01-12T13:37:13Z</time><name>PT2364</name></trkpt>
<trkpt lat="52.073234" lon="05.813363"><ele>8</ele><time>2021-01-12T13:37:14Z</time><name>PT2365</name></trkpt>
<trkpt lat="52.073240" lon="05.813361"><ele>7.9</ele><time>2021-01-12T13:37:15Z</time><name>PT2366</name></trkpt>
<trkpt lat="52.073247" lon="05.813358"><ele>7.9</ele><time>2021-01-12T13:37:16Z</time><name>PT2367</name></trkpt>
<trkpt lat="52.073253" lon="05.813358"><ele>8.1</ele><time>2021-01-12T13:37:17Z</time><name>PT2368</name></trkpt>
<trkpt lat="52.073257" lon="05.813357"><ele>8.4</ele><time>2021-01-12T13:37:18Z</time><name>PT2369</name></trkpt>
<trkpt lat="52.073259" lon="05.813358"><ele>8.6</ele><time>2021-01-12T13:37:19Z</time><name>PT2370</name></trkpt>
<trkpt lat="52.073259" lon="05.813358"><ele>8.8</ele><time>2021-01-12T13:37:20Z</time><name>PT2371</name></trkpt>
<trkpt lat="52.073260" lon="05.813358"><ele>8.6</ele><time>2021-01-12T13:37:21Z</time><name>PT2372</name></trkpt>
<trkpt lat="52.073260" lon="05.813354"><ele>7.9</ele><time>2021-01-12T13:37:24Z</time><name>PT2373</name></trkpt>
<trkpt lat="52.073263" lon="05.813356"><ele>7.7</ele><time>2021-01-12T13:37:25Z</time><name>PT2374</name></trkpt>
<trkpt lat="52.073265" lon="05.813356"><ele>7.7</ele><time>2021-01-12T13:37:26Z</time><name>PT2375</name></trkpt>
<trkpt lat="52.073265" lon="05.813356"><ele>7.7</ele><time>2021-01-12T13:37:27Z</time><name>PT2376</name></trkpt>
<trkpt lat="52.073266" lon="05.813356"><ele>7.7</ele><time>2021-01-12T13:37:28Z</time><name>PT2377</name></trkpt>
<trkpt lat="52.073268" lon="05.813356"><ele>7.9</ele><time>2021-01-12T13:37:43Z</time><name>PT2378</name></trkpt>
<trkpt lat="52.073275" lon="05.813359"><ele>7.7</ele><time>2021-01-12T13:37:44Z</time><name>PT2379</name></trkpt>
<trkpt lat="52.073276" lon="05.813360"><ele>7.7</ele><time>2021-01-12T13:37:45Z</time><name>PT2380</name></trkpt>
<trkpt lat="52.073277" lon="05.813354"><ele>7.8</ele><time>2021-01-12T13:37:46Z</time><name>PT2381</name></trkpt>
<trkpt lat="52.073279" lon="05.813350"><ele>7.7</ele><time>2021-01-12T13:37:47Z</time><name>PT2382</name></trkpt>
<trkpt lat="52.073280" lon="05.813349"><ele>7.8</ele><time>2021-01-12T13:37:48Z</time><name>PT2383</name></trkpt>
<trkpt lat="52.073282" lon="05.813347"><ele>7.9</ele><time>2021-01-12T13:37:49Z</time><name>PT2384</name></trkpt>
<trkpt lat="52.073284" lon="05.813342"><ele>7.8</ele><time>2021-01-12T13:38:00Z</time><name>PT2385</name></trkpt>
<trkpt lat="52.073290" lon="05.813342"><ele>7.6</ele><time>2021-01-12T13:38:01Z</time><name>PT2386</name></trkpt>
<trkpt lat="52.073292" lon="05.813345"><ele>7.4</ele><time>2021-01-12T13:38:02Z</time><name>PT2387</name></trkpt>
<trkpt lat="52.073297" lon="05.813346"><ele>7.4</ele><time>2021-01-12T13:38:03Z</time><name>PT2388</name></trkpt>
<trkpt lat="52.073301" lon="05.813345"><ele>7.4</ele><time>2021-01-12T13:38:04Z</time><name>PT2389</name></trkpt>
<trkpt lat="52.073303" lon="05.813345"><ele>7.4</ele><time>2021-01-12T13:38:05Z</time><name>PT2390</name></trkpt>
<trkpt lat="52.073304" lon="05.813345"><ele>7.3</ele><time>2021-01-12T13:38:06Z</time><name>PT2391</name></trkpt>
<trkpt lat="52.073305" lon="05.813345"><ele>7.2</ele><time>2021-01-12T13:38:07Z</time><name>PT2392</name></trkpt>
<trkpt lat="52.073309" lon="05.813344"><ele>7</ele><time>2021-01-12T13:38:09Z</time><name>PT2393</name></trkpt>
<trkpt lat="52.073311" lon="05.813345"><ele>7.1</ele><time>2021-01-12T13:38:10Z</time><name>PT2394</name></trkpt>
<trkpt lat="52.073313" lon="05.813345"><ele>7.4</ele><time>2021-01-12T13:38:11Z</time><name>PT2395</name></trkpt>
<trkpt lat="52.073314" lon="05.813345"><ele>7.6</ele><time>2021-01-12T13:38:12Z</time><name>PT2396</name></trkpt>
<trkpt lat="52.073314" lon="05.813344"><ele>7.8</ele><time>2021-01-12T13:38:13Z</time><name>PT2397</name></trkpt>
<trkpt lat="52.073316" lon="05.813343"><ele>7.5</ele><time>2021-01-12T13:38:24Z</time><name>PT2398</name></trkpt>
<trkpt lat="52.073324" lon="05.813341"><ele>7.6</ele><time>2021-01-12T13:38:25Z</time><name>PT2399</name></trkpt>
<trkpt lat="52.073333" lon="05.813337"><ele>7.4</ele><time>2021-01-12T13:38:26Z</time><name>PT2400</name></trkpt>
<trkpt lat="52.073341" lon="05.813332"><ele>7.3</ele><time>2021-01-12T13:38:27Z</time><name>PT2401</name></trkpt>
<trkpt lat="52.073351" lon="05.813322"><ele>7.2</ele><time>2021-01-12T13:38:28Z</time><name>PT2402</name></trkpt>
<trkpt lat="52.073359" lon="05.813316"><ele>7.1</ele><time>2021-01-12T13:38:29Z</time><name>PT2403</name></trkpt>
<trkpt lat="52.073365" lon="05.813307"><ele>7.1</ele><time>2021-01-12T13:38:30Z</time><name>PT2404</name></trkpt>
<trkpt lat="52.073369" lon="05.813294"><ele>7.1</ele><time>2021-01-12T13:38:31Z</time><name>PT2405</name></trkpt>
<trkpt lat="52.073374" lon="05.813281"><ele>7</ele><time>2021-01-12T13:38:32Z</time><name>PT2406</name></trkpt>
<trkpt lat="52.073379" lon="05.813270"><ele>6.9</ele><time>2021-01-12T13:38:33Z</time><name>PT2407</name></trkpt>
<trkpt lat="52.073385" lon="05.813259"><ele>6.9</ele><time>2021-01-12T13:38:34Z</time><name>PT2408</name></trkpt>
<trkpt lat="52.073387" lon="05.813253"><ele>6.6</ele><time>2021-01-12T13:38:35Z</time><name>PT2409</name></trkpt>
<trkpt lat="52.073388" lon="05.813252"><ele>6.4</ele><time>2021-01-12T13:38:36Z</time><name>PT2410</name></trkpt>
<trkpt lat="52.073388" lon="05.813252"><ele>6.4</ele><time>2021-01-12T13:38:37Z</time><name>PT2411</name></trkpt>
<trkpt lat="52.073389" lon="05.813252"><ele>6.4</ele><time>2021-01-12T13:38:38Z</time><name>PT2412</name></trkpt>
<trkpt lat="52.073389" lon="05.813240"><ele>6.1</ele><time>2021-01-12T13:38:40Z</time><name>PT2413</name></trkpt>
<trkpt lat="52.073393" lon="05.813223"><ele>6.2</ele><time>2021-01-12T13:38:41Z</time><name>PT2414</name></trkpt>
<trkpt lat="52.073400" lon="05.813207"><ele>6.3</ele><time>2021-01-12T13:38:42Z</time><name>PT2415</name></trkpt>
<trkpt lat="52.073405" lon="05.813189"><ele>6.2</ele><time>2021-01-12T13:38:43Z</time><name>PT2416</name></trkpt>
<trkpt lat="52.073410" lon="05.813171"><ele>6.4</ele><time>2021-01-12T13:38:44Z</time><name>PT2417</name></trkpt>
<trkpt lat="52.073412" lon="05.813155"><ele>6.4</ele><time>2021-01-12T13:38:45Z</time><name>PT2418</name></trkpt>
<trkpt lat="52.073412" lon="05.813140"><ele>6.4</ele><time>2021-01-12T13:38:46Z</time><name>PT2419</name></trkpt>
<trkpt lat="52.073406" lon="05.813138"><ele>6.2</ele><time>2021-01-12T13:38:47Z</time><name>PT2420</name></trkpt>
<trkpt lat="52.073403" lon="05.813137"><ele>6.1</ele><time>2021-01-12T13:38:48Z</time><name>PT2421</name></trkpt>
<trkpt lat="52.073404" lon="05.813135"><ele>6</ele><time>2021-01-12T13:38:49Z</time><name>PT2422</name></trkpt>
<trkpt lat="52.073403" lon="05.813134"><ele>6</ele><time>2021-01-12T13:38:50Z</time><name>PT2423</name></trkpt>
<trkpt lat="52.073400" lon="05.813136"><ele>6.1</ele><time>2021-01-12T13:38:51Z</time><name>PT2424</name></trkpt>
<trkpt lat="52.073400" lon="05.813135"><ele>6.1</ele><time>2021-01-12T13:38:52Z</time><name>PT2425</name></trkpt>
<trkpt lat="52.073404" lon="05.813134"><ele>6.3</ele><time>2021-01-12T13:38:53Z</time><name>PT2426</name></trkpt>
<trkpt lat="52.073405" lon="05.813135"><ele>6.4</ele><time>2021-01-12T13:38:54Z</time><name>PT2427</name></trkpt>
<trkpt lat="52.073405" lon="05.813134"><ele>6.3</ele><time>2021-01-12T13:38:55Z</time><name>PT2428</name></trkpt>
<trkpt lat="52.073405" lon="05.813135"><ele>6.1</ele><time>2021-01-12T13:38:56Z</time><name>PT2429</name></trkpt>
<trkpt lat="52.073402" lon="05.813134"><ele>6.2</ele><time>2021-01-12T13:39:01Z</time><name>PT2430</name></trkpt>
<trkpt lat="52.073403" lon="05.813131"><ele>6.2</ele><time>2021-01-12T13:39:02Z</time><name>PT2431</name></trkpt>
<trkpt lat="52.073404" lon="05.813132"><ele>6.2</ele><time>2021-01-12T13:39:03Z</time><name>PT2432</name></trkpt>
<trkpt lat="52.073406" lon="05.813126"><ele>5.8</ele><time>2021-01-12T13:39:06Z</time><name>PT2433</name></trkpt>
<trkpt lat="52.073409" lon="05.813107"><ele>5.8</ele><time>2021-01-12T13:39:07Z</time><name>PT2434</name></trkpt>
<trkpt lat="52.073413" lon="05.813092"><ele>5.8</ele><time>2021-01-12T13:39:08Z</time><name>PT2435</name></trkpt>
<trkpt lat="52.073415" lon="05.813074"><ele>5.8</ele><time>2021-01-12T13:39:09Z</time><name>PT2436</name></trkpt>
<trkpt lat="52.073416" lon="05.813059"><ele>5.6</ele><time>2021-01-12T13:39:10Z</time><name>PT2437</name></trkpt>
<trkpt lat="52.073416" lon="05.813040"><ele>5.5</ele><time>2021-01-12T13:39:11Z</time><name>PT2438</name></trkpt>
<trkpt lat="52.073416" lon="05.813024"><ele>5.4</ele><time>2021-01-12T13:39:12Z</time><name>PT2439</name></trkpt>
<trkpt lat="52.073419" lon="05.813011"><ele>5.4</ele><time>2021-01-12T13:39:13Z</time><name>PT2440</name></trkpt>
<trkpt lat="52.073421" lon="05.812996"><ele>5.4</ele><time>2021-01-12T13:39:14Z</time><name>PT2441</name></trkpt>
<trkpt lat="52.073423" lon="05.812984"><ele>5.4</ele><time>2021-01-12T13:39:15Z</time><name>PT2442</name></trkpt>
<trkpt lat="52.073425" lon="05.812971"><ele>5.4</ele><time>2021-01-12T13:39:16Z</time><name>PT2443</name></trkpt>
<trkpt lat="52.073426" lon="05.812958"><ele>5.6</ele><time>2021-01-12T13:39:17Z</time><name>PT2444</name></trkpt>
<trkpt lat="52.073427" lon="05.812946"><ele>5.8</ele><time>2021-01-12T13:39:18Z</time><name>PT2445</name></trkpt>
<trkpt lat="52.073427" lon="05.812933"><ele>5.7</ele><time>2021-01-12T13:39:19Z</time><name>PT2446</name></trkpt>
<trkpt lat="52.073428" lon="05.812921"><ele>5.8</ele><time>2021-01-12T13:39:20Z</time><name>PT2447</name></trkpt>
<trkpt lat="52.073431" lon="05.812909"><ele>5.8</ele><time>2021-01-12T13:39:21Z</time><name>PT2448</name></trkpt>
<trkpt lat="52.073432" lon="05.812898"><ele>5.6</ele><time>2021-01-12T13:39:22Z</time><name>PT2449</name></trkpt>
<trkpt lat="52.073431" lon="05.812884"><ele>5.4</ele><time>2021-01-12T13:39:23Z</time><name>PT2450</name></trkpt>
<trkpt lat="52.073429" lon="05.812871"><ele>5.2</ele><time>2021-01-12T13:39:24Z</time><name>PT2451</name></trkpt>
<trkpt lat="52.073428" lon="05.812859"><ele>5.1</ele><time>2021-01-12T13:39:25Z</time><name>PT2452</name></trkpt>
<trkpt lat="52.073429" lon="05.812850"><ele>5.1</ele><time>2021-01-12T13:39:26Z</time><name>PT2453</name></trkpt>
<trkpt lat="52.073427" lon="05.812840"><ele>5</ele><time>2021-01-12T13:39:27Z</time><name>PT2454</name></trkpt>
<trkpt lat="52.073424" lon="05.812829"><ele>4.9</ele><time>2021-01-12T13:39:28Z</time><name>PT2455</name></trkpt>
<trkpt lat="52.073422" lon="05.812817"><ele>4.8</ele><time>2021-01-12T13:39:29Z</time><name>PT2456</name></trkpt>
<trkpt lat="52.073421" lon="05.812807"><ele>4.5</ele><time>2021-01-12T13:39:30Z</time><name>PT2457</name></trkpt>
<trkpt lat="52.073420" lon="05.812796"><ele>4.4</ele><time>2021-01-12T13:39:31Z</time><name>PT2458</name></trkpt>
<trkpt lat="52.073419" lon="05.812786"><ele>4.3</ele><time>2021-01-12T13:39:32Z</time><name>PT2459</name></trkpt>
<trkpt lat="52.073419" lon="05.812777"><ele>4.4</ele><time>2021-01-12T13:39:33Z</time><name>PT2460</name></trkpt>
<trkpt lat="52.073418" lon="05.812771"><ele>4.4</ele><time>2021-01-12T13:39:34Z</time><name>PT2461</name></trkpt>
<trkpt lat="52.073418" lon="05.812770"><ele>4.4</ele><time>2021-01-12T13:39:35Z</time><name>PT2462</name></trkpt>
<trkpt lat="52.073418" lon="05.812768"><ele>4.4</ele><time>2021-01-12T13:39:36Z</time><name>PT2463</name></trkpt>
<trkpt lat="52.073414" lon="05.812735"><ele>4</ele><time>2021-01-12T13:39:49Z</time><name>PT2464</name></trkpt>
<trkpt lat="52.073413" lon="05.812719"><ele>3.9</ele><time>2021-01-12T13:39:50Z</time><name>PT2465</name></trkpt>
<trkpt lat="52.073412" lon="05.812704"><ele>4</ele><time>2021-01-12T13:39:51Z</time><name>PT2466</name></trkpt>
<trkpt lat="52.073412" lon="05.812698"><ele>3.9</ele><time>2021-01-12T13:39:52Z</time><name>PT2467</name></trkpt>
<trkpt lat="52.073413" lon="05.812694"><ele>4</ele><time>2021-01-12T13:39:53Z</time><name>PT2468</name></trkpt>
<trkpt lat="52.073413" lon="05.812690"><ele>4</ele><time>2021-01-12T13:39:54Z</time><name>PT2469</name></trkpt>
<trkpt lat="52.073413" lon="05.812688"><ele>4</ele><time>2021-01-12T13:39:55Z</time><name>PT2470</name></trkpt>
<trkpt lat="52.073409" lon="05.812685"><ele>3.7</ele><time>2021-01-12T13:40:11Z</time><name>PT2471</name></trkpt>
<trkpt lat="52.073407" lon="05.812681"><ele>3.8</ele><time>2021-01-12T13:40:12Z</time><name>PT2472</name></trkpt>
<trkpt lat="52.073406" lon="05.812678"><ele>3.8</ele><time>2021-01-12T13:40:13Z</time><name>PT2473</name></trkpt>
<trkpt lat="52.073406" lon="05.812678"><ele>3.9</ele><time>2021-01-12T13:40:14Z</time><name>PT2474</name></trkpt>
<trkpt lat="52.073407" lon="05.812678"><ele>3.7</ele><time>2021-01-12T13:40:15Z</time><name>PT2475</name></trkpt>
<trkpt lat="52.073408" lon="05.812675"><ele>3.9</ele><time>2021-01-12T13:40:16Z</time><name>PT2476</name></trkpt>
<trkpt lat="52.073406" lon="05.812675"><ele>3.9</ele><time>2021-01-12T13:40:17Z</time><name>PT2477</name></trkpt>
<trkpt lat="52.073406" lon="05.812673"><ele>4</ele><time>2021-01-12T13:40:18Z</time><name>PT2478</name></trkpt>
<trkpt lat="52.073406" lon="05.812671"><ele>4</ele><time>2021-01-12T13:40:19Z</time><name>PT2479</name></trkpt>
<trkpt lat="52.073406" lon="05.812669"><ele>4.1</ele><time>2021-01-12T13:40:20Z</time><name>PT2480</name></trkpt>
<trkpt lat="52.073403" lon="05.812665"><ele>4</ele><time>2021-01-12T13:41:34Z</time><name>PT2481</name></trkpt>
<trkpt lat="52.073402" lon="05.812667"><ele>4</ele><time>2021-01-12T13:41:35Z</time><name>PT2482</name></trkpt>
<trkpt lat="52.073401" lon="05.812666"><ele>4.1</ele><time>2021-01-12T13:41:36Z</time><name>PT2483</name></trkpt>
<trkpt lat="52.073400" lon="05.812667"><ele>4</ele><time>2021-01-12T13:41:37Z</time><name>PT2484</name></trkpt>
<trkpt lat="52.073401" lon="05.812669"><ele>4</ele><time>2021-01-12T13:41:38Z</time><name>PT2485</name></trkpt>
<trkpt lat="52.073402" lon="05.812670"><ele>4</ele><time>2021-01-12T13:41:39Z</time><name>PT2486</name></trkpt>
<trkpt lat="52.073402" lon="05.812669"><ele>3.9</ele><time>2021-01-12T13:41:40Z</time><name>PT2487</name></trkpt>
<trkpt lat="52.073401" lon="05.812671"><ele>3.9</ele><time>2021-01-12T13:41:41Z</time><name>PT2488</name></trkpt>
<trkpt lat="52.073399" lon="05.812671"><ele>4</ele><time>2021-01-12T13:41:43Z</time><name>PT2489</name></trkpt>
<trkpt lat="52.073400" lon="05.812667"><ele>4.2</ele><time>2021-01-12T13:41:44Z</time><name>PT2490</name></trkpt>
<trkpt lat="52.073403" lon="05.812664"><ele>4.1</ele><time>2021-01-12T13:41:45Z</time><name>PT2491</name></trkpt>
<trkpt lat="52.073404" lon="05.812663"><ele>4.2</ele><time>2021-01-12T13:41:46Z</time><name>PT2492</name></trkpt>
<trkpt lat="52.073404" lon="05.812662"><ele>4.1</ele><time>2021-01-12T13:41:47Z</time><name>PT2493</name></trkpt>
<trkpt lat="52.073399" lon="05.812654"><ele>4</ele><time>2021-01-12T13:41:49Z</time><name>PT2494</name></trkpt>
<trkpt lat="52.073403" lon="05.812652"><ele>3.8</ele><time>2021-01-12T13:41:50Z</time><name>PT2495</name></trkpt>
<trkpt lat="52.073409" lon="05.812648"><ele>3.7</ele><time>2021-01-12T13:41:51Z</time><name>PT2496</name></trkpt>
<trkpt lat="52.073413" lon="05.812644"><ele>3.9</ele><time>2021-01-12T13:41:52Z</time><name>PT2497</name></trkpt>
<trkpt lat="52.073413" lon="05.812636"><ele>3.9</ele><time>2021-01-12T13:41:53Z</time><name>PT2498</name></trkpt>
<trkpt lat="52.073413" lon="05.812636"><ele>3.9</ele><time>2021-01-12T13:41:54Z</time><name>PT2499</name></trkpt>
<trkpt lat="52.073414" lon="05.812636"><ele>4</ele><time>2021-01-12T13:41:55Z</time><name>PT2500</name></trkpt>
<trkpt lat="52.073418" lon="05.812636"><ele>4.2</ele><time>2021-01-12T13:42:08Z</time><name>PT2501</name></trkpt>
<trkpt lat="52.073420" lon="05.812636"><ele>4.4</ele><time>2021-01-12T13:42:09Z</time><name>PT2502</name></trkpt>
<trkpt lat="52.073422" lon="05.812635"><ele>4.5</ele><time>2021-01-12T13:42:10Z</time><name>PT2503</name></trkpt>
<trkpt lat="52.073424" lon="05.812634"><ele>3.6</ele><time>2021-01-12T13:42:16Z</time><name>PT2504</name></trkpt>
<trkpt lat="52.073433" lon="05.812638"><ele>3.8</ele><time>2021-01-12T13:42:17Z</time><name>PT2505</name></trkpt>
<trkpt lat="52.073441" lon="05.812638"><ele>3.9</ele><time>2021-01-12T13:42:18Z</time><name>PT2506</name></trkpt>
<trkpt lat="52.073448" lon="05.812641"><ele>4.1</ele><time>2021-01-12T13:42:19Z</time><name>PT2507</name></trkpt>
<trkpt lat="52.073456" lon="05.812638"><ele>4.4</ele><time>2021-01-12T13:42:20Z</time><name>PT2508</name></trkpt>
<trkpt lat="52.073461" lon="05.812640"><ele>4.4</ele><time>2021-01-12T13:42:21Z</time><name>PT2509</name></trkpt>
<trkpt lat="52.073465" lon="05.812640"><ele>4.5</ele><time>2021-01-12T13:42:22Z</time><name>PT2510</name></trkpt>
<trkpt lat="52.073466" lon="05.812643"><ele>4.5</ele><time>2021-01-12T13:42:23Z</time><name>PT2511</name></trkpt>
<trkpt lat="52.073467" lon="05.812645"><ele>4.4</ele><time>2021-01-12T13:42:24Z</time><name>PT2512</name></trkpt>
<trkpt lat="52.073468" lon="05.812644"><ele>4.5</ele><time>2021-01-12T13:42:25Z</time><name>PT2513</name></trkpt>
<trkpt lat="52.073468" lon="05.812643"><ele>4.6</ele><time>2021-01-12T13:42:26Z</time><name>PT2514</name></trkpt>
<trkpt lat="52.073468" lon="05.812645"><ele>4.4</ele><time>2021-01-12T13:42:37Z</time><name>PT2515</name></trkpt>
<trkpt lat="52.073465" lon="05.812648"><ele>4.6</ele><time>2021-01-12T13:42:38Z</time><name>PT2516</name></trkpt>
<trkpt lat="52.073468" lon="05.812651"><ele>4.5</ele><time>2021-01-12T13:42:39Z</time><name>PT2517</name></trkpt>
<trkpt lat="52.073472" lon="05.812652"><ele>4.6</ele><time>2021-01-12T13:42:40Z</time><name>PT2518</name></trkpt>
<trkpt lat="52.073475" lon="05.812652"><ele>4.7</ele><time>2021-01-12T13:42:41Z</time><name>PT2519</name></trkpt>
<trkpt lat="52.073476" lon="05.812654"><ele>4.6</ele><time>2021-01-12T13:42:42Z</time><name>PT2520</name></trkpt>
<trkpt lat="52.073474" lon="05.812656"><ele>4.6</ele><time>2021-01-12T13:42:43Z</time><name>PT2521</name></trkpt>
<trkpt lat="52.073475" lon="05.812662"><ele>4.4</ele><time>2021-01-12T13:42:46Z</time><name>PT2522</name></trkpt>
<trkpt lat="52.073483" lon="05.812674"><ele>4.2</ele><time>2021-01-12T13:42:47Z</time><name>PT2523</name></trkpt>
<trkpt lat="52.073493" lon="05.812685"><ele>4.2</ele><time>2021-01-12T13:42:48Z</time><name>PT2524</name></trkpt>
<trkpt lat="52.073498" lon="05.812697"><ele>4.2</ele><time>2021-01-12T13:42:49Z</time><name>PT2525</name></trkpt>
<trkpt lat="52.073505" lon="05.812709"><ele>4.4</ele><time>2021-01-12T13:42:50Z</time><name>PT2526</name></trkpt>
<trkpt lat="52.073511" lon="05.812723"><ele>4.4</ele><time>2021-01-12T13:42:51Z</time><name>PT2527</name></trkpt>
<trkpt lat="52.073521" lon="05.812735"><ele>4.4</ele><time>2021-01-12T13:42:52Z</time><name>PT2528</name></trkpt>
<trkpt lat="52.073527" lon="05.812745"><ele>4.3</ele><time>2021-01-12T13:42:53Z</time><name>PT2529</name></trkpt>
<trkpt lat="52.073534" lon="05.812754"><ele>4.3</ele><time>2021-01-12T13:42:54Z</time><name>PT2530</name></trkpt>
<trkpt lat="52.073540" lon="05.812761"><ele>4.4</ele><time>2021-01-12T13:42:55Z</time><name>PT2531</name></trkpt>
<trkpt lat="52.073545" lon="05.812768"><ele>4.3</ele><time>2021-01-12T13:42:56Z</time><name>PT2532</name></trkpt>
<trkpt lat="52.073553" lon="05.812779"><ele>4.1</ele><time>2021-01-12T13:42:57Z</time><name>PT2533</name></trkpt>
<trkpt lat="52.073560" lon="05.812787"><ele>3.9</ele><time>2021-01-12T13:42:58Z</time><name>PT2534</name></trkpt>
<trkpt lat="52.073566" lon="05.812795"><ele>3.9</ele><time>2021-01-12T13:42:59Z</time><name>PT2535</name></trkpt>
<trkpt lat="52.073572" lon="05.812806"><ele>3.9</ele><time>2021-01-12T13:43:00Z</time><name>PT2536</name></trkpt>
<trkpt lat="52.073578" lon="05.812815"><ele>3.9</ele><time>2021-01-12T13:43:01Z</time><name>PT2537</name></trkpt>
<trkpt lat="52.073582" lon="05.812823"><ele>4</ele><time>2021-01-12T13:43:02Z</time><name>PT2538</name></trkpt>
<trkpt lat="52.073587" lon="05.812828"><ele>3.9</ele><time>2021-01-12T13:43:03Z</time><name>PT2539</name></trkpt>
<trkpt lat="52.073594" lon="05.812833"><ele>4</ele><time>2021-01-12T13:43:04Z</time><name>PT2540</name></trkpt>
<trkpt lat="52.073601" lon="05.812842"><ele>4</ele><time>2021-01-12T13:43:05Z</time><name>PT2541</name></trkpt>
<trkpt lat="52.073609" lon="05.812856"><ele>4</ele><time>2021-01-12T13:43:06Z</time><name>PT2542</name></trkpt>
<trkpt lat="52.073614" lon="05.812870"><ele>3.9</ele><time>2021-01-12T13:43:07Z</time><name>PT2543</name></trkpt>
<trkpt lat="52.073620" lon="05.812883"><ele>3.9</ele><time>2021-01-12T13:43:08Z</time><name>PT2544</name></trkpt>
<trkpt lat="52.073629" lon="05.812895"><ele>3.9</ele><time>2021-01-12T13:43:09Z</time><name>PT2545</name></trkpt>
<trkpt lat="52.073635" lon="05.812907"><ele>3.9</ele><time>2021-01-12T13:43:10Z</time><name>PT2546</name></trkpt>
<trkpt lat="52.073639" lon="05.812918"><ele>3.9</ele><time>2021-01-12T13:43:11Z</time><name>PT2547</name></trkpt>
<trkpt lat="52.073643" lon="05.812928"><ele>4</ele><time>2021-01-12T13:43:12Z</time><name>PT2548</name></trkpt>
<trkpt lat="52.073646" lon="05.812935"><ele>4.1</ele><time>2021-01-12T13:43:13Z</time><name>PT2549</name></trkpt>
<trkpt lat="52.073651" lon="05.812941"><ele>4.2</ele><time>2021-01-12T13:43:14Z</time><name>PT2550</name></trkpt>
<trkpt lat="52.073654" lon="05.812947"><ele>4.4</ele><time>2021-01-12T13:43:15Z</time><name>PT2551</name></trkpt>
<trkpt lat="52.073656" lon="05.812952"><ele>4.4</ele><time>2021-01-12T13:43:16Z</time><name>PT2552</name></trkpt>
<trkpt lat="52.073657" lon="05.812963"><ele>4.2</ele><time>2021-01-12T13:43:17Z</time><name>PT2553</name></trkpt>
<trkpt lat="52.073662" lon="05.812973"><ele>4.1</ele><time>2021-01-12T13:43:18Z</time><name>PT2554</name></trkpt>
<trkpt lat="52.073668" lon="05.812985"><ele>4</ele><time>2021-01-12T13:43:19Z</time><name>PT2555</name></trkpt>
<trkpt lat="52.073676" lon="05.812996"><ele>3.8</ele><time>2021-01-12T13:43:20Z</time><name>PT2556</name></trkpt>
<trkpt lat="52.073682" lon="05.813009"><ele>3.9</ele><time>2021-01-12T13:43:21Z</time><name>PT2557</name></trkpt>
<trkpt lat="52.073690" lon="05.813024"><ele>4</ele><time>2021-01-12T13:43:22Z</time><name>PT2558</name></trkpt>
<trkpt lat="52.073698" lon="05.813041"><ele>4</ele><time>2021-01-12T13:43:23Z</time><name>PT2559</name></trkpt>
<trkpt lat="52.073705" lon="05.813057"><ele>4.1</ele><time>2021-01-12T13:43:24Z</time><name>PT2560</name></trkpt>
<trkpt lat="52.073713" lon="05.813071"><ele>3.9</ele><time>2021-01-12T13:43:25Z</time><name>PT2561</name></trkpt>
<trkpt lat="52.073719" lon="05.813084"><ele>3.9</ele><time>2021-01-12T13:43:26Z</time><name>PT2562</name></trkpt>
<trkpt lat="52.073726" lon="05.813100"><ele>3.9</ele><time>2021-01-12T13:43:27Z</time><name>PT2563</name></trkpt>
<trkpt lat="52.073732" lon="05.813114"><ele>3.9</ele><time>2021-01-12T13:43:28Z</time><name>PT2564</name></trkpt>
<trkpt lat="52.073738" lon="05.813128"><ele>3.9</ele><time>2021-01-12T13:43:29Z</time><name>PT2565</name></trkpt>
<trkpt lat="52.073740" lon="05.813143"><ele>3.7</ele><time>2021-01-12T13:43:30Z</time><name>PT2566</name></trkpt>
<trkpt lat="52.073738" lon="05.813156"><ele>3.6</ele><time>2021-01-12T13:43:31Z</time><name>PT2567</name></trkpt>
<trkpt lat="52.073739" lon="05.813170"><ele>3.4</ele><time>2021-01-12T13:43:32Z</time><name>PT2568</name></trkpt>
<trkpt lat="52.073744" lon="05.813182"><ele>3.4</ele><time>2021-01-12T13:43:33Z</time><name>PT2569</name></trkpt>
<trkpt lat="52.073749" lon="05.813193"><ele>3.4</ele><time>2021-01-12T13:43:34Z</time><name>PT2570</name></trkpt>
<trkpt lat="52.073756" lon="05.813211"><ele>3.7</ele><time>2021-01-12T13:43:35Z</time><name>PT2571</name></trkpt>
<trkpt lat="52.073760" lon="05.813227"><ele>3.7</ele><time>2021-01-12T13:43:36Z</time><name>PT2572</name></trkpt>
<trkpt lat="52.073766" lon="05.813248"><ele>3.9</ele><time>2021-01-12T13:43:37Z</time><name>PT2573</name></trkpt>
<trkpt lat="52.073772" lon="05.813263"><ele>3.9</ele><time>2021-01-12T13:43:38Z</time><name>PT2574</name></trkpt>
<trkpt lat="52.073779" lon="05.813277"><ele>3.9</ele><time>2021-01-12T13:43:39Z</time><name>PT2575</name></trkpt>
<trkpt lat="52.073784" lon="05.813294"><ele>4</ele><time>2021-01-12T13:43:40Z</time><name>PT2576</name></trkpt>
<trkpt lat="52.073789" lon="05.813310"><ele>4.1</ele><time>2021-01-12T13:43:41Z</time><name>PT2577</name></trkpt>
<trkpt lat="52.073797" lon="05.813324"><ele>4</ele><time>2021-01-12T13:43:42Z</time><name>PT2578</name></trkpt>
<trkpt lat="52.073802" lon="05.813342"><ele>4</ele><time>2021-01-12T13:43:43Z</time><name>PT2579</name></trkpt>
<trkpt lat="52.073808" lon="05.813360"><ele>4</ele><time>2021-01-12T13:43:44Z</time><name>PT2580</name></trkpt>
<trkpt lat="52.073814" lon="05.813378"><ele>3.9</ele><time>2021-01-12T13:43:45Z</time><name>PT2581</name></trkpt>
<trkpt lat="52.073819" lon="05.813392"><ele>4</ele><time>2021-01-12T13:43:46Z</time><name>PT2582</name></trkpt>
<trkpt lat="52.073823" lon="05.813409"><ele>4.2</ele><time>2021-01-12T13:43:47Z</time><name>PT2583</name></trkpt>
<trkpt lat="52.073828" lon="05.813428"><ele>4.3</ele><time>2021-01-12T13:43:48Z</time><name>PT2584</name></trkpt>
<trkpt lat="52.073833" lon="05.813445"><ele>4.4</ele><time>2021-01-12T13:43:49Z</time><name>PT2585</name></trkpt>
<trkpt lat="52.073837" lon="05.813461"><ele>4.4</ele><time>2021-01-12T13:43:50Z</time><name>PT2586</name></trkpt>
<trkpt lat="52.073839" lon="05.813477"><ele>4.6</ele><time>2021-01-12T13:43:51Z</time><name>PT2587</name></trkpt>
<trkpt lat="52.073840" lon="05.813493"><ele>4.6</ele><time>2021-01-12T13:43:52Z</time><name>PT2588</name></trkpt>
<trkpt lat="52.073843" lon="05.813509"><ele>4.9</ele><time>2021-01-12T13:43:53Z</time><name>PT2589</name></trkpt>
<trkpt lat="52.073847" lon="05.813524"><ele>4.9</ele><time>2021-01-12T13:43:54Z</time><name>PT2590</name></trkpt>
<trkpt lat="52.073851" lon="05.813539"><ele>5.1</ele><time>2021-01-12T13:43:55Z</time><name>PT2591</name></trkpt>
<trkpt lat="52.073858" lon="05.813554"><ele>5.2</ele><time>2021-01-12T13:43:56Z</time><name>PT2592</name></trkpt>
<trkpt lat="52.073862" lon="05.813571"><ele>5.4</ele><time>2021-01-12T13:43:57Z</time><name>PT2593</name></trkpt>
<trkpt lat="52.073865" lon="05.813587"><ele>5.5</ele><time>2021-01-12T13:43:58Z</time><name>PT2594</name></trkpt>
<trkpt lat="52.073867" lon="05.813603"><ele>5.5</ele><time>2021-01-12T13:43:59Z</time><name>PT2595</name></trkpt>
<trkpt lat="52.073867" lon="05.813617"><ele>5.5</ele><time>2021-01-12T13:44:00Z</time><name>PT2596</name></trkpt>
<trkpt lat="52.073867" lon="05.813632"><ele>5.4</ele><time>2021-01-12T13:44:01Z</time><name>PT2597</name></trkpt>
<trkpt lat="52.073870" lon="05.813648"><ele>5.4</ele><time>2021-01-12T13:44:02Z</time><name>PT2598</name></trkpt>
<trkpt lat="52.073873" lon="05.813662"><ele>5.5</ele><time>2021-01-12T13:44:03Z</time><name>PT2599</name></trkpt>
<trkpt lat="52.073877" lon="05.813678"><ele>5.4</ele><time>2021-01-12T13:44:04Z</time><name>PT2600</name></trkpt>
<trkpt lat="52.073883" lon="05.813696"><ele>5.4</ele><time>2021-01-12T13:44:05Z</time><name>PT2601</name></trkpt>
<trkpt lat="52.073887" lon="05.813709"><ele>5.2</ele><time>2021-01-12T13:44:06Z</time><name>PT2602</name></trkpt>
<trkpt lat="52.073889" lon="05.813724"><ele>5.1</ele><time>2021-01-12T13:44:07Z</time><name>PT2603</name></trkpt>
<trkpt lat="52.073890" lon="05.813732"><ele>4.9</ele><time>2021-01-12T13:44:08Z</time><name>PT2604</name></trkpt>
<trkpt lat="52.073892" lon="05.813735"><ele>5</ele><time>2021-01-12T13:44:09Z</time><name>PT2605</name></trkpt>
<trkpt lat="52.073892" lon="05.813737"><ele>5.1</ele><time>2021-01-12T13:44:10Z</time><name>PT2606</name></trkpt>
<trkpt lat="52.073895" lon="05.813743"><ele>5.1</ele><time>2021-01-12T13:44:11Z</time><name>PT2607</name></trkpt>
<trkpt lat="52.073898" lon="05.813754"><ele>5.1</ele><time>2021-01-12T13:44:12Z</time><name>PT2608</name></trkpt>
<trkpt lat="52.073902" lon="05.813766"><ele>5.2</ele><time>2021-01-12T13:44:13Z</time><name>PT2609</name></trkpt>
<trkpt lat="52.073905" lon="05.813781"><ele>5.1</ele><time>2021-01-12T13:44:14Z</time><name>PT2610</name></trkpt>
<trkpt lat="52.073910" lon="05.813798"><ele>5.2</ele><time>2021-01-12T13:44:15Z</time><name>PT2611</name></trkpt>
<trkpt lat="52.073916" lon="05.813812"><ele>5.2</ele><time>2021-01-12T13:44:16Z</time><name>PT2612</name></trkpt>
<trkpt lat="52.073920" lon="05.813826"><ele>5</ele><time>2021-01-12T13:44:17Z</time><name>PT2613</name></trkpt>
<trkpt lat="52.073924" lon="05.813843"><ele>5</ele><time>2021-01-12T13:44:18Z</time><name>PT2614</name></trkpt>
<trkpt lat="52.073931" lon="05.813856"><ele>5</ele><time>2021-01-12T13:44:19Z</time><name>PT2615</name></trkpt>
<trkpt lat="52.073935" lon="05.813870"><ele>4.9</ele><time>2021-01-12T13:44:20Z</time><name>PT2616</name></trkpt>
<trkpt lat="52.073938" lon="05.813885"><ele>4.9</ele><time>2021-01-12T13:44:21Z</time><name>PT2617</name></trkpt>
<trkpt lat="52.073943" lon="05.813900"><ele>4.9</ele><time>2021-01-12T13:44:22Z</time><name>PT2618</name></trkpt>
<trkpt lat="52.073946" lon="05.813916"><ele>4.8</ele><time>2021-01-12T13:44:23Z</time><name>PT2619</name></trkpt>
<trkpt lat="52.073949" lon="05.813930"><ele>4.9</ele><time>2021-01-12T13:44:24Z</time><name>PT2620</name></trkpt>
<trkpt lat="52.073952" lon="05.813945"><ele>4.7</ele><time>2021-01-12T13:44:25Z</time><name>PT2621</name></trkpt>
<trkpt lat="52.073957" lon="05.813959"><ele>4.9</ele><time>2021-01-12T13:44:26Z</time><name>PT2622</name></trkpt>
<trkpt lat="52.073961" lon="05.813972"><ele>4.9</ele><time>2021-01-12T13:44:27Z</time><name>PT2623</name></trkpt>
<trkpt lat="52.073964" lon="05.813985"><ele>4.9</ele><time>2021-01-12T13:44:28Z</time><name>PT2624</name></trkpt>
<trkpt lat="52.073966" lon="05.814002"><ele>4.9</ele><time>2021-01-12T13:44:29Z</time><name>PT2625</name></trkpt>
<trkpt lat="52.073969" lon="05.814019"><ele>4.9</ele><time>2021-01-12T13:44:30Z</time><name>PT2626</name></trkpt>
<trkpt lat="52.073969" lon="05.814036"><ele>4.9</ele><time>2021-01-12T13:44:31Z</time><name>PT2627</name></trkpt>
<trkpt lat="52.073972" lon="05.814054"><ele>5</ele><time>2021-01-12T13:44:32Z</time><name>PT2628</name></trkpt>
<trkpt lat="52.073977" lon="05.814070"><ele>5.1</ele><time>2021-01-12T13:44:33Z</time><name>PT2629</name></trkpt>
<trkpt lat="52.073982" lon="05.814086"><ele>5.1</ele><time>2021-01-12T13:44:34Z</time><name>PT2630</name></trkpt>
<trkpt lat="52.073985" lon="05.814099"><ele>5</ele><time>2021-01-12T13:44:35Z</time><name>PT2631</name></trkpt>
<trkpt lat="52.073990" lon="05.814115"><ele>5</ele><time>2021-01-12T13:44:36Z</time><name>PT2632</name></trkpt>
<trkpt lat="52.073994" lon="05.814132"><ele>5.1</ele><time>2021-01-12T13:44:37Z</time><name>PT2633</name></trkpt>
<trkpt lat="52.074000" lon="05.814147"><ele>5.1</ele><time>2021-01-12T13:44:38Z</time><name>PT2634</name></trkpt>
<trkpt lat="52.074006" lon="05.814160"><ele>5</ele><time>2021-01-12T13:44:39Z</time><name>PT2635</name></trkpt>
<trkpt lat="52.074010" lon="05.814170"><ele>5</ele><time>2021-01-12T13:44:40Z</time><name>PT2636</name></trkpt>
<trkpt lat="52.074015" lon="05.814180"><ele>4.9</ele><time>2021-01-12T13:44:41Z</time><name>PT2637</name></trkpt>
<trkpt lat="52.074019" lon="05.814197"><ele>4.7</ele><time>2021-01-12T13:44:42Z</time><name>PT2638</name></trkpt>
<trkpt lat="52.074025" lon="05.814214"><ele>4.8</ele><time>2021-01-12T13:44:43Z</time><name>PT2639</name></trkpt>
<trkpt lat="52.074031" lon="05.814228"><ele>4.7</ele><time>2021-01-12T13:44:44Z</time><name>PT2640</name></trkpt>
<trkpt lat="52.074038" lon="05.814242"><ele>4.7</ele><time>2021-01-12T13:44:45Z</time><name>PT2641</name></trkpt>
<trkpt lat="52.074047" lon="05.814254"><ele>4.6</ele><time>2021-01-12T13:44:46Z</time><name>PT2642</name></trkpt>
<trkpt lat="52.074054" lon="05.814265"><ele>4.7</ele><time>2021-01-12T13:44:47Z</time><name>PT2643</name></trkpt>
<trkpt lat="52.074060" lon="05.814276"><ele>4.6</ele><time>2021-01-12T13:44:48Z</time><name>PT2644</name></trkpt>
<trkpt lat="52.074066" lon="05.814285"><ele>4.6</ele><time>2021-01-12T13:44:49Z</time><name>PT2645</name></trkpt>
<trkpt lat="52.074074" lon="05.814295"><ele>4.6</ele><time>2021-01-12T13:44:50Z</time><name>PT2646</name></trkpt>
<trkpt lat="52.074079" lon="05.814303"><ele>4.5</ele><time>2021-01-12T13:44:51Z</time><name>PT2647</name></trkpt>
<trkpt lat="52.074083" lon="05.814311"><ele>4.6</ele><time>2021-01-12T13:44:52Z</time><name>PT2648</name></trkpt>
<trkpt lat="52.074090" lon="05.814321"><ele>4.5</ele><time>2021-01-12T13:44:53Z</time><name>PT2649</name></trkpt>
<trkpt lat="52.074097" lon="05.814331"><ele>4.5</ele><time>2021-01-12T13:44:54Z</time><name>PT2650</name></trkpt>
<trkpt lat="52.074105" lon="05.814339"><ele>4.4</ele><time>2021-01-12T13:44:55Z</time><name>PT2651</name></trkpt>
<trkpt lat="52.074115" lon="05.814347"><ele>4.4</ele><time>2021-01-12T13:44:56Z</time><name>PT2652</name></trkpt>
<trkpt lat="52.074124" lon="05.814355"><ele>4.5</ele><time>2021-01-12T13:44:57Z</time><name>PT2653</name></trkpt>
<trkpt lat="52.074130" lon="05.814365"><ele>4.5</ele><time>2021-01-12T13:44:58Z</time><name>PT2654</name></trkpt>
<trkpt lat="52.074137" lon="05.814377"><ele>4.6</ele><time>2021-01-12T13:44:59Z</time><name>PT2655</name></trkpt>
<trkpt lat="52.074147" lon="05.814385"><ele>4.7</ele><time>2021-01-12T13:45:00Z</time><name>PT2656</name></trkpt>
<trkpt lat="52.074156" lon="05.814393"><ele>4.6</ele><time>2021-01-12T13:45:01Z</time><name>PT2657</name></trkpt>
<trkpt lat="52.074166" lon="05.814404"><ele>4.8</ele><time>2021-01-12T13:45:02Z</time><name>PT2658</name></trkpt>
<trkpt lat="52.074174" lon="05.814410"><ele>4.6</ele><time>2021-01-12T13:45:03Z</time><name>PT2659</name></trkpt>
<trkpt lat="52.074183" lon="05.814417"><ele>4.5</ele><time>2021-01-12T13:45:04Z</time><name>PT2660</name></trkpt>
<trkpt lat="52.074190" lon="05.814421"><ele>4.5</ele><time>2021-01-12T13:45:05Z</time><name>PT2661</name></trkpt>
<trkpt lat="52.074197" lon="05.814425"><ele>4.3</ele><time>2021-01-12T13:45:06Z</time><name>PT2662</name></trkpt>
<trkpt lat="52.074205" lon="05.814433"><ele>4.3</ele><time>2021-01-12T13:45:07Z</time><name>PT2663</name></trkpt>
<trkpt lat="52.074214" lon="05.814440"><ele>4.5</ele><time>2021-01-12T13:45:08Z</time><name>PT2664</name></trkpt>
<trkpt lat="52.074223" lon="05.814447"><ele>4.6</ele><time>2021-01-12T13:45:09Z</time><name>PT2665</name></trkpt>
<trkpt lat="52.074231" lon="05.814454"><ele>4.7</ele><time>2021-01-12T13:45:10Z</time><name>PT2666</name></trkpt>
<trkpt lat="52.074240" lon="05.814467"><ele>4.9</ele><time>2021-01-12T13:45:11Z</time><name>PT2667</name></trkpt>
<trkpt lat="52.074248" lon="05.814476"><ele>4.9</ele><time>2021-01-12T13:45:12Z</time><name>PT2668</name></trkpt>
<trkpt lat="52.074256" lon="05.814482"><ele>4.9</ele><time>2021-01-12T13:45:13Z</time><name>PT2669</name></trkpt>
<trkpt lat="52.074266" lon="05.814487"><ele>4.9</ele><time>2021-01-12T13:45:14Z</time><name>PT2670</name></trkpt>
<trkpt lat="52.074273" lon="05.814492"><ele>5</ele><time>2021-01-12T13:45:15Z</time><name>PT2671</name></trkpt>
<trkpt lat="52.074279" lon="05.814500"><ele>4.9</ele><time>2021-01-12T13:45:16Z</time><name>PT2672</name></trkpt>
<trkpt lat="52.074285" lon="05.814506"><ele>4.9</ele><time>2021-01-12T13:45:17Z</time><name>PT2673</name></trkpt>
<trkpt lat="52.074293" lon="05.814510"><ele>5</ele><time>2021-01-12T13:45:18Z</time><name>PT2674</name></trkpt>
<trkpt lat="52.074299" lon="05.814514"><ele>4.9</ele><time>2021-01-12T13:45:19Z</time><name>PT2675</name></trkpt>
<trkpt lat="52.074306" lon="05.814520"><ele>4.9</ele><time>2021-01-12T13:45:20Z</time><name>PT2676</name></trkpt>
<trkpt lat="52.074314" lon="05.814523"><ele>4.8</ele><time>2021-01-12T13:45:21Z</time><name>PT2677</name></trkpt>
<trkpt lat="52.074320" lon="05.814528"><ele>4.7</ele><time>2021-01-12T13:45:22Z</time><name>PT2678</name></trkpt>
<trkpt lat="52.074326" lon="05.814533"><ele>4.5</ele><time>2021-01-12T13:45:23Z</time><name>PT2679</name></trkpt>
<trkpt lat="52.074332" lon="05.814540"><ele>4.4</ele><time>2021-01-12T13:45:24Z</time><name>PT2680</name></trkpt>
<trkpt lat="52.074339" lon="05.814546"><ele>4.4</ele><time>2021-01-12T13:45:25Z</time><name>PT2681</name></trkpt>
<trkpt lat="52.074344" lon="05.814550"><ele>4</ele><time>2021-01-12T13:45:26Z</time><name>PT2682</name></trkpt>
<trkpt lat="52.074348" lon="05.814558"><ele>4.3</ele><time>2021-01-12T13:45:27Z</time><name>PT2683</name></trkpt>
<trkpt lat="52.074354" lon="05.814564"><ele>4.4</ele><time>2021-01-12T13:45:28Z</time><name>PT2684</name></trkpt>
<trkpt lat="52.074359" lon="05.814570"><ele>4.5</ele><time>2021-01-12T13:45:29Z</time><name>PT2685</name></trkpt>
<trkpt lat="52.074360" lon="05.814573"><ele>4.9</ele><time>2021-01-12T13:45:30Z</time><name>PT2686</name></trkpt>
<trkpt lat="52.074367" lon="05.814575"><ele>4.8</ele><time>2021-01-12T13:45:31Z</time><name>PT2687</name></trkpt>
<trkpt lat="52.074375" lon="05.814583"><ele>4.6</ele><time>2021-01-12T13:45:32Z</time><name>PT2688</name></trkpt>
<trkpt lat="52.074379" lon="05.814592"><ele>4.4</ele><time>2021-01-12T13:45:33Z</time><name>PT2689</name></trkpt>
<trkpt lat="52.074382" lon="05.814597"><ele>4.4</ele><time>2021-01-12T13:45:34Z</time><name>PT2690</name></trkpt>
<trkpt lat="52.074384" lon="05.814599"><ele>4.4</ele><time>2021-01-12T13:45:35Z</time><name>PT2691</name></trkpt>
<trkpt lat="52.074385" lon="05.814599"><ele>4.3</ele><time>2021-01-12T13:45:36Z</time><name>PT2692</name></trkpt>
<trkpt lat="52.074385" lon="05.814599"><ele>4.3</ele><time>2021-01-12T13:45:37Z</time><name>PT2693</name></trkpt>
<trkpt lat="52.074374" lon="05.814592"><ele>4.4</ele><time>2021-01-12T13:46:04Z</time><name>PT2694</name></trkpt>
<trkpt lat="52.074376" lon="05.814576"><ele>4.4</ele><time>2021-01-12T13:46:05Z</time><name>PT2695</name></trkpt>
<trkpt lat="52.074373" lon="05.814570"><ele>4.3</ele><time>2021-01-12T13:46:06Z</time><name>PT2696</name></trkpt>
<trkpt lat="52.074372" lon="05.814561"><ele>4.3</ele><time>2021-01-12T13:46:07Z</time><name>PT2697</name></trkpt>
<trkpt lat="52.074376" lon="05.814549"><ele>4.3</ele><time>2021-01-12T13:46:08Z</time><name>PT2698</name></trkpt>
<trkpt lat="52.074376" lon="05.814538"><ele>4.3</ele><time>2021-01-12T13:46:09Z</time><name>PT2699</name></trkpt>
<trkpt lat="52.074377" lon="05.814525"><ele>4.2</ele><time>2021-01-12T13:46:10Z</time><name>PT2700</name></trkpt>
<trkpt lat="52.074380" lon="05.814513"><ele>4.3</ele><time>2021-01-12T13:46:11Z</time><name>PT2701</name></trkpt>
<trkpt lat="52.074384" lon="05.814501"><ele>4.5</ele><time>2021-01-12T13:46:12Z</time><name>PT2702</name></trkpt>
<trkpt lat="52.074386" lon="05.814479"><ele>4.6</ele><time>2021-01-12T13:46:13Z</time><name>PT2703</name></trkpt>
<trkpt lat="52.074387" lon="05.814461"><ele>5</ele><time>2021-01-12T13:46:14Z</time><name>PT2704</name></trkpt>
<trkpt lat="52.074390" lon="05.814445"><ele>4.9</ele><time>2021-01-12T13:46:15Z</time><name>PT2705</name></trkpt>
<trkpt lat="52.074393" lon="05.814430"><ele>4.8</ele><time>2021-01-12T13:46:16Z</time><name>PT2706</name></trkpt>
<trkpt lat="52.074396" lon="05.814416"><ele>4.8</ele><time>2021-01-12T13:46:17Z</time><name>PT2707</name></trkpt>
<trkpt lat="52.074400" lon="05.814404"><ele>4.7</ele><time>2021-01-12T13:46:18Z</time><name>PT2708</name></trkpt>
<trkpt lat="52.074405" lon="05.814387"><ele>4.5</ele><time>2021-01-12T13:46:19Z</time><name>PT2709</name></trkpt>
<trkpt lat="52.074408" lon="05.814375"><ele>4.6</ele><time>2021-01-12T13:46:20Z</time><name>PT2710</name></trkpt>
<trkpt lat="52.074412" lon="05.814358"><ele>4.6</ele><time>2021-01-12T13:46:21Z</time><name>PT2711</name></trkpt>
<trkpt lat="52.074414" lon="05.814339"><ele>4.5</ele><time>2021-01-12T13:46:22Z</time><name>PT2712</name></trkpt>
<trkpt lat="52.074417" lon="05.814324"><ele>4.5</ele><time>2021-01-12T13:46:23Z</time><name>PT2713</name></trkpt>
<trkpt lat="52.074419" lon="05.814310"><ele>4.5</ele><time>2021-01-12T13:46:24Z</time><name>PT2714</name></trkpt>
<trkpt lat="52.074422" lon="05.814297"><ele>4.4</ele><time>2021-01-12T13:46:25Z</time><name>PT2715</name></trkpt>
<trkpt lat="52.074424" lon="05.814280"><ele>4.4</ele><time>2021-01-12T13:46:26Z</time><name>PT2716</name></trkpt>
<trkpt lat="52.074425" lon="05.814265"><ele>4.4</ele><time>2021-01-12T13:46:27Z</time><name>PT2717</name></trkpt>
<trkpt lat="52.074427" lon="05.814249"><ele>4.4</ele><time>2021-01-12T13:46:28Z</time><name>PT2718</name></trkpt>
<trkpt lat="52.074430" lon="05.814237"><ele>4.5</ele><time>2021-01-12T13:46:29Z</time><name>PT2719</name></trkpt>
<trkpt lat="52.074432" lon="05.814225"><ele>4.5</ele><time>2021-01-12T13:46:30Z</time><name>PT2720</name></trkpt>
<trkpt lat="52.074432" lon="05.814212"><ele>4.5</ele><time>2021-01-12T13:46:31Z</time><name>PT2721</name></trkpt>
<trkpt lat="52.074433" lon="05.814198"><ele>4.8</ele><time>2021-01-12T13:46:32Z</time><name>PT2722</name></trkpt>
<trkpt lat="52.074433" lon="05.814177"><ele>4.9</ele><time>2021-01-12T13:46:33Z</time><name>PT2723</name></trkpt>
<trkpt lat="52.074436" lon="05.814161"><ele>4.9</ele><time>2021-01-12T13:46:34Z</time><name>PT2724</name></trkpt>
<trkpt lat="52.074437" lon="05.814146"><ele>5.2</ele><time>2021-01-12T13:46:35Z</time><name>PT2725</name></trkpt>
<trkpt lat="52.074438" lon="05.814132"><ele>5.1</ele><time>2021-01-12T13:46:36Z</time><name>PT2726</name></trkpt>
<trkpt lat="52.074444" lon="05.814113"><ele>4.9</ele><time>2021-01-12T13:46:37Z</time><name>PT2727</name></trkpt>
<trkpt lat="52.074446" lon="05.814097"><ele>4.9</ele><time>2021-01-12T13:46:38Z</time><name>PT2728</name></trkpt>
<trkpt lat="52.074451" lon="05.814085"><ele>4.5</ele><time>2021-01-12T13:46:39Z</time><name>PT2729</name></trkpt>
<trkpt lat="52.074459" lon="05.814073"><ele>4.5</ele><time>2021-01-12T13:46:40Z</time><name>PT2730</name></trkpt>
<trkpt lat="52.074466" lon="05.814062"><ele>4.4</ele><time>2021-01-12T13:46:41Z</time><name>PT2731</name></trkpt>
<trkpt lat="52.074472" lon="05.814049"><ele>4.4</ele><time>2021-01-12T13:46:42Z</time><name>PT2732</name></trkpt>
<trkpt lat="52.074476" lon="05.814035"><ele>4.3</ele><time>2021-01-12T13:46:43Z</time><name>PT2733</name></trkpt>
<trkpt lat="52.074484" lon="05.814022"><ele>3.9</ele><time>2021-01-12T13:46:44Z</time><name>PT2734</name></trkpt>
<trkpt lat="52.074490" lon="05.814015"><ele>3.9</ele><time>2021-01-12T13:46:45Z</time><name>PT2735</name></trkpt>
<trkpt lat="52.074494" lon="05.814005"><ele>3.9</ele><time>2021-01-12T13:46:46Z</time><name>PT2736</name></trkpt>
<trkpt lat="52.074502" lon="05.813996"><ele>3.7</ele><time>2021-01-12T13:46:47Z</time><name>PT2737</name></trkpt>
<trkpt lat="52.074511" lon="05.813987"><ele>3.6</ele><time>2021-01-12T13:46:48Z</time><name>PT2738</name></trkpt>
<trkpt lat="52.074523" lon="05.813974"><ele>3.5</ele><time>2021-01-12T13:46:49Z</time><name>PT2739</name></trkpt>
<trkpt lat="52.074535" lon="05.813962"><ele>3.4</ele><time>2021-01-12T13:46:50Z</time><name>PT2740</name></trkpt>
<trkpt lat="52.074544" lon="05.813956"><ele>3.4</ele><time>2021-01-12T13:46:51Z</time><name>PT2741</name></trkpt>
<trkpt lat="52.074554" lon="05.813948"><ele>3.4</ele><time>2021-01-12T13:46:52Z</time><name>PT2742</name></trkpt>
<trkpt lat="52.074561" lon="05.813930"><ele>3.7</ele><time>2021-01-12T13:46:53Z</time><name>PT2743</name></trkpt>
<trkpt lat="52.074567" lon="05.813916"><ele>3.7</ele><time>2021-01-12T13:46:54Z</time><name>PT2744</name></trkpt>
<trkpt lat="52.074575" lon="05.813906"><ele>3.6</ele><time>2021-01-12T13:46:55Z</time><name>PT2745</name></trkpt>
<trkpt lat="52.074583" lon="05.813897"><ele>3.7</ele><time>2021-01-12T13:46:56Z</time><name>PT2746</name></trkpt>
<trkpt lat="52.074592" lon="05.813890"><ele>3.6</ele><time>2021-01-12T13:46:57Z</time><name>PT2747</name></trkpt>
<trkpt lat="52.074602" lon="05.813879"><ele>3.8</ele><time>2021-01-12T13:46:58Z</time><name>PT2748</name></trkpt>
<trkpt lat="52.074613" lon="05.813865"><ele>3.9</ele><time>2021-01-12T13:46:59Z</time><name>PT2749</name></trkpt>
<trkpt lat="52.074618" lon="05.813856"><ele>3.9</ele><time>2021-01-12T13:47:00Z</time><name>PT2750</name></trkpt>
<trkpt lat="52.074628" lon="05.813851"><ele>3.8</ele><time>2021-01-12T13:47:01Z</time><name>PT2751</name></trkpt>
<trkpt lat="52.074637" lon="05.813836"><ele>3.6</ele><time>2021-01-12T13:47:02Z</time><name>PT2752</name></trkpt>
<trkpt lat="52.074643" lon="05.813822"><ele>3.4</ele><time>2021-01-12T13:47:03Z</time><name>PT2753</name></trkpt>
<trkpt lat="52.074655" lon="05.813809"><ele>3.4</ele><time>2021-01-12T13:47:04Z</time><name>PT2754</name></trkpt>
<trkpt lat="52.074664" lon="05.813798"><ele>3.4</ele><time>2021-01-12T13:47:05Z</time><name>PT2755</name></trkpt>
<trkpt lat="52.074676" lon="05.813789"><ele>3.2</ele><time>2021-01-12T13:47:06Z</time><name>PT2756</name></trkpt>
<trkpt lat="52.074685" lon="05.813777"><ele>3.3</ele><time>2021-01-12T13:47:07Z</time><name>PT2757</name></trkpt>
<trkpt lat="52.074692" lon="05.813768"><ele>3.4</ele><time>2021-01-12T13:47:08Z</time><name>PT2758</name></trkpt>
<trkpt lat="52.074701" lon="05.813761"><ele>3.3</ele><time>2021-01-12T13:47:09Z</time><name>PT2759</name></trkpt>
<trkpt lat="52.074707" lon="05.813750"><ele>3.3</ele><time>2021-01-12T13:47:10Z</time><name>PT2760</name></trkpt>
<trkpt lat="52.074713" lon="05.813741"><ele>3.4</ele><time>2021-01-12T13:47:11Z</time><name>PT2761</name></trkpt>
<trkpt lat="52.074718" lon="05.813732"><ele>3.3</ele><time>2021-01-12T13:47:12Z</time><name>PT2762</name></trkpt>
<trkpt lat="52.074724" lon="05.813725"><ele>3.3</ele><time>2021-01-12T13:47:13Z</time><name>PT2763</name></trkpt>
<trkpt lat="52.074729" lon="05.813711"><ele>3.3</ele><time>2021-01-12T13:47:14Z</time><name>PT2764</name></trkpt>
<trkpt lat="52.074732" lon="05.813699"><ele>3.4</ele><time>2021-01-12T13:47:15Z</time><name>PT2765</name></trkpt>
<trkpt lat="52.074737" lon="05.813687"><ele>3.4</ele><time>2021-01-12T13:47:16Z</time><name>PT2766</name></trkpt>
<trkpt lat="52.074744" lon="05.813673"><ele>3.4</ele><time>2021-01-12T13:47:17Z</time><name>PT2767</name></trkpt>
<trkpt lat="52.074753" lon="05.813659"><ele>3.4</ele><time>2021-01-12T13:47:18Z</time><name>PT2768</name></trkpt>
<trkpt lat="52.074765" lon="05.813651"><ele>3.5</ele><time>2021-01-12T13:47:19Z</time><name>PT2769</name></trkpt>
<trkpt lat="52.074774" lon="05.813639"><ele>3.5</ele><time>2021-01-12T13:47:20Z</time><name>PT2770</name></trkpt>
<trkpt lat="52.074780" lon="05.813629"><ele>3.6</ele><time>2021-01-12T13:47:21Z</time><name>PT2771</name></trkpt>
<trkpt lat="52.074788" lon="05.813626"><ele>3.6</ele><time>2021-01-12T13:47:22Z</time><name>PT2772</name></trkpt>
<trkpt lat="52.074798" lon="05.813619"><ele>3.5</ele><time>2021-01-12T13:47:23Z</time><name>PT2773</name></trkpt>
<trkpt lat="52.074807" lon="05.813605"><ele>3.5</ele><time>2021-01-12T13:47:24Z</time><name>PT2774</name></trkpt>
<trkpt lat="52.074815" lon="05.813590"><ele>3.4</ele><time>2021-01-12T13:47:25Z</time><name>PT2775</name></trkpt>
<trkpt lat="52.074826" lon="05.813576"><ele>3.5</ele><time>2021-01-12T13:47:26Z</time><name>PT2776</name></trkpt>
<trkpt lat="52.074836" lon="05.813562"><ele>3.6</ele><time>2021-01-12T13:47:27Z</time><name>PT2777</name></trkpt>
<trkpt lat="52.074846" lon="05.813556"><ele>3.6</ele><time>2021-01-12T13:47:28Z</time><name>PT2778</name></trkpt>
<trkpt lat="52.074852" lon="05.813547"><ele>3.5</ele><time>2021-01-12T13:47:29Z</time><name>PT2779</name></trkpt>
<trkpt lat="52.074865" lon="05.813528"><ele>3.5</ele><time>2021-01-12T13:47:30Z</time><name>PT2780</name></trkpt>
<trkpt lat="52.074876" lon="05.813510"><ele>3.4</ele><time>2021-01-12T13:47:31Z</time><name>PT2781</name></trkpt>
<trkpt lat="52.074885" lon="05.813494"><ele>3.5</ele><time>2021-01-12T13:47:32Z</time><name>PT2782</name></trkpt>
<trkpt lat="52.074891" lon="05.813485"><ele>3.5</ele><time>2021-01-12T13:47:33Z</time><name>PT2783</name></trkpt>
<trkpt lat="52.074897" lon="05.813471"><ele>3.4</ele><time>2021-01-12T13:47:34Z</time><name>PT2784</name></trkpt>
<trkpt lat="52.074906" lon="05.813452"><ele>3.3</ele><time>2021-01-12T13:47:35Z</time><name>PT2785</name></trkpt>
<trkpt lat="52.074911" lon="05.813439"><ele>3.2</ele><time>2021-01-12T13:47:36Z</time><name>PT2786</name></trkpt>
<trkpt lat="52.074916" lon="05.813418"><ele>3.2</ele><time>2021-01-12T13:47:37Z</time><name>PT2787</name></trkpt>
<trkpt lat="52.074921" lon="05.813398"><ele>3.1</ele><time>2021-01-12T13:47:38Z</time><name>PT2788</name></trkpt>
<trkpt lat="52.074924" lon="05.813382"><ele>3.1</ele><time>2021-01-12T13:47:39Z</time><name>PT2789</name></trkpt>
<trkpt lat="52.074929" lon="05.813366"><ele>2.9</ele><time>2021-01-12T13:47:40Z</time><name>PT2790</name></trkpt>
<trkpt lat="52.074936" lon="05.813356"><ele>2.9</ele><time>2021-01-12T13:47:41Z</time><name>PT2791</name></trkpt>
<trkpt lat="52.074941" lon="05.813347"><ele>3.1</ele><time>2021-01-12T13:47:42Z</time><name>PT2792</name></trkpt>
<trkpt lat="52.074944" lon="05.813334"><ele>3.2</ele><time>2021-01-12T13:47:43Z</time><name>PT2793</name></trkpt>
<trkpt lat="52.074950" lon="05.813326"><ele>3.5</ele><time>2021-01-12T13:47:44Z</time><name>PT2794</name></trkpt>
<trkpt lat="52.074956" lon="05.813311"><ele>3.6</ele><time>2021-01-12T13:47:45Z</time><name>PT2795</name></trkpt>
<trkpt lat="52.074961" lon="05.813292"><ele>3.8</ele><time>2021-01-12T13:47:46Z</time><name>PT2796</name></trkpt>
<trkpt lat="52.074967" lon="05.813264"><ele>3.6</ele><time>2021-01-12T13:47:47Z</time><name>PT2797</name></trkpt>
<trkpt lat="52.074969" lon="05.813245"><ele>3.4</ele><time>2021-01-12T13:47:48Z</time><name>PT2798</name></trkpt>
<trkpt lat="52.074971" lon="05.813224"><ele>3.3</ele><time>2021-01-12T13:47:49Z</time><name>PT2799</name></trkpt>
<trkpt lat="52.074974" lon="05.813206"><ele>2.9</ele><time>2021-01-12T13:47:50Z</time><name>PT2800</name></trkpt>
<trkpt lat="52.074974" lon="05.813183"><ele>2.8</ele><time>2021-01-12T13:47:51Z</time><name>PT2801</name></trkpt>
<trkpt lat="52.074971" lon="05.813165"><ele>2.8</ele><time>2021-01-12T13:47:52Z</time><name>PT2802</name></trkpt>
<trkpt lat="52.074970" lon="05.813146"><ele>2.9</ele><time>2021-01-12T13:47:53Z</time><name>PT2803</name></trkpt>
<trkpt lat="52.074970" lon="05.813131"><ele>3.2</ele><time>2021-01-12T13:47:54Z</time><name>PT2804</name></trkpt>
<trkpt lat="52.074967" lon="05.813112"><ele>3.3</ele><time>2021-01-12T13:47:55Z</time><name>PT2805</name></trkpt>
<trkpt lat="52.074965" lon="05.813077"><ele>3.3</ele><time>2021-01-12T13:47:56Z</time><name>PT2806</name></trkpt>
<trkpt lat="52.074965" lon="05.813052"><ele>3.4</ele><time>2021-01-12T13:47:57Z</time><name>PT2807</name></trkpt>
<trkpt lat="52.074969" lon="05.813029"><ele>3.3</ele><time>2021-01-12T13:47:58Z</time><name>PT2808</name></trkpt>
<trkpt lat="52.074971" lon="05.813010"><ele>3.4</ele><time>2021-01-12T13:47:59Z</time><name>PT2809</name></trkpt>
<trkpt lat="52.074969" lon="05.812988"><ele>3.4</ele><time>2021-01-12T13:48:00Z</time><name>PT2810</name></trkpt>
<trkpt lat="52.074971" lon="05.812970"><ele>3.4</ele><time>2021-01-12T13:48:01Z</time><name>PT2811</name></trkpt>
<trkpt lat="52.074977" lon="05.812959"><ele>3.3</ele><time>2021-01-12T13:48:02Z</time><name>PT2812</name></trkpt>
<trkpt lat="52.074978" lon="05.812944"><ele>3.2</ele><time>2021-01-12T13:48:03Z</time><name>PT2813</name></trkpt>
<trkpt lat="52.074984" lon="05.812931"><ele>3.3</ele><time>2021-01-12T13:48:04Z</time><name>PT2814</name></trkpt>
<trkpt lat="52.074989" lon="05.812919"><ele>3.4</ele><time>2021-01-12T13:48:05Z</time><name>PT2815</name></trkpt>
<trkpt lat="52.074994" lon="05.812909"><ele>3.4</ele><time>2021-01-12T13:48:06Z</time><name>PT2816</name></trkpt>
<trkpt lat="52.074999" lon="05.812895"><ele>3.4</ele><time>2021-01-12T13:48:07Z</time><name>PT2817</name></trkpt>
<trkpt lat="52.074998" lon="05.812879"><ele>3.4</ele><time>2021-01-12T13:48:08Z</time><name>PT2818</name></trkpt>
<trkpt lat="52.074998" lon="05.812864"><ele>3.3</ele><time>2021-01-12T13:48:09Z</time><name>PT2819</name></trkpt>
<trkpt lat="52.075000" lon="05.812852"><ele>3.2</ele><time>2021-01-12T13:48:10Z</time><name>PT2820</name></trkpt>
<trkpt lat="52.075004" lon="05.812840"><ele>3.3</ele><time>2021-01-12T13:48:11Z</time><name>PT2821</name></trkpt>
<trkpt lat="52.075006" lon="05.812830"><ele>3.2</ele><time>2021-01-12T13:48:12Z</time><name>PT2822</name></trkpt>
<trkpt lat="52.075011" lon="05.812817"><ele>3.4</ele><time>2021-01-12T13:48:13Z</time><name>PT2823</name></trkpt>
<trkpt lat="52.075025" lon="05.812804"><ele>3.4</ele><time>2021-01-12T13:48:14Z</time><name>PT2824</name></trkpt>
<trkpt lat="52.075033" lon="05.812797"><ele>3.4</ele><time>2021-01-12T13:48:15Z</time><name>PT2825</name></trkpt>
<trkpt lat="52.075043" lon="05.812778"><ele>3.4</ele><time>2021-01-12T13:48:16Z</time><name>PT2826</name></trkpt>
<trkpt lat="52.075044" lon="05.812760"><ele>3.2</ele><time>2021-01-12T13:48:17Z</time><name>PT2827</name></trkpt>
<trkpt lat="52.075049" lon="05.812748"><ele>3.3</ele><time>2021-01-12T13:48:18Z</time><name>PT2828</name></trkpt>
<trkpt lat="52.075047" lon="05.812730"><ele>3.3</ele><time>2021-01-12T13:48:19Z</time><name>PT2829</name></trkpt>
<trkpt lat="52.075052" lon="05.812707"><ele>3.4</ele><time>2021-01-12T13:48:20Z</time><name>PT2830</name></trkpt>
<trkpt lat="52.075059" lon="05.812691"><ele>3.4</ele><time>2021-01-12T13:48:21Z</time><name>PT2831</name></trkpt>
<trkpt lat="52.075063" lon="05.812678"><ele>3.4</ele><time>2021-01-12T13:48:22Z</time><name>PT2832</name></trkpt>
<trkpt lat="52.075069" lon="05.812661"><ele>3.4</ele><time>2021-01-12T13:48:23Z</time><name>PT2833</name></trkpt>
<trkpt lat="52.075074" lon="05.812637"><ele>3.3</ele><time>2021-01-12T13:48:24Z</time><name>PT2834</name></trkpt>
<trkpt lat="52.075082" lon="05.812609"><ele>3.3</ele><time>2021-01-12T13:48:25Z</time><name>PT2835</name></trkpt>
<trkpt lat="52.075080" lon="05.812579"><ele>3</ele><time>2021-01-12T13:48:26Z</time><name>PT2836</name></trkpt>
<trkpt lat="52.075089" lon="05.812567"><ele>2.9</ele><time>2021-01-12T13:48:27Z</time><name>PT2837</name></trkpt>
<trkpt lat="52.075095" lon="05.812558"><ele>2.9</ele><time>2021-01-12T13:48:28Z</time><name>PT2838</name></trkpt>
<trkpt lat="52.075099" lon="05.812546"><ele>2.8</ele><time>2021-01-12T13:48:29Z</time><name>PT2839</name></trkpt>
<trkpt lat="52.075104" lon="05.812538"><ele>3</ele><time>2021-01-12T13:48:30Z</time><name>PT2840</name></trkpt>
<trkpt lat="52.075115" lon="05.812516"><ele>3.3</ele><time>2021-01-12T13:48:31Z</time><name>PT2841</name></trkpt>
<trkpt lat="52.075121" lon="05.812505"><ele>3.1</ele><time>2021-01-12T13:48:32Z</time><name>PT2842</name></trkpt>
<trkpt lat="52.075123" lon="05.812492"><ele>3.3</ele><time>2021-01-12T13:48:33Z</time><name>PT2843</name></trkpt>
<trkpt lat="52.075128" lon="05.812475"><ele>3.1</ele><time>2021-01-12T13:48:34Z</time><name>PT2844</name></trkpt>
<trkpt lat="52.075133" lon="05.812459"><ele>3</ele><time>2021-01-12T13:48:35Z</time><name>PT2845</name></trkpt>
<trkpt lat="52.075136" lon="05.812441"><ele>3.1</ele><time>2021-01-12T13:48:36Z</time><name>PT2846</name></trkpt>
<trkpt lat="52.075136" lon="05.812422"><ele>3.2</ele><time>2021-01-12T13:48:37Z</time><name>PT2847</name></trkpt>
<trkpt lat="52.075138" lon="05.812410"><ele>3.2</ele><time>2021-01-12T13:48:38Z</time><name>PT2848</name></trkpt>
<trkpt lat="52.075142" lon="05.812396"><ele>3.3</ele><time>2021-01-12T13:48:39Z</time><name>PT2849</name></trkpt>
<trkpt lat="52.075142" lon="05.812378"><ele>3.3</ele><time>2021-01-12T13:48:40Z</time><name>PT2850</name></trkpt>
<trkpt lat="52.075142" lon="05.812362"><ele>3.4</ele><time>2021-01-12T13:48:41Z</time><name>PT2851</name></trkpt>
<trkpt lat="52.075144" lon="05.812347"><ele>3.4</ele><time>2021-01-12T13:48:42Z</time><name>PT2852</name></trkpt>
<trkpt lat="52.075144" lon="05.812335"><ele>3.6</ele><time>2021-01-12T13:48:43Z</time><name>PT2853</name></trkpt>
<trkpt lat="52.075146" lon="05.812325"><ele>3.5</ele><time>2021-01-12T13:48:44Z</time><name>PT2854</name></trkpt>
<trkpt lat="52.075151" lon="05.812309"><ele>3.6</ele><time>2021-01-12T13:48:45Z</time><name>PT2855</name></trkpt>
<trkpt lat="52.075154" lon="05.812292"><ele>3.7</ele><time>2021-01-12T13:48:46Z</time><name>PT2856</name></trkpt>
<trkpt lat="52.075156" lon="05.812271"><ele>3.7</ele><time>2021-01-12T13:48:47Z</time><name>PT2857</name></trkpt>
<trkpt lat="52.075159" lon="05.812257"><ele>3.7</ele><time>2021-01-12T13:48:48Z</time><name>PT2858</name></trkpt>
<trkpt lat="52.075162" lon="05.812234"><ele>3.6</ele><time>2021-01-12T13:48:49Z</time><name>PT2859</name></trkpt>
<trkpt lat="52.075169" lon="05.812222"><ele>3.5</ele><time>2021-01-12T13:48:50Z</time><name>PT2860</name></trkpt>
<trkpt lat="52.075177" lon="05.812213"><ele>3.5</ele><time>2021-01-12T13:48:51Z</time><name>PT2861</name></trkpt>
<trkpt lat="52.075182" lon="05.812205"><ele>3.5</ele><time>2021-01-12T13:48:52Z</time><name>PT2862</name></trkpt>
<trkpt lat="52.075194" lon="05.812198"><ele>3.8</ele><time>2021-01-12T13:48:53Z</time><name>PT2863</name></trkpt>
<trkpt lat="52.075206" lon="05.812183"><ele>3.6</ele><time>2021-01-12T13:48:54Z</time><name>PT2864</name></trkpt>
<trkpt lat="52.075212" lon="05.812163"><ele>3.7</ele><time>2021-01-12T13:48:55Z</time><name>PT2865</name></trkpt>
<trkpt lat="52.075217" lon="05.812154"><ele>3.4</ele><time>2021-01-12T13:48:56Z</time><name>PT2866</name></trkpt>
<trkpt lat="52.075222" lon="05.812148"><ele>3.4</ele><time>2021-01-12T13:48:57Z</time><name>PT2867</name></trkpt>
<trkpt lat="52.075226" lon="05.812133"><ele>3.5</ele><time>2021-01-12T13:48:58Z</time><name>PT2868</name></trkpt>
<trkpt lat="52.075226" lon="05.812111"><ele>3.5</ele><time>2021-01-12T13:48:59Z</time><name>PT2869</name></trkpt>
<trkpt lat="52.075234" lon="05.812099"><ele>3.8</ele><time>2021-01-12T13:49:00Z</time><name>PT2870</name></trkpt>
<trkpt lat="52.075240" lon="05.812080"><ele>3.7</ele><time>2021-01-12T13:49:01Z</time><name>PT2871</name></trkpt>
<trkpt lat="52.075247" lon="05.812068"><ele>3.6</ele><time>2021-01-12T13:49:02Z</time><name>PT2872</name></trkpt>
<trkpt lat="52.075253" lon="05.812053"><ele>3.5</ele><time>2021-01-12T13:49:03Z</time><name>PT2873</name></trkpt>
<trkpt lat="52.075262" lon="05.812046"><ele>3.3</ele><time>2021-01-12T13:49:04Z</time><name>PT2874</name></trkpt>
<trkpt lat="52.075270" lon="05.812040"><ele>3.2</ele><time>2021-01-12T13:49:05Z</time><name>PT2875</name></trkpt>
<trkpt lat="52.075270" lon="05.812027"><ele>3.2</ele><time>2021-01-12T13:49:06Z</time><name>PT2876</name></trkpt>
<trkpt lat="52.075273" lon="05.812019"><ele>3.2</ele><time>2021-01-12T13:49:07Z</time><name>PT2877</name></trkpt>
<trkpt lat="52.075281" lon="05.812009"><ele>3.3</ele><time>2021-01-12T13:49:08Z</time><name>PT2878</name></trkpt>
<trkpt lat="52.075283" lon="05.811990"><ele>3.4</ele><time>2021-01-12T13:49:09Z</time><name>PT2879</name></trkpt>
<trkpt lat="52.075290" lon="05.811977"><ele>3.4</ele><time>2021-01-12T13:49:10Z</time><name>PT2880</name></trkpt>
<trkpt lat="52.075299" lon="05.811967"><ele>3.2</ele><time>2021-01-12T13:49:11Z</time><name>PT2881</name></trkpt>
<trkpt lat="52.075309" lon="05.811956"><ele>3.2</ele><time>2021-01-12T13:49:12Z</time><name>PT2882</name></trkpt>
<trkpt lat="52.075316" lon="05.811944"><ele>3.1</ele><time>2021-01-12T13:49:13Z</time><name>PT2883</name></trkpt>
<trkpt lat="52.075324" lon="05.811932"><ele>3</ele><time>2021-01-12T13:49:14Z</time><name>PT2884</name></trkpt>
<trkpt lat="52.075335" lon="05.811915"><ele>3.2</ele><time>2021-01-12T13:49:15Z</time><name>PT2885</name></trkpt>
<trkpt lat="52.075345" lon="05.811904"><ele>3.3</ele><time>2021-01-12T13:49:16Z</time><name>PT2886</name></trkpt>
<trkpt lat="52.075350" lon="05.811883"><ele>3.2</ele><time>2021-01-12T13:49:17Z</time><name>PT2887</name></trkpt>
<trkpt lat="52.075358" lon="05.811867"><ele>3.4</ele><time>2021-01-12T13:49:18Z</time><name>PT2888</name></trkpt>
<trkpt lat="52.075365" lon="05.811853"><ele>3.4</ele><time>2021-01-12T13:49:19Z</time><name>PT2889</name></trkpt>
<trkpt lat="52.075375" lon="05.811842"><ele>3.1</ele><time>2021-01-12T13:49:20Z</time><name>PT2890</name></trkpt>
<trkpt lat="52.075383" lon="05.811832"><ele>3</ele><time>2021-01-12T13:49:21Z</time><name>PT2891</name></trkpt>
<trkpt lat="52.075392" lon="05.811819"><ele>2.9</ele><time>2021-01-12T13:49:22Z</time><name>PT2892</name></trkpt>
<trkpt lat="52.075399" lon="05.811812"><ele>2.9</ele><time>2021-01-12T13:49:23Z</time><name>PT2893</name></trkpt>
<trkpt lat="52.075402" lon="05.811800"><ele>2.8</ele><time>2021-01-12T13:49:24Z</time><name>PT2894</name></trkpt>
<trkpt lat="52.075404" lon="05.811785"><ele>2.9</ele><time>2021-01-12T13:49:25Z</time><name>PT2895</name></trkpt>
<trkpt lat="52.075405" lon="05.811772"><ele>2.9</ele><time>2021-01-12T13:49:26Z</time><name>PT2896</name></trkpt>
<trkpt lat="52.075406" lon="05.811763"><ele>2.9</ele><time>2021-01-12T13:49:27Z</time><name>PT2897</name></trkpt>
<trkpt lat="52.075413" lon="05.811758"><ele>2.7</ele><time>2021-01-12T13:49:28Z</time><name>PT2898</name></trkpt>
<trkpt lat="52.075413" lon="05.811750"><ele>2.9</ele><time>2021-01-12T13:49:29Z</time><name>PT2899</name></trkpt>
<trkpt lat="52.075418" lon="05.811748"><ele>2.9</ele><time>2021-01-12T13:49:30Z</time><name>PT2900</name></trkpt>
<trkpt lat="52.075423" lon="05.811732"><ele>2.9</ele><time>2021-01-12T13:49:31Z</time><name>PT2901</name></trkpt>
<trkpt lat="52.075430" lon="05.811721"><ele>3</ele><time>2021-01-12T13:49:32Z</time><name>PT2902</name></trkpt>
<trkpt lat="52.075436" lon="05.811712"><ele>2.8</ele><time>2021-01-12T13:49:33Z</time><name>PT2903</name></trkpt>
<trkpt lat="52.075442" lon="05.811703"><ele>2.7</ele><time>2021-01-12T13:49:34Z</time><name>PT2904</name></trkpt>
<trkpt lat="52.075447" lon="05.811693"><ele>2.9</ele><time>2021-01-12T13:49:35Z</time><name>PT2905</name></trkpt>
<trkpt lat="52.075457" lon="05.811684"><ele>2.8</ele><time>2021-01-12T13:49:36Z</time><name>PT2906</name></trkpt>
<trkpt lat="52.075461" lon="05.811679"><ele>2.9</ele><time>2021-01-12T13:49:37Z</time><name>PT2907</name></trkpt>
<trkpt lat="52.075475" lon="05.811679"><ele>2.9</ele><time>2021-01-12T13:49:38Z</time><name>PT2908</name></trkpt>
<trkpt lat="52.075487" lon="05.811672"><ele>2.8</ele><time>2021-01-12T13:49:39Z</time><name>PT2909</name></trkpt>
<trkpt lat="52.075497" lon="05.811670"><ele>2.9</ele><time>2021-01-12T13:49:40Z</time><name>PT2910</name></trkpt>
<trkpt lat="52.075503" lon="05.811661"><ele>2.9</ele><time>2021-01-12T13:49:41Z</time><name>PT2911</name></trkpt>
<trkpt lat="52.075510" lon="05.811649"><ele>2.9</ele><time>2021-01-12T13:49:42Z</time><name>PT2912</name></trkpt>
<trkpt lat="52.075517" lon="05.811639"><ele>2.9</ele><time>2021-01-12T13:49:43Z</time><name>PT2913</name></trkpt>
<trkpt lat="52.075530" lon="05.811629"><ele>2.9</ele><time>2021-01-12T13:49:44Z</time><name>PT2914</name></trkpt>
<trkpt lat="52.075545" lon="05.811627"><ele>2.9</ele><time>2021-01-12T13:49:45Z</time><name>PT2915</name></trkpt>
<trkpt lat="52.075555" lon="05.811628"><ele>3</ele><time>2021-01-12T13:49:46Z</time><name>PT2916</name></trkpt>
<trkpt lat="52.075565" lon="05.811625"><ele>3.1</ele><time>2021-01-12T13:49:47Z</time><name>PT2917</name></trkpt>
<trkpt lat="52.075577" lon="05.811620"><ele>3.4</ele><time>2021-01-12T13:49:48Z</time><name>PT2918</name></trkpt>
<trkpt lat="52.075582" lon="05.811616"><ele>3.2</ele><time>2021-01-12T13:49:49Z</time><name>PT2919</name></trkpt>
<trkpt lat="52.075594" lon="05.811611"><ele>3.2</ele><time>2021-01-12T13:49:50Z</time><name>PT2920</name></trkpt>
<trkpt lat="52.075607" lon="05.811601"><ele>3.1</ele><time>2021-01-12T13:49:51Z</time><name>PT2921</name></trkpt>
<trkpt lat="52.075614" lon="05.811595"><ele>3</ele><time>2021-01-12T13:49:52Z</time><name>PT2922</name></trkpt>
<trkpt lat="52.075623" lon="05.811593"><ele>3</ele><time>2021-01-12T13:49:53Z</time><name>PT2923</name></trkpt>
<trkpt lat="52.075631" lon="05.811592"><ele>3.3</ele><time>2021-01-12T13:49:54Z</time><name>PT2924</name></trkpt>
<trkpt lat="52.075644" lon="05.811597"><ele>3.2</ele><time>2021-01-12T13:49:56Z</time><name>PT2925</name></trkpt>
<trkpt lat="52.075669" lon="05.811586"><ele>3.2</ele><time>2021-01-12T13:49:57Z</time><name>PT2926</name></trkpt>
<trkpt lat="52.075689" lon="05.811576"><ele>3.2</ele><time>2021-01-12T13:49:58Z</time><name>PT2927</name></trkpt>
<trkpt lat="52.075702" lon="05.811573"><ele>3</ele><time>2021-01-12T13:49:59Z</time><name>PT2928</name></trkpt>
<trkpt lat="52.075715" lon="05.811575"><ele>3</ele><time>2021-01-12T13:50:00Z</time><name>PT2929</name></trkpt>
<trkpt lat="52.075728" lon="05.811574"><ele>3.2</ele><time>2021-01-12T13:50:01Z</time><name>PT2930</name></trkpt>
<trkpt lat="52.075735" lon="05.811576"><ele>3</ele><time>2021-01-12T13:50:02Z</time><name>PT2931</name></trkpt>
<trkpt lat="52.075748" lon="05.811576"><ele>3.1</ele><time>2021-01-12T13:50:03Z</time><name>PT2932</name></trkpt>
<trkpt lat="52.075759" lon="05.811577"><ele>3.1</ele><time>2021-01-12T13:50:04Z</time><name>PT2933</name></trkpt>
<trkpt lat="52.075767" lon="05.811578"><ele>2.9</ele><time>2021-01-12T13:50:05Z</time><name>PT2934</name></trkpt>
<trkpt lat="52.075771" lon="05.811578"><ele>3</ele><time>2021-01-12T13:50:06Z</time><name>PT2935</name></trkpt>
<trkpt lat="52.075781" lon="05.811576"><ele>2.9</ele><time>2021-01-12T13:50:07Z</time><name>PT2936</name></trkpt>
<trkpt lat="52.075788" lon="05.811576"><ele>2.8</ele><time>2021-01-12T13:50:08Z</time><name>PT2937</name></trkpt>
<trkpt lat="52.075792" lon="05.811572"><ele>2.8</ele><time>2021-01-12T13:50:09Z</time><name>PT2938</name></trkpt>
<trkpt lat="52.075798" lon="05.811574"><ele>2.7</ele><time>2021-01-12T13:50:10Z</time><name>PT2939</name></trkpt>
<trkpt lat="52.075806" lon="05.811580"><ele>2.7</ele><time>2021-01-12T13:50:11Z</time><name>PT2940</name></trkpt>
<trkpt lat="52.075809" lon="05.811582"><ele>2.7</ele><time>2021-01-12T13:50:12Z</time><name>PT2941</name></trkpt>
<trkpt lat="52.075818" lon="05.811585"><ele>2.9</ele><time>2021-01-12T13:50:13Z</time><name>PT2942</name></trkpt>
<trkpt lat="52.075825" lon="05.811587"><ele>2.9</ele><time>2021-01-12T13:50:14Z</time><name>PT2943</name></trkpt>
<trkpt lat="52.075833" lon="05.811588"><ele>2.7</ele><time>2021-01-12T13:50:15Z</time><name>PT2944</name></trkpt>
<trkpt lat="52.075844" lon="05.811592"><ele>2.8</ele><time>2021-01-12T13:50:16Z</time><name>PT2945</name></trkpt>
<trkpt lat="52.075856" lon="05.811593"><ele>2.8</ele><time>2021-01-12T13:50:17Z</time><name>PT2946</name></trkpt>
<trkpt lat="52.075867" lon="05.811594"><ele>2.9</ele><time>2021-01-12T13:50:18Z</time><name>PT2947</name></trkpt>
<trkpt lat="52.075876" lon="05.811594"><ele>2.9</ele><time>2021-01-12T13:50:19Z</time><name>PT2948</name></trkpt>
<trkpt lat="52.075883" lon="05.811595"><ele>3.1</ele><time>2021-01-12T13:50:20Z</time><name>PT2949</name></trkpt>
<trkpt lat="52.075894" lon="05.811602"><ele>3</ele><time>2021-01-12T13:50:21Z</time><name>PT2950</name></trkpt>
<trkpt lat="52.075907" lon="05.811606"><ele>2.9</ele><time>2021-01-12T13:50:22Z</time><name>PT2951</name></trkpt>
<trkpt lat="52.075914" lon="05.811612"><ele>3</ele><time>2021-01-12T13:50:23Z</time><name>PT2952</name></trkpt>
<trkpt lat="52.075923" lon="05.811617"><ele>3</ele><time>2021-01-12T13:50:24Z</time><name>PT2953</name></trkpt>
<trkpt lat="52.075936" lon="05.811617"><ele>3</ele><time>2021-01-12T13:50:25Z</time><name>PT2954</name></trkpt>
<trkpt lat="52.075947" lon="05.811617"><ele>3</ele><time>2021-01-12T13:50:26Z</time><name>PT2955</name></trkpt>
<trkpt lat="52.075958" lon="05.811615"><ele>2.9</ele><time>2021-01-12T13:50:27Z</time><name>PT2956</name></trkpt>
<trkpt lat="52.075974" lon="05.811617"><ele>2.8</ele><time>2021-01-12T13:50:28Z</time><name>PT2957</name></trkpt>
<trkpt lat="52.075993" lon="05.811627"><ele>2.8</ele><time>2021-01-12T13:50:29Z</time><name>PT2958</name></trkpt>
<trkpt lat="52.076008" lon="05.811628"><ele>2.9</ele><time>2021-01-12T13:50:30Z</time><name>PT2959</name></trkpt>
<trkpt lat="52.076016" lon="05.811623"><ele>2.9</ele><time>2021-01-12T13:50:31Z</time><name>PT2960</name></trkpt>
<trkpt lat="52.076026" lon="05.811620"><ele>2.9</ele><time>2021-01-12T13:50:32Z</time><name>PT2961</name></trkpt>
<trkpt lat="52.076039" lon="05.811620"><ele>2.9</ele><time>2021-01-12T13:50:33Z</time><name>PT2962</name></trkpt>
<trkpt lat="52.076053" lon="05.811623"><ele>2.9</ele><time>2021-01-12T13:50:34Z</time><name>PT2963</name></trkpt>
<trkpt lat="52.076067" lon="05.811630"><ele>2.9</ele><time>2021-01-12T13:50:35Z</time><name>PT2964</name></trkpt>
<trkpt lat="52.076080" lon="05.811632"><ele>2.9</ele><time>2021-01-12T13:50:36Z</time><name>PT2965</name></trkpt>
<trkpt lat="52.076091" lon="05.811634"><ele>2.8</ele><time>2021-01-12T13:50:37Z</time><name>PT2966</name></trkpt>
<trkpt lat="52.076101" lon="05.811640"><ele>2.8</ele><time>2021-01-12T13:50:38Z</time><name>PT2967</name></trkpt>
<trkpt lat="52.076107" lon="05.811645"><ele>2.9</ele><time>2021-01-12T13:50:39Z</time><name>PT2968</name></trkpt>
<trkpt lat="52.076114" lon="05.811653"><ele>2.8</ele><time>2021-01-12T13:50:40Z</time><name>PT2969</name></trkpt>
<trkpt lat="52.076124" lon="05.811660"><ele>2.8</ele><time>2021-01-12T13:50:41Z</time><name>PT2970</name></trkpt>
<trkpt lat="52.076139" lon="05.811661"><ele>2.9</ele><time>2021-01-12T13:50:42Z</time><name>PT2971</name></trkpt>
<trkpt lat="52.076148" lon="05.811665"><ele>2.9</ele><time>2021-01-12T13:50:43Z</time><name>PT2972</name></trkpt>
<trkpt lat="52.076158" lon="05.811670"><ele>3</ele><time>2021-01-12T13:50:44Z</time><name>PT2973</name></trkpt>
<trkpt lat="52.076162" lon="05.811676"><ele>3.1</ele><time>2021-01-12T13:50:45Z</time><name>PT2974</name></trkpt>
<trkpt lat="52.076173" lon="05.811682"><ele>3.1</ele><time>2021-01-12T13:50:46Z</time><name>PT2975</name></trkpt>
<trkpt lat="52.076184" lon="05.811686"><ele>3.3</ele><time>2021-01-12T13:50:47Z</time><name>PT2976</name></trkpt>
<trkpt lat="52.076195" lon="05.811691"><ele>3.3</ele><time>2021-01-12T13:50:48Z</time><name>PT2977</name></trkpt>
<trkpt lat="52.076203" lon="05.811694"><ele>3.4</ele><time>2021-01-12T13:50:49Z</time><name>PT2978</name></trkpt>
<trkpt lat="52.076212" lon="05.811697"><ele>3.4</ele><time>2021-01-12T13:50:50Z</time><name>PT2979</name></trkpt>
<trkpt lat="52.076220" lon="05.811694"><ele>3.4</ele><time>2021-01-12T13:50:51Z</time><name>PT2980</name></trkpt>
<trkpt lat="52.076233" lon="05.811702"><ele>3.4</ele><time>2021-01-12T13:50:52Z</time><name>PT2981</name></trkpt>
<trkpt lat="52.076246" lon="05.811706"><ele>3.4</ele><time>2021-01-12T13:50:53Z</time><name>PT2982</name></trkpt>
<trkpt lat="52.076255" lon="05.811705"><ele>3</ele><time>2021-01-12T13:50:54Z</time><name>PT2983</name></trkpt>
<trkpt lat="52.076269" lon="05.811707"><ele>2.8</ele><time>2021-01-12T13:50:55Z</time><name>PT2984</name></trkpt>
<trkpt lat="52.076283" lon="05.811716"><ele>2.5</ele><time>2021-01-12T13:50:56Z</time><name>PT2985</name></trkpt>
<trkpt lat="52.076295" lon="05.811719"><ele>2.3</ele><time>2021-01-12T13:50:57Z</time><name>PT2986</name></trkpt>
<trkpt lat="52.076303" lon="05.811720"><ele>2.2</ele><time>2021-01-12T13:50:58Z</time><name>PT2987</name></trkpt>
<trkpt lat="52.076315" lon="05.811720"><ele>2.2</ele><time>2021-01-12T13:50:59Z</time><name>PT2988</name></trkpt>
<trkpt lat="52.076325" lon="05.811719"><ele>2.3</ele><time>2021-01-12T13:51:00Z</time><name>PT2989</name></trkpt>
<trkpt lat="52.076340" lon="05.811720"><ele>2.3</ele><time>2021-01-12T13:51:01Z</time><name>PT2990</name></trkpt>
<trkpt lat="52.076354" lon="05.811717"><ele>2.1</ele><time>2021-01-12T13:51:02Z</time><name>PT2991</name></trkpt>
<trkpt lat="52.076367" lon="05.811716"><ele>2.2</ele><time>2021-01-12T13:51:03Z</time><name>PT2992</name></trkpt>
<trkpt lat="52.076382" lon="05.811717"><ele>2.3</ele><time>2021-01-12T13:51:04Z</time><name>PT2993</name></trkpt>
<trkpt lat="52.076398" lon="05.811718"><ele>2.3</ele><time>2021-01-12T13:51:05Z</time><name>PT2994</name></trkpt>
<trkpt lat="52.076409" lon="05.811722"><ele>2.3</ele><time>2021-01-12T13:51:06Z</time><name>PT2995</name></trkpt>
<trkpt lat="52.076418" lon="05.811726"><ele>2.4</ele><time>2021-01-12T13:51:07Z</time><name>PT2996</name></trkpt>
<trkpt lat="52.076429" lon="05.811724"><ele>2.3</ele><time>2021-01-12T13:51:08Z</time><name>PT2997</name></trkpt>
<trkpt lat="52.076440" lon="05.811731"><ele>2.3</ele><time>2021-01-12T13:51:09Z</time><name>PT2998</name></trkpt>
<trkpt lat="52.076452" lon="05.811740"><ele>2.3</ele><time>2021-01-12T13:51:10Z</time><name>PT2999</name></trkpt>
<trkpt lat="52.076461" lon="05.811747"><ele>2.3</ele><time>2021-01-12T13:51:11Z</time><name>PT3000</name></trkpt>
<trkpt lat="52.076474" lon="05.811756"><ele>2.3</ele><time>2021-01-12T13:51:12Z</time><name>PT3001</name></trkpt>
<trkpt lat="52.076478" lon="05.811770"><ele>2.3</ele><time>2021-01-12T13:51:13Z</time><name>PT3002</name></trkpt>
<trkpt lat="52.076482" lon="05.811779"><ele>2.4</ele><time>2021-01-12T13:51:14Z</time><name>PT3003</name></trkpt>
<trkpt lat="52.076493" lon="05.811788"><ele>2.6</ele><time>2021-01-12T13:51:15Z</time><name>PT3004</name></trkpt>
<trkpt lat="52.076502" lon="05.811789"><ele>2.7</ele><time>2021-01-12T13:51:16Z</time><name>PT3005</name></trkpt>
<trkpt lat="52.076510" lon="05.811794"><ele>2.9</ele><time>2021-01-12T13:51:17Z</time><name>PT3006</name></trkpt>
<trkpt lat="52.076515" lon="05.811803"><ele>3.1</ele><time>2021-01-12T13:51:18Z</time><name>PT3007</name></trkpt>
<trkpt lat="52.076526" lon="05.811811"><ele>3.2</ele><time>2021-01-12T13:51:19Z</time><name>PT3008</name></trkpt>
<trkpt lat="52.076535" lon="05.811818"><ele>3.2</ele><time>2021-01-12T13:51:20Z</time><name>PT3009</name></trkpt>
<trkpt lat="52.076542" lon="05.811823"><ele>3.4</ele><time>2021-01-12T13:51:21Z</time><name>PT3010</name></trkpt>
<trkpt lat="52.076552" lon="05.811831"><ele>3.6</ele><time>2021-01-12T13:51:22Z</time><name>PT3011</name></trkpt>
<trkpt lat="52.076564" lon="05.811841"><ele>3.7</ele><time>2021-01-12T13:51:23Z</time><name>PT3012</name></trkpt>
<trkpt lat="52.076578" lon="05.811847"><ele>3.9</ele><time>2021-01-12T13:51:24Z</time><name>PT3013</name></trkpt>
<trkpt lat="52.076584" lon="05.811857"><ele>3.9</ele><time>2021-01-12T13:51:25Z</time><name>PT3014</name></trkpt>
<trkpt lat="52.076592" lon="05.811876"><ele>4</ele><time>2021-01-12T13:51:26Z</time><name>PT3015</name></trkpt>
<trkpt lat="52.076601" lon="05.811889"><ele>3.9</ele><time>2021-01-12T13:51:27Z</time><name>PT3016</name></trkpt>
<trkpt lat="52.076607" lon="05.811897"><ele>3.8</ele><time>2021-01-12T13:51:28Z</time><name>PT3017</name></trkpt>
<trkpt lat="52.076616" lon="05.811907"><ele>3.4</ele><time>2021-01-12T13:51:29Z</time><name>PT3018</name></trkpt>
<trkpt lat="52.076620" lon="05.811917"><ele>3</ele><time>2021-01-12T13:51:30Z</time><name>PT3019</name></trkpt>
<trkpt lat="52.076627" lon="05.811917"><ele>3.1</ele><time>2021-01-12T13:51:31Z</time><name>PT3020</name></trkpt>
<trkpt lat="52.076635" lon="05.811922"><ele>3.1</ele><time>2021-01-12T13:51:32Z</time><name>PT3021</name></trkpt>
<trkpt lat="52.076648" lon="05.811934"><ele>3.3</ele><time>2021-01-12T13:51:33Z</time><name>PT3022</name></trkpt>
<trkpt lat="52.076663" lon="05.811948"><ele>3.3</ele><time>2021-01-12T13:51:34Z</time><name>PT3023</name></trkpt>
<trkpt lat="52.076676" lon="05.811964"><ele>3.3</ele><time>2021-01-12T13:51:35Z</time><name>PT3024</name></trkpt>
<trkpt lat="52.076686" lon="05.811974"><ele>3</ele><time>2021-01-12T13:51:36Z</time><name>PT3025</name></trkpt>
<trkpt lat="52.076697" lon="05.811988"><ele>2.9</ele><time>2021-01-12T13:51:37Z</time><name>PT3026</name></trkpt>
<trkpt lat="52.076705" lon="05.811998"><ele>2.8</ele><time>2021-01-12T13:51:38Z</time><name>PT3027</name></trkpt>
<trkpt lat="52.076712" lon="05.812012"><ele>2.9</ele><time>2021-01-12T13:51:39Z</time><name>PT3028</name></trkpt>
<trkpt lat="52.076718" lon="05.812025"><ele>2.9</ele><time>2021-01-12T13:51:40Z</time><name>PT3029</name></trkpt>
<trkpt lat="52.076721" lon="05.812041"><ele>3</ele><time>2021-01-12T13:51:41Z</time><name>PT3030</name></trkpt>
<trkpt lat="52.076728" lon="05.812055"><ele>3</ele><time>2021-01-12T13:51:42Z</time><name>PT3031</name></trkpt>
<trkpt lat="52.076737" lon="05.812076"><ele>2.9</ele><time>2021-01-12T13:51:43Z</time><name>PT3032</name></trkpt>
<trkpt lat="52.076741" lon="05.812089"><ele>2.9</ele><time>2021-01-12T13:51:44Z</time><name>PT3033</name></trkpt>
<trkpt lat="52.076754" lon="05.812100"><ele>3</ele><time>2021-01-12T13:51:45Z</time><name>PT3034</name></trkpt>
<trkpt lat="52.076763" lon="05.812113"><ele>2.9</ele><time>2021-01-12T13:51:46Z</time><name>PT3035</name></trkpt>
<trkpt lat="52.076772" lon="05.812123"><ele>3</ele><time>2021-01-12T13:51:47Z</time><name>PT3036</name></trkpt>
<trkpt lat="52.076781" lon="05.812132"><ele>3</ele><time>2021-01-12T13:51:48Z</time><name>PT3037</name></trkpt>
<trkpt lat="52.076795" lon="05.812142"><ele>3.1</ele><time>2021-01-12T13:51:49Z</time><name>PT3038</name></trkpt>
<trkpt lat="52.076802" lon="05.812148"><ele>2.9</ele><time>2021-01-12T13:51:50Z</time><name>PT3039</name></trkpt>
<trkpt lat="52.076810" lon="05.812155"><ele>3</ele><time>2021-01-12T13:51:51Z</time><name>PT3040</name></trkpt>
<trkpt lat="52.076816" lon="05.812158"><ele>3</ele><time>2021-01-12T13:51:52Z</time><name>PT3041</name></trkpt>
<trkpt lat="52.076823" lon="05.812169"><ele>2.9</ele><time>2021-01-12T13:51:53Z</time><name>PT3042</name></trkpt>
<trkpt lat="52.076830" lon="05.812177"><ele>3</ele><time>2021-01-12T13:51:54Z</time><name>PT3043</name></trkpt>
<trkpt lat="52.076838" lon="05.812182"><ele>3</ele><time>2021-01-12T13:51:55Z</time><name>PT3044</name></trkpt>
<trkpt lat="52.076843" lon="05.812189"><ele>2.9</ele><time>2021-01-12T13:51:56Z</time><name>PT3045</name></trkpt>
<trkpt lat="52.076848" lon="05.812195"><ele>3.1</ele><time>2021-01-12T13:51:57Z</time><name>PT3046</name></trkpt>
<trkpt lat="52.076858" lon="05.812204"><ele>3.1</ele><time>2021-01-12T13:51:58Z</time><name>PT3047</name></trkpt>
<trkpt lat="52.076867" lon="05.812212"><ele>3.2</ele><time>2021-01-12T13:51:59Z</time><name>PT3048</name></trkpt>
<trkpt lat="52.076878" lon="05.812218"><ele>3.3</ele><time>2021-01-12T13:52:00Z</time><name>PT3049</name></trkpt>
<trkpt lat="52.076883" lon="05.812220"><ele>3.4</ele><time>2021-01-12T13:52:01Z</time><name>PT3050</name></trkpt>
<trkpt lat="52.076887" lon="05.812223"><ele>3.4</ele><time>2021-01-12T13:52:02Z</time><name>PT3051</name></trkpt>
<trkpt lat="52.076895" lon="05.812228"><ele>3.4</ele><time>2021-01-12T13:52:03Z</time><name>PT3052</name></trkpt>
<trkpt lat="52.076903" lon="05.812230"><ele>3.4</ele><time>2021-01-12T13:52:04Z</time><name>PT3053</name></trkpt>
<trkpt lat="52.076906" lon="05.812234"><ele>3.5</ele><time>2021-01-12T13:52:05Z</time><name>PT3054</name></trkpt>
<trkpt lat="52.076913" lon="05.812239"><ele>3.4</ele><time>2021-01-12T13:52:06Z</time><name>PT3055</name></trkpt>
<trkpt lat="52.076918" lon="05.812241"><ele>3.4</ele><time>2021-01-12T13:52:07Z</time><name>PT3056</name></trkpt>
<trkpt lat="52.076920" lon="05.812242"><ele>3.6</ele><time>2021-01-12T13:52:08Z</time><name>PT3057</name></trkpt>
<trkpt lat="52.076923" lon="05.812240"><ele>3.7</ele><time>2021-01-12T13:52:12Z</time><name>PT3058</name></trkpt>
<trkpt lat="52.076945" lon="05.812238"><ele>3.5</ele><time>2021-01-12T13:52:13Z</time><name>PT3059</name></trkpt>
<trkpt lat="52.076958" lon="05.812233"><ele>3.5</ele><time>2021-01-12T13:52:14Z</time><name>PT3060</name></trkpt>
<trkpt lat="52.076972" lon="05.812235"><ele>3.7</ele><time>2021-01-12T13:52:15Z</time><name>PT3061</name></trkpt>
<trkpt lat="52.076980" lon="05.812235"><ele>3.8</ele><time>2021-01-12T13:52:16Z</time><name>PT3062</name></trkpt>
<trkpt lat="52.076992" lon="05.812232"><ele>3.9</ele><time>2021-01-12T13:52:17Z</time><name>PT3063</name></trkpt>
<trkpt lat="52.077005" lon="05.812229"><ele>3.8</ele><time>2021-01-12T13:52:18Z</time><name>PT3064</name></trkpt>
<trkpt lat="52.077016" lon="05.812228"><ele>3.8</ele><time>2021-01-12T13:52:19Z</time><name>PT3065</name></trkpt>
<trkpt lat="52.077030" lon="05.812222"><ele>3.6</ele><time>2021-01-12T13:52:20Z</time><name>PT3066</name></trkpt>
<trkpt lat="52.077040" lon="05.812213"><ele>3.4</ele><time>2021-01-12T13:52:21Z</time><name>PT3067</name></trkpt>
<trkpt lat="52.077046" lon="05.812207"><ele>3.4</ele><time>2021-01-12T13:52:22Z</time><name>PT3068</name></trkpt>
<trkpt lat="52.077055" lon="05.812205"><ele>3.4</ele><time>2021-01-12T13:52:23Z</time><name>PT3069</name></trkpt>
<trkpt lat="52.077062" lon="05.812199"><ele>3.4</ele><time>2021-01-12T13:52:24Z</time><name>PT3070</name></trkpt>
<trkpt lat="52.077071" lon="05.812201"><ele>3.4</ele><time>2021-01-12T13:52:25Z</time><name>PT3071</name></trkpt>
<trkpt lat="52.077077" lon="05.812202"><ele>3.4</ele><time>2021-01-12T13:52:26Z</time><name>PT3072</name></trkpt>
<trkpt lat="52.077083" lon="05.812198"><ele>3.4</ele><time>2021-01-12T13:52:27Z</time><name>PT3073</name></trkpt>
<trkpt lat="52.077088" lon="05.812199"><ele>3.8</ele><time>2021-01-12T13:52:33Z</time><name>PT3074</name></trkpt>
<trkpt lat="52.077093" lon="05.812206"><ele>3.8</ele><time>2021-01-12T13:52:34Z</time><name>PT3075</name></trkpt>
<trkpt lat="52.077095" lon="05.812208"><ele>3.7</ele><time>2021-01-12T13:52:35Z</time><name>PT3076</name></trkpt>
<trkpt lat="52.077096" lon="05.812210"><ele>3.7</ele><time>2021-01-12T13:52:36Z</time><name>PT3077</name></trkpt>
<trkpt lat="52.077097" lon="05.812210"><ele>3.7</ele><time>2021-01-12T13:52:37Z</time><name>PT3078</name></trkpt>
<trkpt lat="52.077098" lon="05.812207"><ele>3.4</ele><time>2021-01-12T13:52:40Z</time><name>PT3079</name></trkpt>
<trkpt lat="52.077100" lon="05.812206"><ele>3.4</ele><time>2021-01-12T13:52:41Z</time><name>PT3080</name></trkpt>
<trkpt lat="52.077104" lon="05.812202"><ele>3.4</ele><time>2021-01-12T13:52:42Z</time><name>PT3081</name></trkpt>
<trkpt lat="52.077106" lon="05.812200"><ele>3.5</ele><time>2021-01-12T13:52:43Z</time><name>PT3082</name></trkpt>
<trkpt lat="52.077109" lon="05.812195"><ele>3.6</ele><time>2021-01-12T13:52:48Z</time><name>PT3083</name></trkpt>
<trkpt lat="52.077112" lon="05.812188"><ele>3.6</ele><time>2021-01-12T13:52:49Z</time><name>PT3084</name></trkpt>
<trkpt lat="52.077113" lon="05.812157"><ele>3.2</ele><time>2021-01-12T13:53:14Z</time><name>PT3085</name></trkpt>
<trkpt lat="52.077110" lon="05.812124"><ele>3.1</ele><time>2021-01-12T13:53:15Z</time><name>PT3086</name></trkpt>
<trkpt lat="52.077115" lon="05.812082"><ele>3.3</ele><time>2021-01-12T13:53:16Z</time><name>PT3087</name></trkpt>
<trkpt lat="52.077116" lon="05.812047"><ele>3.4</ele><time>2021-01-12T13:53:17Z</time><name>PT3088</name></trkpt>
<trkpt lat="52.077119" lon="05.812022"><ele>3.4</ele><time>2021-01-12T13:53:18Z</time><name>PT3089</name></trkpt>
<trkpt lat="52.077122" lon="05.811996"><ele>3.2</ele><time>2021-01-12T13:53:19Z</time><name>PT3090</name></trkpt>
<trkpt lat="52.077121" lon="05.811971"><ele>3.1</ele><time>2021-01-12T13:53:20Z</time><name>PT3091</name></trkpt>
<trkpt lat="52.077119" lon="05.811945"><ele>3.3</ele><time>2021-01-12T13:53:21Z</time><name>PT3092</name></trkpt>
<trkpt lat="52.077118" lon="05.811922"><ele>3.4</ele><time>2021-01-12T13:53:22Z</time><name>PT3093</name></trkpt>
<trkpt lat="52.077115" lon="05.811901"><ele>3.3</ele><time>2021-01-12T13:53:23Z</time><name>PT3094</name></trkpt>
<trkpt lat="52.077116" lon="05.811881"><ele>3.3</ele><time>2021-01-12T13:53:24Z</time><name>PT3095</name></trkpt>
<trkpt lat="52.077117" lon="05.811864"><ele>3.4</ele><time>2021-01-12T13:53:25Z</time><name>PT3096</name></trkpt>
<trkpt lat="52.077114" lon="05.811845"><ele>3.3</ele><time>2021-01-12T13:53:26Z</time><name>PT3097</name></trkpt>
<trkpt lat="52.077111" lon="05.811829"><ele>3.5</ele><time>2021-01-12T13:53:27Z</time><name>PT3098</name></trkpt>
<trkpt lat="52.077107" lon="05.811812"><ele>3.5</ele><time>2021-01-12T13:53:28Z</time><name>PT3099</name></trkpt>
<trkpt lat="52.077103" lon="05.811796"><ele>3.4</ele><time>2021-01-12T13:53:29Z</time><name>PT3100</name></trkpt>
<trkpt lat="52.077097" lon="05.811779"><ele>3.4</ele><time>2021-01-12T13:53:30Z</time><name>PT3101</name></trkpt>
<trkpt lat="52.077093" lon="05.811761"><ele>3.3</ele><time>2021-01-12T13:53:31Z</time><name>PT3102</name></trkpt>
<trkpt lat="52.077090" lon="05.811745"><ele>3.2</ele><time>2021-01-12T13:53:32Z</time><name>PT3103</name></trkpt>
<trkpt lat="52.077088" lon="05.811727"><ele>3.3</ele><time>2021-01-12T13:53:33Z</time><name>PT3104</name></trkpt>
<trkpt lat="52.077086" lon="05.811713"><ele>3.2</ele><time>2021-01-12T13:53:34Z</time><name>PT3105</name></trkpt>
<trkpt lat="52.077087" lon="05.811705"><ele>2.9</ele><time>2021-01-12T13:53:35Z</time><name>PT3106</name></trkpt>
<trkpt lat="52.077085" lon="05.811688"><ele>2.9</ele><time>2021-01-12T13:53:36Z</time><name>PT3107</name></trkpt>
<trkpt lat="52.077081" lon="05.811667"><ele>2.9</ele><time>2021-01-12T13:53:37Z</time><name>PT3108</name></trkpt>
<trkpt lat="52.077077" lon="05.811647"><ele>2.9</ele><time>2021-01-12T13:53:38Z</time><name>PT3109</name></trkpt>
<trkpt lat="52.077072" lon="05.811632"><ele>3.2</ele><time>2021-01-12T13:53:39Z</time><name>PT3110</name></trkpt>
<trkpt lat="52.077070" lon="05.811618"><ele>3.2</ele><time>2021-01-12T13:53:40Z</time><name>PT3111</name></trkpt>
<trkpt lat="52.077068" lon="05.811602"><ele>3.2</ele><time>2021-01-12T13:53:41Z</time><name>PT3112</name></trkpt>
<trkpt lat="52.077065" lon="05.811583"><ele>3.2</ele><time>2021-01-12T13:53:42Z</time><name>PT3113</name></trkpt>
<trkpt lat="52.077063" lon="05.811565"><ele>3.2</ele><time>2021-01-12T13:53:43Z</time><name>PT3114</name></trkpt>
<trkpt lat="52.077059" lon="05.811542"><ele>3.1</ele><time>2021-01-12T13:53:44Z</time><name>PT3115</name></trkpt>
<trkpt lat="52.077056" lon="05.811517"><ele>3.2</ele><time>2021-01-12T13:53:45Z</time><name>PT3116</name></trkpt>
<trkpt lat="52.077047" lon="05.811495"><ele>3.2</ele><time>2021-01-12T13:53:46Z</time><name>PT3117</name></trkpt>
<trkpt lat="52.077038" lon="05.811472"><ele>3.3</ele><time>2021-01-12T13:53:47Z</time><name>PT3118</name></trkpt>
<trkpt lat="52.077031" lon="05.811456"><ele>3.4</ele><time>2021-01-12T13:53:48Z</time><name>PT3119</name></trkpt>
<trkpt lat="52.077026" lon="05.811443"><ele>3.3</ele><time>2021-01-12T13:53:49Z</time><name>PT3120</name></trkpt>
<trkpt lat="52.077027" lon="05.811426"><ele>3.2</ele><time>2021-01-12T13:53:50Z</time><name>PT3121</name></trkpt>
<trkpt lat="52.077027" lon="05.811409"><ele>3.2</ele><time>2021-01-12T13:53:51Z</time><name>PT3122</name></trkpt>
<trkpt lat="52.077028" lon="05.811389"><ele>3.2</ele><time>2021-01-12T13:53:52Z</time><name>PT3123</name></trkpt>
<trkpt lat="52.077025" lon="05.811367"><ele>3.2</ele><time>2021-01-12T13:53:53Z</time><name>PT3124</name></trkpt>
<trkpt lat="52.077022" lon="05.811342"><ele>3.2</ele><time>2021-01-12T13:53:54Z</time><name>PT3125</name></trkpt>
<trkpt lat="52.077020" lon="05.811317"><ele>3.1</ele><time>2021-01-12T13:53:55Z</time><name>PT3126</name></trkpt>
<trkpt lat="52.077013" lon="05.811300"><ele>2.8</ele><time>2021-01-12T13:53:56Z</time><name>PT3127</name></trkpt>
<trkpt lat="52.077009" lon="05.811285"><ele>2.6</ele><time>2021-01-12T13:53:57Z</time><name>PT3128</name></trkpt>
<trkpt lat="52.077004" lon="05.811273"><ele>2.6</ele><time>2021-01-12T13:53:58Z</time><name>PT3129</name></trkpt>
<trkpt lat="52.077000" lon="05.811259"><ele>2.5</ele><time>2021-01-12T13:53:59Z</time><name>PT3130</name></trkpt>
<trkpt lat="52.076999" lon="05.811246"><ele>2.7</ele><time>2021-01-12T13:54:00Z</time><name>PT3131</name></trkpt>
<trkpt lat="52.076998" lon="05.811228"><ele>2.7</ele><time>2021-01-12T13:54:01Z</time><name>PT3132</name></trkpt>
<trkpt lat="52.076996" lon="05.811207"><ele>2.9</ele><time>2021-01-12T13:54:02Z</time><name>PT3133</name></trkpt>
<trkpt lat="52.076992" lon="05.811184"><ele>2.8</ele><time>2021-01-12T13:54:03Z</time><name>PT3134</name></trkpt>
<trkpt lat="52.076989" lon="05.811159"><ele>2.7</ele><time>2021-01-12T13:54:04Z</time><name>PT3135</name></trkpt>
<trkpt lat="52.076984" lon="05.811139"><ele>2.5</ele><time>2021-01-12T13:54:05Z</time><name>PT3136</name></trkpt>
<trkpt lat="52.076979" lon="05.811121"><ele>2.5</ele><time>2021-01-12T13:54:06Z</time><name>PT3137</name></trkpt>
<trkpt lat="52.076979" lon="05.811109"><ele>2.5</ele><time>2021-01-12T13:54:07Z</time><name>PT3138</name></trkpt>
<trkpt lat="52.076977" lon="05.811096"><ele>2.6</ele><time>2021-01-12T13:54:08Z</time><name>PT3139</name></trkpt>
<trkpt lat="52.076971" lon="05.811085"><ele>2.7</ele><time>2021-01-12T13:54:09Z</time><name>PT3140</name></trkpt>
<trkpt lat="52.076966" lon="05.811069"><ele>2.7</ele><time>2021-01-12T13:54:10Z</time><name>PT3141</name></trkpt>
<trkpt lat="52.076964" lon="05.811051"><ele>2.5</ele><time>2021-01-12T13:54:11Z</time><name>PT3142</name></trkpt>
<trkpt lat="52.076964" lon="05.811032"><ele>2.4</ele><time>2021-01-12T13:54:12Z</time><name>PT3143</name></trkpt>
<trkpt lat="52.076962" lon="05.811009"><ele>2.4</ele><time>2021-01-12T13:54:13Z</time><name>PT3144</name></trkpt>
<trkpt lat="52.076957" lon="05.810981"><ele>2.5</ele><time>2021-01-12T13:54:14Z</time><name>PT3145</name></trkpt>
<trkpt lat="52.076951" lon="05.810955"><ele>2.5</ele><time>2021-01-12T13:54:15Z</time><name>PT3146</name></trkpt>
<trkpt lat="52.076947" lon="05.810928"><ele>2.6</ele><time>2021-01-12T13:54:16Z</time><name>PT3147</name></trkpt>
<trkpt lat="52.076945" lon="05.810903"><ele>2.6</ele><time>2021-01-12T13:54:17Z</time><name>PT3148</name></trkpt>
<trkpt lat="52.076941" lon="05.810884"><ele>2.4</ele><time>2021-01-12T13:54:18Z</time><name>PT3149</name></trkpt>
<trkpt lat="52.076937" lon="05.810868"><ele>2.5</ele><time>2021-01-12T13:54:19Z</time><name>PT3150</name></trkpt>
<trkpt lat="52.076935" lon="05.810855"><ele>2.5</ele><time>2021-01-12T13:54:20Z</time><name>PT3151</name></trkpt>
<trkpt lat="52.076932" lon="05.810842"><ele>2.4</ele><time>2021-01-12T13:54:21Z</time><name>PT3152</name></trkpt>
<trkpt lat="52.076931" lon="05.810826"><ele>2.5</ele><time>2021-01-12T13:54:22Z</time><name>PT3153</name></trkpt>
<trkpt lat="52.076929" lon="05.810805"><ele>2.7</ele><time>2021-01-12T13:54:23Z</time><name>PT3154</name></trkpt>
<trkpt lat="52.076931" lon="05.810784"><ele>2.7</ele><time>2021-01-12T13:54:24Z</time><name>PT3155</name></trkpt>
<trkpt lat="52.076934" lon="05.810759"><ele>2.8</ele><time>2021-01-12T13:54:25Z</time><name>PT3156</name></trkpt>
<trkpt lat="52.076933" lon="05.810733"><ele>2.8</ele><time>2021-01-12T13:54:26Z</time><name>PT3157</name></trkpt>
<trkpt lat="52.076929" lon="05.810707"><ele>2.7</ele><time>2021-01-12T13:54:27Z</time><name>PT3158</name></trkpt>
<trkpt lat="52.076927" lon="05.810686"><ele>2.8</ele><time>2021-01-12T13:54:28Z</time><name>PT3159</name></trkpt>
<trkpt lat="52.076923" lon="05.810670"><ele>2.9</ele><time>2021-01-12T13:54:29Z</time><name>PT3160</name></trkpt>
<trkpt lat="52.076918" lon="05.810657"><ele>2.8</ele><time>2021-01-12T13:54:30Z</time><name>PT3161</name></trkpt>
<trkpt lat="52.076916" lon="05.810646"><ele>2.7</ele><time>2021-01-12T13:54:31Z</time><name>PT3162</name></trkpt>
<trkpt lat="52.076917" lon="05.810630"><ele>2.7</ele><time>2021-01-12T13:54:32Z</time><name>PT3163</name></trkpt>
<trkpt lat="52.076916" lon="05.810611"><ele>2.5</ele><time>2021-01-12T13:54:33Z</time><name>PT3164</name></trkpt>
<trkpt lat="52.076917" lon="05.810591"><ele>2.5</ele><time>2021-01-12T13:54:34Z</time><name>PT3165</name></trkpt>
<trkpt lat="52.076915" lon="05.810566"><ele>2.4</ele><time>2021-01-12T13:54:35Z</time><name>PT3166</name></trkpt>
<trkpt lat="52.076911" lon="05.810538"><ele>2.3</ele><time>2021-01-12T13:54:36Z</time><name>PT3167</name></trkpt>
<trkpt lat="52.076905" lon="05.810515"><ele>2.3</ele><time>2021-01-12T13:54:37Z</time><name>PT3168</name></trkpt>
<trkpt lat="52.076900" lon="05.810491"><ele>2.5</ele><time>2021-01-12T13:54:38Z</time><name>PT3169</name></trkpt>
<trkpt lat="52.076898" lon="05.810472"><ele>2.4</ele><time>2021-01-12T13:54:39Z</time><name>PT3170</name></trkpt>
<trkpt lat="52.076895" lon="05.810457"><ele>2.4</ele><time>2021-01-12T13:54:40Z</time><name>PT3171</name></trkpt>
<trkpt lat="52.076892" lon="05.810444"><ele>2.3</ele><time>2021-01-12T13:54:41Z</time><name>PT3172</name></trkpt>
<trkpt lat="52.076888" lon="05.810431"><ele>2.2</ele><time>2021-01-12T13:54:42Z</time><name>PT3173</name></trkpt>
<trkpt lat="52.076885" lon="05.810416"><ele>2.1</ele><time>2021-01-12T13:54:43Z</time><name>PT3174</name></trkpt>
<trkpt lat="52.076883" lon="05.810400"><ele>2.2</ele><time>2021-01-12T13:54:44Z</time><name>PT3175</name></trkpt>
<trkpt lat="52.076880" lon="05.810381"><ele>2.1</ele><time>2021-01-12T13:54:45Z</time><name>PT3176</name></trkpt>
<trkpt lat="52.076876" lon="05.810361"><ele>2.1</ele><time>2021-01-12T13:54:46Z</time><name>PT3177</name></trkpt>
<trkpt lat="52.076869" lon="05.810340"><ele>2</ele><time>2021-01-12T13:54:47Z</time><name>PT3178</name></trkpt>
<trkpt lat="52.076863" lon="05.810315"><ele>2</ele><time>2021-01-12T13:54:48Z</time><name>PT3179</name></trkpt>
<trkpt lat="52.076858" lon="05.810291"><ele>2.1</ele><time>2021-01-12T13:54:49Z</time><name>PT3180</name></trkpt>
<trkpt lat="52.076853" lon="05.810277"><ele>2.2</ele><time>2021-01-12T13:54:50Z</time><name>PT3181</name></trkpt>
<trkpt lat="52.076849" lon="05.810264"><ele>2.3</ele><time>2021-01-12T13:54:51Z</time><name>PT3182</name></trkpt>
<trkpt lat="52.076848" lon="05.810254"><ele>2.3</ele><time>2021-01-12T13:54:52Z</time><name>PT3183</name></trkpt>
<trkpt lat="52.076843" lon="05.810243"><ele>2.2</ele><time>2021-01-12T13:54:53Z</time><name>PT3184</name></trkpt>
<trkpt lat="52.076840" lon="05.810231"><ele>2.3</ele><time>2021-01-12T13:54:54Z</time><name>PT3185</name></trkpt>
<trkpt lat="52.076836" lon="05.810215"><ele>2.4</ele><time>2021-01-12T13:54:55Z</time><name>PT3186</name></trkpt>
<trkpt lat="52.076837" lon="05.810196"><ele>2.3</ele><time>2021-01-12T13:54:56Z</time><name>PT3187</name></trkpt>
<trkpt lat="52.076833" lon="05.810179"><ele>2.6</ele><time>2021-01-12T13:54:57Z</time><name>PT3188</name></trkpt>
<trkpt lat="52.076828" lon="05.810159"><ele>2.6</ele><time>2021-01-12T13:54:58Z</time><name>PT3189</name></trkpt>
<trkpt lat="52.076824" lon="05.810136"><ele>2.6</ele><time>2021-01-12T13:54:59Z</time><name>PT3190</name></trkpt>
<trkpt lat="52.076818" lon="05.810111"><ele>2.7</ele><time>2021-01-12T13:55:00Z</time><name>PT3191</name></trkpt>
<trkpt lat="52.076812" lon="05.810088"><ele>2.8</ele><time>2021-01-12T13:55:01Z</time><name>PT3192</name></trkpt>
<trkpt lat="52.076808" lon="05.810068"><ele>2.7</ele><time>2021-01-12T13:55:02Z</time><name>PT3193</name></trkpt>
<trkpt lat="52.076804" lon="05.810049"><ele>2.8</ele><time>2021-01-12T13:55:03Z</time><name>PT3194</name></trkpt>
<trkpt lat="52.076799" lon="05.810033"><ele>2.9</ele><time>2021-01-12T13:55:04Z</time><name>PT3195</name></trkpt>
<trkpt lat="52.076794" lon="05.810019"><ele>2.8</ele><time>2021-01-12T13:55:05Z</time><name>PT3196</name></trkpt>
<trkpt lat="52.076789" lon="05.810003"><ele>2.9</ele><time>2021-01-12T13:55:06Z</time><name>PT3197</name></trkpt>
<trkpt lat="52.076784" lon="05.809988"><ele>2.9</ele><time>2021-01-12T13:55:07Z</time><name>PT3198</name></trkpt>
<trkpt lat="52.076780" lon="05.809969"><ele>2.9</ele><time>2021-01-12T13:55:08Z</time><name>PT3199</name></trkpt>
<trkpt lat="52.076777" lon="05.809950"><ele>3</ele><time>2021-01-12T13:55:09Z</time><name>PT3200</name></trkpt>
<trkpt lat="52.076775" lon="05.809933"><ele>2.9</ele><time>2021-01-12T13:55:10Z</time><name>PT3201</name></trkpt>
<trkpt lat="52.076772" lon="05.809912"><ele>3</ele><time>2021-01-12T13:55:11Z</time><name>PT3202</name></trkpt>
<trkpt lat="52.076766" lon="05.809893"><ele>2.9</ele><time>2021-01-12T13:55:12Z</time><name>PT3203</name></trkpt>
<trkpt lat="52.076761" lon="05.809877"><ele>2.9</ele><time>2021-01-12T13:55:13Z</time><name>PT3204</name></trkpt>
<trkpt lat="52.076756" lon="05.809860"><ele>2.9</ele><time>2021-01-12T13:55:14Z</time><name>PT3205</name></trkpt>
<trkpt lat="52.076753" lon="05.809846"><ele>2.9</ele><time>2021-01-12T13:55:15Z</time><name>PT3206</name></trkpt>
<trkpt lat="52.076749" lon="05.809832"><ele>3</ele><time>2021-01-12T13:55:16Z</time><name>PT3207</name></trkpt>
<trkpt lat="52.076749" lon="05.809822"><ele>3</ele><time>2021-01-12T13:55:17Z</time><name>PT3208</name></trkpt>
<trkpt lat="52.076749" lon="05.809810"><ele>3.1</ele><time>2021-01-12T13:55:18Z</time><name>PT3209</name></trkpt>
<trkpt lat="52.076746" lon="05.809794"><ele>3.2</ele><time>2021-01-12T13:55:19Z</time><name>PT3210</name></trkpt>
<trkpt lat="52.076744" lon="05.809776"><ele>2.9</ele><time>2021-01-12T13:55:20Z</time><name>PT3211</name></trkpt>
<trkpt lat="52.076744" lon="05.809756"><ele>2.9</ele><time>2021-01-12T13:55:21Z</time><name>PT3212</name></trkpt>
<trkpt lat="52.076742" lon="05.809736"><ele>2.7</ele><time>2021-01-12T13:55:22Z</time><name>PT3213</name></trkpt>
<trkpt lat="52.076737" lon="05.809714"><ele>2.8</ele><time>2021-01-12T13:55:23Z</time><name>PT3214</name></trkpt>
<trkpt lat="52.076732" lon="05.809691"><ele>2.9</ele><time>2021-01-12T13:55:24Z</time><name>PT3215</name></trkpt>
<trkpt lat="52.076727" lon="05.809666"><ele>2.9</ele><time>2021-01-12T13:55:25Z</time><name>PT3216</name></trkpt>
<trkpt lat="52.076722" lon="05.809646"><ele>3.2</ele><time>2021-01-12T13:55:26Z</time><name>PT3217</name></trkpt>
<trkpt lat="52.076718" lon="05.809626"><ele>3.1</ele><time>2021-01-12T13:55:27Z</time><name>PT3218</name></trkpt>
<trkpt lat="52.076719" lon="05.809614"><ele>3.2</ele><time>2021-01-12T13:55:28Z</time><name>PT3219</name></trkpt>
<trkpt lat="52.076717" lon="05.809597"><ele>3.2</ele><time>2021-01-12T13:55:29Z</time><name>PT3220</name></trkpt>
<trkpt lat="52.076712" lon="05.809580"><ele>3.2</ele><time>2021-01-12T13:55:30Z</time><name>PT3221</name></trkpt>
<trkpt lat="52.076707" lon="05.809563"><ele>3.2</ele><time>2021-01-12T13:55:31Z</time><name>PT3222</name></trkpt>
<trkpt lat="52.076707" lon="05.809543"><ele>3.1</ele><time>2021-01-12T13:55:32Z</time><name>PT3223</name></trkpt>
<trkpt lat="52.076706" lon="05.809524"><ele>3</ele><time>2021-01-12T13:55:33Z</time><name>PT3224</name></trkpt>
<trkpt lat="52.076704" lon="05.809503"><ele>3.1</ele><time>2021-01-12T13:55:34Z</time><name>PT3225</name></trkpt>
<trkpt lat="52.076700" lon="05.809479"><ele>3</ele><time>2021-01-12T13:55:35Z</time><name>PT3226</name></trkpt>
<trkpt lat="52.076696" lon="05.809456"><ele>3</ele><time>2021-01-12T13:55:36Z</time><name>PT3227</name></trkpt>
<trkpt lat="52.076691" lon="05.809432"><ele>3.1</ele><time>2021-01-12T13:55:37Z</time><name>PT3228</name></trkpt>
<trkpt lat="52.076686" lon="05.809409"><ele>3.1</ele><time>2021-01-12T13:55:38Z</time><name>PT3229</name></trkpt>
<trkpt lat="52.076680" lon="05.809386"><ele>3.1</ele><time>2021-01-12T13:55:39Z</time><name>PT3230</name></trkpt>
<trkpt lat="52.076677" lon="05.809369"><ele>3.2</ele><time>2021-01-12T13:55:40Z</time><name>PT3231</name></trkpt>
<trkpt lat="52.076674" lon="05.809356"><ele>3.2</ele><time>2021-01-12T13:55:41Z</time><name>PT3232</name></trkpt>
<trkpt lat="52.076671" lon="05.809340"><ele>3.1</ele><time>2021-01-12T13:55:42Z</time><name>PT3233</name></trkpt>
<trkpt lat="52.076667" lon="05.809324"><ele>3.2</ele><time>2021-01-12T13:55:43Z</time><name>PT3234</name></trkpt>
<trkpt lat="52.076663" lon="05.809306"><ele>3.2</ele><time>2021-01-12T13:55:44Z</time><name>PT3235</name></trkpt>
<trkpt lat="52.076659" lon="05.809289"><ele>3.1</ele><time>2021-01-12T13:55:45Z</time><name>PT3236</name></trkpt>
<trkpt lat="52.076656" lon="05.809273"><ele>3</ele><time>2021-01-12T13:55:46Z</time><name>PT3237</name></trkpt>
<trkpt lat="52.076653" lon="05.809256"><ele>2.9</ele><time>2021-01-12T13:55:47Z</time><name>PT3238</name></trkpt>
<trkpt lat="52.076652" lon="05.809237"><ele>2.9</ele><time>2021-01-12T13:55:48Z</time><name>PT3239</name></trkpt>
<trkpt lat="52.076647" lon="05.809216"><ele>2.9</ele><time>2021-01-12T13:55:49Z</time><name>PT3240</name></trkpt>
<trkpt lat="52.076643" lon="05.809191"><ele>2.8</ele><time>2021-01-12T13:55:50Z</time><name>PT3241</name></trkpt>
<trkpt lat="52.076639" lon="05.809167"><ele>2.9</ele><time>2021-01-12T13:55:51Z</time><name>PT3242</name></trkpt>
<trkpt lat="52.076632" lon="05.809145"><ele>2.9</ele><time>2021-01-12T13:55:52Z</time><name>PT3243</name></trkpt>
<trkpt lat="52.076631" lon="05.809129"><ele>2.8</ele><time>2021-01-12T13:55:53Z</time><name>PT3244</name></trkpt>
<trkpt lat="52.076629" lon="05.809117"><ele>2.9</ele><time>2021-01-12T13:55:54Z</time><name>PT3245</name></trkpt>
<trkpt lat="52.076628" lon="05.809102"><ele>2.9</ele><time>2021-01-12T13:55:55Z</time><name>PT3246</name></trkpt>
<trkpt lat="52.076624" lon="05.809090"><ele>2.9</ele><time>2021-01-12T13:55:56Z</time><name>PT3247</name></trkpt>
<trkpt lat="52.076620" lon="05.809074"><ele>3.1</ele><time>2021-01-12T13:55:57Z</time><name>PT3248</name></trkpt>
<trkpt lat="52.076620" lon="05.809059"><ele>3.2</ele><time>2021-01-12T13:55:58Z</time><name>PT3249</name></trkpt>
<trkpt lat="52.076619" lon="05.809038"><ele>3.3</ele><time>2021-01-12T13:55:59Z</time><name>PT3250</name></trkpt>
<trkpt lat="52.076618" lon="05.809021"><ele>3.1</ele><time>2021-01-12T13:56:00Z</time><name>PT3251</name></trkpt>
<trkpt lat="52.076617" lon="05.808999"><ele>3.1</ele><time>2021-01-12T13:56:01Z</time><name>PT3252</name></trkpt>
<trkpt lat="52.076617" lon="05.808976"><ele>2.9</ele><time>2021-01-12T13:56:02Z</time><name>PT3253</name></trkpt>
<trkpt lat="52.076616" lon="05.808953"><ele>3.1</ele><time>2021-01-12T13:56:03Z</time><name>PT3254</name></trkpt>
<trkpt lat="52.076612" lon="05.808928"><ele>3.2</ele><time>2021-01-12T13:56:04Z</time><name>PT3255</name></trkpt>
<trkpt lat="52.076609" lon="05.808901"><ele>3.4</ele><time>2021-01-12T13:56:05Z</time><name>PT3256</name></trkpt>
<trkpt lat="52.076604" lon="05.808873"><ele>3.4</ele><time>2021-01-12T13:56:06Z</time><name>PT3257</name></trkpt>
<trkpt lat="52.076601" lon="05.808852"><ele>3.3</ele><time>2021-01-12T13:56:07Z</time><name>PT3258</name></trkpt>
<trkpt lat="52.076598" lon="05.808836"><ele>3.3</ele><time>2021-01-12T13:56:08Z</time><name>PT3259</name></trkpt>
<trkpt lat="52.076592" lon="05.808820"><ele>3.2</ele><time>2021-01-12T13:56:09Z</time><name>PT3260</name></trkpt>
<trkpt lat="52.076590" lon="05.808805"><ele>3.2</ele><time>2021-01-12T13:56:10Z</time><name>PT3261</name></trkpt>
<trkpt lat="52.076589" lon="05.808787"><ele>3.4</ele><time>2021-01-12T13:56:11Z</time><name>PT3262</name></trkpt>
<trkpt lat="52.076588" lon="05.808769"><ele>3.4</ele><time>2021-01-12T13:56:12Z</time><name>PT3263</name></trkpt>
<trkpt lat="52.076589" lon="05.808753"><ele>3.4</ele><time>2021-01-12T13:56:13Z</time><name>PT3264</name></trkpt>
<trkpt lat="52.076589" lon="05.808736"><ele>3.4</ele><time>2021-01-12T13:56:14Z</time><name>PT3265</name></trkpt>
<trkpt lat="52.076584" lon="05.808724"><ele>3.1</ele><time>2021-01-12T13:56:15Z</time><name>PT3266</name></trkpt>
<trkpt lat="52.076580" lon="05.808709"><ele>3.1</ele><time>2021-01-12T13:56:16Z</time><name>PT3267</name></trkpt>
<trkpt lat="52.076575" lon="05.808686"><ele>3.1</ele><time>2021-01-12T13:56:17Z</time><name>PT3268</name></trkpt>
<trkpt lat="52.076570" lon="05.808665"><ele>3</ele><time>2021-01-12T13:56:18Z</time><name>PT3269</name></trkpt>
<trkpt lat="52.076567" lon="05.808645"><ele>3.1</ele><time>2021-01-12T13:56:19Z</time><name>PT3270</name></trkpt>
<trkpt lat="52.076567" lon="05.808623"><ele>3.2</ele><time>2021-01-12T13:56:20Z</time><name>PT3271</name></trkpt>
<trkpt lat="52.076566" lon="05.808600"><ele>3</ele><time>2021-01-12T13:56:21Z</time><name>PT3272</name></trkpt>
<trkpt lat="52.076560" lon="05.808581"><ele>3</ele><time>2021-01-12T13:56:22Z</time><name>PT3273</name></trkpt>
<trkpt lat="52.076557" lon="05.808566"><ele>3</ele><time>2021-01-12T13:56:23Z</time><name>PT3274</name></trkpt>
<trkpt lat="52.076553" lon="05.808552"><ele>2.9</ele><time>2021-01-12T13:56:24Z</time><name>PT3275</name></trkpt>
<trkpt lat="52.076553" lon="05.808539"><ele>2.9</ele><time>2021-01-12T13:56:25Z</time><name>PT3276</name></trkpt>
<trkpt lat="52.076554" lon="05.808523"><ele>2.9</ele><time>2021-01-12T13:56:26Z</time><name>PT3277</name></trkpt>
<trkpt lat="52.076552" lon="05.808507"><ele>2.9</ele><time>2021-01-12T13:56:27Z</time><name>PT3278</name></trkpt>
<trkpt lat="52.076549" lon="05.808488"><ele>2.9</ele><time>2021-01-12T13:56:28Z</time><name>PT3279</name></trkpt>
<trkpt lat="52.076546" lon="05.808468"><ele>2.9</ele><time>2021-01-12T13:56:29Z</time><name>PT3280</name></trkpt>
<trkpt lat="52.076537" lon="05.808448"><ele>2.9</ele><time>2021-01-12T13:56:30Z</time><name>PT3281</name></trkpt>
<trkpt lat="52.076530" lon="05.808427"><ele>2.9</ele><time>2021-01-12T13:56:31Z</time><name>PT3282</name></trkpt>
<trkpt lat="52.076524" lon="05.808403"><ele>3</ele><time>2021-01-12T13:56:32Z</time><name>PT3283</name></trkpt>
<trkpt lat="52.076518" lon="05.808379"><ele>3.1</ele><time>2021-01-12T13:56:33Z</time><name>PT3284</name></trkpt>
<trkpt lat="52.076513" lon="05.808359"><ele>3.2</ele><time>2021-01-12T13:56:34Z</time><name>PT3285</name></trkpt>
<trkpt lat="52.076512" lon="05.808340"><ele>3.1</ele><time>2021-01-12T13:56:35Z</time><name>PT3286</name></trkpt>
<trkpt lat="52.076510" lon="05.808323"><ele>3</ele><time>2021-01-12T13:56:36Z</time><name>PT3287</name></trkpt>
<trkpt lat="52.076505" lon="05.808308"><ele>3</ele><time>2021-01-12T13:56:37Z</time><name>PT3288</name></trkpt>
<trkpt lat="52.076501" lon="05.808296"><ele>2.9</ele><time>2021-01-12T13:56:38Z</time><name>PT3289</name></trkpt>
<trkpt lat="52.076498" lon="05.808282"><ele>2.9</ele><time>2021-01-12T13:56:39Z</time><name>PT3290</name></trkpt>
<trkpt lat="52.076493" lon="05.808265"><ele>2.9</ele><time>2021-01-12T13:56:40Z</time><name>PT3291</name></trkpt>
<trkpt lat="52.076490" lon="05.808247"><ele>2.9</ele><time>2021-01-12T13:56:41Z</time><name>PT3292</name></trkpt>
<trkpt lat="52.076489" lon="05.808226"><ele>3.2</ele><time>2021-01-12T13:56:42Z</time><name>PT3293</name></trkpt>
<trkpt lat="52.076489" lon="05.808201"><ele>3.1</ele><time>2021-01-12T13:56:43Z</time><name>PT3294</name></trkpt>
<trkpt lat="52.076483" lon="05.808179"><ele>3</ele><time>2021-01-12T13:56:44Z</time><name>PT3295</name></trkpt>
<trkpt lat="52.076475" lon="05.808159"><ele>2.9</ele><time>2021-01-12T13:56:45Z</time><name>PT3296</name></trkpt>
<trkpt lat="52.076470" lon="05.808142"><ele>2.8</ele><time>2021-01-12T13:56:46Z</time><name>PT3297</name></trkpt>
<trkpt lat="52.076467" lon="05.808126"><ele>2.6</ele><time>2021-01-12T13:56:47Z</time><name>PT3298</name></trkpt>
<trkpt lat="52.076463" lon="05.808111"><ele>2.5</ele><time>2021-01-12T13:56:48Z</time><name>PT3299</name></trkpt>
<trkpt lat="52.076459" lon="05.808099"><ele>2.5</ele><time>2021-01-12T13:56:49Z</time><name>PT3300</name></trkpt>
<trkpt lat="52.076455" lon="05.808083"><ele>2.6</ele><time>2021-01-12T13:56:50Z</time><name>PT3301</name></trkpt>
<trkpt lat="52.076450" lon="05.808067"><ele>2.7</ele><time>2021-01-12T13:56:51Z</time><name>PT3302</name></trkpt>
<trkpt lat="52.076449" lon="05.808051"><ele>2.9</ele><time>2021-01-12T13:56:52Z</time><name>PT3303</name></trkpt>
<trkpt lat="52.076446" lon="05.808027"><ele>3.2</ele><time>2021-01-12T13:56:53Z</time><name>PT3304</name></trkpt>
<trkpt lat="52.076444" lon="05.808004"><ele>3</ele><time>2021-01-12T13:56:54Z</time><name>PT3305</name></trkpt>
<trkpt lat="52.076445" lon="05.807981"><ele>3</ele><time>2021-01-12T13:56:55Z</time><name>PT3306</name></trkpt>
<trkpt lat="52.076442" lon="05.807958"><ele>2.9</ele><time>2021-01-12T13:56:56Z</time><name>PT3307</name></trkpt>
<trkpt lat="52.076440" lon="05.807942"><ele>2.7</ele><time>2021-01-12T13:56:57Z</time><name>PT3308</name></trkpt>
<trkpt lat="52.076438" lon="05.807928"><ele>2.7</ele><time>2021-01-12T13:56:58Z</time><name>PT3309</name></trkpt>
<trkpt lat="52.076434" lon="05.807911"><ele>2.7</ele><time>2021-01-12T13:56:59Z</time><name>PT3310</name></trkpt>
<trkpt lat="52.076433" lon="05.807896"><ele>2.5</ele><time>2021-01-12T13:57:00Z</time><name>PT3311</name></trkpt>
<trkpt lat="52.076431" lon="05.807877"><ele>2.7</ele><time>2021-01-12T13:57:01Z</time><name>PT3312</name></trkpt>
<trkpt lat="52.076430" lon="05.807859"><ele>2.8</ele><time>2021-01-12T13:57:02Z</time><name>PT3313</name></trkpt>
<trkpt lat="52.076428" lon="05.807838"><ele>2.9</ele><time>2021-01-12T13:57:03Z</time><name>PT3314</name></trkpt>
<trkpt lat="52.076427" lon="05.807817"><ele>2.9</ele><time>2021-01-12T13:57:04Z</time><name>PT3315</name></trkpt>
<trkpt lat="52.076425" lon="05.807796"><ele>2.9</ele><time>2021-01-12T13:57:05Z</time><name>PT3316</name></trkpt>
<trkpt lat="52.076422" lon="05.807774"><ele>2.9</ele><time>2021-01-12T13:57:06Z</time><name>PT3317</name></trkpt>
<trkpt lat="52.076417" lon="05.807750"><ele>2.8</ele><time>2021-01-12T13:57:07Z</time><name>PT3318</name></trkpt>
<trkpt lat="52.076410" lon="05.807729"><ele>2.6</ele><time>2021-01-12T13:57:08Z</time><name>PT3319</name></trkpt>
<trkpt lat="52.076406" lon="05.807714"><ele>2.6</ele><time>2021-01-12T13:57:09Z</time><name>PT3320</name></trkpt>
<trkpt lat="52.076402" lon="05.807700"><ele>2.7</ele><time>2021-01-12T13:57:10Z</time><name>PT3321</name></trkpt>
<trkpt lat="52.076398" lon="05.807688"><ele>2.7</ele><time>2021-01-12T13:57:11Z</time><name>PT3322</name></trkpt>
<trkpt lat="52.076396" lon="05.807673"><ele>2.9</ele><time>2021-01-12T13:57:12Z</time><name>PT3323</name></trkpt>
<trkpt lat="52.076391" lon="05.807655"><ele>2.8</ele><time>2021-01-12T13:57:13Z</time><name>PT3324</name></trkpt>
<trkpt lat="52.076388" lon="05.807638"><ele>2.6</ele><time>2021-01-12T13:57:14Z</time><name>PT3325</name></trkpt>
<trkpt lat="52.076386" lon="05.807612"><ele>2.5</ele><time>2021-01-12T13:57:15Z</time><name>PT3326</name></trkpt>
<trkpt lat="52.076381" lon="05.807588"><ele>2.3</ele><time>2021-01-12T13:57:16Z</time><name>PT3327</name></trkpt>
<trkpt lat="52.076372" lon="05.807565"><ele>2.3</ele><time>2021-01-12T13:57:17Z</time><name>PT3328</name></trkpt>
<trkpt lat="52.076367" lon="05.807547"><ele>2.3</ele><time>2021-01-12T13:57:18Z</time><name>PT3329</name></trkpt>
<trkpt lat="52.076362" lon="05.807533"><ele>2.2</ele><time>2021-01-12T13:57:19Z</time><name>PT3330</name></trkpt>
<trkpt lat="52.076358" lon="05.807519"><ele>2.3</ele><time>2021-01-12T13:57:20Z</time><name>PT3331</name></trkpt>
<trkpt lat="52.076355" lon="05.807503"><ele>2.3</ele><time>2021-01-12T13:57:21Z</time><name>PT3332</name></trkpt>
<trkpt lat="52.076352" lon="05.807489"><ele>2.1</ele><time>2021-01-12T13:57:22Z</time><name>PT3333</name></trkpt>
<trkpt lat="52.076347" lon="05.807474"><ele>2.2</ele><time>2021-01-12T13:57:23Z</time><name>PT3334</name></trkpt>
<trkpt lat="52.076346" lon="05.807455"><ele>2.1</ele><time>2021-01-12T13:57:24Z</time><name>PT3335</name></trkpt>
<trkpt lat="52.076344" lon="05.807434"><ele>2.1</ele><time>2021-01-12T13:57:25Z</time><name>PT3336</name></trkpt>
<trkpt lat="52.076339" lon="05.807413"><ele>1.9</ele><time>2021-01-12T13:57:26Z</time><name>PT3337</name></trkpt>
<trkpt lat="52.076331" lon="05.807392"><ele>1.8</ele><time>2021-01-12T13:57:27Z</time><name>PT3338</name></trkpt>
<trkpt lat="52.076326" lon="05.807373"><ele>1.8</ele><time>2021-01-12T13:57:28Z</time><name>PT3339</name></trkpt>
<trkpt lat="52.076324" lon="05.807357"><ele>1.8</ele><time>2021-01-12T13:57:29Z</time><name>PT3340</name></trkpt>
<trkpt lat="52.076320" lon="05.807344"><ele>1.9</ele><time>2021-01-12T13:57:30Z</time><name>PT3341</name></trkpt>
<trkpt lat="52.076315" lon="05.807330"><ele>2</ele><time>2021-01-12T13:57:31Z</time><name>PT3342</name></trkpt>
<trkpt lat="52.076312" lon="05.807314"><ele>2.1</ele><time>2021-01-12T13:57:32Z</time><name>PT3343</name></trkpt>
<trkpt lat="52.076309" lon="05.807297"><ele>2.2</ele><time>2021-01-12T13:57:33Z</time><name>PT3344</name></trkpt>
<trkpt lat="52.076307" lon="05.807277"><ele>2.2</ele><time>2021-01-12T13:57:34Z</time><name>PT3345</name></trkpt>
<trkpt lat="52.076305" lon="05.807256"><ele>2.2</ele><time>2021-01-12T13:57:35Z</time><name>PT3346</name></trkpt>
<trkpt lat="52.076300" lon="05.807235"><ele>2.3</ele><time>2021-01-12T13:57:36Z</time><name>PT3347</name></trkpt>
<trkpt lat="52.076296" lon="05.807214"><ele>2.2</ele><time>2021-01-12T13:57:37Z</time><name>PT3348</name></trkpt>
<trkpt lat="52.076290" lon="05.807193"><ele>2.1</ele><time>2021-01-12T13:57:38Z</time><name>PT3349</name></trkpt>
<trkpt lat="52.076283" lon="05.807175"><ele>2.1</ele><time>2021-01-12T13:57:39Z</time><name>PT3350</name></trkpt>
<trkpt lat="52.076278" lon="05.807161"><ele>2.1</ele><time>2021-01-12T13:57:40Z</time><name>PT3351</name></trkpt>
<trkpt lat="52.076273" lon="05.807147"><ele>2.3</ele><time>2021-01-12T13:57:41Z</time><name>PT3352</name></trkpt>
<trkpt lat="52.076268" lon="05.807136"><ele>2.3</ele><time>2021-01-12T13:57:42Z</time><name>PT3353</name></trkpt>
<trkpt lat="52.076267" lon="05.807127"><ele>2.2</ele><time>2021-01-12T13:57:43Z</time><name>PT3354</name></trkpt>
<trkpt lat="52.076265" lon="05.807114"><ele>2.3</ele><time>2021-01-12T13:57:44Z</time><name>PT3355</name></trkpt>
<trkpt lat="52.076262" lon="05.807099"><ele>2.1</ele><time>2021-01-12T13:57:45Z</time><name>PT3356</name></trkpt>
<trkpt lat="52.076260" lon="05.807080"><ele>2</ele><time>2021-01-12T13:57:46Z</time><name>PT3357</name></trkpt>
<trkpt lat="52.076254" lon="05.807061"><ele>1.9</ele><time>2021-01-12T13:57:47Z</time><name>PT3358</name></trkpt>
<trkpt lat="52.076249" lon="05.807039"><ele>1.8</ele><time>2021-01-12T13:57:48Z</time><name>PT3359</name></trkpt>
<trkpt lat="52.076244" lon="05.807022"><ele>1.9</ele><time>2021-01-12T13:57:49Z</time><name>PT3360</name></trkpt>
<trkpt lat="52.076240" lon="05.807008"><ele>2</ele><time>2021-01-12T13:57:50Z</time><name>PT3361</name></trkpt>
<trkpt lat="52.076236" lon="05.806995"><ele>2</ele><time>2021-01-12T13:57:51Z</time><name>PT3362</name></trkpt>
<trkpt lat="52.076231" lon="05.806979"><ele>2.1</ele><time>2021-01-12T13:57:52Z</time><name>PT3363</name></trkpt>
<trkpt lat="52.076227" lon="05.806961"><ele>2</ele><time>2021-01-12T13:57:53Z</time><name>PT3364</name></trkpt>
<trkpt lat="52.076223" lon="05.806949"><ele>1.9</ele><time>2021-01-12T13:57:54Z</time><name>PT3365</name></trkpt>
<trkpt lat="52.076219" lon="05.806930"><ele>2</ele><time>2021-01-12T13:57:55Z</time><name>PT3366</name></trkpt>
<trkpt lat="52.076214" lon="05.806909"><ele>1.8</ele><time>2021-01-12T13:57:56Z</time><name>PT3367</name></trkpt>
<trkpt lat="52.076213" lon="05.806892"><ele>1.8</ele><time>2021-01-12T13:57:57Z</time><name>PT3368</name></trkpt>
<trkpt lat="52.076209" lon="05.806876"><ele>1.6</ele><time>2021-01-12T13:57:58Z</time><name>PT3369</name></trkpt>
<trkpt lat="52.076207" lon="05.806864"><ele>1.5</ele><time>2021-01-12T13:57:59Z</time><name>PT3370</name></trkpt>
<trkpt lat="52.076205" lon="05.806849"><ele>1.7</ele><time>2021-01-12T13:58:00Z</time><name>PT3371</name></trkpt>
<trkpt lat="52.076207" lon="05.806835"><ele>1.7</ele><time>2021-01-12T13:58:01Z</time><name>PT3372</name></trkpt>
<trkpt lat="52.076207" lon="05.806814"><ele>1.8</ele><time>2021-01-12T13:58:02Z</time><name>PT3373</name></trkpt>
<trkpt lat="52.076202" lon="05.806786"><ele>1.9</ele><time>2021-01-12T13:58:03Z</time><name>PT3374</name></trkpt>
<trkpt lat="52.076196" lon="05.806764"><ele>1.9</ele><time>2021-01-12T13:58:04Z</time><name>PT3375</name></trkpt>
<trkpt lat="52.076190" lon="05.806749"><ele>1.7</ele><time>2021-01-12T13:58:05Z</time><name>PT3376</name></trkpt>
<trkpt lat="52.076186" lon="05.806737"><ele>1.8</ele><time>2021-01-12T13:58:06Z</time><name>PT3377</name></trkpt>
<trkpt lat="52.076183" lon="05.806721"><ele>1.8</ele><time>2021-01-12T13:58:07Z</time><name>PT3378</name></trkpt>
<trkpt lat="52.076180" lon="05.806705"><ele>1.8</ele><time>2021-01-12T13:58:08Z</time><name>PT3379</name></trkpt>
<trkpt lat="52.076175" lon="05.806684"><ele>1.9</ele><time>2021-01-12T13:58:09Z</time><name>PT3380</name></trkpt>
<trkpt lat="52.076173" lon="05.806660"><ele>1.8</ele><time>2021-01-12T13:58:10Z</time><name>PT3381</name></trkpt>
<trkpt lat="52.076167" lon="05.806638"><ele>1.7</ele><time>2021-01-12T13:58:11Z</time><name>PT3382</name></trkpt>
<trkpt lat="52.076162" lon="05.806616"><ele>1.7</ele><time>2021-01-12T13:58:12Z</time><name>PT3383</name></trkpt>
<trkpt lat="52.076157" lon="05.806598"><ele>1.7</ele><time>2021-01-12T13:58:13Z</time><name>PT3384</name></trkpt>
<trkpt lat="52.076153" lon="05.806583"><ele>1.7</ele><time>2021-01-12T13:58:14Z</time><name>PT3385</name></trkpt>
<trkpt lat="52.076148" lon="05.806571"><ele>1.8</ele><time>2021-01-12T13:58:15Z</time><name>PT3386</name></trkpt>
<trkpt lat="52.076146" lon="05.806558"><ele>1.8</ele><time>2021-01-12T13:58:16Z</time><name>PT3387</name></trkpt>
<trkpt lat="52.076144" lon="05.806540"><ele>1.8</ele><time>2021-01-12T13:58:17Z</time><name>PT3388</name></trkpt>
<trkpt lat="52.076141" lon="05.806522"><ele>1.8</ele><time>2021-01-12T13:58:18Z</time><name>PT3389</name></trkpt>
<trkpt lat="52.076137" lon="05.806497"><ele>1.8</ele><time>2021-01-12T13:58:19Z</time><name>PT3390</name></trkpt>
<trkpt lat="52.076130" lon="05.806474"><ele>1.5</ele><time>2021-01-12T13:58:20Z</time><name>PT3391</name></trkpt>
<trkpt lat="52.076122" lon="05.806448"><ele>1.5</ele><time>2021-01-12T13:58:21Z</time><name>PT3392</name></trkpt>
<trkpt lat="52.076115" lon="05.806419"><ele>1.5</ele><time>2021-01-12T13:58:22Z</time><name>PT3393</name></trkpt>
<trkpt lat="52.076111" lon="05.806393"><ele>1.6</ele><time>2021-01-12T13:58:23Z</time><name>PT3394</name></trkpt>
<trkpt lat="52.076107" lon="05.806378"><ele>1.7</ele><time>2021-01-12T13:58:24Z</time><name>PT3395</name></trkpt>
<trkpt lat="52.076102" lon="05.806364"><ele>1.8</ele><time>2021-01-12T13:58:25Z</time><name>PT3396</name></trkpt>
<trkpt lat="52.076100" lon="05.806357"><ele>1.8</ele><time>2021-01-12T13:58:26Z</time><name>PT3397</name></trkpt>
<trkpt lat="52.076097" lon="05.806351"><ele>1.8</ele><time>2021-01-12T13:58:27Z</time><name>PT3398</name></trkpt>
<trkpt lat="52.076095" lon="05.806338"><ele>1.8</ele><time>2021-01-12T13:58:28Z</time><name>PT3399</name></trkpt>
<trkpt lat="52.076090" lon="05.806326"><ele>1.8</ele><time>2021-01-12T13:58:29Z</time><name>PT3400</name></trkpt>
<trkpt lat="52.076090" lon="05.806309"><ele>1.8</ele><time>2021-01-12T13:58:30Z</time><name>PT3401</name></trkpt>
<trkpt lat="52.076083" lon="05.806292"><ele>1.8</ele><time>2021-01-12T13:58:31Z</time><name>PT3402</name></trkpt>
<trkpt lat="52.076073" lon="05.806273"><ele>1.7</ele><time>2021-01-12T13:58:32Z</time><name>PT3403</name></trkpt>
<trkpt lat="52.076066" lon="05.806254"><ele>1.7</ele><time>2021-01-12T13:58:33Z</time><name>PT3404</name></trkpt>
<trkpt lat="52.076061" lon="05.806240"><ele>1.8</ele><time>2021-01-12T13:58:34Z</time><name>PT3405</name></trkpt>
<trkpt lat="52.076057" lon="05.806228"><ele>1.9</ele><time>2021-01-12T13:58:35Z</time><name>PT3406</name></trkpt>
<trkpt lat="52.076053" lon="05.806216"><ele>2</ele><time>2021-01-12T13:58:36Z</time><name>PT3407</name></trkpt>
<trkpt lat="52.076051" lon="05.806204"><ele>2</ele><time>2021-01-12T13:58:37Z</time><name>PT3408</name></trkpt>
<trkpt lat="52.076050" lon="05.806192"><ele>1.9</ele><time>2021-01-12T13:58:38Z</time><name>PT3409</name></trkpt>
<trkpt lat="52.076046" lon="05.806175"><ele>1.8</ele><time>2021-01-12T13:58:39Z</time><name>PT3410</name></trkpt>
<trkpt lat="52.076044" lon="05.806154"><ele>1.9</ele><time>2021-01-12T13:58:40Z</time><name>PT3411</name></trkpt>
<trkpt lat="52.076039" lon="05.806136"><ele>2.1</ele><time>2021-01-12T13:58:41Z</time><name>PT3412</name></trkpt>
<trkpt lat="52.076031" lon="05.806115"><ele>2.3</ele><time>2021-01-12T13:58:42Z</time><name>PT3413</name></trkpt>
<trkpt lat="52.076023" lon="05.806099"><ele>2.3</ele><time>2021-01-12T13:58:43Z</time><name>PT3414</name></trkpt>
<trkpt lat="52.076018" lon="05.806085"><ele>2.3</ele><time>2021-01-12T13:58:44Z</time><name>PT3415</name></trkpt>
<trkpt lat="52.076014" lon="05.806076"><ele>2.3</ele><time>2021-01-12T13:58:45Z</time><name>PT3416</name></trkpt>
<trkpt lat="52.076013" lon="05.806065"><ele>2.3</ele><time>2021-01-12T13:58:46Z</time><name>PT3417</name></trkpt>
<trkpt lat="52.076008" lon="05.806053"><ele>2</ele><time>2021-01-12T13:58:47Z</time><name>PT3418</name></trkpt>
<trkpt lat="52.076002" lon="05.806040"><ele>2.1</ele><time>2021-01-12T13:58:48Z</time><name>PT3419</name></trkpt>
<trkpt lat="52.075998" lon="05.806020"><ele>2.2</ele><time>2021-01-12T13:58:49Z</time><name>PT3420</name></trkpt>
<trkpt lat="52.075993" lon="05.805999"><ele>2.2</ele><time>2021-01-12T13:58:50Z</time><name>PT3421</name></trkpt>
<trkpt lat="52.075986" lon="05.805981"><ele>2.3</ele><time>2021-01-12T13:58:51Z</time><name>PT3422</name></trkpt>
<trkpt lat="52.075984" lon="05.805967"><ele>2.3</ele><time>2021-01-12T13:58:52Z</time><name>PT3423</name></trkpt>
<trkpt lat="52.075980" lon="05.805954"><ele>2.3</ele><time>2021-01-12T13:58:53Z</time><name>PT3424</name></trkpt>
<trkpt lat="52.075976" lon="05.805941"><ele>2.3</ele><time>2021-01-12T13:58:54Z</time><name>PT3425</name></trkpt>
<trkpt lat="52.075973" lon="05.805925"><ele>2.2</ele><time>2021-01-12T13:58:55Z</time><name>PT3426</name></trkpt>
<trkpt lat="52.075971" lon="05.805906"><ele>2.1</ele><time>2021-01-12T13:58:56Z</time><name>PT3427</name></trkpt>
<trkpt lat="52.075970" lon="05.805883"><ele>2.2</ele><time>2021-01-12T13:58:57Z</time><name>PT3428</name></trkpt>
<trkpt lat="52.075961" lon="05.805866"><ele>2.1</ele><time>2021-01-12T13:58:58Z</time><name>PT3429</name></trkpt>
<trkpt lat="52.075953" lon="05.805846"><ele>2.2</ele><time>2021-01-12T13:58:59Z</time><name>PT3430</name></trkpt>
<trkpt lat="52.075946" lon="05.805825"><ele>2.2</ele><time>2021-01-12T13:59:00Z</time><name>PT3431</name></trkpt>
<trkpt lat="52.075941" lon="05.805809"><ele>2</ele><time>2021-01-12T13:59:01Z</time><name>PT3432</name></trkpt>
<trkpt lat="52.075939" lon="05.805796"><ele>1.9</ele><time>2021-01-12T13:59:02Z</time><name>PT3433</name></trkpt>
<trkpt lat="52.075939" lon="05.805783"><ele>1.8</ele><time>2021-01-12T13:59:03Z</time><name>PT3434</name></trkpt>
<trkpt lat="52.075937" lon="05.805765"><ele>1.8</ele><time>2021-01-12T13:59:04Z</time><name>PT3435</name></trkpt>
<trkpt lat="52.075933" lon="05.805747"><ele>1.8</ele><time>2021-01-12T13:59:05Z</time><name>PT3436</name></trkpt>
<trkpt lat="52.075931" lon="05.805728"><ele>1.8</ele><time>2021-01-12T13:59:06Z</time><name>PT3437</name></trkpt>
<trkpt lat="52.075927" lon="05.805706"><ele>1.8</ele><time>2021-01-12T13:59:07Z</time><name>PT3438</name></trkpt>
<trkpt lat="52.075921" lon="05.805684"><ele>1.8</ele><time>2021-01-12T13:59:08Z</time><name>PT3439</name></trkpt>
<trkpt lat="52.075914" lon="05.805662"><ele>1.8</ele><time>2021-01-12T13:59:09Z</time><name>PT3440</name></trkpt>
<trkpt lat="52.075909" lon="05.805639"><ele>1.8</ele><time>2021-01-12T13:59:10Z</time><name>PT3441</name></trkpt>
<trkpt lat="52.075906" lon="05.805620"><ele>1.9</ele><time>2021-01-12T13:59:11Z</time><name>PT3442</name></trkpt>
<trkpt lat="52.075902" lon="05.805606"><ele>2.1</ele><time>2021-01-12T13:59:12Z</time><name>PT3443</name></trkpt>
<trkpt lat="52.075897" lon="05.805596"><ele>2.1</ele><time>2021-01-12T13:59:13Z</time><name>PT3444</name></trkpt>
<trkpt lat="52.075894" lon="05.805586"><ele>2</ele><time>2021-01-12T13:59:14Z</time><name>PT3445</name></trkpt>
<trkpt lat="52.075893" lon="05.805569"><ele>2</ele><time>2021-01-12T13:59:15Z</time><name>PT3446</name></trkpt>
<trkpt lat="52.075891" lon="05.805552"><ele>2</ele><time>2021-01-12T13:59:16Z</time><name>PT3447</name></trkpt>
<trkpt lat="52.075885" lon="05.805528"><ele>1.9</ele><time>2021-01-12T13:59:17Z</time><name>PT3448</name></trkpt>
<trkpt lat="52.075881" lon="05.805503"><ele>1.9</ele><time>2021-01-12T13:59:18Z</time><name>PT3449</name></trkpt>
<trkpt lat="52.075878" lon="05.805483"><ele>2</ele><time>2021-01-12T13:59:19Z</time><name>PT3450</name></trkpt>
<trkpt lat="52.075873" lon="05.805462"><ele>2</ele><time>2021-01-12T13:59:20Z</time><name>PT3451</name></trkpt>
<trkpt lat="52.075869" lon="05.805446"><ele>1.8</ele><time>2021-01-12T13:59:21Z</time><name>PT3452</name></trkpt>
<trkpt lat="52.075866" lon="05.805432"><ele>1.8</ele><time>2021-01-12T13:59:22Z</time><name>PT3453</name></trkpt>
<trkpt lat="52.075862" lon="05.805418"><ele>1.8</ele><time>2021-01-12T13:59:23Z</time><name>PT3454</name></trkpt>
<trkpt lat="52.075857" lon="05.805406"><ele>1.8</ele><time>2021-01-12T13:59:24Z</time><name>PT3455</name></trkpt>
<trkpt lat="52.075852" lon="05.805393"><ele>1.7</ele><time>2021-01-12T13:59:25Z</time><name>PT3456</name></trkpt>
<trkpt lat="52.075850" lon="05.805374"><ele>1.7</ele><time>2021-01-12T13:59:26Z</time><name>PT3457</name></trkpt>
<trkpt lat="52.075852" lon="05.805351"><ele>1.8</ele><time>2021-01-12T13:59:27Z</time><name>PT3458</name></trkpt>
<trkpt lat="52.075849" lon="05.805326"><ele>1.8</ele><time>2021-01-12T13:59:28Z</time><name>PT3459</name></trkpt>
<trkpt lat="52.075846" lon="05.805307"><ele>1.9</ele><time>2021-01-12T13:59:29Z</time><name>PT3460</name></trkpt>
<trkpt lat="52.075844" lon="05.805289"><ele>2.1</ele><time>2021-01-12T13:59:30Z</time><name>PT3461</name></trkpt>
<trkpt lat="52.075840" lon="05.805275"><ele>1.8</ele><time>2021-01-12T13:59:31Z</time><name>PT3462</name></trkpt>
<trkpt lat="52.075836" lon="05.805263"><ele>1.9</ele><time>2021-01-12T13:59:32Z</time><name>PT3463</name></trkpt>
<trkpt lat="52.075835" lon="05.805247"><ele>1.8</ele><time>2021-01-12T13:59:33Z</time><name>PT3464</name></trkpt>
<trkpt lat="52.075832" lon="05.805232"><ele>1.8</ele><time>2021-01-12T13:59:34Z</time><name>PT3465</name></trkpt>
<trkpt lat="52.075830" lon="05.805215"><ele>2</ele><time>2021-01-12T13:59:35Z</time><name>PT3466</name></trkpt>
<trkpt lat="52.075828" lon="05.805195"><ele>2</ele><time>2021-01-12T13:59:36Z</time><name>PT3467</name></trkpt>
<trkpt lat="52.075826" lon="05.805176"><ele>1.9</ele><time>2021-01-12T13:59:37Z</time><name>PT3468</name></trkpt>
<trkpt lat="52.075825" lon="05.805152"><ele>1.9</ele><time>2021-01-12T13:59:38Z</time><name>PT3469</name></trkpt>
<trkpt lat="52.075821" lon="05.805130"><ele>1.9</ele><time>2021-01-12T13:59:39Z</time><name>PT3470</name></trkpt>
<trkpt lat="52.075816" lon="05.805110"><ele>1.9</ele><time>2021-01-12T13:59:40Z</time><name>PT3471</name></trkpt>
<trkpt lat="52.075812" lon="05.805092"><ele>2</ele><time>2021-01-12T13:59:41Z</time><name>PT3472</name></trkpt>
<trkpt lat="52.075809" lon="05.805080"><ele>1.9</ele><time>2021-01-12T13:59:42Z</time><name>PT3473</name></trkpt>
<trkpt lat="52.075805" lon="05.805064"><ele>2</ele><time>2021-01-12T13:59:43Z</time><name>PT3474</name></trkpt>
<trkpt lat="52.075803" lon="05.805050"><ele>1.8</ele><time>2021-01-12T13:59:44Z</time><name>PT3475</name></trkpt>
<trkpt lat="52.075801" lon="05.805034"><ele>1.6</ele><time>2021-01-12T13:59:45Z</time><name>PT3476</name></trkpt>
<trkpt lat="52.075798" lon="05.805018"><ele>1.5</ele><time>2021-01-12T13:59:46Z</time><name>PT3477</name></trkpt>
<trkpt lat="52.075792" lon="05.804999"><ele>1.4</ele><time>2021-01-12T13:59:47Z</time><name>PT3478</name></trkpt>
<trkpt lat="52.075786" lon="05.804978"><ele>1.5</ele><time>2021-01-12T13:59:48Z</time><name>PT3479</name></trkpt>
<trkpt lat="52.075780" lon="05.804960"><ele>1.7</ele><time>2021-01-12T13:59:49Z</time><name>PT3480</name></trkpt>
<trkpt lat="52.075775" lon="05.804946"><ele>1.7</ele><time>2021-01-12T13:59:50Z</time><name>PT3481</name></trkpt>
<trkpt lat="52.075771" lon="05.804935"><ele>1.8</ele><time>2021-01-12T13:59:51Z</time><name>PT3482</name></trkpt>
<trkpt lat="52.075765" lon="05.804922"><ele>1.8</ele><time>2021-01-12T13:59:52Z</time><name>PT3483</name></trkpt>
<trkpt lat="52.075761" lon="05.804910"><ele>1.6</ele><time>2021-01-12T13:59:53Z</time><name>PT3484</name></trkpt>
<trkpt lat="52.075756" lon="05.804892"><ele>1.8</ele><time>2021-01-12T13:59:54Z</time><name>PT3485</name></trkpt>
<trkpt lat="52.075751" lon="05.804873"><ele>1.7</ele><time>2021-01-12T13:59:55Z</time><name>PT3486</name></trkpt>
<trkpt lat="52.075746" lon="05.804853"><ele>1.4</ele><time>2021-01-12T13:59:56Z</time><name>PT3487</name></trkpt>
<trkpt lat="52.075737" lon="05.804832"><ele>1.4</ele><time>2021-01-12T13:59:57Z</time><name>PT3488</name></trkpt>
<trkpt lat="52.075730" lon="05.804811"><ele>1.4</ele><time>2021-01-12T13:59:58Z</time><name>PT3489</name></trkpt>
<trkpt lat="52.075725" lon="05.804796"><ele>1.4</ele><time>2021-01-12T13:59:59Z</time><name>PT3490</name></trkpt>
<trkpt lat="52.075720" lon="05.804784"><ele>1.3</ele><time>2021-01-12T14:00:00Z</time><name>PT3491</name></trkpt>
<trkpt lat="52.075714" lon="05.804773"><ele>1.3</ele><time>2021-01-12T14:00:01Z</time><name>PT3492</name></trkpt>
<trkpt lat="52.075710" lon="05.804762"><ele>1.3</ele><time>2021-01-12T14:00:02Z</time><name>PT3493</name></trkpt>
<trkpt lat="52.075706" lon="05.804750"><ele>1.3</ele><time>2021-01-12T14:00:03Z</time><name>PT3494</name></trkpt>
<trkpt lat="52.075698" lon="05.804736"><ele>1.3</ele><time>2021-01-12T14:00:04Z</time><name>PT3495</name></trkpt>
<trkpt lat="52.075692" lon="05.804713"><ele>1.3</ele><time>2021-01-12T14:00:05Z</time><name>PT3496</name></trkpt>
<trkpt lat="52.075686" lon="05.804689"><ele>1.3</ele><time>2021-01-12T14:00:06Z</time><name>PT3497</name></trkpt>
<trkpt lat="52.075679" lon="05.804666"><ele>1.3</ele><time>2021-01-12T14:00:07Z</time><name>PT3498</name></trkpt>
<trkpt lat="52.075676" lon="05.804651"><ele>1.2</ele><time>2021-01-12T14:00:08Z</time><name>PT3499</name></trkpt>
<trkpt lat="52.075671" lon="05.804639"><ele>1.3</ele><time>2021-01-12T14:00:09Z</time><name>PT3500</name></trkpt>
<trkpt lat="52.075667" lon="05.804626"><ele>1.3</ele><time>2021-01-12T14:00:10Z</time><name>PT3501</name></trkpt>
<trkpt lat="52.075665" lon="05.804613"><ele>1.4</ele><time>2021-01-12T14:00:11Z</time><name>PT3502</name></trkpt>
<trkpt lat="52.075663" lon="05.804598"><ele>1.3</ele><time>2021-01-12T14:00:12Z</time><name>PT3503</name></trkpt>
<trkpt lat="52.075658" lon="05.804583"><ele>1.2</ele><time>2021-01-12T14:00:13Z</time><name>PT3504</name></trkpt>
<trkpt lat="52.075655" lon="05.804569"><ele>1</ele><time>2021-01-12T14:00:14Z</time><name>PT3505</name></trkpt>
<trkpt lat="52.075652" lon="05.804552"><ele>1.1</ele><time>2021-01-12T14:00:15Z</time><name>PT3506</name></trkpt>
<trkpt lat="52.075649" lon="05.804532"><ele>1.1</ele><time>2021-01-12T14:00:16Z</time><name>PT3507</name></trkpt>
<trkpt lat="52.075644" lon="05.804506"><ele>1.2</ele><time>2021-01-12T14:00:17Z</time><name>PT3508</name></trkpt>
<trkpt lat="52.075643" lon="05.804485"><ele>1.3</ele><time>2021-01-12T14:00:18Z</time><name>PT3509</name></trkpt>
<trkpt lat="52.075641" lon="05.804464"><ele>1.3</ele><time>2021-01-12T14:00:19Z</time><name>PT3510</name></trkpt>
<trkpt lat="52.075637" lon="05.804449"><ele>1.3</ele><time>2021-01-12T14:00:20Z</time><name>PT3511</name></trkpt>
<trkpt lat="52.075634" lon="05.804436"><ele>1.3</ele><time>2021-01-12T14:00:21Z</time><name>PT3512</name></trkpt>
<trkpt lat="52.075632" lon="05.804424"><ele>1.3</ele><time>2021-01-12T14:00:22Z</time><name>PT3513</name></trkpt>
<trkpt lat="52.075625" lon="05.804406"><ele>1.3</ele><time>2021-01-12T14:00:23Z</time><name>PT3514</name></trkpt>
<trkpt lat="52.075620" lon="05.804388"><ele>1.3</ele><time>2021-01-12T14:00:24Z</time><name>PT3515</name></trkpt>
<trkpt lat="52.075619" lon="05.804371"><ele>1.2</ele><time>2021-01-12T14:00:25Z</time><name>PT3516</name></trkpt>
<trkpt lat="52.075618" lon="05.804353"><ele>1.1</ele><time>2021-01-12T14:00:26Z</time><name>PT3517</name></trkpt>
<trkpt lat="52.075609" lon="05.804331"><ele>1.2</ele><time>2021-01-12T14:00:27Z</time><name>PT3518</name></trkpt>
<trkpt lat="52.075603" lon="05.804318"><ele>1.1</ele><time>2021-01-12T14:00:28Z</time><name>PT3519</name></trkpt>
<trkpt lat="52.075598" lon="05.804307"><ele>0.8</ele><time>2021-01-12T14:00:29Z</time><name>PT3520</name></trkpt>
<trkpt lat="52.075598" lon="05.804297"><ele>0.9</ele><time>2021-01-12T14:00:30Z</time><name>PT3521</name></trkpt>
<trkpt lat="52.075594" lon="05.804280"><ele>1</ele><time>2021-01-12T14:00:31Z</time><name>PT3522</name></trkpt>
<trkpt lat="52.075588" lon="05.804262"><ele>1.1</ele><time>2021-01-12T14:00:32Z</time><name>PT3523</name></trkpt>
<trkpt lat="52.075582" lon="05.804241"><ele>1.2</ele><time>2021-01-12T14:00:33Z</time><name>PT3524</name></trkpt>
<trkpt lat="52.075574" lon="05.804213"><ele>1.1</ele><time>2021-01-12T14:00:34Z</time><name>PT3525</name></trkpt>
<trkpt lat="52.075570" lon="05.804189"><ele>0.8</ele><time>2021-01-12T14:00:35Z</time><name>PT3526</name></trkpt>
<trkpt lat="52.075565" lon="05.804167"><ele>0.7</ele><time>2021-01-12T14:00:36Z</time><name>PT3527</name></trkpt>
<trkpt lat="52.075560" lon="05.804145"><ele>0.6</ele><time>2021-01-12T14:00:37Z</time><name>PT3528</name></trkpt>
<trkpt lat="52.075553" lon="05.804129"><ele>0.7</ele><time>2021-01-12T14:00:38Z</time><name>PT3529</name></trkpt>
<trkpt lat="52.075549" lon="05.804113"><ele>0.8</ele><time>2021-01-12T14:00:39Z</time><name>PT3530</name></trkpt>
<trkpt lat="52.075545" lon="05.804095"><ele>1</ele><time>2021-01-12T14:00:40Z</time><name>PT3531</name></trkpt>
<trkpt lat="52.075541" lon="05.804079"><ele>1</ele><time>2021-01-12T14:00:41Z</time><name>PT3532</name></trkpt>
<trkpt lat="52.075538" lon="05.804060"><ele>1.1</ele><time>2021-01-12T14:00:42Z</time><name>PT3533</name></trkpt>
<trkpt lat="52.075536" lon="05.804040"><ele>1</ele><time>2021-01-12T14:00:43Z</time><name>PT3534</name></trkpt>
<trkpt lat="52.075533" lon="05.804017"><ele>1.1</ele><time>2021-01-12T14:00:44Z</time><name>PT3535</name></trkpt>
<trkpt lat="52.075525" lon="05.803996"><ele>1.1</ele><time>2021-01-12T14:00:45Z</time><name>PT3536</name></trkpt>
<trkpt lat="52.075519" lon="05.803978"><ele>1</ele><time>2021-01-12T14:00:46Z</time><name>PT3537</name></trkpt>
<trkpt lat="52.075512" lon="05.803962"><ele>1</ele><time>2021-01-12T14:00:47Z</time><name>PT3538</name></trkpt>
<trkpt lat="52.075509" lon="05.803947"><ele>1</ele><time>2021-01-12T14:00:48Z</time><name>PT3539</name></trkpt>
<trkpt lat="52.075507" lon="05.803934"><ele>1</ele><time>2021-01-12T14:00:49Z</time><name>PT3540</name></trkpt>
<trkpt lat="52.075504" lon="05.803918"><ele>0.9</ele><time>2021-01-12T14:00:50Z</time><name>PT3541</name></trkpt>
<trkpt lat="52.075499" lon="05.803899"><ele>0.9</ele><time>2021-01-12T14:00:51Z</time><name>PT3542</name></trkpt>
<trkpt lat="52.075499" lon="05.803879"><ele>0.8</ele><time>2021-01-12T14:00:52Z</time><name>PT3543</name></trkpt>
<trkpt lat="52.075498" lon="05.803860"><ele>0.9</ele><time>2021-01-12T14:00:53Z</time><name>PT3544</name></trkpt>
<trkpt lat="52.075496" lon="05.803837"><ele>0.9</ele><time>2021-01-12T14:00:54Z</time><name>PT3545</name></trkpt>
<trkpt lat="52.075488" lon="05.803815"><ele>0.9</ele><time>2021-01-12T14:00:55Z</time><name>PT3546</name></trkpt>
<trkpt lat="52.075483" lon="05.803794"><ele>0.9</ele><time>2021-01-12T14:00:56Z</time><name>PT3547</name></trkpt>
<trkpt lat="52.075476" lon="05.803775"><ele>0.9</ele><time>2021-01-12T14:00:57Z</time><name>PT3548</name></trkpt>
<trkpt lat="52.075472" lon="05.803760"><ele>0.9</ele><time>2021-01-12T14:00:58Z</time><name>PT3549</name></trkpt>
<trkpt lat="52.075468" lon="05.803749"><ele>1.1</ele><time>2021-01-12T14:00:59Z</time><name>PT3550</name></trkpt>
<trkpt lat="52.075465" lon="05.803734"><ele>1.3</ele><time>2021-01-12T14:01:00Z</time><name>PT3551</name></trkpt>
<trkpt lat="52.075460" lon="05.803721"><ele>1.3</ele><time>2021-01-12T14:01:01Z</time><name>PT3552</name></trkpt>
<trkpt lat="52.075459" lon="05.803704"><ele>1.4</ele><time>2021-01-12T14:01:02Z</time><name>PT3553</name></trkpt>
<trkpt lat="52.075456" lon="05.803684"><ele>1.3</ele><time>2021-01-12T14:01:03Z</time><name>PT3554</name></trkpt>
<trkpt lat="52.075454" lon="05.803662"><ele>1.3</ele><time>2021-01-12T14:01:04Z</time><name>PT3555</name></trkpt>
<trkpt lat="52.075448" lon="05.803639"><ele>1.3</ele><time>2021-01-12T14:01:05Z</time><name>PT3556</name></trkpt>
<trkpt lat="52.075442" lon="05.803618"><ele>1.3</ele><time>2021-01-12T14:01:06Z</time><name>PT3557</name></trkpt>
<trkpt lat="52.075437" lon="05.803603"><ele>1.3</ele><time>2021-01-12T14:01:07Z</time><name>PT3558</name></trkpt>
<trkpt lat="52.075432" lon="05.803592"><ele>1.3</ele><time>2021-01-12T14:01:08Z</time><name>PT3559</name></trkpt>
<trkpt lat="52.075432" lon="05.803577"><ele>1.3</ele><time>2021-01-12T14:01:09Z</time><name>PT3560</name></trkpt>
<trkpt lat="52.075431" lon="05.803563"><ele>1.1</ele><time>2021-01-12T14:01:10Z</time><name>PT3561</name></trkpt>
<trkpt lat="52.075429" lon="05.803550"><ele>1.1</ele><time>2021-01-12T14:01:11Z</time><name>PT3562</name></trkpt>
<trkpt lat="52.075425" lon="05.803529"><ele>0.9</ele><time>2021-01-12T14:01:12Z</time><name>PT3563</name></trkpt>
<trkpt lat="52.075422" lon="05.803511"><ele>0.8</ele><time>2021-01-12T14:01:13Z</time><name>PT3564</name></trkpt>
<trkpt lat="52.075416" lon="05.803497"><ele>0.8</ele><time>2021-01-12T14:01:14Z</time><name>PT3565</name></trkpt>
<trkpt lat="52.075411" lon="05.803486"><ele>1</ele><time>2021-01-12T14:01:15Z</time><name>PT3566</name></trkpt>
<trkpt lat="52.075412" lon="05.803471"><ele>1</ele><time>2021-01-12T14:01:16Z</time><name>PT3567</name></trkpt>
<trkpt lat="52.075409" lon="05.803457"><ele>1.2</ele><time>2021-01-12T14:01:17Z</time><name>PT3568</name></trkpt>
<trkpt lat="52.075405" lon="05.803440"><ele>1.3</ele><time>2021-01-12T14:01:18Z</time><name>PT3569</name></trkpt>
<trkpt lat="52.075403" lon="05.803419"><ele>1.3</ele><time>2021-01-12T14:01:19Z</time><name>PT3570</name></trkpt>
<trkpt lat="52.075396" lon="05.803397"><ele>1.3</ele><time>2021-01-12T14:01:20Z</time><name>PT3571</name></trkpt>
<trkpt lat="52.075393" lon="05.803376"><ele>1.3</ele><time>2021-01-12T14:01:21Z</time><name>PT3572</name></trkpt>
<trkpt lat="52.075391" lon="05.803359"><ele>1.2</ele><time>2021-01-12T14:01:22Z</time><name>PT3573</name></trkpt>
<trkpt lat="52.075387" lon="05.803345"><ele>1.2</ele><time>2021-01-12T14:01:23Z</time><name>PT3574</name></trkpt>
<trkpt lat="52.075383" lon="05.803332"><ele>1.1</ele><time>2021-01-12T14:01:24Z</time><name>PT3575</name></trkpt>
<trkpt lat="52.075382" lon="05.803322"><ele>1</ele><time>2021-01-12T14:01:25Z</time><name>PT3576</name></trkpt>
<trkpt lat="52.075380" lon="05.803312"><ele>0.9</ele><time>2021-01-12T14:01:26Z</time><name>PT3577</name></trkpt>
<trkpt lat="52.075375" lon="05.803302"><ele>1</ele><time>2021-01-12T14:01:27Z</time><name>PT3578</name></trkpt>
<trkpt lat="52.075375" lon="05.803283"><ele>0.9</ele><time>2021-01-12T14:01:28Z</time><name>PT3579</name></trkpt>
<trkpt lat="52.075376" lon="05.803262"><ele>0.8</ele><time>2021-01-12T14:01:29Z</time><name>PT3580</name></trkpt>
<trkpt lat="52.075374" lon="05.803242"><ele>0.8</ele><time>2021-01-12T14:01:30Z</time><name>PT3581</name></trkpt>
<trkpt lat="52.075369" lon="05.803217"><ele>0.8</ele><time>2021-01-12T14:01:31Z</time><name>PT3582</name></trkpt>
<trkpt lat="52.075361" lon="05.803196"><ele>0.8</ele><time>2021-01-12T14:01:32Z</time><name>PT3583</name></trkpt>
<trkpt lat="52.075356" lon="05.803181"><ele>0.8</ele><time>2021-01-12T14:01:33Z</time><name>PT3584</name></trkpt>
<trkpt lat="52.075350" lon="05.803166"><ele>0.9</ele><time>2021-01-12T14:01:34Z</time><name>PT3585</name></trkpt>
<trkpt lat="52.075347" lon="05.803148"><ele>0.9</ele><time>2021-01-12T14:01:35Z</time><name>PT3586</name></trkpt>
<trkpt lat="52.075348" lon="05.803134"><ele>0.8</ele><time>2021-01-12T14:01:36Z</time><name>PT3587</name></trkpt>
<trkpt lat="52.075343" lon="05.803121"><ele>0.8</ele><time>2021-01-12T14:01:37Z</time><name>PT3588</name></trkpt>
<trkpt lat="52.075339" lon="05.803105"><ele>0.9</ele><time>2021-01-12T14:01:38Z</time><name>PT3589</name></trkpt>
<trkpt lat="52.075336" lon="05.803086"><ele>0.9</ele><time>2021-01-12T14:01:39Z</time><name>PT3590</name></trkpt>
<trkpt lat="52.075331" lon="05.803063"><ele>0.9</ele><time>2021-01-12T14:01:40Z</time><name>PT3591</name></trkpt>
<trkpt lat="52.075329" lon="05.803041"><ele>0.8</ele><time>2021-01-12T14:01:41Z</time><name>PT3592</name></trkpt>
<trkpt lat="52.075323" lon="05.803019"><ele>0.8</ele><time>2021-01-12T14:01:42Z</time><name>PT3593</name></trkpt>
<trkpt lat="52.075317" lon="05.803001"><ele>0.7</ele><time>2021-01-12T14:01:43Z</time><name>PT3594</name></trkpt>
<trkpt lat="52.075311" lon="05.802986"><ele>0.7</ele><time>2021-01-12T14:01:44Z</time><name>PT3595</name></trkpt>
<trkpt lat="52.075310" lon="05.802974"><ele>0.4</ele><time>2021-01-12T14:01:45Z</time><name>PT3596</name></trkpt>
<trkpt lat="52.075307" lon="05.802960"><ele>0.5</ele><time>2021-01-12T14:01:46Z</time><name>PT3597</name></trkpt>
<trkpt lat="52.075300" lon="05.802945"><ele>0.5</ele><time>2021-01-12T14:01:47Z</time><name>PT3598</name></trkpt>
<trkpt lat="52.075297" lon="05.802928"><ele>0.4</ele><time>2021-01-12T14:01:48Z</time><name>PT3599</name></trkpt>
<trkpt lat="52.075290" lon="05.802909"><ele>0.5</ele><time>2021-01-12T14:01:49Z</time><name>PT3600</name></trkpt>
<trkpt lat="52.075282" lon="05.802896"><ele>0.5</ele><time>2021-01-12T14:01:50Z</time><name>PT3601</name></trkpt>
<trkpt lat="52.075277" lon="05.802876"><ele>0.5</ele><time>2021-01-12T14:01:51Z</time><name>PT3602</name></trkpt>
<trkpt lat="52.075272" lon="05.802854"><ele>0.6</ele><time>2021-01-12T14:01:52Z</time><name>PT3603</name></trkpt>
<trkpt lat="52.075267" lon="05.802835"><ele>0.6</ele><time>2021-01-12T14:01:53Z</time><name>PT3604</name></trkpt>
<trkpt lat="52.075261" lon="05.802819"><ele>0.8</ele><time>2021-01-12T14:01:54Z</time><name>PT3605</name></trkpt>
<trkpt lat="52.075256" lon="05.802805"><ele>0.8</ele><time>2021-01-12T14:01:55Z</time><name>PT3606</name></trkpt>
<trkpt lat="52.075253" lon="05.802791"><ele>0.8</ele><time>2021-01-12T14:01:56Z</time><name>PT3607</name></trkpt>
<trkpt lat="52.075247" lon="05.802772"><ele>0.8</ele><time>2021-01-12T14:01:57Z</time><name>PT3608</name></trkpt>
<trkpt lat="52.075246" lon="05.802750"><ele>0.8</ele><time>2021-01-12T14:01:58Z</time><name>PT3609</name></trkpt>
<trkpt lat="52.075243" lon="05.802730"><ele>0.8</ele><time>2021-01-12T14:01:59Z</time><name>PT3610</name></trkpt>
<trkpt lat="52.075239" lon="05.802709"><ele>0.8</ele><time>2021-01-12T14:02:00Z</time><name>PT3611</name></trkpt>
<trkpt lat="52.075232" lon="05.802691"><ele>0.7</ele><time>2021-01-12T14:02:01Z</time><name>PT3612</name></trkpt>
<trkpt lat="52.075223" lon="05.802660"><ele>0.7</ele><time>2021-01-12T14:02:02Z</time><name>PT3613</name></trkpt>
<trkpt lat="52.075213" lon="05.802636"><ele>0.7</ele><time>2021-01-12T14:02:03Z</time><name>PT3614</name></trkpt>
<trkpt lat="52.075207" lon="05.802618"><ele>0.7</ele><time>2021-01-12T14:02:04Z</time><name>PT3615</name></trkpt>
<trkpt lat="52.075201" lon="05.802605"><ele>0.6</ele><time>2021-01-12T14:02:05Z</time><name>PT3616</name></trkpt>
<trkpt lat="52.075197" lon="05.802591"><ele>0.5</ele><time>2021-01-12T14:02:06Z</time><name>PT3617</name></trkpt>
<trkpt lat="52.075197" lon="05.802573"><ele>0.5</ele><time>2021-01-12T14:02:07Z</time><name>PT3618</name></trkpt>
<trkpt lat="52.075195" lon="05.802555"><ele>0.3</ele><time>2021-01-12T14:02:08Z</time><name>PT3619</name></trkpt>
<trkpt lat="52.075193" lon="05.802538"><ele>0.3</ele><time>2021-01-12T14:02:09Z</time><name>PT3620</name></trkpt>
<trkpt lat="52.075192" lon="05.802515"><ele>0.3</ele><time>2021-01-12T14:02:10Z</time><name>PT3621</name></trkpt>
<trkpt lat="52.075188" lon="05.802489"><ele>0.4</ele><time>2021-01-12T14:02:11Z</time><name>PT3622</name></trkpt>
<trkpt lat="52.075183" lon="05.802466"><ele>0.5</ele><time>2021-01-12T14:02:12Z</time><name>PT3623</name></trkpt>
<trkpt lat="52.075177" lon="05.802448"><ele>0.5</ele><time>2021-01-12T14:02:13Z</time><name>PT3624</name></trkpt>
<trkpt lat="52.075173" lon="05.802433"><ele>0.4</ele><time>2021-01-12T14:02:14Z</time><name>PT3625</name></trkpt>
<trkpt lat="52.075168" lon="05.802420"><ele>0.3</ele><time>2021-01-12T14:02:15Z</time><name>PT3626</name></trkpt>
<trkpt lat="52.075165" lon="05.802408"><ele>0.2</ele><time>2021-01-12T14:02:16Z</time><name>PT3627</name></trkpt>
<trkpt lat="52.075162" lon="05.802395"><ele>0.2</ele><time>2021-01-12T14:02:17Z</time><name>PT3628</name></trkpt>
<trkpt lat="52.075158" lon="05.802378"><ele>0.2</ele><time>2021-01-12T14:02:18Z</time><name>PT3629</name></trkpt>
<trkpt lat="52.075155" lon="05.802360"><ele>0.3</ele><time>2021-01-12T14:02:19Z</time><name>PT3630</name></trkpt>
<trkpt lat="52.075148" lon="05.802342"><ele>0.2</ele><time>2021-01-12T14:02:20Z</time><name>PT3631</name></trkpt>
<trkpt lat="52.075139" lon="05.802321"><ele>0.2</ele><time>2021-01-12T14:02:21Z</time><name>PT3632</name></trkpt>
<trkpt lat="52.075132" lon="05.802302"><ele>0.1</ele><time>2021-01-12T14:02:22Z</time><name>PT3633</name></trkpt>
<trkpt lat="52.075129" lon="05.802285"><ele>0.1</ele><time>2021-01-12T14:02:23Z</time><name>PT3634</name></trkpt>
<trkpt lat="52.075124" lon="05.802269"><ele>0.1</ele><time>2021-01-12T14:02:24Z</time><name>PT3635</name></trkpt>
<trkpt lat="52.075121" lon="05.802256"><ele>0.1</ele><time>2021-01-12T14:02:25Z</time><name>PT3636</name></trkpt>
<trkpt lat="52.075113" lon="05.802244"><ele>0.1</ele><time>2021-01-12T14:02:26Z</time><name>PT3637</name></trkpt>
<trkpt lat="52.075108" lon="05.802229"><ele>0.1</ele><time>2021-01-12T14:02:27Z</time><name>PT3638</name></trkpt>
<trkpt lat="52.075100" lon="05.802213"><ele>0.3</ele><time>2021-01-12T14:02:28Z</time><name>PT3639</name></trkpt>
<trkpt lat="52.075094" lon="05.802190"><ele>0.5</ele><time>2021-01-12T14:02:29Z</time><name>PT3640</name></trkpt>
<trkpt lat="52.075090" lon="05.802165"><ele>0.6</ele><time>2021-01-12T14:02:30Z</time><name>PT3641</name></trkpt>
<trkpt lat="52.075085" lon="05.802141"><ele>0.5</ele><time>2021-01-12T14:02:31Z</time><name>PT3642</name></trkpt>
<trkpt lat="52.075081" lon="05.802122"><ele>0.4</ele><time>2021-01-12T14:02:32Z</time><name>PT3643</name></trkpt>
<trkpt lat="52.075079" lon="05.802107"><ele>0.4</ele><time>2021-01-12T14:02:33Z</time><name>PT3644</name></trkpt>
<trkpt lat="52.075073" lon="05.802092"><ele>0.3</ele><time>2021-01-12T14:02:34Z</time><name>PT3645</name></trkpt>
<trkpt lat="52.075073" lon="05.802082"><ele>0.3</ele><time>2021-01-12T14:02:35Z</time><name>PT3646</name></trkpt>
<trkpt lat="52.075069" lon="05.802068"><ele>0.2</ele><time>2021-01-12T14:02:36Z</time><name>PT3647</name></trkpt>
<trkpt lat="52.075067" lon="05.802050"><ele>0.1</ele><time>2021-01-12T14:02:37Z</time><name>PT3648</name></trkpt>
<trkpt lat="52.075064" lon="05.802028"><ele>0.2</ele><time>2021-01-12T14:02:38Z</time><name>PT3649</name></trkpt>
<trkpt lat="52.075064" lon="05.802003"><ele>0.2</ele><time>2021-01-12T14:02:39Z</time><name>PT3650</name></trkpt>
<trkpt lat="52.075059" lon="05.801979"><ele>0.3</ele><time>2021-01-12T14:02:40Z</time><name>PT3651</name></trkpt>
<trkpt lat="52.075052" lon="05.801958"><ele>0.6</ele><time>2021-01-12T14:02:41Z</time><name>PT3652</name></trkpt>
<trkpt lat="52.075046" lon="05.801943"><ele>0.5</ele><time>2021-01-12T14:02:42Z</time><name>PT3653</name></trkpt>
<trkpt lat="52.075040" lon="05.801928"><ele>0.6</ele><time>2021-01-12T14:02:43Z</time><name>PT3654</name></trkpt>
<trkpt lat="52.075037" lon="05.801911"><ele>0.6</ele><time>2021-01-12T14:02:44Z</time><name>PT3655</name></trkpt>
<trkpt lat="52.075034" lon="05.801891"><ele>0.6</ele><time>2021-01-12T14:02:45Z</time><name>PT3656</name></trkpt>
<trkpt lat="52.075030" lon="05.801873"><ele>0.7</ele><time>2021-01-12T14:02:46Z</time><name>PT3657</name></trkpt>
<trkpt lat="52.075026" lon="05.801853"><ele>0.6</ele><time>2021-01-12T14:02:47Z</time><name>PT3658</name></trkpt>
<trkpt lat="52.075021" lon="05.801833"><ele>0.5</ele><time>2021-01-12T14:02:48Z</time><name>PT3659</name></trkpt>
<trkpt lat="52.075016" lon="05.801819"><ele>0.7</ele><time>2021-01-12T14:02:49Z</time><name>PT3660</name></trkpt>
<trkpt lat="52.075012" lon="05.801808"><ele>0.4</ele><time>2021-01-12T14:02:50Z</time><name>PT3661</name></trkpt>
<trkpt lat="52.075007" lon="05.801798"><ele>0.3</ele><time>2021-01-12T14:02:51Z</time><name>PT3662</name></trkpt>
<trkpt lat="52.075003" lon="05.801789"><ele>0.3</ele><time>2021-01-12T14:02:52Z</time><name>PT3663</name></trkpt>
<trkpt lat="52.075003" lon="05.801780"><ele>0.2</ele><time>2021-01-12T14:02:53Z</time><name>PT3664</name></trkpt>
<trkpt lat="52.075003" lon="05.801765"><ele>0.2</ele><time>2021-01-12T14:02:54Z</time><name>PT3665</name></trkpt>
<trkpt lat="52.075000" lon="05.801744"><ele>0.1</ele><time>2021-01-12T14:02:55Z</time><name>PT3666</name></trkpt>
<trkpt lat="52.074993" lon="05.801722"><ele>0.1</ele><time>2021-01-12T14:02:56Z</time><name>PT3667</name></trkpt>
<trkpt lat="52.074984" lon="05.801705"><ele>0.2</ele><time>2021-01-12T14:02:57Z</time><name>PT3668</name></trkpt>
<trkpt lat="52.074977" lon="05.801687"><ele>0.2</ele><time>2021-01-12T14:02:58Z</time><name>PT3669</name></trkpt>
<trkpt lat="52.074971" lon="05.801674"><ele>0.2</ele><time>2021-01-12T14:02:59Z</time><name>PT3670</name></trkpt>
<trkpt lat="52.074970" lon="05.801659"><ele>0.4</ele><time>2021-01-12T14:03:00Z</time><name>PT3671</name></trkpt>
<trkpt lat="52.074968" lon="05.801647"><ele>0.5</ele><time>2021-01-12T14:03:01Z</time><name>PT3672</name></trkpt>
<trkpt lat="52.074966" lon="05.801629"><ele>0.6</ele><time>2021-01-12T14:03:02Z</time><name>PT3673</name></trkpt>
<trkpt lat="52.074965" lon="05.801611"><ele>0.6</ele><time>2021-01-12T14:03:03Z</time><name>PT3674</name></trkpt>
<trkpt lat="52.074962" lon="05.801588"><ele>0.5</ele><time>2021-01-12T14:03:04Z</time><name>PT3675</name></trkpt>
<trkpt lat="52.074954" lon="05.801565"><ele>0.3</ele><time>2021-01-12T14:03:05Z</time><name>PT3676</name></trkpt>
<trkpt lat="52.074947" lon="05.801547"><ele>0.3</ele><time>2021-01-12T14:03:06Z</time><name>PT3677</name></trkpt>
<trkpt lat="52.074942" lon="05.801533"><ele>0.3</ele><time>2021-01-12T14:03:07Z</time><name>PT3678</name></trkpt>
<trkpt lat="52.074939" lon="05.801520"><ele>0.3</ele><time>2021-01-12T14:03:08Z</time><name>PT3679</name></trkpt>
<trkpt lat="52.074936" lon="05.801504"><ele>0.3</ele><time>2021-01-12T14:03:09Z</time><name>PT3680</name></trkpt>
<trkpt lat="52.074935" lon="05.801489"><ele>0.2</ele><time>2021-01-12T14:03:10Z</time><name>PT3681</name></trkpt>
<trkpt lat="52.074933" lon="05.801471"><ele>0.3</ele><time>2021-01-12T14:03:11Z</time><name>PT3682</name></trkpt>
<trkpt lat="52.074930" lon="05.801447"><ele>0.3</ele><time>2021-01-12T14:03:12Z</time><name>PT3683</name></trkpt>
<trkpt lat="52.074923" lon="05.801421"><ele>0.3</ele><time>2021-01-12T14:03:13Z</time><name>PT3684</name></trkpt>
<trkpt lat="52.074916" lon="05.801395"><ele>0.3</ele><time>2021-01-12T14:03:14Z</time><name>PT3685</name></trkpt>
<trkpt lat="52.074911" lon="05.801376"><ele>0.3</ele><time>2021-01-12T14:03:15Z</time><name>PT3686</name></trkpt>
<trkpt lat="52.074908" lon="05.801362"><ele>0.3</ele><time>2021-01-12T14:03:16Z</time><name>PT3687</name></trkpt>
<trkpt lat="52.074906" lon="05.801350"><ele>0.3</ele><time>2021-01-12T14:03:17Z</time><name>PT3688</name></trkpt>
<trkpt lat="52.074904" lon="05.801336"><ele>0.3</ele><time>2021-01-12T14:03:18Z</time><name>PT3689</name></trkpt>
<trkpt lat="52.074898" lon="05.801321"><ele>0.4</ele><time>2021-01-12T14:03:19Z</time><name>PT3690</name></trkpt>
<trkpt lat="52.074896" lon="05.801304"><ele>0.6</ele><time>2021-01-12T14:03:20Z</time><name>PT3691</name></trkpt>
<trkpt lat="52.074892" lon="05.801283"><ele>0.5</ele><time>2021-01-12T14:03:21Z</time><name>PT3692</name></trkpt>
<trkpt lat="52.074886" lon="05.801261"><ele>0.6</ele><time>2021-01-12T14:03:22Z</time><name>PT3693</name></trkpt>
<trkpt lat="52.074883" lon="05.801246"><ele>0.5</ele><time>2021-01-12T14:03:23Z</time><name>PT3694</name></trkpt>
<trkpt lat="52.074878" lon="05.801235"><ele>0.4</ele><time>2021-01-12T14:03:24Z</time><name>PT3695</name></trkpt>
<trkpt lat="52.074874" lon="05.801222"><ele>0.4</ele><time>2021-01-12T14:03:25Z</time><name>PT3696</name></trkpt>
<trkpt lat="52.074874" lon="05.801207"><ele>0.4</ele><time>2021-01-12T14:03:26Z</time><name>PT3697</name></trkpt>
<trkpt lat="52.074872" lon="05.801190"><ele>0.3</ele><time>2021-01-12T14:03:27Z</time><name>PT3698</name></trkpt>
<trkpt lat="52.074870" lon="05.801173"><ele>0.3</ele><time>2021-01-12T14:03:28Z</time><name>PT3699</name></trkpt>
<trkpt lat="52.074866" lon="05.801149"><ele>0.3</ele><time>2021-01-12T14:03:29Z</time><name>PT3700</name></trkpt>
<trkpt lat="52.074858" lon="05.801126"><ele>0.1</ele><time>2021-01-12T14:03:30Z</time><name>PT3701</name></trkpt>
<trkpt lat="52.074850" lon="05.801099"><ele>0.3</ele><time>2021-01-12T14:03:31Z</time><name>PT3702</name></trkpt>
<trkpt lat="52.074845" lon="05.801085"><ele>0.2</ele><time>2021-01-12T14:03:32Z</time><name>PT3703</name></trkpt>
<trkpt lat="52.074842" lon="05.801072"><ele>0.2</ele><time>2021-01-12T14:03:33Z</time><name>PT3704</name></trkpt>
<trkpt lat="52.074838" lon="05.801059"><ele>0.2</ele><time>2021-01-12T14:03:34Z</time><name>PT3705</name></trkpt>
<trkpt lat="52.074835" lon="05.801041"><ele>0.3</ele><time>2021-01-12T14:03:35Z</time><name>PT3706</name></trkpt>
<trkpt lat="52.074834" lon="05.801023"><ele>0.3</ele><time>2021-01-12T14:03:36Z</time><name>PT3707</name></trkpt>
<trkpt lat="52.074832" lon="05.801002"><ele>0.3</ele><time>2021-01-12T14:03:37Z</time><name>PT3708</name></trkpt>
<trkpt lat="52.074829" lon="05.800981"><ele>0.3</ele><time>2021-01-12T14:03:38Z</time><name>PT3709</name></trkpt>
<trkpt lat="52.074824" lon="05.800957"><ele>0.2</ele><time>2021-01-12T14:03:39Z</time><name>PT3710</name></trkpt>
<trkpt lat="52.074820" lon="05.800937"><ele>0.1</ele><time>2021-01-12T14:03:40Z</time><name>PT3711</name></trkpt>
<trkpt lat="52.074815" lon="05.800921"><ele>0.2</ele><time>2021-01-12T14:03:41Z</time><name>PT3712</name></trkpt>
<trkpt lat="52.074811" lon="05.800908"><ele>0.2</ele><time>2021-01-12T14:03:42Z</time><name>PT3713</name></trkpt>
<trkpt lat="52.074807" lon="05.800895"><ele>0.3</ele><time>2021-01-12T14:03:43Z</time><name>PT3714</name></trkpt>
<trkpt lat="52.074807" lon="05.800881"><ele>0.3</ele><time>2021-01-12T14:03:44Z</time><name>PT3715</name></trkpt>
<trkpt lat="52.074807" lon="05.800865"><ele>0.3</ele><time>2021-01-12T14:03:45Z</time><name>PT3716</name></trkpt>
<trkpt lat="52.074805" lon="05.800848"><ele>0.3</ele><time>2021-01-12T14:03:46Z</time><name>PT3717</name></trkpt>
<trkpt lat="52.074801" lon="05.800826"><ele>0.3</ele><time>2021-01-12T14:03:47Z</time><name>PT3718</name></trkpt>
<trkpt lat="52.074796" lon="05.800805"><ele>0.3</ele><time>2021-01-12T14:03:48Z</time><name>PT3719</name></trkpt>
<trkpt lat="52.074792" lon="05.800787"><ele>0.3</ele><time>2021-01-12T14:03:49Z</time><name>PT3720</name></trkpt>
<trkpt lat="52.074787" lon="05.800773"><ele>0.3</ele><time>2021-01-12T14:03:50Z</time><name>PT3721</name></trkpt>
<trkpt lat="52.074785" lon="05.800760"><ele>0.3</ele><time>2021-01-12T14:03:51Z</time><name>PT3722</name></trkpt>
<trkpt lat="52.074783" lon="05.800745"><ele>0.2</ele><time>2021-01-12T14:03:52Z</time><name>PT3723</name></trkpt>
<trkpt lat="52.074783" lon="05.800730"><ele>0.2</ele><time>2021-01-12T14:03:53Z</time><name>PT3724</name></trkpt>
<trkpt lat="52.074781" lon="05.800709"><ele>0.2</ele><time>2021-01-12T14:03:54Z</time><name>PT3725</name></trkpt>
<trkpt lat="52.074777" lon="05.800687"><ele>0.3</ele><time>2021-01-12T14:03:55Z</time><name>PT3726</name></trkpt>
<trkpt lat="52.074772" lon="05.800665"><ele>0.2</ele><time>2021-01-12T14:03:56Z</time><name>PT3727</name></trkpt>
<trkpt lat="52.074768" lon="05.800642"><ele>0.3</ele><time>2021-01-12T14:03:57Z</time><name>PT3728</name></trkpt>
<trkpt lat="52.074764" lon="05.800621"><ele>0.1</ele><time>2021-01-12T14:03:58Z</time><name>PT3729</name></trkpt>
<trkpt lat="52.074763" lon="05.800607"><ele>0</ele><time>2021-01-12T14:03:59Z</time><name>PT3730</name></trkpt>
<trkpt lat="52.074763" lon="05.800594"><ele>0.1</ele><time>2021-01-12T14:04:00Z</time><name>PT3731</name></trkpt>
<trkpt lat="52.074759" lon="05.800586"><ele>0.1</ele><time>2021-01-12T14:04:01Z</time><name>PT3732</name></trkpt>
<trkpt lat="52.074756" lon="05.800574"><ele>0.1</ele><time>2021-01-12T14:04:02Z</time><name>PT3733</name></trkpt>
<trkpt lat="52.074750" lon="05.800563"><ele>0.3</ele><time>2021-01-12T14:04:03Z</time><name>PT3734</name></trkpt>
<trkpt lat="52.074748" lon="05.800554"><ele>0.3</ele><time>2021-01-12T14:04:04Z</time><name>PT3735</name></trkpt>
<trkpt lat="52.074743" lon="05.800541"><ele>0.3</ele><time>2021-01-12T14:04:05Z</time><name>PT3736</name></trkpt>
<trkpt lat="52.074741" lon="05.800536"><ele>0.4</ele><time>2021-01-12T14:04:06Z</time><name>PT3737</name></trkpt>
<trkpt lat="52.074736" lon="05.800526"><ele>0.3</ele><time>2021-01-12T14:04:07Z</time><name>PT3738</name></trkpt>
<trkpt lat="52.074739" lon="05.800525"><ele>0.3</ele><time>2021-01-12T14:04:08Z</time><name>PT3739</name></trkpt>
<trkpt lat="52.074741" lon="05.800527"><ele>0</ele><time>2021-01-12T14:04:09Z</time><name>PT3740</name></trkpt>
<trkpt lat="52.074741" lon="05.800527"><ele>0.1</ele><time>2021-01-12T14:04:10Z</time><name>PT3741</name></trkpt>
<trkpt lat="52.074743" lon="05.800524"><ele>0.9</ele><time>2021-01-12T14:04:18Z</time><name>PT3742</name></trkpt>
<trkpt lat="52.074739" lon="05.800521"><ele>0.9</ele><time>2021-01-12T14:04:19Z</time><name>PT3743</name></trkpt>
<trkpt lat="52.074738" lon="05.800509"><ele>0.8</ele><time>2021-01-12T14:04:20Z</time><name>PT3744</name></trkpt>
<trkpt lat="52.074735" lon="05.800495"><ele>0.5</ele><time>2021-01-12T14:04:21Z</time><name>PT3745</name></trkpt>
<trkpt lat="52.074734" lon="05.800483"><ele>0.4</ele><time>2021-01-12T14:04:22Z</time><name>PT3746</name></trkpt>
<trkpt lat="52.074729" lon="05.800479"><ele>0.1</ele><time>2021-01-12T14:04:23Z</time><name>PT3747</name></trkpt>
<trkpt lat="52.074725" lon="05.800469"><ele>0</ele><time>2021-01-12T14:04:24Z</time><name>PT3748</name></trkpt>
<trkpt lat="52.074722" lon="05.800461"><ele>0</ele><time>2021-01-12T14:04:25Z</time><name>PT3749</name></trkpt>
<trkpt lat="52.074720" lon="05.800453"><ele>0.1</ele><time>2021-01-12T14:04:26Z</time><name>PT3750</name></trkpt>
<trkpt lat="52.074718" lon="05.800437"><ele>0.1</ele><time>2021-01-12T14:04:27Z</time><name>PT3751</name></trkpt>
<trkpt lat="52.074715" lon="05.800428"><ele>0.3</ele><time>2021-01-12T14:04:28Z</time><name>PT3752</name></trkpt>
<trkpt lat="52.074713" lon="05.800418"><ele>0.1</ele><time>2021-01-12T14:04:29Z</time><name>PT3753</name></trkpt>
<trkpt lat="52.074709" lon="05.800409"><ele>0</ele><time>2021-01-12T14:04:30Z</time><name>PT3754</name></trkpt>
<trkpt lat="52.074709" lon="05.800404"><ele>0</ele><time>2021-01-12T14:04:31Z</time><name>PT3755</name></trkpt>
<trkpt lat="52.074706" lon="05.800391"><ele>0</ele><time>2021-01-12T14:04:32Z</time><name>PT3756</name></trkpt>
<trkpt lat="52.074703" lon="05.800380"><ele>0.1</ele><time>2021-01-12T14:04:33Z</time><name>PT3757</name></trkpt>
<trkpt lat="52.074699" lon="05.800368"><ele>0</ele><time>2021-01-12T14:04:34Z</time><name>PT3758</name></trkpt>
<trkpt lat="52.074692" lon="05.800354"><ele>0</ele><time>2021-01-12T14:04:35Z</time><name>PT3759</name></trkpt>
<trkpt lat="52.074689" lon="05.800346"><ele>0.1</ele><time>2021-01-12T14:04:36Z</time><name>PT3760</name></trkpt>
<trkpt lat="52.074687" lon="05.800344"><ele>0.1</ele><time>2021-01-12T14:04:37Z</time><name>PT3761</name></trkpt>
<trkpt lat="52.074685" lon="05.800346"><ele>0.2</ele><time>2021-01-12T14:04:38Z</time><name>PT3762</name></trkpt>
<trkpt lat="52.074683" lon="05.800340"><ele>0</ele><time>2021-01-12T14:04:39Z</time><name>PT3763</name></trkpt>
<trkpt lat="52.074676" lon="05.800335"><ele>0</ele><time>2021-01-12T14:04:40Z</time><name>PT3764</name></trkpt>
<trkpt lat="52.074670" lon="05.800335"><ele>0</ele><time>2021-01-12T14:04:41Z</time><name>PT3765</name></trkpt>
<trkpt lat="52.074673" lon="05.800339"><ele>0.1</ele><time>2021-01-12T14:04:42Z</time><name>PT3766</name></trkpt>
<trkpt lat="52.074676" lon="05.800341"><ele>0</ele><time>2021-01-12T14:04:43Z</time><name>PT3767</name></trkpt>
<trkpt lat="52.074677" lon="05.800343"><ele>0.1</ele><time>2021-01-12T14:04:44Z</time><name>PT3768</name></trkpt>
<trkpt lat="52.074684" lon="05.800347"><ele>0.2</ele><time>2021-01-12T14:04:49Z</time><name>PT3769</name></trkpt>
<trkpt lat="52.074692" lon="05.800355"><ele>0.2</ele><time>2021-01-12T14:04:50Z</time><name>PT3770</name></trkpt>
<trkpt lat="52.074696" lon="05.800363"><ele>0.3</ele><time>2021-01-12T14:04:51Z</time><name>PT3771</name></trkpt>
<trkpt lat="52.074702" lon="05.800370"><ele>0.4</ele><time>2021-01-12T14:04:52Z</time><name>PT3772</name></trkpt>
<trkpt lat="52.074708" lon="05.800372"><ele>0.4</ele><time>2021-01-12T14:04:53Z</time><name>PT3773</name></trkpt>
<trkpt lat="52.074709" lon="05.800371"><ele>0.6</ele><time>2021-01-12T14:04:54Z</time><name>PT3774</name></trkpt>
<trkpt lat="52.074707" lon="05.800370"><ele>0.5</ele><time>2021-01-12T14:04:55Z</time><name>PT3775</name></trkpt>
<trkpt lat="52.074707" lon="05.800368"><ele>0.5</ele><time>2021-01-12T14:04:56Z</time><name>PT3776</name></trkpt>
<trkpt lat="52.074710" lon="05.800388"><ele>0.1</ele><time>2021-01-12T14:05:34Z</time><name>PT3777</name></trkpt>
<trkpt lat="52.074709" lon="05.800393"><ele>0</ele><time>2021-01-12T14:05:35Z</time><name>PT3778</name></trkpt>
<trkpt lat="52.074708" lon="05.800395"><ele>0.1</ele><time>2021-01-12T14:05:36Z</time><name>PT3779</name></trkpt>
<trkpt lat="52.074707" lon="05.800390"><ele>0</ele><time>2021-01-12T14:05:59Z</time><name>PT3780</name></trkpt>
<trkpt lat="52.074699" lon="05.800383"><ele>0</ele><time>2021-01-12T14:06:00Z</time><name>PT3781</name></trkpt>
<trkpt lat="52.074693" lon="05.800375"><ele>0.2</ele><time>2021-01-12T14:06:01Z</time><name>PT3782</name></trkpt>
<trkpt lat="52.074686" lon="05.800370"><ele>0.3</ele><time>2021-01-12T14:06:02Z</time><name>PT3783</name></trkpt>
<trkpt lat="52.074680" lon="05.800361"><ele>0.3</ele><time>2021-01-12T14:06:03Z</time><name>PT3784</name></trkpt>
<trkpt lat="52.074672" lon="05.800360"><ele>0.3</ele><time>2021-01-12T14:06:04Z</time><name>PT3785</name></trkpt>
<trkpt lat="52.074669" lon="05.800355"><ele>0</ele><time>2021-01-12T14:06:05Z</time><name>PT3786</name></trkpt>
<trkpt lat="52.074669" lon="05.800351"><ele>0.1</ele><time>2021-01-12T14:06:06Z</time><name>PT3787</name></trkpt>
<trkpt lat="52.074670" lon="05.800348"><ele>0.1</ele><time>2021-01-12T14:06:07Z</time><name>PT3788</name></trkpt>
<trkpt lat="52.074669" lon="05.800351"><ele>0.1</ele><time>2021-01-12T14:06:08Z</time><name>PT3789</name></trkpt>
<trkpt lat="52.074667" lon="05.800356"><ele>0.1</ele><time>2021-01-12T14:06:09Z</time><name>PT3790</name></trkpt>
<trkpt lat="52.074670" lon="05.800354"><ele>0.1</ele><time>2021-01-12T14:06:10Z</time><name>PT3791</name></trkpt>
<trkpt lat="52.074671" lon="05.800361"><ele>0.1</ele><time>2021-01-12T14:06:47Z</time><name>PT3792</name></trkpt>
<trkpt lat="52.074670" lon="05.800364"><ele>0</ele><time>2021-01-12T14:06:48Z</time><name>PT3793</name></trkpt>
<trkpt lat="52.074670" lon="05.800362"><ele>0.1</ele><time>2021-01-12T14:06:49Z</time><name>PT3794</name></trkpt>
<trkpt lat="52.074667" lon="05.800355"><ele>0.3</ele><time>2021-01-12T14:06:58Z</time><name>PT3795</name></trkpt>
<trkpt lat="52.074670" lon="05.800349"><ele>0.3</ele><time>2021-01-12T14:06:59Z</time><name>PT3796</name></trkpt>
<trkpt lat="52.074672" lon="05.800352"><ele>0.4</ele><time>2021-01-12T14:07:00Z</time><name>PT3797</name></trkpt>
<trkpt lat="52.074680" lon="05.800352"><ele>0.3</ele><time>2021-01-12T14:07:01Z</time><name>PT3798</name></trkpt>
<trkpt lat="52.074688" lon="05.800350"><ele>0.3</ele><time>2021-01-12T14:07:02Z</time><name>PT3799</name></trkpt>
<trkpt lat="52.074692" lon="05.800352"><ele>0.1</ele><time>2021-01-12T14:07:03Z</time><name>PT3800</name></trkpt>
<trkpt lat="52.074700" lon="05.800356"><ele>0</ele><time>2021-01-12T14:07:04Z</time><name>PT3801</name></trkpt>
<trkpt lat="52.074707" lon="05.800364"><ele>0.1</ele><time>2021-01-12T14:07:05Z</time><name>PT3802</name></trkpt>
<trkpt lat="52.074721" lon="05.800363"><ele>0</ele><time>2021-01-12T14:07:06Z</time><name>PT3803</name></trkpt>
<trkpt lat="52.074724" lon="05.800370"><ele>0</ele><time>2021-01-12T14:07:07Z</time><name>PT3804</name></trkpt>
<trkpt lat="52.074728" lon="05.800378"><ele>0.1</ele><time>2021-01-12T14:07:08Z</time><name>PT3805</name></trkpt>
<trkpt lat="52.074735" lon="05.800384"><ele>0</ele><time>2021-01-12T14:07:09Z</time><name>PT3806</name></trkpt>
<trkpt lat="52.074743" lon="05.800390"><ele>0.1</ele><time>2021-01-12T14:07:10Z</time><name>PT3807</name></trkpt>
<trkpt lat="52.074751" lon="05.800397"><ele>0.1</ele><time>2021-01-12T14:07:11Z</time><name>PT3808</name></trkpt>
<trkpt lat="52.074764" lon="05.800402"><ele>0</ele><time>2021-01-12T14:07:12Z</time><name>PT3809</name></trkpt>
<trkpt lat="52.074771" lon="05.800404"><ele>0.2</ele><time>2021-01-12T14:07:13Z</time><name>PT3810</name></trkpt>
<trkpt lat="52.074778" lon="05.800410"><ele>0.2</ele><time>2021-01-12T14:07:14Z</time><name>PT3811</name></trkpt>
<trkpt lat="52.074790" lon="05.800415"><ele>0.1</ele><time>2021-01-12T14:07:15Z</time><name>PT3812</name></trkpt>
<trkpt lat="52.074803" lon="05.800418"><ele>0</ele><time>2021-01-12T14:07:16Z</time><name>PT3813</name></trkpt>
<trkpt lat="52.074812" lon="05.800422"><ele>0</ele><time>2021-01-12T14:07:17Z</time><name>PT3814</name></trkpt>
<trkpt lat="52.074818" lon="05.800431"><ele>0.1</ele><time>2021-01-12T14:07:18Z</time><name>PT3815</name></trkpt>
<trkpt lat="52.074826" lon="05.800438"><ele>0.1</ele><time>2021-01-12T14:07:19Z</time><name>PT3816</name></trkpt>
<trkpt lat="52.074834" lon="05.800445"><ele>0.3</ele><time>2021-01-12T14:07:20Z</time><name>PT3817</name></trkpt>
<trkpt lat="52.074845" lon="05.800451"><ele>0.4</ele><time>2021-01-12T14:07:21Z</time><name>PT3818</name></trkpt>
<trkpt lat="52.074859" lon="05.800452"><ele>0.4</ele><time>2021-01-12T14:07:22Z</time><name>PT3819</name></trkpt>
<trkpt lat="52.074869" lon="05.800452"><ele>0.4</ele><time>2021-01-12T14:07:23Z</time><name>PT3820</name></trkpt>
<trkpt lat="52.074876" lon="05.800452"><ele>0.4</ele><time>2021-01-12T14:07:24Z</time><name>PT3821</name></trkpt>
<trkpt lat="52.074886" lon="05.800453"><ele>0.5</ele><time>2021-01-12T14:07:25Z</time><name>PT3822</name></trkpt>
<trkpt lat="52.074898" lon="05.800454"><ele>0.3</ele><time>2021-01-12T14:07:26Z</time><name>PT3823</name></trkpt>
<trkpt lat="52.074909" lon="05.800455"><ele>0.1</ele><time>2021-01-12T14:07:27Z</time><name>PT3824</name></trkpt>
<trkpt lat="52.074920" lon="05.800452"><ele>0.2</ele><time>2021-01-12T14:07:28Z</time><name>PT3825</name></trkpt>
<trkpt lat="52.074924" lon="05.800450"><ele>0.2</ele><time>2021-01-12T14:07:29Z</time><name>PT3826</name></trkpt>
<trkpt lat="52.074931" lon="05.800446"><ele>0.1</ele><time>2021-01-12T14:07:30Z</time><name>PT3827</name></trkpt>
<trkpt lat="52.074937" lon="05.800444"><ele>0.1</ele><time>2021-01-12T14:07:31Z</time><name>PT3828</name></trkpt>
<trkpt lat="52.074945" lon="05.800442"><ele>0.2</ele><time>2021-01-12T14:07:32Z</time><name>PT3829</name></trkpt>
<trkpt lat="52.074952" lon="05.800437"><ele>0.2</ele><time>2021-01-12T14:07:33Z</time><name>PT3830</name></trkpt>
<trkpt lat="52.074964" lon="05.800436"><ele>0.1</ele><time>2021-01-12T14:07:34Z</time><name>PT3831</name></trkpt>
<trkpt lat="52.074974" lon="05.800429"><ele>0.1</ele><time>2021-01-12T14:07:35Z</time><name>PT3832</name></trkpt>
<trkpt lat="52.074980" lon="05.800418"><ele>0</ele><time>2021-01-12T14:07:36Z</time><name>PT3833</name></trkpt>
<trkpt lat="52.074989" lon="05.800419"><ele>0.1</ele><time>2021-01-12T14:07:37Z</time><name>PT3834</name></trkpt>
<trkpt lat="52.074999" lon="05.800423"><ele>0.3</ele><time>2021-01-12T14:07:38Z</time><name>PT3835</name></trkpt>
<trkpt lat="52.075011" lon="05.800413"><ele>0.3</ele><time>2021-01-12T14:07:39Z</time><name>PT3836</name></trkpt>
<trkpt lat="52.075018" lon="05.800408"><ele>0.3</ele><time>2021-01-12T14:07:40Z</time><name>PT3837</name></trkpt>
<trkpt lat="52.075023" lon="05.800408"><ele>0.1</ele><time>2021-01-12T14:07:41Z</time><name>PT3838</name></trkpt>
<trkpt lat="52.075033" lon="05.800417"><ele>0.1</ele><time>2021-01-12T14:07:42Z</time><name>PT3839</name></trkpt>
<trkpt lat="52.075043" lon="05.800419"><ele>0.2</ele><time>2021-01-12T14:07:43Z</time><name>PT3840</name></trkpt>
<trkpt lat="52.075055" lon="05.800424"><ele>0.2</ele><time>2021-01-12T14:07:44Z</time><name>PT3841</name></trkpt>
<trkpt lat="52.075064" lon="05.800424"><ele>0.4</ele><time>2021-01-12T14:07:45Z</time><name>PT3842</name></trkpt>
<trkpt lat="52.075077" lon="05.800418"><ele>0.5</ele><time>2021-01-12T14:07:46Z</time><name>PT3843</name></trkpt>
<trkpt lat="52.075086" lon="05.800415"><ele>0.4</ele><time>2021-01-12T14:07:47Z</time><name>PT3844</name></trkpt>
<trkpt lat="52.075097" lon="05.800415"><ele>0.6</ele><time>2021-01-12T14:07:48Z</time><name>PT3845</name></trkpt>
<trkpt lat="52.075108" lon="05.800416"><ele>0.5</ele><time>2021-01-12T14:07:49Z</time><name>PT3846</name></trkpt>
<trkpt lat="52.075118" lon="05.800419"><ele>0.3</ele><time>2021-01-12T14:07:50Z</time><name>PT3847</name></trkpt>
<trkpt lat="52.075129" lon="05.800418"><ele>0.3</ele><time>2021-01-12T14:07:51Z</time><name>PT3848</name></trkpt>
<trkpt lat="52.075141" lon="05.800422"><ele>0.4</ele><time>2021-01-12T14:07:52Z</time><name>PT3849</name></trkpt>
<trkpt lat="52.075152" lon="05.800424"><ele>0.2</ele><time>2021-01-12T14:07:53Z</time><name>PT3850</name></trkpt>
<trkpt lat="52.075168" lon="05.800423"><ele>0.3</ele><time>2021-01-12T14:07:54Z</time><name>PT3851</name></trkpt>
<trkpt lat="52.075181" lon="05.800420"><ele>0.3</ele><time>2021-01-12T14:07:55Z</time><name>PT3852</name></trkpt>
<trkpt lat="52.075188" lon="05.800418"><ele>0.2</ele><time>2021-01-12T14:07:56Z</time><name>PT3853</name></trkpt>
<trkpt lat="52.075197" lon="05.800419"><ele>0.2</ele><time>2021-01-12T14:07:57Z</time><name>PT3854</name></trkpt>
<trkpt lat="52.075203" lon="05.800420"><ele>0.1</ele><time>2021-01-12T14:07:58Z</time><name>PT3855</name></trkpt>
<trkpt lat="52.075210" lon="05.800422"><ele>0.2</ele><time>2021-01-12T14:07:59Z</time><name>PT3856</name></trkpt>
<trkpt lat="52.075222" lon="05.800418"><ele>0.1</ele><time>2021-01-12T14:08:00Z</time><name>PT3857</name></trkpt>
<trkpt lat="52.075233" lon="05.800413"><ele>0.1</ele><time>2021-01-12T14:08:01Z</time><name>PT3858</name></trkpt>
<trkpt lat="52.075246" lon="05.800414"><ele>0</ele><time>2021-01-12T14:08:02Z</time><name>PT3859</name></trkpt>
<trkpt lat="52.075258" lon="05.800422"><ele>0</ele><time>2021-01-12T14:08:03Z</time><name>PT3860</name></trkpt>
<trkpt lat="52.075268" lon="05.800427"><ele>0.1</ele><time>2021-01-12T14:08:04Z</time><name>PT3861</name></trkpt>
<trkpt lat="52.075280" lon="05.800425"><ele>0</ele><time>2021-01-12T14:08:05Z</time><name>PT3862</name></trkpt>
<trkpt lat="52.075290" lon="05.800423"><ele>0.2</ele><time>2021-01-12T14:08:06Z</time><name>PT3863</name></trkpt>
<trkpt lat="52.075302" lon="05.800423"><ele>0.2</ele><time>2021-01-12T14:08:07Z</time><name>PT3864</name></trkpt>
<trkpt lat="52.075317" lon="05.800420"><ele>0</ele><time>2021-01-12T14:08:08Z</time><name>PT3865</name></trkpt>
<trkpt lat="52.075333" lon="05.800423"><ele>0</ele><time>2021-01-12T14:08:09Z</time><name>PT3866</name></trkpt>
<trkpt lat="52.075349" lon="05.800423"><ele>0</ele><time>2021-01-12T14:08:10Z</time><name>PT3867</name></trkpt>
<trkpt lat="52.075366" lon="05.800421"><ele>0.1</ele><time>2021-01-12T14:08:11Z</time><name>PT3868</name></trkpt>
<trkpt lat="52.075379" lon="05.800418"><ele>0.1</ele><time>2021-01-12T14:08:12Z</time><name>PT3869</name></trkpt>
<trkpt lat="52.075387" lon="05.800421"><ele>0.1</ele><time>2021-01-12T14:08:13Z</time><name>PT3870</name></trkpt>
<trkpt lat="52.075397" lon="05.800420"><ele>0.1</ele><time>2021-01-12T14:08:14Z</time><name>PT3871</name></trkpt>
<trkpt lat="52.075405" lon="05.800419"><ele>0.1</ele><time>2021-01-12T14:08:15Z</time><name>PT3872</name></trkpt>
<trkpt lat="52.075421" lon="05.800422"><ele>0.2</ele><time>2021-01-12T14:08:16Z</time><name>PT3873</name></trkpt>
<trkpt lat="52.075428" lon="05.800422"><ele>0.1</ele><time>2021-01-12T14:08:17Z</time><name>PT3874</name></trkpt>
<trkpt lat="52.075433" lon="05.800418"><ele>0</ele><time>2021-01-12T14:08:18Z</time><name>PT3875</name></trkpt>
<trkpt lat="52.075435" lon="05.800416"><ele>0.1</ele><time>2021-01-12T14:08:19Z</time><name>PT3876</name></trkpt>
<trkpt lat="52.075443" lon="05.800416"><ele>0</ele><time>2021-01-12T14:08:20Z</time><name>PT3877</name></trkpt>
<trkpt lat="52.075452" lon="05.800414"><ele>0.1</ele><time>2021-01-12T14:08:21Z</time><name>PT3878</name></trkpt>
<trkpt lat="52.075462" lon="05.800410"><ele>0</ele><time>2021-01-12T14:08:22Z</time><name>PT3879</name></trkpt>
<trkpt lat="52.075470" lon="05.800411"><ele>0.1</ele><time>2021-01-12T14:08:23Z</time><name>PT3880</name></trkpt>
<trkpt lat="52.075480" lon="05.800413"><ele>0.1</ele><time>2021-01-12T14:08:24Z</time><name>PT3881</name></trkpt>
<trkpt lat="52.075487" lon="05.800413"><ele>0.1</ele><time>2021-01-12T14:08:25Z</time><name>PT3882</name></trkpt>
<trkpt lat="52.075500" lon="05.800417"><ele>0.1</ele><time>2021-01-12T14:08:26Z</time><name>PT3883</name></trkpt>
<trkpt lat="52.075511" lon="05.800414"><ele>0</ele><time>2021-01-12T14:08:27Z</time><name>PT3884</name></trkpt>
<trkpt lat="52.075528" lon="05.800407"><ele>0</ele><time>2021-01-12T14:08:28Z</time><name>PT3885</name></trkpt>
<trkpt lat="52.075541" lon="05.800406"><ele>0.2</ele><time>2021-01-12T14:08:29Z</time><name>PT3886</name></trkpt>
<trkpt lat="52.075558" lon="05.800408"><ele>0.2</ele><time>2021-01-12T14:08:30Z</time><name>PT3887</name></trkpt>
<trkpt lat="52.075568" lon="05.800407"><ele>0.3</ele><time>2021-01-12T14:08:31Z</time><name>PT3888</name></trkpt>
<trkpt lat="52.075583" lon="05.800407"><ele>0.2</ele><time>2021-01-12T14:08:32Z</time><name>PT3889</name></trkpt>
<trkpt lat="52.075592" lon="05.800408"><ele>0.1</ele><time>2021-01-12T14:08:33Z</time><name>PT3890</name></trkpt>
<trkpt lat="52.075602" lon="05.800407"><ele>0.1</ele><time>2021-01-12T14:08:34Z</time><name>PT3891</name></trkpt>
<trkpt lat="52.075613" lon="05.800402"><ele>0.1</ele><time>2021-01-12T14:08:35Z</time><name>PT3892</name></trkpt>
<trkpt lat="52.075624" lon="05.800399"><ele>0.3</ele><time>2021-01-12T14:08:36Z</time><name>PT3893</name></trkpt>
<trkpt lat="52.075634" lon="05.800395"><ele>0.2</ele><time>2021-01-12T14:08:37Z</time><name>PT3894</name></trkpt>
<trkpt lat="52.075639" lon="05.800394"><ele>0</ele><time>2021-01-12T14:08:38Z</time><name>PT3895</name></trkpt>
<trkpt lat="52.075639" lon="05.800394"><ele>0.1</ele><time>2021-01-12T14:08:39Z</time><name>PT3896</name></trkpt>
<trkpt lat="52.075639" lon="05.800393"><ele>0.2</ele><time>2021-01-12T14:08:40Z</time><name>PT3897</name></trkpt>
<trkpt lat="52.075641" lon="05.800392"><ele>0.2</ele><time>2021-01-12T14:08:41Z</time><name>PT3898</name></trkpt>
<trkpt lat="52.075641" lon="05.800392"><ele>0</ele><time>2021-01-12T14:09:09Z</time><name>PT3899</name></trkpt>
<trkpt lat="52.075647" lon="05.800398"><ele>0.1</ele><time>2021-01-12T14:09:10Z</time><name>PT3900</name></trkpt>
<trkpt lat="52.075651" lon="05.800398"><ele>0</ele><time>2021-01-12T14:09:11Z</time><name>PT3901</name></trkpt>
<trkpt lat="52.075653" lon="05.800398"><ele>0</ele><time>2021-01-12T14:09:12Z</time><name>PT3902</name></trkpt>
<trkpt lat="52.075655" lon="05.800398"><ele>0</ele><time>2021-01-12T14:09:13Z</time><name>PT3903</name></trkpt>
<trkpt lat="52.075660" lon="05.800394"><ele>0.1</ele><time>2021-01-12T14:10:29Z</time><name>PT3904</name></trkpt>
<trkpt lat="52.075668" lon="05.800387"><ele>0</ele><time>2021-01-12T14:10:30Z</time><name>PT3905</name></trkpt>
<trkpt lat="52.075679" lon="05.800380"><ele>0.1</ele><time>2021-01-12T14:10:31Z</time><name>PT3906</name></trkpt>
<trkpt lat="52.075691" lon="05.800375"><ele>0.1</ele><time>2021-01-12T14:10:32Z</time><name>PT3907</name></trkpt>
<trkpt lat="52.075703" lon="05.800373"><ele>0.2</ele><time>2021-01-12T14:10:33Z</time><name>PT3908</name></trkpt>
<trkpt lat="52.075714" lon="05.800370"><ele>0.3</ele><time>2021-01-12T14:10:34Z</time><name>PT3909</name></trkpt>
<trkpt lat="52.075725" lon="05.800365"><ele>0.2</ele><time>2021-01-12T14:10:35Z</time><name>PT3910</name></trkpt>
<trkpt lat="52.075733" lon="05.800360"><ele>0.1</ele><time>2021-01-12T14:10:36Z</time><name>PT3911</name></trkpt>
<trkpt lat="52.075740" lon="05.800356"><ele>0.1</ele><time>2021-01-12T14:10:37Z</time><name>PT3912</name></trkpt>
<trkpt lat="52.075749" lon="05.800355"><ele>0.1</ele><time>2021-01-12T14:10:38Z</time><name>PT3913</name></trkpt>
<trkpt lat="52.075759" lon="05.800360"><ele>0</ele><time>2021-01-12T14:10:39Z</time><name>PT3914</name></trkpt>
<trkpt lat="52.075775" lon="05.800368"><ele>0.1</ele><time>2021-01-12T14:10:40Z</time><name>PT3915</name></trkpt>
<trkpt lat="52.075790" lon="05.800374"><ele>0</ele><time>2021-01-12T14:10:41Z</time><name>PT3916</name></trkpt>
<trkpt lat="52.075805" lon="05.800376"><ele>0</ele><time>2021-01-12T14:10:42Z</time><name>PT3917</name></trkpt>
<trkpt lat="52.075818" lon="05.800375"><ele>0.1</ele><time>2021-01-12T14:10:43Z</time><name>PT3918</name></trkpt>
<trkpt lat="52.075828" lon="05.800373"><ele>0.1</ele><time>2021-01-12T14:10:44Z</time><name>PT3919</name></trkpt>
<trkpt lat="52.075838" lon="05.800373"><ele>0.1</ele><time>2021-01-12T14:10:45Z</time><name>PT3920</name></trkpt>
<trkpt lat="52.075845" lon="05.800372"><ele>0</ele><time>2021-01-12T14:10:46Z</time><name>PT3921</name></trkpt>
<trkpt lat="52.075855" lon="05.800371"><ele>0</ele><time>2021-01-12T14:10:47Z</time><name>PT3922</name></trkpt>
<trkpt lat="52.075866" lon="05.800372"><ele>0.1</ele><time>2021-01-12T14:10:48Z</time><name>PT3923</name></trkpt>
<trkpt lat="52.075879" lon="05.800378"><ele>0.3</ele><time>2021-01-12T14:10:49Z</time><name>PT3924</name></trkpt>
<trkpt lat="52.075893" lon="05.800383"><ele>0.3</ele><time>2021-01-12T14:10:50Z</time><name>PT3925</name></trkpt>
<trkpt lat="52.075907" lon="05.800384"><ele>0.4</ele><time>2021-01-12T14:10:51Z</time><name>PT3926</name></trkpt>
<trkpt lat="52.075923" lon="05.800383"><ele>0.3</ele><time>2021-01-12T14:10:52Z</time><name>PT3927</name></trkpt>
<trkpt lat="52.075939" lon="05.800382"><ele>0.3</ele><time>2021-01-12T14:10:53Z</time><name>PT3928</name></trkpt>
<trkpt lat="52.075950" lon="05.800382"><ele>0.4</ele><time>2021-01-12T14:10:54Z</time><name>PT3929</name></trkpt>
<trkpt lat="52.075961" lon="05.800379"><ele>0.4</ele><time>2021-01-12T14:10:55Z</time><name>PT3930</name></trkpt>
<trkpt lat="52.075973" lon="05.800378"><ele>0.5</ele><time>2021-01-12T14:10:56Z</time><name>PT3931</name></trkpt>
<trkpt lat="52.075983" lon="05.800376"><ele>0.6</ele><time>2021-01-12T14:10:57Z</time><name>PT3932</name></trkpt>
<trkpt lat="52.075991" lon="05.800376"><ele>0.5</ele><time>2021-01-12T14:10:58Z</time><name>PT3933</name></trkpt>
<trkpt lat="52.076002" lon="05.800378"><ele>0.4</ele><time>2021-01-12T14:10:59Z</time><name>PT3934</name></trkpt>
<trkpt lat="52.076013" lon="05.800379"><ele>0.3</ele><time>2021-01-12T14:11:00Z</time><name>PT3935</name></trkpt>
<trkpt lat="52.076024" lon="05.800379"><ele>0.3</ele><time>2021-01-12T14:11:01Z</time><name>PT3936</name></trkpt>
<trkpt lat="52.076038" lon="05.800379"><ele>0.1</ele><time>2021-01-12T14:11:02Z</time><name>PT3937</name></trkpt>
<trkpt lat="52.076052" lon="05.800373"><ele>0.1</ele><time>2021-01-12T14:11:03Z</time><name>PT3938</name></trkpt>
<trkpt lat="52.076064" lon="05.800369"><ele>0.1</ele><time>2021-01-12T14:11:04Z</time><name>PT3939</name></trkpt>
<trkpt lat="52.076077" lon="05.800369"><ele>0.1</ele><time>2021-01-12T14:11:05Z</time><name>PT3940</name></trkpt>
<trkpt lat="52.076090" lon="05.800371"><ele>0.2</ele><time>2021-01-12T14:11:06Z</time><name>PT3941</name></trkpt>
<trkpt lat="52.076101" lon="05.800369"><ele>0.2</ele><time>2021-01-12T14:11:07Z</time><name>PT3942</name></trkpt>
<trkpt lat="52.076113" lon="05.800368"><ele>0.2</ele><time>2021-01-12T14:11:08Z</time><name>PT3943</name></trkpt>
<trkpt lat="52.076123" lon="05.800367"><ele>0.1</ele><time>2021-01-12T14:11:09Z</time><name>PT3944</name></trkpt>
<trkpt lat="52.076133" lon="05.800367"><ele>0</ele><time>2021-01-12T14:11:10Z</time><name>PT3945</name></trkpt>
<trkpt lat="52.076145" lon="05.800363"><ele>0</ele><time>2021-01-12T14:11:11Z</time><name>PT3946</name></trkpt>
<trkpt lat="52.076160" lon="05.800357"><ele>0.2</ele><time>2021-01-12T14:11:12Z</time><name>PT3947</name></trkpt>
<trkpt lat="52.076177" lon="05.800354"><ele>0.2</ele><time>2021-01-12T14:11:13Z</time><name>PT3948</name></trkpt>
<trkpt lat="52.076190" lon="05.800347"><ele>0.2</ele><time>2021-01-12T14:11:14Z</time><name>PT3949</name></trkpt>
<trkpt lat="52.076203" lon="05.800341"><ele>0</ele><time>2021-01-12T14:11:15Z</time><name>PT3950</name></trkpt>
<trkpt lat="52.076216" lon="05.800335"><ele>0.1</ele><time>2021-01-12T14:11:16Z</time><name>PT3951</name></trkpt>
<trkpt lat="52.076229" lon="05.800327"><ele>0</ele><time>2021-01-12T14:11:17Z</time><name>PT3952</name></trkpt>
<trkpt lat="52.076238" lon="05.800321"><ele>0.1</ele><time>2021-01-12T14:11:18Z</time><name>PT3953</name></trkpt>
<trkpt lat="52.076248" lon="05.800315"><ele>0.1</ele><time>2021-01-12T14:11:19Z</time><name>PT3954</name></trkpt>
<trkpt lat="52.076256" lon="05.800311"><ele>0.1</ele><time>2021-01-12T14:11:20Z</time><name>PT3955</name></trkpt>
<trkpt lat="52.076265" lon="05.800306"><ele>0.2</ele><time>2021-01-12T14:11:21Z</time><name>PT3956</name></trkpt>
<trkpt lat="52.076274" lon="05.800305"><ele>0.3</ele><time>2021-01-12T14:11:22Z</time><name>PT3957</name></trkpt>
<trkpt lat="52.076286" lon="05.800305"><ele>0.4</ele><time>2021-01-12T14:11:23Z</time><name>PT3958</name></trkpt>
<trkpt lat="52.076299" lon="05.800304"><ele>0.5</ele><time>2021-01-12T14:11:24Z</time><name>PT3959</name></trkpt>
<trkpt lat="52.076314" lon="05.800298"><ele>0.5</ele><time>2021-01-12T14:11:25Z</time><name>PT3960</name></trkpt>
<trkpt lat="52.076329" lon="05.800296"><ele>0.5</ele><time>2021-01-12T14:11:26Z</time><name>PT3961</name></trkpt>
<trkpt lat="52.076338" lon="05.800291"><ele>0.4</ele><time>2021-01-12T14:11:27Z</time><name>PT3962</name></trkpt>
<trkpt lat="52.076345" lon="05.800285"><ele>0.5</ele><time>2021-01-12T14:11:28Z</time><name>PT3963</name></trkpt>
<trkpt lat="52.076354" lon="05.800280"><ele>0.4</ele><time>2021-01-12T14:11:29Z</time><name>PT3964</name></trkpt>
<trkpt lat="52.076364" lon="05.800276"><ele>0.3</ele><time>2021-01-12T14:11:30Z</time><name>PT3965</name></trkpt>
<trkpt lat="52.076375" lon="05.800275"><ele>0.2</ele><time>2021-01-12T14:11:31Z</time><name>PT3966</name></trkpt>
<trkpt lat="52.076389" lon="05.800275"><ele>0.2</ele><time>2021-01-12T14:11:32Z</time><name>PT3967</name></trkpt>
<trkpt lat="52.076403" lon="05.800273"><ele>0.1</ele><time>2021-01-12T14:11:33Z</time><name>PT3968</name></trkpt>
<trkpt lat="52.076415" lon="05.800273"><ele>0.1</ele><time>2021-01-12T14:11:34Z</time><name>PT3969</name></trkpt>
<trkpt lat="52.076426" lon="05.800270"><ele>0.1</ele><time>2021-01-12T14:11:35Z</time><name>PT3970</name></trkpt>
<trkpt lat="52.076438" lon="05.800266"><ele>0.1</ele><time>2021-01-12T14:11:36Z</time><name>PT3971</name></trkpt>
<trkpt lat="52.076446" lon="05.800262"><ele>0.2</ele><time>2021-01-12T14:11:37Z</time><name>PT3972</name></trkpt>
<trkpt lat="52.076456" lon="05.800259"><ele>0.1</ele><time>2021-01-12T14:11:38Z</time><name>PT3973</name></trkpt>
<trkpt lat="52.076466" lon="05.800257"><ele>0</ele><time>2021-01-12T14:11:39Z</time><name>PT3974</name></trkpt>
<trkpt lat="52.076476" lon="05.800254"><ele>0</ele><time>2021-01-12T14:11:40Z</time><name>PT3975</name></trkpt>
<trkpt lat="52.076486" lon="05.800254"><ele>0.1</ele><time>2021-01-12T14:11:41Z</time><name>PT3976</name></trkpt>
<trkpt lat="52.076495" lon="05.800257"><ele>0</ele><time>2021-01-12T14:11:42Z</time><name>PT3977</name></trkpt>
<trkpt lat="52.076504" lon="05.800256"><ele>0</ele><time>2021-01-12T14:11:43Z</time><name>PT3978</name></trkpt>
<trkpt lat="52.076518" lon="05.800254"><ele>0.1</ele><time>2021-01-12T14:11:44Z</time><name>PT3979</name></trkpt>
<trkpt lat="52.076534" lon="05.800255"><ele>0</ele><time>2021-01-12T14:11:45Z</time><name>PT3980</name></trkpt>
<trkpt lat="52.076549" lon="05.800254"><ele>0</ele><time>2021-01-12T14:11:46Z</time><name>PT3981</name></trkpt>
<trkpt lat="52.076562" lon="05.800252"><ele>0</ele><time>2021-01-12T14:11:47Z</time><name>PT3982</name></trkpt>
<trkpt lat="52.076571" lon="05.800248"><ele>0</ele><time>2021-01-12T14:11:48Z</time><name>PT3983</name></trkpt>
<trkpt lat="52.076582" lon="05.800244"><ele>0.1</ele><time>2021-01-12T14:11:49Z</time><name>PT3984</name></trkpt>
<trkpt lat="52.076594" lon="05.800239"><ele>0.3</ele><time>2021-01-12T14:11:50Z</time><name>PT3985</name></trkpt>
<trkpt lat="52.076603" lon="05.800237"><ele>0.5</ele><time>2021-01-12T14:11:51Z</time><name>PT3986</name></trkpt>
<trkpt lat="52.076612" lon="05.800236"><ele>0.6</ele><time>2021-01-12T14:11:52Z</time><name>PT3987</name></trkpt>
<trkpt lat="52.076623" lon="05.800233"><ele>0.4</ele><time>2021-01-12T14:11:53Z</time><name>PT3988</name></trkpt>
<trkpt lat="52.076634" lon="05.800233"><ele>0.3</ele><time>2021-01-12T14:11:54Z</time><name>PT3989</name></trkpt>
<trkpt lat="52.076646" lon="05.800234"><ele>0.3</ele><time>2021-01-12T14:11:55Z</time><name>PT3990</name></trkpt>
<trkpt lat="52.076656" lon="05.800231"><ele>0.3</ele><time>2021-01-12T14:11:56Z</time><name>PT3991</name></trkpt>
<trkpt lat="52.076670" lon="05.800230"><ele>0.3</ele><time>2021-01-12T14:11:57Z</time><name>PT3992</name></trkpt>
<trkpt lat="52.076683" lon="05.800227"><ele>0.3</ele><time>2021-01-12T14:11:58Z</time><name>PT3993</name></trkpt>
<trkpt lat="52.076696" lon="05.800221"><ele>0.4</ele><time>2021-01-12T14:11:59Z</time><name>PT3994</name></trkpt>
<trkpt lat="52.076709" lon="05.800218"><ele>0.3</ele><time>2021-01-12T14:12:00Z</time><name>PT3995</name></trkpt>
<trkpt lat="52.076718" lon="05.800212"><ele>0.3</ele><time>2021-01-12T14:12:01Z</time><name>PT3996</name></trkpt>
<trkpt lat="52.076726" lon="05.800208"><ele>0.2</ele><time>2021-01-12T14:12:02Z</time><name>PT3997</name></trkpt>
<trkpt lat="52.076734" lon="05.800206"><ele>0.1</ele><time>2021-01-12T14:12:03Z</time><name>PT3998</name></trkpt>
<trkpt lat="52.076746" lon="05.800201"><ele>0</ele><time>2021-01-12T14:12:04Z</time><name>PT3999</name></trkpt>
<trkpt lat="52.076754" lon="05.800198"><ele>0.1</ele><time>2021-01-12T14:12:05Z</time><name>PT4000</name></trkpt>
<trkpt lat="52.076765" lon="05.800197"><ele>0</ele><time>2021-01-12T14:12:06Z</time><name>PT4001</name></trkpt>
<trkpt lat="52.076780" lon="05.800196"><ele>0</ele><time>2021-01-12T14:12:07Z</time><name>PT4002</name></trkpt>
<trkpt lat="52.076796" lon="05.800191"><ele>0.1</ele><time>2021-01-12T14:12:08Z</time><name>PT4003</name></trkpt>
<trkpt lat="52.076811" lon="05.800183"><ele>0.1</ele><time>2021-01-12T14:12:09Z</time><name>PT4004</name></trkpt>
<trkpt lat="52.076823" lon="05.800175"><ele>0.1</ele><time>2021-01-12T14:12:10Z</time><name>PT4005</name></trkpt>
<trkpt lat="52.076831" lon="05.800168"><ele>0.3</ele><time>2021-01-12T14:12:11Z</time><name>PT4006</name></trkpt>
<trkpt lat="52.076839" lon="05.800165"><ele>0.3</ele><time>2021-01-12T14:12:12Z</time><name>PT4007</name></trkpt>
<trkpt lat="52.076849" lon="05.800158"><ele>0.3</ele><time>2021-01-12T14:12:13Z</time><name>PT4008</name></trkpt>
<trkpt lat="52.076859" lon="05.800155"><ele>0.2</ele><time>2021-01-12T14:12:14Z</time><name>PT4009</name></trkpt>
<trkpt lat="52.076870" lon="05.800150"><ele>0.1</ele><time>2021-01-12T14:12:15Z</time><name>PT4010</name></trkpt>
<trkpt lat="52.076882" lon="05.800143"><ele>0</ele><time>2021-01-12T14:12:16Z</time><name>PT4011</name></trkpt>
<trkpt lat="52.076895" lon="05.800136"><ele>0.1</ele><time>2021-01-12T14:12:17Z</time><name>PT4012</name></trkpt>
<trkpt lat="52.076906" lon="05.800129"><ele>0.1</ele><time>2021-01-12T14:12:18Z</time><name>PT4013</name></trkpt>
<trkpt lat="52.076915" lon="05.800123"><ele>0</ele><time>2021-01-12T14:12:19Z</time><name>PT4014</name></trkpt>
<trkpt lat="52.076923" lon="05.800118"><ele>0</ele><time>2021-01-12T14:12:20Z</time><name>PT4015</name></trkpt>
<trkpt lat="52.076932" lon="05.800113"><ele>0</ele><time>2021-01-12T14:12:21Z</time><name>PT4016</name></trkpt>
<trkpt lat="52.076940" lon="05.800109"><ele>0</ele><time>2021-01-12T14:12:22Z</time><name>PT4017</name></trkpt>
<trkpt lat="52.076949" lon="05.800101"><ele>0.2</ele><time>2021-01-12T14:12:23Z</time><name>PT4018</name></trkpt>
<trkpt lat="52.076960" lon="05.800093"><ele>0</ele><time>2021-01-12T14:12:24Z</time><name>PT4019</name></trkpt>
<trkpt lat="52.076967" lon="05.800089"><ele>0.1</ele><time>2021-01-12T14:12:25Z</time><name>PT4020</name></trkpt>
<trkpt lat="52.076969" lon="05.800088"><ele>0.1</ele><time>2021-01-12T14:12:26Z</time><name>PT4021</name></trkpt>
<trkpt lat="52.076968" lon="05.800086"><ele>0</ele><time>2021-01-12T14:12:27Z</time><name>PT4022</name></trkpt>
<trkpt lat="52.076966" lon="05.800085"><ele>0</ele><time>2021-01-12T14:12:28Z</time><name>PT4023</name></trkpt>
<trkpt lat="52.076970" lon="05.800081"><ele>0.2</ele><time>2021-01-12T14:12:45Z</time><name>PT4024</name></trkpt>
<trkpt lat="52.076976" lon="05.800072"><ele>0.1</ele><time>2021-01-12T14:12:46Z</time><name>PT4025</name></trkpt>
<trkpt lat="52.076984" lon="05.800066"><ele>0.1</ele><time>2021-01-12T14:12:47Z</time><name>PT4026</name></trkpt>
<trkpt lat="52.076988" lon="05.800066"><ele>0</ele><time>2021-01-12T14:12:48Z</time><name>PT4027</name></trkpt>
<trkpt lat="52.076992" lon="05.800059"><ele>0.1</ele><time>2021-01-12T14:12:49Z</time><name>PT4028</name></trkpt>
<trkpt lat="52.077000" lon="05.800054"><ele>0</ele><time>2021-01-12T14:12:50Z</time><name>PT4029</name></trkpt>
<trkpt lat="52.077008" lon="05.800048"><ele>0.1</ele><time>2021-01-12T14:12:51Z</time><name>PT4030</name></trkpt>
<trkpt lat="52.077015" lon="05.800046"><ele>0.1</ele><time>2021-01-12T14:12:52Z</time><name>PT4031</name></trkpt>
<trkpt lat="52.077019" lon="05.800044"><ele>0.2</ele><time>2021-01-12T14:12:53Z</time><name>PT4032</name></trkpt>
<trkpt lat="52.077021" lon="05.800043"><ele>0.2</ele><time>2021-01-12T14:12:54Z</time><name>PT4033</name></trkpt>
<trkpt lat="52.077024" lon="05.800043"><ele>0.1</ele><time>2021-01-12T14:12:55Z</time><name>PT4034</name></trkpt>
<trkpt lat="52.077026" lon="05.800043"><ele>0.1</ele><time>2021-01-12T14:12:56Z</time><name>PT4035</name></trkpt>
<trkpt lat="52.077027" lon="05.800044"><ele>0.1</ele><time>2021-01-12T14:12:57Z</time><name>PT4036</name></trkpt>
<trkpt lat="52.077026" lon="05.800044"><ele>0.1</ele><time>2021-01-12T14:12:58Z</time><name>PT4037</name></trkpt>
<trkpt lat="52.077026" lon="05.800043"><ele>0.1</ele><time>2021-01-12T14:12:59Z</time><name>PT4038</name></trkpt>
<trkpt lat="52.077027" lon="05.800043"><ele>0.3</ele><time>2021-01-12T14:13:10Z</time><name>PT4039</name></trkpt>
<trkpt lat="52.077026" lon="05.800042"><ele>0.3</ele><time>2021-01-12T14:13:11Z</time><name>PT4040</name></trkpt>
<trkpt lat="52.077027" lon="05.800041"><ele>0.2</ele><time>2021-01-12T14:13:25Z</time><name>PT4041</name></trkpt>
<trkpt lat="52.077031" lon="05.800037"><ele>0.2</ele><time>2021-01-12T14:13:26Z</time><name>PT4042</name></trkpt>
<trkpt lat="52.077036" lon="05.800037"><ele>0.1</ele><time>2021-01-12T14:13:27Z</time><name>PT4043</name></trkpt>
<trkpt lat="52.077041" lon="05.800035"><ele>0.1</ele><time>2021-01-12T14:13:28Z</time><name>PT4044</name></trkpt>
<trkpt lat="52.077048" lon="05.800036"><ele>0.3</ele><time>2021-01-12T14:13:29Z</time><name>PT4045</name></trkpt>
<trkpt lat="52.077051" lon="05.800037"><ele>0.1</ele><time>2021-01-12T14:13:30Z</time><name>PT4046</name></trkpt>
<trkpt lat="52.077052" lon="05.800040"><ele>0.2</ele><time>2021-01-12T14:13:31Z</time><name>PT4047</name></trkpt>
<trkpt lat="52.077056" lon="05.800041"><ele>0.2</ele><time>2021-01-12T14:13:32Z</time><name>PT4048</name></trkpt>
<trkpt lat="52.077056" lon="05.800042"><ele>0.1</ele><time>2021-01-12T14:13:33Z</time><name>PT4049</name></trkpt>
<trkpt lat="52.077056" lon="05.800046"><ele>0.1</ele><time>2021-01-12T14:13:34Z</time><name>PT4050</name></trkpt>
<trkpt lat="52.077056" lon="05.800042"><ele>0.1</ele><time>2021-01-12T14:13:35Z</time><name>PT4051</name></trkpt>
<trkpt lat="52.077056" lon="05.800036"><ele>0</ele><time>2021-01-12T14:13:36Z</time><name>PT4052</name></trkpt>
<trkpt lat="52.077054" lon="05.800034"><ele>0</ele><time>2021-01-12T14:13:37Z</time><name>PT4053</name></trkpt>
<trkpt lat="52.077052" lon="05.800034"><ele>0</ele><time>2021-01-12T14:13:38Z</time><name>PT4054</name></trkpt>
<trkpt lat="52.077054" lon="05.800030"><ele>0.1</ele><time>2021-01-12T14:14:12Z</time><name>PT4055</name></trkpt>
<trkpt lat="52.077053" lon="05.800043"><ele>0.3</ele><time>2021-01-12T14:14:13Z</time><name>PT4056</name></trkpt>
<trkpt lat="52.077050" lon="05.800056"><ele>0.2</ele><time>2021-01-12T14:14:14Z</time><name>PT4057</name></trkpt>
<trkpt lat="52.077045" lon="05.800076"><ele>0.2</ele><time>2021-01-12T14:14:15Z</time><name>PT4058</name></trkpt>
<trkpt lat="52.077048" lon="05.800083"><ele>0.2</ele><time>2021-01-12T14:14:16Z</time><name>PT4059</name></trkpt>
<trkpt lat="52.077053" lon="05.800083"><ele>0.2</ele><time>2021-01-12T14:14:17Z</time><name>PT4060</name></trkpt>
<trkpt lat="52.077059" lon="05.800087"><ele>0.1</ele><time>2021-01-12T14:14:18Z</time><name>PT4061</name></trkpt>
<trkpt lat="52.077060" lon="05.800088"><ele>0.2</ele><time>2021-01-12T14:14:19Z</time><name>PT4062</name></trkpt>
<trkpt lat="52.077062" lon="05.800089"><ele>0.3</ele><time>2021-01-12T14:14:20Z</time><name>PT4063</name></trkpt>
<trkpt lat="52.077061" lon="05.800087"><ele>0.3</ele><time>2021-01-12T14:14:21Z</time><name>PT4064</name></trkpt>
<trkpt lat="52.077062" lon="05.800087"><ele>0.3</ele><time>2021-01-12T14:14:22Z</time><name>PT4065</name></trkpt>
<trkpt lat="52.077068" lon="05.800090"><ele>0.4</ele><time>2021-01-12T14:14:26Z</time><name>PT4066</name></trkpt>
<trkpt lat="52.077066" lon="05.800087"><ele>0.7</ele><time>2021-01-12T14:14:27Z</time><name>PT4067</name></trkpt>
<trkpt lat="52.077060" lon="05.800083"><ele>0.8</ele><time>2021-01-12T14:14:28Z</time><name>PT4068</name></trkpt>
<trkpt lat="52.077056" lon="05.800081"><ele>0.8</ele><time>2021-01-12T14:14:29Z</time><name>PT4069</name></trkpt>
<trkpt lat="52.077055" lon="05.800079"><ele>0.8</ele><time>2021-01-12T14:14:30Z</time><name>PT4070</name></trkpt>
<trkpt lat="52.077055" lon="05.800073"><ele>0.7</ele><time>2021-01-12T14:14:31Z</time><name>PT4071</name></trkpt>
<trkpt lat="52.077056" lon="05.800073"><ele>0.4</ele><time>2021-01-12T14:14:32Z</time><name>PT4072</name></trkpt>
<trkpt lat="52.077056" lon="05.800073"><ele>0.3</ele><time>2021-01-12T14:14:33Z</time><name>PT4073</name></trkpt>
<trkpt lat="52.077056" lon="05.800073"><ele>0.2</ele><time>2021-01-12T14:14:34Z</time><name>PT4074</name></trkpt>
<trkpt lat="52.077055" lon="05.800074"><ele>0.1</ele><time>2021-01-12T14:14:35Z</time><name>PT4075</name></trkpt>
<trkpt lat="52.077052" lon="05.800067"><ele>0.2</ele><time>2021-01-12T14:15:12Z</time><name>PT4076</name></trkpt>
<trkpt lat="52.077055" lon="05.800068"><ele>0.3</ele><time>2021-01-12T14:15:13Z</time><name>PT4077</name></trkpt>
<trkpt lat="52.077056" lon="05.800064"><ele>0.7</ele><time>2021-01-12T14:15:14Z</time><name>PT4078</name></trkpt>
<trkpt lat="52.077055" lon="05.800066"><ele>0.7</ele><time>2021-01-12T14:16:15Z</time><name>PT4079</name></trkpt>
<trkpt lat="52.077056" lon="05.800068"><ele>0.6</ele><time>2021-01-12T14:16:16Z</time><name>PT4080</name></trkpt>
<trkpt lat="52.077057" lon="05.800069"><ele>0.6</ele><time>2021-01-12T14:16:17Z</time><name>PT4081</name></trkpt>
<trkpt lat="52.077057" lon="05.800069"><ele>0.7</ele><time>2021-01-12T14:16:21Z</time><name>PT4082</name></trkpt>
<trkpt lat="52.077057" lon="05.800070"><ele>0.6</ele><time>2021-01-12T14:16:22Z</time><name>PT4083</name></trkpt>
<trkpt lat="52.077055" lon="05.800068"><ele>0.3</ele><time>2021-01-12T14:16:49Z</time><name>PT4084</name></trkpt>
<trkpt lat="52.077055" lon="05.800070"><ele>0.3</ele><time>2021-01-12T14:16:50Z</time><name>PT4085</name></trkpt>
<trkpt lat="52.077051" lon="05.800070"><ele>0</ele><time>2021-01-12T14:16:51Z</time><name>PT4086</name></trkpt>
<trkpt lat="52.077050" lon="05.800073"><ele>0.7</ele><time>2021-01-12T14:17:55Z</time><name>PT4087</name></trkpt>
<trkpt lat="52.077048" lon="05.800074"><ele>0.5</ele><time>2021-01-12T14:17:56Z</time><name>PT4088</name></trkpt>
<trkpt lat="52.077048" lon="05.800073"><ele>0.5</ele><time>2021-01-12T14:17:57Z</time><name>PT4089</name></trkpt>
<trkpt lat="52.077044" lon="05.800069"><ele>0.3</ele><time>2021-01-12T14:18:04Z</time><name>PT4090</name></trkpt>
<trkpt lat="52.077046" lon="05.800060"><ele>0.3</ele><time>2021-01-12T14:18:05Z</time><name>PT4091</name></trkpt>
<trkpt lat="52.077045" lon="05.800049"><ele>0.2</ele><time>2021-01-12T14:18:06Z</time><name>PT4092</name></trkpt>
<trkpt lat="52.077038" lon="05.800041"><ele>0.3</ele><time>2021-01-12T14:18:07Z</time><name>PT4093</name></trkpt>
<trkpt lat="52.077033" lon="05.800033"><ele>0.3</ele><time>2021-01-12T14:18:08Z</time><name>PT4094</name></trkpt>
<trkpt lat="52.077029" lon="05.800020"><ele>0.5</ele><time>2021-01-12T14:18:09Z</time><name>PT4095</name></trkpt>
<trkpt lat="52.077024" lon="05.800005"><ele>0.4</ele><time>2021-01-12T14:18:10Z</time><name>PT4096</name></trkpt>
<trkpt lat="52.077019" lon="05.799993"><ele>0.3</ele><time>2021-01-12T14:18:11Z</time><name>PT4097</name></trkpt>
<trkpt lat="52.077015" lon="05.799989"><ele>0.3</ele><time>2021-01-12T14:18:12Z</time><name>PT4098</name></trkpt>
<trkpt lat="52.077012" lon="05.799982"><ele>0.3</ele><time>2021-01-12T14:18:13Z</time><name>PT4099</name></trkpt>
<trkpt lat="52.077009" lon="05.799967"><ele>0.2</ele><time>2021-01-12T14:18:14Z</time><name>PT4100</name></trkpt>
<trkpt lat="52.077006" lon="05.799947"><ele>0.3</ele><time>2021-01-12T14:18:15Z</time><name>PT4101</name></trkpt>
<trkpt lat="52.077002" lon="05.799932"><ele>0.3</ele><time>2021-01-12T14:18:16Z</time><name>PT4102</name></trkpt>
<trkpt lat="52.076995" lon="05.799920"><ele>0.2</ele><time>2021-01-12T14:18:17Z</time><name>PT4103</name></trkpt>
<trkpt lat="52.076990" lon="05.799908"><ele>0</ele><time>2021-01-12T14:18:18Z</time><name>PT4104</name></trkpt>
<trkpt lat="52.076986" lon="05.799896"><ele>0</ele><time>2021-01-12T14:18:19Z</time><name>PT4105</name></trkpt>
<trkpt lat="52.076981" lon="05.799884"><ele>0</ele><time>2021-01-12T14:18:20Z</time><name>PT4106</name></trkpt>
<trkpt lat="52.076975" lon="05.799864"><ele>0</ele><time>2021-01-12T14:18:21Z</time><name>PT4107</name></trkpt>
<trkpt lat="52.076968" lon="05.799844"><ele>0</ele><time>2021-01-12T14:18:22Z</time><name>PT4108</name></trkpt>
<trkpt lat="52.076959" lon="05.799825"><ele>0</ele><time>2021-01-12T14:18:23Z</time><name>PT4109</name></trkpt>
<trkpt lat="52.076953" lon="05.799811"><ele>0</ele><time>2021-01-12T14:18:24Z</time><name>PT4110</name></trkpt>
<trkpt lat="52.076948" lon="05.799799"><ele>0</ele><time>2021-01-12T14:18:25Z</time><name>PT4111</name></trkpt>
<trkpt lat="52.076946" lon="05.799796"><ele>0</ele><time>2021-01-12T14:18:26Z</time><name>PT4112</name></trkpt>
<trkpt lat="52.076944" lon="05.799790"><ele>0.1</ele><time>2021-01-12T14:18:27Z</time><name>PT4113</name></trkpt>
<trkpt lat="52.076939" lon="05.799772"><ele>0.1</ele><time>2021-01-12T14:18:28Z</time><name>PT4114</name></trkpt>
<trkpt lat="52.076933" lon="05.799750"><ele>0.2</ele><time>2021-01-12T14:18:29Z</time><name>PT4115</name></trkpt>
<trkpt lat="52.076928" lon="05.799731"><ele>0.2</ele><time>2021-01-12T14:18:30Z</time><name>PT4116</name></trkpt>
<trkpt lat="52.076922" lon="05.799719"><ele>0.2</ele><time>2021-01-12T14:18:31Z</time><name>PT4117</name></trkpt>
<trkpt lat="52.076919" lon="05.799710"><ele>0.3</ele><time>2021-01-12T14:18:32Z</time><name>PT4118</name></trkpt>
<trkpt lat="52.076915" lon="05.799695"><ele>0.4</ele><time>2021-01-12T14:18:33Z</time><name>PT4119</name></trkpt>
<trkpt lat="52.076908" lon="05.799677"><ele>0.3</ele><time>2021-01-12T14:18:34Z</time><name>PT4120</name></trkpt>
<trkpt lat="52.076900" lon="05.799660"><ele>0.3</ele><time>2021-01-12T14:18:35Z</time><name>PT4121</name></trkpt>
<trkpt lat="52.076892" lon="05.799646"><ele>0.3</ele><time>2021-01-12T14:18:36Z</time><name>PT4122</name></trkpt>
<trkpt lat="52.076885" lon="05.799637"><ele>0.3</ele><time>2021-01-12T14:18:37Z</time><name>PT4123</name></trkpt>
<trkpt lat="52.076880" lon="05.799627"><ele>0.3</ele><time>2021-01-12T14:18:38Z</time><name>PT4124</name></trkpt>
<trkpt lat="52.076873" lon="05.799606"><ele>0.3</ele><time>2021-01-12T14:18:39Z</time><name>PT4125</name></trkpt>
<trkpt lat="52.076868" lon="05.799592"><ele>0.3</ele><time>2021-01-12T14:18:40Z</time><name>PT4126</name></trkpt>
<trkpt lat="52.076865" lon="05.799587"><ele>0.4</ele><time>2021-01-12T14:18:41Z</time><name>PT4127</name></trkpt>
<trkpt lat="52.076865" lon="05.799587"><ele>0.4</ele><time>2021-01-12T14:18:42Z</time><name>PT4128</name></trkpt>
<trkpt lat="52.076864" lon="05.799587"><ele>0.4</ele><time>2021-01-12T14:18:43Z</time><name>PT4129</name></trkpt>
<trkpt lat="52.076864" lon="05.799588"><ele>0.5</ele><time>2021-01-12T14:18:44Z</time><name>PT4130</name></trkpt>
<trkpt lat="52.076862" lon="05.799580"><ele>1.2</ele><time>2021-01-12T14:19:14Z</time><name>PT4131</name></trkpt>
<trkpt lat="52.076853" lon="05.799570"><ele>1.2</ele><time>2021-01-12T14:19:15Z</time><name>PT4132</name></trkpt>
<trkpt lat="52.076844" lon="05.799564"><ele>1.3</ele><time>2021-01-12T14:19:16Z</time><name>PT4133</name></trkpt>
<trkpt lat="52.076836" lon="05.799563"><ele>1.1</ele><time>2021-01-12T14:19:17Z</time><name>PT4134</name></trkpt>
<trkpt lat="52.076829" lon="05.799559"><ele>1.1</ele><time>2021-01-12T14:19:18Z</time><name>PT4135</name></trkpt>
<trkpt lat="52.076822" lon="05.799552"><ele>0.9</ele><time>2021-01-12T14:19:19Z</time><name>PT4136</name></trkpt>
<trkpt lat="52.076814" lon="05.799544"><ele>0.8</ele><time>2021-01-12T14:19:20Z</time><name>PT4137</name></trkpt>
<trkpt lat="52.076807" lon="05.799538"><ele>0.8</ele><time>2021-01-12T14:19:21Z</time><name>PT4138</name></trkpt>
<trkpt lat="52.076800" lon="05.799533"><ele>0.6</ele><time>2021-01-12T14:19:22Z</time><name>PT4139</name></trkpt>
<trkpt lat="52.076793" lon="05.799524"><ele>0.6</ele><time>2021-01-12T14:19:23Z</time><name>PT4140</name></trkpt>
<trkpt lat="52.076784" lon="05.799516"><ele>0.5</ele><time>2021-01-12T14:19:24Z</time><name>PT4141</name></trkpt>
<trkpt lat="52.076776" lon="05.799507"><ele>0.5</ele><time>2021-01-12T14:19:25Z</time><name>PT4142</name></trkpt>
<trkpt lat="52.076768" lon="05.799500"><ele>0.4</ele><time>2021-01-12T14:19:26Z</time><name>PT4143</name></trkpt>
<trkpt lat="52.076756" lon="05.799492"><ele>0.3</ele><time>2021-01-12T14:19:27Z</time><name>PT4144</name></trkpt>
<trkpt lat="52.076748" lon="05.799490"><ele>0.4</ele><time>2021-01-12T14:19:28Z</time><name>PT4145</name></trkpt>
<trkpt lat="52.076741" lon="05.799486"><ele>0.3</ele><time>2021-01-12T14:19:29Z</time><name>PT4146</name></trkpt>
<trkpt lat="52.076733" lon="05.799478"><ele>0.3</ele><time>2021-01-12T14:19:30Z</time><name>PT4147</name></trkpt>
<trkpt lat="52.076723" lon="05.799466"><ele>0.3</ele><time>2021-01-12T14:19:31Z</time><name>PT4148</name></trkpt>
<trkpt lat="52.076712" lon="05.799451"><ele>0.4</ele><time>2021-01-12T14:19:32Z</time><name>PT4149</name></trkpt>
<trkpt lat="52.076699" lon="05.799438"><ele>0.2</ele><time>2021-01-12T14:19:33Z</time><name>PT4150</name></trkpt>
<trkpt lat="52.076685" lon="05.799425"><ele>0.3</ele><time>2021-01-12T14:19:34Z</time><name>PT4151</name></trkpt>
<trkpt lat="52.076675" lon="05.799414"><ele>0.2</ele><time>2021-01-12T14:19:35Z</time><name>PT4152</name></trkpt>
<trkpt lat="52.076666" lon="05.799404"><ele>0</ele><time>2021-01-12T14:19:36Z</time><name>PT4153</name></trkpt>
<trkpt lat="52.076662" lon="05.799400"><ele>0.1</ele><time>2021-01-12T14:19:37Z</time><name>PT4154</name></trkpt>
<trkpt lat="52.076658" lon="05.799395"><ele>0.1</ele><time>2021-01-12T14:19:38Z</time><name>PT4155</name></trkpt>
<trkpt lat="52.076653" lon="05.799385"><ele>0.1</ele><time>2021-01-12T14:19:39Z</time><name>PT4156</name></trkpt>
<trkpt lat="52.076647" lon="05.799373"><ele>0.1</ele><time>2021-01-12T14:19:40Z</time><name>PT4157</name></trkpt>
<trkpt lat="52.076641" lon="05.799359"><ele>0</ele><time>2021-01-12T14:19:41Z</time><name>PT4158</name></trkpt>
<trkpt lat="52.076632" lon="05.799345"><ele>0</ele><time>2021-01-12T14:19:42Z</time><name>PT4159</name></trkpt>
<trkpt lat="52.076625" lon="05.799334"><ele>0</ele><time>2021-01-12T14:19:43Z</time><name>PT4160</name></trkpt>
<trkpt lat="52.076618" lon="05.799324"><ele>0</ele><time>2021-01-12T14:19:44Z</time><name>PT4161</name></trkpt>
<trkpt lat="52.076611" lon="05.799315"><ele>0</ele><time>2021-01-12T14:19:45Z</time><name>PT4162</name></trkpt>
<trkpt lat="52.076606" lon="05.799303"><ele>0</ele><time>2021-01-12T14:19:46Z</time><name>PT4163</name></trkpt>
<trkpt lat="52.076600" lon="05.799288"><ele>0</ele><time>2021-01-12T14:19:47Z</time><name>PT4164</name></trkpt>
<trkpt lat="52.076591" lon="05.799270"><ele>0</ele><time>2021-01-12T14:19:48Z</time><name>PT4165</name></trkpt>
<trkpt lat="52.076582" lon="05.799250"><ele>0</ele><time>2021-01-12T14:19:49Z</time><name>PT4166</name></trkpt>
<trkpt lat="52.076573" lon="05.799231"><ele>0.1</ele><time>2021-01-12T14:19:50Z</time><name>PT4167</name></trkpt>
<trkpt lat="52.076564" lon="05.799214"><ele>0.2</ele><time>2021-01-12T14:19:51Z</time><name>PT4168</name></trkpt>
<trkpt lat="52.076556" lon="05.799200"><ele>0.3</ele><time>2021-01-12T14:19:52Z</time><name>PT4169</name></trkpt>
<trkpt lat="52.076551" lon="05.799188"><ele>0.3</ele><time>2021-01-12T14:19:53Z</time><name>PT4170</name></trkpt>
<trkpt lat="52.076546" lon="05.799175"><ele>0.3</ele><time>2021-01-12T14:19:54Z</time><name>PT4171</name></trkpt>
<trkpt lat="52.076541" lon="05.799159"><ele>0.2</ele><time>2021-01-12T14:19:55Z</time><name>PT4172</name></trkpt>
<trkpt lat="52.076537" lon="05.799145"><ele>0.1</ele><time>2021-01-12T14:19:56Z</time><name>PT4173</name></trkpt>
<trkpt lat="52.076535" lon="05.799128"><ele>0</ele><time>2021-01-12T14:19:57Z</time><name>PT4174</name></trkpt>
<trkpt lat="52.076531" lon="05.799107"><ele>0</ele><time>2021-01-12T14:19:58Z</time><name>PT4175</name></trkpt>
<trkpt lat="52.076527" lon="05.799082"><ele>0.1</ele><time>2021-01-12T14:19:59Z</time><name>PT4176</name></trkpt>
<trkpt lat="52.076519" lon="05.799052"><ele>0.1</ele><time>2021-01-12T14:20:00Z</time><name>PT4177</name></trkpt>
<trkpt lat="52.076514" lon="05.799027"><ele>0</ele><time>2021-01-12T14:20:01Z</time><name>PT4178</name></trkpt>
<trkpt lat="52.076509" lon="05.799002"><ele>0.1</ele><time>2021-01-12T14:20:02Z</time><name>PT4179</name></trkpt>
<trkpt lat="52.076505" lon="05.798983"><ele>0.1</ele><time>2021-01-12T14:20:03Z</time><name>PT4180</name></trkpt>
<trkpt lat="52.076503" lon="05.798964"><ele>0.1</ele><time>2021-01-12T14:20:04Z</time><name>PT4181</name></trkpt>
<trkpt lat="52.076501" lon="05.798947"><ele>0</ele><time>2021-01-12T14:20:05Z</time><name>PT4182</name></trkpt>
<trkpt lat="52.076502" lon="05.798934"><ele>0.2</ele><time>2021-01-12T14:20:06Z</time><name>PT4183</name></trkpt>
<trkpt lat="52.076503" lon="05.798921"><ele>0.3</ele><time>2021-01-12T14:20:06Z</time><name>PT4184</name></trkpt>
<trkpt lat="52.076504" lon="05.798900"><ele>0.7</ele><time>2021-01-12T14:20:08Z</time><name>PT4185</name></trkpt>
<trkpt lat="52.076505" lon="05.798875"><ele>0.8</ele><time>2021-01-12T14:20:09Z</time><name>PT4186</name></trkpt>
<trkpt lat="52.076504" lon="05.798847"><ele>0.8</ele><time>2021-01-12T14:20:10Z</time><name>PT4187</name></trkpt>
<trkpt lat="52.076503" lon="05.798824"><ele>0.7</ele><time>2021-01-12T14:20:11Z</time><name>PT4188</name></trkpt>
<trkpt lat="52.076502" lon="05.798804"><ele>0.5</ele><time>2021-01-12T14:20:12Z</time><name>PT4189</name></trkpt>
<trkpt lat="52.076501" lon="05.798789"><ele>0.4</ele><time>2021-01-12T14:20:13Z</time><name>PT4190</name></trkpt>
<trkpt lat="52.076499" lon="05.798774"><ele>0.3</ele><time>2021-01-12T14:20:14Z</time><name>PT4191</name></trkpt>
<trkpt lat="52.076496" lon="05.798757"><ele>0.3</ele><time>2021-01-12T14:20:15Z</time><name>PT4192</name></trkpt>
<trkpt lat="52.076497" lon="05.798739"><ele>0.3</ele><time>2021-01-12T14:20:16Z</time><name>PT4193</name></trkpt>
<trkpt lat="52.076498" lon="05.798722"><ele>0.4</ele><time>2021-01-12T14:20:17Z</time><name>PT4194</name></trkpt>
<trkpt lat="52.076499" lon="05.798702"><ele>0.3</ele><time>2021-01-12T14:20:18Z</time><name>PT4195</name></trkpt>
<trkpt lat="52.076499" lon="05.798681"><ele>0.3</ele><time>2021-01-12T14:20:19Z</time><name>PT4196</name></trkpt>
<trkpt lat="52.076500" lon="05.798661"><ele>0</ele><time>2021-01-12T14:20:20Z</time><name>PT4197</name></trkpt>
<trkpt lat="52.076496" lon="05.798634"><ele>0.1</ele><time>2021-01-12T14:20:21Z</time><name>PT4198</name></trkpt>
<trkpt lat="52.076495" lon="05.798611"><ele>0.3</ele><time>2021-01-12T14:20:22Z</time><name>PT4199</name></trkpt>
<trkpt lat="52.076495" lon="05.798591"><ele>0.5</ele><time>2021-01-12T14:20:23Z</time><name>PT4200</name></trkpt>
<trkpt lat="52.076496" lon="05.798572"><ele>0.5</ele><time>2021-01-12T14:20:24Z</time><name>PT4201</name></trkpt>
<trkpt lat="52.076493" lon="05.798556"><ele>0.5</ele><time>2021-01-12T14:20:25Z</time><name>PT4202</name></trkpt>
<trkpt lat="52.076491" lon="05.798541"><ele>0.5</ele><time>2021-01-12T14:20:26Z</time><name>PT4203</name></trkpt>
<trkpt lat="52.076490" lon="05.798527"><ele>0.4</ele><time>2021-01-12T14:20:27Z</time><name>PT4204</name></trkpt>
<trkpt lat="52.076489" lon="05.798515"><ele>0.4</ele><time>2021-01-12T14:20:28Z</time><name>PT4205</name></trkpt>
<trkpt lat="52.076489" lon="05.798502"><ele>0.5</ele><time>2021-01-12T14:20:29Z</time><name>PT4206</name></trkpt>
<trkpt lat="52.076489" lon="05.798487"><ele>0.4</ele><time>2021-01-12T14:20:30Z</time><name>PT4207</name></trkpt>
<trkpt lat="52.076490" lon="05.798471"><ele>0.3</ele><time>2021-01-12T14:20:31Z</time><name>PT4208</name></trkpt>
<trkpt lat="52.076491" lon="05.798450"><ele>0.2</ele><time>2021-01-12T14:20:32Z</time><name>PT4209</name></trkpt>
<trkpt lat="52.076489" lon="05.798425"><ele>0.1</ele><time>2021-01-12T14:20:33Z</time><name>PT4210</name></trkpt>
<trkpt lat="52.076488" lon="05.798402"><ele>0</ele><time>2021-01-12T14:20:34Z</time><name>PT4211</name></trkpt>
<trkpt lat="52.076488" lon="05.798382"><ele>0</ele><time>2021-01-12T14:20:35Z</time><name>PT4212</name></trkpt>
<trkpt lat="52.076487" lon="05.798368"><ele>0.1</ele><time>2021-01-12T14:20:36Z</time><name>PT4213</name></trkpt>
<trkpt lat="52.076485" lon="05.798356"><ele>0.1</ele><time>2021-01-12T14:20:37Z</time><name>PT4214</name></trkpt>
<trkpt lat="52.076483" lon="05.798343"><ele>0</ele><time>2021-01-12T14:20:38Z</time><name>PT4215</name></trkpt>
<trkpt lat="52.076482" lon="05.798329"><ele>0</ele><time>2021-01-12T14:20:39Z</time><name>PT4216</name></trkpt>
<trkpt lat="52.076483" lon="05.798317"><ele>0</ele><time>2021-01-12T14:20:40Z</time><name>PT4217</name></trkpt>
<trkpt lat="52.076482" lon="05.798300"><ele>0</ele><time>2021-01-12T14:20:41Z</time><name>PT4218</name></trkpt>
<trkpt lat="52.076481" lon="05.798278"><ele>0</ele><time>2021-01-12T14:20:42Z</time><name>PT4219</name></trkpt>
<trkpt lat="52.076480" lon="05.798253"><ele>0.1</ele><time>2021-01-12T14:20:43Z</time><name>PT4220</name></trkpt>
<trkpt lat="52.076476" lon="05.798226"><ele>0.3</ele><time>2021-01-12T14:20:44Z</time><name>PT4221</name></trkpt>
<trkpt lat="52.076473" lon="05.798209"><ele>0.3</ele><time>2021-01-12T14:20:45Z</time><name>PT4222</name></trkpt>
<trkpt lat="52.076469" lon="05.798196"><ele>0.3</ele><time>2021-01-12T14:20:46Z</time><name>PT4223</name></trkpt>
<trkpt lat="52.076466" lon="05.798180"><ele>0.3</ele><time>2021-01-12T14:20:47Z</time><name>PT4224</name></trkpt>
<trkpt lat="52.076462" lon="05.798169"><ele>0.2</ele><time>2021-01-12T14:20:48Z</time><name>PT4225</name></trkpt>
<trkpt lat="52.076461" lon="05.798153"><ele>0.1</ele><time>2021-01-12T14:20:49Z</time><name>PT4226</name></trkpt>
<trkpt lat="52.076461" lon="05.798135"><ele>0</ele><time>2021-01-12T14:20:50Z</time><name>PT4227</name></trkpt>
<trkpt lat="52.076458" lon="05.798116"><ele>0.1</ele><time>2021-01-12T14:20:51Z</time><name>PT4228</name></trkpt>
<trkpt lat="52.076453" lon="05.798087"><ele>0.1</ele><time>2021-01-12T14:20:52Z</time><name>PT4229</name></trkpt>
<trkpt lat="52.076449" lon="05.798058"><ele>0.2</ele><time>2021-01-12T14:20:53Z</time><name>PT4230</name></trkpt>
<trkpt lat="52.076444" lon="05.798034"><ele>0.4</ele><time>2021-01-12T14:20:54Z</time><name>PT4231</name></trkpt>
<trkpt lat="52.076440" lon="05.798012"><ele>0.6</ele><time>2021-01-12T14:20:55Z</time><name>PT4232</name></trkpt>
<trkpt lat="52.076436" lon="05.797994"><ele>0.6</ele><time>2021-01-12T14:20:56Z</time><name>PT4233</name></trkpt>
<trkpt lat="52.076433" lon="05.797978"><ele>0.5</ele><time>2021-01-12T14:20:57Z</time><name>PT4234</name></trkpt>
<trkpt lat="52.076429" lon="05.797966"><ele>0.4</ele><time>2021-01-12T14:20:58Z</time><name>PT4235</name></trkpt>
<trkpt lat="52.076425" lon="05.797952"><ele>0.2</ele><time>2021-01-12T14:20:59Z</time><name>PT4236</name></trkpt>
<trkpt lat="52.076422" lon="05.797940"><ele>0.1</ele><time>2021-01-12T14:21:00Z</time><name>PT4237</name></trkpt>
<trkpt lat="52.076421" lon="05.797925"><ele>0.1</ele><time>2021-01-12T14:21:01Z</time><name>PT4238</name></trkpt>
<trkpt lat="52.076419" lon="05.797908"><ele>0.2</ele><time>2021-01-12T14:21:02Z</time><name>PT4239</name></trkpt>
<trkpt lat="52.076416" lon="05.797892"><ele>0</ele><time>2021-01-12T14:21:03Z</time><name>PT4240</name></trkpt>
<trkpt lat="52.076412" lon="05.797869"><ele>0</ele><time>2021-01-12T14:21:04Z</time><name>PT4241</name></trkpt>
<trkpt lat="52.076408" lon="05.797844"><ele>0</ele><time>2021-01-12T14:21:05Z</time><name>PT4242</name></trkpt>
<trkpt lat="52.076402" lon="05.797823"><ele>0</ele><time>2021-01-12T14:21:06Z</time><name>PT4243</name></trkpt>
<trkpt lat="52.076398" lon="05.797808"><ele>0</ele><time>2021-01-12T14:21:07Z</time><name>PT4244</name></trkpt>
<trkpt lat="52.076395" lon="05.797794"><ele>0.2</ele><time>2021-01-12T14:21:08Z</time><name>PT4245</name></trkpt>
<trkpt lat="52.076391" lon="05.797778"><ele>0.1</ele><time>2021-01-12T14:21:09Z</time><name>PT4246</name></trkpt>
<trkpt lat="52.076389" lon="05.797765"><ele>0.2</ele><time>2021-01-12T14:21:10Z</time><name>PT4247</name></trkpt>
<trkpt lat="52.076387" lon="05.797748"><ele>0.1</ele><time>2021-01-12T14:21:11Z</time><name>PT4248</name></trkpt>
<trkpt lat="52.076382" lon="05.797721"><ele>0.1</ele><time>2021-01-12T14:21:12Z</time><name>PT4249</name></trkpt>
<trkpt lat="52.076379" lon="05.797704"><ele>0.1</ele><time>2021-01-12T14:21:13Z</time><name>PT4250</name></trkpt>
<trkpt lat="52.076377" lon="05.797692"><ele>0.3</ele><time>2021-01-12T14:21:14Z</time><name>PT4251</name></trkpt>
<trkpt lat="52.076375" lon="05.797678"><ele>0.3</ele><time>2021-01-12T14:21:15Z</time><name>PT4252</name></trkpt>
<trkpt lat="52.076372" lon="05.797661"><ele>0.5</ele><time>2021-01-12T14:21:16Z</time><name>PT4253</name></trkpt>
<trkpt lat="52.076369" lon="05.797640"><ele>0.7</ele><time>2021-01-12T14:21:17Z</time><name>PT4254</name></trkpt>
<trkpt lat="52.076366" lon="05.797622"><ele>0.8</ele><time>2021-01-12T14:21:18Z</time><name>PT4255</name></trkpt>
<trkpt lat="52.076363" lon="05.797608"><ele>0.8</ele><time>2021-01-12T14:21:19Z</time><name>PT4256</name></trkpt>
<trkpt lat="52.076359" lon="05.797594"><ele>0.7</ele><time>2021-01-12T14:21:20Z</time><name>PT4257</name></trkpt>
<trkpt lat="52.076358" lon="05.797577"><ele>0.3</ele><time>2021-01-12T14:21:21Z</time><name>PT4258</name></trkpt>
<trkpt lat="52.076359" lon="05.797565"><ele>0.5</ele><time>2021-01-12T14:21:22Z</time><name>PT4259</name></trkpt>
<trkpt lat="52.076358" lon="05.797556"><ele>0.4</ele><time>2021-01-12T14:21:23Z</time><name>PT4260</name></trkpt>
<trkpt lat="52.076359" lon="05.797551"><ele>0.3</ele><time>2021-01-12T14:21:24Z</time><name>PT4261</name></trkpt>
<trkpt lat="52.076359" lon="05.797542"><ele>0.4</ele><time>2021-01-12T14:21:25Z</time><name>PT4262</name></trkpt>
<trkpt lat="52.076361" lon="05.797534"><ele>0.8</ele><time>2021-01-12T14:21:26Z</time><name>PT4263</name></trkpt>
<trkpt lat="52.076363" lon="05.797534"><ele>0.3</ele><time>2021-01-12T14:21:27Z</time><name>PT4264</name></trkpt>
<trkpt lat="52.076363" lon="05.797532"><ele>0.2</ele><time>2021-01-12T14:21:27Z</time><name>PT4265</name></trkpt>
<trkpt lat="52.076363" lon="05.797531"><ele>0.3</ele><time>2021-01-12T14:21:29Z</time><name>PT4266</name></trkpt>
<trkpt lat="52.076361" lon="05.797532"><ele>0.1</ele><time>2021-01-12T14:21:30Z</time><name>PT4267</name></trkpt>
<trkpt lat="52.076359" lon="05.797534"><ele>0.2</ele><time>2021-01-12T14:21:31Z</time><name>PT4268</name></trkpt>
<trkpt lat="52.076360" lon="05.797534"><ele>0.4</ele><time>2021-01-12T14:21:32Z</time><name>PT4269</name></trkpt>
<trkpt lat="52.076360" lon="05.797533"><ele>0.4</ele><time>2021-01-12T14:21:33Z</time><name>PT4270</name></trkpt>
<trkpt lat="52.076360" lon="05.797535"><ele>0.3</ele><time>2021-01-12T14:21:34Z</time><name>PT4271</name></trkpt>
<trkpt lat="52.076362" lon="05.797540"><ele>0.4</ele><time>2021-01-12T14:21:35Z</time><name>PT4272</name></trkpt>
<trkpt lat="52.076366" lon="05.797550"><ele>0.4</ele><time>2021-01-12T14:21:36Z</time><name>PT4273</name></trkpt>
<trkpt lat="52.076369" lon="05.797563"><ele>0.4</ele><time>2021-01-12T14:21:37Z</time><name>PT4274</name></trkpt>
<trkpt lat="52.076372" lon="05.797574"><ele>0.5</ele><time>2021-01-12T14:21:38Z</time><name>PT4275</name></trkpt>
<trkpt lat="52.076376" lon="05.797583"><ele>0.5</ele><time>2021-01-12T14:21:39Z</time><name>PT4276</name></trkpt>
<trkpt lat="52.076380" lon="05.797594"><ele>0.6</ele><time>2021-01-12T14:21:40Z</time><name>PT4277</name></trkpt>
<trkpt lat="52.076379" lon="05.797599"><ele>0.5</ele><time>2021-01-12T14:21:41Z</time><name>PT4278</name></trkpt>
<trkpt lat="52.076377" lon="05.797599"><ele>0.5</ele><time>2021-01-12T14:21:42Z</time><name>PT4279</name></trkpt>
<trkpt lat="52.076375" lon="05.797601"><ele>0.5</ele><time>2021-01-12T14:21:43Z</time><name>PT4280</name></trkpt>
<trkpt lat="52.076375" lon="05.797602"><ele>0.5</ele><time>2021-01-12T14:21:44Z</time><name>PT4281</name></trkpt>
<trkpt lat="52.076375" lon="05.797602"><ele>0.4</ele><time>2021-01-12T14:21:45Z</time><name>PT4282</name></trkpt>
<trkpt lat="52.076376" lon="05.797601"><ele>0.4</ele><time>2021-01-12T14:21:46Z</time><name>PT4283</name></trkpt>
<trkpt lat="52.076376" lon="05.797600"><ele>0.4</ele><time>2021-01-12T14:21:47Z</time><name>PT4284</name></trkpt>
<trkpt lat="52.076375" lon="05.797600"><ele>0.3</ele><time>2021-01-12T14:21:48Z</time><name>PT4285</name></trkpt>
<trkpt lat="52.076375" lon="05.797601"><ele>0.3</ele><time>2021-01-12T14:21:49Z</time><name>PT4286</name></trkpt>
<trkpt lat="52.076376" lon="05.797601"><ele>0.2</ele><time>2021-01-12T14:21:50Z</time><name>PT4287</name></trkpt>
<trkpt lat="52.076376" lon="05.797601"><ele>0.1</ele><time>2021-01-12T14:21:51Z</time><name>PT4288</name></trkpt>
<trkpt lat="52.076379" lon="05.797607"><ele>0.3</ele><time>2021-01-12T14:22:05Z</time><name>PT4289</name></trkpt>
<trkpt lat="52.076381" lon="05.797601"><ele>0.3</ele><time>2021-01-12T14:22:06Z</time><name>PT4290</name></trkpt>
<trkpt lat="52.076381" lon="05.797602"><ele>0.4</ele><time>2021-01-12T14:22:07Z</time><name>PT4291</name></trkpt>
<trkpt lat="52.076381" lon="05.797595"><ele>0.2</ele><time>2021-01-12T14:22:08Z</time><name>PT4292</name></trkpt>
<trkpt lat="52.076385" lon="05.797587"><ele>0.3</ele><time>2021-01-12T14:22:09Z</time><name>PT4293</name></trkpt>
<trkpt lat="52.076387" lon="05.797582"><ele>0.3</ele><time>2021-01-12T14:22:10Z</time><name>PT4294</name></trkpt>
<trkpt lat="52.076387" lon="05.797585"><ele>0.2</ele><time>2021-01-12T14:22:11Z</time><name>PT4295</name></trkpt>
<trkpt lat="52.076388" lon="05.797583"><ele>0.1</ele><time>2021-01-12T14:22:12Z</time><name>PT4296</name></trkpt>
<trkpt lat="52.076391" lon="05.797572"><ele>0</ele><time>2021-01-12T14:23:14Z</time><name>PT4297</name></trkpt>
<trkpt lat="52.076384" lon="05.797562"><ele>0.2</ele><time>2021-01-12T14:23:15Z</time><name>PT4298</name></trkpt>
<trkpt lat="52.076381" lon="05.797553"><ele>0</ele><time>2021-01-12T14:23:16Z</time><name>PT4299</name></trkpt>
<trkpt lat="52.076375" lon="05.797543"><ele>0.1</ele><time>2021-01-12T14:23:17Z</time><name>PT4300</name></trkpt>
<trkpt lat="52.076374" lon="05.797537"><ele>0</ele><time>2021-01-12T14:23:18Z</time><name>PT4301</name></trkpt>
<trkpt lat="52.076373" lon="05.797529"><ele>0</ele><time>2021-01-12T14:23:19Z</time><name>PT4302</name></trkpt>
<trkpt lat="52.076369" lon="05.797517"><ele>0</ele><time>2021-01-12T14:23:20Z</time><name>PT4303</name></trkpt>
<trkpt lat="52.076365" lon="05.797504"><ele>0.1</ele><time>2021-01-12T14:23:21Z</time><name>PT4304</name></trkpt>
<trkpt lat="52.076361" lon="05.797489"><ele>0.1</ele><time>2021-01-12T14:23:22Z</time><name>PT4305</name></trkpt>
<trkpt lat="52.076360" lon="05.797478"><ele>0</ele><time>2021-01-12T14:23:23Z</time><name>PT4306</name></trkpt>
<trkpt lat="52.076358" lon="05.797466"><ele>0.1</ele><time>2021-01-12T14:23:24Z</time><name>PT4307</name></trkpt>
<trkpt lat="52.076351" lon="05.797454"><ele>0.1</ele><time>2021-01-12T14:23:25Z</time><name>PT4308</name></trkpt>
<trkpt lat="52.076344" lon="05.797444"><ele>0</ele><time>2021-01-12T14:23:26Z</time><name>PT4309</name></trkpt>
<trkpt lat="52.076340" lon="05.797437"><ele>0.1</ele><time>2021-01-12T14:23:27Z</time><name>PT4310</name></trkpt>
<trkpt lat="52.076339" lon="05.797436"><ele>0.1</ele><time>2021-01-12T14:23:28Z</time><name>PT4311</name></trkpt>
<trkpt lat="52.076338" lon="05.797436"><ele>0.2</ele><time>2021-01-12T14:23:29Z</time><name>PT4312</name></trkpt>
<trkpt lat="52.076334" lon="05.797432"><ele>0.3</ele><time>2021-01-12T14:23:30Z</time><name>PT4313</name></trkpt>
<trkpt lat="52.076330" lon="05.797423"><ele>0.3</ele><time>2021-01-12T14:23:31Z</time><name>PT4314</name></trkpt>
<trkpt lat="52.076328" lon="05.797417"><ele>0.3</ele><time>2021-01-12T14:23:32Z</time><name>PT4315</name></trkpt>
<trkpt lat="52.076326" lon="05.797415"><ele>0.5</ele><time>2021-01-12T14:23:33Z</time><name>PT4316</name></trkpt>
<trkpt lat="52.076326" lon="05.797408"><ele>0.6</ele><time>2021-01-12T14:23:34Z</time><name>PT4317</name></trkpt>
<trkpt lat="52.076323" lon="05.797402"><ele>0.6</ele><time>2021-01-12T14:23:35Z</time><name>PT4318</name></trkpt>
<trkpt lat="52.076322" lon="05.797390"><ele>0.6</ele><time>2021-01-12T14:23:36Z</time><name>PT4319</name></trkpt>
<trkpt lat="52.076320" lon="05.797378"><ele>0.6</ele><time>2021-01-12T14:23:37Z</time><name>PT4320</name></trkpt>
<trkpt lat="52.076318" lon="05.797364"><ele>0.5</ele><time>2021-01-12T14:23:38Z</time><name>PT4321</name></trkpt>
<trkpt lat="52.076315" lon="05.797349"><ele>0.4</ele><time>2021-01-12T14:23:39Z</time><name>PT4322</name></trkpt>
<trkpt lat="52.076312" lon="05.797335"><ele>0.3</ele><time>2021-01-12T14:23:40Z</time><name>PT4323</name></trkpt>
<trkpt lat="52.076308" lon="05.797320"><ele>0.2</ele><time>2021-01-12T14:23:41Z</time><name>PT4324</name></trkpt>
<trkpt lat="52.076307" lon="05.797308"><ele>0.2</ele><time>2021-01-12T14:23:42Z</time><name>PT4325</name></trkpt>
<trkpt lat="52.076305" lon="05.797295"><ele>0.1</ele><time>2021-01-12T14:23:43Z</time><name>PT4326</name></trkpt>
<trkpt lat="52.076302" lon="05.797279"><ele>0.1</ele><time>2021-01-12T14:23:44Z</time><name>PT4327</name></trkpt>
<trkpt lat="52.076297" lon="05.797265"><ele>0.1</ele><time>2021-01-12T14:23:45Z</time><name>PT4328</name></trkpt>
<trkpt lat="52.076292" lon="05.797250"><ele>0.1</ele><time>2021-01-12T14:23:46Z</time><name>PT4329</name></trkpt>
<trkpt lat="52.076286" lon="05.797237"><ele>0.1</ele><time>2021-01-12T14:23:47Z</time><name>PT4330</name></trkpt>
<trkpt lat="52.076281" lon="05.797226"><ele>0</ele><time>2021-01-12T14:23:48Z</time><name>PT4331</name></trkpt>
<trkpt lat="52.076276" lon="05.797211"><ele>0</ele><time>2021-01-12T14:23:49Z</time><name>PT4332</name></trkpt>
<trkpt lat="52.076274" lon="05.797194"><ele>0.1</ele><time>2021-01-12T14:23:50Z</time><name>PT4333</name></trkpt>
<trkpt lat="52.076272" lon="05.797176"><ele>0.1</ele><time>2021-01-12T14:23:51Z</time><name>PT4334</name></trkpt>
<trkpt lat="52.076272" lon="05.797157"><ele>0.1</ele><time>2021-01-12T14:23:52Z</time><name>PT4335</name></trkpt>
<trkpt lat="52.076269" lon="05.797141"><ele>0</ele><time>2021-01-12T14:23:53Z</time><name>PT4336</name></trkpt>
<trkpt lat="52.076263" lon="05.797125"><ele>0.1</ele><time>2021-01-12T14:23:54Z</time><name>PT4337</name></trkpt>
<trkpt lat="52.076257" lon="05.797109"><ele>0.1</ele><time>2021-01-12T14:23:55Z</time><name>PT4338</name></trkpt>
<trkpt lat="52.076252" lon="05.797093"><ele>0.1</ele><time>2021-01-12T14:23:56Z</time><name>PT4339</name></trkpt>
<trkpt lat="52.076248" lon="05.797078"><ele>0.4</ele><time>2021-01-12T14:23:57Z</time><name>PT4340</name></trkpt>
<trkpt lat="52.076244" lon="05.797062"><ele>0.3</ele><time>2021-01-12T14:23:58Z</time><name>PT4341</name></trkpt>
<trkpt lat="52.076238" lon="05.797045"><ele>0.1</ele><time>2021-01-12T14:23:59Z</time><name>PT4342</name></trkpt>
<trkpt lat="52.076231" lon="05.797027"><ele>0.1</ele><time>2021-01-12T14:24:00Z</time><name>PT4343</name></trkpt>
<trkpt lat="52.076222" lon="05.797013"><ele>0.1</ele><time>2021-01-12T14:24:01Z</time><name>PT4344</name></trkpt>
<trkpt lat="52.076213" lon="05.797000"><ele>0.1</ele><time>2021-01-12T14:24:02Z</time><name>PT4345</name></trkpt>
<trkpt lat="52.076205" lon="05.796989"><ele>0.1</ele><time>2021-01-12T14:24:03Z</time><name>PT4346</name></trkpt>
<trkpt lat="52.076199" lon="05.796977"><ele>0.1</ele><time>2021-01-12T14:24:04Z</time><name>PT4347</name></trkpt>
<trkpt lat="52.076194" lon="05.796963"><ele>0.1</ele><time>2021-01-12T14:24:05Z</time><name>PT4348</name></trkpt>
<trkpt lat="52.076189" lon="05.796948"><ele>0</ele><time>2021-01-12T14:24:06Z</time><name>PT4349</name></trkpt>
<trkpt lat="52.076180" lon="05.796932"><ele>0.1</ele><time>2021-01-12T14:24:07Z</time><name>PT4350</name></trkpt>
<trkpt lat="52.076173" lon="05.796919"><ele>0.1</ele><time>2021-01-12T14:24:08Z</time><name>PT4351</name></trkpt>
<trkpt lat="52.076166" lon="05.796906"><ele>0.2</ele><time>2021-01-12T14:24:09Z</time><name>PT4352</name></trkpt>
<trkpt lat="52.076158" lon="05.796892"><ele>0.2</ele><time>2021-01-12T14:24:10Z</time><name>PT4353</name></trkpt>
<trkpt lat="52.076152" lon="05.796878"><ele>0.3</ele><time>2021-01-12T14:24:11Z</time><name>PT4354</name></trkpt>
<trkpt lat="52.076147" lon="05.796865"><ele>0.3</ele><time>2021-01-12T14:24:12Z</time><name>PT4355</name></trkpt>
<trkpt lat="52.076140" lon="05.796850"><ele>0.3</ele><time>2021-01-12T14:24:13Z</time><name>PT4356</name></trkpt>
<trkpt lat="52.076133" lon="05.796837"><ele>0.4</ele><time>2021-01-12T14:24:14Z</time><name>PT4357</name></trkpt>
<trkpt lat="52.076125" lon="05.796819"><ele>0.4</ele><time>2021-01-12T14:24:15Z</time><name>PT4358</name></trkpt>
<trkpt lat="52.076115" lon="05.796803"><ele>0.4</ele><time>2021-01-12T14:24:16Z</time><name>PT4359</name></trkpt>
<trkpt lat="52.076108" lon="05.796787"><ele>0.3</ele><time>2021-01-12T14:24:17Z</time><name>PT4360</name></trkpt>
<trkpt lat="52.076100" lon="05.796774"><ele>0.4</ele><time>2021-01-12T14:24:18Z</time><name>PT4361</name></trkpt>
<trkpt lat="52.076093" lon="05.796757"><ele>0.2</ele><time>2021-01-12T14:24:19Z</time><name>PT4362</name></trkpt>
<trkpt lat="52.076087" lon="05.796741"><ele>0.1</ele><time>2021-01-12T14:24:20Z</time><name>PT4363</name></trkpt>
<trkpt lat="52.076082" lon="05.796726"><ele>0.1</ele><time>2021-01-12T14:24:21Z</time><name>PT4364</name></trkpt>
<trkpt lat="52.076076" lon="05.796714"><ele>0.1</ele><time>2021-01-12T14:24:22Z</time><name>PT4365</name></trkpt>
<trkpt lat="52.076069" lon="05.796699"><ele>0.1</ele><time>2021-01-12T14:24:23Z</time><name>PT4366</name></trkpt>
<trkpt lat="52.076061" lon="05.796686"><ele>0.2</ele><time>2021-01-12T14:24:24Z</time><name>PT4367</name></trkpt>
<trkpt lat="52.076056" lon="05.796672"><ele>0.3</ele><time>2021-01-12T14:24:25Z</time><name>PT4368</name></trkpt>
<trkpt lat="52.076051" lon="05.796658"><ele>0.5</ele><time>2021-01-12T14:24:26Z</time><name>PT4369</name></trkpt>
<trkpt lat="52.076044" lon="05.796645"><ele>0.6</ele><time>2021-01-12T14:24:27Z</time><name>PT4370</name></trkpt>
<trkpt lat="52.076038" lon="05.796632"><ele>0.7</ele><time>2021-01-12T14:24:28Z</time><name>PT4371</name></trkpt>
<trkpt lat="52.076032" lon="05.796617"><ele>0.8</ele><time>2021-01-12T14:24:29Z</time><name>PT4372</name></trkpt>
<trkpt lat="52.076025" lon="05.796603"><ele>0.8</ele><time>2021-01-12T14:24:30Z</time><name>PT4373</name></trkpt>
<trkpt lat="52.076019" lon="05.796588"><ele>0.6</ele><time>2021-01-12T14:24:31Z</time><name>PT4374</name></trkpt>
<trkpt lat="52.076015" lon="05.796573"><ele>0.6</ele><time>2021-01-12T14:24:32Z</time><name>PT4375</name></trkpt>
<trkpt lat="52.076012" lon="05.796556"><ele>0.6</ele><time>2021-01-12T14:24:33Z</time><name>PT4376</name></trkpt>
<trkpt lat="52.076008" lon="05.796539"><ele>0.4</ele><time>2021-01-12T14:24:34Z</time><name>PT4377</name></trkpt>
<trkpt lat="52.076003" lon="05.796522"><ele>0.6</ele><time>2021-01-12T14:24:35Z</time><name>PT4378</name></trkpt>
<trkpt lat="52.075997" lon="05.796507"><ele>0.6</ele><time>2021-01-12T14:24:36Z</time><name>PT4379</name></trkpt>
<trkpt lat="52.075989" lon="05.796493"><ele>0.7</ele><time>2021-01-12T14:24:37Z</time><name>PT4380</name></trkpt>
<trkpt lat="52.075984" lon="05.796478"><ele>0.6</ele><time>2021-01-12T14:24:38Z</time><name>PT4381</name></trkpt>
<trkpt lat="52.075980" lon="05.796464"><ele>0.6</ele><time>2021-01-12T14:24:39Z</time><name>PT4382</name></trkpt>
<trkpt lat="52.075977" lon="05.796451"><ele>0.5</ele><time>2021-01-12T14:24:40Z</time><name>PT4383</name></trkpt>
<trkpt lat="52.075974" lon="05.796435"><ele>0.3</ele><time>2021-01-12T14:24:41Z</time><name>PT4384</name></trkpt>
<trkpt lat="52.075975" lon="05.796417"><ele>0.3</ele><time>2021-01-12T14:24:42Z</time><name>PT4385</name></trkpt>
<trkpt lat="52.075971" lon="05.796403"><ele>0.5</ele><time>2021-01-12T14:24:43Z</time><name>PT4386</name></trkpt>
<trkpt lat="52.075967" lon="05.796391"><ele>0.5</ele><time>2021-01-12T14:24:44Z</time><name>PT4387</name></trkpt>
<trkpt lat="52.075960" lon="05.796374"><ele>0.5</ele><time>2021-01-12T14:24:45Z</time><name>PT4388</name></trkpt>
<trkpt lat="52.075955" lon="05.796361"><ele>0.6</ele><time>2021-01-12T14:24:46Z</time><name>PT4389</name></trkpt>
<trkpt lat="52.075953" lon="05.796345"><ele>0.5</ele><time>2021-01-12T14:24:47Z</time><name>PT4390</name></trkpt>
<trkpt lat="52.075951" lon="05.796328"><ele>0.4</ele><time>2021-01-12T14:24:48Z</time><name>PT4391</name></trkpt>
<trkpt lat="52.075948" lon="05.796310"><ele>0.5</ele><time>2021-01-12T14:24:49Z</time><name>PT4392</name></trkpt>
<trkpt lat="52.075945" lon="05.796290"><ele>0.4</ele><time>2021-01-12T14:24:50Z</time><name>PT4393</name></trkpt>
<trkpt lat="52.075942" lon="05.796271"><ele>0.2</ele><time>2021-01-12T14:24:51Z</time><name>PT4394</name></trkpt>
<trkpt lat="52.075937" lon="05.796256"><ele>0.4</ele><time>2021-01-12T14:24:52Z</time><name>PT4395</name></trkpt>
<trkpt lat="52.075931" lon="05.796235"><ele>0.3</ele><time>2021-01-12T14:24:53Z</time><name>PT4396</name></trkpt>
<trkpt lat="52.075928" lon="05.796215"><ele>0.2</ele><time>2021-01-12T14:24:54Z</time><name>PT4397</name></trkpt>
<trkpt lat="52.075924" lon="05.796199"><ele>0.3</ele><time>2021-01-12T14:24:55Z</time><name>PT4398</name></trkpt>
<trkpt lat="52.075920" lon="05.796183"><ele>0.5</ele><time>2021-01-12T14:24:56Z</time><name>PT4399</name></trkpt>
<trkpt lat="52.075917" lon="05.796168"><ele>0.6</ele><time>2021-01-12T14:24:57Z</time><name>PT4400</name></trkpt>
<trkpt lat="52.075911" lon="05.796152"><ele>0.5</ele><time>2021-01-12T14:24:58Z</time><name>PT4401</name></trkpt>
<trkpt lat="52.075905" lon="05.796136"><ele>0.3</ele><time>2021-01-12T14:24:59Z</time><name>PT4402</name></trkpt>
<trkpt lat="52.075900" lon="05.796119"><ele>0.4</ele><time>2021-01-12T14:25:00Z</time><name>PT4403</name></trkpt>
<trkpt lat="52.075893" lon="05.796104"><ele>0.4</ele><time>2021-01-12T14:25:01Z</time><name>PT4404</name></trkpt>
<trkpt lat="52.075885" lon="05.796088"><ele>0.4</ele><time>2021-01-12T14:25:02Z</time><name>PT4405</name></trkpt>
<trkpt lat="52.075877" lon="05.796072"><ele>0.6</ele><time>2021-01-12T14:25:03Z</time><name>PT4406</name></trkpt>
<trkpt lat="52.075870" lon="05.796060"><ele>0.6</ele><time>2021-01-12T14:25:04Z</time><name>PT4407</name></trkpt>
<trkpt lat="52.075862" lon="05.796047"><ele>0.6</ele><time>2021-01-12T14:25:05Z</time><name>PT4408</name></trkpt>
<trkpt lat="52.075854" lon="05.796032"><ele>0.6</ele><time>2021-01-12T14:25:06Z</time><name>PT4409</name></trkpt>
<trkpt lat="52.075848" lon="05.796016"><ele>0.6</ele><time>2021-01-12T14:25:07Z</time><name>PT4410</name></trkpt>
<trkpt lat="52.075840" lon="05.796002"><ele>0.6</ele><time>2021-01-12T14:25:08Z</time><name>PT4411</name></trkpt>
<trkpt lat="52.075830" lon="05.795987"><ele>0.6</ele><time>2021-01-12T14:25:09Z</time><name>PT4412</name></trkpt>
<trkpt lat="52.075822" lon="05.795975"><ele>0.5</ele><time>2021-01-12T14:25:10Z</time><name>PT4413</name></trkpt>
<trkpt lat="52.075814" lon="05.795961"><ele>0.5</ele><time>2021-01-12T14:25:11Z</time><name>PT4414</name></trkpt>
<trkpt lat="52.075804" lon="05.795947"><ele>0.5</ele><time>2021-01-12T14:25:12Z</time><name>PT4415</name></trkpt>
<trkpt lat="52.075795" lon="05.795933"><ele>0.5</ele><time>2021-01-12T14:25:13Z</time><name>PT4416</name></trkpt>
<trkpt lat="52.075789" lon="05.795920"><ele>0.6</ele><time>2021-01-12T14:25:14Z</time><name>PT4417</name></trkpt>
<trkpt lat="52.075781" lon="05.795910"><ele>0.6</ele><time>2021-01-12T14:25:15Z</time><name>PT4418</name></trkpt>
<trkpt lat="52.075774" lon="05.795896"><ele>0.8</ele><time>2021-01-12T14:25:16Z</time><name>PT4419</name></trkpt>
<trkpt lat="52.075767" lon="05.795882"><ele>0.7</ele><time>2021-01-12T14:25:17Z</time><name>PT4420</name></trkpt>
<trkpt lat="52.075759" lon="05.795866"><ele>0.7</ele><time>2021-01-12T14:25:18Z</time><name>PT4421</name></trkpt>
<trkpt lat="52.075751" lon="05.795849"><ele>0.8</ele><time>2021-01-12T14:25:19Z</time><name>PT4422</name></trkpt>
<trkpt lat="52.075745" lon="05.795831"><ele>0.5</ele><time>2021-01-12T14:25:20Z</time><name>PT4423</name></trkpt>
<trkpt lat="52.075738" lon="05.795816"><ele>0.5</ele><time>2021-01-12T14:25:21Z</time><name>PT4424</name></trkpt>
<trkpt lat="52.075729" lon="05.795801"><ele>0.5</ele><time>2021-01-12T14:25:21Z</time><name>PT4425</name></trkpt>
<trkpt lat="52.075721" lon="05.795785"><ele>0.4</ele><time>2021-01-12T14:25:23Z</time><name>PT4426</name></trkpt>
<trkpt lat="52.075715" lon="05.795769"><ele>0.5</ele><time>2021-01-12T14:25:24Z</time><name>PT4427</name></trkpt>
<trkpt lat="52.075710" lon="05.795753"><ele>0.5</ele><time>2021-01-12T14:25:25Z</time><name>PT4428</name></trkpt>
<trkpt lat="52.075704" lon="05.795739"><ele>0.6</ele><time>2021-01-12T14:25:26Z</time><name>PT4429</name></trkpt>
<trkpt lat="52.075699" lon="05.795726"><ele>0.6</ele><time>2021-01-12T14:25:27Z</time><name>PT4430</name></trkpt>
<trkpt lat="52.075695" lon="05.795712"><ele>0.6</ele><time>2021-01-12T14:25:28Z</time><name>PT4431</name></trkpt>
<trkpt lat="52.075688" lon="05.795699"><ele>0.5</ele><time>2021-01-12T14:25:29Z</time><name>PT4432</name></trkpt>
<trkpt lat="52.075683" lon="05.795683"><ele>0.5</ele><time>2021-01-12T14:25:30Z</time><name>PT4433</name></trkpt>
<trkpt lat="52.075677" lon="05.795668"><ele>0.6</ele><time>2021-01-12T14:25:31Z</time><name>PT4434</name></trkpt>
<trkpt lat="52.075673" lon="05.795653"><ele>0.6</ele><time>2021-01-12T14:25:32Z</time><name>PT4435</name></trkpt>
<trkpt lat="52.075668" lon="05.795639"><ele>0.7</ele><time>2021-01-12T14:25:33Z</time><name>PT4436</name></trkpt>
<trkpt lat="52.075661" lon="05.795624"><ele>0.7</ele><time>2021-01-12T14:25:34Z</time><name>PT4437</name></trkpt>
<trkpt lat="52.075657" lon="05.795609"><ele>0.7</ele><time>2021-01-12T14:25:35Z</time><name>PT4438</name></trkpt>
<trkpt lat="52.075650" lon="05.795595"><ele>0.8</ele><time>2021-01-12T14:25:36Z</time><name>PT4439</name></trkpt>
<trkpt lat="52.075644" lon="05.795582"><ele>0.9</ele><time>2021-01-12T14:25:36Z</time><name>PT4440</name></trkpt>
<trkpt lat="52.075640" lon="05.795569"><ele>0.9</ele><time>2021-01-12T14:25:38Z</time><name>PT4441</name></trkpt>
<trkpt lat="52.075633" lon="05.795553"><ele>0.7</ele><time>2021-01-12T14:25:39Z</time><name>PT4442</name></trkpt>
<trkpt lat="52.075625" lon="05.795538"><ele>0.8</ele><time>2021-01-12T14:25:40Z</time><name>PT4443</name></trkpt>
<trkpt lat="52.075618" lon="05.795526"><ele>0.7</ele><time>2021-01-12T14:25:41Z</time><name>PT4444</name></trkpt>
<trkpt lat="52.075610" lon="05.795511"><ele>0.7</ele><time>2021-01-12T14:25:42Z</time><name>PT4445</name></trkpt>
<trkpt lat="52.075602" lon="05.795499"><ele>0.7</ele><time>2021-01-12T14:25:43Z</time><name>PT4446</name></trkpt>
<trkpt lat="52.075592" lon="05.795488"><ele>0.9</ele><time>2021-01-12T14:25:44Z</time><name>PT4447</name></trkpt>
<trkpt lat="52.075583" lon="05.795477"><ele>0.8</ele><time>2021-01-12T14:25:45Z</time><name>PT4448</name></trkpt>
<trkpt lat="52.075574" lon="05.795465"><ele>0.8</ele><time>2021-01-12T14:25:45Z</time><name>PT4449</name></trkpt>
<trkpt lat="52.075567" lon="05.795451"><ele>0.9</ele><time>2021-01-12T14:25:47Z</time><name>PT4450</name></trkpt>
<trkpt lat="52.075560" lon="05.795436"><ele>-1</ele><time>2021-01-12T14:25:48Z</time><name>PT4451</name></trkpt>
<trkpt lat="52.075552" lon="05.795422"><ele>0.9</ele><time>2021-01-12T14:25:48Z</time><name>PT4452</name></trkpt>
<trkpt lat="52.075542" lon="05.795410"><ele>0.9</ele><time>2021-01-12T14:25:50Z</time><name>PT4453</name></trkpt>
<trkpt lat="52.075534" lon="05.795397"><ele>0.9</ele><time>2021-01-12T14:25:51Z</time><name>PT4454</name></trkpt>
<trkpt lat="52.075526" lon="05.795385"><ele>-1</ele><time>2021-01-12T14:25:52Z</time><name>PT4455</name></trkpt>
<trkpt lat="52.075517" lon="05.795374"><ele>-1</ele><time>2021-01-12T14:25:53Z</time><name>PT4456</name></trkpt>
<trkpt lat="52.075509" lon="05.795364"><ele>-1</ele><time>2021-01-12T14:25:54Z</time><name>PT4457</name></trkpt>
<trkpt lat="52.075500" lon="05.795352"><ele>-1</ele><time>2021-01-12T14:25:55Z</time><name>PT4458</name></trkpt>
<trkpt lat="52.075492" lon="05.795336"><ele>0.9</ele><time>2021-01-12T14:25:56Z</time><name>PT4459</name></trkpt>
<trkpt lat="52.075484" lon="05.795320"><ele>0.6</ele><time>2021-01-12T14:25:57Z</time><name>PT4460</name></trkpt>
<trkpt lat="52.075477" lon="05.795307"><ele>0.6</ele><time>2021-01-12T14:25:58Z</time><name>PT4461</name></trkpt>
<trkpt lat="52.075469" lon="05.795293"><ele>0.6</ele><time>2021-01-12T14:25:59Z</time><name>PT4462</name></trkpt>
<trkpt lat="52.075458" lon="05.795281"><ele>0.6</ele><time>2021-01-12T14:26:00Z</time><name>PT4463</name></trkpt>
<trkpt lat="52.075449" lon="05.795270"><ele>0.6</ele><time>2021-01-12T14:26:01Z</time><name>PT4464</name></trkpt>
<trkpt lat="52.075442" lon="05.795259"><ele>0.9</ele><time>2021-01-12T14:26:02Z</time><name>PT4465</name></trkpt>
<trkpt lat="52.075433" lon="05.795248"><ele>0.9</ele><time>2021-01-12T14:26:03Z</time><name>PT4466</name></trkpt>
<trkpt lat="52.075422" lon="05.795234"><ele>0.9</ele><time>2021-01-12T14:26:03Z</time><name>PT4467</name></trkpt>
<trkpt lat="52.075416" lon="05.795220"><ele>0.6</ele><time>2021-01-12T14:26:05Z</time><name>PT4468</name></trkpt>
<trkpt lat="52.075409" lon="05.795206"><ele>0.7</ele><time>2021-01-12T14:26:06Z</time><name>PT4469</name></trkpt>
<trkpt lat="52.075401" lon="05.795194"><ele>0.7</ele><time>2021-01-12T14:26:07Z</time><name>PT4470</name></trkpt>
<trkpt lat="52.075392" lon="05.795183"><ele>0.8</ele><time>2021-01-12T14:26:08Z</time><name>PT4471</name></trkpt>
<trkpt lat="52.075381" lon="05.795172"><ele>-1</ele><time>2021-01-12T14:26:09Z</time><name>PT4472</name></trkpt>
<trkpt lat="52.075373" lon="05.795160"><ele>-1.1</ele><time>2021-01-12T14:26:10Z</time><name>PT4473</name></trkpt>
<trkpt lat="52.075363" lon="05.795150"><ele>0.9</ele><time>2021-01-12T14:26:11Z</time><name>PT4474</name></trkpt>
<trkpt lat="52.075354" lon="05.795139"><ele>0.9</ele><time>2021-01-12T14:26:12Z</time><name>PT4475</name></trkpt>
<trkpt lat="52.075346" lon="05.795124"><ele>-1</ele><time>2021-01-12T14:26:13Z</time><name>PT4476</name></trkpt>
<trkpt lat="52.075339" lon="05.795121"><ele>0.9</ele><time>2021-01-12T14:26:14Z</time><name>PT4477</name></trkpt>
<trkpt lat="52.075338" lon="05.795118"><ele>0.7</ele><time>2021-01-12T14:26:15Z</time><name>PT4478</name></trkpt>
<trkpt lat="52.075332" lon="05.795120"><ele>0.8</ele><time>2021-01-12T14:26:16Z</time><name>PT4479</name></trkpt>
<trkpt lat="52.075329" lon="05.795118"><ele>0.8</ele><time>2021-01-12T14:26:17Z</time><name>PT4480</name></trkpt>
<trkpt lat="52.075323" lon="05.795114"><ele>0.7</ele><time>2021-01-12T14:26:18Z</time><name>PT4481</name></trkpt>
<trkpt lat="52.075314" lon="05.795108"><ele>0.7</ele><time>2021-01-12T14:26:19Z</time><name>PT4482</name></trkpt>
<trkpt lat="52.075308" lon="05.795097"><ele>0.7</ele><time>2021-01-12T14:26:20Z</time><name>PT4483</name></trkpt>
<trkpt lat="52.075297" lon="05.795086"><ele>0.6</ele><time>2021-01-12T14:26:21Z</time><name>PT4484</name></trkpt>
<trkpt lat="52.075284" lon="05.795074"><ele>0.6</ele><time>2021-01-12T14:26:22Z</time><name>PT4485</name></trkpt>
<trkpt lat="52.075274" lon="05.795064"><ele>0.6</ele><time>2021-01-12T14:26:23Z</time><name>PT4486</name></trkpt>
<trkpt lat="52.075262" lon="05.795056"><ele>0.6</ele><time>2021-01-12T14:26:24Z</time><name>PT4487</name></trkpt>
<trkpt lat="52.075250" lon="05.795049"><ele>0.7</ele><time>2021-01-12T14:26:25Z</time><name>PT4488</name></trkpt>
<trkpt lat="52.075238" lon="05.795042"><ele>0.7</ele><time>2021-01-12T14:26:26Z</time><name>PT4489</name></trkpt>
<trkpt lat="52.075229" lon="05.795036"><ele>0.7</ele><time>2021-01-12T14:26:27Z</time><name>PT4490</name></trkpt>
<trkpt lat="52.075224" lon="05.795028"><ele>0.8</ele><time>2021-01-12T14:26:28Z</time><name>PT4491</name></trkpt>
<trkpt lat="52.075217" lon="05.795019"><ele>0.8</ele><time>2021-01-12T14:26:29Z</time><name>PT4492</name></trkpt>
<trkpt lat="52.075204" lon="05.795010"><ele>0.7</ele><time>2021-01-12T14:26:30Z</time><name>PT4493</name></trkpt>
<trkpt lat="52.075195" lon="05.795002"><ele>0.7</ele><time>2021-01-12T14:26:31Z</time><name>PT4494</name></trkpt>
<trkpt lat="52.075190" lon="05.794998"><ele>0.6</ele><time>2021-01-12T14:26:32Z</time><name>PT4495</name></trkpt>
<trkpt lat="52.075185" lon="05.795004"><ele>0.7</ele><time>2021-01-12T14:26:33Z</time><name>PT4496</name></trkpt>
<trkpt lat="52.075186" lon="05.795003"><ele>0.7</ele><time>2021-01-12T14:26:34Z</time><name>PT4497</name></trkpt>
<trkpt lat="52.075185" lon="05.795004"><ele>0.8</ele><time>2021-01-12T14:26:35Z</time><name>PT4498</name></trkpt>
<trkpt lat="52.075184" lon="05.795003"><ele>-1</ele><time>2021-01-12T14:26:36Z</time><name>PT4499</name></trkpt>
<trkpt lat="52.075182" lon="05.795001"><ele>-1.1</ele><time>2021-01-12T14:26:37Z</time><name>PT4500</name></trkpt>
<trkpt lat="52.075175" lon="05.794998"><ele>0.8</ele><time>2021-01-12T14:26:38Z</time><name>PT4501</name></trkpt>
<trkpt lat="52.075168" lon="05.794993"><ele>0.7</ele><time>2021-01-12T14:26:39Z</time><name>PT4502</name></trkpt>
<trkpt lat="52.075162" lon="05.794987"><ele>0.7</ele><time>2021-01-12T14:26:40Z</time><name>PT4503</name></trkpt>
<trkpt lat="52.075158" lon="05.794980"><ele>0.6</ele><time>2021-01-12T14:26:41Z</time><name>PT4504</name></trkpt>
<trkpt lat="52.075155" lon="05.794975"><ele>0.6</ele><time>2021-01-12T14:26:42Z</time><name>PT4505</name></trkpt>
<trkpt lat="52.075151" lon="05.794965"><ele>0.6</ele><time>2021-01-12T14:26:43Z</time><name>PT4506</name></trkpt>
<trkpt lat="52.075147" lon="05.794953"><ele>0.6</ele><time>2021-01-12T14:26:44Z</time><name>PT4507</name></trkpt>
<trkpt lat="52.075141" lon="05.794946"><ele>0.5</ele><time>2021-01-12T14:26:45Z</time><name>PT4508</name></trkpt>
<trkpt lat="52.075140" lon="05.794938"><ele>0.5</ele><time>2021-01-12T14:26:46Z</time><name>PT4509</name></trkpt>
<trkpt lat="52.075138" lon="05.794931"><ele>0.6</ele><time>2021-01-12T14:26:47Z</time><name>PT4510</name></trkpt>
<trkpt lat="52.075138" lon="05.794925"><ele>0.6</ele><time>2021-01-12T14:26:48Z</time><name>PT4511</name></trkpt>
<trkpt lat="52.075137" lon="05.794921"><ele>0.6</ele><time>2021-01-12T14:26:49Z</time><name>PT4512</name></trkpt>
<trkpt lat="52.075135" lon="05.794915"><ele>0.7</ele><time>2021-01-12T14:26:50Z</time><name>PT4513</name></trkpt>
<trkpt lat="52.075134" lon="05.794910"><ele>0.8</ele><time>2021-01-12T14:26:51Z</time><name>PT4514</name></trkpt>
<trkpt lat="52.075134" lon="05.794908"><ele>0.8</ele><time>2021-01-12T14:26:52Z</time><name>PT4515</name></trkpt>
<trkpt lat="52.075133" lon="05.794908"><ele>0.8</ele><time>2021-01-12T14:26:53Z</time><name>PT4516</name></trkpt>
<trkpt lat="52.075132" lon="05.794908"><ele>0.7</ele><time>2021-01-12T14:26:54Z</time><name>PT4517</name></trkpt>
<trkpt lat="52.075133" lon="05.794910"><ele>0.6</ele><time>2021-01-12T14:27:37Z</time><name>PT4518</name></trkpt>
<trkpt lat="52.075126" lon="05.794909"><ele>0.6</ele><time>2021-01-12T14:27:38Z</time><name>PT4519</name></trkpt>
<trkpt lat="52.075126" lon="05.794908"><ele>0.7</ele><time>2021-01-12T14:27:39Z</time><name>PT4520</name></trkpt>
<trkpt lat="52.075125" lon="05.794908"><ele>0.8</ele><time>2021-01-12T14:27:40Z</time><name>PT4521</name></trkpt>
<trkpt lat="52.075125" lon="05.794907"><ele>-1.1</ele><time>2021-01-12T14:27:41Z</time><name>PT4522</name></trkpt>
<trkpt lat="52.075124" lon="05.794909"><ele>-1.2</ele><time>2021-01-12T14:27:42Z</time><name>PT4523</name></trkpt>
<trkpt lat="52.075121" lon="05.794905"><ele>-1</ele><time>2021-01-12T14:27:46Z</time><name>PT4524</name></trkpt>
<trkpt lat="52.075112" lon="05.794905"><ele>0.9</ele><time>2021-01-12T14:27:47Z</time><name>PT4525</name></trkpt>
<trkpt lat="52.075103" lon="05.794900"><ele>0.8</ele><time>2021-01-12T14:27:48Z</time><name>PT4526</name></trkpt>
<trkpt lat="52.075094" lon="05.794895"><ele>0.8</ele><time>2021-01-12T14:27:49Z</time><name>PT4527</name></trkpt>
<trkpt lat="52.075085" lon="05.794891"><ele>-1</ele><time>2021-01-12T14:27:50Z</time><name>PT4528</name></trkpt>
<trkpt lat="52.075078" lon="05.794885"><ele>0.8</ele><time>2021-01-12T14:27:51Z</time><name>PT4529</name></trkpt>
<trkpt lat="52.075067" lon="05.794879"><ele>-1.1</ele><time>2021-01-12T14:27:52Z</time><name>PT4530</name></trkpt>
<trkpt lat="52.075060" lon="05.794874"><ele>-1.1</ele><time>2021-01-12T14:27:53Z</time><name>PT4531</name></trkpt>
<trkpt lat="52.075052" lon="05.794864"><ele>-1.3</ele><time>2021-01-12T14:27:54Z</time><name>PT4532</name></trkpt>
<trkpt lat="52.075044" lon="05.794856"><ele>-1.4</ele><time>2021-01-12T14:27:55Z</time><name>PT4533</name></trkpt>
<trkpt lat="52.075034" lon="05.794849"><ele>-1.5</ele><time>2021-01-12T14:27:56Z</time><name>PT4534</name></trkpt>
<trkpt lat="52.075024" lon="05.794842"><ele>-1.5</ele><time>2021-01-12T14:27:57Z</time><name>PT4535</name></trkpt>
<trkpt lat="52.075014" lon="05.794835"><ele>-1.4</ele><time>2021-01-12T14:27:58Z</time><name>PT4536</name></trkpt>
<trkpt lat="52.075004" lon="05.794822"><ele>-1.5</ele><time>2021-01-12T14:27:59Z</time><name>PT4537</name></trkpt>
<trkpt lat="52.074992" lon="05.794814"><ele>-1.4</ele><time>2021-01-12T14:28:00Z</time><name>PT4538</name></trkpt>
<trkpt lat="52.074984" lon="05.794804"><ele>-1.4</ele><time>2021-01-12T14:28:00Z</time><name>PT4539</name></trkpt>
<trkpt lat="52.074972" lon="05.794795"><ele>-1.4</ele><time>2021-01-12T14:28:02Z</time><name>PT4540</name></trkpt>
<trkpt lat="52.074963" lon="05.794791"><ele>-1.3</ele><time>2021-01-12T14:28:03Z</time><name>PT4541</name></trkpt>
<trkpt lat="52.074957" lon="05.794782"><ele>-1.2</ele><time>2021-01-12T14:28:04Z</time><name>PT4542</name></trkpt>
<trkpt lat="52.074950" lon="05.794779"><ele>-1.1</ele><time>2021-01-12T14:28:05Z</time><name>PT4543</name></trkpt>
<trkpt lat="52.074945" lon="05.794774"><ele>-1</ele><time>2021-01-12T14:28:06Z</time><name>PT4544</name></trkpt>
<trkpt lat="52.074937" lon="05.794778"><ele>-1</ele><time>2021-01-12T14:28:07Z</time><name>PT4545</name></trkpt>
<trkpt lat="52.074933" lon="05.794779"><ele>0.9</ele><time>2021-01-12T14:28:08Z</time><name>PT4546</name></trkpt>
<trkpt lat="52.074930" lon="05.794780"><ele>0.8</ele><time>2021-01-12T14:28:09Z</time><name>PT4547</name></trkpt>
<trkpt lat="52.074928" lon="05.794784"><ele>-1.1</ele><time>2021-01-12T14:28:09Z</time><name>PT4548</name></trkpt>
<trkpt lat="52.074925" lon="05.794788"><ele>-1</ele><time>2021-01-12T14:28:11Z</time><name>PT4549</name></trkpt>
<trkpt lat="52.074920" lon="05.794788"><ele>-1.1</ele><time>2021-01-12T14:28:12Z</time><name>PT4550</name></trkpt>
<trkpt lat="52.074912" lon="05.794792"><ele>-1.1</ele><time>2021-01-12T14:28:13Z</time><name>PT4551</name></trkpt>
<trkpt lat="52.074905" lon="05.794795"><ele>-1.1</ele><time>2021-01-12T14:28:14Z</time><name>PT4552</name></trkpt>
<trkpt lat="52.074900" lon="05.794798"><ele>0.9</ele><time>2021-01-12T14:28:15Z</time><name>PT4553</name></trkpt>
<trkpt lat="52.074895" lon="05.794801"><ele>-1</ele><time>2021-01-12T14:28:15Z</time><name>PT4554</name></trkpt>
<trkpt lat="52.074893" lon="05.794802"><ele>-1.1</ele><time>2021-01-12T14:28:17Z</time><name>PT4555</name></trkpt>
<trkpt lat="52.074892" lon="05.794804"><ele>-1.1</ele><time>2021-01-12T14:28:18Z</time><name>PT4556</name></trkpt>
<trkpt lat="52.074891" lon="05.794805"><ele>-1.1</ele><time>2021-01-12T14:28:19Z</time><name>PT4557</name></trkpt>
<trkpt lat="52.074893" lon="05.794807"><ele>-1.1</ele><time>2021-01-12T14:28:31Z</time><name>PT4558</name></trkpt>
<trkpt lat="52.074894" lon="05.794809"><ele>-1.3</ele><time>2021-01-12T14:28:32Z</time><name>PT4559</name></trkpt>
<trkpt lat="52.074893" lon="05.794811"><ele>-1.4</ele><time>2021-01-12T14:28:33Z</time><name>PT4560</name></trkpt>
<trkpt lat="52.074890" lon="05.794814"><ele>-1</ele><time>2021-01-12T14:29:01Z</time><name>PT4561</name></trkpt>
<trkpt lat="52.074886" lon="05.794815"><ele>-1.1</ele><time>2021-01-12T14:29:02Z</time><name>PT4562</name></trkpt>
<trkpt lat="52.074884" lon="05.794816"><ele>-1.1</ele><time>2021-01-12T14:29:03Z</time><name>PT4563</name></trkpt>
<trkpt lat="52.074881" lon="05.794818"><ele>-1.1</ele><time>2021-01-12T14:29:04Z</time><name>PT4564</name></trkpt>
<trkpt lat="52.074880" lon="05.794819"><ele>-1.3</ele><time>2021-01-12T14:29:05Z</time><name>PT4565</name></trkpt>
<trkpt lat="52.074878" lon="05.794822"><ele>0.8</ele><time>2021-01-12T14:29:47Z</time><name>PT4566</name></trkpt>
<trkpt lat="52.074871" lon="05.794822"><ele>0.9</ele><time>2021-01-12T14:29:48Z</time><name>PT4567</name></trkpt>
<trkpt lat="52.074865" lon="05.794824"><ele>0.8</ele><time>2021-01-12T14:29:49Z</time><name>PT4568</name></trkpt>
<trkpt lat="52.074858" lon="05.794830"><ele>0.9</ele><time>2021-01-12T14:29:50Z</time><name>PT4569</name></trkpt>
<trkpt lat="52.074851" lon="05.794834"><ele>0.8</ele><time>2021-01-12T14:29:51Z</time><name>PT4570</name></trkpt>
<trkpt lat="52.074841" lon="05.794841"><ele>0.7</ele><time>2021-01-12T14:29:51Z</time><name>PT4571</name></trkpt>
<trkpt lat="52.074829" lon="05.794848"><ele>0.6</ele><time>2021-01-12T14:29:53Z</time><name>PT4572</name></trkpt>
<trkpt lat="52.074818" lon="05.794850"><ele>0.6</ele><time>2021-01-12T14:29:54Z</time><name>PT4573</name></trkpt>
<trkpt lat="52.074809" lon="05.794859"><ele>0.6</ele><time>2021-01-12T14:29:54Z</time><name>PT4574</name></trkpt>
<trkpt lat="52.074801" lon="05.794867"><ele>0.7</ele><time>2021-01-12T14:29:56Z</time><name>PT4575</name></trkpt>
<trkpt lat="52.074793" lon="05.794873"><ele>-1</ele><time>2021-01-12T14:29:57Z</time><name>PT4576</name></trkpt>
<trkpt lat="52.074785" lon="05.794879"><ele>-1.1</ele><time>2021-01-12T14:29:57Z</time><name>PT4577</name></trkpt>
<trkpt lat="52.074778" lon="05.794883"><ele>-1.2</ele><time>2021-01-12T14:29:59Z</time><name>PT4578</name></trkpt>
<trkpt lat="52.074770" lon="05.794884"><ele>-1.2</ele><time>2021-01-12T14:30:00Z</time><name>PT4579</name></trkpt>
<trkpt lat="52.074758" lon="05.794889"><ele>-1.2</ele><time>2021-01-12T14:30:01Z</time><name>PT4580</name></trkpt>
<trkpt lat="52.074747" lon="05.794888"><ele>-1.1</ele><time>2021-01-12T14:30:02Z</time><name>PT4581</name></trkpt>
<trkpt lat="52.074736" lon="05.794887"><ele>-1.2</ele><time>2021-01-12T14:30:03Z</time><name>PT4582</name></trkpt>
<trkpt lat="52.074728" lon="05.794888"><ele>-1.1</ele><time>2021-01-12T14:30:04Z</time><name>PT4583</name></trkpt>
<trkpt lat="52.074719" lon="05.794888"><ele>-1.2</ele><time>2021-01-12T14:30:05Z</time><name>PT4584</name></trkpt>
<trkpt lat="52.074710" lon="05.794886"><ele>-1.4</ele><time>2021-01-12T14:30:06Z</time><name>PT4585</name></trkpt>
<trkpt lat="52.074699" lon="05.794886"><ele>-1.5</ele><time>2021-01-12T14:30:06Z</time><name>PT4586</name></trkpt>
<trkpt lat="52.074689" lon="05.794888"><ele>-1.5</ele><time>2021-01-12T14:30:08Z</time><name>PT4587</name></trkpt>
<trkpt lat="52.074678" lon="05.794890"><ele>-1.4</ele><time>2021-01-12T14:30:09Z</time><name>PT4588</name></trkpt>
<trkpt lat="52.074667" lon="05.794890"><ele>-1.3</ele><time>2021-01-12T14:30:09Z</time><name>PT4589</name></trkpt>
<trkpt lat="52.074658" lon="05.794888"><ele>-1.2</ele><time>2021-01-12T14:30:11Z</time><name>PT4590</name></trkpt>
<trkpt lat="52.074649" lon="05.794883"><ele>-1.1</ele><time>2021-01-12T14:30:12Z</time><name>PT4591</name></trkpt>
<trkpt lat="52.074637" lon="05.794878"><ele>-1.1</ele><time>2021-01-12T14:30:12Z</time><name>PT4592</name></trkpt>
<trkpt lat="52.074627" lon="05.794874"><ele>-1.2</ele><time>2021-01-12T14:30:14Z</time><name>PT4593</name></trkpt>
<trkpt lat="52.074617" lon="05.794869"><ele>-1.2</ele><time>2021-01-12T14:30:15Z</time><name>PT4594</name></trkpt>
<trkpt lat="52.074606" lon="05.794867"><ele>-1.3</ele><time>2021-01-12T14:30:15Z</time><name>PT4595</name></trkpt>
<trkpt lat="52.074598" lon="05.794868"><ele>-1.4</ele><time>2021-01-12T14:30:17Z</time><name>PT4596</name></trkpt>
<trkpt lat="52.074588" lon="05.794864"><ele>-1.4</ele><time>2021-01-12T14:30:18Z</time><name>PT4597</name></trkpt>
<trkpt lat="52.074579" lon="05.794858"><ele>-1.4</ele><time>2021-01-12T14:30:18Z</time><name>PT4598</name></trkpt>
<trkpt lat="52.074564" lon="05.794856"><ele>-1.3</ele><time>2021-01-12T14:30:20Z</time><name>PT4599</name></trkpt>
<trkpt lat="52.074551" lon="05.794853"><ele>-1.2</ele><time>2021-01-12T14:30:21Z</time><name>PT4600</name></trkpt>
<trkpt lat="52.074539" lon="05.794851"><ele>-1.3</ele><time>2021-01-12T14:30:22Z</time><name>PT4601</name></trkpt>
<trkpt lat="52.074531" lon="05.794848"><ele>-1.3</ele><time>2021-01-12T14:30:23Z</time><name>PT4602</name></trkpt>
<trkpt lat="52.074521" lon="05.794847"><ele>-1.5</ele><time>2021-01-12T14:30:24Z</time><name>PT4603</name></trkpt>
<trkpt lat="52.074511" lon="05.794846"><ele>-1.5</ele><time>2021-01-12T14:30:25Z</time><name>PT4604</name></trkpt>
<trkpt lat="52.074503" lon="05.794842"><ele>-1.6</ele><time>2021-01-12T14:30:26Z</time><name>PT4605</name></trkpt>
<trkpt lat="52.074492" lon="05.794841"><ele>-1.6</ele><time>2021-01-12T14:30:27Z</time><name>PT4606</name></trkpt>
<trkpt lat="52.074482" lon="05.794835"><ele>-1.6</ele><time>2021-01-12T14:30:27Z</time><name>PT4607</name></trkpt>
<trkpt lat="52.074471" lon="05.794829"><ele>-1.6</ele><time>2021-01-12T14:30:29Z</time><name>PT4608</name></trkpt>
<trkpt lat="52.074464" lon="05.794815"><ele>-1.7</ele><time>2021-01-12T14:30:30Z</time><name>PT4609</name></trkpt>
<trkpt lat="52.074457" lon="05.794808"><ele>-1.7</ele><time>2021-01-12T14:30:31Z</time><name>PT4610</name></trkpt>
<trkpt lat="52.074449" lon="05.794805"><ele>-1.6</ele><time>2021-01-12T14:30:32Z</time><name>PT4611</name></trkpt>
<trkpt lat="52.074440" lon="05.794796"><ele>-1.6</ele><time>2021-01-12T14:30:33Z</time><name>PT4612</name></trkpt>
<trkpt lat="52.074429" lon="05.794788"><ele>-1.6</ele><time>2021-01-12T14:30:33Z</time><name>PT4613</name></trkpt>
<trkpt lat="52.074417" lon="05.794781"><ele>-1.5</ele><time>2021-01-12T14:30:35Z</time><name>PT4614</name></trkpt>
<trkpt lat="52.074406" lon="05.794778"><ele>-1.4</ele><time>2021-01-12T14:30:36Z</time><name>PT4615</name></trkpt>
<trkpt lat="52.074398" lon="05.794773"><ele>-1.4</ele><time>2021-01-12T14:30:36Z</time><name>PT4616</name></trkpt>
<trkpt lat="52.074390" lon="05.794766"><ele>-1.3</ele><time>2021-01-12T14:30:38Z</time><name>PT4617</name></trkpt>
<trkpt lat="52.074380" lon="05.794760"><ele>-1.3</ele><time>2021-01-12T14:30:39Z</time><name>PT4618</name></trkpt>
<trkpt lat="52.074368" lon="05.794757"><ele>-1.3</ele><time>2021-01-12T14:30:39Z</time><name>PT4619</name></trkpt>
<trkpt lat="52.074357" lon="05.794755"><ele>-1.3</ele><time>2021-01-12T14:30:41Z</time><name>PT4620</name></trkpt>
<trkpt lat="52.074346" lon="05.794752"><ele>-1.3</ele><time>2021-01-12T14:30:42Z</time><name>PT4621</name></trkpt>
<trkpt lat="52.074334" lon="05.794750"><ele>-1.2</ele><time>2021-01-12T14:30:42Z</time><name>PT4622</name></trkpt>
<trkpt lat="52.074323" lon="05.794748"><ele>-1.3</ele><time>2021-01-12T14:30:44Z</time><name>PT4623</name></trkpt>
<trkpt lat="52.074313" lon="05.794748"><ele>-1.2</ele><time>2021-01-12T14:30:45Z</time><name>PT4624</name></trkpt>
<trkpt lat="52.074303" lon="05.794750"><ele>-1.3</ele><time>2021-01-12T14:30:46Z</time><name>PT4625</name></trkpt>
<trkpt lat="52.074290" lon="05.794750"><ele>-1.2</ele><time>2021-01-12T14:30:47Z</time><name>PT4626</name></trkpt>
<trkpt lat="52.074280" lon="05.794747"><ele>-1.3</ele><time>2021-01-12T14:30:48Z</time><name>PT4627</name></trkpt>
<trkpt lat="52.074270" lon="05.794745"><ele>-1.2</ele><time>2021-01-12T14:30:49Z</time><name>PT4628</name></trkpt>
<trkpt lat="52.074259" lon="05.794744"><ele>-1.5</ele><time>2021-01-12T14:30:50Z</time><name>PT4629</name></trkpt>
<trkpt lat="52.074249" lon="05.794741"><ele>-1.3</ele><time>2021-01-12T14:30:51Z</time><name>PT4630</name></trkpt>
<trkpt lat="52.074237" lon="05.794739"><ele>-1.5</ele><time>2021-01-12T14:30:52Z</time><name>PT4631</name></trkpt>
<trkpt lat="52.074226" lon="05.794735"><ele>-1.4</ele><time>2021-01-12T14:30:53Z</time><name>PT4632</name></trkpt>
<trkpt lat="52.074217" lon="05.794729"><ele>-1.4</ele><time>2021-01-12T14:30:54Z</time><name>PT4633</name></trkpt>
<trkpt lat="52.074206" lon="05.794730"><ele>-1.5</ele><time>2021-01-12T14:30:54Z</time><name>PT4634</name></trkpt>
<trkpt lat="52.074196" lon="05.794730"><ele>-1.6</ele><time>2021-01-12T14:30:56Z</time><name>PT4635</name></trkpt>
<trkpt lat="52.074181" lon="05.794731"><ele>-1.6</ele><time>2021-01-12T14:30:57Z</time><name>PT4636</name></trkpt>
<trkpt lat="52.074170" lon="05.794734"><ele>-1.7</ele><time>2021-01-12T14:30:57Z</time><name>PT4637</name></trkpt>
<trkpt lat="52.074160" lon="05.794733"><ele>-1.6</ele><time>2021-01-12T14:30:59Z</time><name>PT4638</name></trkpt>
<trkpt lat="52.074148" lon="05.794729"><ele>-1.3</ele><time>2021-01-12T14:31:00Z</time><name>PT4639</name></trkpt>
<trkpt lat="52.074137" lon="05.794726"><ele>-1.4</ele><time>2021-01-12T14:31:00Z</time><name>PT4640</name></trkpt>
<trkpt lat="52.074125" lon="05.794721"><ele>-1.4</ele><time>2021-01-12T14:31:02Z</time><name>PT4641</name></trkpt>
<trkpt lat="52.074114" lon="05.794719"><ele>-1.6</ele><time>2021-01-12T14:31:03Z</time><name>PT4642</name></trkpt>
<trkpt lat="52.074102" lon="05.794721"><ele>-1.6</ele><time>2021-01-12T14:31:03Z</time><name>PT4643</name></trkpt>
<trkpt lat="52.074091" lon="05.794722"><ele>-1.7</ele><time>2021-01-12T14:31:05Z</time><name>PT4644</name></trkpt>
<trkpt lat="52.074081" lon="05.794722"><ele>-1.8</ele><time>2021-01-12T14:31:06Z</time><name>PT4645</name></trkpt>
<trkpt lat="52.074071" lon="05.794721"><ele>-1.8</ele><time>2021-01-12T14:31:06Z</time><name>PT4646</name></trkpt>
<trkpt lat="52.074061" lon="05.794720"><ele>-1.7</ele><time>2021-01-12T14:31:08Z</time><name>PT4647</name></trkpt>
<trkpt lat="52.074051" lon="05.794716"><ele>-1.6</ele><time>2021-01-12T14:31:09Z</time><name>PT4648</name></trkpt>
<trkpt lat="52.074040" lon="05.794716"><ele>-1.7</ele><time>2021-01-12T14:31:09Z</time><name>PT4649</name></trkpt>
<trkpt lat="52.074027" lon="05.794719"><ele>-1.6</ele><time>2021-01-12T14:31:11Z</time><name>PT4650</name></trkpt>
<trkpt lat="52.074012" lon="05.794713"><ele>-1.6</ele><time>2021-01-12T14:31:12Z</time><name>PT4651</name></trkpt>
<trkpt lat="52.074000" lon="05.794708"><ele>-1.4</ele><time>2021-01-12T14:31:12Z</time><name>PT4652</name></trkpt>
<trkpt lat="52.073988" lon="05.794703"><ele>-1.5</ele><time>2021-01-12T14:31:14Z</time><name>PT4653</name></trkpt>
<trkpt lat="52.073977" lon="05.794699"><ele>-1.5</ele><time>2021-01-12T14:31:15Z</time><name>PT4654</name></trkpt>
<trkpt lat="52.073966" lon="05.794696"><ele>-1.4</ele><time>2021-01-12T14:31:15Z</time><name>PT4655</name></trkpt>
<trkpt lat="52.073954" lon="05.794697"><ele>-1.4</ele><time>2021-01-12T14:31:17Z</time><name>PT4656</name></trkpt>
<trkpt lat="52.073944" lon="05.794698"><ele>-1.5</ele><time>2021-01-12T14:31:18Z</time><name>PT4657</name></trkpt>
<trkpt lat="52.073933" lon="05.794696"><ele>-1.5</ele><time>2021-01-12T14:31:19Z</time><name>PT4658</name></trkpt>
<trkpt lat="52.073922" lon="05.794690"><ele>-1.6</ele><time>2021-01-12T14:31:20Z</time><name>PT4659</name></trkpt>
<trkpt lat="52.073908" lon="05.794687"><ele>-1.5</ele><time>2021-01-12T14:31:21Z</time><name>PT4660</name></trkpt>
<trkpt lat="52.073896" lon="05.794683"><ele>-1.5</ele><time>2021-01-12T14:31:21Z</time><name>PT4661</name></trkpt>
<trkpt lat="52.073887" lon="05.794679"><ele>-1.6</ele><time>2021-01-12T14:31:23Z</time><name>PT4662</name></trkpt>
<trkpt lat="52.073874" lon="05.794677"><ele>-1.4</ele><time>2021-01-12T14:31:24Z</time><name>PT4663</name></trkpt>
<trkpt lat="52.073862" lon="05.794677"><ele>-1.2</ele><time>2021-01-12T14:31:24Z</time><name>PT4664</name></trkpt>
<trkpt lat="52.073850" lon="05.794676"><ele>-1.5</ele><time>2021-01-12T14:31:26Z</time><name>PT4665</name></trkpt>
<trkpt lat="52.073837" lon="05.794674"><ele>-1.4</ele><time>2021-01-12T14:31:27Z</time><name>PT4666</name></trkpt>
<trkpt lat="52.073827" lon="05.794673"><ele>-1.3</ele><time>2021-01-12T14:31:27Z</time><name>PT4667</name></trkpt>
<trkpt lat="52.073815" lon="05.794673"><ele>-1.3</ele><time>2021-01-12T14:31:29Z</time><name>PT4668</name></trkpt>
<trkpt lat="52.073805" lon="05.794671"><ele>-1.4</ele><time>2021-01-12T14:31:30Z</time><name>PT4669</name></trkpt>
<trkpt lat="52.073792" lon="05.794668"><ele>-1.4</ele><time>2021-01-12T14:31:30Z</time><name>PT4670</name></trkpt>
<trkpt lat="52.073779" lon="05.794662"><ele>-1.4</ele><time>2021-01-12T14:31:32Z</time><name>PT4671</name></trkpt>
<trkpt lat="52.073764" lon="05.794657"><ele>-1.5</ele><time>2021-01-12T14:31:33Z</time><name>PT4672</name></trkpt>
<trkpt lat="52.073752" lon="05.794654"><ele>-1.5</ele><time>2021-01-12T14:31:33Z</time><name>PT4673</name></trkpt>
<trkpt lat="52.073741" lon="05.794647"><ele>-1.5</ele><time>2021-01-12T14:31:35Z</time><name>PT4674</name></trkpt>
<trkpt lat="52.073732" lon="05.794641"><ele>-1.3</ele><time>2021-01-12T14:31:36Z</time><name>PT4675</name></trkpt>
<trkpt lat="52.073722" lon="05.794638"><ele>-1.5</ele><time>2021-01-12T14:31:37Z</time><name>PT4676</name></trkpt>
<trkpt lat="52.073710" lon="05.794633"><ele>-1.6</ele><time>2021-01-12T14:31:38Z</time><name>PT4677</name></trkpt>
<trkpt lat="52.073702" lon="05.794632"><ele>-1.6</ele><time>2021-01-12T14:31:39Z</time><name>PT4678</name></trkpt>
<trkpt lat="52.073696" lon="05.794627"><ele>-1.7</ele><time>2021-01-12T14:31:39Z</time><name>PT4679</name></trkpt>
<trkpt lat="52.073687" lon="05.794627"><ele>-1.8</ele><time>2021-01-12T14:31:41Z</time><name>PT4680</name></trkpt>
<trkpt lat="52.073679" lon="05.794625"><ele>-1.6</ele><time>2021-01-12T14:31:42Z</time><name>PT4681</name></trkpt>
<trkpt lat="52.073673" lon="05.794624"><ele>-1.6</ele><time>2021-01-12T14:31:43Z</time><name>PT4682</name></trkpt>
<trkpt lat="52.073670" lon="05.794627"><ele>-1.4</ele><time>2021-01-12T14:31:44Z</time><name>PT4683</name></trkpt>
<trkpt lat="52.073664" lon="05.794628"><ele>-1.4</ele><time>2021-01-12T14:31:45Z</time><name>PT4684</name></trkpt>
<trkpt lat="52.073660" lon="05.794631"><ele>-1.4</ele><time>2021-01-12T14:31:45Z</time><name>PT4685</name></trkpt>
<trkpt lat="52.073658" lon="05.794634"><ele>-1.5</ele><time>2021-01-12T14:31:47Z</time><name>PT4686</name></trkpt>
<trkpt lat="52.073658" lon="05.794635"><ele>-1.5</ele><time>2021-01-12T14:31:48Z</time><name>PT4687</name></trkpt>
<trkpt lat="52.073657" lon="05.794636"><ele>-1.6</ele><time>2021-01-12T14:31:49Z</time><name>PT4688</name></trkpt>
<trkpt lat="52.073654" lon="05.794639"><ele>-1.6</ele><time>2021-01-12T14:31:50Z</time><name>PT4689</name></trkpt>
<trkpt lat="52.073647" lon="05.794639"><ele>-1.5</ele><time>2021-01-12T14:31:51Z</time><name>PT4690</name></trkpt>
<trkpt lat="52.073639" lon="05.794641"><ele>-1.3</ele><time>2021-01-12T14:31:52Z</time><name>PT4691</name></trkpt>
<trkpt lat="52.073636" lon="05.794646"><ele>-1.3</ele><time>2021-01-12T14:31:53Z</time><name>PT4692</name></trkpt>
<trkpt lat="52.073631" lon="05.794651"><ele>-1.5</ele><time>2021-01-12T14:31:54Z</time><name>PT4693</name></trkpt>
<trkpt lat="52.073623" lon="05.794655"><ele>-1.6</ele><time>2021-01-12T14:31:54Z</time><name>PT4694</name></trkpt>
<trkpt lat="52.073617" lon="05.794657"><ele>-1.7</ele><time>2021-01-12T14:31:56Z</time><name>PT4695</name></trkpt>
<trkpt lat="52.073616" lon="05.794657"><ele>-1.9</ele><time>2021-01-12T14:31:57Z</time><name>PT4696</name></trkpt>
<trkpt lat="52.073614" lon="05.794659"><ele>-1.7</ele><time>2021-01-12T14:31:57Z</time><name>PT4697</name></trkpt>
<trkpt lat="52.073613" lon="05.794661"><ele>-1.6</ele><time>2021-01-12T14:31:59Z</time><name>PT4698</name></trkpt>
<trkpt lat="52.073619" lon="05.794681"><ele>-1.1</ele><time>2021-01-12T14:32:21Z</time><name>PT4699</name></trkpt>
<trkpt lat="52.073613" lon="05.794690"><ele>-1.2</ele><time>2021-01-12T14:32:23Z</time><name>PT4700</name></trkpt>
<trkpt lat="52.073611" lon="05.794698"><ele>-1.4</ele><time>2021-01-12T14:32:24Z</time><name>PT4701</name></trkpt>
<trkpt lat="52.073608" lon="05.794707"><ele>-1.4</ele><time>2021-01-12T14:32:24Z</time><name>PT4702</name></trkpt>
<trkpt lat="52.073607" lon="05.794716"><ele>-1.5</ele><time>2021-01-12T14:32:26Z</time><name>PT4703</name></trkpt>
<trkpt lat="52.073599" lon="05.794720"><ele>-1.6</ele><time>2021-01-12T14:32:27Z</time><name>PT4704</name></trkpt>
<trkpt lat="52.073592" lon="05.794733"><ele>-1.6</ele><time>2021-01-12T14:32:27Z</time><name>PT4705</name></trkpt>
<trkpt lat="52.073582" lon="05.794747"><ele>-1.7</ele><time>2021-01-12T14:32:29Z</time><name>PT4706</name></trkpt>
<trkpt lat="52.073573" lon="05.794756"><ele>-1.8</ele><time>2021-01-12T14:32:30Z</time><name>PT4707</name></trkpt>
<trkpt lat="52.073571" lon="05.794770"><ele>-1.8</ele><time>2021-01-12T14:32:30Z</time><name>PT4708</name></trkpt>
<trkpt lat="52.073571" lon="05.794786"><ele>-1.9</ele><time>2021-01-12T14:32:32Z</time><name>PT4709</name></trkpt>
<trkpt lat="52.073571" lon="05.794799"><ele>-1.9</ele><time>2021-01-12T14:32:33Z</time><name>PT4710</name></trkpt>
<trkpt lat="52.073570" lon="05.794814"><ele>-1.9</ele><time>2021-01-12T14:32:33Z</time><name>PT4711</name></trkpt>
<trkpt lat="52.073570" lon="05.794829"><ele>-1.8</ele><time>2021-01-12T14:32:35Z</time><name>PT4712</name></trkpt>
<trkpt lat="52.073571" lon="05.794843"><ele>-1.8</ele><time>2021-01-12T14:32:36Z</time><name>PT4713</name></trkpt>
<trkpt lat="52.073574" lon="05.794856"><ele>-1.7</ele><time>2021-01-12T14:32:37Z</time><name>PT4714</name></trkpt>
<trkpt lat="52.073579" lon="05.794871"><ele>-1.4</ele><time>2021-01-12T14:32:38Z</time><name>PT4715</name></trkpt>
<trkpt lat="52.073583" lon="05.794888"><ele>-1.2</ele><time>2021-01-12T14:32:39Z</time><name>PT4716</name></trkpt>
<trkpt lat="52.073587" lon="05.794898"><ele>-1</ele><time>2021-01-12T14:32:39Z</time><name>PT4717</name></trkpt>
<trkpt lat="52.073592" lon="05.794910"><ele>-1</ele><time>2021-01-12T14:32:41Z</time><name>PT4718</name></trkpt>
<trkpt lat="52.073593" lon="05.794926"><ele>-1.1</ele><time>2021-01-12T14:32:42Z</time><name>PT4719</name></trkpt>
<trkpt lat="52.073591" lon="05.794941"><ele>-1.1</ele><time>2021-01-12T14:32:42Z</time><name>PT4720</name></trkpt>
<trkpt lat="52.073591" lon="05.794955"><ele>-1.2</ele><time>2021-01-12T14:32:44Z</time><name>PT4721</name></trkpt>
<trkpt lat="52.073593" lon="05.794969"><ele>-1.2</ele><time>2021-01-12T14:32:45Z</time><name>PT4722</name></trkpt>
<trkpt lat="52.073597" lon="05.794984"><ele>-1.1</ele><time>2021-01-12T14:32:46Z</time><name>PT4723</name></trkpt>
<trkpt lat="52.073601" lon="05.795000"><ele>0.8</ele><time>2021-01-12T14:32:47Z</time><name>PT4724</name></trkpt>
<trkpt lat="52.073603" lon="05.795014"><ele>0.9</ele><time>2021-01-12T14:32:48Z</time><name>PT4725</name></trkpt>
<trkpt lat="52.073607" lon="05.795021"><ele>-1</ele><time>2021-01-12T14:32:48Z</time><name>PT4726</name></trkpt>
<trkpt lat="52.073612" lon="05.795030"><ele>-1.1</ele><time>2021-01-12T14:32:50Z</time><name>PT4727</name></trkpt>
<trkpt lat="52.073617" lon="05.795044"><ele>-1.4</ele><time>2021-01-12T14:32:51Z</time><name>PT4728</name></trkpt>
<trkpt lat="52.073620" lon="05.795057"><ele>-1.4</ele><time>2021-01-12T14:32:52Z</time><name>PT4729</name></trkpt>
<trkpt lat="52.073623" lon="05.795071"><ele>-1.4</ele><time>2021-01-12T14:32:53Z</time><name>PT4730</name></trkpt>
<trkpt lat="52.073626" lon="05.795084"><ele>-1.5</ele><time>2021-01-12T14:32:54Z</time><name>PT4731</name></trkpt>
<trkpt lat="52.073627" lon="05.795099"><ele>-1.6</ele><time>2021-01-12T14:32:55Z</time><name>PT4732</name></trkpt>
<trkpt lat="52.073627" lon="05.795110"><ele>-1.6</ele><time>2021-01-12T14:32:56Z</time><name>PT4733</name></trkpt>
<trkpt lat="52.073628" lon="05.795117"><ele>-1.6</ele><time>2021-01-12T14:32:57Z</time><name>PT4734</name></trkpt>
<trkpt lat="52.073628" lon="05.795121"><ele>-1.6</ele><time>2021-01-12T14:32:57Z</time><name>PT4735</name></trkpt>
<trkpt lat="52.073625" lon="05.795117"><ele>-1.7</ele><time>2021-01-12T14:32:59Z</time><name>PT4736</name></trkpt>
<trkpt lat="52.073621" lon="05.795120"><ele>-1.7</ele><time>2021-01-12T14:33:00Z</time><name>PT4737</name></trkpt>
<trkpt lat="52.073628" lon="05.795126"><ele>-1.4</ele><time>2021-01-12T14:33:03Z</time><name>PT4738</name></trkpt>
<trkpt lat="52.073636" lon="05.795147"><ele>-1.3</ele><time>2021-01-12T14:33:03Z</time><name>PT4739</name></trkpt>
<trkpt lat="52.073640" lon="05.795164"><ele>-1.5</ele><time>2021-01-12T14:33:05Z</time><name>PT4740</name></trkpt>
<trkpt lat="52.073644" lon="05.795181"><ele>-1.4</ele><time>2021-01-12T14:33:06Z</time><name>PT4741</name></trkpt>
<trkpt lat="52.073644" lon="05.795202"><ele>-1.3</ele><time>2021-01-12T14:33:06Z</time><name>PT4742</name></trkpt>
<trkpt lat="52.073639" lon="05.795221"><ele>-1.2</ele><time>2021-01-12T14:33:08Z</time><name>PT4743</name></trkpt>
<trkpt lat="52.073642" lon="05.795241"><ele>-1.1</ele><time>2021-01-12T14:33:09Z</time><name>PT4744</name></trkpt>
<trkpt lat="52.073646" lon="05.795261"><ele>-1.2</ele><time>2021-01-12T14:33:09Z</time><name>PT4745</name></trkpt>
<trkpt lat="52.073652" lon="05.795277"><ele>-1.3</ele><time>2021-01-12T14:33:11Z</time><name>PT4746</name></trkpt>
<trkpt lat="52.073657" lon="05.795295"><ele>-1.4</ele><time>2021-01-12T14:33:12Z</time><name>PT4747</name></trkpt>
<trkpt lat="52.073660" lon="05.795314"><ele>-1.5</ele><time>2021-01-12T14:33:13Z</time><name>PT4748</name></trkpt>
<trkpt lat="52.073662" lon="05.795331"><ele>-1.4</ele><time>2021-01-12T14:33:14Z</time><name>PT4749</name></trkpt>
<trkpt lat="52.073665" lon="05.795350"><ele>-1.3</ele><time>2021-01-12T14:33:15Z</time><name>PT4750</name></trkpt>
<trkpt lat="52.073674" lon="05.795377"><ele>-1.1</ele><time>2021-01-12T14:33:15Z</time><name>PT4751</name></trkpt>
<trkpt lat="52.073681" lon="05.795399"><ele>-1.2</ele><time>2021-01-12T14:33:17Z</time><name>PT4752</name></trkpt>
<trkpt lat="52.073690" lon="05.795418"><ele>-1.4</ele><time>2021-01-12T14:33:18Z</time><name>PT4753</name></trkpt>
<trkpt lat="52.073700" lon="05.795440"><ele>-1.4</ele><time>2021-01-12T14:33:18Z</time><name>PT4754</name></trkpt>
<trkpt lat="52.073704" lon="05.795460"><ele>-1.6</ele><time>2021-01-12T14:33:20Z</time><name>PT4755</name></trkpt>
<trkpt lat="52.073707" lon="05.795479"><ele>-1.6</ele><time>2021-01-12T14:33:21Z</time><name>PT4756</name></trkpt>
<trkpt lat="52.073710" lon="05.795498"><ele>-1.6</ele><time>2021-01-12T14:33:21Z</time><name>PT4757</name></trkpt>
<trkpt lat="52.073713" lon="05.795518"><ele>-1.6</ele><time>2021-01-12T14:33:23Z</time><name>PT4758</name></trkpt>
<trkpt lat="52.073714" lon="05.795539"><ele>-1.6</ele><time>2021-01-12T14:33:24Z</time><name>PT4759</name></trkpt>
<trkpt lat="52.073716" lon="05.795555"><ele>-1.5</ele><time>2021-01-12T14:33:25Z</time><name>PT4760</name></trkpt>
<trkpt lat="52.073714" lon="05.795569"><ele>-1.6</ele><time>2021-01-12T14:33:26Z</time><name>PT4761</name></trkpt>
<trkpt lat="52.073717" lon="05.795587"><ele>-1.3</ele><time>2021-01-12T14:33:27Z</time><name>PT4762</name></trkpt>
<trkpt lat="52.073719" lon="05.795605"><ele>-1.2</ele><time>2021-01-12T14:33:27Z</time><name>PT4763</name></trkpt>
<trkpt lat="52.073713" lon="05.795619"><ele>-1.1</ele><time>2021-01-12T14:33:29Z</time><name>PT4764</name></trkpt>
<trkpt lat="52.073710" lon="05.795636"><ele>-1</ele><time>2021-01-12T14:33:30Z</time><name>PT4765</name></trkpt>
<trkpt lat="52.073710" lon="05.795652"><ele>-1.1</ele><time>2021-01-12T14:33:30Z</time><name>PT4766</name></trkpt>
<trkpt lat="52.073710" lon="05.795676"><ele>-1.1</ele><time>2021-01-12T14:33:32Z</time><name>PT4767</name></trkpt>
<trkpt lat="52.073713" lon="05.795696"><ele>-1</ele><time>2021-01-12T14:33:33Z</time><name>PT4768</name></trkpt>
<trkpt lat="52.073712" lon="05.795714"><ele>-1.1</ele><time>2021-01-12T14:33:33Z</time><name>PT4769</name></trkpt>
<trkpt lat="52.073714" lon="05.795735"><ele>-1.4</ele><time>2021-01-12T14:33:35Z</time><name>PT4770</name></trkpt>
<trkpt lat="52.073719" lon="05.795753"><ele>-1.5</ele><time>2021-01-12T14:33:36Z</time><name>PT4771</name></trkpt>
<trkpt lat="52.073720" lon="05.795761"><ele>-1.6</ele><time>2021-01-12T14:33:36Z</time><name>PT4772</name></trkpt>
<trkpt lat="52.073721" lon="05.795780"><ele>-1.6</ele><time>2021-01-12T14:33:38Z</time><name>PT4773</name></trkpt>
<trkpt lat="52.073722" lon="05.795794"><ele>-1.5</ele><time>2021-01-12T14:33:39Z</time><name>PT4774</name></trkpt>
<trkpt lat="52.073723" lon="05.795815"><ele>-1.3</ele><time>2021-01-12T14:33:39Z</time><name>PT4775</name></trkpt>
<trkpt lat="52.073729" lon="05.795831"><ele>-1.4</ele><time>2021-01-12T14:33:41Z</time><name>PT4776</name></trkpt>
<trkpt lat="52.073731" lon="05.795849"><ele>-1.5</ele><time>2021-01-12T14:33:42Z</time><name>PT4777</name></trkpt>
<trkpt lat="52.073737" lon="05.795874"><ele>-1.7</ele><time>2021-01-12T14:33:42Z</time><name>PT4778</name></trkpt>
<trkpt lat="52.073738" lon="05.795891"><ele>-1.8</ele><time>2021-01-12T14:33:44Z</time><name>PT4779</name></trkpt>
<trkpt lat="52.073743" lon="05.795907"><ele>-1.6</ele><time>2021-01-12T14:33:45Z</time><name>PT4780</name></trkpt>
<trkpt lat="52.073749" lon="05.795923"><ele>-1.6</ele><time>2021-01-12T14:33:45Z</time><name>PT4781</name></trkpt>
<trkpt lat="52.073754" lon="05.795936"><ele>-1.7</ele><time>2021-01-12T14:33:47Z</time><name>PT4782</name></trkpt>
<trkpt lat="52.073757" lon="05.795949"><ele>-1.8</ele><time>2021-01-12T14:33:48Z</time><name>PT4783</name></trkpt>
<trkpt lat="52.073760" lon="05.795965"><ele>-1.8</ele><time>2021-01-12T14:33:48Z</time><name>PT4784</name></trkpt>
<trkpt lat="52.073763" lon="05.795980"><ele>-1.7</ele><time>2021-01-12T14:33:50Z</time><name>PT4785</name></trkpt>
<trkpt lat="52.073766" lon="05.795995"><ele>-1.6</ele><time>2021-01-12T14:33:51Z</time><name>PT4786</name></trkpt>
<trkpt lat="52.073769" lon="05.796013"><ele>-1.6</ele><time>2021-01-12T14:33:51Z</time><name>PT4787</name></trkpt>
<trkpt lat="52.073773" lon="05.796032"><ele>-1.6</ele><time>2021-01-12T14:33:53Z</time><name>PT4788</name></trkpt>
<trkpt lat="52.073775" lon="05.796047"><ele>-1.6</ele><time>2021-01-12T14:33:54Z</time><name>PT4789</name></trkpt>
<trkpt lat="52.073779" lon="05.796066"><ele>-1.7</ele><time>2021-01-12T14:33:54Z</time><name>PT4790</name></trkpt>
<trkpt lat="52.073782" lon="05.796087"><ele>-1.6</ele><time>2021-01-12T14:33:56Z</time><name>PT4791</name></trkpt>
<trkpt lat="52.073786" lon="05.796104"><ele>-1.8</ele><time>2021-01-12T14:33:57Z</time><name>PT4792</name></trkpt>
<trkpt lat="52.073794" lon="05.796122"><ele>-1.7</ele><time>2021-01-12T14:33:57Z</time><name>PT4793</name></trkpt>
<trkpt lat="52.073800" lon="05.796137"><ele>-1.6</ele><time>2021-01-12T14:33:59Z</time><name>PT4794</name></trkpt>
<trkpt lat="52.073805" lon="05.796155"><ele>-1.6</ele><time>2021-01-12T14:34:00Z</time><name>PT4795</name></trkpt>
<trkpt lat="52.073805" lon="05.796176"><ele>-1.6</ele><time>2021-01-12T14:34:00Z</time><name>PT4796</name></trkpt>
<trkpt lat="52.073807" lon="05.796193"><ele>-1.6</ele><time>2021-01-12T14:34:02Z</time><name>PT4797</name></trkpt>
<trkpt lat="52.073809" lon="05.796208"><ele>-1.8</ele><time>2021-01-12T14:34:03Z</time><name>PT4798</name></trkpt>
<trkpt lat="52.073814" lon="05.796219"><ele>-1.8</ele><time>2021-01-12T14:34:03Z</time><name>PT4799</name></trkpt>
<trkpt lat="52.073819" lon="05.796237"><ele>-1.9</ele><time>2021-01-12T14:34:05Z</time><name>PT4800</name></trkpt>
<trkpt lat="52.073824" lon="05.796255"><ele>-1.7</ele><time>2021-01-12T14:34:06Z</time><name>PT4801</name></trkpt>
<trkpt lat="52.073832" lon="05.796271"><ele>-1.7</ele><time>2021-01-12T14:34:06Z</time><name>PT4802</name></trkpt>
<trkpt lat="52.073837" lon="05.796292"><ele>-1.7</ele><time>2021-01-12T14:34:08Z</time><name>PT4803</name></trkpt>
<trkpt lat="52.073843" lon="05.796315"><ele>-1.6</ele><time>2021-01-12T14:34:09Z</time><name>PT4804</name></trkpt>
<trkpt lat="52.073850" lon="05.796335"><ele>-1.5</ele><time>2021-01-12T14:34:09Z</time><name>PT4805</name></trkpt>
<trkpt lat="52.073856" lon="05.796353"><ele>-1.6</ele><time>2021-01-12T14:34:11Z</time><name>PT4806</name></trkpt>
<trkpt lat="52.073862" lon="05.796372"><ele>-1.5</ele><time>2021-01-12T14:34:12Z</time><name>PT4807</name></trkpt>
<trkpt lat="52.073864" lon="05.796386"><ele>-1.4</ele><time>2021-01-12T14:34:12Z</time><name>PT4808</name></trkpt>
<trkpt lat="52.073867" lon="05.796410"><ele>-1.3</ele><time>2021-01-12T14:34:14Z</time><name>PT4809</name></trkpt>
<trkpt lat="52.073869" lon="05.796430"><ele>-1.1</ele><time>2021-01-12T14:34:15Z</time><name>PT4810</name></trkpt>
<trkpt lat="52.073869" lon="05.796451"><ele>-1</ele><time>2021-01-12T14:34:15Z</time><name>PT4811</name></trkpt>
<trkpt lat="52.073873" lon="05.796471"><ele>-1.1</ele><time>2021-01-12T14:34:17Z</time><name>PT4812</name></trkpt>
<trkpt lat="52.073876" lon="05.796491"><ele>-1.1</ele><time>2021-01-12T14:34:18Z</time><name>PT4813</name></trkpt>
<trkpt lat="52.073880" lon="05.796514"><ele>-1.1</ele><time>2021-01-12T14:34:18Z</time><name>PT4814</name></trkpt>
<trkpt lat="52.073880" lon="05.796532"><ele>-1.1</ele><time>2021-01-12T14:34:20Z</time><name>PT4815</name></trkpt>
<trkpt lat="52.073884" lon="05.796549"><ele>0.8</ele><time>2021-01-12T14:34:21Z</time><name>PT4816</name></trkpt>
<trkpt lat="52.073888" lon="05.796568"><ele>0.9</ele><time>2021-01-12T14:34:21Z</time><name>PT4817</name></trkpt>
<trkpt lat="52.073894" lon="05.796583"><ele>0.9</ele><time>2021-01-12T14:34:23Z</time><name>PT4818</name></trkpt>
<trkpt lat="52.073900" lon="05.796601"><ele>0.8</ele><time>2021-01-12T14:34:24Z</time><name>PT4819</name></trkpt>
<trkpt lat="52.073902" lon="05.796619"><ele>0.9</ele><time>2021-01-12T14:34:24Z</time><name>PT4820</name></trkpt>
<trkpt lat="52.073904" lon="05.796633"><ele>0.9</ele><time>2021-01-12T14:34:26Z</time><name>PT4821</name></trkpt>
<trkpt lat="52.073907" lon="05.796655"><ele>0.8</ele><time>2021-01-12T14:34:27Z</time><name>PT4822</name></trkpt>
<trkpt lat="52.073911" lon="05.796678"><ele>0.9</ele><time>2021-01-12T14:34:27Z</time><name>PT4823</name></trkpt>
<trkpt lat="52.073917" lon="05.796695"><ele>0.8</ele><time>2021-01-12T14:34:29Z</time><name>PT4824</name></trkpt>
<trkpt lat="52.073919" lon="05.796718"><ele>0.8</ele><time>2021-01-12T14:34:30Z</time><name>PT4825</name></trkpt>
<trkpt lat="52.073924" lon="05.796737"><ele>0.8</ele><time>2021-01-12T14:34:30Z</time><name>PT4826</name></trkpt>
<trkpt lat="52.073928" lon="05.796752"><ele>0.8</ele><time>2021-01-12T14:34:32Z</time><name>PT4827</name></trkpt>
<trkpt lat="52.073931" lon="05.796772"><ele>0.9</ele><time>2021-01-12T14:34:33Z</time><name>PT4828</name></trkpt>
<trkpt lat="52.073932" lon="05.796791"><ele>0.9</ele><time>2021-01-12T14:34:33Z</time><name>PT4829</name></trkpt>
<trkpt lat="52.073939" lon="05.796809"><ele>-1.1</ele><time>2021-01-12T14:34:35Z</time><name>PT4830</name></trkpt>
<trkpt lat="52.073933" lon="05.796815"><ele>-1.1</ele><time>2021-01-12T14:34:36Z</time><name>PT4831</name></trkpt>
<trkpt lat="52.073932" lon="05.796824"><ele>-1.2</ele><time>2021-01-12T14:34:36Z</time><name>PT4832</name></trkpt>
<trkpt lat="52.073926" lon="05.796846"><ele>-1.1</ele><time>2021-01-12T14:34:38Z</time><name>PT4833</name></trkpt>
<trkpt lat="52.073917" lon="05.796863"><ele>-1.1</ele><time>2021-01-12T14:34:39Z</time><name>PT4834</name></trkpt>
<trkpt lat="52.073917" lon="05.796883"><ele>-1.1</ele><time>2021-01-12T14:34:39Z</time><name>PT4835</name></trkpt>
<trkpt lat="52.073916" lon="05.796913"><ele>-1.1</ele><time>2021-01-12T14:34:41Z</time><name>PT4836</name></trkpt>
<trkpt lat="52.073917" lon="05.796932"><ele>-1.2</ele><time>2021-01-12T14:34:42Z</time><name>PT4837</name></trkpt>
<trkpt lat="52.073919" lon="05.796949"><ele>-1.2</ele><time>2021-01-12T14:34:42Z</time><name>PT4838</name></trkpt>
<trkpt lat="52.073922" lon="05.796964"><ele>-1.1</ele><time>2021-01-12T14:34:44Z</time><name>PT4839</name></trkpt>
<trkpt lat="52.073927" lon="05.796980"><ele>-1.1</ele><time>2021-01-12T14:34:45Z</time><name>PT4840</name></trkpt>
<trkpt lat="52.073934" lon="05.796992"><ele>-1.1</ele><time>2021-01-12T14:34:45Z</time><name>PT4841</name></trkpt>
<trkpt lat="52.073938" lon="05.797010"><ele>0.9</ele><time>2021-01-12T14:34:47Z</time><name>PT4842</name></trkpt>
<trkpt lat="52.073946" lon="05.797028"><ele>-1</ele><time>2021-01-12T14:34:48Z</time><name>PT4843</name></trkpt>
<trkpt lat="52.073945" lon="05.797040"><ele>0.9</ele><time>2021-01-12T14:34:48Z</time><name>PT4844</name></trkpt>
<trkpt lat="52.073946" lon="05.797056"><ele>0.9</ele><time>2021-01-12T14:34:50Z</time><name>PT4845</name></trkpt>
<trkpt lat="52.073951" lon="05.797075"><ele>-1</ele><time>2021-01-12T14:34:51Z</time><name>PT4846</name></trkpt>
<trkpt lat="52.073956" lon="05.797092"><ele>-1.1</ele><time>2021-01-12T14:34:51Z</time><name>PT4847</name></trkpt>
<trkpt lat="52.073960" lon="05.797104"><ele>-1</ele><time>2021-01-12T14:34:53Z</time><name>PT4848</name></trkpt>
<trkpt lat="52.073965" lon="05.797118"><ele>-1.1</ele><time>2021-01-12T14:34:54Z</time><name>PT4849</name></trkpt>
<trkpt lat="52.073969" lon="05.797133"><ele>-1.1</ele><time>2021-01-12T14:34:54Z</time><name>PT4850</name></trkpt>
<trkpt lat="52.073973" lon="05.797153"><ele>-1</ele><time>2021-01-12T14:34:56Z</time><name>PT4851</name></trkpt>
<trkpt lat="52.073977" lon="05.797166"><ele>0.8</ele><time>2021-01-12T14:34:57Z</time><name>PT4852</name></trkpt>
<trkpt lat="52.073977" lon="05.797177"><ele>0.9</ele><time>2021-01-12T14:34:57Z</time><name>PT4853</name></trkpt>
<trkpt lat="52.073980" lon="05.797188"><ele>-1.1</ele><time>2021-01-12T14:34:59Z</time><name>PT4854</name></trkpt>
<trkpt lat="52.073980" lon="05.797202"><ele>-1.1</ele><time>2021-01-12T14:35:00Z</time><name>PT4855</name></trkpt>
<trkpt lat="52.073981" lon="05.797219"><ele>-1.1</ele><time>2021-01-12T14:35:00Z</time><name>PT4856</name></trkpt>
<trkpt lat="52.073984" lon="05.797230"><ele>-1.3</ele><time>2021-01-12T14:35:02Z</time><name>PT4857</name></trkpt>
<trkpt lat="52.073986" lon="05.797251"><ele>-1.1</ele><time>2021-01-12T14:35:03Z</time><name>PT4858</name></trkpt>
<trkpt lat="52.073988" lon="05.797271"><ele>-1.1</ele><time>2021-01-12T14:35:03Z</time><name>PT4859</name></trkpt>
<trkpt lat="52.073991" lon="05.797288"><ele>-1.2</ele><time>2021-01-12T14:35:05Z</time><name>PT4860</name></trkpt>
<trkpt lat="52.073992" lon="05.797320"><ele>-1.5</ele><time>2021-01-12T14:35:06Z</time><name>PT4861</name></trkpt>
<trkpt lat="52.073997" lon="05.797340"><ele>-1.6</ele><time>2021-01-12T14:35:06Z</time><name>PT4862</name></trkpt>
<trkpt lat="52.074000" lon="05.797359"><ele>-1.6</ele><time>2021-01-12T14:35:08Z</time><name>PT4863</name></trkpt>
<trkpt lat="52.074007" lon="05.797376"><ele>-1.5</ele><time>2021-01-12T14:35:09Z</time><name>PT4864</name></trkpt>
<trkpt lat="52.074010" lon="05.797395"><ele>-1.5</ele><time>2021-01-12T14:35:09Z</time><name>PT4865</name></trkpt>
<trkpt lat="52.074007" lon="05.797417"><ele>-1.1</ele><time>2021-01-12T14:35:11Z</time><name>PT4866</name></trkpt>
<trkpt lat="52.074004" lon="05.797433"><ele>-1.1</ele><time>2021-01-12T14:35:12Z</time><name>PT4867</name></trkpt>
<trkpt lat="52.074006" lon="05.797450"><ele>0.9</ele><time>2021-01-12T14:35:12Z</time><name>PT4868</name></trkpt>
<trkpt lat="52.074014" lon="05.797468"><ele>-1</ele><time>2021-01-12T14:35:14Z</time><name>PT4869</name></trkpt>
<trkpt lat="52.074017" lon="05.797492"><ele>-1</ele><time>2021-01-12T14:35:15Z</time><name>PT4870</name></trkpt>
<trkpt lat="52.074019" lon="05.797507"><ele>0.8</ele><time>2021-01-12T14:35:15Z</time><name>PT4871</name></trkpt>
<trkpt lat="52.074022" lon="05.797522"><ele>-1</ele><time>2021-01-12T14:35:17Z</time><name>PT4872</name></trkpt>
<trkpt lat="52.074025" lon="05.797539"><ele>-1</ele><time>2021-01-12T14:35:18Z</time><name>PT4873</name></trkpt>
<trkpt lat="52.074028" lon="05.797557"><ele>0.9</ele><time>2021-01-12T14:35:18Z</time><name>PT4874</name></trkpt>
<trkpt lat="52.074030" lon="05.797576"><ele>-1</ele><time>2021-01-12T14:35:20Z</time><name>PT4875</name></trkpt>
<trkpt lat="52.074035" lon="05.797595"><ele>0.9</ele><time>2021-01-12T14:35:21Z</time><name>PT4876</name></trkpt>
<trkpt lat="52.074037" lon="05.797616"><ele>0.9</ele><time>2021-01-12T14:35:21Z</time><name>PT4877</name></trkpt>
<trkpt lat="52.074039" lon="05.797632"><ele>-1.1</ele><time>2021-01-12T14:35:23Z</time><name>PT4878</name></trkpt>
<trkpt lat="52.074044" lon="05.797651"><ele>-1.1</ele><time>2021-01-12T14:35:24Z</time><name>PT4879</name></trkpt>
<trkpt lat="52.074047" lon="05.797669"><ele>-1.1</ele><time>2021-01-12T14:35:24Z</time><name>PT4880</name></trkpt>
<trkpt lat="52.074052" lon="05.797687"><ele>-1</ele><time>2021-01-12T14:35:26Z</time><name>PT4881</name></trkpt>
<trkpt lat="52.074059" lon="05.797705"><ele>0.9</ele><time>2021-01-12T14:35:27Z</time><name>PT4882</name></trkpt>
<trkpt lat="52.074064" lon="05.797720"><ele>-1</ele><time>2021-01-12T14:35:27Z</time><name>PT4883</name></trkpt>
<trkpt lat="52.074064" lon="05.797735"><ele>0.8</ele><time>2021-01-12T14:35:29Z</time><name>PT4884</name></trkpt>
<trkpt lat="52.074066" lon="05.797752"><ele>-1</ele><time>2021-01-12T14:35:30Z</time><name>PT4885</name></trkpt>
<trkpt lat="52.074067" lon="05.797771"><ele>-1.1</ele><time>2021-01-12T14:35:30Z</time><name>PT4886</name></trkpt>
<trkpt lat="52.074069" lon="05.797790"><ele>-1</ele><time>2021-01-12T14:35:32Z</time><name>PT4887</name></trkpt>
<trkpt lat="52.074075" lon="05.797809"><ele>-1</ele><time>2021-01-12T14:35:33Z</time><name>PT4888</name></trkpt>
<trkpt lat="52.074081" lon="05.797825"><ele>-1</ele><time>2021-01-12T14:35:33Z</time><name>PT4889</name></trkpt>
<trkpt lat="52.074086" lon="05.797843"><ele>-1.1</ele><time>2021-01-12T14:35:35Z</time><name>PT4890</name></trkpt>
<trkpt lat="52.074093" lon="05.797863"><ele>-1.4</ele><time>2021-01-12T14:35:36Z</time><name>PT4891</name></trkpt>
<trkpt lat="52.074100" lon="05.797883"><ele>-1.5</ele><time>2021-01-12T14:35:36Z</time><name>PT4892</name></trkpt>
<trkpt lat="52.074103" lon="05.797897"><ele>-1.6</ele><time>2021-01-12T14:35:38Z</time><name>PT4893</name></trkpt>
<trkpt lat="52.074105" lon="05.797914"><ele>-1.4</ele><time>2021-01-12T14:35:39Z</time><name>PT4894</name></trkpt>
<trkpt lat="52.074108" lon="05.797933"><ele>-1.3</ele><time>2021-01-12T14:35:39Z</time><name>PT4895</name></trkpt>
<trkpt lat="52.074108" lon="05.797948"><ele>-1.1</ele><time>2021-01-12T14:35:41Z</time><name>PT4896</name></trkpt>
<trkpt lat="52.074115" lon="05.797966"><ele>-1.1</ele><time>2021-01-12T14:35:42Z</time><name>PT4897</name></trkpt>
<trkpt lat="52.074121" lon="05.797981"><ele>-1.2</ele><time>2021-01-12T14:35:42Z</time><name>PT4898</name></trkpt>
<trkpt lat="52.074125" lon="05.797999"><ele>-1.3</ele><time>2021-01-12T14:35:44Z</time><name>PT4899</name></trkpt>
<trkpt lat="52.074127" lon="05.798016"><ele>-1.3</ele><time>2021-01-12T14:35:45Z</time><name>PT4900</name></trkpt>
<trkpt lat="52.074131" lon="05.798033"><ele>-1.3</ele><time>2021-01-12T14:35:45Z</time><name>PT4901</name></trkpt>
<trkpt lat="52.074134" lon="05.798049"><ele>-1.4</ele><time>2021-01-12T14:35:47Z</time><name>PT4902</name></trkpt>
<trkpt lat="52.074138" lon="05.798064"><ele>-1.2</ele><time>2021-01-12T14:35:48Z</time><name>PT4903</name></trkpt>
<trkpt lat="52.074142" lon="05.798081"><ele>-1.5</ele><time>2021-01-12T14:35:48Z</time><name>PT4904</name></trkpt>
<trkpt lat="52.074145" lon="05.798100"><ele>-1.5</ele><time>2021-01-12T14:35:50Z</time><name>PT4905</name></trkpt>
<trkpt lat="52.074149" lon="05.798118"><ele>-1.7</ele><time>2021-01-12T14:35:51Z</time><name>PT4906</name></trkpt>
<trkpt lat="52.074155" lon="05.798135"><ele>-2</ele><time>2021-01-12T14:35:51Z</time><name>PT4907</name></trkpt>
<trkpt lat="52.074161" lon="05.798153"><ele>-2</ele><time>2021-01-12T14:35:53Z</time><name>PT4908</name></trkpt>
<trkpt lat="52.074166" lon="05.798169"><ele>-2</ele><time>2021-01-12T14:35:54Z</time><name>PT4909</name></trkpt>
<trkpt lat="52.074169" lon="05.798185"><ele>-1.9</ele><time>2021-01-12T14:35:54Z</time><name>PT4910</name></trkpt>
<trkpt lat="52.074172" lon="05.798201"><ele>-1.7</ele><time>2021-01-12T14:35:56Z</time><name>PT4911</name></trkpt>
<trkpt lat="52.074173" lon="05.798220"><ele>-1.8</ele><time>2021-01-12T14:35:57Z</time><name>PT4912</name></trkpt>
<trkpt lat="52.074177" lon="05.798239"><ele>-1.9</ele><time>2021-01-12T14:35:57Z</time><name>PT4913</name></trkpt>
<trkpt lat="52.074180" lon="05.798259"><ele>-2.1</ele><time>2021-01-12T14:35:59Z</time><name>PT4914</name></trkpt>
<trkpt lat="52.074182" lon="05.798275"><ele>-2</ele><time>2021-01-12T14:36:00Z</time><name>PT4915</name></trkpt>
<trkpt lat="52.074187" lon="05.798295"><ele>-2.1</ele><time>2021-01-12T14:36:00Z</time><name>PT4916</name></trkpt>
<trkpt lat="52.074192" lon="05.798312"><ele>-2.1</ele><time>2021-01-12T14:36:02Z</time><name>PT4917</name></trkpt>
<trkpt lat="52.074197" lon="05.798329"><ele>-2</ele><time>2021-01-12T14:36:03Z</time><name>PT4918</name></trkpt>
<trkpt lat="52.074202" lon="05.798344"><ele>-2</ele><time>2021-01-12T14:36:03Z</time><name>PT4919</name></trkpt>
<trkpt lat="52.074204" lon="05.798359"><ele>-1.8</ele><time>2021-01-12T14:36:05Z</time><name>PT4920</name></trkpt>
<trkpt lat="52.074206" lon="05.798375"><ele>-1.7</ele><time>2021-01-12T14:36:06Z</time><name>PT4921</name></trkpt>
<trkpt lat="52.074208" lon="05.798389"><ele>-1.8</ele><time>2021-01-12T14:36:06Z</time><name>PT4922</name></trkpt>
<trkpt lat="52.074211" lon="05.798405"><ele>-2.1</ele><time>2021-01-12T14:36:08Z</time><name>PT4923</name></trkpt>
<trkpt lat="52.074216" lon="05.798419"><ele>-2.3</ele><time>2021-01-12T14:36:09Z</time><name>PT4924</name></trkpt>
<trkpt lat="52.074221" lon="05.798436"><ele>-2.6</ele><time>2021-01-12T14:36:09Z</time><name>PT4925</name></trkpt>
<trkpt lat="52.074225" lon="05.798454"><ele>-2.6</ele><time>2021-01-12T14:36:11Z</time><name>PT4926</name></trkpt>
<trkpt lat="52.074230" lon="05.798472"><ele>-2.5</ele><time>2021-01-12T14:36:12Z</time><name>PT4927</name></trkpt>
<trkpt lat="52.074233" lon="05.798486"><ele>-2.2</ele><time>2021-01-12T14:36:12Z</time><name>PT4928</name></trkpt>
<trkpt lat="52.074237" lon="05.798501"><ele>-1.9</ele><time>2021-01-12T14:36:14Z</time><name>PT4929</name></trkpt>
<trkpt lat="52.074236" lon="05.798517"><ele>-1.8</ele><time>2021-01-12T14:36:15Z</time><name>PT4930</name></trkpt>
<trkpt lat="52.074239" lon="05.798530"><ele>-1.9</ele><time>2021-01-12T14:36:15Z</time><name>PT4931</name></trkpt>
<trkpt lat="52.074243" lon="05.798544"><ele>-1.9</ele><time>2021-01-12T14:36:17Z</time><name>PT4932</name></trkpt>
<trkpt lat="52.074247" lon="05.798561"><ele>-2</ele><time>2021-01-12T14:36:18Z</time><name>PT4933</name></trkpt>
<trkpt lat="52.074252" lon="05.798577"><ele>-2.1</ele><time>2021-01-12T14:36:18Z</time><name>PT4934</name></trkpt>
<trkpt lat="52.074256" lon="05.798597"><ele>-2</ele><time>2021-01-12T14:36:20Z</time><name>PT4935</name></trkpt>
<trkpt lat="52.074259" lon="05.798613"><ele>-2.1</ele><time>2021-01-12T14:36:21Z</time><name>PT4936</name></trkpt>
<trkpt lat="52.074261" lon="05.798631"><ele>-1.9</ele><time>2021-01-12T14:36:21Z</time><name>PT4937</name></trkpt>
<trkpt lat="52.074264" lon="05.798649"><ele>-1.9</ele><time>2021-01-12T14:36:23Z</time><name>PT4938</name></trkpt>
<trkpt lat="52.074268" lon="05.798669"><ele>-2.1</ele><time>2021-01-12T14:36:24Z</time><name>PT4939</name></trkpt>
<trkpt lat="52.074273" lon="05.798689"><ele>-2.1</ele><time>2021-01-12T14:36:24Z</time><name>PT4940</name></trkpt>
<trkpt lat="52.074276" lon="05.798704"><ele>-2.1</ele><time>2021-01-12T14:36:26Z</time><name>PT4941</name></trkpt>
<trkpt lat="52.074281" lon="05.798721"><ele>-2.1</ele><time>2021-01-12T14:36:27Z</time><name>PT4942</name></trkpt>
<trkpt lat="52.074286" lon="05.798741"><ele>-2.1</ele><time>2021-01-12T14:36:27Z</time><name>PT4943</name></trkpt>
<trkpt lat="52.074289" lon="05.798759"><ele>-2</ele><time>2021-01-12T14:36:29Z</time><name>PT4944</name></trkpt>
<trkpt lat="52.074292" lon="05.798774"><ele>-2</ele><time>2021-01-12T14:36:30Z</time><name>PT4945</name></trkpt>
<trkpt lat="52.074295" lon="05.798789"><ele>-1.9</ele><time>2021-01-12T14:36:30Z</time><name>PT4946</name></trkpt>
<trkpt lat="52.074299" lon="05.798807"><ele>-1.8</ele><time>2021-01-12T14:36:32Z</time><name>PT4947</name></trkpt>
<trkpt lat="52.074302" lon="05.798823"><ele>-1.6</ele><time>2021-01-12T14:36:33Z</time><name>PT4948</name></trkpt>
<trkpt lat="52.074302" lon="05.798837"><ele>-1.5</ele><time>2021-01-12T14:36:33Z</time><name>PT4949</name></trkpt>
<trkpt lat="52.074303" lon="05.798857"><ele>-1.4</ele><time>2021-01-12T14:36:35Z</time><name>PT4950</name></trkpt>
<trkpt lat="52.074303" lon="05.798874"><ele>-1.3</ele><time>2021-01-12T14:36:36Z</time><name>PT4951</name></trkpt>
<trkpt lat="52.074306" lon="05.798888"><ele>-1.3</ele><time>2021-01-12T14:36:36Z</time><name>PT4952</name></trkpt>
<trkpt lat="52.074308" lon="05.798904"><ele>-1.2</ele><time>2021-01-12T14:36:38Z</time><name>PT4953</name></trkpt>
<trkpt lat="52.074316" lon="05.798921"><ele>-1.2</ele><time>2021-01-12T14:36:39Z</time><name>PT4954</name></trkpt>
<trkpt lat="52.074324" lon="05.798936"><ele>-1.1</ele><time>2021-01-12T14:36:39Z</time><name>PT4955</name></trkpt>
<trkpt lat="52.074328" lon="05.798952"><ele>-1.1</ele><time>2021-01-12T14:36:41Z</time><name>PT4956</name></trkpt>
<trkpt lat="52.074334" lon="05.798968"><ele>-1.1</ele><time>2021-01-12T14:36:42Z</time><name>PT4957</name></trkpt>
<trkpt lat="52.074339" lon="05.798987"><ele>-1.1</ele><time>2021-01-12T14:36:42Z</time><name>PT4958</name></trkpt>
<trkpt lat="52.074345" lon="05.799004"><ele>-1.2</ele><time>2021-01-12T14:36:44Z</time><name>PT4959</name></trkpt>
<trkpt lat="52.074350" lon="05.799022"><ele>-1.2</ele><time>2021-01-12T14:36:45Z</time><name>PT4960</name></trkpt>
<trkpt lat="52.074353" lon="05.799035"><ele>-1.1</ele><time>2021-01-12T14:36:45Z</time><name>PT4961</name></trkpt>
<trkpt lat="52.074356" lon="05.799054"><ele>-1.1</ele><time>2021-01-12T14:36:47Z</time><name>PT4962</name></trkpt>
<trkpt lat="52.074359" lon="05.799069"><ele>-1.1</ele><time>2021-01-12T14:36:48Z</time><name>PT4963</name></trkpt>
<trkpt lat="52.074365" lon="05.799086"><ele>-1.1</ele><time>2021-01-12T14:36:48Z</time><name>PT4964</name></trkpt>
<trkpt lat="52.074369" lon="05.799105"><ele>-1.2</ele><time>2021-01-12T14:36:50Z</time><name>PT4965</name></trkpt>
<trkpt lat="52.074372" lon="05.799127"><ele>-1.2</ele><time>2021-01-12T14:36:51Z</time><name>PT4966</name></trkpt>
<trkpt lat="52.074376" lon="05.799140"><ele>-1.1</ele><time>2021-01-12T14:36:51Z</time><name>PT4967</name></trkpt>
<trkpt lat="52.074379" lon="05.799154"><ele>-1.2</ele><time>2021-01-12T14:36:53Z</time><name>PT4968</name></trkpt>
<trkpt lat="52.074385" lon="05.799173"><ele>-1.4</ele><time>2021-01-12T14:36:54Z</time><name>PT4969</name></trkpt>
<trkpt lat="52.074390" lon="05.799191"><ele>-1.2</ele><time>2021-01-12T14:36:54Z</time><name>PT4970</name></trkpt>
<trkpt lat="52.074395" lon="05.799209"><ele>-1.4</ele><time>2021-01-12T14:36:56Z</time><name>PT4971</name></trkpt>
<trkpt lat="52.074398" lon="05.799232"><ele>-1.4</ele><time>2021-01-12T14:36:57Z</time><name>PT4972</name></trkpt>
<trkpt lat="52.074402" lon="05.799246"><ele>-1.3</ele><time>2021-01-12T14:36:57Z</time><name>PT4973</name></trkpt>
<trkpt lat="52.074405" lon="05.799256"><ele>-1.5</ele><time>2021-01-12T14:36:59Z</time><name>PT4974</name></trkpt>
<trkpt lat="52.074407" lon="05.799273"><ele>-1.4</ele><time>2021-01-12T14:37:00Z</time><name>PT4975</name></trkpt>
<trkpt lat="52.074410" lon="05.799290"><ele>-1.2</ele><time>2021-01-12T14:37:00Z</time><name>PT4976</name></trkpt>
<trkpt lat="52.074412" lon="05.799305"><ele>-1.2</ele><time>2021-01-12T14:37:02Z</time><name>PT4977</name></trkpt>
<trkpt lat="52.074415" lon="05.799325"><ele>-1.2</ele><time>2021-01-12T14:37:03Z</time><name>PT4978</name></trkpt>
<trkpt lat="52.074416" lon="05.799342"><ele>-1.1</ele><time>2021-01-12T14:37:03Z</time><name>PT4979</name></trkpt>
<trkpt lat="52.074420" lon="05.799360"><ele>-1.2</ele><time>2021-01-12T14:37:05Z</time><name>PT4980</name></trkpt>
<trkpt lat="52.074426" lon="05.799374"><ele>-1.3</ele><time>2021-01-12T14:37:06Z</time><name>PT4981</name></trkpt>
<trkpt lat="52.074431" lon="05.799388"><ele>-1.1</ele><time>2021-01-12T14:37:06Z</time><name>PT4982</name></trkpt>
<trkpt lat="52.074434" lon="05.799404"><ele>-1.1</ele><time>2021-01-12T14:37:08Z</time><name>PT4983</name></trkpt>
<trkpt lat="52.074438" lon="05.799418"><ele>-1.1</ele><time>2021-01-12T14:37:09Z</time><name>PT4984</name></trkpt>
<trkpt lat="52.074443" lon="05.799435"><ele>-1.1</ele><time>2021-01-12T14:37:09Z</time><name>PT4985</name></trkpt>
<trkpt lat="52.074443" lon="05.799455"><ele>-1.1</ele><time>2021-01-12T14:37:11Z</time><name>PT4986</name></trkpt>
<trkpt lat="52.074448" lon="05.799469"><ele>-1.1</ele><time>2021-01-12T14:37:12Z</time><name>PT4987</name></trkpt>
<trkpt lat="52.074449" lon="05.799483"><ele>-1.3</ele><time>2021-01-12T14:37:12Z</time><name>PT4988</name></trkpt>
<trkpt lat="52.074452" lon="05.799497"><ele>-1.3</ele><time>2021-01-12T14:37:14Z</time><name>PT4989</name></trkpt>
<trkpt lat="52.074459" lon="05.799512"><ele>-1.1</ele><time>2021-01-12T14:37:15Z</time><name>PT4990</name></trkpt>
<trkpt lat="52.074464" lon="05.799528"><ele>-1.1</ele><time>2021-01-12T14:37:15Z</time><name>PT4991</name></trkpt>
<trkpt lat="52.074470" lon="05.799541"><ele>-1.1</ele><time>2021-01-12T14:37:17Z</time><name>PT4992</name></trkpt>
<trkpt lat="52.074473" lon="05.799558"><ele>-1.1</ele><time>2021-01-12T14:37:18Z</time><name>PT4993</name></trkpt>
<trkpt lat="52.074478" lon="05.799575"><ele>-1.1</ele><time>2021-01-12T14:37:18Z</time><name>PT4994</name></trkpt>
<trkpt lat="52.074479" lon="05.799597"><ele>-1.2</ele><time>2021-01-12T14:37:20Z</time><name>PT4995</name></trkpt>
<trkpt lat="52.074484" lon="05.799616"><ele>-1</ele><time>2021-01-12T14:37:21Z</time><name>PT4996</name></trkpt>
<trkpt lat="52.074489" lon="05.799637"><ele>0.8</ele><time>2021-01-12T14:37:21Z</time><name>PT4997</name></trkpt>
<trkpt lat="52.074491" lon="05.799655"><ele>0.7</ele><time>2021-01-12T14:37:23Z</time><name>PT4998</name></trkpt>
<trkpt lat="52.074496" lon="05.799669"><ele>0.7</ele><time>2021-01-12T14:37:24Z</time><name>PT4999</name></trkpt>
<trkpt lat="52.074501" lon="05.799687"><ele>0.6</ele><time>2021-01-12T14:37:24Z</time><name>PT5000</name></trkpt>
<trkpt lat="52.074503" lon="05.799704"><ele>0.8</ele><time>2021-01-12T14:37:26Z</time><name>PT5001</name></trkpt>
<trkpt lat="52.074506" lon="05.799722"><ele>0.9</ele><time>2021-01-12T14:37:27Z</time><name>PT5002</name></trkpt>
<trkpt lat="52.074505" lon="05.799735"><ele>0.9</ele><time>2021-01-12T14:37:27Z</time><name>PT5003</name></trkpt>
<trkpt lat="52.074508" lon="05.799751"><ele>0.9</ele><time>2021-01-12T14:37:29Z</time><name>PT5004</name></trkpt>
<trkpt lat="52.074511" lon="05.799767"><ele>0.8</ele><time>2021-01-12T14:37:30Z</time><name>PT5005</name></trkpt>
<trkpt lat="52.074516" lon="05.799783"><ele>-1</ele><time>2021-01-12T14:37:30Z</time><name>PT5006</name></trkpt>
<trkpt lat="52.074519" lon="05.799799"><ele>0.9</ele><time>2021-01-12T14:37:32Z</time><name>PT5007</name></trkpt>
<trkpt lat="52.074527" lon="05.799814"><ele>-1</ele><time>2021-01-12T14:37:33Z</time><name>PT5008</name></trkpt>
<trkpt lat="52.074533" lon="05.799831"><ele>-1.1</ele><time>2021-01-12T14:37:33Z</time><name>PT5009</name></trkpt>
<trkpt lat="52.074540" lon="05.799846"><ele>-1.1</ele><time>2021-01-12T14:37:35Z</time><name>PT5010</name></trkpt>
<trkpt lat="52.074543" lon="05.799857"><ele>-1</ele><time>2021-01-12T14:37:36Z</time><name>PT5011</name></trkpt>
<trkpt lat="52.074545" lon="05.799871"><ele>-1.1</ele><time>2021-01-12T14:37:36Z</time><name>PT5012</name></trkpt>
<trkpt lat="52.074551" lon="05.799890"><ele>-1</ele><time>2021-01-12T14:37:38Z</time><name>PT5013</name></trkpt>
<trkpt lat="52.074556" lon="05.799903"><ele>0.9</ele><time>2021-01-12T14:37:39Z</time><name>PT5014</name></trkpt>
<trkpt lat="52.074559" lon="05.799919"><ele>-1</ele><time>2021-01-12T14:37:39Z</time><name>PT5015</name></trkpt>
<trkpt lat="52.074561" lon="05.799934"><ele>-1.1</ele><time>2021-01-12T14:37:41Z</time><name>PT5016</name></trkpt>
<trkpt lat="52.074563" lon="05.799952"><ele>-1.1</ele><time>2021-01-12T14:37:42Z</time><name>PT5017</name></trkpt>
<trkpt lat="52.074565" lon="05.799968"><ele>-1.2</ele><time>2021-01-12T14:37:42Z</time><name>PT5018</name></trkpt>
<trkpt lat="52.074568" lon="05.799979"><ele>-1.1</ele><time>2021-01-12T14:37:44Z</time><name>PT5019</name></trkpt>
<trkpt lat="52.074569" lon="05.799992"><ele>-1.1</ele><time>2021-01-12T14:37:45Z</time><name>PT5020</name></trkpt>
<trkpt lat="52.074571" lon="05.800004"><ele>-1.1</ele><time>2021-01-12T14:37:45Z</time><name>PT5021</name></trkpt>
<trkpt lat="52.074578" lon="05.800016"><ele>-1.1</ele><time>2021-01-12T14:37:47Z</time><name>PT5022</name></trkpt>
<trkpt lat="52.074580" lon="05.800026"><ele>-1.2</ele><time>2021-01-12T14:37:48Z</time><name>PT5023</name></trkpt>
<trkpt lat="52.074588" lon="05.800041"><ele>-1.1</ele><time>2021-01-12T14:37:48Z</time><name>PT5024</name></trkpt>
<trkpt lat="52.074589" lon="05.800053"><ele>-1.1</ele><time>2021-01-12T14:37:50Z</time><name>PT5025</name></trkpt>
<trkpt lat="52.074596" lon="05.800068"><ele>-1.1</ele><time>2021-01-12T14:37:51Z</time><name>PT5026</name></trkpt>
<trkpt lat="52.074602" lon="05.800079"><ele>-1</ele><time>2021-01-12T14:37:51Z</time><name>PT5027</name></trkpt>
<trkpt lat="52.074608" lon="05.800092"><ele>-1</ele><time>2021-01-12T14:37:53Z</time><name>PT5028</name></trkpt>
<trkpt lat="52.074610" lon="05.800102"><ele>-1.1</ele><time>2021-01-12T14:37:54Z</time><name>PT5029</name></trkpt>
<trkpt lat="52.074611" lon="05.800111"><ele>-1.1</ele><time>2021-01-12T14:37:55Z</time><name>PT5030</name></trkpt>
<trkpt lat="52.074609" lon="05.800121"><ele>-1</ele><time>2021-01-12T14:37:56Z</time><name>PT5031</name></trkpt>
<trkpt lat="52.074623" lon="05.800130"><ele>-1</ele><time>2021-01-12T14:37:57Z</time><name>PT5032</name></trkpt>
<trkpt lat="52.074626" lon="05.800142"><ele>0.8</ele><time>2021-01-12T14:37:57Z</time><name>PT5033</name></trkpt>
<trkpt lat="52.074626" lon="05.800155"><ele>0.9</ele><time>2021-01-12T14:37:59Z</time><name>PT5034</name></trkpt>
<trkpt lat="52.074626" lon="05.800162"><ele>-1</ele><time>2021-01-12T14:38:00Z</time><name>PT5035</name></trkpt>
<trkpt lat="52.074631" lon="05.800171"><ele>-1</ele><time>2021-01-12T14:38:00Z</time><name>PT5036</name></trkpt>
<trkpt lat="52.074635" lon="05.800184"><ele>0.9</ele><time>2021-01-12T14:38:02Z</time><name>PT5037</name></trkpt>
<trkpt lat="52.074637" lon="05.800196"><ele>0.7</ele><time>2021-01-12T14:38:03Z</time><name>PT5038</name></trkpt>
<trkpt lat="52.074641" lon="05.800206"><ele>0.8</ele><time>2021-01-12T14:38:03Z</time><name>PT5039</name></trkpt>
<trkpt lat="52.074645" lon="05.800214"><ele>0.9</ele><time>2021-01-12T14:38:05Z</time><name>PT5040</name></trkpt>
<trkpt lat="52.074648" lon="05.800225"><ele>0.9</ele><time>2021-01-12T14:38:06Z</time><name>PT5041</name></trkpt>
<trkpt lat="52.074650" lon="05.800238"><ele>-1</ele><time>2021-01-12T14:38:06Z</time><name>PT5042</name></trkpt>
<trkpt lat="52.074649" lon="05.800247"><ele>0.8</ele><time>2021-01-12T14:38:08Z</time><name>PT5043</name></trkpt>
<trkpt lat="52.074649" lon="05.800254"><ele>0.8</ele><time>2021-01-12T14:38:09Z</time><name>PT5044</name></trkpt>
<trkpt lat="52.074651" lon="05.800266"><ele>0.8</ele><time>2021-01-12T14:38:09Z</time><name>PT5045</name></trkpt>
<trkpt lat="52.074653" lon="05.800269"><ele>0.8</ele><time>2021-01-12T14:38:11Z</time><name>PT5046</name></trkpt>
<trkpt lat="52.074658" lon="05.800269"><ele>0.9</ele><time>2021-01-12T14:38:12Z</time><name>PT5047</name></trkpt>
<trkpt lat="52.074670" lon="05.800281"><ele>31</ele><time>2021-01-12T14:38:21Z</time><name>PT5048</name></trkpt>
<trkpt lat="52.074670" lon="05.800283"><ele>31</ele><time>2021-01-12T14:38:23Z</time><name>PT5049</name></trkpt>
<trkpt lat="52.074666" lon="05.800281"><ele>31</ele><time>2021-01-12T14:38:24Z</time><name>PT5050</name></trkpt>
<trkpt lat="52.074662" lon="05.800267"><ele>31</ele><time>2021-01-12T14:38:25Z</time><name>PT5051</name></trkpt>
<trkpt lat="52.074673" lon="05.800268"><ele>31</ele><time>2021-01-12T14:38:26Z</time><name>PT5052</name></trkpt>
<trkpt lat="52.074671" lon="05.800272"><ele>30.5</ele><time>2021-01-12T14:38:27Z</time><name>PT5053</name></trkpt>
<trkpt lat="52.074668" lon="05.800275"><ele>30.5</ele><time>2021-01-12T14:38:27Z</time><name>PT5054</name></trkpt>
<trkpt lat="52.074668" lon="05.800277"><ele>30.3</ele><time>2021-01-12T14:38:29Z</time><name>PT5055</name></trkpt>
<trkpt lat="52.074672" lon="05.800278"><ele>30.3</ele><time>2021-01-12T14:38:30Z</time><name>PT5056</name></trkpt>
<trkpt lat="52.074673" lon="05.800278"><ele>30.4</ele><time>2021-01-12T14:38:30Z</time><name>PT5057</name></trkpt>
<trkpt lat="52.074673" lon="05.800281"><ele>31.1</ele><time>2021-01-12T14:38:48Z</time><name>PT5058</name></trkpt>
<trkpt lat="52.074675" lon="05.800284"><ele>31.1</ele><time>2021-01-12T14:38:50Z</time><name>PT5059</name></trkpt>
<trkpt lat="52.074676" lon="05.800286"><ele>31.1</ele><time>2021-01-12T14:38:51Z</time><name>PT5060</name></trkpt>
<trkpt lat="52.074678" lon="05.800290"><ele>30.9</ele><time>2021-01-12T14:39:00Z</time><name>PT5061</name></trkpt>
<trkpt lat="52.074678" lon="05.800291"><ele>30.9</ele><time>2021-01-12T14:39:02Z</time><name>PT5062</name></trkpt>
<trkpt lat="52.074681" lon="05.800289"><ele>31</ele><time>2021-01-12T14:39:03Z</time><name>PT5063</name></trkpt>
<trkpt lat="52.074684" lon="05.800292"><ele>30.8</ele><time>2021-01-12T14:39:03Z</time><name>PT5064</name></trkpt>
<trkpt lat="52.074686" lon="05.800295"><ele>30.7</ele><time>2021-01-12T14:39:05Z</time><name>PT5065</name></trkpt>
<trkpt lat="52.074686" lon="05.800297"><ele>30.6</ele><time>2021-01-12T14:39:06Z</time><name>PT5066</name></trkpt>
<trkpt lat="52.074686" lon="05.800305"><ele>30.8</ele><time>2021-01-12T14:39:06Z</time><name>PT5067</name></trkpt>
<trkpt lat="52.074687" lon="05.800311"><ele>31</ele><time>2021-01-12T14:39:08Z</time><name>PT5068</name></trkpt>
<trkpt lat="52.074682" lon="05.800310"><ele>30.5</ele><time>2021-01-12T14:41:42Z</time><name>PT5069</name></trkpt>
<trkpt lat="52.074672" lon="05.800307"><ele>30.5</ele><time>2021-01-12T14:41:42Z</time><name>PT5070</name></trkpt>
<trkpt lat="52.074667" lon="05.800302"><ele>30.5</ele><time>2021-01-12T14:41:44Z</time><name>PT5071</name></trkpt>
<trkpt lat="52.074654" lon="05.800300"><ele>30.5</ele><time>2021-01-12T14:41:45Z</time><name>PT5072</name></trkpt>
<trkpt lat="52.074650" lon="05.800295"><ele>30.4</ele><time>2021-01-12T14:41:45Z</time><name>PT5073</name></trkpt>
<trkpt lat="52.074642" lon="05.800284"><ele>30.4</ele><time>2021-01-12T14:41:47Z</time><name>PT5074</name></trkpt>
<trkpt lat="52.074634" lon="05.800276"><ele>30.4</ele><time>2021-01-12T14:41:48Z</time><name>PT5075</name></trkpt>
<trkpt lat="52.074632" lon="05.800275"><ele>30.5</ele><time>2021-01-12T14:41:48Z</time><name>PT5076</name></trkpt>
<trkpt lat="52.074634" lon="05.800285"><ele>30.5</ele><time>2021-01-12T14:41:50Z</time><name>PT5077</name></trkpt>
<trkpt lat="52.074628" lon="05.800284"><ele>30.4</ele><time>2021-01-12T14:41:51Z</time><name>PT5078</name></trkpt>
<trkpt lat="52.074620" lon="05.800280"><ele>30.4</ele><time>2021-01-12T14:41:51Z</time><name>PT5079</name></trkpt>
<trkpt lat="52.074615" lon="05.800274"><ele>30.4</ele><time>2021-01-12T14:41:53Z</time><name>PT5080</name></trkpt>
<trkpt lat="52.074606" lon="05.800272"><ele>30.3</ele><time>2021-01-12T14:41:54Z</time><name>PT5081</name></trkpt>
<trkpt lat="52.074599" lon="05.800269"><ele>30.3</ele><time>2021-01-12T14:41:54Z</time><name>PT5082</name></trkpt>
<trkpt lat="52.074595" lon="05.800269"><ele>30.2</ele><time>2021-01-12T14:41:56Z</time><name>PT5083</name></trkpt>
<trkpt lat="52.074588" lon="05.800267"><ele>30.1</ele><time>2021-01-12T14:41:57Z</time><name>PT5084</name></trkpt>
<trkpt lat="52.074581" lon="05.800263"><ele>30.1</ele><time>2021-01-12T14:41:57Z</time><name>PT5085</name></trkpt>
<trkpt lat="52.074572" lon="05.800264"><ele>30.2</ele><time>2021-01-12T14:41:59Z</time><name>PT5086</name></trkpt>
<trkpt lat="52.074563" lon="05.800267"><ele>30.2</ele><time>2021-01-12T14:42:00Z</time><name>PT5087</name></trkpt>
<trkpt lat="52.074557" lon="05.800269"><ele>30.3</ele><time>2021-01-12T14:42:00Z</time><name>PT5088</name></trkpt>
<trkpt lat="52.074554" lon="05.800267"><ele>30.4</ele><time>2021-01-12T14:42:02Z</time><name>PT5089</name></trkpt>
<trkpt lat="52.074545" lon="05.800269"><ele>30.5</ele><time>2021-01-12T14:42:03Z</time><name>PT5090</name></trkpt>
<trkpt lat="52.074540" lon="05.800270"><ele>30.5</ele><time>2021-01-12T14:42:03Z</time><name>PT5091</name></trkpt>
<trkpt lat="52.074536" lon="05.800274"><ele>30.5</ele><time>2021-01-12T14:42:05Z</time><name>PT5092</name></trkpt>
<trkpt lat="52.074533" lon="05.800282"><ele>30.5</ele><time>2021-01-12T14:42:06Z</time><name>PT5093</name></trkpt>
<trkpt lat="52.074533" lon="05.800281"><ele>30.5</ele><time>2021-01-12T14:42:06Z</time><name>PT5094</name></trkpt>
<trkpt lat="52.074532" lon="05.800282"><ele>30.2</ele><time>2021-01-12T14:42:08Z</time><name>PT5095</name></trkpt>
<trkpt lat="52.074530" lon="05.800282"><ele>30.2</ele><time>2021-01-12T14:42:09Z</time><name>PT5096</name></trkpt>
<trkpt lat="52.074528" lon="05.800285"><ele>30.2</ele><time>2021-01-12T14:42:09Z</time><name>PT5097</name></trkpt>
<trkpt lat="52.074525" lon="05.800286"><ele>29.9</ele><time>2021-01-12T14:42:11Z</time><name>PT5098</name></trkpt>
<trkpt lat="52.074518" lon="05.800283"><ele>29.9</ele><time>2021-01-12T14:42:12Z</time><name>PT5099</name></trkpt>
<trkpt lat="52.074508" lon="05.800287"><ele>30</ele><time>2021-01-12T14:42:12Z</time><name>PT5100</name></trkpt>
<trkpt lat="52.074500" lon="05.800295"><ele>29.9</ele><time>2021-01-12T14:42:14Z</time><name>PT5101</name></trkpt>
<trkpt lat="52.074492" lon="05.800300"><ele>30</ele><time>2021-01-12T14:42:15Z</time><name>PT5102</name></trkpt>
<trkpt lat="52.074486" lon="05.800299"><ele>30.1</ele><time>2021-01-12T14:42:15Z</time><name>PT5103</name></trkpt>
<trkpt lat="52.074476" lon="05.800308"><ele>30.3</ele><time>2021-01-12T14:42:17Z</time><name>PT5104</name></trkpt>
<trkpt lat="52.074466" lon="05.800316"><ele>30.4</ele><time>2021-01-12T14:42:18Z</time><name>PT5105</name></trkpt>
<trkpt lat="52.074456" lon="05.800326"><ele>30.5</ele><time>2021-01-12T14:42:18Z</time><name>PT5106</name></trkpt>
<trkpt lat="52.074448" lon="05.800328"><ele>30.6</ele><time>2021-01-12T14:42:20Z</time><name>PT5107</name></trkpt>
<trkpt lat="52.074437" lon="05.800333"><ele>30.5</ele><time>2021-01-12T14:42:21Z</time><name>PT5108</name></trkpt>
<trkpt lat="52.074426" lon="05.800336"><ele>30.5</ele><time>2021-01-12T14:42:21Z</time><name>PT5109</name></trkpt>
<trkpt lat="52.074416" lon="05.800341"><ele>30.5</ele><time>2021-01-12T14:42:23Z</time><name>PT5110</name></trkpt>
<trkpt lat="52.074408" lon="05.800343"><ele>30.5</ele><time>2021-01-12T14:42:24Z</time><name>PT5111</name></trkpt>
<trkpt lat="52.074398" lon="05.800343"><ele>30.6</ele><time>2021-01-12T14:42:24Z</time><name>PT5112</name></trkpt>
<trkpt lat="52.074384" lon="05.800349"><ele>30.6</ele><time>2021-01-12T14:42:26Z</time><name>PT5113</name></trkpt>
<trkpt lat="52.074371" lon="05.800356"><ele>30.5</ele><time>2021-01-12T14:42:27Z</time><name>PT5114</name></trkpt>
<trkpt lat="52.074361" lon="05.800362"><ele>30.5</ele><time>2021-01-12T14:42:27Z</time><name>PT5115</name></trkpt>
<trkpt lat="52.074347" lon="05.800370"><ele>30.5</ele><time>2021-01-12T14:42:29Z</time><name>PT5116</name></trkpt>
<trkpt lat="52.074337" lon="05.800376"><ele>30.6</ele><time>2021-01-12T14:42:30Z</time><name>PT5117</name></trkpt>
<trkpt lat="52.074327" lon="05.800382"><ele>30.5</ele><time>2021-01-12T14:42:30Z</time><name>PT5118</name></trkpt>
<trkpt lat="52.074321" lon="05.800380"><ele>30.5</ele><time>2021-01-12T14:42:32Z</time><name>PT5119</name></trkpt>
<trkpt lat="52.074310" lon="05.800389"><ele>30.5</ele><time>2021-01-12T14:42:33Z</time><name>PT5120</name></trkpt>
<trkpt lat="52.074299" lon="05.800393"><ele>30.5</ele><time>2021-01-12T14:42:33Z</time><name>PT5121</name></trkpt>
<trkpt lat="52.074288" lon="05.800398"><ele>30.5</ele><time>2021-01-12T14:42:35Z</time><name>PT5122</name></trkpt>
<trkpt lat="52.074277" lon="05.800407"><ele>30.6</ele><time>2021-01-12T14:42:36Z</time><name>PT5123</name></trkpt>
<trkpt lat="52.074269" lon="05.800411"><ele>30.6</ele><time>2021-01-12T14:42:36Z</time><name>PT5124</name></trkpt>
<trkpt lat="52.074258" lon="05.800418"><ele>30.6</ele><time>2021-01-12T14:42:38Z</time><name>PT5125</name></trkpt>
<trkpt lat="52.074247" lon="05.800425"><ele>30.5</ele><time>2021-01-12T14:42:39Z</time><name>PT5126</name></trkpt>
<trkpt lat="52.074234" lon="05.800439"><ele>30.5</ele><time>2021-01-12T14:42:39Z</time><name>PT5127</name></trkpt>
<trkpt lat="52.074222" lon="05.800447"><ele>30.4</ele><time>2021-01-12T14:42:41Z</time><name>PT5128</name></trkpt>
<trkpt lat="52.074212" lon="05.800455"><ele>30.3</ele><time>2021-01-12T14:42:42Z</time><name>PT5129</name></trkpt>
<trkpt lat="52.074204" lon="05.800463"><ele>30.2</ele><time>2021-01-12T14:42:42Z</time><name>PT5130</name></trkpt>
<trkpt lat="52.074195" lon="05.800472"><ele>30.1</ele><time>2021-01-12T14:42:44Z</time><name>PT5131</name></trkpt>
<trkpt lat="52.074184" lon="05.800487"><ele>30.2</ele><time>2021-01-12T14:42:45Z</time><name>PT5132</name></trkpt>
<trkpt lat="52.074172" lon="05.800494"><ele>30.2</ele><time>2021-01-12T14:42:45Z</time><name>PT5133</name></trkpt>
<trkpt lat="52.074161" lon="05.800498"><ele>30.3</ele><time>2021-01-12T14:42:47Z</time><name>PT5134</name></trkpt>
<trkpt lat="52.074152" lon="05.800501"><ele>30.5</ele><time>2021-01-12T14:42:48Z</time><name>PT5135</name></trkpt>
<trkpt lat="52.074141" lon="05.800504"><ele>30.6</ele><time>2021-01-12T14:42:48Z</time><name>PT5136</name></trkpt>
<trkpt lat="52.074129" lon="05.800509"><ele>30.6</ele><time>2021-01-12T14:42:50Z</time><name>PT5137</name></trkpt>
<trkpt lat="52.074118" lon="05.800513"><ele>30.6</ele><time>2021-01-12T14:42:51Z</time><name>PT5138</name></trkpt>
<trkpt lat="52.074109" lon="05.800515"><ele>30.5</ele><time>2021-01-12T14:42:51Z</time><name>PT5139</name></trkpt>
<trkpt lat="52.074101" lon="05.800519"><ele>30.4</ele><time>2021-01-12T14:42:53Z</time><name>PT5140</name></trkpt>
<trkpt lat="52.074091" lon="05.800520"><ele>30.4</ele><time>2021-01-12T14:42:54Z</time><name>PT5141</name></trkpt>
<trkpt lat="52.074080" lon="05.800525"><ele>30.2</ele><time>2021-01-12T14:42:54Z</time><name>PT5142</name></trkpt>
<trkpt lat="52.074067" lon="05.800530"><ele>30.3</ele><time>2021-01-12T14:42:56Z</time><name>PT5143</name></trkpt>
<trkpt lat="52.074057" lon="05.800536"><ele>30.2</ele><time>2021-01-12T14:42:57Z</time><name>PT5144</name></trkpt>
<trkpt lat="52.074048" lon="05.800543"><ele>30.3</ele><time>2021-01-12T14:42:58Z</time><name>PT5145</name></trkpt>
<trkpt lat="52.074042" lon="05.800549"><ele>30.2</ele><time>2021-01-12T14:42:59Z</time><name>PT5146</name></trkpt>
<trkpt lat="52.074035" lon="05.800551"><ele>30.4</ele><time>2021-01-12T14:43:00Z</time><name>PT5147</name></trkpt>
<trkpt lat="52.074026" lon="05.800556"><ele>30.4</ele><time>2021-01-12T14:43:00Z</time><name>PT5148</name></trkpt>
<trkpt lat="52.074018" lon="05.800561"><ele>30.4</ele><time>2021-01-12T14:43:02Z</time><name>PT5149</name></trkpt>
<trkpt lat="52.074013" lon="05.800562"><ele>30.4</ele><time>2021-01-12T14:43:03Z</time><name>PT5150</name></trkpt>
<trkpt lat="52.074002" lon="05.800566"><ele>30.5</ele><time>2021-01-12T14:43:04Z</time><name>PT5151</name></trkpt>
<trkpt lat="52.073995" lon="05.800568"><ele>30.3</ele><time>2021-01-12T14:43:05Z</time><name>PT5152</name></trkpt>
<trkpt lat="52.073986" lon="05.800569"><ele>30.1</ele><time>2021-01-12T14:43:06Z</time><name>PT5153</name></trkpt>
<trkpt lat="52.073977" lon="05.800570"><ele>30.2</ele><time>2021-01-12T14:43:06Z</time><name>PT5154</name></trkpt>
<trkpt lat="52.073966" lon="05.800576"><ele>30.2</ele><time>2021-01-12T14:43:08Z</time><name>PT5155</name></trkpt>
<trkpt lat="52.073959" lon="05.800575"><ele>30.4</ele><time>2021-01-12T14:43:09Z</time><name>PT5156</name></trkpt>
<trkpt lat="52.073952" lon="05.800577"><ele>30.5</ele><time>2021-01-12T14:43:09Z</time><name>PT5157</name></trkpt>
<trkpt lat="52.073943" lon="05.800580"><ele>30.5</ele><time>2021-01-12T14:43:11Z</time><name>PT5158</name></trkpt>
<trkpt lat="52.073936" lon="05.800583"><ele>30.5</ele><time>2021-01-12T14:43:12Z</time><name>PT5159</name></trkpt>
<trkpt lat="52.073931" lon="05.800585"><ele>30.3</ele><time>2021-01-12T14:43:12Z</time><name>PT5160</name></trkpt>
<trkpt lat="52.073930" lon="05.800587"><ele>30.2</ele><time>2021-01-12T14:43:14Z</time><name>PT5161</name></trkpt>
<trkpt lat="52.073922" lon="05.800589"><ele>30.3</ele><time>2021-01-12T14:43:15Z</time><name>PT5162</name></trkpt>
<trkpt lat="52.073915" lon="05.800589"><ele>30.3</ele><time>2021-01-12T14:43:15Z</time><name>PT5163</name></trkpt>
<trkpt lat="52.073905" lon="05.800592"><ele>30.5</ele><time>2021-01-12T14:43:17Z</time><name>PT5164</name></trkpt>
<trkpt lat="52.073897" lon="05.800593"><ele>30.5</ele><time>2021-01-12T14:43:18Z</time><name>PT5165</name></trkpt>
<trkpt lat="52.073884" lon="05.800598"><ele>30.5</ele><time>2021-01-12T14:43:18Z</time><name>PT5166</name></trkpt>
<trkpt lat="52.073875" lon="05.800598"><ele>30.5</ele><time>2021-01-12T14:43:20Z</time><name>PT5167</name></trkpt>
<trkpt lat="52.073864" lon="05.800600"><ele>30.5</ele><time>2021-01-12T14:43:21Z</time><name>PT5168</name></trkpt>
<trkpt lat="52.073856" lon="05.800601"><ele>30.4</ele><time>2021-01-12T14:43:21Z</time><name>PT5169</name></trkpt>
<trkpt lat="52.073849" lon="05.800599"><ele>30.3</ele><time>2021-01-12T14:43:23Z</time><name>PT5170</name></trkpt>
<trkpt lat="52.073840" lon="05.800601"><ele>30.4</ele><time>2021-01-12T14:43:24Z</time><name>PT5171</name></trkpt>
<trkpt lat="52.073831" lon="05.800601"><ele>30.5</ele><time>2021-01-12T14:43:24Z</time><name>PT5172</name></trkpt>
<trkpt lat="52.073820" lon="05.800600"><ele>30.5</ele><time>2021-01-12T14:43:26Z</time><name>PT5173</name></trkpt>
<trkpt lat="52.073809" lon="05.800602"><ele>30.5</ele><time>2021-01-12T14:43:27Z</time><name>PT5174</name></trkpt>
<trkpt lat="52.073798" lon="05.800603"><ele>30.5</ele><time>2021-01-12T14:43:27Z</time><name>PT5175</name></trkpt>
<trkpt lat="52.073787" lon="05.800604"><ele>30.3</ele><time>2021-01-12T14:43:29Z</time><name>PT5176</name></trkpt>
<trkpt lat="52.073778" lon="05.800605"><ele>30.4</ele><time>2021-01-12T14:43:30Z</time><name>PT5177</name></trkpt>
<trkpt lat="52.073767" lon="05.800609"><ele>30.2</ele><time>2021-01-12T14:43:30Z</time><name>PT5178</name></trkpt>
<trkpt lat="52.073759" lon="05.800609"><ele>30.1</ele><time>2021-01-12T14:43:32Z</time><name>PT5179</name></trkpt>
<trkpt lat="52.073750" lon="05.800610"><ele>30.1</ele><time>2021-01-12T14:43:33Z</time><name>PT5180</name></trkpt>
<trkpt lat="52.073735" lon="05.800612"><ele>30.2</ele><time>2021-01-12T14:43:33Z</time><name>PT5181</name></trkpt>
<trkpt lat="52.073727" lon="05.800605"><ele>30.1</ele><time>2021-01-12T14:43:35Z</time><name>PT5182</name></trkpt>
<trkpt lat="52.073716" lon="05.800607"><ele>30.3</ele><time>2021-01-12T14:43:36Z</time><name>PT5183</name></trkpt>
<trkpt lat="52.073704" lon="05.800610"><ele>30.3</ele><time>2021-01-12T14:43:36Z</time><name>PT5184</name></trkpt>
<trkpt lat="52.073690" lon="05.800614"><ele>30.4</ele><time>2021-01-12T14:43:38Z</time><name>PT5185</name></trkpt>
<trkpt lat="52.073677" lon="05.800618"><ele>30.5</ele><time>2021-01-12T14:43:39Z</time><name>PT5186</name></trkpt>
<trkpt lat="52.073665" lon="05.800617"><ele>30.5</ele><time>2021-01-12T14:43:39Z</time><name>PT5187</name></trkpt>
<trkpt lat="52.073652" lon="05.800618"><ele>30.3</ele><time>2021-01-12T14:43:41Z</time><name>PT5188</name></trkpt>
<trkpt lat="52.073640" lon="05.800623"><ele>30.5</ele><time>2021-01-12T14:43:42Z</time><name>PT5189</name></trkpt>
<trkpt lat="52.073626" lon="05.800621"><ele>30.5</ele><time>2021-01-12T14:43:42Z</time><name>PT5190</name></trkpt>
<trkpt lat="52.073614" lon="05.800621"><ele>30.4</ele><time>2021-01-12T14:43:44Z</time><name>PT5191</name></trkpt>
<trkpt lat="52.073605" lon="05.800622"><ele>30.5</ele><time>2021-01-12T14:43:45Z</time><name>PT5192</name></trkpt>
<trkpt lat="52.073598" lon="05.800620"><ele>30.4</ele><time>2021-01-12T14:43:45Z</time><name>PT5193</name></trkpt>
<trkpt lat="52.073588" lon="05.800618"><ele>30.4</ele><time>2021-01-12T14:43:47Z</time><name>PT5194</name></trkpt>
<trkpt lat="52.073578" lon="05.800615"><ele>30.4</ele><time>2021-01-12T14:43:48Z</time><name>PT5195</name></trkpt>
<trkpt lat="52.073569" lon="05.800613"><ele>30.4</ele><time>2021-01-12T14:43:48Z</time><name>PT5196</name></trkpt>
<trkpt lat="52.073556" lon="05.800615"><ele>30.5</ele><time>2021-01-12T14:43:50Z</time><name>PT5197</name></trkpt>
<trkpt lat="52.073547" lon="05.800616"><ele>30.5</ele><time>2021-01-12T14:43:51Z</time><name>PT5198</name></trkpt>
<trkpt lat="52.073539" lon="05.800619"><ele>30.3</ele><time>2021-01-12T14:43:51Z</time><name>PT5199</name></trkpt>
<trkpt lat="52.073529" lon="05.800622"><ele>30.2</ele><time>2021-01-12T14:43:53Z</time><name>PT5200</name></trkpt>
<trkpt lat="52.073513" lon="05.800628"><ele>30.1</ele><time>2021-01-12T14:43:54Z</time><name>PT5201</name></trkpt>
<trkpt lat="52.073500" lon="05.800630"><ele>30.2</ele><time>2021-01-12T14:43:54Z</time><name>PT5202</name></trkpt>
<trkpt lat="52.073493" lon="05.800624"><ele>30.3</ele><time>2021-01-12T14:43:56Z</time><name>PT5203</name></trkpt>
<trkpt lat="52.073485" lon="05.800625"><ele>30.5</ele><time>2021-01-12T14:43:57Z</time><name>PT5204</name></trkpt>
<trkpt lat="52.073471" lon="05.800629"><ele>30.4</ele><time>2021-01-12T14:43:57Z</time><name>PT5205</name></trkpt>
<trkpt lat="52.073461" lon="05.800631"><ele>30.5</ele><time>2021-01-12T14:43:59Z</time><name>PT5206</name></trkpt>
<trkpt lat="52.073450" lon="05.800636"><ele>30.2</ele><time>2021-01-12T14:44:00Z</time><name>PT5207</name></trkpt>
<trkpt lat="52.073440" lon="05.800635"><ele>30</ele><time>2021-01-12T14:44:00Z</time><name>PT5208</name></trkpt>
<trkpt lat="52.073427" lon="05.800638"><ele>30</ele><time>2021-01-12T14:44:02Z</time><name>PT5209</name></trkpt>
<trkpt lat="52.073418" lon="05.800640"><ele>29.9</ele><time>2021-01-12T14:44:03Z</time><name>PT5210</name></trkpt>
<trkpt lat="52.073409" lon="05.800641"><ele>29.7</ele><time>2021-01-12T14:44:03Z</time><name>PT5211</name></trkpt>
<trkpt lat="52.073399" lon="05.800645"><ele>30</ele><time>2021-01-12T14:44:05Z</time><name>PT5212</name></trkpt>
<trkpt lat="52.073385" lon="05.800645"><ele>30</ele><time>2021-01-12T14:44:06Z</time><name>PT5213</name></trkpt>
<trkpt lat="52.073373" lon="05.800647"><ele>30.2</ele><time>2021-01-12T14:44:06Z</time><name>PT5214</name></trkpt>
<trkpt lat="52.073361" lon="05.800651"><ele>30.4</ele><time>2021-01-12T14:44:08Z</time><name>PT5215</name></trkpt>
<trkpt lat="52.073349" lon="05.800645"><ele>30.3</ele><time>2021-01-12T14:44:09Z</time><name>PT5216</name></trkpt>
<trkpt lat="52.073338" lon="05.800643"><ele>30.3</ele><time>2021-01-12T14:44:09Z</time><name>PT5217</name></trkpt>
<trkpt lat="52.073328" lon="05.800645"><ele>30.2</ele><time>2021-01-12T14:44:11Z</time><name>PT5218</name></trkpt>
<trkpt lat="52.073314" lon="05.800647"><ele>30</ele><time>2021-01-12T14:44:12Z</time><name>PT5219</name></trkpt>
<trkpt lat="52.073304" lon="05.800650"><ele>30</ele><time>2021-01-12T14:44:12Z</time><name>PT5220</name></trkpt>
<trkpt lat="52.073293" lon="05.800648"><ele>30</ele><time>2021-01-12T14:44:14Z</time><name>PT5221</name></trkpt>
<trkpt lat="52.073280" lon="05.800642"><ele>30</ele><time>2021-01-12T14:44:15Z</time><name>PT5222</name></trkpt>
<trkpt lat="52.073273" lon="05.800637"><ele>30.2</ele><time>2021-01-12T14:44:15Z</time><name>PT5223</name></trkpt>
<trkpt lat="52.073260" lon="05.800637"><ele>30.3</ele><time>2021-01-12T14:44:17Z</time><name>PT5224</name></trkpt>
<trkpt lat="52.073250" lon="05.800634"><ele>30.4</ele><time>2021-01-12T14:44:18Z</time><name>PT5225</name></trkpt>
<trkpt lat="52.073240" lon="05.800632"><ele>30.3</ele><time>2021-01-12T14:44:18Z</time><name>PT5226</name></trkpt>
<trkpt lat="52.073232" lon="05.800635"><ele>30.1</ele><time>2021-01-12T14:44:20Z</time><name>PT5227</name></trkpt>
<trkpt lat="52.073223" lon="05.800638"><ele>30</ele><time>2021-01-12T14:44:21Z</time><name>PT5228</name></trkpt>
<trkpt lat="52.073212" lon="05.800638"><ele>30</ele><time>2021-01-12T14:44:21Z</time><name>PT5229</name></trkpt>
<trkpt lat="52.073205" lon="05.800638"><ele>30.1</ele><time>2021-01-12T14:44:23Z</time><name>PT5230</name></trkpt>
<trkpt lat="52.073196" lon="05.800633"><ele>30.1</ele><time>2021-01-12T14:44:24Z</time><name>PT5231</name></trkpt>
<trkpt lat="52.073179" lon="05.800633"><ele>30.2</ele><time>2021-01-12T14:44:24Z</time><name>PT5232</name></trkpt>
<trkpt lat="52.073168" lon="05.800630"><ele>30.2</ele><time>2021-01-12T14:44:26Z</time><name>PT5233</name></trkpt>
<trkpt lat="52.073158" lon="05.800626"><ele>30.1</ele><time>2021-01-12T14:44:27Z</time><name>PT5234</name></trkpt>
<trkpt lat="52.073147" lon="05.800622"><ele>30.2</ele><time>2021-01-12T14:44:27Z</time><name>PT5235</name></trkpt>
<trkpt lat="52.073137" lon="05.800623"><ele>30</ele><time>2021-01-12T14:44:29Z</time><name>PT5236</name></trkpt>
<trkpt lat="52.073127" lon="05.800620"><ele>30</ele><time>2021-01-12T14:44:30Z</time><name>PT5237</name></trkpt>
<trkpt lat="52.073118" lon="05.800616"><ele>30</ele><time>2021-01-12T14:44:30Z</time><name>PT5238</name></trkpt>
<trkpt lat="52.073108" lon="05.800620"><ele>29.9</ele><time>2021-01-12T14:44:32Z</time><name>PT5239</name></trkpt>
<trkpt lat="52.073096" lon="05.800629"><ele>29.9</ele><time>2021-01-12T14:44:33Z</time><name>PT5240</name></trkpt>
<trkpt lat="52.073083" lon="05.800638"><ele>29.7</ele><time>2021-01-12T14:44:33Z</time><name>PT5241</name></trkpt>
<trkpt lat="52.073073" lon="05.800648"><ele>29.9</ele><time>2021-01-12T14:44:35Z</time><name>PT5242</name></trkpt>
<trkpt lat="52.073062" lon="05.800657"><ele>30</ele><time>2021-01-12T14:44:36Z</time><name>PT5243</name></trkpt>
<trkpt lat="52.073047" lon="05.800668"><ele>30</ele><time>2021-01-12T14:44:36Z</time><name>PT5244</name></trkpt>
<trkpt lat="52.073033" lon="05.800672"><ele>30</ele><time>2021-01-12T14:44:38Z</time><name>PT5245</name></trkpt>
<trkpt lat="52.073023" lon="05.800672"><ele>30.2</ele><time>2021-01-12T14:44:39Z</time><name>PT5246</name></trkpt>
<trkpt lat="52.073010" lon="05.800672"><ele>30.1</ele><time>2021-01-12T14:44:39Z</time><name>PT5247</name></trkpt>
<trkpt lat="52.073000" lon="05.800673"><ele>30</ele><time>2021-01-12T14:44:41Z</time><name>PT5248</name></trkpt>
<trkpt lat="52.072989" lon="05.800677"><ele>30</ele><time>2021-01-12T14:44:42Z</time><name>PT5249</name></trkpt>
<trkpt lat="52.072980" lon="05.800679"><ele>30</ele><time>2021-01-12T14:44:42Z</time><name>PT5250</name></trkpt>
<trkpt lat="52.072971" lon="05.800681"><ele>30</ele><time>2021-01-12T14:44:44Z</time><name>PT5251</name></trkpt>
<trkpt lat="52.072961" lon="05.800682"><ele>30.1</ele><time>2021-01-12T14:44:45Z</time><name>PT5252</name></trkpt>
<trkpt lat="52.072951" lon="05.800684"><ele>30</ele><time>2021-01-12T14:44:45Z</time><name>PT5253</name></trkpt>
<trkpt lat="52.072942" lon="05.800686"><ele>30</ele><time>2021-01-12T14:44:47Z</time><name>PT5254</name></trkpt>
<trkpt lat="52.072935" lon="05.800687"><ele>30</ele><time>2021-01-12T14:44:48Z</time><name>PT5255</name></trkpt>
<trkpt lat="52.072924" lon="05.800690"><ele>30</ele><time>2021-01-12T14:44:48Z</time><name>PT5256</name></trkpt>
<trkpt lat="52.072911" lon="05.800694"><ele>30</ele><time>2021-01-12T14:44:50Z</time><name>PT5257</name></trkpt>
<trkpt lat="52.072900" lon="05.800692"><ele>30</ele><time>2021-01-12T14:44:51Z</time><name>PT5258</name></trkpt>
<trkpt lat="52.072888" lon="05.800693"><ele>30</ele><time>2021-01-12T14:44:51Z</time><name>PT5259</name></trkpt>
<trkpt lat="52.072875" lon="05.800698"><ele>30</ele><time>2021-01-12T14:44:53Z</time><name>PT5260</name></trkpt>
<trkpt lat="52.072863" lon="05.800702"><ele>30</ele><time>2021-01-12T14:44:54Z</time><name>PT5261</name></trkpt>
<trkpt lat="52.072846" lon="05.800707"><ele>30.1</ele><time>2021-01-12T14:44:54Z</time><name>PT5262</name></trkpt>
<trkpt lat="52.072837" lon="05.800708"><ele>30.1</ele><time>2021-01-12T14:44:56Z</time><name>PT5263</name></trkpt>
<trkpt lat="52.072829" lon="05.800709"><ele>29.9</ele><time>2021-01-12T14:44:57Z</time><name>PT5264</name></trkpt>
<trkpt lat="52.072819" lon="05.800711"><ele>29.8</ele><time>2021-01-12T14:44:57Z</time><name>PT5265</name></trkpt>
<trkpt lat="52.072807" lon="05.800714"><ele>29.9</ele><time>2021-01-12T14:44:59Z</time><name>PT5266</name></trkpt>
<trkpt lat="52.072793" lon="05.800722"><ele>29.8</ele><time>2021-01-12T14:45:00Z</time><name>PT5267</name></trkpt>
<trkpt lat="52.072780" lon="05.800725"><ele>29.5</ele><time>2021-01-12T14:45:00Z</time><name>PT5268</name></trkpt>
<trkpt lat="52.072767" lon="05.800724"><ele>29.8</ele><time>2021-01-12T14:45:02Z</time><name>PT5269</name></trkpt>
<trkpt lat="52.072753" lon="05.800722"><ele>29.6</ele><time>2021-01-12T14:45:03Z</time><name>PT5270</name></trkpt>
<trkpt lat="52.072740" lon="05.800721"><ele>29.6</ele><time>2021-01-12T14:45:03Z</time><name>PT5271</name></trkpt>
<trkpt lat="52.072731" lon="05.800723"><ele>29.7</ele><time>2021-01-12T14:45:05Z</time><name>PT5272</name></trkpt>
<trkpt lat="52.072722" lon="05.800722"><ele>29.7</ele><time>2021-01-12T14:45:06Z</time><name>PT5273</name></trkpt>
<trkpt lat="52.072706" lon="05.800723"><ele>29.8</ele><time>2021-01-12T14:45:06Z</time><name>PT5274</name></trkpt>
<trkpt lat="52.072702" lon="05.800722"><ele>29.6</ele><time>2021-01-12T14:45:08Z</time><name>PT5275</name></trkpt>
<trkpt lat="52.072693" lon="05.800729"><ele>29.8</ele><time>2021-01-12T14:45:09Z</time><name>PT5276</name></trkpt>
<trkpt lat="52.072692" lon="05.800729"><ele>29.9</ele><time>2021-01-12T14:45:09Z</time><name>PT5277</name></trkpt>
<trkpt lat="52.072689" lon="05.800726"><ele>30.5</ele><time>2021-01-12T14:45:17Z</time><name>PT5278</name></trkpt>
<trkpt lat="52.072679" lon="05.800711"><ele>30.3</ele><time>2021-01-12T14:45:18Z</time><name>PT5279</name></trkpt>
<trkpt lat="52.072665" lon="05.800716"><ele>30.3</ele><time>2021-01-12T14:45:18Z</time><name>PT5280</name></trkpt>
<trkpt lat="52.072653" lon="05.800725"><ele>30.3</ele><time>2021-01-12T14:45:20Z</time><name>PT5281</name></trkpt>
<trkpt lat="52.072644" lon="05.800736"><ele>30.2</ele><time>2021-01-12T14:45:21Z</time><name>PT5282</name></trkpt>
<trkpt lat="52.072635" lon="05.800742"><ele>30.1</ele><time>2021-01-12T14:45:21Z</time><name>PT5283</name></trkpt>
<trkpt lat="52.072628" lon="05.800739"><ele>30.1</ele><time>2021-01-12T14:45:23Z</time><name>PT5284</name></trkpt>
<trkpt lat="52.072627" lon="05.800735"><ele>29.9</ele><time>2021-01-12T14:45:24Z</time><name>PT5285</name></trkpt>
<trkpt lat="52.072621" lon="05.800738"><ele>29.8</ele><time>2021-01-12T14:45:24Z</time><name>PT5286</name></trkpt>
<trkpt lat="52.072616" lon="05.800741"><ele>29.8</ele><time>2021-01-12T14:45:26Z</time><name>PT5287</name></trkpt>
<trkpt lat="52.072615" lon="05.800736"><ele>30</ele><time>2021-01-12T14:45:39Z</time><name>PT5288</name></trkpt>
<trkpt lat="52.072619" lon="05.800731"><ele>29.7</ele><time>2021-01-12T14:45:41Z</time><name>PT5289</name></trkpt>
<trkpt lat="52.072625" lon="05.800728"><ele>29.6</ele><time>2021-01-12T14:45:42Z</time><name>PT5290</name></trkpt>
<trkpt lat="52.072631" lon="05.800725"><ele>29.6</ele><time>2021-01-12T14:45:42Z</time><name>PT5291</name></trkpt>
<trkpt lat="52.072636" lon="05.800722"><ele>29.4</ele><time>2021-01-12T14:45:44Z</time><name>PT5292</name></trkpt>
<trkpt lat="52.072641" lon="05.800718"><ele>29.3</ele><time>2021-01-12T14:45:45Z</time><name>PT5293</name></trkpt>
<trkpt lat="52.072643" lon="05.800712"><ele>29.4</ele><time>2021-01-12T14:45:45Z</time><name>PT5294</name></trkpt>
<trkpt lat="52.072644" lon="05.800711"><ele>29.3</ele><time>2021-01-12T14:45:47Z</time><name>PT5295</name></trkpt>
<trkpt lat="52.072646" lon="05.800718"><ele>29.4</ele><time>2021-01-12T14:45:48Z</time><name>PT5296</name></trkpt>
<trkpt lat="52.072648" lon="05.800721"><ele>29.5</ele><time>2021-01-12T14:45:48Z</time><name>PT5297</name></trkpt>
<trkpt lat="52.072646" lon="05.800722"><ele>29.5</ele><time>2021-01-12T14:45:50Z</time><name>PT5298</name></trkpt>
<trkpt lat="52.072642" lon="05.800720"><ele>29.6</ele><time>2021-01-12T14:45:51Z</time><name>PT5299</name></trkpt>
<trkpt lat="52.072632" lon="05.800722"><ele>29.9</ele><time>2021-01-12T14:45:53Z</time><name>PT5300</name></trkpt>
<trkpt lat="52.072621" lon="05.800723"><ele>30</ele><time>2021-01-12T14:45:54Z</time><name>PT5301</name></trkpt>
<trkpt lat="52.072612" lon="05.800724"><ele>30.1</ele><time>2021-01-12T14:45:54Z</time><name>PT5302</name></trkpt>
<trkpt lat="52.072599" lon="05.800725"><ele>30.2</ele><time>2021-01-12T14:45:56Z</time><name>PT5303</name></trkpt>
<trkpt lat="52.072588" lon="05.800727"><ele>30.3</ele><time>2021-01-12T14:45:57Z</time><name>PT5304</name></trkpt>
<trkpt lat="52.072578" lon="05.800729"><ele>30.1</ele><time>2021-01-12T14:45:57Z</time><name>PT5305</name></trkpt>
<trkpt lat="52.072567" lon="05.800734"><ele>30</ele><time>2021-01-12T14:45:59Z</time><name>PT5306</name></trkpt>
<trkpt lat="52.072554" lon="05.800737"><ele>29.6</ele><time>2021-01-12T14:46:00Z</time><name>PT5307</name></trkpt>
<trkpt lat="52.072542" lon="05.800738"><ele>29.6</ele><time>2021-01-12T14:46:00Z</time><name>PT5308</name></trkpt>
<trkpt lat="52.072532" lon="05.800738"><ele>29.5</ele><time>2021-01-12T14:46:02Z</time><name>PT5309</name></trkpt>
<trkpt lat="52.072520" lon="05.800739"><ele>29.6</ele><time>2021-01-12T14:46:03Z</time><name>PT5310</name></trkpt>
<trkpt lat="52.072508" lon="05.800739"><ele>29.6</ele><time>2021-01-12T14:46:03Z</time><name>PT5311</name></trkpt>
<trkpt lat="52.072496" lon="05.800740"><ele>29.5</ele><time>2021-01-12T14:46:05Z</time><name>PT5312</name></trkpt>
<trkpt lat="52.072485" lon="05.800744"><ele>29.7</ele><time>2021-01-12T14:46:06Z</time><name>PT5313</name></trkpt>
<trkpt lat="52.072476" lon="05.800747"><ele>29.7</ele><time>2021-01-12T14:46:06Z</time><name>PT5314</name></trkpt>
<trkpt lat="52.072462" lon="05.800751"><ele>29.6</ele><time>2021-01-12T14:46:08Z</time><name>PT5315</name></trkpt>
<trkpt lat="52.072453" lon="05.800752"><ele>29.7</ele><time>2021-01-12T14:46:09Z</time><name>PT5316</name></trkpt>
<trkpt lat="52.072444" lon="05.800752"><ele>29.8</ele><time>2021-01-12T14:46:09Z</time><name>PT5317</name></trkpt>
<trkpt lat="52.072432" lon="05.800751"><ele>29.8</ele><time>2021-01-12T14:46:11Z</time><name>PT5318</name></trkpt>
<trkpt lat="52.072417" lon="05.800753"><ele>29.8</ele><time>2021-01-12T14:46:12Z</time><name>PT5319</name></trkpt>
<trkpt lat="52.072403" lon="05.800756"><ele>29.9</ele><time>2021-01-12T14:46:12Z</time><name>PT5320</name></trkpt>
<trkpt lat="52.072394" lon="05.800759"><ele>29.7</ele><time>2021-01-12T14:46:14Z</time><name>PT5321</name></trkpt>
<trkpt lat="52.072382" lon="05.800762"><ele>29.7</ele><time>2021-01-12T14:46:15Z</time><name>PT5322</name></trkpt>
<trkpt lat="52.072369" lon="05.800767"><ele>29.6</ele><time>2021-01-12T14:46:15Z</time><name>PT5323</name></trkpt>
<trkpt lat="52.072355" lon="05.800771"><ele>29.7</ele><time>2021-01-12T14:46:17Z</time><name>PT5324</name></trkpt>
<trkpt lat="52.072343" lon="05.800774"><ele>29.8</ele><time>2021-01-12T14:46:18Z</time><name>PT5325</name></trkpt>
<trkpt lat="52.072333" lon="05.800775"><ele>29.8</ele><time>2021-01-12T14:46:18Z</time><name>PT5326</name></trkpt>
<trkpt lat="52.072323" lon="05.800775"><ele>29.8</ele><time>2021-01-12T14:46:20Z</time><name>PT5327</name></trkpt>
<trkpt lat="52.072310" lon="05.800777"><ele>29.8</ele><time>2021-01-12T14:46:21Z</time><name>PT5328</name></trkpt>
<trkpt lat="52.072297" lon="05.800778"><ele>29.8</ele><time>2021-01-12T14:46:21Z</time><name>PT5329</name></trkpt>
<trkpt lat="52.072284" lon="05.800782"><ele>29.8</ele><time>2021-01-12T14:46:23Z</time><name>PT5330</name></trkpt>
<trkpt lat="52.072273" lon="05.800786"><ele>29.9</ele><time>2021-01-12T14:46:24Z</time><name>PT5331</name></trkpt>
<trkpt lat="52.072261" lon="05.800787"><ele>30</ele><time>2021-01-12T14:46:24Z</time><name>PT5332</name></trkpt>
<trkpt lat="52.072249" lon="05.800791"><ele>29.8</ele><time>2021-01-12T14:46:26Z</time><name>PT5333</name></trkpt>
<trkpt lat="52.072239" lon="05.800795"><ele>29.9</ele><time>2021-01-12T14:46:27Z</time><name>PT5334</name></trkpt>
<trkpt lat="52.072230" lon="05.800796"><ele>29.9</ele><time>2021-01-12T14:46:27Z</time><name>PT5335</name></trkpt>
<trkpt lat="52.072219" lon="05.800797"><ele>29.9</ele><time>2021-01-12T14:46:29Z</time><name>PT5336</name></trkpt>
<trkpt lat="52.072209" lon="05.800799"><ele>30</ele><time>2021-01-12T14:46:30Z</time><name>PT5337</name></trkpt>
<trkpt lat="52.072198" lon="05.800802"><ele>30.1</ele><time>2021-01-12T14:46:30Z</time><name>PT5338</name></trkpt>
<trkpt lat="52.072188" lon="05.800804"><ele>30.2</ele><time>2021-01-12T14:46:32Z</time><name>PT5339</name></trkpt>
<trkpt lat="52.072178" lon="05.800808"><ele>30.3</ele><time>2021-01-12T14:46:33Z</time><name>PT5340</name></trkpt>
<trkpt lat="52.072167" lon="05.800812"><ele>30.2</ele><time>2021-01-12T14:46:33Z</time><name>PT5341</name></trkpt>
<trkpt lat="52.072154" lon="05.800815"><ele>30.4</ele><time>2021-01-12T14:46:35Z</time><name>PT5342</name></trkpt>
<trkpt lat="52.072144" lon="05.800819"><ele>30.4</ele><time>2021-01-12T14:46:36Z</time><name>PT5343</name></trkpt>
<trkpt lat="52.072134" lon="05.800821"><ele>30.3</ele><time>2021-01-12T14:46:36Z</time><name>PT5344</name></trkpt>
<trkpt lat="52.072124" lon="05.800820"><ele>30.5</ele><time>2021-01-12T14:46:38Z</time><name>PT5345</name></trkpt>
<trkpt lat="52.072114" lon="05.800819"><ele>30.4</ele><time>2021-01-12T14:46:39Z</time><name>PT5346</name></trkpt>
<trkpt lat="52.072101" lon="05.800819"><ele>30.3</ele><time>2021-01-12T14:46:39Z</time><name>PT5347</name></trkpt>
<trkpt lat="52.072089" lon="05.800819"><ele>30.1</ele><time>2021-01-12T14:46:41Z</time><name>PT5348</name></trkpt>
<trkpt lat="52.072080" lon="05.800821"><ele>30</ele><time>2021-01-12T14:46:42Z</time><name>PT5349</name></trkpt>
<trkpt lat="52.072069" lon="05.800823"><ele>30</ele><time>2021-01-12T14:46:42Z</time><name>PT5350</name></trkpt>
<trkpt lat="52.072056" lon="05.800827"><ele>29.9</ele><time>2021-01-12T14:46:44Z</time><name>PT5351</name></trkpt>
<trkpt lat="52.072044" lon="05.800830"><ele>29.8</ele><time>2021-01-12T14:46:45Z</time><name>PT5352</name></trkpt>
<trkpt lat="52.072034" lon="05.800830"><ele>29.6</ele><time>2021-01-12T14:46:45Z</time><name>PT5353</name></trkpt>
<trkpt lat="52.072025" lon="05.800830"><ele>29.6</ele><time>2021-01-12T14:46:47Z</time><name>PT5354</name></trkpt>
<trkpt lat="52.072015" lon="05.800832"><ele>29.8</ele><time>2021-01-12T14:46:48Z</time><name>PT5355</name></trkpt>
<trkpt lat="52.072003" lon="05.800832"><ele>29.8</ele><time>2021-01-12T14:46:48Z</time><name>PT5356</name></trkpt>
<trkpt lat="52.071991" lon="05.800832"><ele>30</ele><time>2021-01-12T14:46:50Z</time><name>PT5357</name></trkpt>
<trkpt lat="52.071977" lon="05.800832"><ele>30</ele><time>2021-01-12T14:46:51Z</time><name>PT5358</name></trkpt>
<trkpt lat="52.071964" lon="05.800831"><ele>30</ele><time>2021-01-12T14:46:51Z</time><name>PT5359</name></trkpt>
<trkpt lat="52.071952" lon="05.800830"><ele>30.2</ele><time>2021-01-12T14:46:53Z</time><name>PT5360</name></trkpt>
<trkpt lat="52.071941" lon="05.800829"><ele>30.2</ele><time>2021-01-12T14:46:54Z</time><name>PT5361</name></trkpt>
<trkpt lat="52.071929" lon="05.800830"><ele>30.1</ele><time>2021-01-12T14:46:54Z</time><name>PT5362</name></trkpt>
<trkpt lat="52.071919" lon="05.800831"><ele>30.2</ele><time>2021-01-12T14:46:56Z</time><name>PT5363</name></trkpt>
<trkpt lat="52.071910" lon="05.800831"><ele>30.1</ele><time>2021-01-12T14:46:57Z</time><name>PT5364</name></trkpt>
<trkpt lat="52.071901" lon="05.800828"><ele>30.1</ele><time>2021-01-12T14:46:57Z</time><name>PT5365</name></trkpt>
<trkpt lat="52.071885" lon="05.800832"><ele>30.3</ele><time>2021-01-12T14:46:59Z</time><name>PT5366</name></trkpt>
<trkpt lat="52.071874" lon="05.800833"><ele>30</ele><time>2021-01-12T14:47:00Z</time><name>PT5367</name></trkpt>
<trkpt lat="52.071866" lon="05.800834"><ele>30</ele><time>2021-01-12T14:47:00Z</time><name>PT5368</name></trkpt>
<trkpt lat="52.071856" lon="05.800832"><ele>29.8</ele><time>2021-01-12T14:47:02Z</time><name>PT5369</name></trkpt>
<trkpt lat="52.071845" lon="05.800831"><ele>29.5</ele><time>2021-01-12T14:47:03Z</time><name>PT5370</name></trkpt>
<trkpt lat="52.071835" lon="05.800831"><ele>29.5</ele><time>2021-01-12T14:47:03Z</time><name>PT5371</name></trkpt>
<trkpt lat="52.071826" lon="05.800830"><ele>29.6</ele><time>2021-01-12T14:47:05Z</time><name>PT5372</name></trkpt>
<trkpt lat="52.071818" lon="05.800828"><ele>29.6</ele><time>2021-01-12T14:47:06Z</time><name>PT5373</name></trkpt>
<trkpt lat="52.071805" lon="05.800827"><ele>29.7</ele><time>2021-01-12T14:47:06Z</time><name>PT5374</name></trkpt>
<trkpt lat="52.071795" lon="05.800828"><ele>29.7</ele><time>2021-01-12T14:47:08Z</time><name>PT5375</name></trkpt>
<trkpt lat="52.071785" lon="05.800828"><ele>29.8</ele><time>2021-01-12T14:47:09Z</time><name>PT5376</name></trkpt>
<trkpt lat="52.071774" lon="05.800826"><ele>29.9</ele><time>2021-01-12T14:47:09Z</time><name>PT5377</name></trkpt>
<trkpt lat="52.071767" lon="05.800824"><ele>30.1</ele><time>2021-01-12T14:47:11Z</time><name>PT5378</name></trkpt>
<trkpt lat="52.071758" lon="05.800822"><ele>30.3</ele><time>2021-01-12T14:47:12Z</time><name>PT5379</name></trkpt>
<trkpt lat="52.071750" lon="05.800820"><ele>30.2</ele><time>2021-01-12T14:47:12Z</time><name>PT5380</name></trkpt>
<trkpt lat="52.071742" lon="05.800817"><ele>30.1</ele><time>2021-01-12T14:47:14Z</time><name>PT5381</name></trkpt>
<trkpt lat="52.071730" lon="05.800816"><ele>30</ele><time>2021-01-12T14:47:15Z</time><name>PT5382</name></trkpt>
<trkpt lat="52.071723" lon="05.800813"><ele>30</ele><time>2021-01-12T14:47:15Z</time><name>PT5383</name></trkpt>
<trkpt lat="52.071719" lon="05.800811"><ele>30.1</ele><time>2021-01-12T14:47:17Z</time><name>PT5384</name></trkpt>
<trkpt lat="52.071717" lon="05.800813"><ele>30.3</ele><time>2021-01-12T14:47:18Z</time><name>PT5385</name></trkpt>
<trkpt lat="52.071717" lon="05.800809"><ele>30.4</ele><time>2021-01-12T14:47:18Z</time><name>PT5386</name></trkpt>
<trkpt lat="52.071716" lon="05.800812"><ele>30.3</ele><time>2021-01-12T14:47:20Z</time><name>PT5387</name></trkpt>
<trkpt lat="52.071714" lon="05.800811"><ele>30.1</ele><time>2021-01-12T14:47:21Z</time><name>PT5388</name></trkpt>
<trkpt lat="52.071712" lon="05.800810"><ele>30</ele><time>2021-01-12T14:47:21Z</time><name>PT5389</name></trkpt>
<trkpt lat="52.071711" lon="05.800810"><ele>29.9</ele><time>2021-01-12T14:47:23Z</time><name>PT5390</name></trkpt>
<trkpt lat="52.071707" lon="05.800811"><ele>29.9</ele><time>2021-01-12T14:47:24Z</time><name>PT5391</name></trkpt>
<trkpt lat="52.071705" lon="05.800810"><ele>29.7</ele><time>2021-01-12T14:47:27Z</time><name>PT5392</name></trkpt>
<trkpt lat="52.071697" lon="05.800819"><ele>29.8</ele><time>2021-01-12T14:47:28Z</time><name>PT5393</name></trkpt>
<trkpt lat="52.071688" lon="05.800821"><ele>29.9</ele><time>2021-01-12T14:47:29Z</time><name>PT5394</name></trkpt>
<trkpt lat="52.071677" lon="05.800820"><ele>30</ele><time>2021-01-12T14:47:30Z</time><name>PT5395</name></trkpt>
<trkpt lat="52.071666" lon="05.800819"><ele>30</ele><time>2021-01-12T14:47:30Z</time><name>PT5396</name></trkpt>
<trkpt lat="52.071660" lon="05.800815"><ele>30.1</ele><time>2021-01-12T14:47:32Z</time><name>PT5397</name></trkpt>
<trkpt lat="52.071650" lon="05.800808"><ele>30</ele><time>2021-01-12T14:47:33Z</time><name>PT5398</name></trkpt>
<trkpt lat="52.071642" lon="05.800801"><ele>29.9</ele><time>2021-01-12T14:47:33Z</time><name>PT5399</name></trkpt>
<trkpt lat="52.071632" lon="05.800798"><ele>29.6</ele><time>2021-01-12T14:47:35Z</time><name>PT5400</name></trkpt>
<trkpt lat="52.071624" lon="05.800794"><ele>29.8</ele><time>2021-01-12T14:47:36Z</time><name>PT5401</name></trkpt>
<trkpt lat="52.071613" lon="05.800789"><ele>29.9</ele><time>2021-01-12T14:47:36Z</time><name>PT5402</name></trkpt>
<trkpt lat="52.071603" lon="05.800784"><ele>29.8</ele><time>2021-01-12T14:47:38Z</time><name>PT5403</name></trkpt>
<trkpt lat="52.071594" lon="05.800777"><ele>29.9</ele><time>2021-01-12T14:47:39Z</time><name>PT5404</name></trkpt>
<trkpt lat="52.071584" lon="05.800770"><ele>29.9</ele><time>2021-01-12T14:47:39Z</time><name>PT5405</name></trkpt>
<trkpt lat="52.071573" lon="05.800766"><ele>29.8</ele><time>2021-01-12T14:47:41Z</time><name>PT5406</name></trkpt>
<trkpt lat="52.071564" lon="05.800760"><ele>30</ele><time>2021-01-12T14:47:42Z</time><name>PT5407</name></trkpt>
<trkpt lat="52.071552" lon="05.800758"><ele>30</ele><time>2021-01-12T14:47:42Z</time><name>PT5408</name></trkpt>
<trkpt lat="52.071541" lon="05.800753"><ele>30.1</ele><time>2021-01-12T14:47:44Z</time><name>PT5409</name></trkpt>
<trkpt lat="52.071528" lon="05.800750"><ele>30.2</ele><time>2021-01-12T14:47:45Z</time><name>PT5410</name></trkpt>
<trkpt lat="52.071517" lon="05.800746"><ele>30.1</ele><time>2021-01-12T14:47:45Z</time><name>PT5411</name></trkpt>
<trkpt lat="52.071510" lon="05.800741"><ele>30.1</ele><time>2021-01-12T14:47:47Z</time><name>PT5412</name></trkpt>
<trkpt lat="52.071504" lon="05.800735"><ele>30.1</ele><time>2021-01-12T14:47:48Z</time><name>PT5413</name></trkpt>
<trkpt lat="52.071494" lon="05.800730"><ele>30</ele><time>2021-01-12T14:47:48Z</time><name>PT5414</name></trkpt>
<trkpt lat="52.071483" lon="05.800725"><ele>30</ele><time>2021-01-12T14:47:50Z</time><name>PT5415</name></trkpt>
<trkpt lat="52.071471" lon="05.800724"><ele>29.7</ele><time>2021-01-12T14:47:51Z</time><name>PT5416</name></trkpt>
<trkpt lat="52.071461" lon="05.800721"><ele>29.7</ele><time>2021-01-12T14:47:51Z</time><name>PT5417</name></trkpt>
<trkpt lat="52.071450" lon="05.800720"><ele>29.7</ele><time>2021-01-12T14:47:53Z</time><name>PT5418</name></trkpt>
<trkpt lat="52.071440" lon="05.800719"><ele>30</ele><time>2021-01-12T14:47:54Z</time><name>PT5419</name></trkpt>
<trkpt lat="52.071432" lon="05.800715"><ele>30</ele><time>2021-01-12T14:47:54Z</time><name>PT5420</name></trkpt>
<trkpt lat="52.071422" lon="05.800708"><ele>30.2</ele><time>2021-01-12T14:47:56Z</time><name>PT5421</name></trkpt>
<trkpt lat="52.071409" lon="05.800701"><ele>30.2</ele><time>2021-01-12T14:47:57Z</time><name>PT5422</name></trkpt>
<trkpt lat="52.071399" lon="05.800696"><ele>30</ele><time>2021-01-12T14:47:57Z</time><name>PT5423</name></trkpt>
<trkpt lat="52.071388" lon="05.800694"><ele>30.1</ele><time>2021-01-12T14:47:59Z</time><name>PT5424</name></trkpt>
<trkpt lat="52.071377" lon="05.800690"><ele>30.2</ele><time>2021-01-12T14:48:00Z</time><name>PT5425</name></trkpt>
<trkpt lat="52.071368" lon="05.800685"><ele>30.4</ele><time>2021-01-12T14:48:00Z</time><name>PT5426</name></trkpt>
<trkpt lat="52.071358" lon="05.800681"><ele>30.5</ele><time>2021-01-12T14:48:02Z</time><name>PT5427</name></trkpt>
<trkpt lat="52.071350" lon="05.800676"><ele>30.4</ele><time>2021-01-12T14:48:03Z</time><name>PT5428</name></trkpt>
<trkpt lat="52.071340" lon="05.800671"><ele>30.4</ele><time>2021-01-12T14:48:03Z</time><name>PT5429</name></trkpt>
<trkpt lat="52.071330" lon="05.800665"><ele>30.2</ele><time>2021-01-12T14:48:05Z</time><name>PT5430</name></trkpt>
<trkpt lat="52.071320" lon="05.800660"><ele>30</ele><time>2021-01-12T14:48:06Z</time><name>PT5431</name></trkpt>
<trkpt lat="52.071310" lon="05.800655"><ele>30</ele><time>2021-01-12T14:48:06Z</time><name>PT5432</name></trkpt>
<trkpt lat="52.071297" lon="05.800651"><ele>30</ele><time>2021-01-12T14:48:08Z</time><name>PT5433</name></trkpt>
<trkpt lat="52.071285" lon="05.800649"><ele>29.9</ele><time>2021-01-12T14:48:09Z</time><name>PT5434</name></trkpt>
<trkpt lat="52.071277" lon="05.800644"><ele>29.9</ele><time>2021-01-12T14:48:09Z</time><name>PT5435</name></trkpt>
<trkpt lat="52.071267" lon="05.800635"><ele>29.9</ele><time>2021-01-12T14:48:11Z</time><name>PT5436</name></trkpt>
<trkpt lat="52.071258" lon="05.800625"><ele>30</ele><time>2021-01-12T14:48:12Z</time><name>PT5437</name></trkpt>
<trkpt lat="52.071247" lon="05.800620"><ele>30</ele><time>2021-01-12T14:48:12Z</time><name>PT5438</name></trkpt>
<trkpt lat="52.071235" lon="05.800615"><ele>30</ele><time>2021-01-12T14:48:14Z</time><name>PT5439</name></trkpt>
<trkpt lat="52.071225" lon="05.800610"><ele>30</ele><time>2021-01-12T14:48:15Z</time><name>PT5440</name></trkpt>
<trkpt lat="52.071215" lon="05.800609"><ele>29.9</ele><time>2021-01-12T14:48:15Z</time><name>PT5441</name></trkpt>
<trkpt lat="52.071205" lon="05.800607"><ele>30</ele><time>2021-01-12T14:48:17Z</time><name>PT5442</name></trkpt>
<trkpt lat="52.071195" lon="05.800605"><ele>30</ele><time>2021-01-12T14:48:18Z</time><name>PT5443</name></trkpt>
<trkpt lat="52.071183" lon="05.800604"><ele>30</ele><time>2021-01-12T14:48:18Z</time><name>PT5444</name></trkpt>
<trkpt lat="52.071174" lon="05.800600"><ele>30</ele><time>2021-01-12T14:48:20Z</time><name>PT5445</name></trkpt>
<trkpt lat="52.071164" lon="05.800593"><ele>30</ele><time>2021-01-12T14:48:21Z</time><name>PT5446</name></trkpt>
<trkpt lat="52.071152" lon="05.800588"><ele>30</ele><time>2021-01-12T14:48:21Z</time><name>PT5447</name></trkpt>
<trkpt lat="52.071139" lon="05.800582"><ele>30.1</ele><time>2021-01-12T14:48:23Z</time><name>PT5448</name></trkpt>
<trkpt lat="52.071129" lon="05.800576"><ele>30</ele><time>2021-01-12T14:48:24Z</time><name>PT5449</name></trkpt>
<trkpt lat="52.071118" lon="05.800573"><ele>30</ele><time>2021-01-12T14:48:24Z</time><name>PT5450</name></trkpt>
<trkpt lat="52.071107" lon="05.800570"><ele>30</ele><time>2021-01-12T14:48:26Z</time><name>PT5451</name></trkpt>
<trkpt lat="52.071097" lon="05.800569"><ele>30.2</ele><time>2021-01-12T14:48:27Z</time><name>PT5452</name></trkpt>
<trkpt lat="52.071087" lon="05.800563"><ele>30.1</ele><time>2021-01-12T14:48:27Z</time><name>PT5453</name></trkpt>
<trkpt lat="52.071075" lon="05.800556"><ele>30.3</ele><time>2021-01-12T14:48:29Z</time><name>PT5454</name></trkpt>
<trkpt lat="52.071065" lon="05.800548"><ele>30.4</ele><time>2021-01-12T14:48:30Z</time><name>PT5455</name></trkpt>
<trkpt lat="52.071053" lon="05.800542"><ele>30.2</ele><time>2021-01-12T14:48:30Z</time><name>PT5456</name></trkpt>
<trkpt lat="52.071042" lon="05.800533"><ele>30</ele><time>2021-01-12T14:48:32Z</time><name>PT5457</name></trkpt>
<trkpt lat="52.071032" lon="05.800528"><ele>29.9</ele><time>2021-01-12T14:48:33Z</time><name>PT5458</name></trkpt>
<trkpt lat="52.071021" lon="05.800525"><ele>29.9</ele><time>2021-01-12T14:48:33Z</time><name>PT5459</name></trkpt>
<trkpt lat="52.071008" lon="05.800521"><ele>29.9</ele><time>2021-01-12T14:48:35Z</time><name>PT5460</name></trkpt>
<trkpt lat="52.070999" lon="05.800517"><ele>29.9</ele><time>2021-01-12T14:48:36Z</time><name>PT5461</name></trkpt>
<trkpt lat="52.070988" lon="05.800512"><ele>29.9</ele><time>2021-01-12T14:48:36Z</time><name>PT5462</name></trkpt>
<trkpt lat="52.070982" lon="05.800508"><ele>29.8</ele><time>2021-01-12T14:48:38Z</time><name>PT5463</name></trkpt>
<trkpt lat="52.070974" lon="05.800505"><ele>29.6</ele><time>2021-01-12T14:48:39Z</time><name>PT5464</name></trkpt>
<trkpt lat="52.070966" lon="05.800503"><ele>29.6</ele><time>2021-01-12T14:48:39Z</time><name>PT5465</name></trkpt>
<trkpt lat="52.070954" lon="05.800501"><ele>29.5</ele><time>2021-01-12T14:48:41Z</time><name>PT5466</name></trkpt>
<trkpt lat="52.070943" lon="05.800500"><ele>29.5</ele><time>2021-01-12T14:48:42Z</time><name>PT5467</name></trkpt>
<trkpt lat="52.070934" lon="05.800497"><ele>29.7</ele><time>2021-01-12T14:48:42Z</time><name>PT5468</name></trkpt>
<trkpt lat="52.070924" lon="05.800488"><ele>29.8</ele><time>2021-01-12T14:48:44Z</time><name>PT5469</name></trkpt>
<trkpt lat="52.070914" lon="05.800481"><ele>30</ele><time>2021-01-12T14:48:45Z</time><name>PT5470</name></trkpt>
<trkpt lat="52.070904" lon="05.800475"><ele>30</ele><time>2021-01-12T14:48:45Z</time><name>PT5471</name></trkpt>
<trkpt lat="52.070893" lon="05.800469"><ele>30</ele><time>2021-01-12T14:48:47Z</time><name>PT5472</name></trkpt>
<trkpt lat="52.070879" lon="05.800464"><ele>30</ele><time>2021-01-12T14:48:48Z</time><name>PT5473</name></trkpt>
<trkpt lat="52.070867" lon="05.800462"><ele>29.9</ele><time>2021-01-12T14:48:48Z</time><name>PT5474</name></trkpt>
<trkpt lat="52.070858" lon="05.800460"><ele>30</ele><time>2021-01-12T14:48:50Z</time><name>PT5475</name></trkpt>
<trkpt lat="52.070848" lon="05.800457"><ele>30.1</ele><time>2021-01-12T14:48:51Z</time><name>PT5476</name></trkpt>
<trkpt lat="52.070836" lon="05.800454"><ele>30</ele><time>2021-01-12T14:48:51Z</time><name>PT5477</name></trkpt>
<trkpt lat="52.070826" lon="05.800460"><ele>30</ele><time>2021-01-12T14:48:53Z</time><name>PT5478</name></trkpt>
<trkpt lat="52.070816" lon="05.800458"><ele>29.8</ele><time>2021-01-12T14:48:54Z</time><name>PT5479</name></trkpt>
<trkpt lat="52.070802" lon="05.800461"><ele>29.7</ele><time>2021-01-12T14:48:54Z</time><name>PT5480</name></trkpt>
<trkpt lat="52.070787" lon="05.800458"><ele>29.8</ele><time>2021-01-12T14:48:56Z</time><name>PT5481</name></trkpt>
<trkpt lat="52.070774" lon="05.800456"><ele>29.8</ele><time>2021-01-12T14:48:57Z</time><name>PT5482</name></trkpt>
<trkpt lat="52.070764" lon="05.800458"><ele>29.6</ele><time>2021-01-12T14:48:57Z</time><name>PT5483</name></trkpt>
<trkpt lat="52.070754" lon="05.800459"><ele>29.5</ele><time>2021-01-12T14:48:59Z</time><name>PT5484</name></trkpt>
<trkpt lat="52.070744" lon="05.800462"><ele>29.5</ele><time>2021-01-12T14:49:00Z</time><name>PT5485</name></trkpt>
<trkpt lat="52.070734" lon="05.800460"><ele>29.5</ele><time>2021-01-12T14:49:00Z</time><name>PT5486</name></trkpt>
<trkpt lat="52.070722" lon="05.800462"><ele>29.7</ele><time>2021-01-12T14:49:02Z</time><name>PT5487</name></trkpt>
<trkpt lat="52.070710" lon="05.800460"><ele>29.5</ele><time>2021-01-12T14:49:03Z</time><name>PT5488</name></trkpt>
<trkpt lat="52.070699" lon="05.800457"><ele>29.4</ele><time>2021-01-12T14:49:03Z</time><name>PT5489</name></trkpt>
<trkpt lat="52.070687" lon="05.800456"><ele>29.5</ele><time>2021-01-12T14:49:05Z</time><name>PT5490</name></trkpt>
<trkpt lat="52.070677" lon="05.800455"><ele>29.3</ele><time>2021-01-12T14:49:06Z</time><name>PT5491</name></trkpt>
<trkpt lat="52.070666" lon="05.800456"><ele>29.4</ele><time>2021-01-12T14:49:06Z</time><name>PT5492</name></trkpt>
<trkpt lat="52.070654" lon="05.800459"><ele>29.5</ele><time>2021-01-12T14:49:08Z</time><name>PT5493</name></trkpt>
<trkpt lat="52.070641" lon="05.800463"><ele>29.6</ele><time>2021-01-12T14:49:09Z</time><name>PT5494</name></trkpt>
<trkpt lat="52.070631" lon="05.800463"><ele>29.6</ele><time>2021-01-12T14:49:09Z</time><name>PT5495</name></trkpt>
<trkpt lat="52.070621" lon="05.800464"><ele>29.8</ele><time>2021-01-12T14:49:11Z</time><name>PT5496</name></trkpt>
<trkpt lat="52.070614" lon="05.800457"><ele>29.8</ele><time>2021-01-12T14:49:12Z</time><name>PT5497</name></trkpt>
<trkpt lat="52.070600" lon="05.800458"><ele>29.8</ele><time>2021-01-12T14:49:12Z</time><name>PT5498</name></trkpt>
<trkpt lat="52.070589" lon="05.800458"><ele>29.8</ele><time>2021-01-12T14:49:14Z</time><name>PT5499</name></trkpt>
<trkpt lat="52.070578" lon="05.800458"><ele>29.7</ele><time>2021-01-12T14:49:15Z</time><name>PT5500</name></trkpt>
<trkpt lat="52.070567" lon="05.800458"><ele>29.6</ele><time>2021-01-12T14:49:15Z</time><name>PT5501</name></trkpt>
<trkpt lat="52.070557" lon="05.800457"><ele>29.5</ele><time>2021-01-12T14:49:17Z</time><name>PT5502</name></trkpt>
<trkpt lat="52.070541" lon="05.800458"><ele>29.4</ele><time>2021-01-12T14:49:18Z</time><name>PT5503</name></trkpt>
<trkpt lat="52.070525" lon="05.800459"><ele>29.5</ele><time>2021-01-12T14:49:18Z</time><name>PT5504</name></trkpt>
<trkpt lat="52.070515" lon="05.800457"><ele>29.7</ele><time>2021-01-12T14:49:20Z</time><name>PT5505</name></trkpt>
<trkpt lat="52.070507" lon="05.800458"><ele>29.9</ele><time>2021-01-12T14:49:21Z</time><name>PT5506</name></trkpt>
<trkpt lat="52.070495" lon="05.800461"><ele>30</ele><time>2021-01-12T14:49:21Z</time><name>PT5507</name></trkpt>
<trkpt lat="52.070483" lon="05.800457"><ele>30</ele><time>2021-01-12T14:49:23Z</time><name>PT5508</name></trkpt>
<trkpt lat="52.070467" lon="05.800450"><ele>29.7</ele><time>2021-01-12T14:49:24Z</time><name>PT5509</name></trkpt>
<trkpt lat="52.070456" lon="05.800451"><ele>29.5</ele><time>2021-01-12T14:49:24Z</time><name>PT5510</name></trkpt>
<trkpt lat="52.070443" lon="05.800449"><ele>29.5</ele><time>2021-01-12T14:49:26Z</time><name>PT5511</name></trkpt>
<trkpt lat="52.070432" lon="05.800447"><ele>29.4</ele><time>2021-01-12T14:49:27Z</time><name>PT5512</name></trkpt>
<trkpt lat="52.070421" lon="05.800447"><ele>29.4</ele><time>2021-01-12T14:49:27Z</time><name>PT5513</name></trkpt>
<trkpt lat="52.070412" lon="05.800441"><ele>29.4</ele><time>2021-01-12T14:49:29Z</time><name>PT5514</name></trkpt>
<trkpt lat="52.070399" lon="05.800440"><ele>29.3</ele><time>2021-01-12T14:49:30Z</time><name>PT5515</name></trkpt>
<trkpt lat="52.070387" lon="05.800441"><ele>29.4</ele><time>2021-01-12T14:49:30Z</time><name>PT5516</name></trkpt>
<trkpt lat="52.070377" lon="05.800440"><ele>29.4</ele><time>2021-01-12T14:49:32Z</time><name>PT5517</name></trkpt>
<trkpt lat="52.070366" lon="05.800437"><ele>29.4</ele><time>2021-01-12T14:49:33Z</time><name>PT5518</name></trkpt>
<trkpt lat="52.070354" lon="05.800435"><ele>29.3</ele><time>2021-01-12T14:49:33Z</time><name>PT5519</name></trkpt>
<trkpt lat="52.070342" lon="05.800436"><ele>29.3</ele><time>2021-01-12T14:49:35Z</time><name>PT5520</name></trkpt>
<trkpt lat="52.070330" lon="05.800439"><ele>29.5</ele><time>2021-01-12T14:49:36Z</time><name>PT5521</name></trkpt>
<trkpt lat="52.070319" lon="05.800440"><ele>29.5</ele><time>2021-01-12T14:49:36Z</time><name>PT5522</name></trkpt>
<trkpt lat="52.070306" lon="05.800441"><ele>29.5</ele><time>2021-01-12T14:49:38Z</time><name>PT5523</name></trkpt>
<trkpt lat="52.070294" lon="05.800439"><ele>29.3</ele><time>2021-01-12T14:49:39Z</time><name>PT5524</name></trkpt>
<trkpt lat="52.070280" lon="05.800441"><ele>29</ele><time>2021-01-12T14:49:39Z</time><name>PT5525</name></trkpt>
<trkpt lat="52.070270" lon="05.800443"><ele>28.9</ele><time>2021-01-12T14:49:41Z</time><name>PT5526</name></trkpt>
<trkpt lat="52.070260" lon="05.800440"><ele>29.1</ele><time>2021-01-12T14:49:42Z</time><name>PT5527</name></trkpt>
<trkpt lat="52.070249" lon="05.800437"><ele>29.3</ele><time>2021-01-12T14:49:42Z</time><name>PT5528</name></trkpt>
<trkpt lat="52.070239" lon="05.800434"><ele>29.5</ele><time>2021-01-12T14:49:44Z</time><name>PT5529</name></trkpt>
<trkpt lat="52.070228" lon="05.800434"><ele>29.8</ele><time>2021-01-12T14:49:45Z</time><name>PT5530</name></trkpt>
<trkpt lat="52.070217" lon="05.800434"><ele>29.7</ele><time>2021-01-12T14:49:45Z</time><name>PT5531</name></trkpt>
<trkpt lat="52.070204" lon="05.800432"><ele>29.6</ele><time>2021-01-12T14:49:47Z</time><name>PT5532</name></trkpt>
<trkpt lat="52.070191" lon="05.800434"><ele>29.5</ele><time>2021-01-12T14:49:48Z</time><name>PT5533</name></trkpt>
<trkpt lat="52.070178" lon="05.800434"><ele>29.6</ele><time>2021-01-12T14:49:48Z</time><name>PT5534</name></trkpt>
<trkpt lat="52.070166" lon="05.800436"><ele>29.5</ele><time>2021-01-12T14:49:50Z</time><name>PT5535</name></trkpt>
<trkpt lat="52.070157" lon="05.800437"><ele>29.6</ele><time>2021-01-12T14:49:51Z</time><name>PT5536</name></trkpt>
<trkpt lat="52.070147" lon="05.800433"><ele>29.7</ele><time>2021-01-12T14:49:51Z</time><name>PT5537</name></trkpt>
<trkpt lat="52.070136" lon="05.800430"><ele>29.9</ele><time>2021-01-12T14:49:53Z</time><name>PT5538</name></trkpt>
<trkpt lat="52.070125" lon="05.800432"><ele>29.8</ele><time>2021-01-12T14:49:54Z</time><name>PT5539</name></trkpt>
<trkpt lat="52.070114" lon="05.800429"><ele>29.6</ele><time>2021-01-12T14:49:54Z</time><name>PT5540</name></trkpt>
<trkpt lat="52.070102" lon="05.800425"><ele>29.5</ele><time>2021-01-12T14:49:56Z</time><name>PT5541</name></trkpt>
<trkpt lat="52.070089" lon="05.800420"><ele>29.5</ele><time>2021-01-12T14:49:57Z</time><name>PT5542</name></trkpt>
<trkpt lat="52.070078" lon="05.800416"><ele>29.3</ele><time>2021-01-12T14:49:57Z</time><name>PT5543</name></trkpt>
<trkpt lat="52.070070" lon="05.800414"><ele>29.7</ele><time>2021-01-12T14:49:59Z</time><name>PT5544</name></trkpt>
<trkpt lat="52.070061" lon="05.800415"><ele>29.7</ele><time>2021-01-12T14:50:00Z</time><name>PT5545</name></trkpt>
<trkpt lat="52.070052" lon="05.800415"><ele>29.7</ele><time>2021-01-12T14:50:00Z</time><name>PT5546</name></trkpt>
<trkpt lat="52.070039" lon="05.800416"><ele>29.5</ele><time>2021-01-12T14:50:02Z</time><name>PT5547</name></trkpt>
<trkpt lat="52.070025" lon="05.800414"><ele>29.3</ele><time>2021-01-12T14:50:03Z</time><name>PT5548</name></trkpt>
<trkpt lat="52.070013" lon="05.800414"><ele>29.2</ele><time>2021-01-12T14:50:03Z</time><name>PT5549</name></trkpt>
<trkpt lat="52.070002" lon="05.800412"><ele>29.2</ele><time>2021-01-12T14:50:05Z</time><name>PT5550</name></trkpt>
<trkpt lat="52.069990" lon="05.800413"><ele>29.2</ele><time>2021-01-12T14:50:06Z</time><name>PT5551</name></trkpt>
<trkpt lat="52.069980" lon="05.800422"><ele>29.3</ele><time>2021-01-12T14:50:06Z</time><name>PT5552</name></trkpt>
<trkpt lat="52.069967" lon="05.800427"><ele>29.3</ele><time>2021-01-12T14:50:08Z</time><name>PT5553</name></trkpt>
<trkpt lat="52.069954" lon="05.800432"><ele>29.2</ele><time>2021-01-12T14:50:09Z</time><name>PT5554</name></trkpt>
<trkpt lat="52.069941" lon="05.800437"><ele>29.2</ele><time>2021-01-12T14:50:09Z</time><name>PT5555</name></trkpt>
<trkpt lat="52.069930" lon="05.800440"><ele>29.5</ele><time>2021-01-12T14:50:11Z</time><name>PT5556</name></trkpt>
<trkpt lat="52.069919" lon="05.800444"><ele>29.3</ele><time>2021-01-12T14:50:12Z</time><name>PT5557</name></trkpt>
<trkpt lat="52.069909" lon="05.800448"><ele>29.3</ele><time>2021-01-12T14:50:12Z</time><name>PT5558</name></trkpt>
<trkpt lat="52.069897" lon="05.800449"><ele>29.1</ele><time>2021-01-12T14:50:14Z</time><name>PT5559</name></trkpt>
<trkpt lat="52.069884" lon="05.800450"><ele>29</ele><time>2021-01-12T14:50:15Z</time><name>PT5560</name></trkpt>
<trkpt lat="52.069874" lon="05.800453"><ele>29</ele><time>2021-01-12T14:50:15Z</time><name>PT5561</name></trkpt>
<trkpt lat="52.069865" lon="05.800455"><ele>29</ele><time>2021-01-12T14:50:17Z</time><name>PT5562</name></trkpt>
<trkpt lat="52.069856" lon="05.800457"><ele>29.2</ele><time>2021-01-12T14:50:18Z</time><name>PT5563</name></trkpt>
<trkpt lat="52.069845" lon="05.800459"><ele>29.2</ele><time>2021-01-12T14:50:18Z</time><name>PT5564</name></trkpt>
<trkpt lat="52.069833" lon="05.800462"><ele>29.1</ele><time>2021-01-12T14:50:20Z</time><name>PT5565</name></trkpt>
<trkpt lat="52.069824" lon="05.800464"><ele>29</ele><time>2021-01-12T14:50:21Z</time><name>PT5566</name></trkpt>
<trkpt lat="52.069814" lon="05.800472"><ele>29</ele><time>2021-01-12T14:50:21Z</time><name>PT5567</name></trkpt>
<trkpt lat="52.069802" lon="05.800480"><ele>29</ele><time>2021-01-12T14:50:23Z</time><name>PT5568</name></trkpt>
<trkpt lat="52.069787" lon="05.800484"><ele>29</ele><time>2021-01-12T14:50:24Z</time><name>PT5569</name></trkpt>
<trkpt lat="52.069775" lon="05.800491"><ele>29</ele><time>2021-01-12T14:50:24Z</time><name>PT5570</name></trkpt>
<trkpt lat="52.069766" lon="05.800494"><ele>29</ele><time>2021-01-12T14:50:26Z</time><name>PT5571</name></trkpt>
<trkpt lat="52.069757" lon="05.800502"><ele>29</ele><time>2021-01-12T14:50:27Z</time><name>PT5572</name></trkpt>
<trkpt lat="52.069745" lon="05.800508"><ele>29</ele><time>2021-01-12T14:50:27Z</time><name>PT5573</name></trkpt>
<trkpt lat="52.069733" lon="05.800515"><ele>28.9</ele><time>2021-01-12T14:50:29Z</time><name>PT5574</name></trkpt>
<trkpt lat="52.069722" lon="05.800522"><ele>28.9</ele><time>2021-01-12T14:50:30Z</time><name>PT5575</name></trkpt>
<trkpt lat="52.069712" lon="05.800528"><ele>29</ele><time>2021-01-12T14:50:30Z</time><name>PT5576</name></trkpt>
<trkpt lat="52.069701" lon="05.800535"><ele>29</ele><time>2021-01-12T14:50:32Z</time><name>PT5577</name></trkpt>
<trkpt lat="52.069689" lon="05.800540"><ele>29.1</ele><time>2021-01-12T14:50:33Z</time><name>PT5578</name></trkpt>
<trkpt lat="52.069680" lon="05.800550"><ele>29.1</ele><time>2021-01-12T14:50:33Z</time><name>PT5579</name></trkpt>
<trkpt lat="52.069670" lon="05.800559"><ele>29.1</ele><time>2021-01-12T14:50:35Z</time><name>PT5580</name></trkpt>
<trkpt lat="52.069657" lon="05.800569"><ele>29</ele><time>2021-01-12T14:50:36Z</time><name>PT5581</name></trkpt>
<trkpt lat="52.069646" lon="05.800571"><ele>29</ele><time>2021-01-12T14:50:36Z</time><name>PT5582</name></trkpt>
<trkpt lat="52.069635" lon="05.800579"><ele>29</ele><time>2021-01-12T14:50:38Z</time><name>PT5583</name></trkpt>
<trkpt lat="52.069623" lon="05.800589"><ele>28.8</ele><time>2021-01-12T14:50:39Z</time><name>PT5584</name></trkpt>
<trkpt lat="52.069610" lon="05.800597"><ele>29</ele><time>2021-01-12T14:50:39Z</time><name>PT5585</name></trkpt>
<trkpt lat="52.069596" lon="05.800603"><ele>28.9</ele><time>2021-01-12T14:50:41Z</time><name>PT5586</name></trkpt>
<trkpt lat="52.069585" lon="05.800609"><ele>28.7</ele><time>2021-01-12T14:50:42Z</time><name>PT5587</name></trkpt>
<trkpt lat="52.069575" lon="05.800616"><ele>28.8</ele><time>2021-01-12T14:50:42Z</time><name>PT5588</name></trkpt>
<trkpt lat="52.069562" lon="05.800625"><ele>28.8</ele><time>2021-01-12T14:50:44Z</time><name>PT5589</name></trkpt>
<trkpt lat="52.069550" lon="05.800633"><ele>29</ele><time>2021-01-12T14:50:45Z</time><name>PT5590</name></trkpt>
<trkpt lat="52.069540" lon="05.800635"><ele>29.1</ele><time>2021-01-12T14:50:45Z</time><name>PT5591</name></trkpt>
<trkpt lat="52.069529" lon="05.800642"><ele>29.2</ele><time>2021-01-12T14:50:47Z</time><name>PT5592</name></trkpt>
<trkpt lat="52.069518" lon="05.800649"><ele>29.3</ele><time>2021-01-12T14:50:48Z</time><name>PT5593</name></trkpt>
<trkpt lat="52.069507" lon="05.800657"><ele>29.2</ele><time>2021-01-12T14:50:48Z</time><name>PT5594</name></trkpt>
<trkpt lat="52.069493" lon="05.800668"><ele>29.1</ele><time>2021-01-12T14:50:50Z</time><name>PT5595</name></trkpt>
<trkpt lat="52.069483" lon="05.800675"><ele>29.1</ele><time>2021-01-12T14:50:51Z</time><name>PT5596</name></trkpt>
<trkpt lat="52.069471" lon="05.800680"><ele>29.1</ele><time>2021-01-12T14:50:51Z</time><name>PT5597</name></trkpt>
<trkpt lat="52.069461" lon="05.800684"><ele>29.1</ele><time>2021-01-12T14:50:53Z</time><name>PT5598</name></trkpt>
<trkpt lat="52.069450" lon="05.800689"><ele>29.4</ele><time>2021-01-12T14:50:54Z</time><name>PT5599</name></trkpt>
<trkpt lat="52.069439" lon="05.800696"><ele>29.4</ele><time>2021-01-12T14:50:54Z</time><name>PT5600</name></trkpt>
<trkpt lat="52.069429" lon="05.800704"><ele>29.3</ele><time>2021-01-12T14:50:56Z</time><name>PT5601</name></trkpt>
<trkpt lat="52.069420" lon="05.800707"><ele>29.2</ele><time>2021-01-12T14:50:57Z</time><name>PT5602</name></trkpt>
<trkpt lat="52.069408" lon="05.800712"><ele>29.1</ele><time>2021-01-12T14:50:57Z</time><name>PT5603</name></trkpt>
<trkpt lat="52.069397" lon="05.800719"><ele>29.1</ele><time>2021-01-12T14:50:59Z</time><name>PT5604</name></trkpt>
<trkpt lat="52.069387" lon="05.800724"><ele>29.1</ele><time>2021-01-12T14:51:00Z</time><name>PT5605</name></trkpt>
<trkpt lat="52.069377" lon="05.800729"><ele>29.1</ele><time>2021-01-12T14:51:00Z</time><name>PT5606</name></trkpt>
<trkpt lat="52.069366" lon="05.800734"><ele>29</ele><time>2021-01-12T14:51:02Z</time><name>PT5607</name></trkpt>
<trkpt lat="52.069354" lon="05.800739"><ele>29.2</ele><time>2021-01-12T14:51:03Z</time><name>PT5608</name></trkpt>
<trkpt lat="52.069341" lon="05.800746"><ele>29.2</ele><time>2021-01-12T14:51:03Z</time><name>PT5609</name></trkpt>
<trkpt lat="52.069330" lon="05.800753"><ele>29</ele><time>2021-01-12T14:51:05Z</time><name>PT5610</name></trkpt>
<trkpt lat="52.069318" lon="05.800760"><ele>29</ele><time>2021-01-12T14:51:06Z</time><name>PT5611</name></trkpt>
<trkpt lat="52.069308" lon="05.800767"><ele>29</ele><time>2021-01-12T14:51:06Z</time><name>PT5612</name></trkpt>
<trkpt lat="52.069297" lon="05.800773"><ele>29</ele><time>2021-01-12T14:51:08Z</time><name>PT5613</name></trkpt>
<trkpt lat="52.069289" lon="05.800779"><ele>29.1</ele><time>2021-01-12T14:51:09Z</time><name>PT5614</name></trkpt>
<trkpt lat="52.069280" lon="05.800784"><ele>29.2</ele><time>2021-01-12T14:51:09Z</time><name>PT5615</name></trkpt>
<trkpt lat="52.069269" lon="05.800786"><ele>29.3</ele><time>2021-01-12T14:51:11Z</time><name>PT5616</name></trkpt>
<trkpt lat="52.069256" lon="05.800792"><ele>29.2</ele><time>2021-01-12T14:51:12Z</time><name>PT5617</name></trkpt>
<trkpt lat="52.069245" lon="05.800792"><ele>29</ele><time>2021-01-12T14:51:12Z</time><name>PT5618</name></trkpt>
<trkpt lat="52.069235" lon="05.800799"><ele>29</ele><time>2021-01-12T14:51:14Z</time><name>PT5619</name></trkpt>
<trkpt lat="52.069226" lon="05.800805"><ele>29.2</ele><time>2021-01-12T14:51:15Z</time><name>PT5620</name></trkpt>
<trkpt lat="52.069216" lon="05.800810"><ele>29.3</ele><time>2021-01-12T14:51:15Z</time><name>PT5621</name></trkpt>
<trkpt lat="52.069204" lon="05.800819"><ele>29.1</ele><time>2021-01-12T14:51:17Z</time><name>PT5622</name></trkpt>
<trkpt lat="52.069194" lon="05.800826"><ele>28.9</ele><time>2021-01-12T14:51:18Z</time><name>PT5623</name></trkpt>
<trkpt lat="52.069183" lon="05.800833"><ele>28.9</ele><time>2021-01-12T14:51:18Z</time><name>PT5624</name></trkpt>
<trkpt lat="52.069170" lon="05.800841"><ele>28.7</ele><time>2021-01-12T14:51:20Z</time><name>PT5625</name></trkpt>
<trkpt lat="52.069161" lon="05.800840"><ele>28.7</ele><time>2021-01-12T14:51:21Z</time><name>PT5626</name></trkpt>
<trkpt lat="52.069152" lon="05.800846"><ele>28.9</ele><time>2021-01-12T14:51:21Z</time><name>PT5627</name></trkpt>
<trkpt lat="52.069142" lon="05.800854"><ele>28.8</ele><time>2021-01-12T14:51:23Z</time><name>PT5628</name></trkpt>
<trkpt lat="52.069129" lon="05.800861"><ele>28.9</ele><time>2021-01-12T14:51:24Z</time><name>PT5629</name></trkpt>
<trkpt lat="52.069118" lon="05.800865"><ele>28.8</ele><time>2021-01-12T14:51:24Z</time><name>PT5630</name></trkpt>
<trkpt lat="52.069110" lon="05.800871"><ele>28.7</ele><time>2021-01-12T14:51:26Z</time><name>PT5631</name></trkpt>
<trkpt lat="52.069100" lon="05.800874"><ele>28.7</ele><time>2021-01-12T14:51:27Z</time><name>PT5632</name></trkpt>
<trkpt lat="52.069088" lon="05.800876"><ele>28.8</ele><time>2021-01-12T14:51:27Z</time><name>PT5633</name></trkpt>
<trkpt lat="52.069077" lon="05.800879"><ele>28.6</ele><time>2021-01-12T14:51:29Z</time><name>PT5634</name></trkpt>
<trkpt lat="52.069065" lon="05.800881"><ele>28.6</ele><time>2021-01-12T14:51:30Z</time><name>PT5635</name></trkpt>
<trkpt lat="52.069054" lon="05.800884"><ele>28.6</ele><time>2021-01-12T14:51:30Z</time><name>PT5636</name></trkpt>
<trkpt lat="52.069044" lon="05.800889"><ele>28.6</ele><time>2021-01-12T14:51:32Z</time><name>PT5637</name></trkpt>
<trkpt lat="52.069036" lon="05.800895"><ele>28.8</ele><time>2021-01-12T14:51:33Z</time><name>PT5638</name></trkpt>
<trkpt lat="52.069023" lon="05.800901"><ele>28.8</ele><time>2021-01-12T14:51:33Z</time><name>PT5639</name></trkpt>
<trkpt lat="52.069012" lon="05.800908"><ele>28.8</ele><time>2021-01-12T14:51:35Z</time><name>PT5640</name></trkpt>
<trkpt lat="52.069003" lon="05.800912"><ele>29</ele><time>2021-01-12T14:51:36Z</time><name>PT5641</name></trkpt>
<trkpt lat="52.068992" lon="05.800914"><ele>29</ele><time>2021-01-12T14:51:36Z</time><name>PT5642</name></trkpt>
<trkpt lat="52.068982" lon="05.800916"><ele>28.8</ele><time>2021-01-12T14:51:38Z</time><name>PT5643</name></trkpt>
<trkpt lat="52.068971" lon="05.800918"><ele>28.9</ele><time>2021-01-12T14:51:39Z</time><name>PT5644</name></trkpt>
<trkpt lat="52.068961" lon="05.800921"><ele>28.9</ele><time>2021-01-12T14:51:39Z</time><name>PT5645</name></trkpt>
<trkpt lat="52.068952" lon="05.800925"><ele>28.8</ele><time>2021-01-12T14:51:41Z</time><name>PT5646</name></trkpt>
<trkpt lat="52.068940" lon="05.800928"><ele>29</ele><time>2021-01-12T14:51:42Z</time><name>PT5647</name></trkpt>
<trkpt lat="52.068928" lon="05.800932"><ele>28.9</ele><time>2021-01-12T14:51:42Z</time><name>PT5648</name></trkpt>
<trkpt lat="52.068917" lon="05.800936"><ele>28.9</ele><time>2021-01-12T14:51:44Z</time><name>PT5649</name></trkpt>
<trkpt lat="52.068907" lon="05.800939"><ele>28.8</ele><time>2021-01-12T14:51:45Z</time><name>PT5650</name></trkpt>
<trkpt lat="52.068899" lon="05.800940"><ele>28.9</ele><time>2021-01-12T14:51:45Z</time><name>PT5651</name></trkpt>
<trkpt lat="52.068890" lon="05.800943"><ele>29</ele><time>2021-01-12T14:51:47Z</time><name>PT5652</name></trkpt>
<trkpt lat="52.068884" lon="05.800945"><ele>29</ele><time>2021-01-12T14:51:48Z</time><name>PT5653</name></trkpt>
<trkpt lat="52.068875" lon="05.800950"><ele>29</ele><time>2021-01-12T14:51:48Z</time><name>PT5654</name></trkpt>
<trkpt lat="52.068865" lon="05.800957"><ele>29</ele><time>2021-01-12T14:51:50Z</time><name>PT5655</name></trkpt>
<trkpt lat="52.068854" lon="05.800962"><ele>29</ele><time>2021-01-12T14:51:51Z</time><name>PT5656</name></trkpt>
<trkpt lat="52.068846" lon="05.800969"><ele>29</ele><time>2021-01-12T14:51:51Z</time><name>PT5657</name></trkpt>
<trkpt lat="52.068836" lon="05.800974"><ele>29</ele><time>2021-01-12T14:51:53Z</time><name>PT5658</name></trkpt>
<trkpt lat="52.068824" lon="05.800977"><ele>29.1</ele><time>2021-01-12T14:51:54Z</time><name>PT5659</name></trkpt>
<trkpt lat="52.068810" lon="05.800982"><ele>29</ele><time>2021-01-12T14:51:54Z</time><name>PT5660</name></trkpt>
<trkpt lat="52.068799" lon="05.800985"><ele>29.1</ele><time>2021-01-12T14:51:56Z</time><name>PT5661</name></trkpt>
<trkpt lat="52.068787" lon="05.800991"><ele>29</ele><time>2021-01-12T14:51:57Z</time><name>PT5662</name></trkpt>
<trkpt lat="52.068775" lon="05.800998"><ele>29.1</ele><time>2021-01-12T14:51:57Z</time><name>PT5663</name></trkpt>
<trkpt lat="52.068764" lon="05.801004"><ele>29.2</ele><time>2021-01-12T14:51:59Z</time><name>PT5664</name></trkpt>
<trkpt lat="52.068752" lon="05.801013"><ele>29.1</ele><time>2021-01-12T14:52:00Z</time><name>PT5665</name></trkpt>
<trkpt lat="52.068742" lon="05.801020"><ele>29.2</ele><time>2021-01-12T14:52:00Z</time><name>PT5666</name></trkpt>
<trkpt lat="52.068731" lon="05.801028"><ele>29.2</ele><time>2021-01-12T14:52:02Z</time><name>PT5667</name></trkpt>
<trkpt lat="52.068720" lon="05.801032"><ele>29.1</ele><time>2021-01-12T14:52:03Z</time><name>PT5668</name></trkpt>
<trkpt lat="52.068709" lon="05.801035"><ele>29</ele><time>2021-01-12T14:52:03Z</time><name>PT5669</name></trkpt>
<trkpt lat="52.068696" lon="05.801041"><ele>29.1</ele><time>2021-01-12T14:52:05Z</time><name>PT5670</name></trkpt>
<trkpt lat="52.068684" lon="05.801048"><ele>29.2</ele><time>2021-01-12T14:52:06Z</time><name>PT5671</name></trkpt>
<trkpt lat="52.068673" lon="05.801053"><ele>29.1</ele><time>2021-01-12T14:52:06Z</time><name>PT5672</name></trkpt>
<trkpt lat="52.068663" lon="05.801060"><ele>29.1</ele><time>2021-01-12T14:52:08Z</time><name>PT5673</name></trkpt>
<trkpt lat="52.068653" lon="05.801066"><ele>29.2</ele><time>2021-01-12T14:52:09Z</time><name>PT5674</name></trkpt>
<trkpt lat="52.068645" lon="05.801072"><ele>29.2</ele><time>2021-01-12T14:52:09Z</time><name>PT5675</name></trkpt>
<trkpt lat="52.068636" lon="05.801079"><ele>29.2</ele><time>2021-01-12T14:52:11Z</time><name>PT5676</name></trkpt>
<trkpt lat="52.068625" lon="05.801085"><ele>29.5</ele><time>2021-01-12T14:52:12Z</time><name>PT5677</name></trkpt>
<trkpt lat="52.068612" lon="05.801093"><ele>29.5</ele><time>2021-01-12T14:52:12Z</time><name>PT5678</name></trkpt>
<trkpt lat="52.068601" lon="05.801099"><ele>29.5</ele><time>2021-01-12T14:52:14Z</time><name>PT5679</name></trkpt>
<trkpt lat="52.068591" lon="05.801104"><ele>29.7</ele><time>2021-01-12T14:52:15Z</time><name>PT5680</name></trkpt>
<trkpt lat="52.068580" lon="05.801113"><ele>29.6</ele><time>2021-01-12T14:52:15Z</time><name>PT5681</name></trkpt>
<trkpt lat="52.068568" lon="05.801121"><ele>29.4</ele><time>2021-01-12T14:52:17Z</time><name>PT5682</name></trkpt>
<trkpt lat="52.068559" lon="05.801129"><ele>29.3</ele><time>2021-01-12T14:52:18Z</time><name>PT5683</name></trkpt>
<trkpt lat="52.068549" lon="05.801137"><ele>29.2</ele><time>2021-01-12T14:52:18Z</time><name>PT5684</name></trkpt>
<trkpt lat="52.068538" lon="05.801144"><ele>29</ele><time>2021-01-12T14:52:20Z</time><name>PT5685</name></trkpt>
<trkpt lat="52.068528" lon="05.801151"><ele>29.2</ele><time>2021-01-12T14:52:21Z</time><name>PT5686</name></trkpt>
<trkpt lat="52.068516" lon="05.801157"><ele>29.1</ele><time>2021-01-12T14:52:21Z</time><name>PT5687</name></trkpt>
<trkpt lat="52.068506" lon="05.801155"><ele>29.3</ele><time>2021-01-12T14:52:23Z</time><name>PT5688</name></trkpt>
<trkpt lat="52.068498" lon="05.801160"><ele>29.2</ele><time>2021-01-12T14:52:24Z</time><name>PT5689</name></trkpt>
<trkpt lat="52.068487" lon="05.801165"><ele>29.2</ele><time>2021-01-12T14:52:24Z</time><name>PT5690</name></trkpt>
<trkpt lat="52.068475" lon="05.801173"><ele>29</ele><time>2021-01-12T14:52:26Z</time><name>PT5691</name></trkpt>
<trkpt lat="52.068464" lon="05.801182"><ele>29</ele><time>2021-01-12T14:52:27Z</time><name>PT5692</name></trkpt>
<trkpt lat="52.068452" lon="05.801191"><ele>29</ele><time>2021-01-12T14:52:27Z</time><name>PT5693</name></trkpt>
<trkpt lat="52.068441" lon="05.801200"><ele>29</ele><time>2021-01-12T14:52:29Z</time><name>PT5694</name></trkpt>
<trkpt lat="52.068430" lon="05.801208"><ele>29.1</ele><time>2021-01-12T14:52:30Z</time><name>PT5695</name></trkpt>
<trkpt lat="52.068418" lon="05.801213"><ele>29</ele><time>2021-01-12T14:52:30Z</time><name>PT5696</name></trkpt>
<trkpt lat="52.068407" lon="05.801219"><ele>29</ele><time>2021-01-12T14:52:32Z</time><name>PT5697</name></trkpt>
<trkpt lat="52.068397" lon="05.801224"><ele>29</ele><time>2021-01-12T14:52:33Z</time><name>PT5698</name></trkpt>
<trkpt lat="52.068387" lon="05.801229"><ele>28.8</ele><time>2021-01-12T14:52:33Z</time><name>PT5699</name></trkpt>
<trkpt lat="52.068377" lon="05.801240"><ele>28.7</ele><time>2021-01-12T14:52:35Z</time><name>PT5700</name></trkpt>
<trkpt lat="52.068366" lon="05.801248"><ele>28.7</ele><time>2021-01-12T14:52:36Z</time><name>PT5701</name></trkpt>
<trkpt lat="52.068357" lon="05.801254"><ele>28.7</ele><time>2021-01-12T14:52:36Z</time><name>PT5702</name></trkpt>
<trkpt lat="52.068347" lon="05.801259"><ele>28.6</ele><time>2021-01-12T14:52:38Z</time><name>PT5703</name></trkpt>
<trkpt lat="52.068335" lon="05.801266"><ele>28.7</ele><time>2021-01-12T14:52:39Z</time><name>PT5704</name></trkpt>
<trkpt lat="52.068323" lon="05.801274"><ele>28.8</ele><time>2021-01-12T14:52:39Z</time><name>PT5705</name></trkpt>
<trkpt lat="52.068313" lon="05.801283"><ele>29</ele><time>2021-01-12T14:52:41Z</time><name>PT5706</name></trkpt>
<trkpt lat="52.068302" lon="05.801288"><ele>29</ele><time>2021-01-12T14:52:42Z</time><name>PT5707</name></trkpt>
<trkpt lat="52.068290" lon="05.801293"><ele>29</ele><time>2021-01-12T14:52:42Z</time><name>PT5708</name></trkpt>
<trkpt lat="52.068277" lon="05.801306"><ele>29</ele><time>2021-01-12T14:52:44Z</time><name>PT5709</name></trkpt>
<trkpt lat="52.068268" lon="05.801313"><ele>28.9</ele><time>2021-01-12T14:52:45Z</time><name>PT5710</name></trkpt>
<trkpt lat="52.068255" lon="05.801320"><ele>28.8</ele><time>2021-01-12T14:52:45Z</time><name>PT5711</name></trkpt>
<trkpt lat="52.068243" lon="05.801327"><ele>28.8</ele><time>2021-01-12T14:52:47Z</time><name>PT5712</name></trkpt>
<trkpt lat="52.068232" lon="05.801329"><ele>28.9</ele><time>2021-01-12T14:52:48Z</time><name>PT5713</name></trkpt>
<trkpt lat="52.068220" lon="05.801333"><ele>28.9</ele><time>2021-01-12T14:52:48Z</time><name>PT5714</name></trkpt>
<trkpt lat="52.068210" lon="05.801337"><ele>29</ele><time>2021-01-12T14:52:50Z</time><name>PT5715</name></trkpt>
<trkpt lat="52.068201" lon="05.801341"><ele>28.8</ele><time>2021-01-12T14:52:51Z</time><name>PT5716</name></trkpt>
<trkpt lat="52.068190" lon="05.801348"><ele>28.9</ele><time>2021-01-12T14:52:51Z</time><name>PT5717</name></trkpt>
<trkpt lat="52.068179" lon="05.801353"><ele>28.8</ele><time>2021-01-12T14:52:53Z</time><name>PT5718</name></trkpt>
<trkpt lat="52.068169" lon="05.801360"><ele>28.6</ele><time>2021-01-12T14:52:54Z</time><name>PT5719</name></trkpt>
<trkpt lat="52.068160" lon="05.801364"><ele>28.7</ele><time>2021-01-12T14:52:54Z</time><name>PT5720</name></trkpt>
<trkpt lat="52.068150" lon="05.801367"><ele>28.5</ele><time>2021-01-12T14:52:56Z</time><name>PT5721</name></trkpt>
<trkpt lat="52.068139" lon="05.801373"><ele>28.5</ele><time>2021-01-12T14:52:57Z</time><name>PT5722</name></trkpt>
<trkpt lat="52.068126" lon="05.801378"><ele>28.6</ele><time>2021-01-12T14:52:57Z</time><name>PT5723</name></trkpt>
<trkpt lat="52.068118" lon="05.801382"><ele>28.5</ele><time>2021-01-12T14:52:59Z</time><name>PT5724</name></trkpt>
<trkpt lat="52.068108" lon="05.801382"><ele>28.6</ele><time>2021-01-12T14:53:00Z</time><name>PT5725</name></trkpt>
<trkpt lat="52.068100" lon="05.801386"><ele>28.8</ele><time>2021-01-12T14:53:00Z</time><name>PT5726</name></trkpt>
<trkpt lat="52.068091" lon="05.801387"><ele>28.6</ele><time>2021-01-12T14:53:02Z</time><name>PT5727</name></trkpt>
<trkpt lat="52.068079" lon="05.801391"><ele>28.9</ele><time>2021-01-12T14:53:03Z</time><name>PT5728</name></trkpt>
<trkpt lat="52.068070" lon="05.801395"><ele>29</ele><time>2021-01-12T14:53:03Z</time><name>PT5729</name></trkpt>
<trkpt lat="52.068060" lon="05.801398"><ele>28.8</ele><time>2021-01-12T14:53:05Z</time><name>PT5730</name></trkpt>
<trkpt lat="52.068051" lon="05.801397"><ele>28.8</ele><time>2021-01-12T14:53:06Z</time><name>PT5731</name></trkpt>
<trkpt lat="52.068040" lon="05.801401"><ele>28.9</ele><time>2021-01-12T14:53:07Z</time><name>PT5732</name></trkpt>
<trkpt lat="52.068032" lon="05.801403"><ele>28.9</ele><time>2021-01-12T14:53:08Z</time><name>PT5733</name></trkpt>
<trkpt lat="52.068023" lon="05.801405"><ele>28.8</ele><time>2021-01-12T14:53:09Z</time><name>PT5734</name></trkpt>
<trkpt lat="52.068013" lon="05.801408"><ele>29</ele><time>2021-01-12T14:53:09Z</time><name>PT5735</name></trkpt>
<trkpt lat="52.068004" lon="05.801410"><ele>28.8</ele><time>2021-01-12T14:53:11Z</time><name>PT5736</name></trkpt>
<trkpt lat="52.067995" lon="05.801413"><ele>28.7</ele><time>2021-01-12T14:53:12Z</time><name>PT5737</name></trkpt>
<trkpt lat="52.067990" lon="05.801412"><ele>28.7</ele><time>2021-01-12T14:53:12Z</time><name>PT5738</name></trkpt>
<trkpt lat="52.067983" lon="05.801411"><ele>28.8</ele><time>2021-01-12T14:53:14Z</time><name>PT5739</name></trkpt>
<trkpt lat="52.067974" lon="05.801410"><ele>28.8</ele><time>2021-01-12T14:53:15Z</time><name>PT5740</name></trkpt>
<trkpt lat="52.067965" lon="05.801409"><ele>28.8</ele><time>2021-01-12T14:53:15Z</time><name>PT5741</name></trkpt>
<trkpt lat="52.067957" lon="05.801413"><ele>28.7</ele><time>2021-01-12T14:53:17Z</time><name>PT5742</name></trkpt>
<trkpt lat="52.067947" lon="05.801422"><ele>28.5</ele><time>2021-01-12T14:53:18Z</time><name>PT5743</name></trkpt>
<trkpt lat="52.067933" lon="05.801432"><ele>28.6</ele><time>2021-01-12T14:53:18Z</time><name>PT5744</name></trkpt>
<trkpt lat="52.067925" lon="05.801435"><ele>28.7</ele><time>2021-01-12T14:53:20Z</time><name>PT5745</name></trkpt>
<trkpt lat="52.067915" lon="05.801438"><ele>28.8</ele><time>2021-01-12T14:53:21Z</time><name>PT5746</name></trkpt>
<trkpt lat="52.067904" lon="05.801440"><ele>29</ele><time>2021-01-12T14:53:21Z</time><name>PT5747</name></trkpt>
<trkpt lat="52.067896" lon="05.801446"><ele>28.8</ele><time>2021-01-12T14:53:23Z</time><name>PT5748</name></trkpt>
<trkpt lat="52.067889" lon="05.801449"><ele>28.7</ele><time>2021-01-12T14:53:24Z</time><name>PT5749</name></trkpt>
<trkpt lat="52.067882" lon="05.801454"><ele>28.5</ele><time>2021-01-12T14:53:24Z</time><name>PT5750</name></trkpt>
<trkpt lat="52.067872" lon="05.801458"><ele>28.5</ele><time>2021-01-12T14:53:26Z</time><name>PT5751</name></trkpt>
<trkpt lat="52.067863" lon="05.801458"><ele>28.5</ele><time>2021-01-12T14:53:27Z</time><name>PT5752</name></trkpt>
<trkpt lat="52.067855" lon="05.801459"><ele>28.7</ele><time>2021-01-12T14:53:27Z</time><name>PT5753</name></trkpt>
<trkpt lat="52.067851" lon="05.801457"><ele>29</ele><time>2021-01-12T14:53:29Z</time><name>PT5754</name></trkpt>
<trkpt lat="52.067841" lon="05.801458"><ele>29.1</ele><time>2021-01-12T14:53:30Z</time><name>PT5755</name></trkpt>
<trkpt lat="52.067830" lon="05.801461"><ele>29.1</ele><time>2021-01-12T14:53:30Z</time><name>PT5756</name></trkpt>
<trkpt lat="52.067819" lon="05.801462"><ele>29.1</ele><time>2021-01-12T14:53:32Z</time><name>PT5757</name></trkpt>
<trkpt lat="52.067808" lon="05.801464"><ele>29</ele><time>2021-01-12T14:53:33Z</time><name>PT5758</name></trkpt>
<trkpt lat="52.067797" lon="05.801472"><ele>28.8</ele><time>2021-01-12T14:53:33Z</time><name>PT5759</name></trkpt>
<trkpt lat="52.067784" lon="05.801476"><ele>28.7</ele><time>2021-01-12T14:53:35Z</time><name>PT5760</name></trkpt>
<trkpt lat="52.067771" lon="05.801481"><ele>29</ele><time>2021-01-12T14:53:36Z</time><name>PT5761</name></trkpt>
<trkpt lat="52.067761" lon="05.801484"><ele>29.1</ele><time>2021-01-12T14:53:36Z</time><name>PT5762</name></trkpt>
<trkpt lat="52.067749" lon="05.801489"><ele>29.3</ele><time>2021-01-12T14:53:38Z</time><name>PT5763</name></trkpt>
<trkpt lat="52.067738" lon="05.801494"><ele>29.5</ele><time>2021-01-12T14:53:39Z</time><name>PT5764</name></trkpt>
<trkpt lat="52.067729" lon="05.801499"><ele>29.5</ele><time>2021-01-12T14:53:39Z</time><name>PT5765</name></trkpt>
<trkpt lat="52.067721" lon="05.801509"><ele>29.3</ele><time>2021-01-12T14:53:41Z</time><name>PT5766</name></trkpt>
<trkpt lat="52.067712" lon="05.801517"><ele>29.4</ele><time>2021-01-12T14:53:42Z</time><name>PT5767</name></trkpt>
<trkpt lat="52.067709" lon="05.801523"><ele>29.5</ele><time>2021-01-12T14:53:42Z</time><name>PT5768</name></trkpt>
<trkpt lat="52.067699" lon="05.801528"><ele>29.4</ele><time>2021-01-12T14:53:44Z</time><name>PT5769</name></trkpt>
<trkpt lat="52.067689" lon="05.801528"><ele>29.6</ele><time>2021-01-12T14:53:45Z</time><name>PT5770</name></trkpt>
<trkpt lat="52.067677" lon="05.801531"><ele>29.6</ele><time>2021-01-12T14:53:45Z</time><name>PT5771</name></trkpt>
<trkpt lat="52.067666" lon="05.801539"><ele>29.5</ele><time>2021-01-12T14:53:47Z</time><name>PT5772</name></trkpt>
<trkpt lat="52.067654" lon="05.801545"><ele>29.5</ele><time>2021-01-12T14:53:48Z</time><name>PT5773</name></trkpt>
<trkpt lat="52.067638" lon="05.801548"><ele>29.4</ele><time>2021-01-12T14:53:48Z</time><name>PT5774</name></trkpt>
<trkpt lat="52.067626" lon="05.801559"><ele>29.5</ele><time>2021-01-12T14:53:50Z</time><name>PT5775</name></trkpt>
<trkpt lat="52.067615" lon="05.801568"><ele>29.5</ele><time>2021-01-12T14:53:51Z</time><name>PT5776</name></trkpt>
<trkpt lat="52.067605" lon="05.801574"><ele>29.4</ele><time>2021-01-12T14:53:51Z</time><name>PT5777</name></trkpt>
<trkpt lat="52.067594" lon="05.801581"><ele>29.4</ele><time>2021-01-12T14:53:53Z</time><name>PT5778</name></trkpt>
<trkpt lat="52.067577" lon="05.801595"><ele>29.3</ele><time>2021-01-12T14:53:54Z</time><name>PT5779</name></trkpt>
<trkpt lat="52.067568" lon="05.801607"><ele>29.2</ele><time>2021-01-12T14:53:54Z</time><name>PT5780</name></trkpt>
<trkpt lat="52.067558" lon="05.801620"><ele>29.4</ele><time>2021-01-12T14:53:56Z</time><name>PT5781</name></trkpt>
<trkpt lat="52.067551" lon="05.801636"><ele>29.3</ele><time>2021-01-12T14:53:57Z</time><name>PT5782</name></trkpt>
<trkpt lat="52.067540" lon="05.801645"><ele>29.3</ele><time>2021-01-12T14:53:57Z</time><name>PT5783</name></trkpt>
<trkpt lat="52.067532" lon="05.801656"><ele>29.4</ele><time>2021-01-12T14:53:59Z</time><name>PT5784</name></trkpt>
<trkpt lat="52.067523" lon="05.801665"><ele>29.3</ele><time>2021-01-12T14:54:00Z</time><name>PT5785</name></trkpt>
<trkpt lat="52.067520" lon="05.801660"><ele>29.4</ele><time>2021-01-12T14:54:00Z</time><name>PT5786</name></trkpt>
<trkpt lat="52.067510" lon="05.801664"><ele>29.5</ele><time>2021-01-12T14:54:02Z</time><name>PT5787</name></trkpt>
<trkpt lat="52.067492" lon="05.801674"><ele>29.5</ele><time>2021-01-12T14:54:03Z</time><name>PT5788</name></trkpt>
<trkpt lat="52.067484" lon="05.801680"><ele>29.4</ele><time>2021-01-12T14:54:03Z</time><name>PT5789</name></trkpt>
<trkpt lat="52.067475" lon="05.801690"><ele>29.4</ele><time>2021-01-12T14:54:05Z</time><name>PT5790</name></trkpt>
<trkpt lat="52.067466" lon="05.801707"><ele>29.3</ele><time>2021-01-12T14:54:06Z</time><name>PT5791</name></trkpt>
<trkpt lat="52.067454" lon="05.801722"><ele>29.3</ele><time>2021-01-12T14:54:06Z</time><name>PT5792</name></trkpt>
<trkpt lat="52.067445" lon="05.801733"><ele>29</ele><time>2021-01-12T14:54:08Z</time><name>PT5793</name></trkpt>
<trkpt lat="52.067435" lon="05.801740"><ele>29</ele><time>2021-01-12T14:54:09Z</time><name>PT5794</name></trkpt>
<trkpt lat="52.067423" lon="05.801742"><ele>29</ele><time>2021-01-12T14:54:09Z</time><name>PT5795</name></trkpt>
<trkpt lat="52.067411" lon="05.801751"><ele>29.1</ele><time>2021-01-12T14:54:11Z</time><name>PT5796</name></trkpt>
<trkpt lat="52.067401" lon="05.801756"><ele>29.2</ele><time>2021-01-12T14:54:12Z</time><name>PT5797</name></trkpt>
<trkpt lat="52.067392" lon="05.801763"><ele>29.1</ele><time>2021-01-12T14:54:12Z</time><name>PT5798</name></trkpt>
<trkpt lat="52.067381" lon="05.801767"><ele>29</ele><time>2021-01-12T14:54:14Z</time><name>PT5799</name></trkpt>
<trkpt lat="52.067371" lon="05.801770"><ele>28.7</ele><time>2021-01-12T14:54:15Z</time><name>PT5800</name></trkpt>
<trkpt lat="52.067362" lon="05.801766"><ele>28.6</ele><time>2021-01-12T14:54:15Z</time><name>PT5801</name></trkpt>
<trkpt lat="52.067352" lon="05.801764"><ele>28.8</ele><time>2021-01-12T14:54:17Z</time><name>PT5802</name></trkpt>
<trkpt lat="52.067343" lon="05.801767"><ele>28.8</ele><time>2021-01-12T14:54:18Z</time><name>PT5803</name></trkpt>
<trkpt lat="52.067337" lon="05.801764"><ele>28.8</ele><time>2021-01-12T14:54:18Z</time><name>PT5804</name></trkpt>
<trkpt lat="52.067326" lon="05.801765"><ele>29.1</ele><time>2021-01-12T14:54:20Z</time><name>PT5805</name></trkpt>
<trkpt lat="52.067315" lon="05.801769"><ele>29.2</ele><time>2021-01-12T14:54:21Z</time><name>PT5806</name></trkpt>
<trkpt lat="52.067303" lon="05.801775"><ele>29.4</ele><time>2021-01-12T14:54:21Z</time><name>PT5807</name></trkpt>
<trkpt lat="52.067291" lon="05.801779"><ele>29.3</ele><time>2021-01-12T14:54:23Z</time><name>PT5808</name></trkpt>
<trkpt lat="52.067282" lon="05.801783"><ele>29.2</ele><time>2021-01-12T14:54:24Z</time><name>PT5809</name></trkpt>
<trkpt lat="52.067271" lon="05.801787"><ele>29.2</ele><time>2021-01-12T14:54:24Z</time><name>PT5810</name></trkpt>
<trkpt lat="52.067259" lon="05.801793"><ele>29.3</ele><time>2021-01-12T14:54:26Z</time><name>PT5811</name></trkpt>
<trkpt lat="52.067247" lon="05.801802"><ele>29.4</ele><time>2021-01-12T14:54:27Z</time><name>PT5812</name></trkpt>
<trkpt lat="52.067236" lon="05.801809"><ele>29.4</ele><time>2021-01-12T14:54:27Z</time><name>PT5813</name></trkpt>
<trkpt lat="52.067226" lon="05.801819"><ele>29.4</ele><time>2021-01-12T14:54:29Z</time><name>PT5814</name></trkpt>
<trkpt lat="52.067214" lon="05.801833"><ele>29.4</ele><time>2021-01-12T14:54:30Z</time><name>PT5815</name></trkpt>
<trkpt lat="52.067205" lon="05.801845"><ele>29.3</ele><time>2021-01-12T14:54:30Z</time><name>PT5816</name></trkpt>
<trkpt lat="52.067194" lon="05.801853"><ele>29.4</ele><time>2021-01-12T14:54:32Z</time><name>PT5817</name></trkpt>
<trkpt lat="52.067184" lon="05.801858"><ele>29.3</ele><time>2021-01-12T14:54:33Z</time><name>PT5818</name></trkpt>
<trkpt lat="52.067174" lon="05.801863"><ele>29.2</ele><time>2021-01-12T14:54:33Z</time><name>PT5819</name></trkpt>
<trkpt lat="52.067162" lon="05.801874"><ele>29.2</ele><time>2021-01-12T14:54:35Z</time><name>PT5820</name></trkpt>
<trkpt lat="52.067152" lon="05.801879"><ele>29.3</ele><time>2021-01-12T14:54:36Z</time><name>PT5821</name></trkpt>
<trkpt lat="52.067143" lon="05.801885"><ele>29.1</ele><time>2021-01-12T14:54:36Z</time><name>PT5822</name></trkpt>
<trkpt lat="52.067132" lon="05.801891"><ele>29.3</ele><time>2021-01-12T14:54:38Z</time><name>PT5823</name></trkpt>
<trkpt lat="52.067121" lon="05.801899"><ele>29.4</ele><time>2021-01-12T14:54:39Z</time><name>PT5824</name></trkpt>
<trkpt lat="52.067108" lon="05.801908"><ele>29.3</ele><time>2021-01-12T14:54:39Z</time><name>PT5825</name></trkpt>
<trkpt lat="52.067097" lon="05.801916"><ele>29.5</ele><time>2021-01-12T14:54:41Z</time><name>PT5826</name></trkpt>
<trkpt lat="52.067086" lon="05.801922"><ele>29.5</ele><time>2021-01-12T14:54:42Z</time><name>PT5827</name></trkpt>
<trkpt lat="52.067073" lon="05.801929"><ele>29.3</ele><time>2021-01-12T14:54:42Z</time><name>PT5828</name></trkpt>
<trkpt lat="52.067060" lon="05.801941"><ele>29.2</ele><time>2021-01-12T14:54:44Z</time><name>PT5829</name></trkpt>
<trkpt lat="52.067047" lon="05.801953"><ele>29</ele><time>2021-01-12T14:54:45Z</time><name>PT5830</name></trkpt>
<trkpt lat="52.067034" lon="05.801964"><ele>29</ele><time>2021-01-12T14:54:45Z</time><name>PT5831</name></trkpt>
<trkpt lat="52.067021" lon="05.801975"><ele>29.2</ele><time>2021-01-12T14:54:47Z</time><name>PT5832</name></trkpt>
<trkpt lat="52.067011" lon="05.801980"><ele>29.1</ele><time>2021-01-12T14:54:48Z</time><name>PT5833</name></trkpt>
<trkpt lat="52.067002" lon="05.801986"><ele>29</ele><time>2021-01-12T14:54:48Z</time><name>PT5834</name></trkpt>
<trkpt lat="52.066991" lon="05.801991"><ele>29</ele><time>2021-01-12T14:54:50Z</time><name>PT5835</name></trkpt>
<trkpt lat="52.066978" lon="05.801999"><ele>29</ele><time>2021-01-12T14:54:51Z</time><name>PT5836</name></trkpt>
<trkpt lat="52.066965" lon="05.802006"><ele>28.9</ele><time>2021-01-12T14:54:51Z</time><name>PT5837</name></trkpt>
<trkpt lat="52.066954" lon="05.802017"><ele>29</ele><time>2021-01-12T14:54:53Z</time><name>PT5838</name></trkpt>
<trkpt lat="52.066944" lon="05.802023"><ele>29</ele><time>2021-01-12T14:54:54Z</time><name>PT5839</name></trkpt>
<trkpt lat="52.066934" lon="05.802029"><ele>28.9</ele><time>2021-01-12T14:54:54Z</time><name>PT5840</name></trkpt>
<trkpt lat="52.066924" lon="05.802038"><ele>29</ele><time>2021-01-12T14:54:56Z</time><name>PT5841</name></trkpt>
<trkpt lat="52.066913" lon="05.802047"><ele>29</ele><time>2021-01-12T14:54:57Z</time><name>PT5842</name></trkpt>
<trkpt lat="52.066904" lon="05.802050"><ele>29</ele><time>2021-01-12T14:54:57Z</time><name>PT5843</name></trkpt>
<trkpt lat="52.066895" lon="05.802052"><ele>29</ele><time>2021-01-12T14:54:59Z</time><name>PT5844</name></trkpt>
<trkpt lat="52.066884" lon="05.802056"><ele>29</ele><time>2021-01-12T14:55:00Z</time><name>PT5845</name></trkpt>
<trkpt lat="52.066872" lon="05.802065"><ele>29</ele><time>2021-01-12T14:55:00Z</time><name>PT5846</name></trkpt>
<trkpt lat="52.066860" lon="05.802073"><ele>28.8</ele><time>2021-01-12T14:55:02Z</time><name>PT5847</name></trkpt>
<trkpt lat="52.066851" lon="05.802078"><ele>28.6</ele><time>2021-01-12T14:55:03Z</time><name>PT5848</name></trkpt>
<trkpt lat="52.066839" lon="05.802088"><ele>28.5</ele><time>2021-01-12T14:55:03Z</time><name>PT5849</name></trkpt>
<trkpt lat="52.066826" lon="05.802099"><ele>28.5</ele><time>2021-01-12T14:55:05Z</time><name>PT5850</name></trkpt>
<trkpt lat="52.066814" lon="05.802105"><ele>28.5</ele><time>2021-01-12T14:55:06Z</time><name>PT5851</name></trkpt>
<trkpt lat="52.066807" lon="05.802109"><ele>28.5</ele><time>2021-01-12T14:55:06Z</time><name>PT5852</name></trkpt>
<trkpt lat="52.066797" lon="05.802111"><ele>28.7</ele><time>2021-01-12T14:55:08Z</time><name>PT5853</name></trkpt>
<trkpt lat="52.066786" lon="05.802115"><ele>28.6</ele><time>2021-01-12T14:55:09Z</time><name>PT5854</name></trkpt>
<trkpt lat="52.066775" lon="05.802120"><ele>28.5</ele><time>2021-01-12T14:55:09Z</time><name>PT5855</name></trkpt>
<trkpt lat="52.066766" lon="05.802124"><ele>28.6</ele><time>2021-01-12T14:55:11Z</time><name>PT5856</name></trkpt>
<trkpt lat="52.066755" lon="05.802135"><ele>28.6</ele><time>2021-01-12T14:55:12Z</time><name>PT5857</name></trkpt>
<trkpt lat="52.066744" lon="05.802146"><ele>28.7</ele><time>2021-01-12T14:55:12Z</time><name>PT5858</name></trkpt>
<trkpt lat="52.066734" lon="05.802154"><ele>28.7</ele><time>2021-01-12T14:55:14Z</time><name>PT5859</name></trkpt>
<trkpt lat="52.066723" lon="05.802159"><ele>28.7</ele><time>2021-01-12T14:55:15Z</time><name>PT5860</name></trkpt>
<trkpt lat="52.066712" lon="05.802165"><ele>28.5</ele><time>2021-01-12T14:55:15Z</time><name>PT5861</name></trkpt>
<trkpt lat="52.066700" lon="05.802171"><ele>28.5</ele><time>2021-01-12T14:55:17Z</time><name>PT5862</name></trkpt>
<trkpt lat="52.066688" lon="05.802178"><ele>28.5</ele><time>2021-01-12T14:55:18Z</time><name>PT5863</name></trkpt>
<trkpt lat="52.066678" lon="05.802185"><ele>28.5</ele><time>2021-01-12T14:55:18Z</time><name>PT5864</name></trkpt>
<trkpt lat="52.066666" lon="05.802192"><ele>28.6</ele><time>2021-01-12T14:55:20Z</time><name>PT5865</name></trkpt>
<trkpt lat="52.066659" lon="05.802197"><ele>28.6</ele><time>2021-01-12T14:55:21Z</time><name>PT5866</name></trkpt>
<trkpt lat="52.066651" lon="05.802200"><ele>28.5</ele><time>2021-01-12T14:55:21Z</time><name>PT5867</name></trkpt>
<trkpt lat="52.066639" lon="05.802204"><ele>28.6</ele><time>2021-01-12T14:55:23Z</time><name>PT5868</name></trkpt>
<trkpt lat="52.066626" lon="05.802210"><ele>28.5</ele><time>2021-01-12T14:55:24Z</time><name>PT5869</name></trkpt>
<trkpt lat="52.066616" lon="05.802212"><ele>28.6</ele><time>2021-01-12T14:55:24Z</time><name>PT5870</name></trkpt>
<trkpt lat="52.066603" lon="05.802215"><ele>28.7</ele><time>2021-01-12T14:55:26Z</time><name>PT5871</name></trkpt>
<trkpt lat="52.066592" lon="05.802217"><ele>28.8</ele><time>2021-01-12T14:55:27Z</time><name>PT5872</name></trkpt>
<trkpt lat="52.066581" lon="05.802220"><ele>29</ele><time>2021-01-12T14:55:27Z</time><name>PT5873</name></trkpt>
<trkpt lat="52.066571" lon="05.802226"><ele>29</ele><time>2021-01-12T14:55:29Z</time><name>PT5874</name></trkpt>
<trkpt lat="52.066560" lon="05.802233"><ele>29</ele><time>2021-01-12T14:55:30Z</time><name>PT5875</name></trkpt>
<trkpt lat="52.066549" lon="05.802239"><ele>29</ele><time>2021-01-12T14:55:30Z</time><name>PT5876</name></trkpt>
<trkpt lat="52.066539" lon="05.802240"><ele>28.8</ele><time>2021-01-12T14:55:32Z</time><name>PT5877</name></trkpt>
<trkpt lat="52.066531" lon="05.802242"><ele>28.7</ele><time>2021-01-12T14:55:33Z</time><name>PT5878</name></trkpt>
<trkpt lat="52.066521" lon="05.802245"><ele>28.7</ele><time>2021-01-12T14:55:33Z</time><name>PT5879</name></trkpt>
<trkpt lat="52.066509" lon="05.802247"><ele>28.5</ele><time>2021-01-12T14:55:35Z</time><name>PT5880</name></trkpt>
<trkpt lat="52.066498" lon="05.802252"><ele>28.5</ele><time>2021-01-12T14:55:36Z</time><name>PT5881</name></trkpt>
<trkpt lat="52.066488" lon="05.802255"><ele>28.6</ele><time>2021-01-12T14:55:36Z</time><name>PT5882</name></trkpt>
<trkpt lat="52.066479" lon="05.802259"><ele>28.6</ele><time>2021-01-12T14:55:38Z</time><name>PT5883</name></trkpt>
<trkpt lat="52.066468" lon="05.802264"><ele>28.8</ele><time>2021-01-12T14:55:39Z</time><name>PT5884</name></trkpt>
<trkpt lat="52.066456" lon="05.802270"><ele>28.8</ele><time>2021-01-12T14:55:39Z</time><name>PT5885</name></trkpt>
<trkpt lat="52.066450" lon="05.802273"><ele>28.7</ele><time>2021-01-12T14:55:41Z</time><name>PT5886</name></trkpt>
<trkpt lat="52.066442" lon="05.802278"><ele>28.7</ele><time>2021-01-12T14:55:42Z</time><name>PT5887</name></trkpt>
<trkpt lat="52.066432" lon="05.802281"><ele>28.7</ele><time>2021-01-12T14:55:42Z</time><name>PT5888</name></trkpt>
<trkpt lat="52.066419" lon="05.802287"><ele>28.8</ele><time>2021-01-12T14:55:44Z</time><name>PT5889</name></trkpt>
<trkpt lat="52.066410" lon="05.802291"><ele>28.6</ele><time>2021-01-12T14:55:45Z</time><name>PT5890</name></trkpt>
<trkpt lat="52.066403" lon="05.802292"><ele>28.7</ele><time>2021-01-12T14:55:45Z</time><name>PT5891</name></trkpt>
<trkpt lat="52.066392" lon="05.802291"><ele>28.8</ele><time>2021-01-12T14:55:47Z</time><name>PT5892</name></trkpt>
<trkpt lat="52.066382" lon="05.802296"><ele>28.7</ele><time>2021-01-12T14:55:48Z</time><name>PT5893</name></trkpt>
<trkpt lat="52.066371" lon="05.802302"><ele>28.7</ele><time>2021-01-12T14:55:48Z</time><name>PT5894</name></trkpt>
<trkpt lat="52.066362" lon="05.802305"><ele>28.8</ele><time>2021-01-12T14:55:50Z</time><name>PT5895</name></trkpt>
<trkpt lat="52.066353" lon="05.802310"><ele>28.8</ele><time>2021-01-12T14:55:51Z</time><name>PT5896</name></trkpt>
<trkpt lat="52.066342" lon="05.802314"><ele>28.8</ele><time>2021-01-12T14:55:51Z</time><name>PT5897</name></trkpt>
<trkpt lat="52.066329" lon="05.802316"><ele>28.6</ele><time>2021-01-12T14:55:53Z</time><name>PT5898</name></trkpt>
<trkpt lat="52.066315" lon="05.802319"><ele>28.8</ele><time>2021-01-12T14:55:54Z</time><name>PT5899</name></trkpt>
<trkpt lat="52.066302" lon="05.802325"><ele>28.8</ele><time>2021-01-12T14:55:54Z</time><name>PT5900</name></trkpt>
<trkpt lat="52.066289" lon="05.802336"><ele>28.6</ele><time>2021-01-12T14:55:56Z</time><name>PT5901</name></trkpt>
<trkpt lat="52.066277" lon="05.802343"><ele>28.6</ele><time>2021-01-12T14:55:57Z</time><name>PT5902</name></trkpt>
<trkpt lat="52.066264" lon="05.802346"><ele>28.7</ele><time>2021-01-12T14:55:57Z</time><name>PT5903</name></trkpt>
<trkpt lat="52.066253" lon="05.802352"><ele>28.8</ele><time>2021-01-12T14:55:59Z</time><name>PT5904</name></trkpt>
<trkpt lat="52.066243" lon="05.802355"><ele>28.9</ele><time>2021-01-12T14:56:00Z</time><name>PT5905</name></trkpt>
<trkpt lat="52.066232" lon="05.802358"><ele>28.9</ele><time>2021-01-12T14:56:00Z</time><name>PT5906</name></trkpt>
<trkpt lat="52.066218" lon="05.802365"><ele>28.9</ele><time>2021-01-12T14:56:02Z</time><name>PT5907</name></trkpt>
<trkpt lat="52.066208" lon="05.802371"><ele>28.7</ele><time>2021-01-12T14:56:03Z</time><name>PT5908</name></trkpt>
<trkpt lat="52.066200" lon="05.802375"><ele>28.6</ele><time>2021-01-12T14:56:03Z</time><name>PT5909</name></trkpt>
<trkpt lat="52.066193" lon="05.802377"><ele>28.7</ele><time>2021-01-12T14:56:05Z</time><name>PT5910</name></trkpt>
<trkpt lat="52.066185" lon="05.802381"><ele>28.9</ele><time>2021-01-12T14:56:06Z</time><name>PT5911</name></trkpt>
<trkpt lat="52.066178" lon="05.802384"><ele>28.8</ele><time>2021-01-12T14:56:06Z</time><name>PT5912</name></trkpt>
<trkpt lat="52.066172" lon="05.802389"><ele>28.8</ele><time>2021-01-12T14:56:08Z</time><name>PT5913</name></trkpt>
<trkpt lat="52.066167" lon="05.802387"><ele>28.7</ele><time>2021-01-12T14:56:09Z</time><name>PT5914</name></trkpt>
<trkpt lat="52.066158" lon="05.802387"><ele>28.7</ele><time>2021-01-12T14:56:09Z</time><name>PT5915</name></trkpt>
<trkpt lat="52.066150" lon="05.802390"><ele>28.6</ele><time>2021-01-12T14:56:11Z</time><name>PT5916</name></trkpt>
<trkpt lat="52.066145" lon="05.802394"><ele>28.8</ele><time>2021-01-12T14:56:12Z</time><name>PT5917</name></trkpt>
<trkpt lat="52.066138" lon="05.802399"><ele>28.9</ele><time>2021-01-12T14:56:12Z</time><name>PT5918</name></trkpt>
<trkpt lat="52.066132" lon="05.802402"><ele>28.8</ele><time>2021-01-12T14:56:14Z</time><name>PT5919</name></trkpt>
<trkpt lat="52.066124" lon="05.802408"><ele>28.9</ele><time>2021-01-12T14:56:15Z</time><name>PT5920</name></trkpt>
<trkpt lat="52.066113" lon="05.802409"><ele>28.9</ele><time>2021-01-12T14:56:15Z</time><name>PT5921</name></trkpt>
<trkpt lat="52.066102" lon="05.802408"><ele>29</ele><time>2021-01-12T14:56:17Z</time><name>PT5922</name></trkpt>
<trkpt lat="52.066093" lon="05.802409"><ele>28.9</ele><time>2021-01-12T14:56:18Z</time><name>PT5923</name></trkpt>
<trkpt lat="52.066079" lon="05.802410"><ele>28.9</ele><time>2021-01-12T14:56:18Z</time><name>PT5924</name></trkpt>
<trkpt lat="52.066067" lon="05.802413"><ele>29.1</ele><time>2021-01-12T14:56:20Z</time><name>PT5925</name></trkpt>
<trkpt lat="52.066058" lon="05.802419"><ele>28.9</ele><time>2021-01-12T14:56:21Z</time><name>PT5926</name></trkpt>
<trkpt lat="52.066049" lon="05.802427"><ele>28.8</ele><time>2021-01-12T14:56:21Z</time><name>PT5927</name></trkpt>
<trkpt lat="52.066039" lon="05.802437"><ele>29</ele><time>2021-01-12T14:56:23Z</time><name>PT5928</name></trkpt>
<trkpt lat="52.066029" lon="05.802445"><ele>28.8</ele><time>2021-01-12T14:56:24Z</time><name>PT5929</name></trkpt>
<trkpt lat="52.066020" lon="05.802452"><ele>28.9</ele><time>2021-01-12T14:56:24Z</time><name>PT5930</name></trkpt>
<trkpt lat="52.066008" lon="05.802458"><ele>29</ele><time>2021-01-12T14:56:26Z</time><name>PT5931</name></trkpt>
<trkpt lat="52.065995" lon="05.802466"><ele>29.2</ele><time>2021-01-12T14:56:27Z</time><name>PT5932</name></trkpt>
<trkpt lat="52.065980" lon="05.802473"><ele>29.3</ele><time>2021-01-12T14:56:27Z</time><name>PT5933</name></trkpt>
<trkpt lat="52.065970" lon="05.802479"><ele>29.1</ele><time>2021-01-12T14:56:29Z</time><name>PT5934</name></trkpt>
<trkpt lat="52.065952" lon="05.802484"><ele>29.1</ele><time>2021-01-12T14:56:30Z</time><name>PT5935</name></trkpt>
<trkpt lat="52.065937" lon="05.802490"><ele>29.1</ele><time>2021-01-12T14:56:30Z</time><name>PT5936</name></trkpt>
<trkpt lat="52.065926" lon="05.802499"><ele>29.1</ele><time>2021-01-12T14:56:32Z</time><name>PT5937</name></trkpt>
<trkpt lat="52.065917" lon="05.802507"><ele>29.2</ele><time>2021-01-12T14:56:33Z</time><name>PT5938</name></trkpt>
<trkpt lat="52.065906" lon="05.802513"><ele>29.3</ele><time>2021-01-12T14:56:33Z</time><name>PT5939</name></trkpt>
<trkpt lat="52.065895" lon="05.802519"><ele>29.4</ele><time>2021-01-12T14:56:35Z</time><name>PT5940</name></trkpt>
<trkpt lat="52.065882" lon="05.802529"><ele>29.1</ele><time>2021-01-12T14:56:36Z</time><name>PT5941</name></trkpt>
<trkpt lat="52.065871" lon="05.802539"><ele>28.9</ele><time>2021-01-12T14:56:36Z</time><name>PT5942</name></trkpt>
<trkpt lat="52.065861" lon="05.802551"><ele>28.7</ele><time>2021-01-12T14:56:38Z</time><name>PT5943</name></trkpt>
<trkpt lat="52.065849" lon="05.802562"><ele>28.6</ele><time>2021-01-12T14:56:39Z</time><name>PT5944</name></trkpt>
<trkpt lat="52.065839" lon="05.802573"><ele>28.6</ele><time>2021-01-12T14:56:39Z</time><name>PT5945</name></trkpt>
<trkpt lat="52.065829" lon="05.802584"><ele>28.6</ele><time>2021-01-12T14:56:41Z</time><name>PT5946</name></trkpt>
<trkpt lat="52.065818" lon="05.802591"><ele>28.6</ele><time>2021-01-12T14:56:42Z</time><name>PT5947</name></trkpt>
<trkpt lat="52.065808" lon="05.802599"><ele>28.8</ele><time>2021-01-12T14:56:42Z</time><name>PT5948</name></trkpt>
<trkpt lat="52.065797" lon="05.802607"><ele>28.8</ele><time>2021-01-12T14:56:44Z</time><name>PT5949</name></trkpt>
<trkpt lat="52.065787" lon="05.802617"><ele>28.8</ele><time>2021-01-12T14:56:45Z</time><name>PT5950</name></trkpt>
<trkpt lat="52.065775" lon="05.802622"><ele>28.8</ele><time>2021-01-12T14:56:45Z</time><name>PT5951</name></trkpt>
<trkpt lat="52.065764" lon="05.802632"><ele>28.7</ele><time>2021-01-12T14:56:47Z</time><name>PT5952</name></trkpt>
<trkpt lat="52.065753" lon="05.802642"><ele>28.4</ele><time>2021-01-12T14:56:48Z</time><name>PT5953</name></trkpt>
<trkpt lat="52.065745" lon="05.802648"><ele>28.4</ele><time>2021-01-12T14:56:48Z</time><name>PT5954</name></trkpt>
<trkpt lat="52.065734" lon="05.802657"><ele>28.5</ele><time>2021-01-12T14:56:50Z</time><name>PT5955</name></trkpt>
<trkpt lat="52.065723" lon="05.802667"><ele>28.5</ele><time>2021-01-12T14:56:51Z</time><name>PT5956</name></trkpt>
<trkpt lat="52.065711" lon="05.802677"><ele>28.5</ele><time>2021-01-12T14:56:51Z</time><name>PT5957</name></trkpt>
<trkpt lat="52.065699" lon="05.802687"><ele>28.5</ele><time>2021-01-12T14:56:53Z</time><name>PT5958</name></trkpt>
<trkpt lat="52.065687" lon="05.802698"><ele>28.5</ele><time>2021-01-12T14:56:54Z</time><name>PT5959</name></trkpt>
<trkpt lat="52.065678" lon="05.802707"><ele>28.5</ele><time>2021-01-12T14:56:54Z</time><name>PT5960</name></trkpt>
<trkpt lat="52.065667" lon="05.802712"><ele>28.6</ele><time>2021-01-12T14:56:56Z</time><name>PT5961</name></trkpt>
<trkpt lat="52.065655" lon="05.802718"><ele>28.6</ele><time>2021-01-12T14:56:57Z</time><name>PT5962</name></trkpt>
<trkpt lat="52.065646" lon="05.802725"><ele>28.8</ele><time>2021-01-12T14:56:57Z</time><name>PT5963</name></trkpt>
<trkpt lat="52.065636" lon="05.802733"><ele>28.9</ele><time>2021-01-12T14:56:59Z</time><name>PT5964</name></trkpt>
<trkpt lat="52.065625" lon="05.802744"><ele>28.8</ele><time>2021-01-12T14:57:00Z</time><name>PT5965</name></trkpt>
<trkpt lat="52.065618" lon="05.802757"><ele>28.7</ele><time>2021-01-12T14:57:00Z</time><name>PT5966</name></trkpt>
<trkpt lat="52.065609" lon="05.802765"><ele>28.7</ele><time>2021-01-12T14:57:02Z</time><name>PT5967</name></trkpt>
<trkpt lat="52.065599" lon="05.802769"><ele>28.6</ele><time>2021-01-12T14:57:03Z</time><name>PT5968</name></trkpt>
<trkpt lat="52.065590" lon="05.802774"><ele>28.6</ele><time>2021-01-12T14:57:03Z</time><name>PT5969</name></trkpt>
<trkpt lat="52.065580" lon="05.802782"><ele>28.5</ele><time>2021-01-12T14:57:05Z</time><name>PT5970</name></trkpt>
<trkpt lat="52.065572" lon="05.802789"><ele>28.5</ele><time>2021-01-12T14:57:06Z</time><name>PT5971</name></trkpt>
<trkpt lat="52.065563" lon="05.802794"><ele>28.5</ele><time>2021-01-12T14:57:06Z</time><name>PT5972</name></trkpt>
<trkpt lat="52.065553" lon="05.802798"><ele>28.4</ele><time>2021-01-12T14:57:08Z</time><name>PT5973</name></trkpt>
<trkpt lat="52.065540" lon="05.802803"><ele>28.5</ele><time>2021-01-12T14:57:09Z</time><name>PT5974</name></trkpt>
<trkpt lat="52.065529" lon="05.802808"><ele>28.3</ele><time>2021-01-12T14:57:09Z</time><name>PT5975</name></trkpt>
<trkpt lat="52.065518" lon="05.802814"><ele>28</ele><time>2021-01-12T14:57:11Z</time><name>PT5976</name></trkpt>
<trkpt lat="52.065506" lon="05.802823"><ele>28.3</ele><time>2021-01-12T14:57:12Z</time><name>PT5977</name></trkpt>
<trkpt lat="52.065494" lon="05.802832"><ele>28.3</ele><time>2021-01-12T14:57:12Z</time><name>PT5978</name></trkpt>
<trkpt lat="52.065485" lon="05.802838"><ele>28.5</ele><time>2021-01-12T14:57:14Z</time><name>PT5979</name></trkpt>
<trkpt lat="52.065475" lon="05.802844"><ele>28.6</ele><time>2021-01-12T14:57:15Z</time><name>PT5980</name></trkpt>
<trkpt lat="52.065464" lon="05.802850"><ele>28.6</ele><time>2021-01-12T14:57:15Z</time><name>PT5981</name></trkpt>
<trkpt lat="52.065454" lon="05.802856"><ele>28.7</ele><time>2021-01-12T14:57:17Z</time><name>PT5982</name></trkpt>
<trkpt lat="52.065443" lon="05.802862"><ele>28.7</ele><time>2021-01-12T14:57:18Z</time><name>PT5983</name></trkpt>
<trkpt lat="52.065433" lon="05.802870"><ele>29</ele><time>2021-01-12T14:57:18Z</time><name>PT5984</name></trkpt>
<trkpt lat="52.065422" lon="05.802875"><ele>28.8</ele><time>2021-01-12T14:57:20Z</time><name>PT5985</name></trkpt>
<trkpt lat="52.065411" lon="05.802880"><ele>28.7</ele><time>2021-01-12T14:57:21Z</time><name>PT5986</name></trkpt>
<trkpt lat="52.065401" lon="05.802883"><ele>28.5</ele><time>2021-01-12T14:57:21Z</time><name>PT5987</name></trkpt>
<trkpt lat="52.065391" lon="05.802884"><ele>28.5</ele><time>2021-01-12T14:57:23Z</time><name>PT5988</name></trkpt>
<trkpt lat="52.065381" lon="05.802889"><ele>28.5</ele><time>2021-01-12T14:57:24Z</time><name>PT5989</name></trkpt>
<trkpt lat="52.065371" lon="05.802898"><ele>28.2</ele><time>2021-01-12T14:57:24Z</time><name>PT5990</name></trkpt>
<trkpt lat="52.065363" lon="05.802907"><ele>28.4</ele><time>2021-01-12T14:57:26Z</time><name>PT5991</name></trkpt>
<trkpt lat="52.065353" lon="05.802914"><ele>28.5</ele><time>2021-01-12T14:57:27Z</time><name>PT5992</name></trkpt>
<trkpt lat="52.065343" lon="05.802918"><ele>28.4</ele><time>2021-01-12T14:57:27Z</time><name>PT5993</name></trkpt>
<trkpt lat="52.065332" lon="05.802921"><ele>28.5</ele><time>2021-01-12T14:57:29Z</time><name>PT5994</name></trkpt>
<trkpt lat="52.065322" lon="05.802928"><ele>28.4</ele><time>2021-01-12T14:57:30Z</time><name>PT5995</name></trkpt>
<trkpt lat="52.065316" lon="05.802931"><ele>28.3</ele><time>2021-01-12T14:57:31Z</time><name>PT5996</name></trkpt>
<trkpt lat="52.065305" lon="05.802943"><ele>28</ele><time>2021-01-12T14:57:32Z</time><name>PT5997</name></trkpt>
<trkpt lat="52.065293" lon="05.802959"><ele>28.1</ele><time>2021-01-12T14:57:33Z</time><name>PT5998</name></trkpt>
<trkpt lat="52.065281" lon="05.802964"><ele>28.2</ele><time>2021-01-12T14:57:33Z</time><name>PT5999</name></trkpt>
<trkpt lat="52.065274" lon="05.802966"><ele>28.2</ele><time>2021-01-12T14:57:35Z</time><name>PT6000</name></trkpt>
<trkpt lat="52.065264" lon="05.802971"><ele>28.4</ele><time>2021-01-12T14:57:36Z</time><name>PT6001</name></trkpt>
<trkpt lat="52.065255" lon="05.802978"><ele>28.2</ele><time>2021-01-12T14:57:36Z</time><name>PT6002</name></trkpt>
<trkpt lat="52.065245" lon="05.802984"><ele>28.2</ele><time>2021-01-12T14:57:38Z</time><name>PT6003</name></trkpt>
<trkpt lat="52.065236" lon="05.802992"><ele>28.2</ele><time>2021-01-12T14:57:39Z</time><name>PT6004</name></trkpt>
<trkpt lat="52.065225" lon="05.803003"><ele>28.1</ele><time>2021-01-12T14:57:39Z</time><name>PT6005</name></trkpt>
<trkpt lat="52.065212" lon="05.803007"><ele>28.1</ele><time>2021-01-12T14:57:41Z</time><name>PT6006</name></trkpt>
<trkpt lat="52.065204" lon="05.803011"><ele>28.4</ele><time>2021-01-12T14:57:42Z</time><name>PT6007</name></trkpt>
<trkpt lat="52.065195" lon="05.803016"><ele>28.6</ele><time>2021-01-12T14:57:42Z</time><name>PT6008</name></trkpt>
<trkpt lat="52.065185" lon="05.803018"><ele>28.8</ele><time>2021-01-12T14:57:44Z</time><name>PT6009</name></trkpt>
<trkpt lat="52.065173" lon="05.803022"><ele>28.9</ele><time>2021-01-12T14:57:45Z</time><name>PT6010</name></trkpt>
<trkpt lat="52.065162" lon="05.803028"><ele>28.8</ele><time>2021-01-12T14:57:45Z</time><name>PT6011</name></trkpt>
<trkpt lat="52.065151" lon="05.803032"><ele>28.7</ele><time>2021-01-12T14:57:47Z</time><name>PT6012</name></trkpt>
<trkpt lat="52.065142" lon="05.803034"><ele>28.7</ele><time>2021-01-12T14:57:48Z</time><name>PT6013</name></trkpt>
<trkpt lat="52.065132" lon="05.803042"><ele>28.7</ele><time>2021-01-12T14:57:48Z</time><name>PT6014</name></trkpt>
<trkpt lat="52.065123" lon="05.803050"><ele>28.7</ele><time>2021-01-12T14:57:50Z</time><name>PT6015</name></trkpt>
<trkpt lat="52.065113" lon="05.803052"><ele>28.5</ele><time>2021-01-12T14:57:51Z</time><name>PT6016</name></trkpt>
<trkpt lat="52.065102" lon="05.803055"><ele>28.4</ele><time>2021-01-12T14:57:51Z</time><name>PT6017</name></trkpt>
<trkpt lat="52.065091" lon="05.803059"><ele>28.2</ele><time>2021-01-12T14:57:53Z</time><name>PT6018</name></trkpt>
<trkpt lat="52.065082" lon="05.803063"><ele>28.2</ele><time>2021-01-12T14:57:54Z</time><name>PT6019</name></trkpt>
<trkpt lat="52.065071" lon="05.803068"><ele>28.2</ele><time>2021-01-12T14:57:54Z</time><name>PT6020</name></trkpt>
<trkpt lat="52.065061" lon="05.803073"><ele>28.3</ele><time>2021-01-12T14:57:56Z</time><name>PT6021</name></trkpt>
<trkpt lat="52.065050" lon="05.803075"><ele>28.4</ele><time>2021-01-12T14:57:57Z</time><name>PT6022</name></trkpt>
<trkpt lat="52.065040" lon="05.803079"><ele>28.4</ele><time>2021-01-12T14:57:57Z</time><name>PT6023</name></trkpt>
<trkpt lat="52.065029" lon="05.803085"><ele>28.4</ele><time>2021-01-12T14:57:59Z</time><name>PT6024</name></trkpt>
<trkpt lat="52.065021" lon="05.803085"><ele>28.5</ele><time>2021-01-12T14:58:00Z</time><name>PT6025</name></trkpt>
<trkpt lat="52.065012" lon="05.803087"><ele>28.4</ele><time>2021-01-12T14:58:00Z</time><name>PT6026</name></trkpt>
<trkpt lat="52.065000" lon="05.803096"><ele>28.4</ele><time>2021-01-12T14:58:02Z</time><name>PT6027</name></trkpt>
<trkpt lat="52.064991" lon="05.803098"><ele>28.4</ele><time>2021-01-12T14:58:03Z</time><name>PT6028</name></trkpt>
<trkpt lat="52.064982" lon="05.803099"><ele>28.3</ele><time>2021-01-12T14:58:03Z</time><name>PT6029</name></trkpt>
<trkpt lat="52.064970" lon="05.803104"><ele>28.1</ele><time>2021-01-12T14:58:05Z</time><name>PT6030</name></trkpt>
<trkpt lat="52.064960" lon="05.803108"><ele>28.1</ele><time>2021-01-12T14:58:06Z</time><name>PT6031</name></trkpt>
<trkpt lat="52.064950" lon="05.803113"><ele>28.1</ele><time>2021-01-12T14:58:06Z</time><name>PT6032</name></trkpt>
<trkpt lat="52.064939" lon="05.803123"><ele>28.3</ele><time>2021-01-12T14:58:08Z</time><name>PT6033</name></trkpt>
<trkpt lat="52.064930" lon="05.803129"><ele>28.5</ele><time>2021-01-12T14:58:09Z</time><name>PT6034</name></trkpt>
<trkpt lat="52.064922" lon="05.803130"><ele>28.5</ele><time>2021-01-12T14:58:09Z</time><name>PT6035</name></trkpt>
<trkpt lat="52.064914" lon="05.803135"><ele>28.4</ele><time>2021-01-12T14:58:11Z</time><name>PT6036</name></trkpt>
<trkpt lat="52.064905" lon="05.803145"><ele>28.4</ele><time>2021-01-12T14:58:12Z</time><name>PT6037</name></trkpt>
<trkpt lat="52.064897" lon="05.803149"><ele>28.4</ele><time>2021-01-12T14:58:12Z</time><name>PT6038</name></trkpt>
<trkpt lat="52.064889" lon="05.803153"><ele>28</ele><time>2021-01-12T14:58:14Z</time><name>PT6039</name></trkpt>
<trkpt lat="52.064885" lon="05.803154"><ele>28</ele><time>2021-01-12T14:58:15Z</time><name>PT6040</name></trkpt>
<trkpt lat="52.064882" lon="05.803154"><ele>28</ele><time>2021-01-12T14:58:15Z</time><name>PT6041</name></trkpt>
<trkpt lat="52.064877" lon="05.803156"><ele>28.2</ele><time>2021-01-12T14:58:17Z</time><name>PT6042</name></trkpt>
<trkpt lat="52.064878" lon="05.803153"><ele>28.4</ele><time>2021-01-12T14:58:18Z</time><name>PT6043</name></trkpt>
<trkpt lat="52.064878" lon="05.803151"><ele>28.8</ele><time>2021-01-12T14:58:18Z</time><name>PT6044</name></trkpt>
<trkpt lat="52.064875" lon="05.803149"><ele>29</ele><time>2021-01-12T14:58:45Z</time><name>PT6045</name></trkpt>
<trkpt lat="52.064807" lon="05.803180"><ele>25.2</ele><time>2021-01-12T15:27:38Z</time><name>PT6046</name></trkpt>
<trkpt lat="52.064801" lon="05.803176"><ele>24.8</ele><time>2021-01-12T15:27:41Z</time><name>PT6047</name></trkpt>
<trkpt lat="52.064794" lon="05.803180"><ele>24.8</ele><time>2021-01-12T15:27:42Z</time><name>PT6048</name></trkpt>
<trkpt lat="52.064786" lon="05.803185"><ele>24.5</ele><time>2021-01-12T15:27:42Z</time><name>PT6049</name></trkpt>
<trkpt lat="52.064778" lon="05.803188"><ele>24.5</ele><time>2021-01-12T15:27:44Z</time><name>PT6050</name></trkpt>
<trkpt lat="52.064769" lon="05.803191"><ele>24.6</ele><time>2021-01-12T15:27:45Z</time><name>PT6051</name></trkpt>
<trkpt lat="52.064759" lon="05.803193"><ele>24.5</ele><time>2021-01-12T15:27:45Z</time><name>PT6052</name></trkpt>
<trkpt lat="52.064750" lon="05.803194"><ele>24.9</ele><time>2021-01-12T15:27:47Z</time><name>PT6053</name></trkpt>
<trkpt lat="52.064739" lon="05.803197"><ele>25.4</ele><time>2021-01-12T15:27:48Z</time><name>PT6054</name></trkpt>
<trkpt lat="52.064729" lon="05.803199"><ele>25.4</ele><time>2021-01-12T15:27:48Z</time><name>PT6055</name></trkpt>
<trkpt lat="52.064720" lon="05.803206"><ele>25.5</ele><time>2021-01-12T15:27:50Z</time><name>PT6056</name></trkpt>
<trkpt lat="52.064710" lon="05.803210"><ele>25.5</ele><time>2021-01-12T15:27:51Z</time><name>PT6057</name></trkpt>
<trkpt lat="52.064699" lon="05.803217"><ele>25.4</ele><time>2021-01-12T15:27:51Z</time><name>PT6058</name></trkpt>
<trkpt lat="52.064689" lon="05.803222"><ele>25</ele><time>2021-01-12T15:27:53Z</time><name>PT6059</name></trkpt>
<trkpt lat="52.064681" lon="05.803231"><ele>25</ele><time>2021-01-12T15:27:54Z</time><name>PT6060</name></trkpt>
<trkpt lat="52.064671" lon="05.803236"><ele>25</ele><time>2021-01-12T15:27:54Z</time><name>PT6061</name></trkpt>
<trkpt lat="52.064663" lon="05.803239"><ele>25</ele><time>2021-01-12T15:27:56Z</time><name>PT6062</name></trkpt>
<trkpt lat="52.064654" lon="05.803246"><ele>25</ele><time>2021-01-12T15:27:57Z</time><name>PT6063</name></trkpt>
<trkpt lat="52.064646" lon="05.803252"><ele>24.9</ele><time>2021-01-12T15:27:57Z</time><name>PT6064</name></trkpt>
<trkpt lat="52.064636" lon="05.803256"><ele>24.6</ele><time>2021-01-12T15:27:59Z</time><name>PT6065</name></trkpt>
<trkpt lat="52.064629" lon="05.803262"><ele>24.5</ele><time>2021-01-12T15:28:00Z</time><name>PT6066</name></trkpt>
<trkpt lat="52.064619" lon="05.803268"><ele>24.4</ele><time>2021-01-12T15:28:00Z</time><name>PT6067</name></trkpt>
<trkpt lat="52.064610" lon="05.803271"><ele>24.3</ele><time>2021-01-12T15:28:02Z</time><name>PT6068</name></trkpt>
<trkpt lat="52.064599" lon="05.803277"><ele>24.5</ele><time>2021-01-12T15:28:03Z</time><name>PT6069</name></trkpt>
<trkpt lat="52.064588" lon="05.803283"><ele>24.8</ele><time>2021-01-12T15:28:03Z</time><name>PT6070</name></trkpt>
<trkpt lat="52.064576" lon="05.803289"><ele>24.9</ele><time>2021-01-12T15:28:05Z</time><name>PT6071</name></trkpt>
<trkpt lat="52.064565" lon="05.803295"><ele>24.9</ele><time>2021-01-12T15:28:06Z</time><name>PT6072</name></trkpt>
<trkpt lat="52.064554" lon="05.803298"><ele>24.9</ele><time>2021-01-12T15:28:06Z</time><name>PT6073</name></trkpt>
<trkpt lat="52.064544" lon="05.803302"><ele>25</ele><time>2021-01-12T15:28:08Z</time><name>PT6074</name></trkpt>
<trkpt lat="52.064534" lon="05.803308"><ele>24.9</ele><time>2021-01-12T15:28:09Z</time><name>PT6075</name></trkpt>
<trkpt lat="52.064523" lon="05.803313"><ele>25</ele><time>2021-01-12T15:28:09Z</time><name>PT6076</name></trkpt>
<trkpt lat="52.064511" lon="05.803316"><ele>25</ele><time>2021-01-12T15:28:11Z</time><name>PT6077</name></trkpt>
<trkpt lat="52.064500" lon="05.803319"><ele>25</ele><time>2021-01-12T15:28:12Z</time><name>PT6078</name></trkpt>
<trkpt lat="52.064489" lon="05.803321"><ele>24.9</ele><time>2021-01-12T15:28:12Z</time><name>PT6079</name></trkpt>
<trkpt lat="52.064478" lon="05.803323"><ele>24.9</ele><time>2021-01-12T15:28:14Z</time><name>PT6080</name></trkpt>
<trkpt lat="52.064467" lon="05.803323"><ele>24.8</ele><time>2021-01-12T15:28:15Z</time><name>PT6081</name></trkpt>
<trkpt lat="52.064455" lon="05.803327"><ele>24.8</ele><time>2021-01-12T15:28:15Z</time><name>PT6082</name></trkpt>
<trkpt lat="52.064443" lon="05.803331"><ele>24.7</ele><time>2021-01-12T15:28:17Z</time><name>PT6083</name></trkpt>
<trkpt lat="52.064431" lon="05.803338"><ele>24.5</ele><time>2021-01-12T15:28:18Z</time><name>PT6084</name></trkpt>
<trkpt lat="52.064421" lon="05.803345"><ele>24.5</ele><time>2021-01-12T15:28:18Z</time><name>PT6085</name></trkpt>
<trkpt lat="52.064411" lon="05.803350"><ele>24.5</ele><time>2021-01-12T15:28:20Z</time><name>PT6086</name></trkpt>
<trkpt lat="52.064399" lon="05.803355"><ele>24.5</ele><time>2021-01-12T15:28:21Z</time><name>PT6087</name></trkpt>
<trkpt lat="52.064387" lon="05.803359"><ele>24.5</ele><time>2021-01-12T15:28:21Z</time><name>PT6088</name></trkpt>
<trkpt lat="52.064374" lon="05.803362"><ele>24.4</ele><time>2021-01-12T15:28:23Z</time><name>PT6089</name></trkpt>
<trkpt lat="52.064360" lon="05.803369"><ele>24.4</ele><time>2021-01-12T15:28:24Z</time><name>PT6090</name></trkpt>
<trkpt lat="52.064349" lon="05.803374"><ele>24.5</ele><time>2021-01-12T15:28:24Z</time><name>PT6091</name></trkpt>
<trkpt lat="52.064337" lon="05.803377"><ele>24.4</ele><time>2021-01-12T15:28:26Z</time><name>PT6092</name></trkpt>
<trkpt lat="52.064325" lon="05.803385"><ele>24.4</ele><time>2021-01-12T15:28:27Z</time><name>PT6093</name></trkpt>
<trkpt lat="52.064315" lon="05.803392"><ele>24.5</ele><time>2021-01-12T15:28:27Z</time><name>PT6094</name></trkpt>
<trkpt lat="52.064304" lon="05.803398"><ele>24.4</ele><time>2021-01-12T15:28:29Z</time><name>PT6095</name></trkpt>
<trkpt lat="52.064294" lon="05.803404"><ele>24.5</ele><time>2021-01-12T15:28:30Z</time><name>PT6096</name></trkpt>
<trkpt lat="52.064282" lon="05.803410"><ele>24.5</ele><time>2021-01-12T15:28:30Z</time><name>PT6097</name></trkpt>
<trkpt lat="52.064271" lon="05.803416"><ele>24.5</ele><time>2021-01-12T15:28:32Z</time><name>PT6098</name></trkpt>
<trkpt lat="52.064260" lon="05.803422"><ele>24.4</ele><time>2021-01-12T15:28:33Z</time><name>PT6099</name></trkpt>
<trkpt lat="52.064248" lon="05.803426"><ele>24.4</ele><time>2021-01-12T15:28:33Z</time><name>PT6100</name></trkpt>
<trkpt lat="52.064237" lon="05.803433"><ele>24.2</ele><time>2021-01-12T15:28:35Z</time><name>PT6101</name></trkpt>
<trkpt lat="52.064227" lon="05.803439"><ele>24.1</ele><time>2021-01-12T15:28:36Z</time><name>PT6102</name></trkpt>
<trkpt lat="52.064216" lon="05.803444"><ele>24</ele><time>2021-01-12T15:28:36Z</time><name>PT6103</name></trkpt>
<trkpt lat="52.064206" lon="05.803447"><ele>24.1</ele><time>2021-01-12T15:28:38Z</time><name>PT6104</name></trkpt>
<trkpt lat="52.064194" lon="05.803453"><ele>24.4</ele><time>2021-01-12T15:28:39Z</time><name>PT6105</name></trkpt>
<trkpt lat="52.064181" lon="05.803458"><ele>24.5</ele><time>2021-01-12T15:28:39Z</time><name>PT6106</name></trkpt>
<trkpt lat="52.064169" lon="05.803463"><ele>24.4</ele><time>2021-01-12T15:28:41Z</time><name>PT6107</name></trkpt>
<trkpt lat="52.064159" lon="05.803468"><ele>24.5</ele><time>2021-01-12T15:28:42Z</time><name>PT6108</name></trkpt>
<trkpt lat="52.064148" lon="05.803472"><ele>24.5</ele><time>2021-01-12T15:28:42Z</time><name>PT6109</name></trkpt>
<trkpt lat="52.064137" lon="05.803480"><ele>24.5</ele><time>2021-01-12T15:28:44Z</time><name>PT6110</name></trkpt>
<trkpt lat="52.064126" lon="05.803486"><ele>24.5</ele><time>2021-01-12T15:28:45Z</time><name>PT6111</name></trkpt>
<trkpt lat="52.064111" lon="05.803495"><ele>24.6</ele><time>2021-01-12T15:28:45Z</time><name>PT6112</name></trkpt>
<trkpt lat="52.064099" lon="05.803502"><ele>24.6</ele><time>2021-01-12T15:28:47Z</time><name>PT6113</name></trkpt>
<trkpt lat="52.064090" lon="05.803507"><ele>24.5</ele><time>2021-01-12T15:28:48Z</time><name>PT6114</name></trkpt>
<trkpt lat="52.064080" lon="05.803513"><ele>24.4</ele><time>2021-01-12T15:28:48Z</time><name>PT6115</name></trkpt>
<trkpt lat="52.064069" lon="05.803521"><ele>24.1</ele><time>2021-01-12T15:28:50Z</time><name>PT6116</name></trkpt>
<trkpt lat="52.064057" lon="05.803528"><ele>24.2</ele><time>2021-01-12T15:28:51Z</time><name>PT6117</name></trkpt>
<trkpt lat="52.064046" lon="05.803534"><ele>24.2</ele><time>2021-01-12T15:28:51Z</time><name>PT6118</name></trkpt>
<trkpt lat="52.064035" lon="05.803543"><ele>24.2</ele><time>2021-01-12T15:28:53Z</time><name>PT6119</name></trkpt>
<trkpt lat="52.064028" lon="05.803548"><ele>24.4</ele><time>2021-01-12T15:28:54Z</time><name>PT6120</name></trkpt>
<trkpt lat="52.064020" lon="05.803554"><ele>24.4</ele><time>2021-01-12T15:28:54Z</time><name>PT6121</name></trkpt>
<trkpt lat="52.064008" lon="05.803561"><ele>24.3</ele><time>2021-01-12T15:28:56Z</time><name>PT6122</name></trkpt>
<trkpt lat="52.063996" lon="05.803563"><ele>24.2</ele><time>2021-01-12T15:28:57Z</time><name>PT6123</name></trkpt>
<trkpt lat="52.063985" lon="05.803568"><ele>24.2</ele><time>2021-01-12T15:28:58Z</time><name>PT6124</name></trkpt>
<trkpt lat="52.063970" lon="05.803578"><ele>24.2</ele><time>2021-01-12T15:28:59Z</time><name>PT6125</name></trkpt>
<trkpt lat="52.063958" lon="05.803584"><ele>24.3</ele><time>2021-01-12T15:29:00Z</time><name>PT6126</name></trkpt>
<trkpt lat="52.063947" lon="05.803585"><ele>24.2</ele><time>2021-01-12T15:29:00Z</time><name>PT6127</name></trkpt>
<trkpt lat="52.063935" lon="05.803590"><ele>24.2</ele><time>2021-01-12T15:29:02Z</time><name>PT6128</name></trkpt>
<trkpt lat="52.063925" lon="05.803594"><ele>24.4</ele><time>2021-01-12T15:29:03Z</time><name>PT6129</name></trkpt>
<trkpt lat="52.063913" lon="05.803599"><ele>24.4</ele><time>2021-01-12T15:29:04Z</time><name>PT6130</name></trkpt>
<trkpt lat="52.063903" lon="05.803604"><ele>24.5</ele><time>2021-01-12T15:29:05Z</time><name>PT6131</name></trkpt>
<trkpt lat="52.063893" lon="05.803606"><ele>24.5</ele><time>2021-01-12T15:29:06Z</time><name>PT6132</name></trkpt>
<trkpt lat="52.063882" lon="05.803611"><ele>24.6</ele><time>2021-01-12T15:29:07Z</time><name>PT6133</name></trkpt>
<trkpt lat="52.063871" lon="05.803618"><ele>24.5</ele><time>2021-01-12T15:29:08Z</time><name>PT6134</name></trkpt>
<trkpt lat="52.063859" lon="05.803623"><ele>24.5</ele><time>2021-01-12T15:29:09Z</time><name>PT6135</name></trkpt>
<trkpt lat="52.063850" lon="05.803625"><ele>24.5</ele><time>2021-01-12T15:29:10Z</time><name>PT6136</name></trkpt>
<trkpt lat="52.063841" lon="05.803630"><ele>24.3</ele><time>2021-01-12T15:29:11Z</time><name>PT6137</name></trkpt>
<trkpt lat="52.063833" lon="05.803632"><ele>24.1</ele><time>2021-01-12T15:29:12Z</time><name>PT6138</name></trkpt>
<trkpt lat="52.063823" lon="05.803639"><ele>24.1</ele><time>2021-01-12T15:29:13Z</time><name>PT6139</name></trkpt>
<trkpt lat="52.063815" lon="05.803646"><ele>23.9</ele><time>2021-01-12T15:29:14Z</time><name>PT6140</name></trkpt>
<trkpt lat="52.063806" lon="05.803650"><ele>24</ele><time>2021-01-12T15:29:15Z</time><name>PT6141</name></trkpt>
<trkpt lat="52.063798" lon="05.803653"><ele>24.1</ele><time>2021-01-12T15:29:16Z</time><name>PT6142</name></trkpt>
<trkpt lat="52.063787" lon="05.803649"><ele>24.1</ele><time>2021-01-12T15:29:17Z</time><name>PT6143</name></trkpt>
<trkpt lat="52.063779" lon="05.803646"><ele>24.1</ele><time>2021-01-12T15:29:18Z</time><name>PT6144</name></trkpt>
<trkpt lat="52.063769" lon="05.803645"><ele>24.2</ele><time>2021-01-12T15:29:18Z</time><name>PT6145</name></trkpt>
<trkpt lat="52.063756" lon="05.803647"><ele>24.3</ele><time>2021-01-12T15:29:20Z</time><name>PT6146</name></trkpt>
<trkpt lat="52.063740" lon="05.803653"><ele>24.1</ele><time>2021-01-12T15:29:21Z</time><name>PT6147</name></trkpt>
<trkpt lat="52.063725" lon="05.803660"><ele>24.1</ele><time>2021-01-12T15:29:21Z</time><name>PT6148</name></trkpt>
<trkpt lat="52.063713" lon="05.803666"><ele>24</ele><time>2021-01-12T15:29:23Z</time><name>PT6149</name></trkpt>
<trkpt lat="52.063703" lon="05.803675"><ele>24</ele><time>2021-01-12T15:29:24Z</time><name>PT6150</name></trkpt>
<trkpt lat="52.063696" lon="05.803683"><ele>24</ele><time>2021-01-12T15:29:24Z</time><name>PT6151</name></trkpt>
<trkpt lat="52.063688" lon="05.803690"><ele>24</ele><time>2021-01-12T15:29:26Z</time><name>PT6152</name></trkpt>
<trkpt lat="52.063679" lon="05.803693"><ele>24</ele><time>2021-01-12T15:29:27Z</time><name>PT6153</name></trkpt>
<trkpt lat="52.063671" lon="05.803698"><ele>24</ele><time>2021-01-12T15:29:27Z</time><name>PT6154</name></trkpt>
<trkpt lat="52.063664" lon="05.803706"><ele>24</ele><time>2021-01-12T15:29:29Z</time><name>PT6155</name></trkpt>
<trkpt lat="52.063654" lon="05.803717"><ele>24</ele><time>2021-01-12T15:29:30Z</time><name>PT6156</name></trkpt>
<trkpt lat="52.063640" lon="05.803728"><ele>24.1</ele><time>2021-01-12T15:29:30Z</time><name>PT6157</name></trkpt>
<trkpt lat="52.063629" lon="05.803738"><ele>24</ele><time>2021-01-12T15:29:32Z</time><name>PT6158</name></trkpt>
<trkpt lat="52.063617" lon="05.803746"><ele>23.9</ele><time>2021-01-12T15:29:33Z</time><name>PT6159</name></trkpt>
<trkpt lat="52.063606" lon="05.803752"><ele>24</ele><time>2021-01-12T15:29:33Z</time><name>PT6160</name></trkpt>
<trkpt lat="52.063596" lon="05.803759"><ele>24</ele><time>2021-01-12T15:29:35Z</time><name>PT6161</name></trkpt>
<trkpt lat="52.063585" lon="05.803768"><ele>24.1</ele><time>2021-01-12T15:29:36Z</time><name>PT6162</name></trkpt>
<trkpt lat="52.063576" lon="05.803779"><ele>24.2</ele><time>2021-01-12T15:29:36Z</time><name>PT6163</name></trkpt>
<trkpt lat="52.063565" lon="05.803789"><ele>24.3</ele><time>2021-01-12T15:29:38Z</time><name>PT6164</name></trkpt>
<trkpt lat="52.063550" lon="05.803799"><ele>24.2</ele><time>2021-01-12T15:29:39Z</time><name>PT6165</name></trkpt>
<trkpt lat="52.063535" lon="05.803810"><ele>24.1</ele><time>2021-01-12T15:29:39Z</time><name>PT6166</name></trkpt>
<trkpt lat="52.063522" lon="05.803820"><ele>24.3</ele><time>2021-01-12T15:29:41Z</time><name>PT6167</name></trkpt>
<trkpt lat="52.063510" lon="05.803829"><ele>24.1</ele><time>2021-01-12T15:29:42Z</time><name>PT6168</name></trkpt>
<trkpt lat="52.063499" lon="05.803838"><ele>24.1</ele><time>2021-01-12T15:29:42Z</time><name>PT6169</name></trkpt>
<trkpt lat="52.063488" lon="05.803846"><ele>24.1</ele><time>2021-01-12T15:29:44Z</time><name>PT6170</name></trkpt>
<trkpt lat="52.063478" lon="05.803852"><ele>24</ele><time>2021-01-12T15:29:45Z</time><name>PT6171</name></trkpt>
<trkpt lat="52.063466" lon="05.803861"><ele>24</ele><time>2021-01-12T15:29:45Z</time><name>PT6172</name></trkpt>
<trkpt lat="52.063453" lon="05.803869"><ele>24</ele><time>2021-01-12T15:29:47Z</time><name>PT6173</name></trkpt>
<trkpt lat="52.063440" lon="05.803875"><ele>24.2</ele><time>2021-01-12T15:29:48Z</time><name>PT6174</name></trkpt>
<trkpt lat="52.063428" lon="05.803881"><ele>24.2</ele><time>2021-01-12T15:29:48Z</time><name>PT6175</name></trkpt>
<trkpt lat="52.063413" lon="05.803890"><ele>24.5</ele><time>2021-01-12T15:29:50Z</time><name>PT6176</name></trkpt>
<trkpt lat="52.063400" lon="05.803896"><ele>24.5</ele><time>2021-01-12T15:29:51Z</time><name>PT6177</name></trkpt>
<trkpt lat="52.063386" lon="05.803905"><ele>24.5</ele><time>2021-01-12T15:29:51Z</time><name>PT6178</name></trkpt>
<trkpt lat="52.063373" lon="05.803912"><ele>24.4</ele><time>2021-01-12T15:29:53Z</time><name>PT6179</name></trkpt>
<trkpt lat="52.063358" lon="05.803917"><ele>24.3</ele><time>2021-01-12T15:29:54Z</time><name>PT6180</name></trkpt>
<trkpt lat="52.063345" lon="05.803920"><ele>24.3</ele><time>2021-01-12T15:29:54Z</time><name>PT6181</name></trkpt>
<trkpt lat="52.063333" lon="05.803922"><ele>24.4</ele><time>2021-01-12T15:29:56Z</time><name>PT6182</name></trkpt>
<trkpt lat="52.063322" lon="05.803926"><ele>24.5</ele><time>2021-01-12T15:29:57Z</time><name>PT6183</name></trkpt>
<trkpt lat="52.063311" lon="05.803933"><ele>24.6</ele><time>2021-01-12T15:29:57Z</time><name>PT6184</name></trkpt>
<trkpt lat="52.063299" lon="05.803938"><ele>24.5</ele><time>2021-01-12T15:29:59Z</time><name>PT6185</name></trkpt>
<trkpt lat="52.063287" lon="05.803945"><ele>24.4</ele><time>2021-01-12T15:30:00Z</time><name>PT6186</name></trkpt>
<trkpt lat="52.063275" lon="05.803952"><ele>24.2</ele><time>2021-01-12T15:30:00Z</time><name>PT6187</name></trkpt>
<trkpt lat="52.063262" lon="05.803960"><ele>24.2</ele><time>2021-01-12T15:30:02Z</time><name>PT6188</name></trkpt>
<trkpt lat="52.063251" lon="05.803966"><ele>24.5</ele><time>2021-01-12T15:30:03Z</time><name>PT6189</name></trkpt>
<trkpt lat="52.063239" lon="05.803973"><ele>24.3</ele><time>2021-01-12T15:30:03Z</time><name>PT6190</name></trkpt>
<trkpt lat="52.063229" lon="05.803977"><ele>24.5</ele><time>2021-01-12T15:30:05Z</time><name>PT6191</name></trkpt>
<trkpt lat="52.063215" lon="05.803980"><ele>24.5</ele><time>2021-01-12T15:30:06Z</time><name>PT6192</name></trkpt>
<trkpt lat="52.063204" lon="05.803987"><ele>24.5</ele><time>2021-01-12T15:30:06Z</time><name>PT6193</name></trkpt>
<trkpt lat="52.063193" lon="05.803993"><ele>24.2</ele><time>2021-01-12T15:30:08Z</time><name>PT6194</name></trkpt>
<trkpt lat="52.063182" lon="05.803998"><ele>24.4</ele><time>2021-01-12T15:30:09Z</time><name>PT6195</name></trkpt>
<trkpt lat="52.063170" lon="05.804004"><ele>24.2</ele><time>2021-01-12T15:30:09Z</time><name>PT6196</name></trkpt>
<trkpt lat="52.063158" lon="05.804013"><ele>24.2</ele><time>2021-01-12T15:30:11Z</time><name>PT6197</name></trkpt>
<trkpt lat="52.063145" lon="05.804021"><ele>24.2</ele><time>2021-01-12T15:30:12Z</time><name>PT6198</name></trkpt>
<trkpt lat="52.063131" lon="05.804026"><ele>24.4</ele><time>2021-01-12T15:30:12Z</time><name>PT6199</name></trkpt>
<trkpt lat="52.063118" lon="05.804029"><ele>24.5</ele><time>2021-01-12T15:30:14Z</time><name>PT6200</name></trkpt>
<trkpt lat="52.063105" lon="05.804033"><ele>24.5</ele><time>2021-01-12T15:30:15Z</time><name>PT6201</name></trkpt>
<trkpt lat="52.063092" lon="05.804037"><ele>24.7</ele><time>2021-01-12T15:30:15Z</time><name>PT6202</name></trkpt>
<trkpt lat="52.063080" lon="05.804039"><ele>24.7</ele><time>2021-01-12T15:30:17Z</time><name>PT6203</name></trkpt>
<trkpt lat="52.063069" lon="05.804042"><ele>24.6</ele><time>2021-01-12T15:30:18Z</time><name>PT6204</name></trkpt>
<trkpt lat="52.063059" lon="05.804043"><ele>24.6</ele><time>2021-01-12T15:30:18Z</time><name>PT6205</name></trkpt>
<trkpt lat="52.063051" lon="05.804043"><ele>24.8</ele><time>2021-01-12T15:30:20Z</time><name>PT6206</name></trkpt>
<trkpt lat="52.063041" lon="05.804046"><ele>24.7</ele><time>2021-01-12T15:30:21Z</time><name>PT6207</name></trkpt>
<trkpt lat="52.063032" lon="05.804043"><ele>24.8</ele><time>2021-01-12T15:30:21Z</time><name>PT6208</name></trkpt>
<trkpt lat="52.063022" lon="05.804045"><ele>24.7</ele><time>2021-01-12T15:30:23Z</time><name>PT6209</name></trkpt>
<trkpt lat="52.063009" lon="05.804051"><ele>24.7</ele><time>2021-01-12T15:30:24Z</time><name>PT6210</name></trkpt>
<trkpt lat="52.062996" lon="05.804054"><ele>24.6</ele><time>2021-01-12T15:30:24Z</time><name>PT6211</name></trkpt>
<trkpt lat="52.062990" lon="05.804050"><ele>24.7</ele><time>2021-01-12T15:30:26Z</time><name>PT6212</name></trkpt>
<trkpt lat="52.062986" lon="05.804054"><ele>24.7</ele><time>2021-01-12T15:30:27Z</time><name>PT6213</name></trkpt>
<trkpt lat="52.062981" lon="05.804059"><ele>24.7</ele><time>2021-01-12T15:30:27Z</time><name>PT6214</name></trkpt>
<trkpt lat="52.062971" lon="05.804067"><ele>24.5</ele><time>2021-01-12T15:30:29Z</time><name>PT6215</name></trkpt>
<trkpt lat="52.062962" lon="05.804067"><ele>24.6</ele><time>2021-01-12T15:30:30Z</time><name>PT6216</name></trkpt>
<trkpt lat="52.062952" lon="05.804074"><ele>24.6</ele><time>2021-01-12T15:30:31Z</time><name>PT6217</name></trkpt>
<trkpt lat="52.062944" lon="05.804080"><ele>24.7</ele><time>2021-01-12T15:30:32Z</time><name>PT6218</name></trkpt>
<trkpt lat="52.062935" lon="05.804095"><ele>24.6</ele><time>2021-01-12T15:30:33Z</time><name>PT6219</name></trkpt>
<trkpt lat="52.062921" lon="05.804107"><ele>24.7</ele><time>2021-01-12T15:30:34Z</time><name>PT6220</name></trkpt>
<trkpt lat="52.062911" lon="05.804118"><ele>24.7</ele><time>2021-01-12T15:30:35Z</time><name>PT6221</name></trkpt>
<trkpt lat="52.062901" lon="05.804126"><ele>24.7</ele><time>2021-01-12T15:30:36Z</time><name>PT6222</name></trkpt>
<trkpt lat="52.062893" lon="05.804131"><ele>24.8</ele><time>2021-01-12T15:30:37Z</time><name>PT6223</name></trkpt>
<trkpt lat="52.062886" lon="05.804133"><ele>24.7</ele><time>2021-01-12T15:30:38Z</time><name>PT6224</name></trkpt>
<trkpt lat="52.062877" lon="05.804136"><ele>24.7</ele><time>2021-01-12T15:30:39Z</time><name>PT6225</name></trkpt>
<trkpt lat="52.062866" lon="05.804137"><ele>24.7</ele><time>2021-01-12T15:30:40Z</time><name>PT6226</name></trkpt>
<trkpt lat="52.062857" lon="05.804143"><ele>24.6</ele><time>2021-01-12T15:30:41Z</time><name>PT6227</name></trkpt>
<trkpt lat="52.062848" lon="05.804148"><ele>24.7</ele><time>2021-01-12T15:30:42Z</time><name>PT6228</name></trkpt>
<trkpt lat="52.062837" lon="05.804153"><ele>24.8</ele><time>2021-01-12T15:30:42Z</time><name>PT6229</name></trkpt>
<trkpt lat="52.062830" lon="05.804158"><ele>24.9</ele><time>2021-01-12T15:30:44Z</time><name>PT6230</name></trkpt>
<trkpt lat="52.062827" lon="05.804162"><ele>25</ele><time>2021-01-12T15:30:45Z</time><name>PT6231</name></trkpt>
<trkpt lat="52.062823" lon="05.804164"><ele>25</ele><time>2021-01-12T15:30:45Z</time><name>PT6232</name></trkpt>
<trkpt lat="52.062816" lon="05.804165"><ele>25</ele><time>2021-01-12T15:30:47Z</time><name>PT6233</name></trkpt>
<trkpt lat="52.062805" lon="05.804172"><ele>24.8</ele><time>2021-01-12T15:30:48Z</time><name>PT6234</name></trkpt>
<trkpt lat="52.062797" lon="05.804178"><ele>24.7</ele><time>2021-01-12T15:30:48Z</time><name>PT6235</name></trkpt>
<trkpt lat="52.062790" lon="05.804182"><ele>24.8</ele><time>2021-01-12T15:30:50Z</time><name>PT6236</name></trkpt>
<trkpt lat="52.062783" lon="05.804187"><ele>24.8</ele><time>2021-01-12T15:30:51Z</time><name>PT6237</name></trkpt>
<trkpt lat="52.062776" lon="05.804194"><ele>24.8</ele><time>2021-01-12T15:30:51Z</time><name>PT6238</name></trkpt>
<trkpt lat="52.062769" lon="05.804198"><ele>24.9</ele><time>2021-01-12T15:30:53Z</time><name>PT6239</name></trkpt>
<trkpt lat="52.062760" lon="05.804205"><ele>24.9</ele><time>2021-01-12T15:30:54Z</time><name>PT6240</name></trkpt>
<trkpt lat="52.062745" lon="05.804214"><ele>24.9</ele><time>2021-01-12T15:30:54Z</time><name>PT6241</name></trkpt>
<trkpt lat="52.062733" lon="05.804224"><ele>24.8</ele><time>2021-01-12T15:30:56Z</time><name>PT6242</name></trkpt>
<trkpt lat="52.062722" lon="05.804234"><ele>24.6</ele><time>2021-01-12T15:30:57Z</time><name>PT6243</name></trkpt>
<trkpt lat="52.062711" lon="05.804244"><ele>24.6</ele><time>2021-01-12T15:30:57Z</time><name>PT6244</name></trkpt>
<trkpt lat="52.062700" lon="05.804238"><ele>24.5</ele><time>2021-01-12T15:30:59Z</time><name>PT6245</name></trkpt>
<trkpt lat="52.062694" lon="05.804238"><ele>24.5</ele><time>2021-01-12T15:31:00Z</time><name>PT6246</name></trkpt>
<trkpt lat="52.062687" lon="05.804238"><ele>24.5</ele><time>2021-01-12T15:31:00Z</time><name>PT6247</name></trkpt>
<trkpt lat="52.062679" lon="05.804244"><ele>24.5</ele><time>2021-01-12T15:31:02Z</time><name>PT6248</name></trkpt>
<trkpt lat="52.062671" lon="05.804244"><ele>24.6</ele><time>2021-01-12T15:31:03Z</time><name>PT6249</name></trkpt>
<trkpt lat="52.062659" lon="05.804248"><ele>24.8</ele><time>2021-01-12T15:31:03Z</time><name>PT6250</name></trkpt>
<trkpt lat="52.062647" lon="05.804253"><ele>24.9</ele><time>2021-01-12T15:31:05Z</time><name>PT6251</name></trkpt>
<trkpt lat="52.062640" lon="05.804251"><ele>25</ele><time>2021-01-12T15:31:06Z</time><name>PT6252</name></trkpt>
<trkpt lat="52.062630" lon="05.804254"><ele>25</ele><time>2021-01-12T15:31:06Z</time><name>PT6253</name></trkpt>
<trkpt lat="52.062614" lon="05.804271"><ele>25.1</ele><time>2021-01-12T15:31:08Z</time><name>PT6254</name></trkpt>
<trkpt lat="52.062600" lon="05.804281"><ele>25</ele><time>2021-01-12T15:31:09Z</time><name>PT6255</name></trkpt>
<trkpt lat="52.062586" lon="05.804284"><ele>24.9</ele><time>2021-01-12T15:31:09Z</time><name>PT6256</name></trkpt>
<trkpt lat="52.062579" lon="05.804291"><ele>24.8</ele><time>2021-01-12T15:31:11Z</time><name>PT6257</name></trkpt>
<trkpt lat="52.062565" lon="05.804293"><ele>24.9</ele><time>2021-01-12T15:31:12Z</time><name>PT6258</name></trkpt>
<trkpt lat="52.062553" lon="05.804294"><ele>24.8</ele><time>2021-01-12T15:31:13Z</time><name>PT6259</name></trkpt>
<trkpt lat="52.062539" lon="05.804294"><ele>24.9</ele><time>2021-01-12T15:31:14Z</time><name>PT6260</name></trkpt>
<trkpt lat="52.062532" lon="05.804291"><ele>25</ele><time>2021-01-12T15:31:15Z</time><name>PT6261</name></trkpt>
<trkpt lat="52.062525" lon="05.804294"><ele>24.9</ele><time>2021-01-12T15:31:15Z</time><name>PT6262</name></trkpt>
<trkpt lat="52.062516" lon="05.804293"><ele>24.9</ele><time>2021-01-12T15:31:17Z</time><name>PT6263</name></trkpt>
<trkpt lat="52.062502" lon="05.804300"><ele>25</ele><time>2021-01-12T15:31:18Z</time><name>PT6264</name></trkpt>
<trkpt lat="52.062496" lon="05.804299"><ele>25</ele><time>2021-01-12T15:31:19Z</time><name>PT6265</name></trkpt>
<trkpt lat="52.062488" lon="05.804303"><ele>25</ele><time>2021-01-12T15:31:20Z</time><name>PT6266</name></trkpt>
<trkpt lat="52.062477" lon="05.804307"><ele>24.9</ele><time>2021-01-12T15:31:21Z</time><name>PT6267</name></trkpt>
<trkpt lat="52.062467" lon="05.804308"><ele>24.7</ele><time>2021-01-12T15:31:21Z</time><name>PT6268</name></trkpt>
<trkpt lat="52.062453" lon="05.804313"><ele>24.6</ele><time>2021-01-12T15:31:23Z</time><name>PT6269</name></trkpt>
<trkpt lat="52.062445" lon="05.804317"><ele>24.5</ele><time>2021-01-12T15:31:24Z</time><name>PT6270</name></trkpt>
<trkpt lat="52.062439" lon="05.804322"><ele>24.6</ele><time>2021-01-12T15:31:24Z</time><name>PT6271</name></trkpt>
<trkpt lat="52.062428" lon="05.804329"><ele>24.7</ele><time>2021-01-12T15:31:26Z</time><name>PT6272</name></trkpt>
<trkpt lat="52.062417" lon="05.804338"><ele>24.8</ele><time>2021-01-12T15:31:27Z</time><name>PT6273</name></trkpt>
<trkpt lat="52.062408" lon="05.804343"><ele>24.8</ele><time>2021-01-12T15:31:27Z</time><name>PT6274</name></trkpt>
<trkpt lat="52.062392" lon="05.804354"><ele>24.7</ele><time>2021-01-12T15:31:29Z</time><name>PT6275</name></trkpt>
<trkpt lat="52.062373" lon="05.804365"><ele>24.6</ele><time>2021-01-12T15:31:30Z</time><name>PT6276</name></trkpt>
<trkpt lat="52.062357" lon="05.804379"><ele>24.6</ele><time>2021-01-12T15:31:30Z</time><name>PT6277</name></trkpt>
<trkpt lat="52.062341" lon="05.804389"><ele>24.5</ele><time>2021-01-12T15:31:32Z</time><name>PT6278</name></trkpt>
<trkpt lat="52.062323" lon="05.804396"><ele>24.7</ele><time>2021-01-12T15:31:33Z</time><name>PT6279</name></trkpt>
<trkpt lat="52.062306" lon="05.804409"><ele>24.8</ele><time>2021-01-12T15:31:33Z</time><name>PT6280</name></trkpt>
<trkpt lat="52.062291" lon="05.804408"><ele>24.7</ele><time>2021-01-12T15:31:35Z</time><name>PT6281</name></trkpt>
<trkpt lat="52.062274" lon="05.804401"><ele>24.9</ele><time>2021-01-12T15:31:36Z</time><name>PT6282</name></trkpt>
<trkpt lat="52.062262" lon="05.804407"><ele>24.9</ele><time>2021-01-12T15:31:36Z</time><name>PT6283</name></trkpt>
<trkpt lat="52.062247" lon="05.804422"><ele>24.6</ele><time>2021-01-12T15:31:38Z</time><name>PT6284</name></trkpt>
<trkpt lat="52.062236" lon="05.804428"><ele>24.5</ele><time>2021-01-12T15:31:39Z</time><name>PT6285</name></trkpt>
<trkpt lat="52.062221" lon="05.804434"><ele>24.7</ele><time>2021-01-12T15:31:40Z</time><name>PT6286</name></trkpt>
<trkpt lat="52.062205" lon="05.804443"><ele>24.5</ele><time>2021-01-12T15:31:41Z</time><name>PT6287</name></trkpt>
<trkpt lat="52.062188" lon="05.804450"><ele>24.6</ele><time>2021-01-12T15:31:42Z</time><name>PT6288</name></trkpt>
<trkpt lat="52.062173" lon="05.804458"><ele>24.7</ele><time>2021-01-12T15:31:43Z</time><name>PT6289</name></trkpt>
<trkpt lat="52.062161" lon="05.804465"><ele>24.8</ele><time>2021-01-12T15:31:44Z</time><name>PT6290</name></trkpt>
<trkpt lat="52.062147" lon="05.804472"><ele>24.7</ele><time>2021-01-12T15:31:45Z</time><name>PT6291</name></trkpt>
<trkpt lat="52.062133" lon="05.804476"><ele>24.6</ele><time>2021-01-12T15:31:46Z</time><name>PT6292</name></trkpt>
<trkpt lat="52.062120" lon="05.804480"><ele>24.5</ele><time>2021-01-12T15:31:47Z</time><name>PT6293</name></trkpt>
<trkpt lat="52.062108" lon="05.804487"><ele>24.5</ele><time>2021-01-12T15:31:48Z</time><name>PT6294</name></trkpt>
<trkpt lat="52.062093" lon="05.804492"><ele>24.5</ele><time>2021-01-12T15:31:49Z</time><name>PT6295</name></trkpt>
<trkpt lat="52.062081" lon="05.804495"><ele>24.4</ele><time>2021-01-12T15:31:50Z</time><name>PT6296</name></trkpt>
<trkpt lat="52.062067" lon="05.804497"><ele>24.4</ele><time>2021-01-12T15:31:51Z</time><name>PT6297</name></trkpt>
<trkpt lat="52.062051" lon="05.804502"><ele>24.4</ele><time>2021-01-12T15:31:52Z</time><name>PT6298</name></trkpt>
<trkpt lat="52.062039" lon="05.804508"><ele>24.4</ele><time>2021-01-12T15:31:53Z</time><name>PT6299</name></trkpt>
<trkpt lat="52.062027" lon="05.804512"><ele>24.2</ele><time>2021-01-12T15:31:54Z</time><name>PT6300</name></trkpt>
<trkpt lat="52.062015" lon="05.804513"><ele>24.4</ele><time>2021-01-12T15:31:55Z</time><name>PT6301</name></trkpt>
<trkpt lat="52.062003" lon="05.804516"><ele>24.4</ele><time>2021-01-12T15:31:56Z</time><name>PT6302</name></trkpt>
<trkpt lat="52.061992" lon="05.804519"><ele>24.2</ele><time>2021-01-12T15:31:57Z</time><name>PT6303</name></trkpt>
<trkpt lat="52.061980" lon="05.804524"><ele>24.3</ele><time>2021-01-12T15:31:57Z</time><name>PT6304</name></trkpt>
<trkpt lat="52.061968" lon="05.804531"><ele>24.5</ele><time>2021-01-12T15:31:59Z</time><name>PT6305</name></trkpt>
<trkpt lat="52.061958" lon="05.804534"><ele>24.6</ele><time>2021-01-12T15:32:00Z</time><name>PT6306</name></trkpt>
<trkpt lat="52.061949" lon="05.804533"><ele>24.6</ele><time>2021-01-12T15:32:00Z</time><name>PT6307</name></trkpt>
<trkpt lat="52.061940" lon="05.804532"><ele>24.5</ele><time>2021-01-12T15:32:02Z</time><name>PT6308</name></trkpt>
<trkpt lat="52.061930" lon="05.804532"><ele>24.5</ele><time>2021-01-12T15:32:03Z</time><name>PT6309</name></trkpt>
<trkpt lat="52.061920" lon="05.804534"><ele>24.4</ele><time>2021-01-12T15:32:03Z</time><name>PT6310</name></trkpt>
<trkpt lat="52.061912" lon="05.804538"><ele>24.3</ele><time>2021-01-12T15:32:05Z</time><name>PT6311</name></trkpt>
<trkpt lat="52.061901" lon="05.804542"><ele>24.4</ele><time>2021-01-12T15:32:06Z</time><name>PT6312</name></trkpt>
<trkpt lat="52.061887" lon="05.804548"><ele>24.3</ele><time>2021-01-12T15:32:06Z</time><name>PT6313</name></trkpt>
<trkpt lat="52.061877" lon="05.804552"><ele>24.2</ele><time>2021-01-12T15:32:08Z</time><name>PT6314</name></trkpt>
<trkpt lat="52.061865" lon="05.804554"><ele>24.5</ele><time>2021-01-12T15:32:09Z</time><name>PT6315</name></trkpt>
<trkpt lat="52.061847" lon="05.804553"><ele>24.4</ele><time>2021-01-12T15:32:09Z</time><name>PT6316</name></trkpt>
<trkpt lat="52.061832" lon="05.804555"><ele>24.3</ele><time>2021-01-12T15:32:11Z</time><name>PT6317</name></trkpt>
<trkpt lat="52.061817" lon="05.804561"><ele>24.3</ele><time>2021-01-12T15:32:12Z</time><name>PT6318</name></trkpt>
<trkpt lat="52.061804" lon="05.804569"><ele>24.5</ele><time>2021-01-12T15:32:12Z</time><name>PT6319</name></trkpt>
<trkpt lat="52.061792" lon="05.804576"><ele>24.3</ele><time>2021-01-12T15:32:14Z</time><name>PT6320</name></trkpt>
<trkpt lat="52.061781" lon="05.804580"><ele>24.4</ele><time>2021-01-12T15:32:15Z</time><name>PT6321</name></trkpt>
<trkpt lat="52.061766" lon="05.804584"><ele>24.2</ele><time>2021-01-12T15:32:15Z</time><name>PT6322</name></trkpt>
<trkpt lat="52.061751" lon="05.804586"><ele>24.1</ele><time>2021-01-12T15:32:17Z</time><name>PT6323</name></trkpt>
<trkpt lat="52.061738" lon="05.804590"><ele>24</ele><time>2021-01-12T15:32:18Z</time><name>PT6324</name></trkpt>
<trkpt lat="52.061726" lon="05.804595"><ele>24</ele><time>2021-01-12T15:32:18Z</time><name>PT6325</name></trkpt>
<trkpt lat="52.061713" lon="05.804602"><ele>24</ele><time>2021-01-12T15:32:20Z</time><name>PT6326</name></trkpt>
<trkpt lat="52.061700" lon="05.804607"><ele>24.2</ele><time>2021-01-12T15:32:21Z</time><name>PT6327</name></trkpt>
<trkpt lat="52.061687" lon="05.804613"><ele>24.3</ele><time>2021-01-12T15:32:21Z</time><name>PT6328</name></trkpt>
<trkpt lat="52.061674" lon="05.804617"><ele>24.2</ele><time>2021-01-12T15:32:23Z</time><name>PT6329</name></trkpt>
<trkpt lat="52.061663" lon="05.804624"><ele>24.2</ele><time>2021-01-12T15:32:24Z</time><name>PT6330</name></trkpt>
<trkpt lat="52.061651" lon="05.804633"><ele>24.1</ele><time>2021-01-12T15:32:24Z</time><name>PT6331</name></trkpt>
<trkpt lat="52.061640" lon="05.804640"><ele>24</ele><time>2021-01-12T15:32:26Z</time><name>PT6332</name></trkpt>
<trkpt lat="52.061627" lon="05.804645"><ele>24.2</ele><time>2021-01-12T15:32:27Z</time><name>PT6333</name></trkpt>
<trkpt lat="52.061614" lon="05.804652"><ele>24.3</ele><time>2021-01-12T15:32:27Z</time><name>PT6334</name></trkpt>
<trkpt lat="52.061603" lon="05.804659"><ele>24.3</ele><time>2021-01-12T15:32:29Z</time><name>PT6335</name></trkpt>
<trkpt lat="52.061591" lon="05.804665"><ele>24.3</ele><time>2021-01-12T15:32:30Z</time><name>PT6336</name></trkpt>
<trkpt lat="52.061580" lon="05.804669"><ele>24.3</ele><time>2021-01-12T15:32:30Z</time><name>PT6337</name></trkpt>
<trkpt lat="52.061571" lon="05.804672"><ele>24.3</ele><time>2021-01-12T15:32:32Z</time><name>PT6338</name></trkpt>
<trkpt lat="52.061559" lon="05.804676"><ele>24.1</ele><time>2021-01-12T15:32:33Z</time><name>PT6339</name></trkpt>
<trkpt lat="52.061550" lon="05.804680"><ele>24</ele><time>2021-01-12T15:32:33Z</time><name>PT6340</name></trkpt>
<trkpt lat="52.061539" lon="05.804684"><ele>24.1</ele><time>2021-01-12T15:32:35Z</time><name>PT6341</name></trkpt>
<trkpt lat="52.061526" lon="05.804686"><ele>24.1</ele><time>2021-01-12T15:32:36Z</time><name>PT6342</name></trkpt>
<trkpt lat="52.061513" lon="05.804690"><ele>24.2</ele><time>2021-01-12T15:32:36Z</time><name>PT6343</name></trkpt>
<trkpt lat="52.061499" lon="05.804694"><ele>24.2</ele><time>2021-01-12T15:32:38Z</time><name>PT6344</name></trkpt>
<trkpt lat="52.061487" lon="05.804698"><ele>24.3</ele><time>2021-01-12T15:32:39Z</time><name>PT6345</name></trkpt>
<trkpt lat="52.061475" lon="05.804701"><ele>24.3</ele><time>2021-01-12T15:32:39Z</time><name>PT6346</name></trkpt>
<trkpt lat="52.061463" lon="05.804707"><ele>24</ele><time>2021-01-12T15:32:41Z</time><name>PT6347</name></trkpt>
<trkpt lat="52.061453" lon="05.804711"><ele>24</ele><time>2021-01-12T15:32:42Z</time><name>PT6348</name></trkpt>
<trkpt lat="52.061443" lon="05.804714"><ele>24.1</ele><time>2021-01-12T15:32:42Z</time><name>PT6349</name></trkpt>
<trkpt lat="52.061437" lon="05.804718"><ele>24</ele><time>2021-01-12T15:32:44Z</time><name>PT6350</name></trkpt>
<trkpt lat="52.061431" lon="05.804718"><ele>24.1</ele><time>2021-01-12T15:32:45Z</time><name>PT6351</name></trkpt>
<trkpt lat="52.061423" lon="05.804719"><ele>24.1</ele><time>2021-01-12T15:32:45Z</time><name>PT6352</name></trkpt>
<trkpt lat="52.061415" lon="05.804723"><ele>24</ele><time>2021-01-12T15:32:47Z</time><name>PT6353</name></trkpt>
<trkpt lat="52.061407" lon="05.804722"><ele>24</ele><time>2021-01-12T15:32:48Z</time><name>PT6354</name></trkpt>
<trkpt lat="52.061399" lon="05.804726"><ele>24</ele><time>2021-01-12T15:32:48Z</time><name>PT6355</name></trkpt>
<trkpt lat="52.061390" lon="05.804730"><ele>24</ele><time>2021-01-12T15:32:50Z</time><name>PT6356</name></trkpt>
<trkpt lat="52.061382" lon="05.804734"><ele>24.2</ele><time>2021-01-12T15:32:51Z</time><name>PT6357</name></trkpt>
<trkpt lat="52.061370" lon="05.804739"><ele>24.2</ele><time>2021-01-12T15:32:51Z</time><name>PT6358</name></trkpt>
<trkpt lat="52.061360" lon="05.804743"><ele>24.1</ele><time>2021-01-12T15:32:53Z</time><name>PT6359</name></trkpt>
<trkpt lat="52.061349" lon="05.804749"><ele>24.1</ele><time>2021-01-12T15:32:54Z</time><name>PT6360</name></trkpt>
<trkpt lat="52.061339" lon="05.804754"><ele>24.1</ele><time>2021-01-12T15:32:54Z</time><name>PT6361</name></trkpt>
<trkpt lat="52.061327" lon="05.804758"><ele>24.2</ele><time>2021-01-12T15:32:56Z</time><name>PT6362</name></trkpt>
<trkpt lat="52.061316" lon="05.804765"><ele>24.2</ele><time>2021-01-12T15:32:57Z</time><name>PT6363</name></trkpt>
<trkpt lat="52.061307" lon="05.804767"><ele>24.2</ele><time>2021-01-12T15:32:57Z</time><name>PT6364</name></trkpt>
<trkpt lat="52.061296" lon="05.804772"><ele>24.3</ele><time>2021-01-12T15:32:59Z</time><name>PT6365</name></trkpt>
<trkpt lat="52.061285" lon="05.804770"><ele>24.3</ele><time>2021-01-12T15:33:00Z</time><name>PT6366</name></trkpt>
<trkpt lat="52.061277" lon="05.804767"><ele>24.1</ele><time>2021-01-12T15:33:00Z</time><name>PT6367</name></trkpt>
<trkpt lat="52.061268" lon="05.804768"><ele>24.3</ele><time>2021-01-12T15:33:02Z</time><name>PT6368</name></trkpt>
<trkpt lat="52.061259" lon="05.804765"><ele>24.3</ele><time>2021-01-12T15:33:03Z</time><name>PT6369</name></trkpt>
<trkpt lat="52.061252" lon="05.804765"><ele>24.2</ele><time>2021-01-12T15:33:03Z</time><name>PT6370</name></trkpt>
<trkpt lat="52.061241" lon="05.804771"><ele>24.2</ele><time>2021-01-12T15:33:05Z</time><name>PT6371</name></trkpt>
<trkpt lat="52.061231" lon="05.804771"><ele>24.3</ele><time>2021-01-12T15:33:06Z</time><name>PT6372</name></trkpt>
<trkpt lat="52.061218" lon="05.804784"><ele>24.2</ele><time>2021-01-12T15:33:06Z</time><name>PT6373</name></trkpt>
<trkpt lat="52.061208" lon="05.804790"><ele>24.2</ele><time>2021-01-12T15:33:08Z</time><name>PT6374</name></trkpt>
<trkpt lat="52.061197" lon="05.804799"><ele>24.1</ele><time>2021-01-12T15:33:09Z</time><name>PT6375</name></trkpt>
<trkpt lat="52.061185" lon="05.804813"><ele>24.1</ele><time>2021-01-12T15:33:09Z</time><name>PT6376</name></trkpt>
<trkpt lat="52.061173" lon="05.804825"><ele>24.1</ele><time>2021-01-12T15:33:11Z</time><name>PT6377</name></trkpt>
<trkpt lat="52.061163" lon="05.804833"><ele>24.2</ele><time>2021-01-12T15:33:12Z</time><name>PT6378</name></trkpt>
<trkpt lat="52.061150" lon="05.804844"><ele>24.2</ele><time>2021-01-12T15:33:13Z</time><name>PT6379</name></trkpt>
<trkpt lat="52.061136" lon="05.804856"><ele>24.1</ele><time>2021-01-12T15:33:14Z</time><name>PT6380</name></trkpt>
<trkpt lat="52.061125" lon="05.804864"><ele>24.1</ele><time>2021-01-12T15:33:15Z</time><name>PT6381</name></trkpt>
<trkpt lat="52.061117" lon="05.804867"><ele>24.2</ele><time>2021-01-12T15:33:16Z</time><name>PT6382</name></trkpt>
<trkpt lat="52.061104" lon="05.804870"><ele>24</ele><time>2021-01-12T15:33:17Z</time><name>PT6383</name></trkpt>
<trkpt lat="52.061086" lon="05.804869"><ele>24.1</ele><time>2021-01-12T15:33:18Z</time><name>PT6384</name></trkpt>
<trkpt lat="52.061074" lon="05.804871"><ele>24.2</ele><time>2021-01-12T15:33:19Z</time><name>PT6385</name></trkpt>
<trkpt lat="52.061060" lon="05.804882"><ele>24.3</ele><time>2021-01-12T15:33:20Z</time><name>PT6386</name></trkpt>
<trkpt lat="52.061028" lon="05.804934"><ele>24.4</ele><time>2021-01-12T15:33:21Z</time><name>PT6387</name></trkpt>
<trkpt lat="52.061023" lon="05.804940"><ele>24.5</ele><time>2021-01-12T15:33:22Z</time><name>PT6388</name></trkpt>
<trkpt lat="52.061015" lon="05.804942"><ele>24.7</ele><time>2021-01-12T15:33:23Z</time><name>PT6389</name></trkpt>
<trkpt lat="52.061004" lon="05.804944"><ele>24.7</ele><time>2021-01-12T15:33:24Z</time><name>PT6390</name></trkpt>
<trkpt lat="52.060996" lon="05.804943"><ele>24.8</ele><time>2021-01-12T15:33:25Z</time><name>PT6391</name></trkpt>
<trkpt lat="52.060987" lon="05.804942"><ele>24.7</ele><time>2021-01-12T15:33:26Z</time><name>PT6392</name></trkpt>
<trkpt lat="52.060978" lon="05.804943"><ele>24.6</ele><time>2021-01-12T15:33:27Z</time><name>PT6393</name></trkpt>
<trkpt lat="52.060970" lon="05.804939"><ele>24.5</ele><time>2021-01-12T15:33:28Z</time><name>PT6394</name></trkpt>
<trkpt lat="52.060961" lon="05.804941"><ele>24.5</ele><time>2021-01-12T15:33:29Z</time><name>PT6395</name></trkpt>
<trkpt lat="52.060948" lon="05.804944"><ele>24.5</ele><time>2021-01-12T15:33:30Z</time><name>PT6396</name></trkpt>
<trkpt lat="52.060938" lon="05.804942"><ele>24.4</ele><time>2021-01-12T15:33:30Z</time><name>PT6397</name></trkpt>
<trkpt lat="52.060925" lon="05.804939"><ele>24.6</ele><time>2021-01-12T15:33:32Z</time><name>PT6398</name></trkpt>
<trkpt lat="52.060913" lon="05.804938"><ele>24.6</ele><time>2021-01-12T15:33:33Z</time><name>PT6399</name></trkpt>
<trkpt lat="52.060901" lon="05.804941"><ele>24.5</ele><time>2021-01-12T15:33:33Z</time><name>PT6400</name></trkpt>
<trkpt lat="52.060893" lon="05.804944"><ele>24.6</ele><time>2021-01-12T15:33:35Z</time><name>PT6401</name></trkpt>
<trkpt lat="52.060881" lon="05.804949"><ele>24.5</ele><time>2021-01-12T15:33:36Z</time><name>PT6402</name></trkpt>
<trkpt lat="52.060873" lon="05.804954"><ele>24.5</ele><time>2021-01-12T15:33:36Z</time><name>PT6403</name></trkpt>
<trkpt lat="52.060861" lon="05.804958"><ele>24.5</ele><time>2021-01-12T15:33:38Z</time><name>PT6404</name></trkpt>
<trkpt lat="52.060852" lon="05.804961"><ele>24.7</ele><time>2021-01-12T15:33:39Z</time><name>PT6405</name></trkpt>
<trkpt lat="52.060844" lon="05.804964"><ele>24.6</ele><time>2021-01-12T15:33:39Z</time><name>PT6406</name></trkpt>
<trkpt lat="52.060833" lon="05.804967"><ele>24.7</ele><time>2021-01-12T15:33:41Z</time><name>PT6407</name></trkpt>
<trkpt lat="52.060821" lon="05.804969"><ele>24.7</ele><time>2021-01-12T15:33:42Z</time><name>PT6408</name></trkpt>
<trkpt lat="52.060813" lon="05.804969"><ele>24.6</ele><time>2021-01-12T15:33:42Z</time><name>PT6409</name></trkpt>
<trkpt lat="52.060803" lon="05.804966"><ele>24.7</ele><time>2021-01-12T15:33:44Z</time><name>PT6410</name></trkpt>
<trkpt lat="52.060793" lon="05.804968"><ele>24.7</ele><time>2021-01-12T15:33:45Z</time><name>PT6411</name></trkpt>
<trkpt lat="52.060787" lon="05.804968"><ele>24.7</ele><time>2021-01-12T15:33:45Z</time><name>PT6412</name></trkpt>
<trkpt lat="52.060780" lon="05.804970"><ele>24.7</ele><time>2021-01-12T15:33:47Z</time><name>PT6413</name></trkpt>
<trkpt lat="52.060769" lon="05.804974"><ele>24.8</ele><time>2021-01-12T15:33:48Z</time><name>PT6414</name></trkpt>
<trkpt lat="52.060759" lon="05.804968"><ele>24.7</ele><time>2021-01-12T15:33:48Z</time><name>PT6415</name></trkpt>
<trkpt lat="52.060745" lon="05.804966"><ele>24.7</ele><time>2021-01-12T15:33:50Z</time><name>PT6416</name></trkpt>
<trkpt lat="52.060735" lon="05.804966"><ele>24.6</ele><time>2021-01-12T15:33:51Z</time><name>PT6417</name></trkpt>
<trkpt lat="52.060725" lon="05.804966"><ele>24.6</ele><time>2021-01-12T15:33:51Z</time><name>PT6418</name></trkpt>
<trkpt lat="52.060715" lon="05.804967"><ele>24.9</ele><time>2021-01-12T15:33:53Z</time><name>PT6419</name></trkpt>
<trkpt lat="52.060700" lon="05.804971"><ele>24.9</ele><time>2021-01-12T15:33:54Z</time><name>PT6420</name></trkpt>
<trkpt lat="52.060687" lon="05.804971"><ele>24.9</ele><time>2021-01-12T15:33:54Z</time><name>PT6421</name></trkpt>
<trkpt lat="52.060673" lon="05.804971"><ele>24.9</ele><time>2021-01-12T15:33:56Z</time><name>PT6422</name></trkpt>
<trkpt lat="52.060662" lon="05.804976"><ele>24.8</ele><time>2021-01-12T15:33:57Z</time><name>PT6423</name></trkpt>
<trkpt lat="52.060652" lon="05.804979"><ele>24.6</ele><time>2021-01-12T15:33:57Z</time><name>PT6424</name></trkpt>
<trkpt lat="52.060640" lon="05.804981"><ele>24.7</ele><time>2021-01-12T15:33:59Z</time><name>PT6425</name></trkpt>
<trkpt lat="52.060627" lon="05.804990"><ele>24.5</ele><time>2021-01-12T15:34:00Z</time><name>PT6426</name></trkpt>
<trkpt lat="52.060615" lon="05.804996"><ele>24.5</ele><time>2021-01-12T15:34:00Z</time><name>PT6427</name></trkpt>
<trkpt lat="52.060601" lon="05.804998"><ele>24.4</ele><time>2021-01-12T15:34:02Z</time><name>PT6428</name></trkpt>
<trkpt lat="52.060587" lon="05.805002"><ele>24.1</ele><time>2021-01-12T15:34:03Z</time><name>PT6429</name></trkpt>
<trkpt lat="52.060578" lon="05.805002"><ele>24</ele><time>2021-01-12T15:34:03Z</time><name>PT6430</name></trkpt>
<trkpt lat="52.060571" lon="05.805005"><ele>24.2</ele><time>2021-01-12T15:34:05Z</time><name>PT6431</name></trkpt>
<trkpt lat="52.060560" lon="05.805017"><ele>24.3</ele><time>2021-01-12T15:34:06Z</time><name>PT6432</name></trkpt>
<trkpt lat="52.060549" lon="05.805023"><ele>24.5</ele><time>2021-01-12T15:34:06Z</time><name>PT6433</name></trkpt>
<trkpt lat="52.060535" lon="05.805029"><ele>24.5</ele><time>2021-01-12T15:34:08Z</time><name>PT6434</name></trkpt>
<trkpt lat="52.060530" lon="05.805030"><ele>24.5</ele><time>2021-01-12T15:34:09Z</time><name>PT6435</name></trkpt>
<trkpt lat="52.060518" lon="05.805035"><ele>24.6</ele><time>2021-01-12T15:34:09Z</time><name>PT6436</name></trkpt>
<trkpt lat="52.060509" lon="05.805034"><ele>24.5</ele><time>2021-01-12T15:34:11Z</time><name>PT6437</name></trkpt>
<trkpt lat="52.060498" lon="05.805039"><ele>24.4</ele><time>2021-01-12T15:34:12Z</time><name>PT6438</name></trkpt>
<trkpt lat="52.060486" lon="05.805043"><ele>24.4</ele><time>2021-01-12T15:34:12Z</time><name>PT6439</name></trkpt>
<trkpt lat="52.060475" lon="05.805046"><ele>24.5</ele><time>2021-01-12T15:34:14Z</time><name>PT6440</name></trkpt>
<trkpt lat="52.060463" lon="05.805052"><ele>24.3</ele><time>2021-01-12T15:34:15Z</time><name>PT6441</name></trkpt>
<trkpt lat="52.060456" lon="05.805049"><ele>24.4</ele><time>2021-01-12T15:34:15Z</time><name>PT6442</name></trkpt>
<trkpt lat="52.060447" lon="05.805057"><ele>24.3</ele><time>2021-01-12T15:34:17Z</time><name>PT6443</name></trkpt>
<trkpt lat="52.060434" lon="05.805063"><ele>24.3</ele><time>2021-01-12T15:34:18Z</time><name>PT6444</name></trkpt>
<trkpt lat="52.060418" lon="05.805069"><ele>24.3</ele><time>2021-01-12T15:34:18Z</time><name>PT6445</name></trkpt>
<trkpt lat="52.060403" lon="05.805080"><ele>24.4</ele><time>2021-01-12T15:34:20Z</time><name>PT6446</name></trkpt>
<trkpt lat="52.060385" lon="05.805082"><ele>24.5</ele><time>2021-01-12T15:34:21Z</time><name>PT6447</name></trkpt>
<trkpt lat="52.060368" lon="05.805086"><ele>24.5</ele><time>2021-01-12T15:34:21Z</time><name>PT6448</name></trkpt>
<trkpt lat="52.060348" lon="05.805093"><ele>24.5</ele><time>2021-01-12T15:34:23Z</time><name>PT6449</name></trkpt>
<trkpt lat="52.060328" lon="05.805104"><ele>24.5</ele><time>2021-01-12T15:34:24Z</time><name>PT6450</name></trkpt>
<trkpt lat="52.060311" lon="05.805105"><ele>24.4</ele><time>2021-01-12T15:34:24Z</time><name>PT6451</name></trkpt>
<trkpt lat="52.060294" lon="05.805109"><ele>24.1</ele><time>2021-01-12T15:34:26Z</time><name>PT6452</name></trkpt>
<trkpt lat="52.060278" lon="05.805113"><ele>24.3</ele><time>2021-01-12T15:34:27Z</time><name>PT6453</name></trkpt>
<trkpt lat="52.060264" lon="05.805118"><ele>24.2</ele><time>2021-01-12T15:34:27Z</time><name>PT6454</name></trkpt>
<trkpt lat="52.060250" lon="05.805125"><ele>24.4</ele><time>2021-01-12T15:34:29Z</time><name>PT6455</name></trkpt>
<trkpt lat="52.060238" lon="05.805130"><ele>24.5</ele><time>2021-01-12T15:34:30Z</time><name>PT6456</name></trkpt>
<trkpt lat="52.060228" lon="05.805139"><ele>24.5</ele><time>2021-01-12T15:34:30Z</time><name>PT6457</name></trkpt>
<trkpt lat="52.060213" lon="05.805146"><ele>24.5</ele><time>2021-01-12T15:34:32Z</time><name>PT6458</name></trkpt>
<trkpt lat="52.060198" lon="05.805152"><ele>24.4</ele><time>2021-01-12T15:34:33Z</time><name>PT6459</name></trkpt>
<trkpt lat="52.060184" lon="05.805158"><ele>24.3</ele><time>2021-01-12T15:34:33Z</time><name>PT6460</name></trkpt>
<trkpt lat="52.060173" lon="05.805162"><ele>24.3</ele><time>2021-01-12T15:34:35Z</time><name>PT6461</name></trkpt>
<trkpt lat="52.060161" lon="05.805167"><ele>24.2</ele><time>2021-01-12T15:34:36Z</time><name>PT6462</name></trkpt>
<trkpt lat="52.060148" lon="05.805173"><ele>24.2</ele><time>2021-01-12T15:34:36Z</time><name>PT6463</name></trkpt>
<trkpt lat="52.060134" lon="05.805180"><ele>24.3</ele><time>2021-01-12T15:34:38Z</time><name>PT6464</name></trkpt>
<trkpt lat="52.060119" lon="05.805184"><ele>24.3</ele><time>2021-01-12T15:34:39Z</time><name>PT6465</name></trkpt>
<trkpt lat="52.060106" lon="05.805188"><ele>24.1</ele><time>2021-01-12T15:34:40Z</time><name>PT6466</name></trkpt>
<trkpt lat="52.060091" lon="05.805193"><ele>24.2</ele><time>2021-01-12T15:34:41Z</time><name>PT6467</name></trkpt>
<trkpt lat="52.060077" lon="05.805197"><ele>24.2</ele><time>2021-01-12T15:34:42Z</time><name>PT6468</name></trkpt>
<trkpt lat="52.060062" lon="05.805204"><ele>24.1</ele><time>2021-01-12T15:34:42Z</time><name>PT6469</name></trkpt>
<trkpt lat="52.060044" lon="05.805212"><ele>24.1</ele><time>2021-01-12T15:34:44Z</time><name>PT6470</name></trkpt>
<trkpt lat="52.060029" lon="05.805217"><ele>24</ele><time>2021-01-12T15:34:45Z</time><name>PT6471</name></trkpt>
<trkpt lat="52.060016" lon="05.805226"><ele>24.1</ele><time>2021-01-12T15:34:46Z</time><name>PT6472</name></trkpt>
<trkpt lat="52.060002" lon="05.805230"><ele>24</ele><time>2021-01-12T15:34:47Z</time><name>PT6473</name></trkpt>
<trkpt lat="52.059989" lon="05.805234"><ele>24</ele><time>2021-01-12T15:34:48Z</time><name>PT6474</name></trkpt>
<trkpt lat="52.059975" lon="05.805239"><ele>24</ele><time>2021-01-12T15:34:49Z</time><name>PT6475</name></trkpt>
<trkpt lat="52.059962" lon="05.805244"><ele>23.8</ele><time>2021-01-12T15:34:50Z</time><name>PT6476</name></trkpt>
<trkpt lat="52.059949" lon="05.805249"><ele>23.7</ele><time>2021-01-12T15:34:51Z</time><name>PT6477</name></trkpt>
<trkpt lat="52.059936" lon="05.805254"><ele>23.8</ele><time>2021-01-12T15:34:51Z</time><name>PT6478</name></trkpt>
<trkpt lat="52.059924" lon="05.805258"><ele>23.8</ele><time>2021-01-12T15:34:53Z</time><name>PT6479</name></trkpt>
<trkpt lat="52.059914" lon="05.805262"><ele>24</ele><time>2021-01-12T15:34:54Z</time><name>PT6480</name></trkpt>
<trkpt lat="52.059903" lon="05.805266"><ele>24.1</ele><time>2021-01-12T15:34:54Z</time><name>PT6481</name></trkpt>
<trkpt lat="52.059892" lon="05.805272"><ele>24.1</ele><time>2021-01-12T15:34:56Z</time><name>PT6482</name></trkpt>
<trkpt lat="52.059879" lon="05.805277"><ele>24.1</ele><time>2021-01-12T15:34:57Z</time><name>PT6483</name></trkpt>
<trkpt lat="52.059867" lon="05.805282"><ele>24.1</ele><time>2021-01-12T15:34:57Z</time><name>PT6484</name></trkpt>
<trkpt lat="52.059856" lon="05.805287"><ele>24</ele><time>2021-01-12T15:34:59Z</time><name>PT6485</name></trkpt>
<trkpt lat="52.059845" lon="05.805292"><ele>24.1</ele><time>2021-01-12T15:35:00Z</time><name>PT6486</name></trkpt>
<trkpt lat="52.059834" lon="05.805296"><ele>24.1</ele><time>2021-01-12T15:35:00Z</time><name>PT6487</name></trkpt>
<trkpt lat="52.059821" lon="05.805300"><ele>24</ele><time>2021-01-12T15:35:02Z</time><name>PT6488</name></trkpt>
<trkpt lat="52.059809" lon="05.805303"><ele>24.2</ele><time>2021-01-12T15:35:03Z</time><name>PT6489</name></trkpt>
<trkpt lat="52.059796" lon="05.805306"><ele>24.3</ele><time>2021-01-12T15:35:03Z</time><name>PT6490</name></trkpt>
<trkpt lat="52.059782" lon="05.805309"><ele>24.2</ele><time>2021-01-12T15:35:05Z</time><name>PT6491</name></trkpt>
<trkpt lat="52.059768" lon="05.805311"><ele>24.2</ele><time>2021-01-12T15:35:06Z</time><name>PT6492</name></trkpt>
<trkpt lat="52.059755" lon="05.805313"><ele>24.2</ele><time>2021-01-12T15:35:06Z</time><name>PT6493</name></trkpt>
<trkpt lat="52.059741" lon="05.805316"><ele>24</ele><time>2021-01-12T15:35:08Z</time><name>PT6494</name></trkpt>
<trkpt lat="52.059727" lon="05.805317"><ele>24</ele><time>2021-01-12T15:35:09Z</time><name>PT6495</name></trkpt>
<trkpt lat="52.059714" lon="05.805318"><ele>24</ele><time>2021-01-12T15:35:09Z</time><name>PT6496</name></trkpt>
<trkpt lat="52.059701" lon="05.805321"><ele>24</ele><time>2021-01-12T15:35:11Z</time><name>PT6497</name></trkpt>
<trkpt lat="52.059687" lon="05.805324"><ele>24</ele><time>2021-01-12T15:35:12Z</time><name>PT6498</name></trkpt>
<trkpt lat="52.059675" lon="05.805327"><ele>24</ele><time>2021-01-12T15:35:12Z</time><name>PT6499</name></trkpt>
<trkpt lat="52.059662" lon="05.805328"><ele>24.1</ele><time>2021-01-12T15:35:14Z</time><name>PT6500</name></trkpt>
<trkpt lat="52.059649" lon="05.805329"><ele>24.1</ele><time>2021-01-12T15:35:15Z</time><name>PT6501</name></trkpt>
<trkpt lat="52.059635" lon="05.805331"><ele>24.1</ele><time>2021-01-12T15:35:15Z</time><name>PT6502</name></trkpt>
<trkpt lat="52.059622" lon="05.805331"><ele>24</ele><time>2021-01-12T15:35:17Z</time><name>PT6503</name></trkpt>
<trkpt lat="52.059611" lon="05.805331"><ele>24.1</ele><time>2021-01-12T15:35:18Z</time><name>PT6504</name></trkpt>
<trkpt lat="52.059599" lon="05.805332"><ele>24</ele><time>2021-01-12T15:35:18Z</time><name>PT6505</name></trkpt>
<trkpt lat="52.059588" lon="05.805334"><ele>24</ele><time>2021-01-12T15:35:20Z</time><name>PT6506</name></trkpt>
<trkpt lat="52.059578" lon="05.805337"><ele>24.2</ele><time>2021-01-12T15:35:21Z</time><name>PT6507</name></trkpt>
<trkpt lat="52.059568" lon="05.805341"><ele>24.4</ele><time>2021-01-12T15:35:21Z</time><name>PT6508</name></trkpt>
<trkpt lat="52.059557" lon="05.805345"><ele>24.1</ele><time>2021-01-12T15:35:23Z</time><name>PT6509</name></trkpt>
<trkpt lat="52.059546" lon="05.805346"><ele>24.2</ele><time>2021-01-12T15:35:24Z</time><name>PT6510</name></trkpt>
<trkpt lat="52.059534" lon="05.805345"><ele>24.2</ele><time>2021-01-12T15:35:24Z</time><name>PT6511</name></trkpt>
<trkpt lat="52.059523" lon="05.805345"><ele>24</ele><time>2021-01-12T15:35:26Z</time><name>PT6512</name></trkpt>
<trkpt lat="52.059511" lon="05.805347"><ele>23.9</ele><time>2021-01-12T15:35:27Z</time><name>PT6513</name></trkpt>
<trkpt lat="52.059499" lon="05.805353"><ele>24</ele><time>2021-01-12T15:35:27Z</time><name>PT6514</name></trkpt>
<trkpt lat="52.059490" lon="05.805361"><ele>24</ele><time>2021-01-12T15:35:29Z</time><name>PT6515</name></trkpt>
<trkpt lat="52.059482" lon="05.805365"><ele>24</ele><time>2021-01-12T15:35:30Z</time><name>PT6516</name></trkpt>
<trkpt lat="52.059471" lon="05.805368"><ele>24.1</ele><time>2021-01-12T15:35:30Z</time><name>PT6517</name></trkpt>
<trkpt lat="52.059459" lon="05.805371"><ele>24.3</ele><time>2021-01-12T15:35:32Z</time><name>PT6518</name></trkpt>
<trkpt lat="52.059447" lon="05.805371"><ele>24.2</ele><time>2021-01-12T15:35:33Z</time><name>PT6519</name></trkpt>
<trkpt lat="52.059434" lon="05.805373"><ele>24.2</ele><time>2021-01-12T15:35:33Z</time><name>PT6520</name></trkpt>
<trkpt lat="52.059422" lon="05.805375"><ele>24.3</ele><time>2021-01-12T15:35:35Z</time><name>PT6521</name></trkpt>
<trkpt lat="52.059409" lon="05.805375"><ele>24.3</ele><time>2021-01-12T15:35:36Z</time><name>PT6522</name></trkpt>
<trkpt lat="52.059396" lon="05.805376"><ele>24.3</ele><time>2021-01-12T15:35:36Z</time><name>PT6523</name></trkpt>
<trkpt lat="52.059385" lon="05.805378"><ele>24.3</ele><time>2021-01-12T15:35:38Z</time><name>PT6524</name></trkpt>
<trkpt lat="52.059373" lon="05.805382"><ele>24.3</ele><time>2021-01-12T15:35:39Z</time><name>PT6525</name></trkpt>
<trkpt lat="52.059361" lon="05.805385"><ele>24.3</ele><time>2021-01-12T15:35:39Z</time><name>PT6526</name></trkpt>
<trkpt lat="52.059349" lon="05.805388"><ele>24.5</ele><time>2021-01-12T15:35:41Z</time><name>PT6527</name></trkpt>
<trkpt lat="52.059338" lon="05.805393"><ele>24.5</ele><time>2021-01-12T15:35:42Z</time><name>PT6528</name></trkpt>
<trkpt lat="52.059327" lon="05.805396"><ele>24.5</ele><time>2021-01-12T15:35:42Z</time><name>PT6529</name></trkpt>
<trkpt lat="52.059315" lon="05.805402"><ele>24.5</ele><time>2021-01-12T15:35:44Z</time><name>PT6530</name></trkpt>
<trkpt lat="52.059304" lon="05.805408"><ele>24.7</ele><time>2021-01-12T15:35:45Z</time><name>PT6531</name></trkpt>
<trkpt lat="52.059294" lon="05.805412"><ele>24.5</ele><time>2021-01-12T15:35:45Z</time><name>PT6532</name></trkpt>
<trkpt lat="52.059284" lon="05.805414"><ele>24.5</ele><time>2021-01-12T15:35:47Z</time><name>PT6533</name></trkpt>
<trkpt lat="52.059273" lon="05.805416"><ele>24.5</ele><time>2021-01-12T15:35:48Z</time><name>PT6534</name></trkpt>
<trkpt lat="52.059262" lon="05.805415"><ele>24.6</ele><time>2021-01-12T15:35:48Z</time><name>PT6535</name></trkpt>
<trkpt lat="52.059251" lon="05.805416"><ele>24.4</ele><time>2021-01-12T15:35:50Z</time><name>PT6536</name></trkpt>
<trkpt lat="52.059239" lon="05.805418"><ele>24.3</ele><time>2021-01-12T15:35:51Z</time><name>PT6537</name></trkpt>
<trkpt lat="52.059227" lon="05.805420"><ele>24.2</ele><time>2021-01-12T15:35:52Z</time><name>PT6538</name></trkpt>
<trkpt lat="52.059217" lon="05.805423"><ele>24</ele><time>2021-01-12T15:35:53Z</time><name>PT6539</name></trkpt>
<trkpt lat="52.059206" lon="05.805428"><ele>23.8</ele><time>2021-01-12T15:35:54Z</time><name>PT6540</name></trkpt>
<trkpt lat="52.059195" lon="05.805432"><ele>24</ele><time>2021-01-12T15:35:54Z</time><name>PT6541</name></trkpt>
<trkpt lat="52.059183" lon="05.805438"><ele>24</ele><time>2021-01-12T15:35:56Z</time><name>PT6542</name></trkpt>
<trkpt lat="52.059171" lon="05.805443"><ele>23.9</ele><time>2021-01-12T15:35:57Z</time><name>PT6543</name></trkpt>
<trkpt lat="52.059158" lon="05.805447"><ele>24</ele><time>2021-01-12T15:35:57Z</time><name>PT6544</name></trkpt>
<trkpt lat="52.059146" lon="05.805452"><ele>24.1</ele><time>2021-01-12T15:35:59Z</time><name>PT6545</name></trkpt>
<trkpt lat="52.059134" lon="05.805456"><ele>24.4</ele><time>2021-01-12T15:36:00Z</time><name>PT6546</name></trkpt>
<trkpt lat="52.059124" lon="05.805460"><ele>24.2</ele><time>2021-01-12T15:36:00Z</time><name>PT6547</name></trkpt>
<trkpt lat="52.059113" lon="05.805465"><ele>24.3</ele><time>2021-01-12T15:36:02Z</time><name>PT6548</name></trkpt>
<trkpt lat="52.059102" lon="05.805469"><ele>24.1</ele><time>2021-01-12T15:36:03Z</time><name>PT6549</name></trkpt>
<trkpt lat="52.059090" lon="05.805471"><ele>24.1</ele><time>2021-01-12T15:36:04Z</time><name>PT6550</name></trkpt>
<trkpt lat="52.059079" lon="05.805472"><ele>24</ele><time>2021-01-12T15:36:05Z</time><name>PT6551</name></trkpt>
<trkpt lat="52.059067" lon="05.805473"><ele>24.1</ele><time>2021-01-12T15:36:06Z</time><name>PT6552</name></trkpt>
<trkpt lat="52.059054" lon="05.805476"><ele>24.2</ele><time>2021-01-12T15:36:07Z</time><name>PT6553</name></trkpt>
<trkpt lat="52.059043" lon="05.805480"><ele>24.3</ele><time>2021-01-12T15:36:08Z</time><name>PT6554</name></trkpt>
<trkpt lat="52.059031" lon="05.805483"><ele>24.3</ele><time>2021-01-12T15:36:09Z</time><name>PT6555</name></trkpt>
<trkpt lat="52.059020" lon="05.805486"><ele>24.4</ele><time>2021-01-12T15:36:10Z</time><name>PT6556</name></trkpt>
<trkpt lat="52.059008" lon="05.805490"><ele>24.2</ele><time>2021-01-12T15:36:11Z</time><name>PT6557</name></trkpt>
<trkpt lat="52.058997" lon="05.805495"><ele>24.2</ele><time>2021-01-12T15:36:12Z</time><name>PT6558</name></trkpt>
<trkpt lat="52.058986" lon="05.805499"><ele>24.1</ele><time>2021-01-12T15:36:12Z</time><name>PT6559</name></trkpt>
<trkpt lat="52.058977" lon="05.805503"><ele>24.1</ele><time>2021-01-12T15:36:14Z</time><name>PT6560</name></trkpt>
<trkpt lat="52.058966" lon="05.805506"><ele>24.1</ele><time>2021-01-12T15:36:15Z</time><name>PT6561</name></trkpt>
<trkpt lat="52.058956" lon="05.805510"><ele>24.1</ele><time>2021-01-12T15:36:15Z</time><name>PT6562</name></trkpt>
<trkpt lat="52.058946" lon="05.805512"><ele>24</ele><time>2021-01-12T15:36:17Z</time><name>PT6563</name></trkpt>
<trkpt lat="52.058935" lon="05.805514"><ele>24.1</ele><time>2021-01-12T15:36:18Z</time><name>PT6564</name></trkpt>
<trkpt lat="52.058923" lon="05.805517"><ele>24.1</ele><time>2021-01-12T15:36:18Z</time><name>PT6565</name></trkpt>
<trkpt lat="52.058912" lon="05.805520"><ele>24.1</ele><time>2021-01-12T15:36:20Z</time><name>PT6566</name></trkpt>
<trkpt lat="52.058902" lon="05.805521"><ele>24</ele><time>2021-01-12T15:36:21Z</time><name>PT6567</name></trkpt>
<trkpt lat="52.058892" lon="05.805523"><ele>24</ele><time>2021-01-12T15:36:21Z</time><name>PT6568</name></trkpt>
<trkpt lat="52.058882" lon="05.805525"><ele>24</ele><time>2021-01-12T15:36:23Z</time><name>PT6569</name></trkpt>
<trkpt lat="52.058872" lon="05.805529"><ele>24</ele><time>2021-01-12T15:36:24Z</time><name>PT6570</name></trkpt>
<trkpt lat="52.058861" lon="05.805536"><ele>24</ele><time>2021-01-12T15:36:24Z</time><name>PT6571</name></trkpt>
<trkpt lat="52.058849" lon="05.805544"><ele>24</ele><time>2021-01-12T15:36:26Z</time><name>PT6572</name></trkpt>
<trkpt lat="52.058837" lon="05.805552"><ele>24</ele><time>2021-01-12T15:36:27Z</time><name>PT6573</name></trkpt>
<trkpt lat="52.058825" lon="05.805555"><ele>24</ele><time>2021-01-12T15:36:27Z</time><name>PT6574</name></trkpt>
<trkpt lat="52.058815" lon="05.805556"><ele>24</ele><time>2021-01-12T15:36:29Z</time><name>PT6575</name></trkpt>
<trkpt lat="52.058806" lon="05.805558"><ele>24.2</ele><time>2021-01-12T15:36:30Z</time><name>PT6576</name></trkpt>
<trkpt lat="52.058795" lon="05.805561"><ele>24.4</ele><time>2021-01-12T15:36:30Z</time><name>PT6577</name></trkpt>
<trkpt lat="52.058784" lon="05.805566"><ele>24.4</ele><time>2021-01-12T15:36:32Z</time><name>PT6578</name></trkpt>
<trkpt lat="52.058772" lon="05.805569"><ele>24.5</ele><time>2021-01-12T15:36:33Z</time><name>PT6579</name></trkpt>
<trkpt lat="52.058761" lon="05.805570"><ele>24.5</ele><time>2021-01-12T15:36:33Z</time><name>PT6580</name></trkpt>
<trkpt lat="52.058751" lon="05.805571"><ele>24.4</ele><time>2021-01-12T15:36:35Z</time><name>PT6581</name></trkpt>
<trkpt lat="52.058741" lon="05.805570"><ele>24.4</ele><time>2021-01-12T15:36:36Z</time><name>PT6582</name></trkpt>
<trkpt lat="52.058730" lon="05.805571"><ele>24.4</ele><time>2021-01-12T15:36:36Z</time><name>PT6583</name></trkpt>
<trkpt lat="52.058719" lon="05.805574"><ele>24.4</ele><time>2021-01-12T15:36:38Z</time><name>PT6584</name></trkpt>
<trkpt lat="52.058708" lon="05.805576"><ele>24.4</ele><time>2021-01-12T15:36:39Z</time><name>PT6585</name></trkpt>
<trkpt lat="52.058700" lon="05.805579"><ele>24.2</ele><time>2021-01-12T15:36:39Z</time><name>PT6586</name></trkpt>
<trkpt lat="52.058692" lon="05.805582"><ele>24</ele><time>2021-01-12T15:36:41Z</time><name>PT6587</name></trkpt>
<trkpt lat="52.058682" lon="05.805582"><ele>24</ele><time>2021-01-12T15:36:42Z</time><name>PT6588</name></trkpt>
<trkpt lat="52.058670" lon="05.805585"><ele>24</ele><time>2021-01-12T15:36:42Z</time><name>PT6589</name></trkpt>
<trkpt lat="52.058657" lon="05.805588"><ele>24</ele><time>2021-01-12T15:36:44Z</time><name>PT6590</name></trkpt>
<trkpt lat="52.058647" lon="05.805589"><ele>24</ele><time>2021-01-12T15:36:45Z</time><name>PT6591</name></trkpt>
<trkpt lat="52.058637" lon="05.805596"><ele>24</ele><time>2021-01-12T15:36:45Z</time><name>PT6592</name></trkpt>
<trkpt lat="52.058631" lon="05.805606"><ele>24.1</ele><time>2021-01-12T15:36:47Z</time><name>PT6593</name></trkpt>
<trkpt lat="52.058622" lon="05.805614"><ele>24.1</ele><time>2021-01-12T15:36:48Z</time><name>PT6594</name></trkpt>
<trkpt lat="52.058614" lon="05.805621"><ele>24.1</ele><time>2021-01-12T15:36:48Z</time><name>PT6595</name></trkpt>
<trkpt lat="52.058606" lon="05.805626"><ele>24.1</ele><time>2021-01-12T15:36:50Z</time><name>PT6596</name></trkpt>
<trkpt lat="52.058596" lon="05.805629"><ele>24.1</ele><time>2021-01-12T15:36:51Z</time><name>PT6597</name></trkpt>
<trkpt lat="52.058585" lon="05.805630"><ele>24.2</ele><time>2021-01-12T15:36:51Z</time><name>PT6598</name></trkpt>
<trkpt lat="52.058575" lon="05.805631"><ele>24.1</ele><time>2021-01-12T15:36:53Z</time><name>PT6599</name></trkpt>
<trkpt lat="52.058565" lon="05.805634"><ele>24.1</ele><time>2021-01-12T15:36:54Z</time><name>PT6600</name></trkpt>
<trkpt lat="52.058557" lon="05.805638"><ele>24.1</ele><time>2021-01-12T15:36:54Z</time><name>PT6601</name></trkpt>
<trkpt lat="52.058548" lon="05.805640"><ele>24.1</ele><time>2021-01-12T15:36:56Z</time><name>PT6602</name></trkpt>
<trkpt lat="52.058536" lon="05.805641"><ele>24.1</ele><time>2021-01-12T15:36:57Z</time><name>PT6603</name></trkpt>
<trkpt lat="52.058527" lon="05.805642"><ele>24.2</ele><time>2021-01-12T15:36:57Z</time><name>PT6604</name></trkpt>
<trkpt lat="52.058518" lon="05.805643"><ele>24.3</ele><time>2021-01-12T15:36:59Z</time><name>PT6605</name></trkpt>
<trkpt lat="52.058509" lon="05.805645"><ele>24.4</ele><time>2021-01-12T15:37:00Z</time><name>PT6606</name></trkpt>
<trkpt lat="52.058499" lon="05.805649"><ele>24.3</ele><time>2021-01-12T15:37:00Z</time><name>PT6607</name></trkpt>
<trkpt lat="52.058489" lon="05.805653"><ele>24.4</ele><time>2021-01-12T15:37:02Z</time><name>PT6608</name></trkpt>
<trkpt lat="52.058481" lon="05.805657"><ele>24.3</ele><time>2021-01-12T15:37:03Z</time><name>PT6609</name></trkpt>
<trkpt lat="52.058471" lon="05.805663"><ele>24.3</ele><time>2021-01-12T15:37:03Z</time><name>PT6610</name></trkpt>
<trkpt lat="52.058462" lon="05.805669"><ele>24.3</ele><time>2021-01-12T15:37:05Z</time><name>PT6611</name></trkpt>
<trkpt lat="52.058453" lon="05.805677"><ele>24.3</ele><time>2021-01-12T15:37:06Z</time><name>PT6612</name></trkpt>
<trkpt lat="52.058444" lon="05.805685"><ele>24.5</ele><time>2021-01-12T15:37:06Z</time><name>PT6613</name></trkpt>
<trkpt lat="52.058435" lon="05.805693"><ele>24.5</ele><time>2021-01-12T15:37:08Z</time><name>PT6614</name></trkpt>
<trkpt lat="52.058429" lon="05.805699"><ele>24.5</ele><time>2021-01-12T15:37:09Z</time><name>PT6615</name></trkpt>
<trkpt lat="52.058420" lon="05.805706"><ele>24.5</ele><time>2021-01-12T15:37:09Z</time><name>PT6616</name></trkpt>
<trkpt lat="52.058409" lon="05.805711"><ele>24.4</ele><time>2021-01-12T15:37:11Z</time><name>PT6617</name></trkpt>
<trkpt lat="52.058400" lon="05.805718"><ele>24.2</ele><time>2021-01-12T15:37:12Z</time><name>PT6618</name></trkpt>
<trkpt lat="52.058391" lon="05.805728"><ele>24.2</ele><time>2021-01-12T15:37:12Z</time><name>PT6619</name></trkpt>
<trkpt lat="52.058382" lon="05.805735"><ele>24.4</ele><time>2021-01-12T15:37:14Z</time><name>PT6620</name></trkpt>
<trkpt lat="52.058372" lon="05.805746"><ele>24.6</ele><time>2021-01-12T15:37:15Z</time><name>PT6621</name></trkpt>
<trkpt lat="52.058360" lon="05.805758"><ele>24.8</ele><time>2021-01-12T15:37:16Z</time><name>PT6622</name></trkpt>
<trkpt lat="52.058351" lon="05.805768"><ele>25</ele><time>2021-01-12T15:37:17Z</time><name>PT6623</name></trkpt>
<trkpt lat="52.058341" lon="05.805775"><ele>25</ele><time>2021-01-12T15:37:18Z</time><name>PT6624</name></trkpt>
<trkpt lat="52.058331" lon="05.805782"><ele>25</ele><time>2021-01-12T15:37:19Z</time><name>PT6625</name></trkpt>
<trkpt lat="52.058322" lon="05.805789"><ele>25</ele><time>2021-01-12T15:37:20Z</time><name>PT6626</name></trkpt>
<trkpt lat="52.058312" lon="05.805796"><ele>24.9</ele><time>2021-01-12T15:37:21Z</time><name>PT6627</name></trkpt>
<trkpt lat="52.058299" lon="05.805806"><ele>24.9</ele><time>2021-01-12T15:37:22Z</time><name>PT6628</name></trkpt>
<trkpt lat="52.058287" lon="05.805811"><ele>24.9</ele><time>2021-01-12T15:37:23Z</time><name>PT6629</name></trkpt>
<trkpt lat="52.058273" lon="05.805818"><ele>24.9</ele><time>2021-01-12T15:37:24Z</time><name>PT6630</name></trkpt>
<trkpt lat="52.058262" lon="05.805822"><ele>24.7</ele><time>2021-01-12T15:37:24Z</time><name>PT6631</name></trkpt>
<trkpt lat="52.058252" lon="05.805824"><ele>24.5</ele><time>2021-01-12T15:37:26Z</time><name>PT6632</name></trkpt>
<trkpt lat="52.058241" lon="05.805831"><ele>24.4</ele><time>2021-01-12T15:37:27Z</time><name>PT6633</name></trkpt>
<trkpt lat="52.058229" lon="05.805838"><ele>24.3</ele><time>2021-01-12T15:37:27Z</time><name>PT6634</name></trkpt>
<trkpt lat="52.058217" lon="05.805844"><ele>24.2</ele><time>2021-01-12T15:37:29Z</time><name>PT6635</name></trkpt>
<trkpt lat="52.058206" lon="05.805848"><ele>24.3</ele><time>2021-01-12T15:37:30Z</time><name>PT6636</name></trkpt>
<trkpt lat="52.058196" lon="05.805852"><ele>24.3</ele><time>2021-01-12T15:37:30Z</time><name>PT6637</name></trkpt>
<trkpt lat="52.058186" lon="05.805857"><ele>24.5</ele><time>2021-01-12T15:37:32Z</time><name>PT6638</name></trkpt>
<trkpt lat="52.058175" lon="05.805862"><ele>24.6</ele><time>2021-01-12T15:37:33Z</time><name>PT6639</name></trkpt>
<trkpt lat="52.058162" lon="05.805865"><ele>24.7</ele><time>2021-01-12T15:37:33Z</time><name>PT6640</name></trkpt>
<trkpt lat="52.058150" lon="05.805874"><ele>24.8</ele><time>2021-01-12T15:37:35Z</time><name>PT6641</name></trkpt>
<trkpt lat="52.058138" lon="05.805884"><ele>24.8</ele><time>2021-01-12T15:37:36Z</time><name>PT6642</name></trkpt>
<trkpt lat="52.058128" lon="05.805892"><ele>24.8</ele><time>2021-01-12T15:37:36Z</time><name>PT6643</name></trkpt>
<trkpt lat="52.058118" lon="05.805897"><ele>24.9</ele><time>2021-01-12T15:37:38Z</time><name>PT6644</name></trkpt>
<trkpt lat="52.058108" lon="05.805899"><ele>25</ele><time>2021-01-12T15:37:39Z</time><name>PT6645</name></trkpt>
<trkpt lat="52.058096" lon="05.805900"><ele>25</ele><time>2021-01-12T15:37:39Z</time><name>PT6646</name></trkpt>
<trkpt lat="52.058084" lon="05.805901"><ele>25</ele><time>2021-01-12T15:37:41Z</time><name>PT6647</name></trkpt>
<trkpt lat="52.058074" lon="05.805903"><ele>24.9</ele><time>2021-01-12T15:37:42Z</time><name>PT6648</name></trkpt>
<trkpt lat="52.058065" lon="05.805905"><ele>24.8</ele><time>2021-01-12T15:37:42Z</time><name>PT6649</name></trkpt>
<trkpt lat="52.058055" lon="05.805908"><ele>24.8</ele><time>2021-01-12T15:37:44Z</time><name>PT6650</name></trkpt>
<trkpt lat="52.058044" lon="05.805911"><ele>24.8</ele><time>2021-01-12T15:37:45Z</time><name>PT6651</name></trkpt>
<trkpt lat="52.058033" lon="05.805914"><ele>25</ele><time>2021-01-12T15:37:45Z</time><name>PT6652</name></trkpt>
<trkpt lat="52.058021" lon="05.805916"><ele>25</ele><time>2021-01-12T15:37:47Z</time><name>PT6653</name></trkpt>
<trkpt lat="52.058010" lon="05.805919"><ele>25.4</ele><time>2021-01-12T15:37:48Z</time><name>PT6654</name></trkpt>
<trkpt lat="52.057998" lon="05.805924"><ele>25.3</ele><time>2021-01-12T15:37:48Z</time><name>PT6655</name></trkpt>
<trkpt lat="52.057988" lon="05.805931"><ele>25.3</ele><time>2021-01-12T15:37:50Z</time><name>PT6656</name></trkpt>
<trkpt lat="52.057977" lon="05.805938"><ele>25.1</ele><time>2021-01-12T15:37:51Z</time><name>PT6657</name></trkpt>
<trkpt lat="52.057968" lon="05.805946"><ele>25</ele><time>2021-01-12T15:37:51Z</time><name>PT6658</name></trkpt>
<trkpt lat="52.057956" lon="05.805952"><ele>25</ele><time>2021-01-12T15:37:53Z</time><name>PT6659</name></trkpt>
<trkpt lat="52.057944" lon="05.805959"><ele>25</ele><time>2021-01-12T15:37:54Z</time><name>PT6660</name></trkpt>
<trkpt lat="52.057933" lon="05.805965"><ele>25.1</ele><time>2021-01-12T15:37:54Z</time><name>PT6661</name></trkpt>
<trkpt lat="52.057924" lon="05.805970"><ele>25.2</ele><time>2021-01-12T15:37:56Z</time><name>PT6662</name></trkpt>
<trkpt lat="52.057909" lon="05.805974"><ele>25.2</ele><time>2021-01-12T15:37:57Z</time><name>PT6663</name></trkpt>
<trkpt lat="52.057894" lon="05.805980"><ele>25.1</ele><time>2021-01-12T15:37:57Z</time><name>PT6664</name></trkpt>
<trkpt lat="52.057882" lon="05.805984"><ele>25</ele><time>2021-01-12T15:37:59Z</time><name>PT6665</name></trkpt>
<trkpt lat="52.057871" lon="05.805988"><ele>25</ele><time>2021-01-12T15:38:00Z</time><name>PT6666</name></trkpt>
<trkpt lat="52.057861" lon="05.805994"><ele>25</ele><time>2021-01-12T15:38:00Z</time><name>PT6667</name></trkpt>
<trkpt lat="52.057851" lon="05.806000"><ele>25</ele><time>2021-01-12T15:38:02Z</time><name>PT6668</name></trkpt>
<trkpt lat="52.057838" lon="05.806007"><ele>25.1</ele><time>2021-01-12T15:38:03Z</time><name>PT6669</name></trkpt>
<trkpt lat="52.057826" lon="05.806013"><ele>25.2</ele><time>2021-01-12T15:38:03Z</time><name>PT6670</name></trkpt>
<trkpt lat="52.057815" lon="05.806020"><ele>25.2</ele><time>2021-01-12T15:38:05Z</time><name>PT6671</name></trkpt>
<trkpt lat="52.057804" lon="05.806026"><ele>25.3</ele><time>2021-01-12T15:38:06Z</time><name>PT6672</name></trkpt>
<trkpt lat="52.057793" lon="05.806030"><ele>25.3</ele><time>2021-01-12T15:38:06Z</time><name>PT6673</name></trkpt>
<trkpt lat="52.057785" lon="05.806033"><ele>25.2</ele><time>2021-01-12T15:38:08Z</time><name>PT6674</name></trkpt>
<trkpt lat="52.057777" lon="05.806037"><ele>25.4</ele><time>2021-01-12T15:38:09Z</time><name>PT6675</name></trkpt>
<trkpt lat="52.057766" lon="05.806040"><ele>25.5</ele><time>2021-01-12T15:38:09Z</time><name>PT6676</name></trkpt>
<trkpt lat="52.057754" lon="05.806044"><ele>25.5</ele><time>2021-01-12T15:38:11Z</time><name>PT6677</name></trkpt>
<trkpt lat="52.057742" lon="05.806047"><ele>25.4</ele><time>2021-01-12T15:38:12Z</time><name>PT6678</name></trkpt>
<trkpt lat="52.057730" lon="05.806052"><ele>25.4</ele><time>2021-01-12T15:38:12Z</time><name>PT6679</name></trkpt>
<trkpt lat="52.057716" lon="05.806055"><ele>25.2</ele><time>2021-01-12T15:38:14Z</time><name>PT6680</name></trkpt>
<trkpt lat="52.057704" lon="05.806058"><ele>25.1</ele><time>2021-01-12T15:38:15Z</time><name>PT6681</name></trkpt>
<trkpt lat="52.057694" lon="05.806061"><ele>25</ele><time>2021-01-12T15:38:15Z</time><name>PT6682</name></trkpt>
<trkpt lat="52.057685" lon="05.806066"><ele>25</ele><time>2021-01-12T15:38:17Z</time><name>PT6683</name></trkpt>
<trkpt lat="52.057674" lon="05.806073"><ele>25</ele><time>2021-01-12T15:38:18Z</time><name>PT6684</name></trkpt>
<trkpt lat="52.057662" lon="05.806078"><ele>25.1</ele><time>2021-01-12T15:38:18Z</time><name>PT6685</name></trkpt>
<trkpt lat="52.057652" lon="05.806084"><ele>25.4</ele><time>2021-01-12T15:38:20Z</time><name>PT6686</name></trkpt>
<trkpt lat="52.057642" lon="05.806091"><ele>25.4</ele><time>2021-01-12T15:38:21Z</time><name>PT6687</name></trkpt>
<trkpt lat="52.057631" lon="05.806096"><ele>25.5</ele><time>2021-01-12T15:38:21Z</time><name>PT6688</name></trkpt>
<trkpt lat="52.057621" lon="05.806099"><ele>25.7</ele><time>2021-01-12T15:38:23Z</time><name>PT6689</name></trkpt>
<trkpt lat="52.057611" lon="05.806105"><ele>25.7</ele><time>2021-01-12T15:38:24Z</time><name>PT6690</name></trkpt>
<trkpt lat="52.057601" lon="05.806111"><ele>25.8</ele><time>2021-01-12T15:38:24Z</time><name>PT6691</name></trkpt>
<trkpt lat="52.057592" lon="05.806121"><ele>25.7</ele><time>2021-01-12T15:38:26Z</time><name>PT6692</name></trkpt>
<trkpt lat="52.057580" lon="05.806130"><ele>25.5</ele><time>2021-01-12T15:38:27Z</time><name>PT6693</name></trkpt>
<trkpt lat="52.057569" lon="05.806135"><ele>25.5</ele><time>2021-01-12T15:38:27Z</time><name>PT6694</name></trkpt>
<trkpt lat="52.057557" lon="05.806141"><ele>25.5</ele><time>2021-01-12T15:38:29Z</time><name>PT6695</name></trkpt>
<trkpt lat="52.057546" lon="05.806144"><ele>25.5</ele><time>2021-01-12T15:38:30Z</time><name>PT6696</name></trkpt>
<trkpt lat="52.057535" lon="05.806145"><ele>25.5</ele><time>2021-01-12T15:38:30Z</time><name>PT6697</name></trkpt>
<trkpt lat="52.057524" lon="05.806151"><ele>25.6</ele><time>2021-01-12T15:38:32Z</time><name>PT6698</name></trkpt>
<trkpt lat="52.057514" lon="05.806157"><ele>25.6</ele><time>2021-01-12T15:38:33Z</time><name>PT6699</name></trkpt>
<trkpt lat="52.057504" lon="05.806163"><ele>25.5</ele><time>2021-01-12T15:38:33Z</time><name>PT6700</name></trkpt>
<trkpt lat="52.057497" lon="05.806170"><ele>25.6</ele><time>2021-01-12T15:38:35Z</time><name>PT6701</name></trkpt>
<trkpt lat="52.057491" lon="05.806175"><ele>25.5</ele><time>2021-01-12T15:38:36Z</time><name>PT6702</name></trkpt>
<trkpt lat="52.057484" lon="05.806179"><ele>25.5</ele><time>2021-01-12T15:38:36Z</time><name>PT6703</name></trkpt>
<trkpt lat="52.057475" lon="05.806185"><ele>25.5</ele><time>2021-01-12T15:38:38Z</time><name>PT6704</name></trkpt>
<trkpt lat="52.057464" lon="05.806186"><ele>25.4</ele><time>2021-01-12T15:38:39Z</time><name>PT6705</name></trkpt>
<trkpt lat="52.057455" lon="05.806188"><ele>25.3</ele><time>2021-01-12T15:38:39Z</time><name>PT6706</name></trkpt>
<trkpt lat="52.057448" lon="05.806192"><ele>25.4</ele><time>2021-01-12T15:38:41Z</time><name>PT6707</name></trkpt>
<trkpt lat="52.057440" lon="05.806196"><ele>25.3</ele><time>2021-01-12T15:38:42Z</time><name>PT6708</name></trkpt>
<trkpt lat="52.057432" lon="05.806198"><ele>25.4</ele><time>2021-01-12T15:38:42Z</time><name>PT6709</name></trkpt>
<trkpt lat="52.057425" lon="05.806195"><ele>25.6</ele><time>2021-01-12T15:38:44Z</time><name>PT6710</name></trkpt>
<trkpt lat="52.057418" lon="05.806191"><ele>25.6</ele><time>2021-01-12T15:38:45Z</time><name>PT6711</name></trkpt>
<trkpt lat="52.057410" lon="05.806190"><ele>25.6</ele><time>2021-01-12T15:38:45Z</time><name>PT6712</name></trkpt>
<trkpt lat="52.057402" lon="05.806193"><ele>25.6</ele><time>2021-01-12T15:38:47Z</time><name>PT6713</name></trkpt>
<trkpt lat="52.057393" lon="05.806199"><ele>25.5</ele><time>2021-01-12T15:38:48Z</time><name>PT6714</name></trkpt>
<trkpt lat="52.057382" lon="05.806203"><ele>25.3</ele><time>2021-01-12T15:38:48Z</time><name>PT6715</name></trkpt>
<trkpt lat="52.057371" lon="05.806207"><ele>25.1</ele><time>2021-01-12T15:38:50Z</time><name>PT6716</name></trkpt>
<trkpt lat="52.057360" lon="05.806211"><ele>25.2</ele><time>2021-01-12T15:38:51Z</time><name>PT6717</name></trkpt>
<trkpt lat="52.057347" lon="05.806214"><ele>25.2</ele><time>2021-01-12T15:38:51Z</time><name>PT6718</name></trkpt>
<trkpt lat="52.057334" lon="05.806216"><ele>25.2</ele><time>2021-01-12T15:38:53Z</time><name>PT6719</name></trkpt>
<trkpt lat="52.057323" lon="05.806215"><ele>25.3</ele><time>2021-01-12T15:38:54Z</time><name>PT6720</name></trkpt>
<trkpt lat="52.057310" lon="05.806218"><ele>25.4</ele><time>2021-01-12T15:38:54Z</time><name>PT6721</name></trkpt>
<trkpt lat="52.057298" lon="05.806220"><ele>25.2</ele><time>2021-01-12T15:38:56Z</time><name>PT6722</name></trkpt>
<trkpt lat="52.057286" lon="05.806220"><ele>25.2</ele><time>2021-01-12T15:38:57Z</time><name>PT6723</name></trkpt>
<trkpt lat="52.057274" lon="05.806222"><ele>25.1</ele><time>2021-01-12T15:38:57Z</time><name>PT6724</name></trkpt>
<trkpt lat="52.057263" lon="05.806224"><ele>25.2</ele><time>2021-01-12T15:38:59Z</time><name>PT6725</name></trkpt>
<trkpt lat="52.057252" lon="05.806227"><ele>25.2</ele><time>2021-01-12T15:39:00Z</time><name>PT6726</name></trkpt>
<trkpt lat="52.057239" lon="05.806230"><ele>25.1</ele><time>2021-01-12T15:39:00Z</time><name>PT6727</name></trkpt>
<trkpt lat="52.057227" lon="05.806232"><ele>25</ele><time>2021-01-12T15:39:02Z</time><name>PT6728</name></trkpt>
<trkpt lat="52.057215" lon="05.806233"><ele>25.2</ele><time>2021-01-12T15:39:03Z</time><name>PT6729</name></trkpt>
<trkpt lat="52.057204" lon="05.806234"><ele>25.2</ele><time>2021-01-12T15:39:03Z</time><name>PT6730</name></trkpt>
<trkpt lat="52.057193" lon="05.806233"><ele>25.1</ele><time>2021-01-12T15:39:05Z</time><name>PT6731</name></trkpt>
<trkpt lat="52.057182" lon="05.806229"><ele>25.2</ele><time>2021-01-12T15:39:06Z</time><name>PT6732</name></trkpt>
<trkpt lat="52.057171" lon="05.806226"><ele>25.1</ele><time>2021-01-12T15:39:06Z</time><name>PT6733</name></trkpt>
<trkpt lat="52.057158" lon="05.806225"><ele>25</ele><time>2021-01-12T15:39:08Z</time><name>PT6734</name></trkpt>
<trkpt lat="52.057146" lon="05.806225"><ele>25</ele><time>2021-01-12T15:39:09Z</time><name>PT6735</name></trkpt>
<trkpt lat="52.057135" lon="05.806223"><ele>25.1</ele><time>2021-01-12T15:39:09Z</time><name>PT6736</name></trkpt>
<trkpt lat="52.057123" lon="05.806223"><ele>25.2</ele><time>2021-01-12T15:39:11Z</time><name>PT6737</name></trkpt>
<trkpt lat="52.057111" lon="05.806226"><ele>25.1</ele><time>2021-01-12T15:39:12Z</time><name>PT6738</name></trkpt>
<trkpt lat="52.057100" lon="05.806230"><ele>25.2</ele><time>2021-01-12T15:39:12Z</time><name>PT6739</name></trkpt>
<trkpt lat="52.057088" lon="05.806231"><ele>25.1</ele><time>2021-01-12T15:39:14Z</time><name>PT6740</name></trkpt>
<trkpt lat="52.057078" lon="05.806231"><ele>25.2</ele><time>2021-01-12T15:39:15Z</time><name>PT6741</name></trkpt>
<trkpt lat="52.057067" lon="05.806229"><ele>25.3</ele><time>2021-01-12T15:39:15Z</time><name>PT6742</name></trkpt>
<trkpt lat="52.057054" lon="05.806228"><ele>25.3</ele><time>2021-01-12T15:39:17Z</time><name>PT6743</name></trkpt>
<trkpt lat="52.057037" lon="05.806229"><ele>25.5</ele><time>2021-01-12T15:39:18Z</time><name>PT6744</name></trkpt>
<trkpt lat="52.057024" lon="05.806228"><ele>25.6</ele><time>2021-01-12T15:39:18Z</time><name>PT6745</name></trkpt>
<trkpt lat="52.057014" lon="05.806226"><ele>25.8</ele><time>2021-01-12T15:39:20Z</time><name>PT6746</name></trkpt>
<trkpt lat="52.057004" lon="05.806225"><ele>26.1</ele><time>2021-01-12T15:39:21Z</time><name>PT6747</name></trkpt>
<trkpt lat="52.056991" lon="05.806226"><ele>26.2</ele><time>2021-01-12T15:39:21Z</time><name>PT6748</name></trkpt>
<trkpt lat="52.056978" lon="05.806229"><ele>26.4</ele><time>2021-01-12T15:39:23Z</time><name>PT6749</name></trkpt>
<trkpt lat="52.056966" lon="05.806232"><ele>26.3</ele><time>2021-01-12T15:39:24Z</time><name>PT6750</name></trkpt>
<trkpt lat="52.056956" lon="05.806228"><ele>26.2</ele><time>2021-01-12T15:39:24Z</time><name>PT6751</name></trkpt>
<trkpt lat="52.056946" lon="05.806224"><ele>26</ele><time>2021-01-12T15:39:26Z</time><name>PT6752</name></trkpt>
<trkpt lat="52.056937" lon="05.806222"><ele>25.7</ele><time>2021-01-12T15:39:27Z</time><name>PT6753</name></trkpt>
<trkpt lat="52.056926" lon="05.806222"><ele>25.6</ele><time>2021-01-12T15:39:27Z</time><name>PT6754</name></trkpt>
<trkpt lat="52.056916" lon="05.806222"><ele>25.5</ele><time>2021-01-12T15:39:29Z</time><name>PT6755</name></trkpt>
<trkpt lat="52.056903" lon="05.806221"><ele>25.5</ele><time>2021-01-12T15:39:30Z</time><name>PT6756</name></trkpt>
<trkpt lat="52.056891" lon="05.806219"><ele>25.3</ele><time>2021-01-12T15:39:30Z</time><name>PT6757</name></trkpt>
<trkpt lat="52.056880" lon="05.806217"><ele>25.3</ele><time>2021-01-12T15:39:32Z</time><name>PT6758</name></trkpt>
<trkpt lat="52.056869" lon="05.806216"><ele>25.1</ele><time>2021-01-12T15:39:33Z</time><name>PT6759</name></trkpt>
<trkpt lat="52.056857" lon="05.806215"><ele>25.2</ele><time>2021-01-12T15:39:33Z</time><name>PT6760</name></trkpt>
<trkpt lat="52.056846" lon="05.806214"><ele>25.1</ele><time>2021-01-12T15:39:35Z</time><name>PT6761</name></trkpt>
<trkpt lat="52.056836" lon="05.806212"><ele>25.3</ele><time>2021-01-12T15:39:36Z</time><name>PT6762</name></trkpt>
<trkpt lat="52.056825" lon="05.806210"><ele>25.3</ele><time>2021-01-12T15:39:36Z</time><name>PT6763</name></trkpt>
<trkpt lat="52.056815" lon="05.806205"><ele>25.3</ele><time>2021-01-12T15:39:38Z</time><name>PT6764</name></trkpt>
<trkpt lat="52.056802" lon="05.806203"><ele>25.5</ele><time>2021-01-12T15:39:39Z</time><name>PT6765</name></trkpt>
<trkpt lat="52.056790" lon="05.806201"><ele>25.5</ele><time>2021-01-12T15:39:39Z</time><name>PT6766</name></trkpt>
<trkpt lat="52.056780" lon="05.806197"><ele>25.4</ele><time>2021-01-12T15:39:41Z</time><name>PT6767</name></trkpt>
<trkpt lat="52.056768" lon="05.806195"><ele>25.6</ele><time>2021-01-12T15:39:42Z</time><name>PT6768</name></trkpt>
<trkpt lat="52.056757" lon="05.806193"><ele>25.5</ele><time>2021-01-12T15:39:42Z</time><name>PT6769</name></trkpt>
<trkpt lat="52.056744" lon="05.806192"><ele>25.5</ele><time>2021-01-12T15:39:44Z</time><name>PT6770</name></trkpt>
<trkpt lat="52.056733" lon="05.806190"><ele>25.5</ele><time>2021-01-12T15:39:45Z</time><name>PT6771</name></trkpt>
<trkpt lat="52.056723" lon="05.806190"><ele>25.5</ele><time>2021-01-12T15:39:45Z</time><name>PT6772</name></trkpt>
<trkpt lat="52.056713" lon="05.806188"><ele>25.5</ele><time>2021-01-12T15:39:47Z</time><name>PT6773</name></trkpt>
<trkpt lat="52.056701" lon="05.806183"><ele>25.5</ele><time>2021-01-12T15:39:48Z</time><name>PT6774</name></trkpt>
<trkpt lat="52.056690" lon="05.806178"><ele>25.5</ele><time>2021-01-12T15:39:48Z</time><name>PT6775</name></trkpt>
<trkpt lat="52.056679" lon="05.806173"><ele>25.5</ele><time>2021-01-12T15:39:50Z</time><name>PT6776</name></trkpt>
<trkpt lat="52.056668" lon="05.806170"><ele>25.5</ele><time>2021-01-12T15:39:51Z</time><name>PT6777</name></trkpt>
<trkpt lat="52.056657" lon="05.806169"><ele>25.7</ele><time>2021-01-12T15:39:51Z</time><name>PT6778</name></trkpt>
<trkpt lat="52.056645" lon="05.806166"><ele>26</ele><time>2021-01-12T15:39:53Z</time><name>PT6779</name></trkpt>
<trkpt lat="52.056634" lon="05.806164"><ele>26</ele><time>2021-01-12T15:39:54Z</time><name>PT6780</name></trkpt>
<trkpt lat="52.056621" lon="05.806162"><ele>26.1</ele><time>2021-01-12T15:39:54Z</time><name>PT6781</name></trkpt>
<trkpt lat="52.056609" lon="05.806160"><ele>26.1</ele><time>2021-01-12T15:39:56Z</time><name>PT6782</name></trkpt>
<trkpt lat="52.056600" lon="05.806156"><ele>26</ele><time>2021-01-12T15:39:57Z</time><name>PT6783</name></trkpt>
<trkpt lat="52.056589" lon="05.806152"><ele>26</ele><time>2021-01-12T15:39:57Z</time><name>PT6784</name></trkpt>
<trkpt lat="52.056578" lon="05.806147"><ele>26</ele><time>2021-01-12T15:39:59Z</time><name>PT6785</name></trkpt>
<trkpt lat="52.056564" lon="05.806141"><ele>25.9</ele><time>2021-01-12T15:40:00Z</time><name>PT6786</name></trkpt>
<trkpt lat="52.056552" lon="05.806137"><ele>25.8</ele><time>2021-01-12T15:40:00Z</time><name>PT6787</name></trkpt>
<trkpt lat="52.056541" lon="05.806136"><ele>25.8</ele><time>2021-01-12T15:40:02Z</time><name>PT6788</name></trkpt>
<trkpt lat="52.056530" lon="05.806135"><ele>25.8</ele><time>2021-01-12T15:40:03Z</time><name>PT6789</name></trkpt>
<trkpt lat="52.056520" lon="05.806133"><ele>25.8</ele><time>2021-01-12T15:40:03Z</time><name>PT6790</name></trkpt>
<trkpt lat="52.056508" lon="05.806132"><ele>25.7</ele><time>2021-01-12T15:40:05Z</time><name>PT6791</name></trkpt>
<trkpt lat="52.056499" lon="05.806128"><ele>25.5</ele><time>2021-01-12T15:40:06Z</time><name>PT6792</name></trkpt>
<trkpt lat="52.056489" lon="05.806123"><ele>25.6</ele><time>2021-01-12T15:40:06Z</time><name>PT6793</name></trkpt>
<trkpt lat="52.056479" lon="05.806118"><ele>25.8</ele><time>2021-01-12T15:40:08Z</time><name>PT6794</name></trkpt>
<trkpt lat="52.056469" lon="05.806113"><ele>25.9</ele><time>2021-01-12T15:40:09Z</time><name>PT6795</name></trkpt>
<trkpt lat="52.056457" lon="05.806109"><ele>25.9</ele><time>2021-01-12T15:40:09Z</time><name>PT6796</name></trkpt>
<trkpt lat="52.056443" lon="05.806106"><ele>25.7</ele><time>2021-01-12T15:40:11Z</time><name>PT6797</name></trkpt>
<trkpt lat="52.056430" lon="05.806103"><ele>25.8</ele><time>2021-01-12T15:40:12Z</time><name>PT6798</name></trkpt>
<trkpt lat="52.056417" lon="05.806099"><ele>25.8</ele><time>2021-01-12T15:40:12Z</time><name>PT6799</name></trkpt>
<trkpt lat="52.056407" lon="05.806096"><ele>25.9</ele><time>2021-01-12T15:40:14Z</time><name>PT6800</name></trkpt>
<trkpt lat="52.056397" lon="05.806093"><ele>26</ele><time>2021-01-12T15:40:15Z</time><name>PT6801</name></trkpt>
<trkpt lat="52.056385" lon="05.806091"><ele>25.9</ele><time>2021-01-12T15:40:15Z</time><name>PT6802</name></trkpt>
<trkpt lat="52.056372" lon="05.806087"><ele>25.9</ele><time>2021-01-12T15:40:17Z</time><name>PT6803</name></trkpt>
<trkpt lat="52.056366" lon="05.806078"><ele>25.9</ele><time>2021-01-12T15:40:18Z</time><name>PT6804</name></trkpt>
<trkpt lat="52.056357" lon="05.806066"><ele>26</ele><time>2021-01-12T15:40:18Z</time><name>PT6805</name></trkpt>
<trkpt lat="52.056349" lon="05.806059"><ele>26.1</ele><time>2021-01-12T15:40:20Z</time><name>PT6806</name></trkpt>
<trkpt lat="52.056341" lon="05.806053"><ele>26</ele><time>2021-01-12T15:40:21Z</time><name>PT6807</name></trkpt>
<trkpt lat="52.056332" lon="05.806049"><ele>26</ele><time>2021-01-12T15:40:21Z</time><name>PT6808</name></trkpt>
<trkpt lat="52.056320" lon="05.806046"><ele>26</ele><time>2021-01-12T15:40:23Z</time><name>PT6809</name></trkpt>
<trkpt lat="52.056309" lon="05.806042"><ele>26</ele><time>2021-01-12T15:40:24Z</time><name>PT6810</name></trkpt>
<trkpt lat="52.056298" lon="05.806039"><ele>26</ele><time>2021-01-12T15:40:24Z</time><name>PT6811</name></trkpt>
<trkpt lat="52.056288" lon="05.806036"><ele>26</ele><time>2021-01-12T15:40:26Z</time><name>PT6812</name></trkpt>
<trkpt lat="52.056281" lon="05.806032"><ele>26.1</ele><time>2021-01-12T15:40:27Z</time><name>PT6813</name></trkpt>
<trkpt lat="52.056271" lon="05.806027"><ele>26</ele><time>2021-01-12T15:40:27Z</time><name>PT6814</name></trkpt>
<trkpt lat="52.056259" lon="05.806022"><ele>25.9</ele><time>2021-01-12T15:40:29Z</time><name>PT6815</name></trkpt>
<trkpt lat="52.056247" lon="05.806018"><ele>25.8</ele><time>2021-01-12T15:40:30Z</time><name>PT6816</name></trkpt>
<trkpt lat="52.056234" lon="05.806013"><ele>25.9</ele><time>2021-01-12T15:40:30Z</time><name>PT6817</name></trkpt>
<trkpt lat="52.056222" lon="05.806008"><ele>25.9</ele><time>2021-01-12T15:40:32Z</time><name>PT6818</name></trkpt>
<trkpt lat="52.056210" lon="05.806003"><ele>25.9</ele><time>2021-01-12T15:40:33Z</time><name>PT6819</name></trkpt>
<trkpt lat="52.056199" lon="05.805999"><ele>25.8</ele><time>2021-01-12T15:40:33Z</time><name>PT6820</name></trkpt>
<trkpt lat="52.056189" lon="05.805994"><ele>25.7</ele><time>2021-01-12T15:40:35Z</time><name>PT6821</name></trkpt>
<trkpt lat="52.056175" lon="05.805993"><ele>25.5</ele><time>2021-01-12T15:40:36Z</time><name>PT6822</name></trkpt>
<trkpt lat="52.056163" lon="05.805993"><ele>25.5</ele><time>2021-01-12T15:40:36Z</time><name>PT6823</name></trkpt>
<trkpt lat="52.056152" lon="05.805991"><ele>25.4</ele><time>2021-01-12T15:40:38Z</time><name>PT6824</name></trkpt>
<trkpt lat="52.056141" lon="05.805986"><ele>25.5</ele><time>2021-01-12T15:40:39Z</time><name>PT6825</name></trkpt>
<trkpt lat="52.056131" lon="05.805980"><ele>25.4</ele><time>2021-01-12T15:40:39Z</time><name>PT6826</name></trkpt>
<trkpt lat="52.056120" lon="05.805973"><ele>25.5</ele><time>2021-01-12T15:40:41Z</time><name>PT6827</name></trkpt>
<trkpt lat="52.056108" lon="05.805966"><ele>25.5</ele><time>2021-01-12T15:40:42Z</time><name>PT6828</name></trkpt>
<trkpt lat="52.056097" lon="05.805961"><ele>25.4</ele><time>2021-01-12T15:40:42Z</time><name>PT6829</name></trkpt>
<trkpt lat="52.056085" lon="05.805957"><ele>25.4</ele><time>2021-01-12T15:40:44Z</time><name>PT6830</name></trkpt>
<trkpt lat="52.056073" lon="05.805953"><ele>25.3</ele><time>2021-01-12T15:40:45Z</time><name>PT6831</name></trkpt>
<trkpt lat="52.056061" lon="05.805951"><ele>25.3</ele><time>2021-01-12T15:40:45Z</time><name>PT6832</name></trkpt>
<trkpt lat="52.056051" lon="05.805949"><ele>25.3</ele><time>2021-01-12T15:40:47Z</time><name>PT6833</name></trkpt>
<trkpt lat="52.056041" lon="05.805947"><ele>25.4</ele><time>2021-01-12T15:40:48Z</time><name>PT6834</name></trkpt>
<trkpt lat="52.056032" lon="05.805944"><ele>25.5</ele><time>2021-01-12T15:40:48Z</time><name>PT6835</name></trkpt>
<trkpt lat="52.056023" lon="05.805939"><ele>25.5</ele><time>2021-01-12T15:40:50Z</time><name>PT6836</name></trkpt>
<trkpt lat="52.056011" lon="05.805935"><ele>25.5</ele><time>2021-01-12T15:40:51Z</time><name>PT6837</name></trkpt>
<trkpt lat="52.056000" lon="05.805930"><ele>25.5</ele><time>2021-01-12T15:40:51Z</time><name>PT6838</name></trkpt>
<trkpt lat="52.055987" lon="05.805924"><ele>25.4</ele><time>2021-01-12T15:40:53Z</time><name>PT6839</name></trkpt>
<trkpt lat="52.055977" lon="05.805921"><ele>25.5</ele><time>2021-01-12T15:40:54Z</time><name>PT6840</name></trkpt>
<trkpt lat="52.055966" lon="05.805917"><ele>25.4</ele><time>2021-01-12T15:40:54Z</time><name>PT6841</name></trkpt>
<trkpt lat="52.055955" lon="05.805915"><ele>25.4</ele><time>2021-01-12T15:40:56Z</time><name>PT6842</name></trkpt>
<trkpt lat="52.055946" lon="05.805911"><ele>25.1</ele><time>2021-01-12T15:40:57Z</time><name>PT6843</name></trkpt>
<trkpt lat="52.055935" lon="05.805907"><ele>25.1</ele><time>2021-01-12T15:40:57Z</time><name>PT6844</name></trkpt>
<trkpt lat="52.055925" lon="05.805904"><ele>25.1</ele><time>2021-01-12T15:40:59Z</time><name>PT6845</name></trkpt>
<trkpt lat="52.055915" lon="05.805899"><ele>25.2</ele><time>2021-01-12T15:41:00Z</time><name>PT6846</name></trkpt>
<trkpt lat="52.055908" lon="05.805894"><ele>25.2</ele><time>2021-01-12T15:41:00Z</time><name>PT6847</name></trkpt>
<trkpt lat="52.055897" lon="05.805889"><ele>25.2</ele><time>2021-01-12T15:41:02Z</time><name>PT6848</name></trkpt>
<trkpt lat="52.055887" lon="05.805882"><ele>25.2</ele><time>2021-01-12T15:41:03Z</time><name>PT6849</name></trkpt>
<trkpt lat="52.055878" lon="05.805874"><ele>25.3</ele><time>2021-01-12T15:41:03Z</time><name>PT6850</name></trkpt>
<trkpt lat="52.055868" lon="05.805867"><ele>25.5</ele><time>2021-01-12T15:41:05Z</time><name>PT6851</name></trkpt>
<trkpt lat="52.055859" lon="05.805860"><ele>25.5</ele><time>2021-01-12T15:41:06Z</time><name>PT6852</name></trkpt>
<trkpt lat="52.055853" lon="05.805853"><ele>25.6</ele><time>2021-01-12T15:41:06Z</time><name>PT6853</name></trkpt>
<trkpt lat="52.055845" lon="05.805847"><ele>25.5</ele><time>2021-01-12T15:41:08Z</time><name>PT6854</name></trkpt>
<trkpt lat="52.055838" lon="05.805841"><ele>25.8</ele><time>2021-01-12T15:41:09Z</time><name>PT6855</name></trkpt>
<trkpt lat="52.055829" lon="05.805835"><ele>25.7</ele><time>2021-01-12T15:41:09Z</time><name>PT6856</name></trkpt>
<trkpt lat="52.055820" lon="05.805828"><ele>25.7</ele><time>2021-01-12T15:41:11Z</time><name>PT6857</name></trkpt>
<trkpt lat="52.055809" lon="05.805818"><ele>25.7</ele><time>2021-01-12T15:41:12Z</time><name>PT6858</name></trkpt>
<trkpt lat="52.055797" lon="05.805808"><ele>25.8</ele><time>2021-01-12T15:41:12Z</time><name>PT6859</name></trkpt>
<trkpt lat="52.055786" lon="05.805800"><ele>25.8</ele><time>2021-01-12T15:41:14Z</time><name>PT6860</name></trkpt>
<trkpt lat="52.055776" lon="05.805795"><ele>25.8</ele><time>2021-01-12T15:41:15Z</time><name>PT6861</name></trkpt>
<trkpt lat="52.055766" lon="05.805795"><ele>25.9</ele><time>2021-01-12T15:41:15Z</time><name>PT6862</name></trkpt>
<trkpt lat="52.055756" lon="05.805792"><ele>25.9</ele><time>2021-01-12T15:41:17Z</time><name>PT6863</name></trkpt>
<trkpt lat="52.055746" lon="05.805789"><ele>26</ele><time>2021-01-12T15:41:18Z</time><name>PT6864</name></trkpt>
<trkpt lat="52.055737" lon="05.805784"><ele>26</ele><time>2021-01-12T15:41:18Z</time><name>PT6865</name></trkpt>
<trkpt lat="52.055726" lon="05.805781"><ele>26</ele><time>2021-01-12T15:41:20Z</time><name>PT6866</name></trkpt>
<trkpt lat="52.055716" lon="05.805775"><ele>26</ele><time>2021-01-12T15:41:21Z</time><name>PT6867</name></trkpt>
<trkpt lat="52.055701" lon="05.805769"><ele>26</ele><time>2021-01-12T15:41:21Z</time><name>PT6868</name></trkpt>
<trkpt lat="52.055690" lon="05.805761"><ele>25.9</ele><time>2021-01-12T15:41:23Z</time><name>PT6869</name></trkpt>
<trkpt lat="52.055680" lon="05.805756"><ele>25.8</ele><time>2021-01-12T15:41:24Z</time><name>PT6870</name></trkpt>
<trkpt lat="52.055671" lon="05.805752"><ele>25.8</ele><time>2021-01-12T15:41:24Z</time><name>PT6871</name></trkpt>
<trkpt lat="52.055661" lon="05.805749"><ele>25.6</ele><time>2021-01-12T15:41:26Z</time><name>PT6872</name></trkpt>
<trkpt lat="52.055651" lon="05.805746"><ele>25.5</ele><time>2021-01-12T15:41:27Z</time><name>PT6873</name></trkpt>
<trkpt lat="52.055641" lon="05.805742"><ele>25.5</ele><time>2021-01-12T15:41:27Z</time><name>PT6874</name></trkpt>
<trkpt lat="52.055630" lon="05.805737"><ele>25.4</ele><time>2021-01-12T15:41:29Z</time><name>PT6875</name></trkpt>
<trkpt lat="52.055620" lon="05.805730"><ele>25.5</ele><time>2021-01-12T15:41:30Z</time><name>PT6876</name></trkpt>
<trkpt lat="52.055608" lon="05.805725"><ele>25.6</ele><time>2021-01-12T15:41:30Z</time><name>PT6877</name></trkpt>
<trkpt lat="52.055597" lon="05.805720"><ele>25.5</ele><time>2021-01-12T15:41:32Z</time><name>PT6878</name></trkpt>
<trkpt lat="52.055587" lon="05.805715"><ele>25.5</ele><time>2021-01-12T15:41:33Z</time><name>PT6879</name></trkpt>
<trkpt lat="52.055577" lon="05.805711"><ele>25.4</ele><time>2021-01-12T15:41:33Z</time><name>PT6880</name></trkpt>
<trkpt lat="52.055569" lon="05.805708"><ele>25.2</ele><time>2021-01-12T15:41:35Z</time><name>PT6881</name></trkpt>
<trkpt lat="52.055559" lon="05.805707"><ele>25.1</ele><time>2021-01-12T15:41:36Z</time><name>PT6882</name></trkpt>
<trkpt lat="52.055548" lon="05.805705"><ele>25.1</ele><time>2021-01-12T15:41:36Z</time><name>PT6883</name></trkpt>
<trkpt lat="52.055536" lon="05.805704"><ele>25.1</ele><time>2021-01-12T15:41:38Z</time><name>PT6884</name></trkpt>
<trkpt lat="52.055526" lon="05.805701"><ele>25.2</ele><time>2021-01-12T15:41:39Z</time><name>PT6885</name></trkpt>
<trkpt lat="52.055516" lon="05.805700"><ele>25.2</ele><time>2021-01-12T15:41:39Z</time><name>PT6886</name></trkpt>
<trkpt lat="52.055504" lon="05.805701"><ele>25.3</ele><time>2021-01-12T15:41:41Z</time><name>PT6887</name></trkpt>
<trkpt lat="52.055491" lon="05.805700"><ele>25.3</ele><time>2021-01-12T15:41:42Z</time><name>PT6888</name></trkpt>
<trkpt lat="52.055479" lon="05.805699"><ele>25.2</ele><time>2021-01-12T15:41:42Z</time><name>PT6889</name></trkpt>
<trkpt lat="52.055470" lon="05.805701"><ele>25.2</ele><time>2021-01-12T15:41:44Z</time><name>PT6890</name></trkpt>
<trkpt lat="52.055458" lon="05.805704"><ele>25.3</ele><time>2021-01-12T15:41:45Z</time><name>PT6891</name></trkpt>
<trkpt lat="52.055448" lon="05.805708"><ele>25.4</ele><time>2021-01-12T15:41:45Z</time><name>PT6892</name></trkpt>
<trkpt lat="52.055437" lon="05.805712"><ele>25.6</ele><time>2021-01-12T15:41:47Z</time><name>PT6893</name></trkpt>
<trkpt lat="52.055424" lon="05.805715"><ele>25.5</ele><time>2021-01-12T15:41:48Z</time><name>PT6894</name></trkpt>
<trkpt lat="52.055413" lon="05.805717"><ele>25.5</ele><time>2021-01-12T15:41:48Z</time><name>PT6895</name></trkpt>
<trkpt lat="52.055404" lon="05.805720"><ele>25.5</ele><time>2021-01-12T15:41:50Z</time><name>PT6896</name></trkpt>
<trkpt lat="52.055396" lon="05.805725"><ele>25.5</ele><time>2021-01-12T15:41:51Z</time><name>PT6897</name></trkpt>
<trkpt lat="52.055385" lon="05.805730"><ele>25.5</ele><time>2021-01-12T15:41:51Z</time><name>PT6898</name></trkpt>
<trkpt lat="52.055374" lon="05.805735"><ele>25.8</ele><time>2021-01-12T15:41:53Z</time><name>PT6899</name></trkpt>
<trkpt lat="52.055361" lon="05.805739"><ele>25.8</ele><time>2021-01-12T15:41:54Z</time><name>PT6900</name></trkpt>
<trkpt lat="52.055349" lon="05.805744"><ele>26</ele><time>2021-01-12T15:41:54Z</time><name>PT6901</name></trkpt>
<trkpt lat="52.055341" lon="05.805750"><ele>25.7</ele><time>2021-01-12T15:41:56Z</time><name>PT6902</name></trkpt>
<trkpt lat="52.055332" lon="05.805755"><ele>25.5</ele><time>2021-01-12T15:41:57Z</time><name>PT6903</name></trkpt>
<trkpt lat="52.055323" lon="05.805761"><ele>25.5</ele><time>2021-01-12T15:41:57Z</time><name>PT6904</name></trkpt>
<trkpt lat="52.055316" lon="05.805769"><ele>25.5</ele><time>2021-01-12T15:41:59Z</time><name>PT6905</name></trkpt>
<trkpt lat="52.055308" lon="05.805777"><ele>25.4</ele><time>2021-01-12T15:42:00Z</time><name>PT6906</name></trkpt>
<trkpt lat="52.055299" lon="05.805784"><ele>25.5</ele><time>2021-01-12T15:42:00Z</time><name>PT6907</name></trkpt>
<trkpt lat="52.055288" lon="05.805788"><ele>25.5</ele><time>2021-01-12T15:42:02Z</time><name>PT6908</name></trkpt>
<trkpt lat="52.055277" lon="05.805797"><ele>25.6</ele><time>2021-01-12T15:42:03Z</time><name>PT6909</name></trkpt>
<trkpt lat="52.055267" lon="05.805802"><ele>25.7</ele><time>2021-01-12T15:42:03Z</time><name>PT6910</name></trkpt>
<trkpt lat="52.055254" lon="05.805806"><ele>25.7</ele><time>2021-01-12T15:42:05Z</time><name>PT6911</name></trkpt>
<trkpt lat="52.055242" lon="05.805809"><ele>25.9</ele><time>2021-01-12T15:42:06Z</time><name>PT6912</name></trkpt>
<trkpt lat="52.055233" lon="05.805815"><ele>26</ele><time>2021-01-12T15:42:06Z</time><name>PT6913</name></trkpt>
<trkpt lat="52.055223" lon="05.805819"><ele>25.8</ele><time>2021-01-12T15:42:08Z</time><name>PT6914</name></trkpt>
<trkpt lat="52.055214" lon="05.805832"><ele>25.8</ele><time>2021-01-12T15:42:09Z</time><name>PT6915</name></trkpt>
<trkpt lat="52.055203" lon="05.805842"><ele>25.8</ele><time>2021-01-12T15:42:09Z</time><name>PT6916</name></trkpt>
<trkpt lat="52.055192" lon="05.805849"><ele>25.6</ele><time>2021-01-12T15:42:11Z</time><name>PT6917</name></trkpt>
<trkpt lat="52.055183" lon="05.805854"><ele>25.8</ele><time>2021-01-12T15:42:12Z</time><name>PT6918</name></trkpt>
<trkpt lat="52.055175" lon="05.805858"><ele>25.7</ele><time>2021-01-12T15:42:12Z</time><name>PT6919</name></trkpt>
<trkpt lat="52.055165" lon="05.805861"><ele>25.8</ele><time>2021-01-12T15:42:14Z</time><name>PT6920</name></trkpt>
<trkpt lat="52.055152" lon="05.805864"><ele>26</ele><time>2021-01-12T15:42:15Z</time><name>PT6921</name></trkpt>
<trkpt lat="52.055141" lon="05.805869"><ele>26</ele><time>2021-01-12T15:42:15Z</time><name>PT6922</name></trkpt>
<trkpt lat="52.055131" lon="05.805874"><ele>26</ele><time>2021-01-12T15:42:17Z</time><name>PT6923</name></trkpt>
<trkpt lat="52.055121" lon="05.805879"><ele>26</ele><time>2021-01-12T15:42:18Z</time><name>PT6924</name></trkpt>
<trkpt lat="52.055110" lon="05.805886"><ele>25.9</ele><time>2021-01-12T15:42:18Z</time><name>PT6925</name></trkpt>
<trkpt lat="52.055099" lon="05.805890"><ele>25.8</ele><time>2021-01-12T15:42:20Z</time><name>PT6926</name></trkpt>
<trkpt lat="52.055091" lon="05.805894"><ele>25.9</ele><time>2021-01-12T15:42:21Z</time><name>PT6927</name></trkpt>
<trkpt lat="52.055083" lon="05.805898"><ele>25.9</ele><time>2021-01-12T15:42:21Z</time><name>PT6928</name></trkpt>
<trkpt lat="52.055072" lon="05.805900"><ele>25.8</ele><time>2021-01-12T15:42:23Z</time><name>PT6929</name></trkpt>
<trkpt lat="52.055061" lon="05.805904"><ele>25.7</ele><time>2021-01-12T15:42:24Z</time><name>PT6930</name></trkpt>
<trkpt lat="52.055049" lon="05.805909"><ele>25.7</ele><time>2021-01-12T15:42:24Z</time><name>PT6931</name></trkpt>
<trkpt lat="52.055039" lon="05.805917"><ele>25.7</ele><time>2021-01-12T15:42:26Z</time><name>PT6932</name></trkpt>
<trkpt lat="52.055028" lon="05.805927"><ele>25.8</ele><time>2021-01-12T15:42:27Z</time><name>PT6933</name></trkpt>
<trkpt lat="52.055018" lon="05.805936"><ele>25.9</ele><time>2021-01-12T15:42:27Z</time><name>PT6934</name></trkpt>
<trkpt lat="52.055009" lon="05.805944"><ele>26.1</ele><time>2021-01-12T15:42:29Z</time><name>PT6935</name></trkpt>
<trkpt lat="52.054997" lon="05.805953"><ele>26.2</ele><time>2021-01-12T15:42:30Z</time><name>PT6936</name></trkpt>
<trkpt lat="52.054987" lon="05.805963"><ele>26.1</ele><time>2021-01-12T15:42:30Z</time><name>PT6937</name></trkpt>
<trkpt lat="52.054977" lon="05.805975"><ele>26.1</ele><time>2021-01-12T15:42:32Z</time><name>PT6938</name></trkpt>
<trkpt lat="52.054968" lon="05.805982"><ele>25.9</ele><time>2021-01-12T15:42:33Z</time><name>PT6939</name></trkpt>
<trkpt lat="52.054957" lon="05.805989"><ele>26</ele><time>2021-01-12T15:42:33Z</time><name>PT6940</name></trkpt>
<trkpt lat="52.054946" lon="05.805997"><ele>26</ele><time>2021-01-12T15:42:35Z</time><name>PT6941</name></trkpt>
<trkpt lat="52.054934" lon="05.806005"><ele>26.2</ele><time>2021-01-12T15:42:36Z</time><name>PT6942</name></trkpt>
<trkpt lat="52.054923" lon="05.806013"><ele>26.3</ele><time>2021-01-12T15:42:36Z</time><name>PT6943</name></trkpt>
<trkpt lat="52.054913" lon="05.806018"><ele>26.2</ele><time>2021-01-12T15:42:38Z</time><name>PT6944</name></trkpt>
<trkpt lat="52.054903" lon="05.806024"><ele>26.3</ele><time>2021-01-12T15:42:39Z</time><name>PT6945</name></trkpt>
<trkpt lat="52.054894" lon="05.806033"><ele>26.4</ele><time>2021-01-12T15:42:39Z</time><name>PT6946</name></trkpt>
<trkpt lat="52.054883" lon="05.806044"><ele>26.3</ele><time>2021-01-12T15:42:41Z</time><name>PT6947</name></trkpt>
<trkpt lat="52.054872" lon="05.806053"><ele>26.5</ele><time>2021-01-12T15:42:42Z</time><name>PT6948</name></trkpt>
<trkpt lat="52.054861" lon="05.806060"><ele>26.5</ele><time>2021-01-12T15:42:42Z</time><name>PT6949</name></trkpt>
<trkpt lat="52.054851" lon="05.806064"><ele>26.4</ele><time>2021-01-12T15:42:44Z</time><name>PT6950</name></trkpt>
<trkpt lat="52.054841" lon="05.806068"><ele>26.1</ele><time>2021-01-12T15:42:45Z</time><name>PT6951</name></trkpt>
<trkpt lat="52.054830" lon="05.806070"><ele>26.3</ele><time>2021-01-12T15:42:45Z</time><name>PT6952</name></trkpt>
<trkpt lat="52.054820" lon="05.806071"><ele>26.2</ele><time>2021-01-12T15:42:47Z</time><name>PT6953</name></trkpt>
<trkpt lat="52.054814" lon="05.806077"><ele>26.4</ele><time>2021-01-12T15:42:48Z</time><name>PT6954</name></trkpt>
<trkpt lat="52.054806" lon="05.806084"><ele>26.5</ele><time>2021-01-12T15:42:48Z</time><name>PT6955</name></trkpt>
<trkpt lat="52.054796" lon="05.806091"><ele>26.5</ele><time>2021-01-12T15:42:50Z</time><name>PT6956</name></trkpt>
<trkpt lat="52.054788" lon="05.806097"><ele>26.4</ele><time>2021-01-12T15:42:51Z</time><name>PT6957</name></trkpt>
<trkpt lat="52.054777" lon="05.806106"><ele>26.3</ele><time>2021-01-12T15:42:51Z</time><name>PT6958</name></trkpt>
<trkpt lat="52.054770" lon="05.806112"><ele>26.1</ele><time>2021-01-12T15:42:53Z</time><name>PT6959</name></trkpt>
<trkpt lat="52.054759" lon="05.806118"><ele>26.2</ele><time>2021-01-12T15:42:54Z</time><name>PT6960</name></trkpt>
<trkpt lat="52.054746" lon="05.806126"><ele>26.3</ele><time>2021-01-12T15:42:54Z</time><name>PT6961</name></trkpt>
<trkpt lat="52.054733" lon="05.806133"><ele>26.3</ele><time>2021-01-12T15:42:56Z</time><name>PT6962</name></trkpt>
<trkpt lat="52.054724" lon="05.806139"><ele>26.2</ele><time>2021-01-12T15:42:57Z</time><name>PT6963</name></trkpt>
<trkpt lat="52.054713" lon="05.806147"><ele>26.3</ele><time>2021-01-12T15:42:57Z</time><name>PT6964</name></trkpt>
<trkpt lat="52.054702" lon="05.806157"><ele>26.3</ele><time>2021-01-12T15:42:59Z</time><name>PT6965</name></trkpt>
<trkpt lat="52.054692" lon="05.806163"><ele>26.3</ele><time>2021-01-12T15:43:00Z</time><name>PT6966</name></trkpt>
<trkpt lat="52.054679" lon="05.806171"><ele>26.3</ele><time>2021-01-12T15:43:00Z</time><name>PT6967</name></trkpt>
<trkpt lat="52.054670" lon="05.806183"><ele>26.5</ele><time>2021-01-12T15:43:02Z</time><name>PT6968</name></trkpt>
<trkpt lat="52.054659" lon="05.806191"><ele>26.5</ele><time>2021-01-12T15:43:03Z</time><name>PT6969</name></trkpt>
<trkpt lat="52.054650" lon="05.806197"><ele>26.5</ele><time>2021-01-12T15:43:03Z</time><name>PT6970</name></trkpt>
<trkpt lat="52.054640" lon="05.806203"><ele>26.5</ele><time>2021-01-12T15:43:05Z</time><name>PT6971</name></trkpt>
<trkpt lat="52.054630" lon="05.806208"><ele>26.4</ele><time>2021-01-12T15:43:06Z</time><name>PT6972</name></trkpt>
<trkpt lat="52.054618" lon="05.806214"><ele>26.4</ele><time>2021-01-12T15:43:06Z</time><name>PT6973</name></trkpt>
<trkpt lat="52.054606" lon="05.806220"><ele>26.4</ele><time>2021-01-12T15:43:08Z</time><name>PT6974</name></trkpt>
<trkpt lat="52.054594" lon="05.806228"><ele>26.5</ele><time>2021-01-12T15:43:09Z</time><name>PT6975</name></trkpt>
<trkpt lat="52.054584" lon="05.806237"><ele>26.4</ele><time>2021-01-12T15:43:09Z</time><name>PT6976</name></trkpt>
<trkpt lat="52.054578" lon="05.806249"><ele>26.4</ele><time>2021-01-12T15:43:11Z</time><name>PT6977</name></trkpt>
<trkpt lat="52.054572" lon="05.806263"><ele>26.4</ele><time>2021-01-12T15:43:12Z</time><name>PT6978</name></trkpt>
<trkpt lat="52.054565" lon="05.806273"><ele>26.5</ele><time>2021-01-12T15:43:12Z</time><name>PT6979</name></trkpt>
<trkpt lat="52.054556" lon="05.806280"><ele>26.4</ele><time>2021-01-12T15:43:14Z</time><name>PT6980</name></trkpt>
<trkpt lat="52.054545" lon="05.806286"><ele>26.4</ele><time>2021-01-12T15:43:15Z</time><name>PT6981</name></trkpt>
<trkpt lat="52.054534" lon="05.806293"><ele>26.4</ele><time>2021-01-12T15:43:15Z</time><name>PT6982</name></trkpt>
<trkpt lat="52.054521" lon="05.806301"><ele>26.1</ele><time>2021-01-12T15:43:17Z</time><name>PT6983</name></trkpt>
<trkpt lat="52.054510" lon="05.806306"><ele>26.2</ele><time>2021-01-12T15:43:18Z</time><name>PT6984</name></trkpt>
<trkpt lat="52.054502" lon="05.806313"><ele>26.3</ele><time>2021-01-12T15:43:18Z</time><name>PT6985</name></trkpt>
<trkpt lat="52.054492" lon="05.806321"><ele>26.3</ele><time>2021-01-12T15:43:20Z</time><name>PT6986</name></trkpt>
<trkpt lat="52.054481" lon="05.806333"><ele>26.5</ele><time>2021-01-12T15:43:21Z</time><name>PT6987</name></trkpt>
<trkpt lat="52.054471" lon="05.806341"><ele>26.4</ele><time>2021-01-12T15:43:21Z</time><name>PT6988</name></trkpt>
<trkpt lat="52.054461" lon="05.806350"><ele>26.5</ele><time>2021-01-12T15:43:23Z</time><name>PT6989</name></trkpt>
<trkpt lat="52.054451" lon="05.806356"><ele>26.5</ele><time>2021-01-12T15:43:24Z</time><name>PT6990</name></trkpt>
<trkpt lat="52.054441" lon="05.806361"><ele>26.6</ele><time>2021-01-12T15:43:24Z</time><name>PT6991</name></trkpt>
<trkpt lat="52.054431" lon="05.806368"><ele>26.6</ele><time>2021-01-12T15:43:26Z</time><name>PT6992</name></trkpt>
<trkpt lat="52.054420" lon="05.806373"><ele>26.5</ele><time>2021-01-12T15:43:27Z</time><name>PT6993</name></trkpt>
<trkpt lat="52.054408" lon="05.806380"><ele>26.6</ele><time>2021-01-12T15:43:27Z</time><name>PT6994</name></trkpt>
<trkpt lat="52.054398" lon="05.806387"><ele>26.5</ele><time>2021-01-12T15:43:29Z</time><name>PT6995</name></trkpt>
<trkpt lat="52.054387" lon="05.806394"><ele>26.5</ele><time>2021-01-12T15:43:30Z</time><name>PT6996</name></trkpt>
<trkpt lat="52.054379" lon="05.806400"><ele>26.5</ele><time>2021-01-12T15:43:30Z</time><name>PT6997</name></trkpt>
<trkpt lat="52.054369" lon="05.806406"><ele>26.4</ele><time>2021-01-12T15:43:32Z</time><name>PT6998</name></trkpt>
<trkpt lat="52.054357" lon="05.806415"><ele>26.5</ele><time>2021-01-12T15:43:33Z</time><name>PT6999</name></trkpt>
<trkpt lat="52.054348" lon="05.806424"><ele>26.6</ele><time>2021-01-12T15:43:33Z</time><name>PT7000</name></trkpt>
<trkpt lat="52.054339" lon="05.806433"><ele>26.8</ele><time>2021-01-12T15:43:35Z</time><name>PT7001</name></trkpt>
<trkpt lat="52.054330" lon="05.806440"><ele>26.9</ele><time>2021-01-12T15:43:36Z</time><name>PT7002</name></trkpt>
<trkpt lat="52.054321" lon="05.806445"><ele>26.8</ele><time>2021-01-12T15:43:36Z</time><name>PT7003</name></trkpt>
<trkpt lat="52.054309" lon="05.806452"><ele>26.9</ele><time>2021-01-12T15:43:38Z</time><name>PT7004</name></trkpt>
<trkpt lat="52.054298" lon="05.806457"><ele>26.7</ele><time>2021-01-12T15:43:39Z</time><name>PT7005</name></trkpt>
<trkpt lat="52.054291" lon="05.806462"><ele>26.6</ele><time>2021-01-12T15:43:39Z</time><name>PT7006</name></trkpt>
<trkpt lat="52.054281" lon="05.806467"><ele>26.8</ele><time>2021-01-12T15:43:41Z</time><name>PT7007</name></trkpt>
<trkpt lat="52.054270" lon="05.806473"><ele>26.9</ele><time>2021-01-12T15:43:42Z</time><name>PT7008</name></trkpt>
<trkpt lat="52.054260" lon="05.806478"><ele>27</ele><time>2021-01-12T15:43:42Z</time><name>PT7009</name></trkpt>
<trkpt lat="52.054250" lon="05.806483"><ele>26.9</ele><time>2021-01-12T15:43:44Z</time><name>PT7010</name></trkpt>
<trkpt lat="52.054241" lon="05.806487"><ele>26.9</ele><time>2021-01-12T15:43:45Z</time><name>PT7011</name></trkpt>
<trkpt lat="52.054231" lon="05.806495"><ele>26.8</ele><time>2021-01-12T15:43:45Z</time><name>PT7012</name></trkpt>
<trkpt lat="52.054220" lon="05.806502"><ele>26.7</ele><time>2021-01-12T15:43:47Z</time><name>PT7013</name></trkpt>
<trkpt lat="52.054210" lon="05.806507"><ele>26.7</ele><time>2021-01-12T15:43:48Z</time><name>PT7014</name></trkpt>
<trkpt lat="52.054202" lon="05.806514"><ele>26.7</ele><time>2021-01-12T15:43:48Z</time><name>PT7015</name></trkpt>
<trkpt lat="52.054191" lon="05.806525"><ele>26.6</ele><time>2021-01-12T15:43:50Z</time><name>PT7016</name></trkpt>
<trkpt lat="52.054179" lon="05.806533"><ele>26.9</ele><time>2021-01-12T15:43:51Z</time><name>PT7017</name></trkpt>
<trkpt lat="52.054166" lon="05.806543"><ele>26.9</ele><time>2021-01-12T15:43:51Z</time><name>PT7018</name></trkpt>
<trkpt lat="52.054156" lon="05.806545"><ele>26.9</ele><time>2021-01-12T15:43:53Z</time><name>PT7019</name></trkpt>
<trkpt lat="52.054145" lon="05.806551"><ele>26.9</ele><time>2021-01-12T15:43:54Z</time><name>PT7020</name></trkpt>
<trkpt lat="52.054136" lon="05.806558"><ele>26.8</ele><time>2021-01-12T15:43:54Z</time><name>PT7021</name></trkpt>
<trkpt lat="52.054127" lon="05.806562"><ele>26.7</ele><time>2021-01-12T15:43:56Z</time><name>PT7022</name></trkpt>
<trkpt lat="52.054115" lon="05.806568"><ele>26.8</ele><time>2021-01-12T15:43:57Z</time><name>PT7023</name></trkpt>
<trkpt lat="52.054104" lon="05.806571"><ele>26.9</ele><time>2021-01-12T15:43:57Z</time><name>PT7024</name></trkpt>
<trkpt lat="52.054094" lon="05.806577"><ele>27.1</ele><time>2021-01-12T15:43:59Z</time><name>PT7025</name></trkpt>
<trkpt lat="52.054084" lon="05.806581"><ele>27.2</ele><time>2021-01-12T15:44:00Z</time><name>PT7026</name></trkpt>
<trkpt lat="52.054073" lon="05.806585"><ele>27.2</ele><time>2021-01-12T15:44:00Z</time><name>PT7027</name></trkpt>
<trkpt lat="52.054064" lon="05.806598"><ele>27</ele><time>2021-01-12T15:44:02Z</time><name>PT7028</name></trkpt>
<trkpt lat="52.054054" lon="05.806607"><ele>26.9</ele><time>2021-01-12T15:44:03Z</time><name>PT7029</name></trkpt>
<trkpt lat="52.054044" lon="05.806615"><ele>26.9</ele><time>2021-01-12T15:44:03Z</time><name>PT7030</name></trkpt>
<trkpt lat="52.054035" lon="05.806621"><ele>26.9</ele><time>2021-01-12T15:44:05Z</time><name>PT7031</name></trkpt>
<trkpt lat="52.054026" lon="05.806630"><ele>26.9</ele><time>2021-01-12T15:44:06Z</time><name>PT7032</name></trkpt>
<trkpt lat="52.054013" lon="05.806638"><ele>26.9</ele><time>2021-01-12T15:44:06Z</time><name>PT7033</name></trkpt>
<trkpt lat="52.054001" lon="05.806643"><ele>27</ele><time>2021-01-12T15:44:08Z</time><name>PT7034</name></trkpt>
<trkpt lat="52.053988" lon="05.806650"><ele>26.9</ele><time>2021-01-12T15:44:09Z</time><name>PT7035</name></trkpt>
<trkpt lat="52.053976" lon="05.806658"><ele>26.9</ele><time>2021-01-12T15:44:09Z</time><name>PT7036</name></trkpt>
<trkpt lat="52.053968" lon="05.806665"><ele>27</ele><time>2021-01-12T15:44:11Z</time><name>PT7037</name></trkpt>
<trkpt lat="52.053958" lon="05.806674"><ele>26.9</ele><time>2021-01-12T15:44:12Z</time><name>PT7038</name></trkpt>
<trkpt lat="52.053948" lon="05.806681"><ele>27</ele><time>2021-01-12T15:44:12Z</time><name>PT7039</name></trkpt>
<trkpt lat="52.053937" lon="05.806689"><ele>26.9</ele><time>2021-01-12T15:44:14Z</time><name>PT7040</name></trkpt>
<trkpt lat="52.053925" lon="05.806697"><ele>27</ele><time>2021-01-12T15:44:15Z</time><name>PT7041</name></trkpt>
<trkpt lat="52.053916" lon="05.806705"><ele>27</ele><time>2021-01-12T15:44:15Z</time><name>PT7042</name></trkpt>
<trkpt lat="52.053907" lon="05.806712"><ele>27</ele><time>2021-01-12T15:44:17Z</time><name>PT7043</name></trkpt>
<trkpt lat="52.053898" lon="05.806717"><ele>27</ele><time>2021-01-12T15:44:18Z</time><name>PT7044</name></trkpt>
<trkpt lat="52.053886" lon="05.806724"><ele>27</ele><time>2021-01-12T15:44:18Z</time><name>PT7045</name></trkpt>
<trkpt lat="52.053875" lon="05.806729"><ele>27</ele><time>2021-01-12T15:44:20Z</time><name>PT7046</name></trkpt>
<trkpt lat="52.053864" lon="05.806734"><ele>27</ele><time>2021-01-12T15:44:21Z</time><name>PT7047</name></trkpt>
<trkpt lat="52.053854" lon="05.806739"><ele>27.1</ele><time>2021-01-12T15:44:21Z</time><name>PT7048</name></trkpt>
<trkpt lat="52.053846" lon="05.806745"><ele>27.2</ele><time>2021-01-12T15:44:23Z</time><name>PT7049</name></trkpt>
<trkpt lat="52.053835" lon="05.806752"><ele>27.4</ele><time>2021-01-12T15:44:24Z</time><name>PT7050</name></trkpt>
<trkpt lat="52.053825" lon="05.806759"><ele>27.3</ele><time>2021-01-12T15:44:24Z</time><name>PT7051</name></trkpt>
<trkpt lat="52.053816" lon="05.806764"><ele>27.3</ele><time>2021-01-12T15:44:26Z</time><name>PT7052</name></trkpt>
<trkpt lat="52.053807" lon="05.806769"><ele>27.1</ele><time>2021-01-12T15:44:27Z</time><name>PT7053</name></trkpt>
<trkpt lat="52.053797" lon="05.806776"><ele>27.1</ele><time>2021-01-12T15:44:27Z</time><name>PT7054</name></trkpt>
<trkpt lat="52.053787" lon="05.806781"><ele>27.1</ele><time>2021-01-12T15:44:29Z</time><name>PT7055</name></trkpt>
<trkpt lat="52.053775" lon="05.806787"><ele>27.2</ele><time>2021-01-12T15:44:30Z</time><name>PT7056</name></trkpt>
<trkpt lat="52.053763" lon="05.806792"><ele>27.4</ele><time>2021-01-12T15:44:30Z</time><name>PT7057</name></trkpt>
<trkpt lat="52.053751" lon="05.806796"><ele>27.4</ele><time>2021-01-12T15:44:32Z</time><name>PT7058</name></trkpt>
<trkpt lat="52.053739" lon="05.806802"><ele>27.5</ele><time>2021-01-12T15:44:33Z</time><name>PT7059</name></trkpt>
<trkpt lat="52.053731" lon="05.806806"><ele>27.6</ele><time>2021-01-12T15:44:33Z</time><name>PT7060</name></trkpt>
<trkpt lat="52.053720" lon="05.806812"><ele>27.7</ele><time>2021-01-12T15:44:35Z</time><name>PT7061</name></trkpt>
<trkpt lat="52.053710" lon="05.806818"><ele>27.7</ele><time>2021-01-12T15:44:36Z</time><name>PT7062</name></trkpt>
<trkpt lat="52.053698" lon="05.806829"><ele>27.9</ele><time>2021-01-12T15:44:36Z</time><name>PT7063</name></trkpt>
<trkpt lat="52.053688" lon="05.806835"><ele>27.8</ele><time>2021-01-12T15:44:38Z</time><name>PT7064</name></trkpt>
<trkpt lat="52.053678" lon="05.806839"><ele>27.7</ele><time>2021-01-12T15:44:39Z</time><name>PT7065</name></trkpt>
<trkpt lat="52.053669" lon="05.806844"><ele>27.9</ele><time>2021-01-12T15:44:39Z</time><name>PT7066</name></trkpt>
<trkpt lat="52.053659" lon="05.806849"><ele>27.8</ele><time>2021-01-12T15:44:41Z</time><name>PT7067</name></trkpt>
<trkpt lat="52.053648" lon="05.806855"><ele>27.8</ele><time>2021-01-12T15:44:42Z</time><name>PT7068</name></trkpt>
<trkpt lat="52.053638" lon="05.806860"><ele>27.8</ele><time>2021-01-12T15:44:42Z</time><name>PT7069</name></trkpt>
<trkpt lat="52.053626" lon="05.806866"><ele>27.6</ele><time>2021-01-12T15:44:44Z</time><name>PT7070</name></trkpt>
<trkpt lat="52.053615" lon="05.806872"><ele>27.6</ele><time>2021-01-12T15:44:45Z</time><name>PT7071</name></trkpt>
<trkpt lat="52.053603" lon="05.806877"><ele>27.7</ele><time>2021-01-12T15:44:45Z</time><name>PT7072</name></trkpt>
<trkpt lat="52.053593" lon="05.806881"><ele>27.7</ele><time>2021-01-12T15:44:47Z</time><name>PT7073</name></trkpt>
<trkpt lat="52.053582" lon="05.806886"><ele>28</ele><time>2021-01-12T15:44:48Z</time><name>PT7074</name></trkpt>
<trkpt lat="52.053571" lon="05.806894"><ele>27.9</ele><time>2021-01-12T15:44:48Z</time><name>PT7075</name></trkpt>
<trkpt lat="52.053560" lon="05.806901"><ele>27.9</ele><time>2021-01-12T15:44:50Z</time><name>PT7076</name></trkpt>
<trkpt lat="52.053549" lon="05.806908"><ele>28</ele><time>2021-01-12T15:44:51Z</time><name>PT7077</name></trkpt>
<trkpt lat="52.053539" lon="05.806915"><ele>28</ele><time>2021-01-12T15:44:51Z</time><name>PT7078</name></trkpt>
<trkpt lat="52.053530" lon="05.806922"><ele>28</ele><time>2021-01-12T15:44:53Z</time><name>PT7079</name></trkpt>
<trkpt lat="52.053520" lon="05.806927"><ele>28.2</ele><time>2021-01-12T15:44:54Z</time><name>PT7080</name></trkpt>
<trkpt lat="52.053510" lon="05.806934"><ele>28.2</ele><time>2021-01-12T15:44:54Z</time><name>PT7081</name></trkpt>
<trkpt lat="52.053498" lon="05.806941"><ele>28.1</ele><time>2021-01-12T15:44:56Z</time><name>PT7082</name></trkpt>
<trkpt lat="52.053488" lon="05.806945"><ele>28.2</ele><time>2021-01-12T15:44:57Z</time><name>PT7083</name></trkpt>
<trkpt lat="52.053478" lon="05.806950"><ele>28.2</ele><time>2021-01-12T15:44:57Z</time><name>PT7084</name></trkpt>
<trkpt lat="52.053466" lon="05.806963"><ele>28.2</ele><time>2021-01-12T15:44:59Z</time><name>PT7085</name></trkpt>
<trkpt lat="52.053460" lon="05.806969"><ele>28.2</ele><time>2021-01-12T15:45:00Z</time><name>PT7086</name></trkpt>
<trkpt lat="52.053451" lon="05.806976"><ele>28.2</ele><time>2021-01-12T15:45:00Z</time><name>PT7087</name></trkpt>
<trkpt lat="52.053442" lon="05.806986"><ele>28.2</ele><time>2021-01-12T15:45:02Z</time><name>PT7088</name></trkpt>
<trkpt lat="52.053434" lon="05.806990"><ele>28</ele><time>2021-01-12T15:45:03Z</time><name>PT7089</name></trkpt>
<trkpt lat="52.053425" lon="05.806997"><ele>28</ele><time>2021-01-12T15:45:03Z</time><name>PT7090</name></trkpt>
<trkpt lat="52.053415" lon="05.807003"><ele>28.1</ele><time>2021-01-12T15:45:05Z</time><name>PT7091</name></trkpt>
<trkpt lat="52.053403" lon="05.807011"><ele>28.2</ele><time>2021-01-12T15:45:06Z</time><name>PT7092</name></trkpt>
<trkpt lat="52.053393" lon="05.807018"><ele>28.2</ele><time>2021-01-12T15:45:06Z</time><name>PT7093</name></trkpt>
<trkpt lat="52.053381" lon="05.807024"><ele>28.2</ele><time>2021-01-12T15:45:08Z</time><name>PT7094</name></trkpt>
<trkpt lat="52.053370" lon="05.807030"><ele>28.1</ele><time>2021-01-12T15:45:09Z</time><name>PT7095</name></trkpt>
<trkpt lat="52.053359" lon="05.807035"><ele>28</ele><time>2021-01-12T15:45:09Z</time><name>PT7096</name></trkpt>
<trkpt lat="52.053349" lon="05.807038"><ele>27.9</ele><time>2021-01-12T15:45:11Z</time><name>PT7097</name></trkpt>
<trkpt lat="52.053341" lon="05.807042"><ele>28</ele><time>2021-01-12T15:45:12Z</time><name>PT7098</name></trkpt>
<trkpt lat="52.053334" lon="05.807046"><ele>27.9</ele><time>2021-01-12T15:45:12Z</time><name>PT7099</name></trkpt>
<trkpt lat="52.053326" lon="05.807051"><ele>28</ele><time>2021-01-12T15:45:14Z</time><name>PT7100</name></trkpt>
<trkpt lat="52.053317" lon="05.807060"><ele>28</ele><time>2021-01-12T15:45:15Z</time><name>PT7101</name></trkpt>
<trkpt lat="52.053309" lon="05.807067"><ele>28</ele><time>2021-01-12T15:45:16Z</time><name>PT7102</name></trkpt>
<trkpt lat="52.053299" lon="05.807074"><ele>28</ele><time>2021-01-12T15:45:17Z</time><name>PT7103</name></trkpt>
<trkpt lat="52.053286" lon="05.807082"><ele>28.1</ele><time>2021-01-12T15:45:18Z</time><name>PT7104</name></trkpt>
<trkpt lat="52.053275" lon="05.807088"><ele>28.2</ele><time>2021-01-12T15:45:18Z</time><name>PT7105</name></trkpt>
<trkpt lat="52.053264" lon="05.807098"><ele>28.4</ele><time>2021-01-12T15:45:20Z</time><name>PT7106</name></trkpt>
<trkpt lat="52.053252" lon="05.807109"><ele>28.2</ele><time>2021-01-12T15:45:21Z</time><name>PT7107</name></trkpt>
<trkpt lat="52.053240" lon="05.807119"><ele>28.3</ele><time>2021-01-12T15:45:21Z</time><name>PT7108</name></trkpt>
<trkpt lat="52.053230" lon="05.807124"><ele>28.4</ele><time>2021-01-12T15:45:23Z</time><name>PT7109</name></trkpt>
<trkpt lat="52.053220" lon="05.807129"><ele>28.6</ele><time>2021-01-12T15:45:24Z</time><name>PT7110</name></trkpt>
<trkpt lat="52.053209" lon="05.807134"><ele>28.8</ele><time>2021-01-12T15:45:24Z</time><name>PT7111</name></trkpt>
<trkpt lat="52.053197" lon="05.807147"><ele>28.9</ele><time>2021-01-12T15:45:26Z</time><name>PT7112</name></trkpt>
<trkpt lat="52.053183" lon="05.807158"><ele>28.6</ele><time>2021-01-12T15:45:27Z</time><name>PT7113</name></trkpt>
<trkpt lat="52.053172" lon="05.807167"><ele>28.5</ele><time>2021-01-12T15:45:27Z</time><name>PT7114</name></trkpt>
<trkpt lat="52.053161" lon="05.807174"><ele>28.3</ele><time>2021-01-12T15:45:29Z</time><name>PT7115</name></trkpt>
<trkpt lat="52.053152" lon="05.807181"><ele>28.3</ele><time>2021-01-12T15:45:30Z</time><name>PT7116</name></trkpt>
<trkpt lat="52.053142" lon="05.807189"><ele>28.4</ele><time>2021-01-12T15:45:30Z</time><name>PT7117</name></trkpt>
<trkpt lat="52.053130" lon="05.807196"><ele>28.5</ele><time>2021-01-12T15:45:32Z</time><name>PT7118</name></trkpt>
<trkpt lat="52.053119" lon="05.807203"><ele>28.6</ele><time>2021-01-12T15:45:33Z</time><name>PT7119</name></trkpt>
<trkpt lat="52.053106" lon="05.807211"><ele>28.6</ele><time>2021-01-12T15:45:33Z</time><name>PT7120</name></trkpt>
<trkpt lat="52.053094" lon="05.807218"><ele>28.5</ele><time>2021-01-12T15:45:35Z</time><name>PT7121</name></trkpt>
<trkpt lat="52.053083" lon="05.807224"><ele>28.5</ele><time>2021-01-12T15:45:36Z</time><name>PT7122</name></trkpt>
<trkpt lat="52.053073" lon="05.807232"><ele>28.4</ele><time>2021-01-12T15:45:36Z</time><name>PT7123</name></trkpt>
<trkpt lat="52.053063" lon="05.807241"><ele>28.4</ele><time>2021-01-12T15:45:38Z</time><name>PT7124</name></trkpt>
<trkpt lat="52.053052" lon="05.807251"><ele>28.5</ele><time>2021-01-12T15:45:39Z</time><name>PT7125</name></trkpt>
<trkpt lat="52.053041" lon="05.807261"><ele>28.5</ele><time>2021-01-12T15:45:39Z</time><name>PT7126</name></trkpt>
<trkpt lat="52.053034" lon="05.807268"><ele>28.6</ele><time>2021-01-12T15:45:41Z</time><name>PT7127</name></trkpt>
<trkpt lat="52.053023" lon="05.807278"><ele>29</ele><time>2021-01-12T15:45:42Z</time><name>PT7128</name></trkpt>
<trkpt lat="52.053014" lon="05.807286"><ele>29.1</ele><time>2021-01-12T15:45:42Z</time><name>PT7129</name></trkpt>
<trkpt lat="52.053007" lon="05.807290"><ele>29.1</ele><time>2021-01-12T15:45:44Z</time><name>PT7130</name></trkpt>
<trkpt lat="52.052999" lon="05.807297"><ele>29.3</ele><time>2021-01-12T15:45:45Z</time><name>PT7131</name></trkpt>
<trkpt lat="52.052990" lon="05.807303"><ele>29.1</ele><time>2021-01-12T15:45:45Z</time><name>PT7132</name></trkpt>
<trkpt lat="52.052976" lon="05.807322"><ele>29.1</ele><time>2021-01-12T15:45:47Z</time><name>PT7133</name></trkpt>
<trkpt lat="52.052964" lon="05.807328"><ele>29</ele><time>2021-01-12T15:45:48Z</time><name>PT7134</name></trkpt>
<trkpt lat="52.052953" lon="05.807331"><ele>28.8</ele><time>2021-01-12T15:45:48Z</time><name>PT7135</name></trkpt>
<trkpt lat="52.052944" lon="05.807335"><ele>28.7</ele><time>2021-01-12T15:45:50Z</time><name>PT7136</name></trkpt>
<trkpt lat="52.052934" lon="05.807340"><ele>28.7</ele><time>2021-01-12T15:45:51Z</time><name>PT7137</name></trkpt>
<trkpt lat="52.052924" lon="05.807346"><ele>28.8</ele><time>2021-01-12T15:45:51Z</time><name>PT7138</name></trkpt>
<trkpt lat="52.052913" lon="05.807351"><ele>29</ele><time>2021-01-12T15:45:53Z</time><name>PT7139</name></trkpt>
<trkpt lat="52.052905" lon="05.807360"><ele>29</ele><time>2021-01-12T15:45:54Z</time><name>PT7140</name></trkpt>
<trkpt lat="52.052896" lon="05.807370"><ele>29</ele><time>2021-01-12T15:45:54Z</time><name>PT7141</name></trkpt>
<trkpt lat="52.052886" lon="05.807378"><ele>29</ele><time>2021-01-12T15:45:56Z</time><name>PT7142</name></trkpt>
<trkpt lat="52.052877" lon="05.807385"><ele>29</ele><time>2021-01-12T15:45:57Z</time><name>PT7143</name></trkpt>
<trkpt lat="52.052868" lon="05.807388"><ele>29.1</ele><time>2021-01-12T15:45:57Z</time><name>PT7144</name></trkpt>
<trkpt lat="52.052858" lon="05.807394"><ele>29.3</ele><time>2021-01-12T15:45:59Z</time><name>PT7145</name></trkpt>
<trkpt lat="52.052846" lon="05.807401"><ele>29.3</ele><time>2021-01-12T15:46:00Z</time><name>PT7146</name></trkpt>
<trkpt lat="52.052833" lon="05.807403"><ele>29.4</ele><time>2021-01-12T15:46:00Z</time><name>PT7147</name></trkpt>
<trkpt lat="52.052820" lon="05.807407"><ele>29.3</ele><time>2021-01-12T15:46:02Z</time><name>PT7148</name></trkpt>
<trkpt lat="52.052807" lon="05.807416"><ele>29.2</ele><time>2021-01-12T15:46:03Z</time><name>PT7149</name></trkpt>
<trkpt lat="52.052795" lon="05.807425"><ele>29.3</ele><time>2021-01-12T15:46:03Z</time><name>PT7150</name></trkpt>
<trkpt lat="52.052785" lon="05.807431"><ele>29.3</ele><time>2021-01-12T15:46:05Z</time><name>PT7151</name></trkpt>
<trkpt lat="52.052775" lon="05.807440"><ele>29.2</ele><time>2021-01-12T15:46:06Z</time><name>PT7152</name></trkpt>
<trkpt lat="52.052763" lon="05.807445"><ele>29.2</ele><time>2021-01-12T15:46:06Z</time><name>PT7153</name></trkpt>
<trkpt lat="52.052751" lon="05.807455"><ele>29.5</ele><time>2021-01-12T15:46:08Z</time><name>PT7154</name></trkpt>
<trkpt lat="52.052741" lon="05.807463"><ele>29.6</ele><time>2021-01-12T15:46:09Z</time><name>PT7155</name></trkpt>
<trkpt lat="52.052729" lon="05.807472"><ele>29.7</ele><time>2021-01-12T15:46:09Z</time><name>PT7156</name></trkpt>
<trkpt lat="52.052719" lon="05.807484"><ele>30</ele><time>2021-01-12T15:46:11Z</time><name>PT7157</name></trkpt>
<trkpt lat="52.052710" lon="05.807493"><ele>30</ele><time>2021-01-12T15:46:12Z</time><name>PT7158</name></trkpt>
<trkpt lat="52.052700" lon="05.807503"><ele>29.9</ele><time>2021-01-12T15:46:12Z</time><name>PT7159</name></trkpt>
<trkpt lat="52.052688" lon="05.807517"><ele>29.8</ele><time>2021-01-12T15:46:14Z</time><name>PT7160</name></trkpt>
<trkpt lat="52.052677" lon="05.807531"><ele>29.5</ele><time>2021-01-12T15:46:15Z</time><name>PT7161</name></trkpt>
<trkpt lat="52.052666" lon="05.807546"><ele>29.6</ele><time>2021-01-12T15:46:15Z</time><name>PT7162</name></trkpt>
<trkpt lat="52.052654" lon="05.807559"><ele>29.6</ele><time>2021-01-12T15:46:17Z</time><name>PT7163</name></trkpt>
<trkpt lat="52.052644" lon="05.807571"><ele>29.7</ele><time>2021-01-12T15:46:18Z</time><name>PT7164</name></trkpt>
<trkpt lat="52.052632" lon="05.807581"><ele>29.8</ele><time>2021-01-12T15:46:18Z</time><name>PT7165</name></trkpt>
<trkpt lat="52.052624" lon="05.807591"><ele>29.7</ele><time>2021-01-12T15:46:20Z</time><name>PT7166</name></trkpt>
<trkpt lat="52.052615" lon="05.807600"><ele>30</ele><time>2021-01-12T15:46:21Z</time><name>PT7167</name></trkpt>
<trkpt lat="52.052609" lon="05.807606"><ele>30</ele><time>2021-01-12T15:46:21Z</time><name>PT7168</name></trkpt>
<trkpt lat="52.052602" lon="05.807614"><ele>29.9</ele><time>2021-01-12T15:46:23Z</time><name>PT7169</name></trkpt>
<trkpt lat="52.052593" lon="05.807623"><ele>30</ele><time>2021-01-12T15:46:24Z</time><name>PT7170</name></trkpt>
<trkpt lat="52.052583" lon="05.807631"><ele>29.9</ele><time>2021-01-12T15:46:24Z</time><name>PT7171</name></trkpt>
<trkpt lat="52.052572" lon="05.807641"><ele>29.9</ele><time>2021-01-12T15:46:26Z</time><name>PT7172</name></trkpt>
<trkpt lat="52.052565" lon="05.807649"><ele>30</ele><time>2021-01-12T15:46:27Z</time><name>PT7173</name></trkpt>
<trkpt lat="52.052555" lon="05.807661"><ele>30</ele><time>2021-01-12T15:46:27Z</time><name>PT7174</name></trkpt>
<trkpt lat="52.052545" lon="05.807671"><ele>30.2</ele><time>2021-01-12T15:46:29Z</time><name>PT7175</name></trkpt>
<trkpt lat="52.052534" lon="05.807681"><ele>30.4</ele><time>2021-01-12T15:46:30Z</time><name>PT7176</name></trkpt>
<trkpt lat="52.052524" lon="05.807694"><ele>30.5</ele><time>2021-01-12T15:46:30Z</time><name>PT7177</name></trkpt>
<trkpt lat="52.052514" lon="05.807704"><ele>30.5</ele><time>2021-01-12T15:46:32Z</time><name>PT7178</name></trkpt>
<trkpt lat="52.052504" lon="05.807715"><ele>30.5</ele><time>2021-01-12T15:46:33Z</time><name>PT7179</name></trkpt>
<trkpt lat="52.052495" lon="05.807722"><ele>30.5</ele><time>2021-01-12T15:46:33Z</time><name>PT7180</name></trkpt>
<trkpt lat="52.052486" lon="05.807734"><ele>30.5</ele><time>2021-01-12T15:46:35Z</time><name>PT7181</name></trkpt>
<trkpt lat="52.052475" lon="05.807745"><ele>30.4</ele><time>2021-01-12T15:46:36Z</time><name>PT7182</name></trkpt>
<trkpt lat="52.052466" lon="05.807752"><ele>30.5</ele><time>2021-01-12T15:46:36Z</time><name>PT7183</name></trkpt>
<trkpt lat="52.052458" lon="05.807755"><ele>30.8</ele><time>2021-01-12T15:46:38Z</time><name>PT7184</name></trkpt>
<trkpt lat="52.052446" lon="05.807759"><ele>31</ele><time>2021-01-12T15:46:39Z</time><name>PT7185</name></trkpt>
<trkpt lat="52.052434" lon="05.807763"><ele>31.1</ele><time>2021-01-12T15:46:39Z</time><name>PT7186</name></trkpt>
<trkpt lat="52.052422" lon="05.807766"><ele>31</ele><time>2021-01-12T15:46:41Z</time><name>PT7187</name></trkpt>
<trkpt lat="52.052411" lon="05.807771"><ele>30.9</ele><time>2021-01-12T15:46:42Z</time><name>PT7188</name></trkpt>
<trkpt lat="52.052399" lon="05.807777"><ele>30.9</ele><time>2021-01-12T15:46:42Z</time><name>PT7189</name></trkpt>
<trkpt lat="52.052387" lon="05.807786"><ele>30.9</ele><time>2021-01-12T15:46:44Z</time><name>PT7190</name></trkpt>
<trkpt lat="52.052376" lon="05.807795"><ele>30.8</ele><time>2021-01-12T15:46:45Z</time><name>PT7191</name></trkpt>
<trkpt lat="52.052365" lon="05.807802"><ele>30.8</ele><time>2021-01-12T15:46:45Z</time><name>PT7192</name></trkpt>
<trkpt lat="52.052354" lon="05.807809"><ele>30.7</ele><time>2021-01-12T15:46:47Z</time><name>PT7193</name></trkpt>
<trkpt lat="52.052344" lon="05.807815"><ele>30.8</ele><time>2021-01-12T15:46:48Z</time><name>PT7194</name></trkpt>
<trkpt lat="52.052334" lon="05.807821"><ele>30.9</ele><time>2021-01-12T15:46:48Z</time><name>PT7195</name></trkpt>
<trkpt lat="52.052324" lon="05.807824"><ele>31</ele><time>2021-01-12T15:46:50Z</time><name>PT7196</name></trkpt>
<trkpt lat="52.052312" lon="05.807827"><ele>30.8</ele><time>2021-01-12T15:46:51Z</time><name>PT7197</name></trkpt>
<trkpt lat="52.052301" lon="05.807833"><ele>30.7</ele><time>2021-01-12T15:46:51Z</time><name>PT7198</name></trkpt>
<trkpt lat="52.052290" lon="05.807840"><ele>30.8</ele><time>2021-01-12T15:46:53Z</time><name>PT7199</name></trkpt>
<trkpt lat="52.052281" lon="05.807845"><ele>30.8</ele><time>2021-01-12T15:46:54Z</time><name>PT7200</name></trkpt>
<trkpt lat="52.052270" lon="05.807854"><ele>30.8</ele><time>2021-01-12T15:46:54Z</time><name>PT7201</name></trkpt>
<trkpt lat="52.052258" lon="05.807863"><ele>30.8</ele><time>2021-01-12T15:46:56Z</time><name>PT7202</name></trkpt>
<trkpt lat="52.052248" lon="05.807868"><ele>30.7</ele><time>2021-01-12T15:46:57Z</time><name>PT7203</name></trkpt>
<trkpt lat="52.052237" lon="05.807872"><ele>30.6</ele><time>2021-01-12T15:46:57Z</time><name>PT7204</name></trkpt>
<trkpt lat="52.052227" lon="05.807875"><ele>30.8</ele><time>2021-01-12T15:46:59Z</time><name>PT7205</name></trkpt>
<trkpt lat="52.052217" lon="05.807884"><ele>30.9</ele><time>2021-01-12T15:47:00Z</time><name>PT7206</name></trkpt>
<trkpt lat="52.052206" lon="05.807889"><ele>30.8</ele><time>2021-01-12T15:47:00Z</time><name>PT7207</name></trkpt>
<trkpt lat="52.052195" lon="05.807891"><ele>30.9</ele><time>2021-01-12T15:47:02Z</time><name>PT7208</name></trkpt>
<trkpt lat="52.052182" lon="05.807893"><ele>30.9</ele><time>2021-01-12T15:47:03Z</time><name>PT7209</name></trkpt>
<trkpt lat="52.052172" lon="05.807894"><ele>30.9</ele><time>2021-01-12T15:47:03Z</time><name>PT7210</name></trkpt>
<trkpt lat="52.052161" lon="05.807898"><ele>31</ele><time>2021-01-12T15:47:05Z</time><name>PT7211</name></trkpt>
<trkpt lat="52.052148" lon="05.807908"><ele>30.9</ele><time>2021-01-12T15:47:06Z</time><name>PT7212</name></trkpt>
<trkpt lat="52.052136" lon="05.807914"><ele>30.8</ele><time>2021-01-12T15:47:06Z</time><name>PT7213</name></trkpt>
<trkpt lat="52.052124" lon="05.807920"><ele>30.7</ele><time>2021-01-12T15:47:08Z</time><name>PT7214</name></trkpt>
<trkpt lat="52.052116" lon="05.807926"><ele>30.7</ele><time>2021-01-12T15:47:09Z</time><name>PT7215</name></trkpt>
<trkpt lat="52.052106" lon="05.807930"><ele>31</ele><time>2021-01-12T15:47:09Z</time><name>PT7216</name></trkpt>
<trkpt lat="52.052096" lon="05.807935"><ele>31</ele><time>2021-01-12T15:47:11Z</time><name>PT7217</name></trkpt>
<trkpt lat="52.052086" lon="05.807941"><ele>31.2</ele><time>2021-01-12T15:47:12Z</time><name>PT7218</name></trkpt>
<trkpt lat="52.052073" lon="05.807946"><ele>31.2</ele><time>2021-01-12T15:47:12Z</time><name>PT7219</name></trkpt>
<trkpt lat="52.052062" lon="05.807952"><ele>31.3</ele><time>2021-01-12T15:47:14Z</time><name>PT7220</name></trkpt>
<trkpt lat="52.052051" lon="05.807957"><ele>31.5</ele><time>2021-01-12T15:47:15Z</time><name>PT7221</name></trkpt>
<trkpt lat="52.052042" lon="05.807964"><ele>31.8</ele><time>2021-01-12T15:47:15Z</time><name>PT7222</name></trkpt>
<trkpt lat="52.052031" lon="05.807968"><ele>31.8</ele><time>2021-01-12T15:47:17Z</time><name>PT7223</name></trkpt>
<trkpt lat="52.052019" lon="05.807978"><ele>31.9</ele><time>2021-01-12T15:47:18Z</time><name>PT7224</name></trkpt>
<trkpt lat="52.052008" lon="05.807986"><ele>32</ele><time>2021-01-12T15:47:18Z</time><name>PT7225</name></trkpt>
<trkpt lat="52.051998" lon="05.807992"><ele>32</ele><time>2021-01-12T15:47:20Z</time><name>PT7226</name></trkpt>
<trkpt lat="52.051990" lon="05.807999"><ele>32</ele><time>2021-01-12T15:47:21Z</time><name>PT7227</name></trkpt>
<trkpt lat="52.051979" lon="05.808007"><ele>32</ele><time>2021-01-12T15:47:21Z</time><name>PT7228</name></trkpt>
<trkpt lat="52.051967" lon="05.808013"><ele>32</ele><time>2021-01-12T15:47:23Z</time><name>PT7229</name></trkpt>
<trkpt lat="52.051956" lon="05.808018"><ele>32.1</ele><time>2021-01-12T15:47:24Z</time><name>PT7230</name></trkpt>
<trkpt lat="52.051945" lon="05.808026"><ele>32</ele><time>2021-01-12T15:47:24Z</time><name>PT7231</name></trkpt>
<trkpt lat="52.051937" lon="05.808033"><ele>32.1</ele><time>2021-01-12T15:47:26Z</time><name>PT7232</name></trkpt>
<trkpt lat="52.051928" lon="05.808039"><ele>32</ele><time>2021-01-12T15:47:27Z</time><name>PT7233</name></trkpt>
<trkpt lat="52.051918" lon="05.808045"><ele>32</ele><time>2021-01-12T15:47:27Z</time><name>PT7234</name></trkpt>
<trkpt lat="52.051910" lon="05.808049"><ele>32.1</ele><time>2021-01-12T15:47:29Z</time><name>PT7235</name></trkpt>
<trkpt lat="52.051902" lon="05.808053"><ele>32.2</ele><time>2021-01-12T15:47:30Z</time><name>PT7236</name></trkpt>
<trkpt lat="52.051892" lon="05.808059"><ele>32.3</ele><time>2021-01-12T15:47:30Z</time><name>PT7237</name></trkpt>
<trkpt lat="52.051883" lon="05.808063"><ele>32.5</ele><time>2021-01-12T15:47:32Z</time><name>PT7238</name></trkpt>
<trkpt lat="52.051873" lon="05.808069"><ele>32.5</ele><time>2021-01-12T15:47:33Z</time><name>PT7239</name></trkpt>
<trkpt lat="52.051863" lon="05.808074"><ele>32.5</ele><time>2021-01-12T15:47:33Z</time><name>PT7240</name></trkpt>
<trkpt lat="52.051853" lon="05.808080"><ele>32.4</ele><time>2021-01-12T15:47:35Z</time><name>PT7241</name></trkpt>
<trkpt lat="52.051843" lon="05.808088"><ele>32.4</ele><time>2021-01-12T15:47:36Z</time><name>PT7242</name></trkpt>
<trkpt lat="52.051834" lon="05.808098"><ele>32.5</ele><time>2021-01-12T15:47:36Z</time><name>PT7243</name></trkpt>
<trkpt lat="52.051825" lon="05.808104"><ele>32.5</ele><time>2021-01-12T15:47:38Z</time><name>PT7244</name></trkpt>
<trkpt lat="52.051816" lon="05.808111"><ele>32.5</ele><time>2021-01-12T15:47:39Z</time><name>PT7245</name></trkpt>
<trkpt lat="52.051806" lon="05.808115"><ele>32.5</ele><time>2021-01-12T15:47:39Z</time><name>PT7246</name></trkpt>
<trkpt lat="52.051795" lon="05.808118"><ele>32.6</ele><time>2021-01-12T15:47:41Z</time><name>PT7247</name></trkpt>
<trkpt lat="52.051784" lon="05.808125"><ele>32.8</ele><time>2021-01-12T15:47:42Z</time><name>PT7248</name></trkpt>
<trkpt lat="52.051773" lon="05.808132"><ele>32.8</ele><time>2021-01-12T15:47:42Z</time><name>PT7249</name></trkpt>
<trkpt lat="52.051763" lon="05.808139"><ele>32.9</ele><time>2021-01-12T15:47:44Z</time><name>PT7250</name></trkpt>
<trkpt lat="52.051753" lon="05.808146"><ele>33</ele><time>2021-01-12T15:47:45Z</time><name>PT7251</name></trkpt>
<trkpt lat="52.051743" lon="05.808154"><ele>33</ele><time>2021-01-12T15:47:45Z</time><name>PT7252</name></trkpt>
<trkpt lat="52.051735" lon="05.808160"><ele>33.1</ele><time>2021-01-12T15:47:47Z</time><name>PT7253</name></trkpt>
<trkpt lat="52.051724" lon="05.808169"><ele>33</ele><time>2021-01-12T15:47:48Z</time><name>PT7254</name></trkpt>
<trkpt lat="52.051715" lon="05.808175"><ele>33</ele><time>2021-01-12T15:47:48Z</time><name>PT7255</name></trkpt>
<trkpt lat="52.051704" lon="05.808180"><ele>33</ele><time>2021-01-12T15:47:50Z</time><name>PT7256</name></trkpt>
<trkpt lat="52.051694" lon="05.808185"><ele>32.8</ele><time>2021-01-12T15:47:51Z</time><name>PT7257</name></trkpt>
<trkpt lat="52.051682" lon="05.808191"><ele>32.9</ele><time>2021-01-12T15:47:51Z</time><name>PT7258</name></trkpt>
<trkpt lat="52.051672" lon="05.808197"><ele>33</ele><time>2021-01-12T15:47:53Z</time><name>PT7259</name></trkpt>
<trkpt lat="52.051660" lon="05.808204"><ele>33.1</ele><time>2021-01-12T15:47:54Z</time><name>PT7260</name></trkpt>
<trkpt lat="52.051651" lon="05.808212"><ele>33.1</ele><time>2021-01-12T15:47:54Z</time><name>PT7261</name></trkpt>
<trkpt lat="52.051644" lon="05.808218"><ele>33.1</ele><time>2021-01-12T15:47:56Z</time><name>PT7262</name></trkpt>
<trkpt lat="52.051634" lon="05.808228"><ele>33.2</ele><time>2021-01-12T15:47:57Z</time><name>PT7263</name></trkpt>
<trkpt lat="52.051626" lon="05.808238"><ele>33.3</ele><time>2021-01-12T15:47:57Z</time><name>PT7264</name></trkpt>
<trkpt lat="52.051617" lon="05.808247"><ele>33.4</ele><time>2021-01-12T15:47:59Z</time><name>PT7265</name></trkpt>
<trkpt lat="52.051605" lon="05.808256"><ele>33.5</ele><time>2021-01-12T15:48:00Z</time><name>PT7266</name></trkpt>
<trkpt lat="52.051595" lon="05.808262"><ele>33.5</ele><time>2021-01-12T15:48:00Z</time><name>PT7267</name></trkpt>
<trkpt lat="52.051584" lon="05.808265"><ele>33.7</ele><time>2021-01-12T15:48:02Z</time><name>PT7268</name></trkpt>
<trkpt lat="52.051574" lon="05.808271"><ele>33.9</ele><time>2021-01-12T15:48:03Z</time><name>PT7269</name></trkpt>
<trkpt lat="52.051565" lon="05.808277"><ele>34</ele><time>2021-01-12T15:48:03Z</time><name>PT7270</name></trkpt>
<trkpt lat="52.051556" lon="05.808284"><ele>34</ele><time>2021-01-12T15:48:05Z</time><name>PT7271</name></trkpt>
<trkpt lat="52.051547" lon="05.808293"><ele>34.1</ele><time>2021-01-12T15:48:06Z</time><name>PT7272</name></trkpt>
<trkpt lat="52.051537" lon="05.808300"><ele>34.1</ele><time>2021-01-12T15:48:06Z</time><name>PT7273</name></trkpt>
<trkpt lat="52.051527" lon="05.808307"><ele>33.9</ele><time>2021-01-12T15:48:08Z</time><name>PT7274</name></trkpt>
<trkpt lat="52.051518" lon="05.808308"><ele>33.8</ele><time>2021-01-12T15:48:09Z</time><name>PT7275</name></trkpt>
<trkpt lat="52.051509" lon="05.808311"><ele>33.9</ele><time>2021-01-12T15:48:09Z</time><name>PT7276</name></trkpt>
<trkpt lat="52.051501" lon="05.808311"><ele>33.8</ele><time>2021-01-12T15:48:11Z</time><name>PT7277</name></trkpt>
<trkpt lat="52.051492" lon="05.808315"><ele>33.9</ele><time>2021-01-12T15:48:12Z</time><name>PT7278</name></trkpt>
<trkpt lat="52.051483" lon="05.808319"><ele>34</ele><time>2021-01-12T15:48:12Z</time><name>PT7279</name></trkpt>
<trkpt lat="52.051475" lon="05.808324"><ele>34.1</ele><time>2021-01-12T15:48:14Z</time><name>PT7280</name></trkpt>
<trkpt lat="52.051465" lon="05.808331"><ele>34.3</ele><time>2021-01-12T15:48:15Z</time><name>PT7281</name></trkpt>
<trkpt lat="52.051456" lon="05.808336"><ele>34.5</ele><time>2021-01-12T15:48:15Z</time><name>PT7282</name></trkpt>
<trkpt lat="52.051449" lon="05.808342"><ele>34.3</ele><time>2021-01-12T15:48:17Z</time><name>PT7283</name></trkpt>
<trkpt lat="52.051441" lon="05.808348"><ele>34.1</ele><time>2021-01-12T15:48:18Z</time><name>PT7284</name></trkpt>
<trkpt lat="52.051431" lon="05.808351"><ele>34.1</ele><time>2021-01-12T15:48:18Z</time><name>PT7285</name></trkpt>
<trkpt lat="52.051420" lon="05.808355"><ele>34</ele><time>2021-01-12T15:48:20Z</time><name>PT7286</name></trkpt>
<trkpt lat="52.051409" lon="05.808357"><ele>34</ele><time>2021-01-12T15:48:21Z</time><name>PT7287</name></trkpt>
<trkpt lat="52.051398" lon="05.808361"><ele>34.1</ele><time>2021-01-12T15:48:21Z</time><name>PT7288</name></trkpt>
<trkpt lat="52.051388" lon="05.808367"><ele>34.2</ele><time>2021-01-12T15:48:23Z</time><name>PT7289</name></trkpt>
<trkpt lat="52.051379" lon="05.808374"><ele>34.4</ele><time>2021-01-12T15:48:24Z</time><name>PT7290</name></trkpt>
<trkpt lat="52.051375" lon="05.808377"><ele>34.5</ele><time>2021-01-12T15:48:24Z</time><name>PT7291</name></trkpt>
<trkpt lat="52.051373" lon="05.808384"><ele>34.7</ele><time>2021-01-12T15:48:26Z</time><name>PT7292</name></trkpt>
<trkpt lat="52.051370" lon="05.808385"><ele>34.5</ele><time>2021-01-12T15:48:27Z</time><name>PT7293</name></trkpt>
<trkpt lat="52.051364" lon="05.808388"><ele>34.5</ele><time>2021-01-12T15:48:27Z</time><name>PT7294</name></trkpt>
<trkpt lat="52.051357" lon="05.808389"><ele>34.4</ele><time>2021-01-12T15:48:29Z</time><name>PT7295</name></trkpt>
<trkpt lat="52.051351" lon="05.808395"><ele>34.4</ele><time>2021-01-12T15:48:30Z</time><name>PT7296</name></trkpt>
<trkpt lat="52.051343" lon="05.808401"><ele>34.4</ele><time>2021-01-12T15:48:30Z</time><name>PT7297</name></trkpt>
<trkpt lat="52.051332" lon="05.808408"><ele>34.5</ele><time>2021-01-12T15:48:32Z</time><name>PT7298</name></trkpt>
<trkpt lat="52.051321" lon="05.808418"><ele>34.6</ele><time>2021-01-12T15:48:33Z</time><name>PT7299</name></trkpt>
<trkpt lat="52.051310" lon="05.808421"><ele>34.6</ele><time>2021-01-12T15:48:33Z</time><name>PT7300</name></trkpt>
<trkpt lat="52.051301" lon="05.808423"><ele>34.6</ele><time>2021-01-12T15:48:35Z</time><name>PT7301</name></trkpt>
<trkpt lat="52.051293" lon="05.808426"><ele>34.5</ele><time>2021-01-12T15:48:36Z</time><name>PT7302</name></trkpt>
<trkpt lat="52.051286" lon="05.808429"><ele>34.5</ele><time>2021-01-12T15:48:36Z</time><name>PT7303</name></trkpt>
<trkpt lat="52.051277" lon="05.808433"><ele>34.4</ele><time>2021-01-12T15:48:38Z</time><name>PT7304</name></trkpt>
<trkpt lat="52.051269" lon="05.808437"><ele>34.4</ele><time>2021-01-12T15:48:39Z</time><name>PT7305</name></trkpt>
<trkpt lat="52.051261" lon="05.808440"><ele>34.4</ele><time>2021-01-12T15:48:39Z</time><name>PT7306</name></trkpt>
<trkpt lat="52.051253" lon="05.808445"><ele>34.5</ele><time>2021-01-12T15:48:41Z</time><name>PT7307</name></trkpt>
<trkpt lat="52.051245" lon="05.808449"><ele>34.6</ele><time>2021-01-12T15:48:42Z</time><name>PT7308</name></trkpt>
<trkpt lat="52.051236" lon="05.808454"><ele>34.5</ele><time>2021-01-12T15:48:42Z</time><name>PT7309</name></trkpt>
<trkpt lat="52.051228" lon="05.808458"><ele>34.5</ele><time>2021-01-12T15:48:44Z</time><name>PT7310</name></trkpt>
<trkpt lat="52.051219" lon="05.808463"><ele>34.5</ele><time>2021-01-12T15:48:45Z</time><name>PT7311</name></trkpt>
<trkpt lat="52.051209" lon="05.808473"><ele>34.5</ele><time>2021-01-12T15:48:45Z</time><name>PT7312</name></trkpt>
<trkpt lat="52.051202" lon="05.808478"><ele>34.5</ele><time>2021-01-12T15:48:47Z</time><name>PT7313</name></trkpt>
<trkpt lat="52.051194" lon="05.808479"><ele>34.5</ele><time>2021-01-12T15:48:48Z</time><name>PT7314</name></trkpt>
<trkpt lat="52.051186" lon="05.808479"><ele>34.4</ele><time>2021-01-12T15:48:48Z</time><name>PT7315</name></trkpt>
<trkpt lat="52.051179" lon="05.808480"><ele>34.3</ele><time>2021-01-12T15:48:50Z</time><name>PT7316</name></trkpt>
<trkpt lat="52.051174" lon="05.808482"><ele>34.1</ele><time>2021-01-12T15:48:51Z</time><name>PT7317</name></trkpt>
<trkpt lat="52.051166" lon="05.808490"><ele>34.2</ele><time>2021-01-12T15:48:51Z</time><name>PT7318</name></trkpt>
<trkpt lat="52.051155" lon="05.808497"><ele>34.1</ele><time>2021-01-12T15:48:53Z</time><name>PT7319</name></trkpt>
<trkpt lat="52.051145" lon="05.808504"><ele>34.2</ele><time>2021-01-12T15:48:54Z</time><name>PT7320</name></trkpt>
<trkpt lat="52.051136" lon="05.808508"><ele>34.4</ele><time>2021-01-12T15:48:54Z</time><name>PT7321</name></trkpt>
<trkpt lat="52.051126" lon="05.808511"><ele>34.5</ele><time>2021-01-12T15:48:56Z</time><name>PT7322</name></trkpt>
<trkpt lat="52.051115" lon="05.808514"><ele>34.5</ele><time>2021-01-12T15:48:57Z</time><name>PT7323</name></trkpt>
<trkpt lat="52.051106" lon="05.808518"><ele>34.6</ele><time>2021-01-12T15:48:57Z</time><name>PT7324</name></trkpt>
<trkpt lat="52.051099" lon="05.808523"><ele>34.4</ele><time>2021-01-12T15:48:59Z</time><name>PT7325</name></trkpt>
<trkpt lat="52.051089" lon="05.808532"><ele>34.4</ele><time>2021-01-12T15:49:00Z</time><name>PT7326</name></trkpt>
<trkpt lat="52.051080" lon="05.808541"><ele>34.4</ele><time>2021-01-12T15:49:00Z</time><name>PT7327</name></trkpt>
<trkpt lat="52.051071" lon="05.808549"><ele>34.4</ele><time>2021-01-12T15:49:02Z</time><name>PT7328</name></trkpt>
<trkpt lat="52.051063" lon="05.808555"><ele>34.5</ele><time>2021-01-12T15:49:03Z</time><name>PT7329</name></trkpt>
<trkpt lat="52.051053" lon="05.808560"><ele>34.5</ele><time>2021-01-12T15:49:03Z</time><name>PT7330</name></trkpt>
<trkpt lat="52.051043" lon="05.808564"><ele>34.5</ele><time>2021-01-12T15:49:05Z</time><name>PT7331</name></trkpt>
<trkpt lat="52.051033" lon="05.808571"><ele>34.7</ele><time>2021-01-12T15:49:06Z</time><name>PT7332</name></trkpt>
<trkpt lat="52.051023" lon="05.808578"><ele>34.9</ele><time>2021-01-12T15:49:06Z</time><name>PT7333</name></trkpt>
<trkpt lat="52.051014" lon="05.808580"><ele>35.1</ele><time>2021-01-12T15:49:08Z</time><name>PT7334</name></trkpt>
<trkpt lat="52.051007" lon="05.808578"><ele>35.4</ele><time>2021-01-12T15:49:09Z</time><name>PT7335</name></trkpt>
<trkpt lat="52.050999" lon="05.808577"><ele>35.5</ele><time>2021-01-12T15:49:09Z</time><name>PT7336</name></trkpt>
<trkpt lat="52.050989" lon="05.808578"><ele>35.5</ele><time>2021-01-12T15:49:11Z</time><name>PT7337</name></trkpt>
<trkpt lat="52.050982" lon="05.808580"><ele>35.5</ele><time>2021-01-12T15:49:12Z</time><name>PT7338</name></trkpt>
<trkpt lat="52.050973" lon="05.808588"><ele>35.3</ele><time>2021-01-12T15:49:12Z</time><name>PT7339</name></trkpt>
<trkpt lat="52.050965" lon="05.808594"><ele>35.2</ele><time>2021-01-12T15:49:14Z</time><name>PT7340</name></trkpt>
<trkpt lat="52.050956" lon="05.808601"><ele>35.1</ele><time>2021-01-12T15:49:15Z</time><name>PT7341</name></trkpt>
<trkpt lat="52.050947" lon="05.808608"><ele>35.2</ele><time>2021-01-12T15:49:15Z</time><name>PT7342</name></trkpt>
<trkpt lat="52.050937" lon="05.808611"><ele>35.1</ele><time>2021-01-12T15:49:17Z</time><name>PT7343</name></trkpt>
<trkpt lat="52.050927" lon="05.808619"><ele>35.2</ele><time>2021-01-12T15:49:18Z</time><name>PT7344</name></trkpt>
<trkpt lat="52.050918" lon="05.808619"><ele>35.1</ele><time>2021-01-12T15:49:18Z</time><name>PT7345</name></trkpt>
<trkpt lat="52.050908" lon="05.808621"><ele>34.8</ele><time>2021-01-12T15:49:20Z</time><name>PT7346</name></trkpt>
<trkpt lat="52.050898" lon="05.808625"><ele>34.7</ele><time>2021-01-12T15:49:21Z</time><name>PT7347</name></trkpt>
<trkpt lat="52.050887" lon="05.808633"><ele>34.5</ele><time>2021-01-12T15:49:21Z</time><name>PT7348</name></trkpt>
<trkpt lat="52.050878" lon="05.808641"><ele>34.4</ele><time>2021-01-12T15:49:23Z</time><name>PT7349</name></trkpt>
<trkpt lat="52.050873" lon="05.808648"><ele>34.6</ele><time>2021-01-12T15:49:24Z</time><name>PT7350</name></trkpt>
<trkpt lat="52.050864" lon="05.808654"><ele>34.6</ele><time>2021-01-12T15:49:24Z</time><name>PT7351</name></trkpt>
<trkpt lat="52.050856" lon="05.808661"><ele>35.3</ele><time>2021-01-12T15:49:26Z</time><name>PT7352</name></trkpt>
<trkpt lat="52.050848" lon="05.808668"><ele>35.8</ele><time>2021-01-12T15:49:27Z</time><name>PT7353</name></trkpt>
<trkpt lat="52.050836" lon="05.808675"><ele>36.1</ele><time>2021-01-12T15:49:27Z</time><name>PT7354</name></trkpt>
<trkpt lat="52.050821" lon="05.808684"><ele>36.3</ele><time>2021-01-12T15:49:29Z</time><name>PT7355</name></trkpt>
<trkpt lat="52.050810" lon="05.808690"><ele>35.6</ele><time>2021-01-12T15:49:30Z</time><name>PT7356</name></trkpt>
<trkpt lat="52.050797" lon="05.808697"><ele>35.2</ele><time>2021-01-12T15:49:30Z</time><name>PT7357</name></trkpt>
<trkpt lat="52.050787" lon="05.808709"><ele>35.1</ele><time>2021-01-12T15:49:32Z</time><name>PT7358</name></trkpt>
<trkpt lat="52.050778" lon="05.808715"><ele>35.2</ele><time>2021-01-12T15:49:33Z</time><name>PT7359</name></trkpt>
<trkpt lat="52.050770" lon="05.808721"><ele>35.6</ele><time>2021-01-12T15:49:33Z</time><name>PT7360</name></trkpt>
<trkpt lat="52.050761" lon="05.808727"><ele>35.9</ele><time>2021-01-12T15:49:35Z</time><name>PT7361</name></trkpt>
<trkpt lat="52.050749" lon="05.808733"><ele>35.7</ele><time>2021-01-12T15:49:36Z</time><name>PT7362</name></trkpt>
<trkpt lat="52.050737" lon="05.808737"><ele>35.9</ele><time>2021-01-12T15:49:36Z</time><name>PT7363</name></trkpt>
<trkpt lat="52.050725" lon="05.808740"><ele>35.9</ele><time>2021-01-12T15:49:38Z</time><name>PT7364</name></trkpt>
<trkpt lat="52.050713" lon="05.808745"><ele>35.9</ele><time>2021-01-12T15:49:39Z</time><name>PT7365</name></trkpt>
<trkpt lat="52.050702" lon="05.808746"><ele>35.9</ele><time>2021-01-12T15:49:39Z</time><name>PT7366</name></trkpt>
<trkpt lat="52.050692" lon="05.808750"><ele>36</ele><time>2021-01-12T15:49:41Z</time><name>PT7367</name></trkpt>
<trkpt lat="52.050683" lon="05.808756"><ele>36.1</ele><time>2021-01-12T15:49:42Z</time><name>PT7368</name></trkpt>
<trkpt lat="52.050675" lon="05.808763"><ele>36.1</ele><time>2021-01-12T15:49:42Z</time><name>PT7369</name></trkpt>
<trkpt lat="52.050668" lon="05.808769"><ele>36.3</ele><time>2021-01-12T15:49:44Z</time><name>PT7370</name></trkpt>
<trkpt lat="52.050662" lon="05.808773"><ele>36.1</ele><time>2021-01-12T15:49:45Z</time><name>PT7371</name></trkpt>
<trkpt lat="52.050656" lon="05.808775"><ele>36</ele><time>2021-01-12T15:49:45Z</time><name>PT7372</name></trkpt>
<trkpt lat="52.050650" lon="05.808779"><ele>36</ele><time>2021-01-12T15:49:47Z</time><name>PT7373</name></trkpt>
<trkpt lat="52.050641" lon="05.808783"><ele>35.9</ele><time>2021-01-12T15:49:48Z</time><name>PT7374</name></trkpt>
<trkpt lat="52.050630" lon="05.808786"><ele>35.7</ele><time>2021-01-12T15:49:49Z</time><name>PT7375</name></trkpt>
<trkpt lat="52.050620" lon="05.808788"><ele>35.8</ele><time>2021-01-12T15:49:50Z</time><name>PT7376</name></trkpt>
<trkpt lat="52.050609" lon="05.808790"><ele>35.8</ele><time>2021-01-12T15:49:51Z</time><name>PT7377</name></trkpt>
<trkpt lat="52.050597" lon="05.808793"><ele>35.8</ele><time>2021-01-12T15:49:51Z</time><name>PT7378</name></trkpt>
<trkpt lat="52.050585" lon="05.808796"><ele>35.9</ele><time>2021-01-12T15:49:53Z</time><name>PT7379</name></trkpt>
<trkpt lat="52.050573" lon="05.808797"><ele>36.1</ele><time>2021-01-12T15:49:54Z</time><name>PT7380</name></trkpt>
<trkpt lat="52.050562" lon="05.808800"><ele>36</ele><time>2021-01-12T15:49:54Z</time><name>PT7381</name></trkpt>
<trkpt lat="52.050551" lon="05.808803"><ele>36.2</ele><time>2021-01-12T15:49:56Z</time><name>PT7382</name></trkpt>
<trkpt lat="52.050541" lon="05.808810"><ele>36.3</ele><time>2021-01-12T15:49:57Z</time><name>PT7383</name></trkpt>
<trkpt lat="52.050531" lon="05.808817"><ele>36.3</ele><time>2021-01-12T15:49:57Z</time><name>PT7384</name></trkpt>
<trkpt lat="52.050523" lon="05.808824"><ele>36.4</ele><time>2021-01-12T15:49:59Z</time><name>PT7385</name></trkpt>
<trkpt lat="52.050515" lon="05.808834"><ele>36.4</ele><time>2021-01-12T15:50:00Z</time><name>PT7386</name></trkpt>
<trkpt lat="52.050509" lon="05.808841"><ele>36.4</ele><time>2021-01-12T15:50:00Z</time><name>PT7387</name></trkpt>
<trkpt lat="52.050504" lon="05.808845"><ele>36.5</ele><time>2021-01-12T15:50:02Z</time><name>PT7388</name></trkpt>
<trkpt lat="52.050499" lon="05.808847"><ele>36.3</ele><time>2021-01-12T15:50:03Z</time><name>PT7389</name></trkpt>
<trkpt lat="52.050496" lon="05.808850"><ele>36.2</ele><time>2021-01-12T15:50:03Z</time><name>PT7390</name></trkpt>
<trkpt lat="52.050492" lon="05.808852"><ele>36.6</ele><time>2021-01-12T15:50:05Z</time><name>PT7391</name></trkpt>
<trkpt lat="52.050490" lon="05.808854"><ele>36.7</ele><time>2021-01-12T15:50:06Z</time><name>PT7392</name></trkpt>
<trkpt lat="52.050486" lon="05.808860"><ele>36.7</ele><time>2021-01-12T15:50:06Z</time><name>PT7393</name></trkpt>
<trkpt lat="52.050477" lon="05.808868"><ele>36.9</ele><time>2021-01-12T15:50:08Z</time><name>PT7394</name></trkpt>
<trkpt lat="52.050467" lon="05.808875"><ele>36.9</ele><time>2021-01-12T15:50:09Z</time><name>PT7395</name></trkpt>
<trkpt lat="52.050457" lon="05.808883"><ele>36.7</ele><time>2021-01-12T15:50:09Z</time><name>PT7396</name></trkpt>
<trkpt lat="52.050447" lon="05.808892"><ele>36.5</ele><time>2021-01-12T15:50:11Z</time><name>PT7397</name></trkpt>
<trkpt lat="52.050435" lon="05.808896"><ele>36.6</ele><time>2021-01-12T15:50:12Z</time><name>PT7398</name></trkpt>
<trkpt lat="52.050424" lon="05.808902"><ele>36.5</ele><time>2021-01-12T15:50:12Z</time><name>PT7399</name></trkpt>
<trkpt lat="52.050415" lon="05.808912"><ele>36.2</ele><time>2021-01-12T15:50:14Z</time><name>PT7400</name></trkpt>
<trkpt lat="52.050408" lon="05.808923"><ele>36.5</ele><time>2021-01-12T15:50:15Z</time><name>PT7401</name></trkpt>
<trkpt lat="52.050400" lon="05.808933"><ele>36.5</ele><time>2021-01-12T15:50:15Z</time><name>PT7402</name></trkpt>
<trkpt lat="52.050392" lon="05.808943"><ele>36.5</ele><time>2021-01-12T15:50:17Z</time><name>PT7403</name></trkpt>
<trkpt lat="52.050383" lon="05.808952"><ele>36.6</ele><time>2021-01-12T15:50:18Z</time><name>PT7404</name></trkpt>
<trkpt lat="52.050374" lon="05.808961"><ele>36.8</ele><time>2021-01-12T15:50:18Z</time><name>PT7405</name></trkpt>
<trkpt lat="52.050364" lon="05.808972"><ele>36.8</ele><time>2021-01-12T15:50:20Z</time><name>PT7406</name></trkpt>
<trkpt lat="52.050353" lon="05.808982"><ele>36.9</ele><time>2021-01-12T15:50:21Z</time><name>PT7407</name></trkpt>
<trkpt lat="52.050342" lon="05.808992"><ele>37</ele><time>2021-01-12T15:50:21Z</time><name>PT7408</name></trkpt>
<trkpt lat="52.050332" lon="05.809002"><ele>36.9</ele><time>2021-01-12T15:50:23Z</time><name>PT7409</name></trkpt>
<trkpt lat="52.050322" lon="05.809012"><ele>37</ele><time>2021-01-12T15:50:24Z</time><name>PT7410</name></trkpt>
<trkpt lat="52.050314" lon="05.809023"><ele>36.9</ele><time>2021-01-12T15:50:24Z</time><name>PT7411</name></trkpt>
<trkpt lat="52.050305" lon="05.809032"><ele>37</ele><time>2021-01-12T15:50:26Z</time><name>PT7412</name></trkpt>
<trkpt lat="52.050295" lon="05.809041"><ele>37.1</ele><time>2021-01-12T15:50:27Z</time><name>PT7413</name></trkpt>
<trkpt lat="52.050284" lon="05.809048"><ele>37</ele><time>2021-01-12T15:50:27Z</time><name>PT7414</name></trkpt>
<trkpt lat="52.050273" lon="05.809058"><ele>37</ele><time>2021-01-12T15:50:29Z</time><name>PT7415</name></trkpt>
<trkpt lat="52.050263" lon="05.809068"><ele>36.9</ele><time>2021-01-12T15:50:30Z</time><name>PT7416</name></trkpt>
<trkpt lat="52.050253" lon="05.809076"><ele>36.8</ele><time>2021-01-12T15:50:30Z</time><name>PT7417</name></trkpt>
<trkpt lat="52.050244" lon="05.809084"><ele>36.6</ele><time>2021-01-12T15:50:32Z</time><name>PT7418</name></trkpt>
<trkpt lat="52.050235" lon="05.809091"><ele>36.7</ele><time>2021-01-12T15:50:33Z</time><name>PT7419</name></trkpt>
<trkpt lat="52.050227" lon="05.809099"><ele>36.6</ele><time>2021-01-12T15:50:33Z</time><name>PT7420</name></trkpt>
<trkpt lat="52.050221" lon="05.809105"><ele>36.5</ele><time>2021-01-12T15:50:35Z</time><name>PT7421</name></trkpt>
<trkpt lat="52.050213" lon="05.809112"><ele>36.4</ele><time>2021-01-12T15:50:36Z</time><name>PT7422</name></trkpt>
<trkpt lat="52.050204" lon="05.809118"><ele>36.4</ele><time>2021-01-12T15:50:36Z</time><name>PT7423</name></trkpt>
<trkpt lat="52.050195" lon="05.809125"><ele>36.3</ele><time>2021-01-12T15:50:38Z</time><name>PT7424</name></trkpt>
<trkpt lat="52.050188" lon="05.809133"><ele>36.4</ele><time>2021-01-12T15:50:39Z</time><name>PT7425</name></trkpt>
<trkpt lat="52.050181" lon="05.809141"><ele>36.4</ele><time>2021-01-12T15:50:39Z</time><name>PT7426</name></trkpt>
<trkpt lat="52.050174" lon="05.809149"><ele>36.3</ele><time>2021-01-12T15:50:41Z</time><name>PT7427</name></trkpt>
<trkpt lat="52.050167" lon="05.809157"><ele>36.1</ele><time>2021-01-12T15:50:42Z</time><name>PT7428</name></trkpt>
<trkpt lat="52.050160" lon="05.809166"><ele>36.1</ele><time>2021-01-12T15:50:42Z</time><name>PT7429</name></trkpt>
<trkpt lat="52.050157" lon="05.809174"><ele>36.3</ele><time>2021-01-12T15:50:44Z</time><name>PT7430</name></trkpt>
<trkpt lat="52.050152" lon="05.809182"><ele>36.5</ele><time>2021-01-12T15:50:45Z</time><name>PT7431</name></trkpt>
<trkpt lat="52.050150" lon="05.809186"><ele>36.4</ele><time>2021-01-12T15:50:46Z</time><name>PT7432</name></trkpt>
<trkpt lat="52.050150" lon="05.809187"><ele>36.4</ele><time>2021-01-12T15:50:47Z</time><name>PT7433</name></trkpt>
<trkpt lat="52.050149" lon="05.809187"><ele>36.6</ele><time>2021-01-12T15:50:48Z</time><name>PT7434</name></trkpt>
<trkpt lat="52.050149" lon="05.809187"><ele>36.6</ele><time>2021-01-12T15:50:48Z</time><name>PT7435</name></trkpt>
<trkpt lat="52.050147" lon="05.809187"><ele>37.2</ele><time>2021-01-12T15:50:56Z</time><name>PT7436</name></trkpt>
<trkpt lat="52.050147" lon="05.809188"><ele>37.1</ele><time>2021-01-12T15:50:57Z</time><name>PT7437</name></trkpt>
<trkpt lat="52.050147" lon="05.809188"><ele>37.1</ele><time>2021-01-12T15:50:57Z</time><name>PT7438</name></trkpt>
<trkpt lat="52.050145" lon="05.809190"><ele>36.9</ele><time>2021-01-12T15:50:59Z</time><name>PT7439</name></trkpt>
<trkpt lat="52.050145" lon="05.809191"><ele>36.9</ele><time>2021-01-12T15:51:00Z</time><name>PT7440</name></trkpt>
<trkpt lat="52.050144" lon="05.809192"><ele>36.9</ele><time>2021-01-12T15:51:00Z</time><name>PT7441</name></trkpt>
<trkpt lat="52.050142" lon="05.809198"><ele>37.2</ele><time>2021-01-12T15:51:42Z</time><name>PT7442</name></trkpt>
<trkpt lat="52.050140" lon="05.809204"><ele>37.5</ele><time>2021-01-12T15:51:44Z</time><name>PT7443</name></trkpt>
<trkpt lat="52.050138" lon="05.809215"><ele>37.5</ele><time>2021-01-12T15:51:45Z</time><name>PT7444</name></trkpt>
<trkpt lat="52.050134" lon="05.809221"><ele>37.6</ele><time>2021-01-12T15:51:45Z</time><name>PT7445</name></trkpt>
<trkpt lat="52.050131" lon="05.809225"><ele>37.7</ele><time>2021-01-12T15:51:47Z</time><name>PT7446</name></trkpt>
<trkpt lat="52.050128" lon="05.809230"><ele>37.7</ele><time>2021-01-12T15:51:48Z</time><name>PT7447</name></trkpt>
<trkpt lat="52.050123" lon="05.809237"><ele>37.8</ele><time>2021-01-12T15:51:48Z</time><name>PT7448</name></trkpt>
<trkpt lat="52.050121" lon="05.809240"><ele>37.7</ele><time>2021-01-12T15:51:50Z</time><name>PT7449</name></trkpt>
<trkpt lat="52.050118" lon="05.809243"><ele>37.5</ele><time>2021-01-12T15:51:51Z</time><name>PT7450</name></trkpt>
<trkpt lat="52.050114" lon="05.809245"><ele>37.5</ele><time>2021-01-12T15:51:51Z</time><name>PT7451</name></trkpt>
<trkpt lat="52.050109" lon="05.809247"><ele>37.3</ele><time>2021-01-12T15:51:53Z</time><name>PT7452</name></trkpt>
<trkpt lat="52.050106" lon="05.809248"><ele>37.1</ele><time>2021-01-12T15:51:54Z</time><name>PT7453</name></trkpt>
<trkpt lat="52.050102" lon="05.809249"><ele>37.1</ele><time>2021-01-12T15:51:54Z</time><name>PT7454</name></trkpt>
<trkpt lat="52.050094" lon="05.809250"><ele>37.1</ele><time>2021-01-12T15:51:56Z</time><name>PT7455</name></trkpt>
<trkpt lat="52.050086" lon="05.809254"><ele>37.1</ele><time>2021-01-12T15:51:57Z</time><name>PT7456</name></trkpt>
<trkpt lat="52.050082" lon="05.809262"><ele>37.1</ele><time>2021-01-12T15:51:57Z</time><name>PT7457</name></trkpt>
<trkpt lat="52.050074" lon="05.809273"><ele>37.1</ele><time>2021-01-12T15:51:59Z</time><name>PT7458</name></trkpt>
<trkpt lat="52.050066" lon="05.809287"><ele>37.1</ele><time>2021-01-12T15:52:00Z</time><name>PT7459</name></trkpt>
<trkpt lat="52.050062" lon="05.809301"><ele>37</ele><time>2021-01-12T15:52:00Z</time><name>PT7460</name></trkpt>
<trkpt lat="52.050056" lon="05.809316"><ele>37.1</ele><time>2021-01-12T15:52:02Z</time><name>PT7461</name></trkpt>
<trkpt lat="52.050051" lon="05.809333"><ele>37.1</ele><time>2021-01-12T15:52:03Z</time><name>PT7462</name></trkpt>
<trkpt lat="52.050045" lon="05.809353"><ele>37.1</ele><time>2021-01-12T15:52:03Z</time><name>PT7463</name></trkpt>
<trkpt lat="52.050041" lon="05.809371"><ele>37.1</ele><time>2021-01-12T15:52:05Z</time><name>PT7464</name></trkpt>
<trkpt lat="52.050040" lon="05.809390"><ele>37.1</ele><time>2021-01-12T15:52:06Z</time><name>PT7465</name></trkpt>
<trkpt lat="52.050037" lon="05.809408"><ele>37.1</ele><time>2021-01-12T15:52:06Z</time><name>PT7466</name></trkpt>
<trkpt lat="52.050034" lon="05.809427"><ele>37.1</ele><time>2021-01-12T15:52:08Z</time><name>PT7467</name></trkpt>
<trkpt lat="52.050030" lon="05.809446"><ele>37</ele><time>2021-01-12T15:52:09Z</time><name>PT7468</name></trkpt>
<trkpt lat="52.050027" lon="05.809464"><ele>37.1</ele><time>2021-01-12T15:52:09Z</time><name>PT7469</name></trkpt>
<trkpt lat="52.050024" lon="05.809481"><ele>37.1</ele><time>2021-01-12T15:52:11Z</time><name>PT7470</name></trkpt>
<trkpt lat="52.050022" lon="05.809493"><ele>37</ele><time>2021-01-12T15:52:12Z</time><name>PT7471</name></trkpt>
<trkpt lat="52.050021" lon="05.809502"><ele>36.7</ele><time>2021-01-12T15:52:12Z</time><name>PT7472</name></trkpt>
<trkpt lat="52.050021" lon="05.809505"><ele>36.3</ele><time>2021-01-12T15:52:14Z</time><name>PT7473</name></trkpt>
<trkpt lat="52.050021" lon="05.809504"><ele>35.1</ele><time>2021-01-12T15:52:15Z</time><name>PT7474</name></trkpt>
<trkpt lat="52.050021" lon="05.809505"><ele>38.6</ele><time>2021-01-12T15:52:24Z</time><name>PT7475</name></trkpt>
<trkpt lat="52.050021" lon="05.809521"><ele>38.6</ele><time>2021-01-12T15:52:26Z</time><name>PT7476</name></trkpt>
<trkpt lat="52.050019" lon="05.809536"><ele>38.1</ele><time>2021-01-12T15:52:27Z</time><name>PT7477</name></trkpt>
<trkpt lat="52.050015" lon="05.809554"><ele>38.1</ele><time>2021-01-12T15:52:27Z</time><name>PT7478</name></trkpt>
<trkpt lat="52.050012" lon="05.809571"><ele>37.9</ele><time>2021-01-12T15:52:29Z</time><name>PT7479</name></trkpt>
<trkpt lat="52.050008" lon="05.809589"><ele>37.9</ele><time>2021-01-12T15:52:30Z</time><name>PT7480</name></trkpt>
<trkpt lat="52.050006" lon="05.809610"><ele>37.8</ele><time>2021-01-12T15:52:30Z</time><name>PT7481</name></trkpt>
<trkpt lat="52.050002" lon="05.809628"><ele>37.8</ele><time>2021-01-12T15:52:32Z</time><name>PT7482</name></trkpt>
<trkpt lat="52.049999" lon="05.809647"><ele>37.6</ele><time>2021-01-12T15:52:33Z</time><name>PT7483</name></trkpt>
<trkpt lat="52.049995" lon="05.809662"><ele>37.6</ele><time>2021-01-12T15:52:33Z</time><name>PT7484</name></trkpt>
<trkpt lat="52.049993" lon="05.809676"><ele>37.1</ele><time>2021-01-12T15:52:35Z</time><name>PT7485</name></trkpt>
<trkpt lat="52.049990" lon="05.809692"><ele>37.1</ele><time>2021-01-12T15:52:36Z</time><name>PT7486</name></trkpt>
<trkpt lat="52.049988" lon="05.809707"><ele>37</ele><time>2021-01-12T15:52:36Z</time><name>PT7487</name></trkpt>
<trkpt lat="52.049986" lon="05.809727"><ele>36.9</ele><time>2021-01-12T15:52:38Z</time><name>PT7488</name></trkpt>
<trkpt lat="52.049983" lon="05.809744"><ele>36.9</ele><time>2021-01-12T15:52:39Z</time><name>PT7489</name></trkpt>
<trkpt lat="52.049979" lon="05.809762"><ele>37.1</ele><time>2021-01-12T15:52:39Z</time><name>PT7490</name></trkpt>
<trkpt lat="52.049976" lon="05.809782"><ele>37.4</ele><time>2021-01-12T15:52:41Z</time><name>PT7491</name></trkpt>
<trkpt lat="52.049971" lon="05.809795"><ele>37.4</ele><time>2021-01-12T15:52:42Z</time><name>PT7492</name></trkpt>
<trkpt lat="52.049968" lon="05.809812"><ele>37.4</ele><time>2021-01-12T15:52:42Z</time><name>PT7493</name></trkpt>
<trkpt lat="52.049965" lon="05.809831"><ele>37.5</ele><time>2021-01-12T15:52:44Z</time><name>PT7494</name></trkpt>
<trkpt lat="52.049963" lon="05.809847"><ele>37.2</ele><time>2021-01-12T15:52:45Z</time><name>PT7495</name></trkpt>
<trkpt lat="52.049961" lon="05.809859"><ele>37.1</ele><time>2021-01-12T15:52:45Z</time><name>PT7496</name></trkpt>
<trkpt lat="52.049962" lon="05.809875"><ele>37.2</ele><time>2021-01-12T15:52:47Z</time><name>PT7497</name></trkpt>
<trkpt lat="52.049961" lon="05.809895"><ele>37.1</ele><time>2021-01-12T15:52:48Z</time><name>PT7498</name></trkpt>
<trkpt lat="52.049959" lon="05.809916"><ele>37.1</ele><time>2021-01-12T15:52:48Z</time><name>PT7499</name></trkpt>
<trkpt lat="52.049958" lon="05.809931"><ele>37</ele><time>2021-01-12T15:52:50Z</time><name>PT7500</name></trkpt>
<trkpt lat="52.049957" lon="05.809947"><ele>37.1</ele><time>2021-01-12T15:52:51Z</time><name>PT7501</name></trkpt>
<trkpt lat="52.049954" lon="05.809964"><ele>37.1</ele><time>2021-01-12T15:52:52Z</time><name>PT7502</name></trkpt>
<trkpt lat="52.049951" lon="05.809980"><ele>37.2</ele><time>2021-01-12T15:52:53Z</time><name>PT7503</name></trkpt>
<trkpt lat="52.049947" lon="05.809998"><ele>37.4</ele><time>2021-01-12T15:52:54Z</time><name>PT7504</name></trkpt>
<trkpt lat="52.049944" lon="05.810015"><ele>37.4</ele><time>2021-01-12T15:52:55Z</time><name>PT7505</name></trkpt>
<trkpt lat="52.049941" lon="05.810032"><ele>37.2</ele><time>2021-01-12T15:52:56Z</time><name>PT7506</name></trkpt>
<trkpt lat="52.049939" lon="05.810046"><ele>37.1</ele><time>2021-01-12T15:52:57Z</time><name>PT7507</name></trkpt>
<trkpt lat="52.049936" lon="05.810061"><ele>37</ele><time>2021-01-12T15:52:58Z</time><name>PT7508</name></trkpt>
<trkpt lat="52.049934" lon="05.810080"><ele>36.7</ele><time>2021-01-12T15:52:59Z</time><name>PT7509</name></trkpt>
<trkpt lat="52.049931" lon="05.810097"><ele>36.9</ele><time>2021-01-12T15:53:00Z</time><name>PT7510</name></trkpt>
<trkpt lat="52.049929" lon="05.810113"><ele>37</ele><time>2021-01-12T15:53:00Z</time><name>PT7511</name></trkpt>
<trkpt lat="52.049928" lon="05.810125"><ele>37</ele><time>2021-01-12T15:53:02Z</time><name>PT7512</name></trkpt>
<trkpt lat="52.049926" lon="05.810139"><ele>37.1</ele><time>2021-01-12T15:53:03Z</time><name>PT7513</name></trkpt>
<trkpt lat="52.049925" lon="05.810150"><ele>37.1</ele><time>2021-01-12T15:53:03Z</time><name>PT7514</name></trkpt>
<trkpt lat="52.049922" lon="05.810164"><ele>37</ele><time>2021-01-12T15:53:05Z</time><name>PT7515</name></trkpt>
<trkpt lat="52.049920" lon="05.810180"><ele>37</ele><time>2021-01-12T15:53:06Z</time><name>PT7516</name></trkpt>
<trkpt lat="52.049919" lon="05.810195"><ele>37.1</ele><time>2021-01-12T15:53:06Z</time><name>PT7517</name></trkpt>
<trkpt lat="52.049917" lon="05.810211"><ele>37.1</ele><time>2021-01-12T15:53:08Z</time><name>PT7518</name></trkpt>
<trkpt lat="52.049914" lon="05.810230"><ele>37.3</ele><time>2021-01-12T15:53:09Z</time><name>PT7519</name></trkpt>
<trkpt lat="52.049910" lon="05.810250"><ele>37.2</ele><time>2021-01-12T15:53:09Z</time><name>PT7520</name></trkpt>
<trkpt lat="52.049908" lon="05.810269"><ele>37.3</ele><time>2021-01-12T15:53:11Z</time><name>PT7521</name></trkpt>
<trkpt lat="52.049907" lon="05.810284"><ele>37.2</ele><time>2021-01-12T15:53:12Z</time><name>PT7522</name></trkpt>
<trkpt lat="52.049905" lon="05.810301"><ele>37.3</ele><time>2021-01-12T15:53:12Z</time><name>PT7523</name></trkpt>
<trkpt lat="52.049903" lon="05.810318"><ele>37.4</ele><time>2021-01-12T15:53:14Z</time><name>PT7524</name></trkpt>
<trkpt lat="52.049900" lon="05.810334"><ele>37.6</ele><time>2021-01-12T15:53:15Z</time><name>PT7525</name></trkpt>
<trkpt lat="52.049896" lon="05.810348"><ele>37.6</ele><time>2021-01-12T15:53:15Z</time><name>PT7526</name></trkpt>
<trkpt lat="52.049892" lon="05.810364"><ele>37.8</ele><time>2021-01-12T15:53:17Z</time><name>PT7527</name></trkpt>
<trkpt lat="52.049890" lon="05.810380"><ele>37.6</ele><time>2021-01-12T15:53:18Z</time><name>PT7528</name></trkpt>
<trkpt lat="52.049887" lon="05.810397"><ele>37.6</ele><time>2021-01-12T15:53:18Z</time><name>PT7529</name></trkpt>
<trkpt lat="52.049885" lon="05.810413"><ele>37.6</ele><time>2021-01-12T15:53:20Z</time><name>PT7530</name></trkpt>
<trkpt lat="52.049884" lon="05.810429"><ele>37.6</ele><time>2021-01-12T15:53:21Z</time><name>PT7531</name></trkpt>
<trkpt lat="52.049882" lon="05.810444"><ele>37.6</ele><time>2021-01-12T15:53:22Z</time><name>PT7532</name></trkpt>
<trkpt lat="52.049881" lon="05.810460"><ele>37.5</ele><time>2021-01-12T15:53:23Z</time><name>PT7533</name></trkpt>
<trkpt lat="52.049880" lon="05.810479"><ele>37.4</ele><time>2021-01-12T15:53:24Z</time><name>PT7534</name></trkpt>
<trkpt lat="52.049881" lon="05.810497"><ele>37.3</ele><time>2021-01-12T15:53:24Z</time><name>PT7535</name></trkpt>
<trkpt lat="52.049880" lon="05.810513"><ele>37.1</ele><time>2021-01-12T15:53:26Z</time><name>PT7536</name></trkpt>
<trkpt lat="52.049880" lon="05.810529"><ele>37.1</ele><time>2021-01-12T15:53:27Z</time><name>PT7537</name></trkpt>
<trkpt lat="52.049879" lon="05.810544"><ele>37.1</ele><time>2021-01-12T15:53:27Z</time><name>PT7538</name></trkpt>
<trkpt lat="52.049881" lon="05.810560"><ele>37.1</ele><time>2021-01-12T15:53:29Z</time><name>PT7539</name></trkpt>
<trkpt lat="52.049880" lon="05.810578"><ele>37.3</ele><time>2021-01-12T15:53:30Z</time><name>PT7540</name></trkpt>
<trkpt lat="52.049880" lon="05.810598"><ele>37.3</ele><time>2021-01-12T15:53:30Z</time><name>PT7541</name></trkpt>
<trkpt lat="52.049879" lon="05.810616"><ele>37.4</ele><time>2021-01-12T15:53:32Z</time><name>PT7542</name></trkpt>
<trkpt lat="52.049878" lon="05.810631"><ele>37.5</ele><time>2021-01-12T15:53:33Z</time><name>PT7543</name></trkpt>
<trkpt lat="52.049877" lon="05.810646"><ele>37.4</ele><time>2021-01-12T15:53:33Z</time><name>PT7544</name></trkpt>
<trkpt lat="52.049875" lon="05.810660"><ele>37.6</ele><time>2021-01-12T15:53:35Z</time><name>PT7545</name></trkpt>
<trkpt lat="52.049872" lon="05.810676"><ele>37.6</ele><time>2021-01-12T15:53:36Z</time><name>PT7546</name></trkpt>
<trkpt lat="52.049870" lon="05.810692"><ele>37.6</ele><time>2021-01-12T15:53:36Z</time><name>PT7547</name></trkpt>
<trkpt lat="52.049866" lon="05.810712"><ele>37.7</ele><time>2021-01-12T15:53:38Z</time><name>PT7548</name></trkpt>
<trkpt lat="52.049863" lon="05.810729"><ele>37.8</ele><time>2021-01-12T15:53:39Z</time><name>PT7549</name></trkpt>
<trkpt lat="52.049860" lon="05.810747"><ele>37.9</ele><time>2021-01-12T15:53:39Z</time><name>PT7550</name></trkpt>
<trkpt lat="52.049857" lon="05.810765"><ele>38.1</ele><time>2021-01-12T15:53:41Z</time><name>PT7551</name></trkpt>
<trkpt lat="52.049855" lon="05.810782"><ele>38.1</ele><time>2021-01-12T15:53:42Z</time><name>PT7552</name></trkpt>
<trkpt lat="52.049854" lon="05.810800"><ele>38.1</ele><time>2021-01-12T15:53:43Z</time><name>PT7553</name></trkpt>
<trkpt lat="52.049853" lon="05.810817"><ele>38.1</ele><time>2021-01-12T15:53:44Z</time><name>PT7554</name></trkpt>
<trkpt lat="52.049849" lon="05.810835"><ele>38.1</ele><time>2021-01-12T15:53:45Z</time><name>PT7555</name></trkpt>
<trkpt lat="52.049846" lon="05.810857"><ele>38</ele><time>2021-01-12T15:53:46Z</time><name>PT7556</name></trkpt>
<trkpt lat="52.049844" lon="05.810878"><ele>38.1</ele><time>2021-01-12T15:53:47Z</time><name>PT7557</name></trkpt>
<trkpt lat="52.049841" lon="05.810897"><ele>38</ele><time>2021-01-12T15:53:48Z</time><name>PT7558</name></trkpt>
<trkpt lat="52.049837" lon="05.810913"><ele>38.1</ele><time>2021-01-12T15:53:48Z</time><name>PT7559</name></trkpt>
<trkpt lat="52.049832" lon="05.810934"><ele>37.7</ele><time>2021-01-12T15:53:50Z</time><name>PT7560</name></trkpt>
<trkpt lat="52.049827" lon="05.810949"><ele>37.6</ele><time>2021-01-12T15:53:51Z</time><name>PT7561</name></trkpt>
<trkpt lat="52.049823" lon="05.810966"><ele>37.6</ele><time>2021-01-12T15:53:51Z</time><name>PT7562</name></trkpt>
<trkpt lat="52.049818" lon="05.810987"><ele>37.5</ele><time>2021-01-12T15:53:53Z</time><name>PT7563</name></trkpt>
<trkpt lat="52.049816" lon="05.811012"><ele>37.4</ele><time>2021-01-12T15:53:54Z</time><name>PT7564</name></trkpt>
<trkpt lat="52.049812" lon="05.811030"><ele>37.3</ele><time>2021-01-12T15:53:54Z</time><name>PT7565</name></trkpt>
<trkpt lat="52.049807" lon="05.811047"><ele>37.5</ele><time>2021-01-12T15:53:56Z</time><name>PT7566</name></trkpt>
<trkpt lat="52.049804" lon="05.811063"><ele>37.6</ele><time>2021-01-12T15:53:57Z</time><name>PT7567</name></trkpt>
<trkpt lat="52.049799" lon="05.811081"><ele>37.6</ele><time>2021-01-12T15:53:57Z</time><name>PT7568</name></trkpt>
<trkpt lat="52.049797" lon="05.811100"><ele>37.6</ele><time>2021-01-12T15:53:59Z</time><name>PT7569</name></trkpt>
<trkpt lat="52.049793" lon="05.811118"><ele>37.6</ele><time>2021-01-12T15:54:00Z</time><name>PT7570</name></trkpt>
<trkpt lat="52.049791" lon="05.811137"><ele>37.6</ele><time>2021-01-12T15:54:00Z</time><name>PT7571</name></trkpt>
<trkpt lat="52.049789" lon="05.811154"><ele>37.4</ele><time>2021-01-12T15:54:02Z</time><name>PT7572</name></trkpt>
<trkpt lat="52.049786" lon="05.811170"><ele>37.4</ele><time>2021-01-12T15:54:03Z</time><name>PT7573</name></trkpt>
<trkpt lat="52.049781" lon="05.811190"><ele>37.4</ele><time>2021-01-12T15:54:04Z</time><name>PT7574</name></trkpt>
<trkpt lat="52.049775" lon="05.811210"><ele>37.5</ele><time>2021-01-12T15:54:05Z</time><name>PT7575</name></trkpt>
<trkpt lat="52.049771" lon="05.811228"><ele>37.5</ele><time>2021-01-12T15:54:06Z</time><name>PT7576</name></trkpt>
<trkpt lat="52.049768" lon="05.811247"><ele>37.5</ele><time>2021-01-12T15:54:06Z</time><name>PT7577</name></trkpt>
<trkpt lat="52.049766" lon="05.811266"><ele>37.5</ele><time>2021-01-12T15:54:08Z</time><name>PT7578</name></trkpt>
<trkpt lat="52.049764" lon="05.811285"><ele>37.4</ele><time>2021-01-12T15:54:09Z</time><name>PT7579</name></trkpt>
<trkpt lat="52.049763" lon="05.811300"><ele>37.1</ele><time>2021-01-12T15:54:09Z</time><name>PT7580</name></trkpt>
<trkpt lat="52.049762" lon="05.811316"><ele>37.2</ele><time>2021-01-12T15:54:11Z</time><name>PT7581</name></trkpt>
<trkpt lat="52.049760" lon="05.811334"><ele>37.3</ele><time>2021-01-12T15:54:12Z</time><name>PT7582</name></trkpt>
<trkpt lat="52.049758" lon="05.811353"><ele>37.4</ele><time>2021-01-12T15:54:12Z</time><name>PT7583</name></trkpt>
<trkpt lat="52.049755" lon="05.811370"><ele>37.4</ele><time>2021-01-12T15:54:14Z</time><name>PT7584</name></trkpt>
<trkpt lat="52.049754" lon="05.811384"><ele>37.5</ele><time>2021-01-12T15:54:15Z</time><name>PT7585</name></trkpt>
<trkpt lat="52.049752" lon="05.811400"><ele>37.3</ele><time>2021-01-12T15:54:15Z</time><name>PT7586</name></trkpt>
<trkpt lat="52.049749" lon="05.811415"><ele>37.6</ele><time>2021-01-12T15:54:17Z</time><name>PT7587</name></trkpt>
<trkpt lat="52.049745" lon="05.811430"><ele>37.4</ele><time>2021-01-12T15:54:18Z</time><name>PT7588</name></trkpt>
<trkpt lat="52.049741" lon="05.811447"><ele>37.2</ele><time>2021-01-12T15:54:19Z</time><name>PT7589</name></trkpt>
<trkpt lat="52.049739" lon="05.811461"><ele>37.1</ele><time>2021-01-12T15:54:20Z</time><name>PT7590</name></trkpt>
<trkpt lat="52.049738" lon="05.811478"><ele>37.1</ele><time>2021-01-12T15:54:21Z</time><name>PT7591</name></trkpt>
<trkpt lat="52.049735" lon="05.811497"><ele>37</ele><time>2021-01-12T15:54:21Z</time><name>PT7592</name></trkpt>
<trkpt lat="52.049732" lon="05.811511"><ele>37.1</ele><time>2021-01-12T15:54:23Z</time><name>PT7593</name></trkpt>
<trkpt lat="52.049729" lon="05.811523"><ele>37.3</ele><time>2021-01-12T15:54:24Z</time><name>PT7594</name></trkpt>
<trkpt lat="52.049725" lon="05.811540"><ele>37.4</ele><time>2021-01-12T15:54:24Z</time><name>PT7595</name></trkpt>
<trkpt lat="52.049720" lon="05.811558"><ele>37.5</ele><time>2021-01-12T15:54:26Z</time><name>PT7596</name></trkpt>
<trkpt lat="52.049719" lon="05.811570"><ele>37.3</ele><time>2021-01-12T15:54:27Z</time><name>PT7597</name></trkpt>
<trkpt lat="52.049717" lon="05.811588"><ele>37.3</ele><time>2021-01-12T15:54:27Z</time><name>PT7598</name></trkpt>
<trkpt lat="52.049714" lon="05.811606"><ele>37.1</ele><time>2021-01-12T15:54:29Z</time><name>PT7599</name></trkpt>
<trkpt lat="52.049712" lon="05.811620"><ele>37.1</ele><time>2021-01-12T15:54:30Z</time><name>PT7600</name></trkpt>
<trkpt lat="52.049711" lon="05.811634"><ele>37</ele><time>2021-01-12T15:54:31Z</time><name>PT7601</name></trkpt>
<trkpt lat="52.049707" lon="05.811648"><ele>37.1</ele><time>2021-01-12T15:54:32Z</time><name>PT7602</name></trkpt>
<trkpt lat="52.049700" lon="05.811669"><ele>37.3</ele><time>2021-01-12T15:54:33Z</time><name>PT7603</name></trkpt>
<trkpt lat="52.049697" lon="05.811686"><ele>37.3</ele><time>2021-01-12T15:54:34Z</time><name>PT7604</name></trkpt>
<trkpt lat="52.049695" lon="05.811701"><ele>37.4</ele><time>2021-01-12T15:54:35Z</time><name>PT7605</name></trkpt>
<trkpt lat="52.049694" lon="05.811713"><ele>37.6</ele><time>2021-01-12T15:54:36Z</time><name>PT7606</name></trkpt>
<trkpt lat="52.049690" lon="05.811729"><ele>37.4</ele><time>2021-01-12T15:54:36Z</time><name>PT7607</name></trkpt>
<trkpt lat="52.049688" lon="05.811742"><ele>37.4</ele><time>2021-01-12T15:54:38Z</time><name>PT7608</name></trkpt>
<trkpt lat="52.049685" lon="05.811753"><ele>37.3</ele><time>2021-01-12T15:54:39Z</time><name>PT7609</name></trkpt>
<trkpt lat="52.049683" lon="05.811765"><ele>37.2</ele><time>2021-01-12T15:54:40Z</time><name>PT7610</name></trkpt>
<trkpt lat="52.049682" lon="05.811779"><ele>37</ele><time>2021-01-12T15:54:41Z</time><name>PT7611</name></trkpt>
<trkpt lat="52.049679" lon="05.811793"><ele>36.9</ele><time>2021-01-12T15:54:42Z</time><name>PT7612</name></trkpt>
<trkpt lat="52.049675" lon="05.811810"><ele>37.1</ele><time>2021-01-12T15:54:43Z</time><name>PT7613</name></trkpt>
<trkpt lat="52.049676" lon="05.811820"><ele>37</ele><time>2021-01-12T15:54:44Z</time><name>PT7614</name></trkpt>
<trkpt lat="52.049676" lon="05.811829"><ele>37.1</ele><time>2021-01-12T15:54:45Z</time><name>PT7615</name></trkpt>
<trkpt lat="52.049673" lon="05.811840"><ele>37.1</ele><time>2021-01-12T15:54:46Z</time><name>PT7616</name></trkpt>
<trkpt lat="52.049669" lon="05.811853"><ele>37.1</ele><time>2021-01-12T15:54:47Z</time><name>PT7617</name></trkpt>
<trkpt lat="52.049667" lon="05.811863"><ele>37.1</ele><time>2021-01-12T15:54:48Z</time><name>PT7618</name></trkpt>
<trkpt lat="52.049665" lon="05.811871"><ele>37.1</ele><time>2021-01-12T15:54:48Z</time><name>PT7619</name></trkpt>
<trkpt lat="52.049664" lon="05.811874"><ele>37.1</ele><time>2021-01-12T15:54:50Z</time><name>PT7620</name></trkpt>
<trkpt lat="52.049664" lon="05.811875"><ele>37.1</ele><time>2021-01-12T15:54:51Z</time><name>PT7621</name></trkpt>
<trkpt lat="52.049664" lon="05.811874"><ele>37.2</ele><time>2021-01-12T15:54:51Z</time><name>PT7622</name></trkpt>
<trkpt lat="52.049664" lon="05.811873"><ele>37.1</ele><time>2021-01-12T15:54:53Z</time><name>PT7623</name></trkpt>
<trkpt lat="52.049668" lon="05.811879"><ele>37.3</ele><time>2021-01-12T15:55:41Z</time><name>PT7624</name></trkpt>
<trkpt lat="52.049669" lon="05.811888"><ele>37.2</ele><time>2021-01-12T15:55:42Z</time><name>PT7625</name></trkpt>
<trkpt lat="52.049669" lon="05.811891"><ele>37.2</ele><time>2021-01-12T15:55:42Z</time><name>PT7626</name></trkpt>
<trkpt lat="52.049669" lon="05.811893"><ele>37.1</ele><time>2021-01-12T15:55:44Z</time><name>PT7627</name></trkpt>
<trkpt lat="52.049669" lon="05.811897"><ele>36.9</ele><time>2021-01-12T15:55:45Z</time><name>PT7628</name></trkpt>
<trkpt lat="52.049670" lon="05.811900"><ele>36.9</ele><time>2021-01-12T15:55:45Z</time><name>PT7629</name></trkpt>
<trkpt lat="52.049671" lon="05.811902"><ele>36.6</ele><time>2021-01-12T15:55:59Z</time><name>PT7630</name></trkpt>
<trkpt lat="52.049676" lon="05.811918"><ele>36.6</ele><time>2021-01-12T15:56:00Z</time><name>PT7631</name></trkpt>
<trkpt lat="52.049683" lon="05.811931"><ele>36.6</ele><time>2021-01-12T15:56:00Z</time><name>PT7632</name></trkpt>
<trkpt lat="52.049691" lon="05.811937"><ele>36.5</ele><time>2021-01-12T15:56:02Z</time><name>PT7633</name></trkpt>
<trkpt lat="52.049697" lon="05.811947"><ele>36.6</ele><time>2021-01-12T15:56:03Z</time><name>PT7634</name></trkpt>
<trkpt lat="52.049703" lon="05.811957"><ele>36.5</ele><time>2021-01-12T15:56:03Z</time><name>PT7635</name></trkpt>
<trkpt lat="52.049709" lon="05.811966"><ele>36.4</ele><time>2021-01-12T15:56:05Z</time><name>PT7636</name></trkpt>
<trkpt lat="52.049716" lon="05.811974"><ele>36.5</ele><time>2021-01-12T15:56:06Z</time><name>PT7637</name></trkpt>
<trkpt lat="52.049724" lon="05.811988"><ele>36.5</ele><time>2021-01-12T15:56:07Z</time><name>PT7638</name></trkpt>
<trkpt lat="52.049729" lon="05.812001"><ele>36.6</ele><time>2021-01-12T15:56:08Z</time><name>PT7639</name></trkpt>
<trkpt lat="52.049731" lon="05.812011"><ele>36.7</ele><time>2021-01-12T15:56:09Z</time><name>PT7640</name></trkpt>
<trkpt lat="52.049735" lon="05.812021"><ele>36.8</ele><time>2021-01-12T15:56:09Z</time><name>PT7641</name></trkpt>
<trkpt lat="52.049743" lon="05.812027"><ele>36.6</ele><time>2021-01-12T15:56:11Z</time><name>PT7642</name></trkpt>
<trkpt lat="52.049751" lon="05.812034"><ele>36.6</ele><time>2021-01-12T15:56:12Z</time><name>PT7643</name></trkpt>
<trkpt lat="52.049757" lon="05.812045"><ele>36.6</ele><time>2021-01-12T15:56:12Z</time><name>PT7644</name></trkpt>
<trkpt lat="52.049766" lon="05.812059"><ele>36.6</ele><time>2021-01-12T15:56:14Z</time><name>PT7645</name></trkpt>
<trkpt lat="52.049776" lon="05.812070"><ele>36.6</ele><time>2021-01-12T15:56:15Z</time><name>PT7646</name></trkpt>
<trkpt lat="52.049784" lon="05.812081"><ele>36.7</ele><time>2021-01-12T15:56:15Z</time><name>PT7647</name></trkpt>
<trkpt lat="52.049794" lon="05.812090"><ele>36.6</ele><time>2021-01-12T15:56:17Z</time><name>PT7648</name></trkpt>
<trkpt lat="52.049804" lon="05.812097"><ele>36.7</ele><time>2021-01-12T15:56:18Z</time><name>PT7649</name></trkpt>
<trkpt lat="52.049813" lon="05.812107"><ele>36.6</ele><time>2021-01-12T15:56:18Z</time><name>PT7650</name></trkpt>
<trkpt lat="52.049823" lon="05.812116"><ele>36.6</ele><time>2021-01-12T15:56:20Z</time><name>PT7651</name></trkpt>
<trkpt lat="52.049829" lon="05.812124"><ele>36.6</ele><time>2021-01-12T15:56:21Z</time><name>PT7652</name></trkpt>
<trkpt lat="52.049833" lon="05.812134"><ele>36.6</ele><time>2021-01-12T15:56:21Z</time><name>PT7653</name></trkpt>
<trkpt lat="52.049840" lon="05.812140"><ele>36.5</ele><time>2021-01-12T15:56:23Z</time><name>PT7654</name></trkpt>
<trkpt lat="52.049850" lon="05.812148"><ele>36.3</ele><time>2021-01-12T15:56:24Z</time><name>PT7655</name></trkpt>
<trkpt lat="52.049861" lon="05.812158"><ele>36.3</ele><time>2021-01-12T15:56:24Z</time><name>PT7656</name></trkpt>
<trkpt lat="52.049871" lon="05.812170"><ele>36.3</ele><time>2021-01-12T15:56:26Z</time><name>PT7657</name></trkpt>
<trkpt lat="52.049880" lon="05.812180"><ele>36.4</ele><time>2021-01-12T15:56:27Z</time><name>PT7658</name></trkpt>
<trkpt lat="52.049887" lon="05.812195"><ele>36.4</ele><time>2021-01-12T15:56:27Z</time><name>PT7659</name></trkpt>
<trkpt lat="52.049897" lon="05.812202"><ele>36.4</ele><time>2021-01-12T15:56:29Z</time><name>PT7660</name></trkpt>
<trkpt lat="52.049906" lon="05.812209"><ele>36.4</ele><time>2021-01-12T15:56:30Z</time><name>PT7661</name></trkpt>
<trkpt lat="52.049912" lon="05.812221"><ele>36.3</ele><time>2021-01-12T15:56:30Z</time><name>PT7662</name></trkpt>
<trkpt lat="52.049921" lon="05.812230"><ele>36.2</ele><time>2021-01-12T15:56:32Z</time><name>PT7663</name></trkpt>
<trkpt lat="52.049928" lon="05.812240"><ele>35.9</ele><time>2021-01-12T15:56:33Z</time><name>PT7664</name></trkpt>
<trkpt lat="52.049934" lon="05.812253"><ele>36</ele><time>2021-01-12T15:56:33Z</time><name>PT7665</name></trkpt>
<trkpt lat="52.049943" lon="05.812262"><ele>36</ele><time>2021-01-12T15:56:35Z</time><name>PT7666</name></trkpt>
<trkpt lat="52.049950" lon="05.812276"><ele>36</ele><time>2021-01-12T15:56:36Z</time><name>PT7667</name></trkpt>
<trkpt lat="52.049956" lon="05.812292"><ele>36.1</ele><time>2021-01-12T15:56:36Z</time><name>PT7668</name></trkpt>
<trkpt lat="52.049965" lon="05.812302"><ele>36.2</ele><time>2021-01-12T15:56:38Z</time><name>PT7669</name></trkpt>
<trkpt lat="52.049974" lon="05.812311"><ele>36.2</ele><time>2021-01-12T15:56:39Z</time><name>PT7670</name></trkpt>
<trkpt lat="52.049985" lon="05.812320"><ele>36.1</ele><time>2021-01-12T15:56:39Z</time><name>PT7671</name></trkpt>
<trkpt lat="52.049996" lon="05.812328"><ele>36.1</ele><time>2021-01-12T15:56:41Z</time><name>PT7672</name></trkpt>
<trkpt lat="52.050006" lon="05.812335"><ele>35.8</ele><time>2021-01-12T15:56:42Z</time><name>PT7673</name></trkpt>
<trkpt lat="52.050015" lon="05.812345"><ele>35.8</ele><time>2021-01-12T15:56:43Z</time><name>PT7674</name></trkpt>
<trkpt lat="52.050025" lon="05.812354"><ele>35.8</ele><time>2021-01-12T15:56:44Z</time><name>PT7675</name></trkpt>
<trkpt lat="52.050036" lon="05.812366"><ele>35.6</ele><time>2021-01-12T15:56:45Z</time><name>PT7676</name></trkpt>
<trkpt lat="52.050048" lon="05.812378"><ele>35.6</ele><time>2021-01-12T15:56:46Z</time><name>PT7677</name></trkpt>
<trkpt lat="52.050058" lon="05.812388"><ele>35.9</ele><time>2021-01-12T15:56:47Z</time><name>PT7678</name></trkpt>
<trkpt lat="52.050067" lon="05.812397"><ele>36</ele><time>2021-01-12T15:56:48Z</time><name>PT7679</name></trkpt>
<trkpt lat="52.050077" lon="05.812407"><ele>36</ele><time>2021-01-12T15:56:49Z</time><name>PT7680</name></trkpt>
<trkpt lat="52.050089" lon="05.812415"><ele>35.9</ele><time>2021-01-12T15:56:50Z</time><name>PT7681</name></trkpt>
<trkpt lat="52.050100" lon="05.812422"><ele>35.7</ele><time>2021-01-12T15:56:51Z</time><name>PT7682</name></trkpt>
<trkpt lat="52.050108" lon="05.812426"><ele>35.7</ele><time>2021-01-12T15:56:51Z</time><name>PT7683</name></trkpt>
<trkpt lat="52.050118" lon="05.812433"><ele>35.6</ele><time>2021-01-12T15:56:53Z</time><name>PT7684</name></trkpt>
<trkpt lat="52.050127" lon="05.812444"><ele>35.6</ele><time>2021-01-12T15:56:54Z</time><name>PT7685</name></trkpt>
<trkpt lat="52.050137" lon="05.812458"><ele>35.6</ele><time>2021-01-12T15:56:54Z</time><name>PT7686</name></trkpt>
<trkpt lat="52.050146" lon="05.812472"><ele>35.7</ele><time>2021-01-12T15:56:56Z</time><name>PT7687</name></trkpt>
<trkpt lat="52.050157" lon="05.812482"><ele>35.7</ele><time>2021-01-12T15:56:57Z</time><name>PT7688</name></trkpt>
<trkpt lat="52.050167" lon="05.812493"><ele>35.6</ele><time>2021-01-12T15:56:57Z</time><name>PT7689</name></trkpt>
<trkpt lat="52.050177" lon="05.812502"><ele>35.5</ele><time>2021-01-12T15:56:59Z</time><name>PT7690</name></trkpt>
<trkpt lat="52.050188" lon="05.812511"><ele>35.5</ele><time>2021-01-12T15:57:00Z</time><name>PT7691</name></trkpt>
<trkpt lat="52.050200" lon="05.812519"><ele>35.6</ele><time>2021-01-12T15:57:00Z</time><name>PT7692</name></trkpt>
<trkpt lat="52.050209" lon="05.812527"><ele>35.5</ele><time>2021-01-12T15:57:02Z</time><name>PT7693</name></trkpt>
<trkpt lat="52.050219" lon="05.812536"><ele>35.6</ele><time>2021-01-12T15:57:03Z</time><name>PT7694</name></trkpt>
<trkpt lat="52.050228" lon="05.812545"><ele>35.6</ele><time>2021-01-12T15:57:03Z</time><name>PT7695</name></trkpt>
<trkpt lat="52.050237" lon="05.812552"><ele>35.4</ele><time>2021-01-12T15:57:05Z</time><name>PT7696</name></trkpt>
<trkpt lat="52.050247" lon="05.812562"><ele>35.5</ele><time>2021-01-12T15:57:06Z</time><name>PT7697</name></trkpt>
<trkpt lat="52.050256" lon="05.812575"><ele>35.6</ele><time>2021-01-12T15:57:06Z</time><name>PT7698</name></trkpt>
<trkpt lat="52.050265" lon="05.812587"><ele>35.6</ele><time>2021-01-12T15:57:08Z</time><name>PT7699</name></trkpt>
<trkpt lat="52.050275" lon="05.812596"><ele>35.7</ele><time>2021-01-12T15:57:09Z</time><name>PT7700</name></trkpt>
<trkpt lat="52.050284" lon="05.812607"><ele>35.8</ele><time>2021-01-12T15:57:09Z</time><name>PT7701</name></trkpt>
<trkpt lat="52.050295" lon="05.812616"><ele>35.9</ele><time>2021-01-12T15:57:11Z</time><name>PT7702</name></trkpt>
<trkpt lat="52.050304" lon="05.812628"><ele>35.9</ele><time>2021-01-12T15:57:12Z</time><name>PT7703</name></trkpt>
<trkpt lat="52.050315" lon="05.812640"><ele>35.9</ele><time>2021-01-12T15:57:12Z</time><name>PT7704</name></trkpt>
<trkpt lat="52.050325" lon="05.812650"><ele>35.8</ele><time>2021-01-12T15:57:14Z</time><name>PT7705</name></trkpt>
<trkpt lat="52.050330" lon="05.812662"><ele>35.9</ele><time>2021-01-12T15:57:15Z</time><name>PT7706</name></trkpt>
<trkpt lat="52.050336" lon="05.812676"><ele>35.7</ele><time>2021-01-12T15:57:15Z</time><name>PT7707</name></trkpt>
<trkpt lat="52.050344" lon="05.812686"><ele>35.6</ele><time>2021-01-12T15:57:17Z</time><name>PT7708</name></trkpt>
<trkpt lat="52.050355" lon="05.812698"><ele>35.7</ele><time>2021-01-12T15:57:18Z</time><name>PT7709</name></trkpt>
<trkpt lat="52.050365" lon="05.812712"><ele>35.8</ele><time>2021-01-12T15:57:18Z</time><name>PT7710</name></trkpt>
<trkpt lat="52.050374" lon="05.812725"><ele>35.7</ele><time>2021-01-12T15:57:20Z</time><name>PT7711</name></trkpt>
<trkpt lat="52.050383" lon="05.812737"><ele>35.9</ele><time>2021-01-12T15:57:21Z</time><name>PT7712</name></trkpt>
<trkpt lat="52.050391" lon="05.812747"><ele>35.8</ele><time>2021-01-12T15:57:21Z</time><name>PT7713</name></trkpt>
<trkpt lat="52.050403" lon="05.812758"><ele>35.6</ele><time>2021-01-12T15:57:23Z</time><name>PT7714</name></trkpt>
<trkpt lat="52.050413" lon="05.812766"><ele>35.6</ele><time>2021-01-12T15:57:24Z</time><name>PT7715</name></trkpt>
<trkpt lat="52.050420" lon="05.812776"><ele>35.7</ele><time>2021-01-12T15:57:24Z</time><name>PT7716</name></trkpt>
<trkpt lat="52.050427" lon="05.812786"><ele>35.5</ele><time>2021-01-12T15:57:26Z</time><name>PT7717</name></trkpt>
<trkpt lat="52.050432" lon="05.812797"><ele>35.6</ele><time>2021-01-12T15:57:27Z</time><name>PT7718</name></trkpt>
<trkpt lat="52.050438" lon="05.812807"><ele>35.6</ele><time>2021-01-12T15:57:27Z</time><name>PT7719</name></trkpt>
<trkpt lat="52.050446" lon="05.812818"><ele>35.7</ele><time>2021-01-12T15:57:29Z</time><name>PT7720</name></trkpt>
<trkpt lat="52.050454" lon="05.812828"><ele>35.7</ele><time>2021-01-12T15:57:30Z</time><name>PT7721</name></trkpt>
<trkpt lat="52.050459" lon="05.812837"><ele>35.8</ele><time>2021-01-12T15:57:30Z</time><name>PT7722</name></trkpt>
<trkpt lat="52.050466" lon="05.812847"><ele>35.8</ele><time>2021-01-12T15:57:32Z</time><name>PT7723</name></trkpt>
<trkpt lat="52.050478" lon="05.812861"><ele>35.8</ele><time>2021-01-12T15:57:33Z</time><name>PT7724</name></trkpt>
<trkpt lat="52.050488" lon="05.812873"><ele>35.8</ele><time>2021-01-12T15:57:33Z</time><name>PT7725</name></trkpt>
<trkpt lat="52.050498" lon="05.812884"><ele>35.9</ele><time>2021-01-12T15:57:35Z</time><name>PT7726</name></trkpt>
<trkpt lat="52.050508" lon="05.812895"><ele>35.9</ele><time>2021-01-12T15:57:36Z</time><name>PT7727</name></trkpt>
<trkpt lat="52.050520" lon="05.812906"><ele>35.9</ele><time>2021-01-12T15:57:36Z</time><name>PT7728</name></trkpt>
<trkpt lat="52.050529" lon="05.812915"><ele>35.9</ele><time>2021-01-12T15:57:38Z</time><name>PT7729</name></trkpt>
<trkpt lat="52.050536" lon="05.812926"><ele>35.8</ele><time>2021-01-12T15:57:39Z</time><name>PT7730</name></trkpt>
<trkpt lat="52.050545" lon="05.812936"><ele>35.8</ele><time>2021-01-12T15:57:39Z</time><name>PT7731</name></trkpt>
<trkpt lat="52.050551" lon="05.812947"><ele>35.8</ele><time>2021-01-12T15:57:41Z</time><name>PT7732</name></trkpt>
<trkpt lat="52.050559" lon="05.812960"><ele>35.9</ele><time>2021-01-12T15:57:42Z</time><name>PT7733</name></trkpt>
<trkpt lat="52.050566" lon="05.812973"><ele>35.8</ele><time>2021-01-12T15:57:42Z</time><name>PT7734</name></trkpt>
<trkpt lat="52.050572" lon="05.812986"><ele>35.8</ele><time>2021-01-12T15:57:44Z</time><name>PT7735</name></trkpt>
<trkpt lat="52.050585" lon="05.813002"><ele>35.6</ele><time>2021-01-12T15:57:45Z</time><name>PT7736</name></trkpt>
<trkpt lat="52.050590" lon="05.813010"><ele>35.4</ele><time>2021-01-12T15:57:45Z</time><name>PT7737</name></trkpt>
<trkpt lat="52.050599" lon="05.813020"><ele>35.2</ele><time>2021-01-12T15:57:47Z</time><name>PT7738</name></trkpt>
<trkpt lat="52.050608" lon="05.813031"><ele>35.2</ele><time>2021-01-12T15:57:48Z</time><name>PT7739</name></trkpt>
<trkpt lat="52.050612" lon="05.813043"><ele>35.3</ele><time>2021-01-12T15:57:48Z</time><name>PT7740</name></trkpt>
<trkpt lat="52.050619" lon="05.813056"><ele>35.3</ele><time>2021-01-12T15:57:50Z</time><name>PT7741</name></trkpt>
<trkpt lat="52.050627" lon="05.813070"><ele>35.3</ele><time>2021-01-12T15:57:51Z</time><name>PT7742</name></trkpt>
<trkpt lat="52.050637" lon="05.813082"><ele>35.4</ele><time>2021-01-12T15:57:52Z</time><name>PT7743</name></trkpt>
<trkpt lat="52.050646" lon="05.813094"><ele>35.4</ele><time>2021-01-12T15:57:53Z</time><name>PT7744</name></trkpt>
<trkpt lat="52.050655" lon="05.813106"><ele>35.4</ele><time>2021-01-12T15:57:54Z</time><name>PT7745</name></trkpt>
<trkpt lat="52.050664" lon="05.813118"><ele>35.3</ele><time>2021-01-12T15:57:55Z</time><name>PT7746</name></trkpt>
<trkpt lat="52.050672" lon="05.813130"><ele>35.3</ele><time>2021-01-12T15:57:56Z</time><name>PT7747</name></trkpt>
<trkpt lat="52.050680" lon="05.813143"><ele>35.3</ele><time>2021-01-12T15:57:57Z</time><name>PT7748</name></trkpt>
<trkpt lat="52.050688" lon="05.813157"><ele>35.3</ele><time>2021-01-12T15:57:57Z</time><name>PT7749</name></trkpt>
<trkpt lat="52.050699" lon="05.813171"><ele>35.3</ele><time>2021-01-12T15:57:59Z</time><name>PT7750</name></trkpt>
<trkpt lat="52.050707" lon="05.813183"><ele>35.3</ele><time>2021-01-12T15:58:00Z</time><name>PT7751</name></trkpt>
<trkpt lat="52.050714" lon="05.813196"><ele>35.2</ele><time>2021-01-12T15:58:00Z</time><name>PT7752</name></trkpt>
<trkpt lat="52.050722" lon="05.813207"><ele>35.2</ele><time>2021-01-12T15:58:02Z</time><name>PT7753</name></trkpt>
<trkpt lat="52.050733" lon="05.813216"><ele>35.4</ele><time>2021-01-12T15:58:03Z</time><name>PT7754</name></trkpt>
<trkpt lat="52.050739" lon="05.813226"><ele>35.4</ele><time>2021-01-12T15:58:03Z</time><name>PT7755</name></trkpt>
<trkpt lat="52.050746" lon="05.813239"><ele>35.5</ele><time>2021-01-12T15:58:05Z</time><name>PT7756</name></trkpt>
<trkpt lat="52.050753" lon="05.813252"><ele>35.6</ele><time>2021-01-12T15:58:06Z</time><name>PT7757</name></trkpt>
<trkpt lat="52.050761" lon="05.813267"><ele>35.5</ele><time>2021-01-12T15:58:07Z</time><name>PT7758</name></trkpt>
<trkpt lat="52.050768" lon="05.813279"><ele>35.5</ele><time>2021-01-12T15:58:08Z</time><name>PT7759</name></trkpt>
<trkpt lat="52.050774" lon="05.813290"><ele>35.4</ele><time>2021-01-12T15:58:09Z</time><name>PT7760</name></trkpt>
<trkpt lat="52.050782" lon="05.813301"><ele>35.3</ele><time>2021-01-12T15:58:10Z</time><name>PT7761</name></trkpt>
<trkpt lat="52.050791" lon="05.813312"><ele>35.2</ele><time>2021-01-12T15:58:11Z</time><name>PT7762</name></trkpt>
<trkpt lat="52.050799" lon="05.813324"><ele>35.1</ele><time>2021-01-12T15:58:12Z</time><name>PT7763</name></trkpt>
<trkpt lat="52.050804" lon="05.813337"><ele>35.3</ele><time>2021-01-12T15:58:13Z</time><name>PT7764</name></trkpt>
<trkpt lat="52.050810" lon="05.813349"><ele>35.4</ele><time>2021-01-12T15:58:14Z</time><name>PT7765</name></trkpt>
<trkpt lat="52.050816" lon="05.813362"><ele>35.4</ele><time>2021-01-12T15:58:15Z</time><name>PT7766</name></trkpt>
<trkpt lat="52.050825" lon="05.813376"><ele>35.6</ele><time>2021-01-12T15:58:16Z</time><name>PT7767</name></trkpt>
<trkpt lat="52.050833" lon="05.813391"><ele>35.4</ele><time>2021-01-12T15:58:17Z</time><name>PT7768</name></trkpt>
<trkpt lat="52.050843" lon="05.813404"><ele>35.2</ele><time>2021-01-12T15:58:18Z</time><name>PT7769</name></trkpt>
<trkpt lat="52.050852" lon="05.813415"><ele>35.1</ele><time>2021-01-12T15:58:19Z</time><name>PT7770</name></trkpt>
<trkpt lat="52.050858" lon="05.813427"><ele>35.1</ele><time>2021-01-12T15:58:20Z</time><name>PT7771</name></trkpt>
<trkpt lat="52.050864" lon="05.813437"><ele>35</ele><time>2021-01-12T15:58:21Z</time><name>PT7772</name></trkpt>
<trkpt lat="52.050870" lon="05.813449"><ele>35.1</ele><time>2021-01-12T15:58:21Z</time><name>PT7773</name></trkpt>
<trkpt lat="52.050875" lon="05.813460"><ele>35.2</ele><time>2021-01-12T15:58:23Z</time><name>PT7774</name></trkpt>
<trkpt lat="52.050882" lon="05.813475"><ele>35.1</ele><time>2021-01-12T15:58:24Z</time><name>PT7775</name></trkpt>
<trkpt lat="52.050889" lon="05.813488"><ele>35.1</ele><time>2021-01-12T15:58:24Z</time><name>PT7776</name></trkpt>
<trkpt lat="52.050897" lon="05.813501"><ele>35.1</ele><time>2021-01-12T15:58:26Z</time><name>PT7777</name></trkpt>
<trkpt lat="52.050905" lon="05.813513"><ele>35.1</ele><time>2021-01-12T15:58:27Z</time><name>PT7778</name></trkpt>
<trkpt lat="52.050913" lon="05.813524"><ele>35.1</ele><time>2021-01-12T15:58:27Z</time><name>PT7779</name></trkpt>
<trkpt lat="52.050923" lon="05.813531"><ele>34.8</ele><time>2021-01-12T15:58:29Z</time><name>PT7780</name></trkpt>
<trkpt lat="52.050928" lon="05.813540"><ele>34.9</ele><time>2021-01-12T15:58:30Z</time><name>PT7781</name></trkpt>
<trkpt lat="52.050930" lon="05.813552"><ele>34.8</ele><time>2021-01-12T15:58:30Z</time><name>PT7782</name></trkpt>
<trkpt lat="52.050936" lon="05.813566"><ele>34.7</ele><time>2021-01-12T15:58:32Z</time><name>PT7783</name></trkpt>
<trkpt lat="52.050945" lon="05.813582"><ele>34.8</ele><time>2021-01-12T15:58:33Z</time><name>PT7784</name></trkpt>
<trkpt lat="52.050951" lon="05.813593"><ele>34.8</ele><time>2021-01-12T15:58:33Z</time><name>PT7785</name></trkpt>
<trkpt lat="52.050959" lon="05.813602"><ele>34.9</ele><time>2021-01-12T15:58:35Z</time><name>PT7786</name></trkpt>
<trkpt lat="52.050964" lon="05.813616"><ele>35</ele><time>2021-01-12T15:58:36Z</time><name>PT7787</name></trkpt>
<trkpt lat="52.050969" lon="05.813628"><ele>35.2</ele><time>2021-01-12T15:58:36Z</time><name>PT7788</name></trkpt>
<trkpt lat="52.050974" lon="05.813639"><ele>35.1</ele><time>2021-01-12T15:58:38Z</time><name>PT7789</name></trkpt>
<trkpt lat="52.050980" lon="05.813654"><ele>35.1</ele><time>2021-01-12T15:58:39Z</time><name>PT7790</name></trkpt>
<trkpt lat="52.050987" lon="05.813667"><ele>35</ele><time>2021-01-12T15:58:40Z</time><name>PT7791</name></trkpt>
<trkpt lat="52.050994" lon="05.813680"><ele>34.9</ele><time>2021-01-12T15:58:41Z</time><name>PT7792</name></trkpt>
<trkpt lat="52.051000" lon="05.813694"><ele>34.8</ele><time>2021-01-12T15:58:42Z</time><name>PT7793</name></trkpt>
<trkpt lat="52.051007" lon="05.813706"><ele>34.7</ele><time>2021-01-12T15:58:42Z</time><name>PT7794</name></trkpt>
<trkpt lat="52.051014" lon="05.813718"><ele>34.8</ele><time>2021-01-12T15:58:44Z</time><name>PT7795</name></trkpt>
<trkpt lat="52.051021" lon="05.813732"><ele>34.8</ele><time>2021-01-12T15:58:45Z</time><name>PT7796</name></trkpt>
<trkpt lat="52.051026" lon="05.813746"><ele>34.7</ele><time>2021-01-12T15:58:46Z</time><name>PT7797</name></trkpt>
<trkpt lat="52.051034" lon="05.813760"><ele>34.6</ele><time>2021-01-12T15:58:47Z</time><name>PT7798</name></trkpt>
<trkpt lat="52.051043" lon="05.813774"><ele>34.6</ele><time>2021-01-12T15:58:48Z</time><name>PT7799</name></trkpt>
<trkpt lat="52.051052" lon="05.813787"><ele>34.5</ele><time>2021-01-12T15:58:49Z</time><name>PT7800</name></trkpt>
<trkpt lat="52.051058" lon="05.813803"><ele>34.5</ele><time>2021-01-12T15:58:50Z</time><name>PT7801</name></trkpt>
<trkpt lat="52.051064" lon="05.813816"><ele>34.5</ele><time>2021-01-12T15:58:51Z</time><name>PT7802</name></trkpt>
<trkpt lat="52.051070" lon="05.813830"><ele>34.5</ele><time>2021-01-12T15:58:52Z</time><name>PT7803</name></trkpt>
<trkpt lat="52.051079" lon="05.813841"><ele>34.4</ele><time>2021-01-12T15:58:53Z</time><name>PT7804</name></trkpt>
<trkpt lat="52.051084" lon="05.813854"><ele>34.4</ele><time>2021-01-12T15:58:54Z</time><name>PT7805</name></trkpt>
<trkpt lat="52.051091" lon="05.813867"><ele>34.5</ele><time>2021-01-12T15:58:54Z</time><name>PT7806</name></trkpt>
<trkpt lat="52.051097" lon="05.813883"><ele>34.5</ele><time>2021-01-12T15:58:56Z</time><name>PT7807</name></trkpt>
<trkpt lat="52.051103" lon="05.813898"><ele>34.6</ele><time>2021-01-12T15:58:57Z</time><name>PT7808</name></trkpt>
<trkpt lat="52.051109" lon="05.813910"><ele>34.6</ele><time>2021-01-12T15:58:57Z</time><name>PT7809</name></trkpt>
<trkpt lat="52.051117" lon="05.813921"><ele>34.6</ele><time>2021-01-12T15:58:59Z</time><name>PT7810</name></trkpt>
<trkpt lat="52.051124" lon="05.813933"><ele>34.7</ele><time>2021-01-12T15:59:00Z</time><name>PT7811</name></trkpt>
<trkpt lat="52.051129" lon="05.813944"><ele>34.7</ele><time>2021-01-12T15:59:00Z</time><name>PT7812</name></trkpt>
<trkpt lat="52.051137" lon="05.813956"><ele>34.6</ele><time>2021-01-12T15:59:02Z</time><name>PT7813</name></trkpt>
<trkpt lat="52.051144" lon="05.813970"><ele>34.6</ele><time>2021-01-12T15:59:03Z</time><name>PT7814</name></trkpt>
<trkpt lat="52.051149" lon="05.813984"><ele>34.6</ele><time>2021-01-12T15:59:03Z</time><name>PT7815</name></trkpt>
<trkpt lat="52.051157" lon="05.813999"><ele>34.5</ele><time>2021-01-12T15:59:05Z</time><name>PT7816</name></trkpt>
<trkpt lat="52.051164" lon="05.814011"><ele>34.4</ele><time>2021-01-12T15:59:06Z</time><name>PT7817</name></trkpt>
<trkpt lat="52.051171" lon="05.814022"><ele>34.4</ele><time>2021-01-12T15:59:06Z</time><name>PT7818</name></trkpt>
<trkpt lat="52.051177" lon="05.814035"><ele>34.5</ele><time>2021-01-12T15:59:08Z</time><name>PT7819</name></trkpt>
<trkpt lat="52.051183" lon="05.814050"><ele>34.5</ele><time>2021-01-12T15:59:09Z</time><name>PT7820</name></trkpt>
<trkpt lat="52.051189" lon="05.814063"><ele>34.5</ele><time>2021-01-12T15:59:09Z</time><name>PT7821</name></trkpt>
<trkpt lat="52.051196" lon="05.814074"><ele>34.7</ele><time>2021-01-12T15:59:11Z</time><name>PT7822</name></trkpt>
<trkpt lat="52.051204" lon="05.814084"><ele>34.6</ele><time>2021-01-12T15:59:12Z</time><name>PT7823</name></trkpt>
<trkpt lat="52.051210" lon="05.814094"><ele>34.5</ele><time>2021-01-12T15:59:13Z</time><name>PT7824</name></trkpt>
<trkpt lat="52.051216" lon="05.814105"><ele>34.5</ele><time>2021-01-12T15:59:14Z</time><name>PT7825</name></trkpt>
<trkpt lat="52.051220" lon="05.814118"><ele>34.5</ele><time>2021-01-12T15:59:15Z</time><name>PT7826</name></trkpt>
<trkpt lat="52.051223" lon="05.814132"><ele>34.5</ele><time>2021-01-12T15:59:16Z</time><name>PT7827</name></trkpt>
<trkpt lat="52.051225" lon="05.814147"><ele>34.5</ele><time>2021-01-12T15:59:17Z</time><name>PT7828</name></trkpt>
<trkpt lat="52.051230" lon="05.814158"><ele>34.5</ele><time>2021-01-12T15:59:18Z</time><name>PT7829</name></trkpt>
<trkpt lat="52.051236" lon="05.814169"><ele>34.5</ele><time>2021-01-12T15:59:19Z</time><name>PT7830</name></trkpt>
<trkpt lat="52.051242" lon="05.814182"><ele>34.4</ele><time>2021-01-12T15:59:20Z</time><name>PT7831</name></trkpt>
<trkpt lat="52.051246" lon="05.814196"><ele>34.5</ele><time>2021-01-12T15:59:21Z</time><name>PT7832</name></trkpt>
<trkpt lat="52.051253" lon="05.814210"><ele>34.6</ele><time>2021-01-12T15:59:22Z</time><name>PT7833</name></trkpt>
<trkpt lat="52.051258" lon="05.814226"><ele>34.6</ele><time>2021-01-12T15:59:23Z</time><name>PT7834</name></trkpt>
<trkpt lat="52.051262" lon="05.814242"><ele>34.5</ele><time>2021-01-12T15:59:24Z</time><name>PT7835</name></trkpt>
<trkpt lat="52.051265" lon="05.814255"><ele>34.5</ele><time>2021-01-12T15:59:25Z</time><name>PT7836</name></trkpt>
<trkpt lat="52.051268" lon="05.814267"><ele>34.5</ele><time>2021-01-12T15:59:26Z</time><name>PT7837</name></trkpt>
<trkpt lat="52.051273" lon="05.814279"><ele>34.2</ele><time>2021-01-12T15:59:27Z</time><name>PT7838</name></trkpt>
<trkpt lat="52.051277" lon="05.814294"><ele>34.2</ele><time>2021-01-12T15:59:27Z</time><name>PT7839</name></trkpt>
<trkpt lat="52.051283" lon="05.814310"><ele>34.1</ele><time>2021-01-12T15:59:29Z</time><name>PT7840</name></trkpt>
<trkpt lat="52.051285" lon="05.814323"><ele>34</ele><time>2021-01-12T15:59:30Z</time><name>PT7841</name></trkpt>
<trkpt lat="52.051291" lon="05.814339"><ele>34</ele><time>2021-01-12T15:59:30Z</time><name>PT7842</name></trkpt>
<trkpt lat="52.051297" lon="05.814356"><ele>34</ele><time>2021-01-12T15:59:32Z</time><name>PT7843</name></trkpt>
<trkpt lat="52.051302" lon="05.814375"><ele>34.1</ele><time>2021-01-12T15:59:33Z</time><name>PT7844</name></trkpt>
<trkpt lat="52.051307" lon="05.814390"><ele>34</ele><time>2021-01-12T15:59:33Z</time><name>PT7845</name></trkpt>
<trkpt lat="52.051311" lon="05.814405"><ele>34</ele><time>2021-01-12T15:59:35Z</time><name>PT7846</name></trkpt>
<trkpt lat="52.051313" lon="05.814419"><ele>34</ele><time>2021-01-12T15:59:36Z</time><name>PT7847</name></trkpt>
<trkpt lat="52.051316" lon="05.814428"><ele>33.9</ele><time>2021-01-12T15:59:36Z</time><name>PT7848</name></trkpt>
<trkpt lat="52.051316" lon="05.814434"><ele>33.9</ele><time>2021-01-12T15:59:38Z</time><name>PT7849</name></trkpt>
<trkpt lat="52.051316" lon="05.814439"><ele>34.1</ele><time>2021-01-12T15:59:39Z</time><name>PT7850</name></trkpt>
<trkpt lat="52.051319" lon="05.814448"><ele>34.1</ele><time>2021-01-12T15:59:39Z</time><name>PT7851</name></trkpt>
<trkpt lat="52.051323" lon="05.814457"><ele>34.3</ele><time>2021-01-12T15:59:41Z</time><name>PT7852</name></trkpt>
<trkpt lat="52.051326" lon="05.814468"><ele>34.3</ele><time>2021-01-12T15:59:42Z</time><name>PT7853</name></trkpt>
<trkpt lat="52.051329" lon="05.814480"><ele>34.3</ele><time>2021-01-12T15:59:42Z</time><name>PT7854</name></trkpt>
<trkpt lat="52.051334" lon="05.814491"><ele>34.2</ele><time>2021-01-12T15:59:44Z</time><name>PT7855</name></trkpt>
<trkpt lat="52.051340" lon="05.814502"><ele>34</ele><time>2021-01-12T15:59:45Z</time><name>PT7856</name></trkpt>
<trkpt lat="52.051344" lon="05.814513"><ele>34</ele><time>2021-01-12T15:59:45Z</time><name>PT7857</name></trkpt>
<trkpt lat="52.051347" lon="05.814527"><ele>34</ele><time>2021-01-12T15:59:47Z</time><name>PT7858</name></trkpt>
<trkpt lat="52.051352" lon="05.814540"><ele>34</ele><time>2021-01-12T15:59:48Z</time><name>PT7859</name></trkpt>
<trkpt lat="52.051357" lon="05.814550"><ele>34</ele><time>2021-01-12T15:59:48Z</time><name>PT7860</name></trkpt>
<trkpt lat="52.051362" lon="05.814563"><ele>33.9</ele><time>2021-01-12T15:59:50Z</time><name>PT7861</name></trkpt>
<trkpt lat="52.051366" lon="05.814575"><ele>33.9</ele><time>2021-01-12T15:59:51Z</time><name>PT7862</name></trkpt>
<trkpt lat="52.051369" lon="05.814588"><ele>33.8</ele><time>2021-01-12T15:59:51Z</time><name>PT7863</name></trkpt>
<trkpt lat="52.051373" lon="05.814604"><ele>33.8</ele><time>2021-01-12T15:59:53Z</time><name>PT7864</name></trkpt>
<trkpt lat="52.051379" lon="05.814617"><ele>33.6</ele><time>2021-01-12T15:59:54Z</time><name>PT7865</name></trkpt>
<trkpt lat="52.051384" lon="05.814630"><ele>33.5</ele><time>2021-01-12T15:59:54Z</time><name>PT7866</name></trkpt>
<trkpt lat="52.051389" lon="05.814643"><ele>33.5</ele><time>2021-01-12T15:59:56Z</time><name>PT7867</name></trkpt>
<trkpt lat="52.051393" lon="05.814655"><ele>33.5</ele><time>2021-01-12T15:59:57Z</time><name>PT7868</name></trkpt>
<trkpt lat="52.051395" lon="05.814670"><ele>33.5</ele><time>2021-01-12T15:59:57Z</time><name>PT7869</name></trkpt>
<trkpt lat="52.051399" lon="05.814686"><ele>33.5</ele><time>2021-01-12T15:59:59Z</time><name>PT7870</name></trkpt>
<trkpt lat="52.051403" lon="05.814701"><ele>33.5</ele><time>2021-01-12T16:00:00Z</time><name>PT7871</name></trkpt>
<trkpt lat="52.051407" lon="05.814715"><ele>33.3</ele><time>2021-01-12T16:00:00Z</time><name>PT7872</name></trkpt>
<trkpt lat="52.051412" lon="05.814730"><ele>33.5</ele><time>2021-01-12T16:00:02Z</time><name>PT7873</name></trkpt>
<trkpt lat="52.051416" lon="05.814742"><ele>33.6</ele><time>2021-01-12T16:00:03Z</time><name>PT7874</name></trkpt>
<trkpt lat="52.051421" lon="05.814755"><ele>33.5</ele><time>2021-01-12T16:00:03Z</time><name>PT7875</name></trkpt>
<trkpt lat="52.051427" lon="05.814771"><ele>33.6</ele><time>2021-01-12T16:00:05Z</time><name>PT7876</name></trkpt>
<trkpt lat="52.051433" lon="05.814786"><ele>33.5</ele><time>2021-01-12T16:00:06Z</time><name>PT7877</name></trkpt>
<trkpt lat="52.051437" lon="05.814801"><ele>33.5</ele><time>2021-01-12T16:00:06Z</time><name>PT7878</name></trkpt>
<trkpt lat="52.051441" lon="05.814817"><ele>33.5</ele><time>2021-01-12T16:00:08Z</time><name>PT7879</name></trkpt>
<trkpt lat="52.051447" lon="05.814831"><ele>33.6</ele><time>2021-01-12T16:00:09Z</time><name>PT7880</name></trkpt>
<trkpt lat="52.051452" lon="05.814844"><ele>33.6</ele><time>2021-01-12T16:00:09Z</time><name>PT7881</name></trkpt>
<trkpt lat="52.051454" lon="05.814858"><ele>33.6</ele><time>2021-01-12T16:00:11Z</time><name>PT7882</name></trkpt>
<trkpt lat="52.051460" lon="05.814874"><ele>33.6</ele><time>2021-01-12T16:00:12Z</time><name>PT7883</name></trkpt>
<trkpt lat="52.051466" lon="05.814890"><ele>33.5</ele><time>2021-01-12T16:00:12Z</time><name>PT7884</name></trkpt>
<trkpt lat="52.051469" lon="05.814910"><ele>33.5</ele><time>2021-01-12T16:00:14Z</time><name>PT7885</name></trkpt>
<trkpt lat="52.051474" lon="05.814925"><ele>33.7</ele><time>2021-01-12T16:00:15Z</time><name>PT7886</name></trkpt>
<trkpt lat="52.051481" lon="05.814939"><ele>33.5</ele><time>2021-01-12T16:00:15Z</time><name>PT7887</name></trkpt>
<trkpt lat="52.051488" lon="05.814952"><ele>33.4</ele><time>2021-01-12T16:00:17Z</time><name>PT7888</name></trkpt>
<trkpt lat="52.051491" lon="05.814966"><ele>33.5</ele><time>2021-01-12T16:00:18Z</time><name>PT7889</name></trkpt>
<trkpt lat="52.051497" lon="05.814982"><ele>33.5</ele><time>2021-01-12T16:00:18Z</time><name>PT7890</name></trkpt>
<trkpt lat="52.051504" lon="05.814999"><ele>33.3</ele><time>2021-01-12T16:00:20Z</time><name>PT7891</name></trkpt>
<trkpt lat="52.051510" lon="05.815017"><ele>33.4</ele><time>2021-01-12T16:00:21Z</time><name>PT7892</name></trkpt>
<trkpt lat="52.051517" lon="05.815030"><ele>33.4</ele><time>2021-01-12T16:00:21Z</time><name>PT7893</name></trkpt>
<trkpt lat="52.051522" lon="05.815043"><ele>33.4</ele><time>2021-01-12T16:00:23Z</time><name>PT7894</name></trkpt>
<trkpt lat="52.051527" lon="05.815056"><ele>33.4</ele><time>2021-01-12T16:00:24Z</time><name>PT7895</name></trkpt>
<trkpt lat="52.051533" lon="05.815071"><ele>33.3</ele><time>2021-01-12T16:00:24Z</time><name>PT7896</name></trkpt>
<trkpt lat="52.051538" lon="05.815083"><ele>33.3</ele><time>2021-01-12T16:00:26Z</time><name>PT7897</name></trkpt>
<trkpt lat="52.051541" lon="05.815097"><ele>33.2</ele><time>2021-01-12T16:00:27Z</time><name>PT7898</name></trkpt>
<trkpt lat="52.051545" lon="05.815112"><ele>33.3</ele><time>2021-01-12T16:00:28Z</time><name>PT7899</name></trkpt>
<trkpt lat="52.051550" lon="05.815131"><ele>33.2</ele><time>2021-01-12T16:00:29Z</time><name>PT7900</name></trkpt>
<trkpt lat="52.051555" lon="05.815148"><ele>33.1</ele><time>2021-01-12T16:00:30Z</time><name>PT7901</name></trkpt>
<trkpt lat="52.051558" lon="05.815160"><ele>33.2</ele><time>2021-01-12T16:00:31Z</time><name>PT7902</name></trkpt>
<trkpt lat="52.051563" lon="05.815172"><ele>33.3</ele><time>2021-01-12T16:00:32Z</time><name>PT7903</name></trkpt>
<trkpt lat="52.051569" lon="05.815186"><ele>33.1</ele><time>2021-01-12T16:00:33Z</time><name>PT7904</name></trkpt>
<trkpt lat="52.051574" lon="05.815199"><ele>33.1</ele><time>2021-01-12T16:00:34Z</time><name>PT7905</name></trkpt>
<trkpt lat="52.051577" lon="05.815211"><ele>33.2</ele><time>2021-01-12T16:00:35Z</time><name>PT7906</name></trkpt>
<trkpt lat="52.051581" lon="05.815227"><ele>33</ele><time>2021-01-12T16:00:36Z</time><name>PT7907</name></trkpt>
<trkpt lat="52.051587" lon="05.815244"><ele>33</ele><time>2021-01-12T16:00:37Z</time><name>PT7908</name></trkpt>
<trkpt lat="52.051593" lon="05.815260"><ele>33</ele><time>2021-01-12T16:00:38Z</time><name>PT7909</name></trkpt>
<trkpt lat="52.051597" lon="05.815275"><ele>33</ele><time>2021-01-12T16:00:39Z</time><name>PT7910</name></trkpt>
<trkpt lat="52.051602" lon="05.815291"><ele>33.1</ele><time>2021-01-12T16:00:40Z</time><name>PT7911</name></trkpt>
<trkpt lat="52.051608" lon="05.815305"><ele>33.3</ele><time>2021-01-12T16:00:41Z</time><name>PT7912</name></trkpt>
<trkpt lat="52.051614" lon="05.815318"><ele>33.4</ele><time>2021-01-12T16:00:42Z</time><name>PT7913</name></trkpt>
<trkpt lat="52.051617" lon="05.815331"><ele>33.4</ele><time>2021-01-12T16:00:42Z</time><name>PT7914</name></trkpt>
<trkpt lat="52.051620" lon="05.815345"><ele>33.4</ele><time>2021-01-12T16:00:44Z</time><name>PT7915</name></trkpt>
<trkpt lat="52.051622" lon="05.815362"><ele>33.2</ele><time>2021-01-12T16:00:45Z</time><name>PT7916</name></trkpt>
<trkpt lat="52.051627" lon="05.815380"><ele>33.1</ele><time>2021-01-12T16:00:45Z</time><name>PT7917</name></trkpt>
<trkpt lat="52.051634" lon="05.815395"><ele>33.3</ele><time>2021-01-12T16:00:47Z</time><name>PT7918</name></trkpt>
<trkpt lat="52.051641" lon="05.815410"><ele>33.4</ele><time>2021-01-12T16:00:48Z</time><name>PT7919</name></trkpt>
<trkpt lat="52.051647" lon="05.815424"><ele>33.5</ele><time>2021-01-12T16:00:48Z</time><name>PT7920</name></trkpt>
<trkpt lat="52.051654" lon="05.815439"><ele>33.8</ele><time>2021-01-12T16:00:50Z</time><name>PT7921</name></trkpt>
<trkpt lat="52.051661" lon="05.815455"><ele>33.7</ele><time>2021-01-12T16:00:51Z</time><name>PT7922</name></trkpt>
<trkpt lat="52.051668" lon="05.815468"><ele>33.6</ele><time>2021-01-12T16:00:51Z</time><name>PT7923</name></trkpt>
<trkpt lat="52.051674" lon="05.815480"><ele>33.3</ele><time>2021-01-12T16:00:53Z</time><name>PT7924</name></trkpt>
<trkpt lat="52.051679" lon="05.815493"><ele>33</ele><time>2021-01-12T16:00:54Z</time><name>PT7925</name></trkpt>
<trkpt lat="52.051683" lon="05.815509"><ele>33</ele><time>2021-01-12T16:00:54Z</time><name>PT7926</name></trkpt>
<trkpt lat="52.051689" lon="05.815525"><ele>33</ele><time>2021-01-12T16:00:56Z</time><name>PT7927</name></trkpt>
<trkpt lat="52.051695" lon="05.815544"><ele>33.1</ele><time>2021-01-12T16:00:57Z</time><name>PT7928</name></trkpt>
<trkpt lat="52.051701" lon="05.815560"><ele>33.2</ele><time>2021-01-12T16:00:57Z</time><name>PT7929</name></trkpt>
<trkpt lat="52.051708" lon="05.815575"><ele>33.2</ele><time>2021-01-12T16:00:59Z</time><name>PT7930</name></trkpt>
<trkpt lat="52.051714" lon="05.815589"><ele>33</ele><time>2021-01-12T16:01:00Z</time><name>PT7931</name></trkpt>
<trkpt lat="52.051720" lon="05.815601"><ele>33</ele><time>2021-01-12T16:01:00Z</time><name>PT7932</name></trkpt>
<trkpt lat="52.051726" lon="05.815615"><ele>33.1</ele><time>2021-01-12T16:01:02Z</time><name>PT7933</name></trkpt>
<trkpt lat="52.051731" lon="05.815631"><ele>33.1</ele><time>2021-01-12T16:01:03Z</time><name>PT7934</name></trkpt>
<trkpt lat="52.051733" lon="05.815646"><ele>33.2</ele><time>2021-01-12T16:01:03Z</time><name>PT7935</name></trkpt>
<trkpt lat="52.051736" lon="05.815658"><ele>33.1</ele><time>2021-01-12T16:01:05Z</time><name>PT7936</name></trkpt>
<trkpt lat="52.051739" lon="05.815670"><ele>33</ele><time>2021-01-12T16:01:06Z</time><name>PT7937</name></trkpt>
<trkpt lat="52.051745" lon="05.815686"><ele>33</ele><time>2021-01-12T16:01:06Z</time><name>PT7938</name></trkpt>
<trkpt lat="52.051749" lon="05.815704"><ele>32.9</ele><time>2021-01-12T16:01:08Z</time><name>PT7939</name></trkpt>
<trkpt lat="52.051755" lon="05.815720"><ele>32.8</ele><time>2021-01-12T16:01:09Z</time><name>PT7940</name></trkpt>
<trkpt lat="52.051760" lon="05.815737"><ele>32.8</ele><time>2021-01-12T16:01:09Z</time><name>PT7941</name></trkpt>
<trkpt lat="52.051765" lon="05.815755"><ele>33</ele><time>2021-01-12T16:01:11Z</time><name>PT7942</name></trkpt>
<trkpt lat="52.051769" lon="05.815772"><ele>32.9</ele><time>2021-01-12T16:01:12Z</time><name>PT7943</name></trkpt>
<trkpt lat="52.051775" lon="05.815789"><ele>32.7</ele><time>2021-01-12T16:01:12Z</time><name>PT7944</name></trkpt>
<trkpt lat="52.051782" lon="05.815806"><ele>32.9</ele><time>2021-01-12T16:01:14Z</time><name>PT7945</name></trkpt>
<trkpt lat="52.051787" lon="05.815822"><ele>32.8</ele><time>2021-01-12T16:01:15Z</time><name>PT7946</name></trkpt>
<trkpt lat="52.051791" lon="05.815839"><ele>32.7</ele><time>2021-01-12T16:01:15Z</time><name>PT7947</name></trkpt>
<trkpt lat="52.051795" lon="05.815856"><ele>32.7</ele><time>2021-01-12T16:01:17Z</time><name>PT7948</name></trkpt>
<trkpt lat="52.051797" lon="05.815873"><ele>32.7</ele><time>2021-01-12T16:01:18Z</time><name>PT7949</name></trkpt>
<trkpt lat="52.051802" lon="05.815890"><ele>32.6</ele><time>2021-01-12T16:01:18Z</time><name>PT7950</name></trkpt>
<trkpt lat="52.051805" lon="05.815906"><ele>32.6</ele><time>2021-01-12T16:01:20Z</time><name>PT7951</name></trkpt>
<trkpt lat="52.051810" lon="05.815920"><ele>32.6</ele><time>2021-01-12T16:01:21Z</time><name>PT7952</name></trkpt>
<trkpt lat="52.051816" lon="05.815937"><ele>32.5</ele><time>2021-01-12T16:01:21Z</time><name>PT7953</name></trkpt>
<trkpt lat="52.051823" lon="05.815954"><ele>32.4</ele><time>2021-01-12T16:01:23Z</time><name>PT7954</name></trkpt>
<trkpt lat="52.051829" lon="05.815969"><ele>32.2</ele><time>2021-01-12T16:01:24Z</time><name>PT7955</name></trkpt>
<trkpt lat="52.051831" lon="05.815986"><ele>32.4</ele><time>2021-01-12T16:01:24Z</time><name>PT7956</name></trkpt>
<trkpt lat="52.051835" lon="05.816001"><ele>32.3</ele><time>2021-01-12T16:01:26Z</time><name>PT7957</name></trkpt>
<trkpt lat="52.051840" lon="05.816017"><ele>32.2</ele><time>2021-01-12T16:01:27Z</time><name>PT7958</name></trkpt>
<trkpt lat="52.051844" lon="05.816035"><ele>32.1</ele><time>2021-01-12T16:01:28Z</time><name>PT7959</name></trkpt>
<trkpt lat="52.051848" lon="05.816053"><ele>32.1</ele><time>2021-01-12T16:01:29Z</time><name>PT7960</name></trkpt>
<trkpt lat="52.051854" lon="05.816069"><ele>32</ele><time>2021-01-12T16:01:30Z</time><name>PT7961</name></trkpt>
<trkpt lat="52.051858" lon="05.816084"><ele>32.1</ele><time>2021-01-12T16:01:31Z</time><name>PT7962</name></trkpt>
<trkpt lat="52.051863" lon="05.816100"><ele>32.1</ele><time>2021-01-12T16:01:32Z</time><name>PT7963</name></trkpt>
<trkpt lat="52.051868" lon="05.816115"><ele>32.1</ele><time>2021-01-12T16:01:33Z</time><name>PT7964</name></trkpt>
<trkpt lat="52.051873" lon="05.816131"><ele>32.1</ele><time>2021-01-12T16:01:34Z</time><name>PT7965</name></trkpt>
<trkpt lat="52.051878" lon="05.816145"><ele>32.2</ele><time>2021-01-12T16:01:35Z</time><name>PT7966</name></trkpt>
<trkpt lat="52.051883" lon="05.816159"><ele>32.2</ele><time>2021-01-12T16:01:36Z</time><name>PT7967</name></trkpt>
<trkpt lat="52.051886" lon="05.816175"><ele>32.2</ele><time>2021-01-12T16:01:37Z</time><name>PT7968</name></trkpt>
<trkpt lat="52.051890" lon="05.816193"><ele>32.5</ele><time>2021-01-12T16:01:38Z</time><name>PT7969</name></trkpt>
<trkpt lat="52.051896" lon="05.816211"><ele>32.5</ele><time>2021-01-12T16:01:39Z</time><name>PT7970</name></trkpt>
<trkpt lat="52.051900" lon="05.816232"><ele>32.5</ele><time>2021-01-12T16:01:40Z</time><name>PT7971</name></trkpt>
<trkpt lat="52.051906" lon="05.816248"><ele>32.4</ele><time>2021-01-12T16:01:41Z</time><name>PT7972</name></trkpt>
<trkpt lat="52.051911" lon="05.816264"><ele>32.5</ele><time>2021-01-12T16:01:42Z</time><name>PT7973</name></trkpt>
<trkpt lat="52.051917" lon="05.816278"><ele>32.4</ele><time>2021-01-12T16:01:42Z</time><name>PT7974</name></trkpt>
<trkpt lat="52.051923" lon="05.816290"><ele>32.3</ele><time>2021-01-12T16:01:44Z</time><name>PT7975</name></trkpt>
<trkpt lat="52.051928" lon="05.816304"><ele>32.4</ele><time>2021-01-12T16:01:45Z</time><name>PT7976</name></trkpt>
<trkpt lat="52.051934" lon="05.816319"><ele>32.2</ele><time>2021-01-12T16:01:45Z</time><name>PT7977</name></trkpt>
<trkpt lat="52.051939" lon="05.816333"><ele>32.1</ele><time>2021-01-12T16:01:47Z</time><name>PT7978</name></trkpt>
<trkpt lat="52.051941" lon="05.816342"><ele>32</ele><time>2021-01-12T16:01:48Z</time><name>PT7979</name></trkpt>
<trkpt lat="52.051941" lon="05.816351"><ele>32</ele><time>2021-01-12T16:01:48Z</time><name>PT7980</name></trkpt>
<trkpt lat="52.051943" lon="05.816356"><ele>31.6</ele><time>2021-01-12T16:01:50Z</time><name>PT7981</name></trkpt>
<trkpt lat="52.051944" lon="05.816363"><ele>31.7</ele><time>2021-01-12T16:01:51Z</time><name>PT7982</name></trkpt>
<trkpt lat="52.051947" lon="05.816372"><ele>31.7</ele><time>2021-01-12T16:01:51Z</time><name>PT7983</name></trkpt>
<trkpt lat="52.051953" lon="05.816382"><ele>31.8</ele><time>2021-01-12T16:01:53Z</time><name>PT7984</name></trkpt>
<trkpt lat="52.051958" lon="05.816396"><ele>31.9</ele><time>2021-01-12T16:01:54Z</time><name>PT7985</name></trkpt>
<trkpt lat="52.051962" lon="05.816410"><ele>32</ele><time>2021-01-12T16:01:54Z</time><name>PT7986</name></trkpt>
<trkpt lat="52.051967" lon="05.816426"><ele>32</ele><time>2021-01-12T16:01:56Z</time><name>PT7987</name></trkpt>
<trkpt lat="52.051972" lon="05.816444"><ele>32</ele><time>2021-01-12T16:01:57Z</time><name>PT7988</name></trkpt>
<trkpt lat="52.051979" lon="05.816461"><ele>31.8</ele><time>2021-01-12T16:01:57Z</time><name>PT7989</name></trkpt>
<trkpt lat="52.051986" lon="05.816478"><ele>31.9</ele><time>2021-01-12T16:01:59Z</time><name>PT7990</name></trkpt>
<trkpt lat="52.051991" lon="05.816496"><ele>31.8</ele><time>2021-01-12T16:02:00Z</time><name>PT7991</name></trkpt>
<trkpt lat="52.051994" lon="05.816510"><ele>31.6</ele><time>2021-01-12T16:02:00Z</time><name>PT7992</name></trkpt>
<trkpt lat="52.051997" lon="05.816521"><ele>31.8</ele><time>2021-01-12T16:02:02Z</time><name>PT7993</name></trkpt>
<trkpt lat="52.051999" lon="05.816535"><ele>31.8</ele><time>2021-01-12T16:02:03Z</time><name>PT7994</name></trkpt>
<trkpt lat="52.052003" lon="05.816552"><ele>31.9</ele><time>2021-01-12T16:02:03Z</time><name>PT7995</name></trkpt>
<trkpt lat="52.052005" lon="05.816571"><ele>32</ele><time>2021-01-12T16:02:05Z</time><name>PT7996</name></trkpt>
<trkpt lat="52.052007" lon="05.816582"><ele>32</ele><time>2021-01-12T16:02:06Z</time><name>PT7997</name></trkpt>
<trkpt lat="52.052010" lon="05.816596"><ele>31.9</ele><time>2021-01-12T16:02:06Z</time><name>PT7998</name></trkpt>
<trkpt lat="52.052013" lon="05.816611"><ele>31.9</ele><time>2021-01-12T16:02:08Z</time><name>PT7999</name></trkpt>
<trkpt lat="52.052017" lon="05.816625"><ele>31.9</ele><time>2021-01-12T16:02:09Z</time><name>PT8000</name></trkpt>
<trkpt lat="52.052023" lon="05.816636"><ele>31.7</ele><time>2021-01-12T16:02:09Z</time><name>PT8001</name></trkpt>
<trkpt lat="52.052025" lon="05.816651"><ele>31.6</ele><time>2021-01-12T16:02:11Z</time><name>PT8002</name></trkpt>
<trkpt lat="52.052030" lon="05.816665"><ele>31.6</ele><time>2021-01-12T16:02:12Z</time><name>PT8003</name></trkpt>
<trkpt lat="52.052037" lon="05.816681"><ele>31.5</ele><time>2021-01-12T16:02:12Z</time><name>PT8004</name></trkpt>
<trkpt lat="52.052044" lon="05.816698"><ele>31.4</ele><time>2021-01-12T16:02:14Z</time><name>PT8005</name></trkpt>
<trkpt lat="52.052050" lon="05.816713"><ele>31.3</ele><time>2021-01-12T16:02:15Z</time><name>PT8006</name></trkpt>
<trkpt lat="52.052057" lon="05.816725"><ele>31.4</ele><time>2021-01-12T16:02:15Z</time><name>PT8007</name></trkpt>
<trkpt lat="52.052065" lon="05.816737"><ele>31.2</ele><time>2021-01-12T16:02:17Z</time><name>PT8008</name></trkpt>
<trkpt lat="52.052073" lon="05.816749"><ele>31.2</ele><time>2021-01-12T16:02:18Z</time><name>PT8009</name></trkpt>
<trkpt lat="52.052080" lon="05.816762"><ele>31.2</ele><time>2021-01-12T16:02:18Z</time><name>PT8010</name></trkpt>
<trkpt lat="52.052086" lon="05.816775"><ele>31.1</ele><time>2021-01-12T16:02:20Z</time><name>PT8011</name></trkpt>
<trkpt lat="52.052094" lon="05.816788"><ele>31</ele><time>2021-01-12T16:02:21Z</time><name>PT8012</name></trkpt>
<trkpt lat="52.052102" lon="05.816806"><ele>31</ele><time>2021-01-12T16:02:21Z</time><name>PT8013</name></trkpt>
<trkpt lat="52.052110" lon="05.816824"><ele>31</ele><time>2021-01-12T16:02:23Z</time><name>PT8014</name></trkpt>
<trkpt lat="52.052116" lon="05.816838"><ele>30.9</ele><time>2021-01-12T16:02:24Z</time><name>PT8015</name></trkpt>
<trkpt lat="52.052123" lon="05.816850"><ele>30.9</ele><time>2021-01-12T16:02:25Z</time><name>PT8016</name></trkpt>
<trkpt lat="52.052133" lon="05.816864"><ele>31</ele><time>2021-01-12T16:02:26Z</time><name>PT8017</name></trkpt>
<trkpt lat="52.052143" lon="05.816878"><ele>31</ele><time>2021-01-12T16:02:27Z</time><name>PT8018</name></trkpt>
<trkpt lat="52.052151" lon="05.816889"><ele>30.9</ele><time>2021-01-12T16:02:28Z</time><name>PT8019</name></trkpt>
<trkpt lat="52.052156" lon="05.816898"><ele>30.8</ele><time>2021-01-12T16:02:29Z</time><name>PT8020</name></trkpt>
<trkpt lat="52.052160" lon="05.816909"><ele>30.6</ele><time>2021-01-12T16:02:30Z</time><name>PT8021</name></trkpt>
<trkpt lat="52.052167" lon="05.816922"><ele>30.7</ele><time>2021-01-12T16:02:30Z</time><name>PT8022</name></trkpt>
<trkpt lat="52.052173" lon="05.816933"><ele>30.6</ele><time>2021-01-12T16:02:32Z</time><name>PT8023</name></trkpt>
<trkpt lat="52.052181" lon="05.816945"><ele>30.9</ele><time>2021-01-12T16:02:33Z</time><name>PT8024</name></trkpt>
<trkpt lat="52.052189" lon="05.816955"><ele>30.8</ele><time>2021-01-12T16:02:33Z</time><name>PT8025</name></trkpt>
<trkpt lat="52.052193" lon="05.816964"><ele>30.8</ele><time>2021-01-12T16:02:35Z</time><name>PT8026</name></trkpt>
<trkpt lat="52.052197" lon="05.816976"><ele>30.8</ele><time>2021-01-12T16:02:36Z</time><name>PT8027</name></trkpt>
<trkpt lat="52.052206" lon="05.816991"><ele>30.7</ele><time>2021-01-12T16:02:36Z</time><name>PT8028</name></trkpt>
<trkpt lat="52.052213" lon="05.817004"><ele>30.7</ele><time>2021-01-12T16:02:38Z</time><name>PT8029</name></trkpt>
<trkpt lat="52.052220" lon="05.817017"><ele>30.9</ele><time>2021-01-12T16:02:39Z</time><name>PT8030</name></trkpt>
<trkpt lat="52.052227" lon="05.817027"><ele>31</ele><time>2021-01-12T16:02:39Z</time><name>PT8031</name></trkpt>
<trkpt lat="52.052233" lon="05.817039"><ele>30.9</ele><time>2021-01-12T16:02:41Z</time><name>PT8032</name></trkpt>
<trkpt lat="52.052235" lon="05.817053"><ele>30.9</ele><time>2021-01-12T16:02:42Z</time><name>PT8033</name></trkpt>
<trkpt lat="52.052238" lon="05.817065"><ele>30.9</ele><time>2021-01-12T16:02:42Z</time><name>PT8034</name></trkpt>
<trkpt lat="52.052244" lon="05.817075"><ele>30.6</ele><time>2021-01-12T16:02:44Z</time><name>PT8035</name></trkpt>
<trkpt lat="52.052248" lon="05.817085"><ele>30.7</ele><time>2021-01-12T16:02:45Z</time><name>PT8036</name></trkpt>
<trkpt lat="52.052253" lon="05.817093"><ele>30.8</ele><time>2021-01-12T16:02:45Z</time><name>PT8037</name></trkpt>
<trkpt lat="52.052257" lon="05.817102"><ele>30.8</ele><time>2021-01-12T16:02:47Z</time><name>PT8038</name></trkpt>
<trkpt lat="52.052259" lon="05.817110"><ele>30.9</ele><time>2021-01-12T16:02:48Z</time><name>PT8039</name></trkpt>
<trkpt lat="52.052261" lon="05.817113"><ele>31</ele><time>2021-01-12T16:02:48Z</time><name>PT8040</name></trkpt>
<trkpt lat="52.052261" lon="05.817114"><ele>30.9</ele><time>2021-01-12T16:02:50Z</time><name>PT8041</name></trkpt>
<trkpt lat="52.052259" lon="05.817118"><ele>31</ele><time>2021-01-12T16:02:51Z</time><name>PT8042</name></trkpt>
<trkpt lat="52.052263" lon="05.817123"><ele>31</ele><time>2021-01-12T16:02:53Z</time><name>PT8043</name></trkpt>
<trkpt lat="52.052272" lon="05.817133"><ele>31</ele><time>2021-01-12T16:02:54Z</time><name>PT8044</name></trkpt>
<trkpt lat="52.052281" lon="05.817143"><ele>30.9</ele><time>2021-01-12T16:02:54Z</time><name>PT8045</name></trkpt>
<trkpt lat="52.052288" lon="05.817158"><ele>30.9</ele><time>2021-01-12T16:02:56Z</time><name>PT8046</name></trkpt>
<trkpt lat="52.052294" lon="05.817172"><ele>30.8</ele><time>2021-01-12T16:02:57Z</time><name>PT8047</name></trkpt>
<trkpt lat="52.052302" lon="05.817186"><ele>30.9</ele><time>2021-01-12T16:02:57Z</time><name>PT8048</name></trkpt>
<trkpt lat="52.052308" lon="05.817202"><ele>31</ele><time>2021-01-12T16:02:59Z</time><name>PT8049</name></trkpt>
<trkpt lat="52.052315" lon="05.817216"><ele>31</ele><time>2021-01-12T16:03:00Z</time><name>PT8050</name></trkpt>
<trkpt lat="52.052320" lon="05.817229"><ele>31</ele><time>2021-01-12T16:03:00Z</time><name>PT8051</name></trkpt>
<trkpt lat="52.052327" lon="05.817246"><ele>31</ele><time>2021-01-12T16:03:02Z</time><name>PT8052</name></trkpt>
<trkpt lat="52.052332" lon="05.817258"><ele>30.8</ele><time>2021-01-12T16:03:03Z</time><name>PT8053</name></trkpt>
<trkpt lat="52.052336" lon="05.817271"><ele>30.8</ele><time>2021-01-12T16:03:03Z</time><name>PT8054</name></trkpt>
<trkpt lat="52.052343" lon="05.817288"><ele>30.8</ele><time>2021-01-12T16:03:05Z</time><name>PT8055</name></trkpt>
<trkpt lat="52.052350" lon="05.817300"><ele>30.6</ele><time>2021-01-12T16:03:06Z</time><name>PT8056</name></trkpt>
<trkpt lat="52.052357" lon="05.817311"><ele>30.7</ele><time>2021-01-12T16:03:06Z</time><name>PT8057</name></trkpt>
<trkpt lat="52.052364" lon="05.817323"><ele>30.7</ele><time>2021-01-12T16:03:08Z</time><name>PT8058</name></trkpt>
<trkpt lat="52.052373" lon="05.817334"><ele>30.6</ele><time>2021-01-12T16:03:09Z</time><name>PT8059</name></trkpt>
<trkpt lat="52.052378" lon="05.817348"><ele>30.5</ele><time>2021-01-12T16:03:09Z</time><name>PT8060</name></trkpt>
<trkpt lat="52.052383" lon="05.817360"><ele>30.6</ele><time>2021-01-12T16:03:11Z</time><name>PT8061</name></trkpt>
<trkpt lat="52.052394" lon="05.817378"><ele>30.4</ele><time>2021-01-12T16:03:12Z</time><name>PT8062</name></trkpt>
<trkpt lat="52.052397" lon="05.817392"><ele>30.3</ele><time>2021-01-12T16:03:12Z</time><name>PT8063</name></trkpt>
<trkpt lat="52.052404" lon="05.817405"><ele>30.5</ele><time>2021-01-12T16:03:14Z</time><name>PT8064</name></trkpt>
<trkpt lat="52.052411" lon="05.817421"><ele>30.5</ele><time>2021-01-12T16:03:15Z</time><name>PT8065</name></trkpt>
<trkpt lat="52.052415" lon="05.817434"><ele>30.3</ele><time>2021-01-12T16:03:15Z</time><name>PT8066</name></trkpt>
<trkpt lat="52.052421" lon="05.817446"><ele>30.4</ele><time>2021-01-12T16:03:17Z</time><name>PT8067</name></trkpt>
<trkpt lat="52.052429" lon="05.817462"><ele>30.2</ele><time>2021-01-12T16:03:18Z</time><name>PT8068</name></trkpt>
<trkpt lat="52.052434" lon="05.817478"><ele>30.2</ele><time>2021-01-12T16:03:18Z</time><name>PT8069</name></trkpt>
<trkpt lat="52.052440" lon="05.817494"><ele>30.2</ele><time>2021-01-12T16:03:20Z</time><name>PT8070</name></trkpt>
<trkpt lat="52.052445" lon="05.817508"><ele>30.5</ele><time>2021-01-12T16:03:21Z</time><name>PT8071</name></trkpt>
<trkpt lat="52.052452" lon="05.817523"><ele>30.5</ele><time>2021-01-12T16:03:21Z</time><name>PT8072</name></trkpt>
<trkpt lat="52.052456" lon="05.817535"><ele>30.5</ele><time>2021-01-12T16:03:23Z</time><name>PT8073</name></trkpt>
<trkpt lat="52.052460" lon="05.817546"><ele>30.7</ele><time>2021-01-12T16:03:24Z</time><name>PT8074</name></trkpt>
<trkpt lat="52.052464" lon="05.817562"><ele>30.7</ele><time>2021-01-12T16:03:24Z</time><name>PT8075</name></trkpt>
<trkpt lat="52.052467" lon="05.817578"><ele>30.5</ele><time>2021-01-12T16:03:26Z</time><name>PT8076</name></trkpt>
<trkpt lat="52.052472" lon="05.817592"><ele>30.3</ele><time>2021-01-12T16:03:27Z</time><name>PT8077</name></trkpt>
<trkpt lat="52.052478" lon="05.817609"><ele>30.2</ele><time>2021-01-12T16:03:27Z</time><name>PT8078</name></trkpt>
<trkpt lat="52.052485" lon="05.817623"><ele>30</ele><time>2021-01-12T16:03:29Z</time><name>PT8079</name></trkpt>
<trkpt lat="52.052490" lon="05.817638"><ele>30.2</ele><time>2021-01-12T16:03:30Z</time><name>PT8080</name></trkpt>
<trkpt lat="52.052495" lon="05.817652"><ele>30.4</ele><time>2021-01-12T16:03:30Z</time><name>PT8081</name></trkpt>
<trkpt lat="52.052498" lon="05.817665"><ele>30.6</ele><time>2021-01-12T16:03:32Z</time><name>PT8082</name></trkpt>
<trkpt lat="52.052502" lon="05.817681"><ele>30.5</ele><time>2021-01-12T16:03:33Z</time><name>PT8083</name></trkpt>
<trkpt lat="52.052509" lon="05.817699"><ele>30.5</ele><time>2021-01-12T16:03:33Z</time><name>PT8084</name></trkpt>
<trkpt lat="52.052512" lon="05.817715"><ele>30.5</ele><time>2021-01-12T16:03:35Z</time><name>PT8085</name></trkpt>
<trkpt lat="52.052518" lon="05.817729"><ele>30.2</ele><time>2021-01-12T16:03:36Z</time><name>PT8086</name></trkpt>
<trkpt lat="52.052523" lon="05.817744"><ele>30.3</ele><time>2021-01-12T16:03:36Z</time><name>PT8087</name></trkpt>
<trkpt lat="52.052528" lon="05.817758"><ele>30.4</ele><time>2021-01-12T16:03:38Z</time><name>PT8088</name></trkpt>
<trkpt lat="52.052535" lon="05.817773"><ele>30.3</ele><time>2021-01-12T16:03:39Z</time><name>PT8089</name></trkpt>
<trkpt lat="52.052543" lon="05.817790"><ele>30.3</ele><time>2021-01-12T16:03:39Z</time><name>PT8090</name></trkpt>
<trkpt lat="52.052548" lon="05.817802"><ele>30.5</ele><time>2021-01-12T16:03:41Z</time><name>PT8091</name></trkpt>
<trkpt lat="52.052553" lon="05.817815"><ele>30.4</ele><time>2021-01-12T16:03:42Z</time><name>PT8092</name></trkpt>
<trkpt lat="52.052558" lon="05.817831"><ele>30.2</ele><time>2021-01-12T16:03:42Z</time><name>PT8093</name></trkpt>
<trkpt lat="52.052563" lon="05.817850"><ele>30.2</ele><time>2021-01-12T16:03:44Z</time><name>PT8094</name></trkpt>
<trkpt lat="52.052569" lon="05.817866"><ele>30</ele><time>2021-01-12T16:03:45Z</time><name>PT8095</name></trkpt>
<trkpt lat="52.052576" lon="05.817880"><ele>29.9</ele><time>2021-01-12T16:03:45Z</time><name>PT8096</name></trkpt>
<trkpt lat="52.052584" lon="05.817892"><ele>30</ele><time>2021-01-12T16:03:47Z</time><name>PT8097</name></trkpt>
<trkpt lat="52.052592" lon="05.817905"><ele>30</ele><time>2021-01-12T16:03:48Z</time><name>PT8098</name></trkpt>
<trkpt lat="52.052595" lon="05.817919"><ele>29.9</ele><time>2021-01-12T16:03:48Z</time><name>PT8099</name></trkpt>
<trkpt lat="52.052601" lon="05.817932"><ele>30</ele><time>2021-01-12T16:03:50Z</time><name>PT8100</name></trkpt>
<trkpt lat="52.052606" lon="05.817948"><ele>30.1</ele><time>2021-01-12T16:03:51Z</time><name>PT8101</name></trkpt>
<trkpt lat="52.052611" lon="05.817962"><ele>30.1</ele><time>2021-01-12T16:03:51Z</time><name>PT8102</name></trkpt>
<trkpt lat="52.052617" lon="05.817976"><ele>30.1</ele><time>2021-01-12T16:03:53Z</time><name>PT8103</name></trkpt>
<trkpt lat="52.052625" lon="05.817989"><ele>30</ele><time>2021-01-12T16:03:54Z</time><name>PT8104</name></trkpt>
<trkpt lat="52.052633" lon="05.818003"><ele>30</ele><time>2021-01-12T16:03:54Z</time><name>PT8105</name></trkpt>
<trkpt lat="52.052639" lon="05.818016"><ele>30</ele><time>2021-01-12T16:03:56Z</time><name>PT8106</name></trkpt>
<trkpt lat="52.052643" lon="05.818029"><ele>29.9</ele><time>2021-01-12T16:03:57Z</time><name>PT8107</name></trkpt>
<trkpt lat="52.052647" lon="05.818047"><ele>30</ele><time>2021-01-12T16:03:57Z</time><name>PT8108</name></trkpt>
<trkpt lat="52.052652" lon="05.818066"><ele>30</ele><time>2021-01-12T16:03:59Z</time><name>PT8109</name></trkpt>
<trkpt lat="52.052657" lon="05.818083"><ele>30</ele><time>2021-01-12T16:04:00Z</time><name>PT8110</name></trkpt>
<trkpt lat="52.052662" lon="05.818099"><ele>30</ele><time>2021-01-12T16:04:00Z</time><name>PT8111</name></trkpt>
<trkpt lat="52.052665" lon="05.818114"><ele>30.1</ele><time>2021-01-12T16:04:02Z</time><name>PT8112</name></trkpt>
<trkpt lat="52.052667" lon="05.818129"><ele>30.2</ele><time>2021-01-12T16:04:03Z</time><name>PT8113</name></trkpt>
<trkpt lat="52.052669" lon="05.818144"><ele>30.2</ele><time>2021-01-12T16:04:03Z</time><name>PT8114</name></trkpt>
<trkpt lat="52.052672" lon="05.818158"><ele>30.2</ele><time>2021-01-12T16:04:05Z</time><name>PT8115</name></trkpt>
<trkpt lat="52.052676" lon="05.818179"><ele>30</ele><time>2021-01-12T16:04:06Z</time><name>PT8116</name></trkpt>
<trkpt lat="52.052682" lon="05.818199"><ele>29.8</ele><time>2021-01-12T16:04:06Z</time><name>PT8117</name></trkpt>
<trkpt lat="52.052688" lon="05.818213"><ele>29.7</ele><time>2021-01-12T16:04:08Z</time><name>PT8118</name></trkpt>
<trkpt lat="52.052696" lon="05.818223"><ele>29.6</ele><time>2021-01-12T16:04:09Z</time><name>PT8119</name></trkpt>
<trkpt lat="52.052702" lon="05.818235"><ele>29.5</ele><time>2021-01-12T16:04:09Z</time><name>PT8120</name></trkpt>
<trkpt lat="52.052707" lon="05.818248"><ele>29.6</ele><time>2021-01-12T16:04:11Z</time><name>PT8121</name></trkpt>
<trkpt lat="52.052713" lon="05.818261"><ele>29.5</ele><time>2021-01-12T16:04:12Z</time><name>PT8122</name></trkpt>
<trkpt lat="52.052716" lon="05.818275"><ele>29.4</ele><time>2021-01-12T16:04:12Z</time><name>PT8123</name></trkpt>
<trkpt lat="52.052718" lon="05.818290"><ele>29.4</ele><time>2021-01-12T16:04:14Z</time><name>PT8124</name></trkpt>
<trkpt lat="52.052724" lon="05.818309"><ele>29.4</ele><time>2021-01-12T16:04:15Z</time><name>PT8125</name></trkpt>
<trkpt lat="52.052727" lon="05.818329"><ele>29.3</ele><time>2021-01-12T16:04:15Z</time><name>PT8126</name></trkpt>
<trkpt lat="52.052732" lon="05.818349"><ele>29.4</ele><time>2021-01-12T16:04:17Z</time><name>PT8127</name></trkpt>
<trkpt lat="52.052735" lon="05.818369"><ele>29.5</ele><time>2021-01-12T16:04:18Z</time><name>PT8128</name></trkpt>
<trkpt lat="52.052735" lon="05.818387"><ele>29.5</ele><time>2021-01-12T16:04:18Z</time><name>PT8129</name></trkpt>
<trkpt lat="52.052737" lon="05.818404"><ele>29.7</ele><time>2021-01-12T16:04:20Z</time><name>PT8130</name></trkpt>
<trkpt lat="52.052743" lon="05.818422"><ele>29.6</ele><time>2021-01-12T16:04:21Z</time><name>PT8131</name></trkpt>
<trkpt lat="52.052749" lon="05.818437"><ele>29.8</ele><time>2021-01-12T16:04:21Z</time><name>PT8132</name></trkpt>
<trkpt lat="52.052754" lon="05.818449"><ele>29.6</ele><time>2021-01-12T16:04:23Z</time><name>PT8133</name></trkpt>
<trkpt lat="52.052758" lon="05.818462"><ele>29.5</ele><time>2021-01-12T16:04:24Z</time><name>PT8134</name></trkpt>
<trkpt lat="52.052760" lon="05.818476"><ele>29.5</ele><time>2021-01-12T16:04:24Z</time><name>PT8135</name></trkpt>
<trkpt lat="52.052764" lon="05.818493"><ele>29.5</ele><time>2021-01-12T16:04:26Z</time><name>PT8136</name></trkpt>
<trkpt lat="52.052766" lon="05.818510"><ele>29.6</ele><time>2021-01-12T16:04:27Z</time><name>PT8137</name></trkpt>
<trkpt lat="52.052769" lon="05.818526"><ele>29.7</ele><time>2021-01-12T16:04:27Z</time><name>PT8138</name></trkpt>
<trkpt lat="52.052773" lon="05.818542"><ele>29.6</ele><time>2021-01-12T16:04:29Z</time><name>PT8139</name></trkpt>
<trkpt lat="52.052776" lon="05.818554"><ele>29.5</ele><time>2021-01-12T16:04:30Z</time><name>PT8140</name></trkpt>
<trkpt lat="52.052780" lon="05.818567"><ele>29.5</ele><time>2021-01-12T16:04:30Z</time><name>PT8141</name></trkpt>
<trkpt lat="52.052786" lon="05.818582"><ele>29.1</ele><time>2021-01-12T16:04:32Z</time><name>PT8142</name></trkpt>
<trkpt lat="52.052792" lon="05.818600"><ele>29.1</ele><time>2021-01-12T16:04:33Z</time><name>PT8143</name></trkpt>
<trkpt lat="52.052797" lon="05.818623"><ele>29.1</ele><time>2021-01-12T16:04:33Z</time><name>PT8144</name></trkpt>
<trkpt lat="52.052798" lon="05.818640"><ele>29.2</ele><time>2021-01-12T16:04:35Z</time><name>PT8145</name></trkpt>
<trkpt lat="52.052802" lon="05.818655"><ele>29.1</ele><time>2021-01-12T16:04:36Z</time><name>PT8146</name></trkpt>
<trkpt lat="52.052804" lon="05.818670"><ele>29.2</ele><time>2021-01-12T16:04:36Z</time><name>PT8147</name></trkpt>
<trkpt lat="52.052807" lon="05.818682"><ele>29</ele><time>2021-01-12T16:04:38Z</time><name>PT8148</name></trkpt>
<trkpt lat="52.052807" lon="05.818693"><ele>29.1</ele><time>2021-01-12T16:04:39Z</time><name>PT8149</name></trkpt>
<trkpt lat="52.052807" lon="05.818708"><ele>29.2</ele><time>2021-01-12T16:04:39Z</time><name>PT8150</name></trkpt>
<trkpt lat="52.052808" lon="05.818715"><ele>29.2</ele><time>2021-01-12T16:04:41Z</time><name>PT8151</name></trkpt>
<trkpt lat="52.052810" lon="05.818716"><ele>29.4</ele><time>2021-01-12T16:04:42Z</time><name>PT8152</name></trkpt>
<trkpt lat="52.052811" lon="05.818715"><ele>29.3</ele><time>2021-01-12T16:04:42Z</time><name>PT8153</name></trkpt>
<trkpt lat="52.052811" lon="05.818716"><ele>29.3</ele><time>2021-01-12T16:04:44Z</time><name>PT8154</name></trkpt>
<trkpt lat="52.052812" lon="05.818717"><ele>29.4</ele><time>2021-01-12T16:04:45Z</time><name>PT8155</name></trkpt>
<trkpt lat="52.052814" lon="05.818724"><ele>29.5</ele><time>2021-01-12T16:04:47Z</time><name>PT8156</name></trkpt>
<trkpt lat="52.052817" lon="05.818735"><ele>29.5</ele><time>2021-01-12T16:04:48Z</time><name>PT8157</name></trkpt>
<trkpt lat="52.052821" lon="05.818742"><ele>29.4</ele><time>2021-01-12T16:04:48Z</time><name>PT8158</name></trkpt>
<trkpt lat="52.052820" lon="05.818753"><ele>29.5</ele><time>2021-01-12T16:04:50Z</time><name>PT8159</name></trkpt>
<trkpt lat="52.052821" lon="05.818763"><ele>29.4</ele><time>2021-01-12T16:04:51Z</time><name>PT8160</name></trkpt>
<trkpt lat="52.052823" lon="05.818770"><ele>29.2</ele><time>2021-01-12T16:04:51Z</time><name>PT8161</name></trkpt>
<trkpt lat="52.052824" lon="05.818772"><ele>29.1</ele><time>2021-01-12T16:04:53Z</time><name>PT8162</name></trkpt>
<trkpt lat="52.052824" lon="05.818774"><ele>29</ele><time>2021-01-12T16:04:54Z</time><name>PT8163</name></trkpt>
<trkpt lat="52.052825" lon="05.818774"><ele>29</ele><time>2021-01-12T16:04:54Z</time><name>PT8164</name></trkpt>
<trkpt lat="52.052828" lon="05.818779"><ele>29.3</ele><time>2021-01-12T16:04:59Z</time><name>PT8165</name></trkpt>
<trkpt lat="52.052831" lon="05.818784"><ele>29</ele><time>2021-01-12T16:05:00Z</time><name>PT8166</name></trkpt>
<trkpt lat="52.052833" lon="05.818796"><ele>29</ele><time>2021-01-12T16:05:00Z</time><name>PT8167</name></trkpt>
<trkpt lat="52.052837" lon="05.818800"><ele>29</ele><time>2021-01-12T16:05:02Z</time><name>PT8168</name></trkpt>
<trkpt lat="52.052841" lon="05.818803"><ele>28.9</ele><time>2021-01-12T16:05:03Z</time><name>PT8169</name></trkpt>
<trkpt lat="52.052843" lon="05.818805"><ele>28.9</ele><time>2021-01-12T16:05:03Z</time><name>PT8170</name></trkpt>
<trkpt lat="52.052849" lon="05.818814"><ele>29</ele><time>2021-01-12T16:05:05Z</time><name>PT8171</name></trkpt>
<trkpt lat="52.052852" lon="05.818816"><ele>29</ele><time>2021-01-12T16:05:06Z</time><name>PT8172</name></trkpt>
<trkpt lat="52.052852" lon="05.818825"><ele>28.9</ele><time>2021-01-12T16:05:09Z</time><name>PT8173</name></trkpt>
<trkpt lat="52.052856" lon="05.818828"><ele>28.7</ele><time>2021-01-12T16:05:11Z</time><name>PT8174</name></trkpt>
<trkpt lat="52.052857" lon="05.818832"><ele>28.9</ele><time>2021-01-12T16:05:12Z</time><name>PT8175</name></trkpt>
<trkpt lat="52.052858" lon="05.818835"><ele>29</ele><time>2021-01-12T16:05:12Z</time><name>PT8176</name></trkpt>
<trkpt lat="52.052858" lon="05.818836"><ele>29</ele><time>2021-01-12T16:05:14Z</time><name>PT8177</name></trkpt>
<trkpt lat="52.052855" lon="05.818837"><ele>28.9</ele><time>2021-01-12T16:05:23Z</time><name>PT8178</name></trkpt>
<trkpt lat="52.052855" lon="05.818840"><ele>28.9</ele><time>2021-01-12T16:05:24Z</time><name>PT8179</name></trkpt>
<trkpt lat="52.052859" lon="05.818841"><ele>29</ele><time>2021-01-12T16:05:36Z</time><name>PT8180</name></trkpt>
<trkpt lat="52.052861" lon="05.818839"><ele>29.2</ele><time>2021-01-12T16:05:36Z</time><name>PT8181</name></trkpt>
<trkpt lat="52.052865" lon="05.818840"><ele>29.3</ele><time>2021-01-12T16:05:38Z</time><name>PT8182</name></trkpt>
<trkpt lat="52.052865" lon="05.818837"><ele>29.3</ele><time>2021-01-12T16:05:39Z</time><name>PT8183</name></trkpt>
<trkpt lat="52.052868" lon="05.818840"><ele>29</ele><time>2021-01-12T16:05:44Z</time><name>PT8184</name></trkpt>
<trkpt lat="52.052869" lon="05.818840"><ele>29.1</ele><time>2021-01-12T16:05:45Z</time><name>PT8185</name></trkpt>
<trkpt lat="52.052867" lon="05.818840"><ele>29</ele><time>2021-01-12T16:05:45Z</time><name>PT8186</name></trkpt>
<trkpt lat="52.052867" lon="05.818843"><ele>28.7</ele><time>2021-01-12T16:05:47Z</time><name>PT8187</name></trkpt>
<trkpt lat="52.052865" lon="05.818833"><ele>28.6</ele><time>2021-01-12T16:05:48Z</time><name>PT8188</name></trkpt>
<trkpt lat="52.052862" lon="05.818822"><ele>28.6</ele><time>2021-01-12T16:05:48Z</time><name>PT8189</name></trkpt>
<trkpt lat="52.052859" lon="05.818815"><ele>28.5</ele><time>2021-01-12T16:05:50Z</time><name>PT8190</name></trkpt>
<trkpt lat="52.052856" lon="05.818806"><ele>28.9</ele><time>2021-01-12T16:05:51Z</time><name>PT8191</name></trkpt>
<trkpt lat="52.052852" lon="05.818798"><ele>29</ele><time>2021-01-12T16:05:51Z</time><name>PT8192</name></trkpt>
<trkpt lat="52.052851" lon="05.818788"><ele>28.9</ele><time>2021-01-12T16:05:53Z</time><name>PT8193</name></trkpt>
<trkpt lat="52.052850" lon="05.818787"><ele>29.1</ele><time>2021-01-12T16:05:54Z</time><name>PT8194</name></trkpt>
<trkpt lat="52.052850" lon="05.818790"><ele>28.9</ele><time>2021-01-12T16:05:54Z</time><name>PT8195</name></trkpt>
<trkpt lat="52.052851" lon="05.818789"><ele>28.9</ele><time>2021-01-12T16:05:56Z</time><name>PT8196</name></trkpt>
<trkpt lat="52.052850" lon="05.818791"><ele>29</ele><time>2021-01-12T16:05:57Z</time><name>PT8197</name></trkpt>
<trkpt lat="52.052849" lon="05.818792"><ele>29.1</ele><time>2021-01-12T16:05:57Z</time><name>PT8198</name></trkpt>
<trkpt lat="52.052848" lon="05.818794"><ele>29</ele><time>2021-01-12T16:06:57Z</time><name>PT8199</name></trkpt>
<trkpt lat="52.052849" lon="05.818801"><ele>29</ele><time>2021-01-12T16:06:57Z</time><name>PT8200</name></trkpt>
<trkpt lat="52.052852" lon="05.818805"><ele>28.9</ele><time>2021-01-12T16:06:59Z</time><name>PT8201</name></trkpt>
<trkpt lat="52.052854" lon="05.818816"><ele>28.9</ele><time>2021-01-12T16:07:00Z</time><name>PT8202</name></trkpt>
<trkpt lat="52.052858" lon="05.818835"><ele>28.8</ele><time>2021-01-12T16:07:00Z</time><name>PT8203</name></trkpt>
<trkpt lat="52.052861" lon="05.818847"><ele>28.7</ele><time>2021-01-12T16:07:02Z</time><name>PT8204</name></trkpt>
<trkpt lat="52.052863" lon="05.818856"><ele>28.7</ele><time>2021-01-12T16:07:03Z</time><name>PT8205</name></trkpt>
<trkpt lat="52.052867" lon="05.818870"><ele>28.7</ele><time>2021-01-12T16:07:03Z</time><name>PT8206</name></trkpt>
<trkpt lat="52.052869" lon="05.818881"><ele>28.8</ele><time>2021-01-12T16:07:05Z</time><name>PT8207</name></trkpt>
<trkpt lat="52.052870" lon="05.818895"><ele>28.8</ele><time>2021-01-12T16:07:06Z</time><name>PT8208</name></trkpt>
<trkpt lat="52.052868" lon="05.818910"><ele>29</ele><time>2021-01-12T16:07:06Z</time><name>PT8209</name></trkpt>
<trkpt lat="52.052866" lon="05.818926"><ele>29</ele><time>2021-01-12T16:07:08Z</time><name>PT8210</name></trkpt>
<trkpt lat="52.052866" lon="05.818942"><ele>29</ele><time>2021-01-12T16:07:09Z</time><name>PT8211</name></trkpt>
<trkpt lat="52.052869" lon="05.818956"><ele>29</ele><time>2021-01-12T16:07:09Z</time><name>PT8212</name></trkpt>
<trkpt lat="52.052873" lon="05.818968"><ele>28.8</ele><time>2021-01-12T16:07:11Z</time><name>PT8213</name></trkpt>
<trkpt lat="52.052879" lon="05.818979"><ele>28.7</ele><time>2021-01-12T16:07:12Z</time><name>PT8214</name></trkpt>
<trkpt lat="52.052884" lon="05.818992"><ele>28.6</ele><time>2021-01-12T16:07:12Z</time><name>PT8215</name></trkpt>
<trkpt lat="52.052888" lon="05.819002"><ele>28.5</ele><time>2021-01-12T16:07:14Z</time><name>PT8216</name></trkpt>
<trkpt lat="52.052890" lon="05.819015"><ele>28.6</ele><time>2021-01-12T16:07:15Z</time><name>PT8217</name></trkpt>
<trkpt lat="52.052891" lon="05.819029"><ele>28.5</ele><time>2021-01-12T16:07:15Z</time><name>PT8218</name></trkpt>
<trkpt lat="52.052893" lon="05.819043"><ele>28.5</ele><time>2021-01-12T16:07:17Z</time><name>PT8219</name></trkpt>
<trkpt lat="52.052900" lon="05.819056"><ele>28.7</ele><time>2021-01-12T16:07:18Z</time><name>PT8220</name></trkpt>
<trkpt lat="52.052908" lon="05.819070"><ele>28.7</ele><time>2021-01-12T16:07:18Z</time><name>PT8221</name></trkpt>
<trkpt lat="52.052915" lon="05.819081"><ele>28.7</ele><time>2021-01-12T16:07:20Z</time><name>PT8222</name></trkpt>
<trkpt lat="52.052921" lon="05.819095"><ele>28.6</ele><time>2021-01-12T16:07:21Z</time><name>PT8223</name></trkpt>
<trkpt lat="52.052926" lon="05.819110"><ele>28.5</ele><time>2021-01-12T16:07:21Z</time><name>PT8224</name></trkpt>
<trkpt lat="52.052929" lon="05.819125"><ele>28.5</ele><time>2021-01-12T16:07:23Z</time><name>PT8225</name></trkpt>
<trkpt lat="52.052932" lon="05.819138"><ele>28.6</ele><time>2021-01-12T16:07:24Z</time><name>PT8226</name></trkpt>
<trkpt lat="52.052934" lon="05.819152"><ele>28.6</ele><time>2021-01-12T16:07:24Z</time><name>PT8227</name></trkpt>
<trkpt lat="52.052938" lon="05.819167"><ele>28.6</ele><time>2021-01-12T16:07:26Z</time><name>PT8228</name></trkpt>
<trkpt lat="52.052946" lon="05.819186"><ele>28.6</ele><time>2021-01-12T16:07:27Z</time><name>PT8229</name></trkpt>
<trkpt lat="52.052951" lon="05.819201"><ele>28.5</ele><time>2021-01-12T16:07:27Z</time><name>PT8230</name></trkpt>
<trkpt lat="52.052955" lon="05.819215"><ele>28.4</ele><time>2021-01-12T16:07:29Z</time><name>PT8231</name></trkpt>
<trkpt lat="52.052961" lon="05.819229"><ele>28.4</ele><time>2021-01-12T16:07:30Z</time><name>PT8232</name></trkpt>
<trkpt lat="52.052967" lon="05.819246"><ele>28.5</ele><time>2021-01-12T16:07:30Z</time><name>PT8233</name></trkpt>
<trkpt lat="52.052972" lon="05.819262"><ele>28.7</ele><time>2021-01-12T16:07:32Z</time><name>PT8234</name></trkpt>
<trkpt lat="52.052976" lon="05.819276"><ele>28.9</ele><time>2021-01-12T16:07:33Z</time><name>PT8235</name></trkpt>
<trkpt lat="52.052982" lon="05.819290"><ele>29</ele><time>2021-01-12T16:07:33Z</time><name>PT8236</name></trkpt>
<trkpt lat="52.052989" lon="05.819304"><ele>28.9</ele><time>2021-01-12T16:07:35Z</time><name>PT8237</name></trkpt>
<trkpt lat="52.052997" lon="05.819321"><ele>28.7</ele><time>2021-01-12T16:07:36Z</time><name>PT8238</name></trkpt>
<trkpt lat="52.053004" lon="05.819334"><ele>28.6</ele><time>2021-01-12T16:07:36Z</time><name>PT8239</name></trkpt>
<trkpt lat="52.053008" lon="05.819349"><ele>28.6</ele><time>2021-01-12T16:07:38Z</time><name>PT8240</name></trkpt>
<trkpt lat="52.053018" lon="05.819360"><ele>28.6</ele><time>2021-01-12T16:07:39Z</time><name>PT8241</name></trkpt>
<trkpt lat="52.053025" lon="05.819371"><ele>28.6</ele><time>2021-01-12T16:07:39Z</time><name>PT8242</name></trkpt>
<trkpt lat="52.053032" lon="05.819381"><ele>28.6</ele><time>2021-01-12T16:07:41Z</time><name>PT8243</name></trkpt>
<trkpt lat="52.053035" lon="05.819393"><ele>28.5</ele><time>2021-01-12T16:07:42Z</time><name>PT8244</name></trkpt>
<trkpt lat="52.053038" lon="05.819407"><ele>28.6</ele><time>2021-01-12T16:07:42Z</time><name>PT8245</name></trkpt>
<trkpt lat="52.053042" lon="05.819420"><ele>28.7</ele><time>2021-01-12T16:07:44Z</time><name>PT8246</name></trkpt>
<trkpt lat="52.053046" lon="05.819435"><ele>28.8</ele><time>2021-01-12T16:07:45Z</time><name>PT8247</name></trkpt>
<trkpt lat="52.053050" lon="05.819453"><ele>28.8</ele><time>2021-01-12T16:07:45Z</time><name>PT8248</name></trkpt>
<trkpt lat="52.053055" lon="05.819469"><ele>28.9</ele><time>2021-01-12T16:07:47Z</time><name>PT8249</name></trkpt>
<trkpt lat="52.053060" lon="05.819483"><ele>29</ele><time>2021-01-12T16:07:48Z</time><name>PT8250</name></trkpt>
<trkpt lat="52.053067" lon="05.819496"><ele>29</ele><time>2021-01-12T16:07:48Z</time><name>PT8251</name></trkpt>
<trkpt lat="52.053074" lon="05.819509"><ele>29</ele><time>2021-01-12T16:07:50Z</time><name>PT8252</name></trkpt>
<trkpt lat="52.053080" lon="05.819524"><ele>29.1</ele><time>2021-01-12T16:07:51Z</time><name>PT8253</name></trkpt>
<trkpt lat="52.053087" lon="05.819535"><ele>29</ele><time>2021-01-12T16:07:51Z</time><name>PT8254</name></trkpt>
<trkpt lat="52.053093" lon="05.819548"><ele>28.9</ele><time>2021-01-12T16:07:53Z</time><name>PT8255</name></trkpt>
<trkpt lat="52.053099" lon="05.819562"><ele>29</ele><time>2021-01-12T16:07:54Z</time><name>PT8256</name></trkpt>
<trkpt lat="52.053104" lon="05.819578"><ele>29</ele><time>2021-01-12T16:07:54Z</time><name>PT8257</name></trkpt>
<trkpt lat="52.053103" lon="05.819589"><ele>28.8</ele><time>2021-01-12T16:07:56Z</time><name>PT8258</name></trkpt>
<trkpt lat="52.053104" lon="05.819598"><ele>28.7</ele><time>2021-01-12T16:07:57Z</time><name>PT8259</name></trkpt>
<trkpt lat="52.053107" lon="05.819612"><ele>28.7</ele><time>2021-01-12T16:07:57Z</time><name>PT8260</name></trkpt>
<trkpt lat="52.053112" lon="05.819627"><ele>29</ele><time>2021-01-12T16:07:59Z</time><name>PT8261</name></trkpt>
<trkpt lat="52.053119" lon="05.819643"><ele>29</ele><time>2021-01-12T16:08:00Z</time><name>PT8262</name></trkpt>
<trkpt lat="52.053125" lon="05.819661"><ele>29</ele><time>2021-01-12T16:08:00Z</time><name>PT8263</name></trkpt>
<trkpt lat="52.053128" lon="05.819677"><ele>29.2</ele><time>2021-01-12T16:08:02Z</time><name>PT8264</name></trkpt>
<trkpt lat="52.053136" lon="05.819693"><ele>29</ele><time>2021-01-12T16:08:03Z</time><name>PT8265</name></trkpt>
<trkpt lat="52.053143" lon="05.819709"><ele>29</ele><time>2021-01-12T16:08:03Z</time><name>PT8266</name></trkpt>
<trkpt lat="52.053147" lon="05.819723"><ele>29.2</ele><time>2021-01-12T16:08:05Z</time><name>PT8267</name></trkpt>
<trkpt lat="52.053152" lon="05.819736"><ele>29.2</ele><time>2021-01-12T16:08:06Z</time><name>PT8268</name></trkpt>
<trkpt lat="52.053156" lon="05.819750"><ele>29.2</ele><time>2021-01-12T16:08:06Z</time><name>PT8269</name></trkpt>
<trkpt lat="52.053160" lon="05.819765"><ele>29.2</ele><time>2021-01-12T16:08:08Z</time><name>PT8270</name></trkpt>
<trkpt lat="52.053163" lon="05.819780"><ele>29.3</ele><time>2021-01-12T16:08:09Z</time><name>PT8271</name></trkpt>
<trkpt lat="52.053166" lon="05.819795"><ele>29.4</ele><time>2021-01-12T16:08:09Z</time><name>PT8272</name></trkpt>
<trkpt lat="52.053172" lon="05.819813"><ele>29.4</ele><time>2021-01-12T16:08:11Z</time><name>PT8273</name></trkpt>
<trkpt lat="52.053179" lon="05.819830"><ele>29.5</ele><time>2021-01-12T16:08:12Z</time><name>PT8274</name></trkpt>
<trkpt lat="52.053186" lon="05.819844"><ele>29.5</ele><time>2021-01-12T16:08:12Z</time><name>PT8275</name></trkpt>
<trkpt lat="52.053194" lon="05.819860"><ele>29.4</ele><time>2021-01-12T16:08:14Z</time><name>PT8276</name></trkpt>
<trkpt lat="52.053200" lon="05.819875"><ele>29.5</ele><time>2021-01-12T16:08:15Z</time><name>PT8277</name></trkpt>
<trkpt lat="52.053207" lon="05.819890"><ele>29.5</ele><time>2021-01-12T16:08:15Z</time><name>PT8278</name></trkpt>
<trkpt lat="52.053212" lon="05.819908"><ele>29.2</ele><time>2021-01-12T16:08:17Z</time><name>PT8279</name></trkpt>
<trkpt lat="52.053218" lon="05.819924"><ele>29.4</ele><time>2021-01-12T16:08:18Z</time><name>PT8280</name></trkpt>
<trkpt lat="52.053224" lon="05.819936"><ele>29.4</ele><time>2021-01-12T16:08:18Z</time><name>PT8281</name></trkpt>
<trkpt lat="52.053229" lon="05.819946"><ele>29.3</ele><time>2021-01-12T16:08:20Z</time><name>PT8282</name></trkpt>
<trkpt lat="52.053232" lon="05.819959"><ele>29.5</ele><time>2021-01-12T16:08:21Z</time><name>PT8283</name></trkpt>
<trkpt lat="52.053237" lon="05.819977"><ele>29.5</ele><time>2021-01-12T16:08:21Z</time><name>PT8284</name></trkpt>
<trkpt lat="52.053241" lon="05.819996"><ele>29.7</ele><time>2021-01-12T16:08:23Z</time><name>PT8285</name></trkpt>
<trkpt lat="52.053244" lon="05.820015"><ele>29.8</ele><time>2021-01-12T16:08:24Z</time><name>PT8286</name></trkpt>
<trkpt lat="52.053245" lon="05.820034"><ele>29.9</ele><time>2021-01-12T16:08:24Z</time><name>PT8287</name></trkpt>
<trkpt lat="52.053247" lon="05.820050"><ele>30</ele><time>2021-01-12T16:08:26Z</time><name>PT8288</name></trkpt>
<trkpt lat="52.053252" lon="05.820066"><ele>30</ele><time>2021-01-12T16:08:27Z</time><name>PT8289</name></trkpt>
<trkpt lat="52.053255" lon="05.820081"><ele>30.2</ele><time>2021-01-12T16:08:27Z</time><name>PT8290</name></trkpt>
<trkpt lat="52.053259" lon="05.820098"><ele>30</ele><time>2021-01-12T16:08:29Z</time><name>PT8291</name></trkpt>
<trkpt lat="52.053264" lon="05.820116"><ele>30.1</ele><time>2021-01-12T16:08:30Z</time><name>PT8292</name></trkpt>
<trkpt lat="52.053266" lon="05.820133"><ele>30</ele><time>2021-01-12T16:08:30Z</time><name>PT8293</name></trkpt>
<trkpt lat="52.053267" lon="05.820153"><ele>30</ele><time>2021-01-12T16:08:32Z</time><name>PT8294</name></trkpt>
<trkpt lat="52.053270" lon="05.820171"><ele>30.1</ele><time>2021-01-12T16:08:33Z</time><name>PT8295</name></trkpt>
<trkpt lat="52.053272" lon="05.820188"><ele>30.2</ele><time>2021-01-12T16:08:33Z</time><name>PT8296</name></trkpt>
<trkpt lat="52.053273" lon="05.820202"><ele>30.1</ele><time>2021-01-12T16:08:35Z</time><name>PT8297</name></trkpt>
<trkpt lat="52.053275" lon="05.820219"><ele>30.1</ele><time>2021-01-12T16:08:36Z</time><name>PT8298</name></trkpt>
<trkpt lat="52.053278" lon="05.820236"><ele>30.2</ele><time>2021-01-12T16:08:36Z</time><name>PT8299</name></trkpt>
<trkpt lat="52.053279" lon="05.820254"><ele>30.3</ele><time>2021-01-12T16:08:38Z</time><name>PT8300</name></trkpt>
<trkpt lat="52.053282" lon="05.820271"><ele>30.5</ele><time>2021-01-12T16:08:39Z</time><name>PT8301</name></trkpt>
<trkpt lat="52.053285" lon="05.820290"><ele>30.5</ele><time>2021-01-12T16:08:39Z</time><name>PT8302</name></trkpt>
<trkpt lat="52.053288" lon="05.820308"><ele>30.5</ele><time>2021-01-12T16:08:41Z</time><name>PT8303</name></trkpt>
<trkpt lat="52.053288" lon="05.820328"><ele>30.8</ele><time>2021-01-12T16:08:42Z</time><name>PT8304</name></trkpt>
<trkpt lat="52.053291" lon="05.820350"><ele>30.9</ele><time>2021-01-12T16:08:42Z</time><name>PT8305</name></trkpt>
<trkpt lat="52.053296" lon="05.820371"><ele>31.1</ele><time>2021-01-12T16:08:44Z</time><name>PT8306</name></trkpt>
<trkpt lat="52.053303" lon="05.820391"><ele>31.2</ele><time>2021-01-12T16:08:45Z</time><name>PT8307</name></trkpt>
<trkpt lat="52.053309" lon="05.820411"><ele>31.2</ele><time>2021-01-12T16:08:45Z</time><name>PT8308</name></trkpt>
<trkpt lat="52.053313" lon="05.820428"><ele>31.5</ele><time>2021-01-12T16:08:47Z</time><name>PT8309</name></trkpt>
<trkpt lat="52.053318" lon="05.820444"><ele>31.6</ele><time>2021-01-12T16:08:48Z</time><name>PT8310</name></trkpt>
<trkpt lat="52.053324" lon="05.820458"><ele>31.6</ele><time>2021-01-12T16:08:48Z</time><name>PT8311</name></trkpt>
<trkpt lat="52.053330" lon="05.820475"><ele>31.8</ele><time>2021-01-12T16:08:50Z</time><name>PT8312</name></trkpt>
<trkpt lat="52.053338" lon="05.820492"><ele>31.7</ele><time>2021-01-12T16:08:51Z</time><name>PT8313</name></trkpt>
<trkpt lat="52.053345" lon="05.820508"><ele>31.5</ele><time>2021-01-12T16:08:51Z</time><name>PT8314</name></trkpt>
<trkpt lat="52.053352" lon="05.820526"><ele>31.6</ele><time>2021-01-12T16:08:53Z</time><name>PT8315</name></trkpt>
<trkpt lat="52.053359" lon="05.820542"><ele>31.6</ele><time>2021-01-12T16:08:54Z</time><name>PT8316</name></trkpt>
<trkpt lat="52.053366" lon="05.820558"><ele>31.8</ele><time>2021-01-12T16:08:54Z</time><name>PT8317</name></trkpt>
<trkpt lat="52.053371" lon="05.820573"><ele>32</ele><time>2021-01-12T16:08:56Z</time><name>PT8318</name></trkpt>
<trkpt lat="52.053376" lon="05.820588"><ele>32</ele><time>2021-01-12T16:08:57Z</time><name>PT8319</name></trkpt>
<trkpt lat="52.053381" lon="05.820602"><ele>32</ele><time>2021-01-12T16:08:57Z</time><name>PT8320</name></trkpt>
<trkpt lat="52.053384" lon="05.820618"><ele>32</ele><time>2021-01-12T16:08:59Z</time><name>PT8321</name></trkpt>
<trkpt lat="52.053388" lon="05.820632"><ele>31.9</ele><time>2021-01-12T16:09:00Z</time><name>PT8322</name></trkpt>
<trkpt lat="52.053392" lon="05.820649"><ele>31.9</ele><time>2021-01-12T16:09:00Z</time><name>PT8323</name></trkpt>
<trkpt lat="52.053396" lon="05.820669"><ele>32</ele><time>2021-01-12T16:09:02Z</time><name>PT8324</name></trkpt>
<trkpt lat="52.053401" lon="05.820687"><ele>32.1</ele><time>2021-01-12T16:09:03Z</time><name>PT8325</name></trkpt>
<trkpt lat="52.053405" lon="05.820705"><ele>32.1</ele><time>2021-01-12T16:09:03Z</time><name>PT8326</name></trkpt>
<trkpt lat="52.053408" lon="05.820724"><ele>32.1</ele><time>2021-01-12T16:09:05Z</time><name>PT8327</name></trkpt>
<trkpt lat="52.053413" lon="05.820740"><ele>32.1</ele><time>2021-01-12T16:09:06Z</time><name>PT8328</name></trkpt>
<trkpt lat="52.053419" lon="05.820756"><ele>32</ele><time>2021-01-12T16:09:06Z</time><name>PT8329</name></trkpt>
<trkpt lat="52.053423" lon="05.820772"><ele>32</ele><time>2021-01-12T16:09:08Z</time><name>PT8330</name></trkpt>
<trkpt lat="52.053430" lon="05.820788"><ele>32.1</ele><time>2021-01-12T16:09:09Z</time><name>PT8331</name></trkpt>
<trkpt lat="52.053436" lon="05.820804"><ele>32</ele><time>2021-01-12T16:09:09Z</time><name>PT8332</name></trkpt>
<trkpt lat="52.053440" lon="05.820819"><ele>32.1</ele><time>2021-01-12T16:09:11Z</time><name>PT8333</name></trkpt>
<trkpt lat="52.053444" lon="05.820832"><ele>32.2</ele><time>2021-01-12T16:09:12Z</time><name>PT8334</name></trkpt>
<trkpt lat="52.053448" lon="05.820845"><ele>32.1</ele><time>2021-01-12T16:09:12Z</time><name>PT8335</name></trkpt>
<trkpt lat="52.053452" lon="05.820862"><ele>32.3</ele><time>2021-01-12T16:09:14Z</time><name>PT8336</name></trkpt>
<trkpt lat="52.053456" lon="05.820879"><ele>32.5</ele><time>2021-01-12T16:09:15Z</time><name>PT8337</name></trkpt>
<trkpt lat="52.053459" lon="05.820897"><ele>32.5</ele><time>2021-01-12T16:09:15Z</time><name>PT8338</name></trkpt>
<trkpt lat="52.053464" lon="05.820916"><ele>32.5</ele><time>2021-01-12T16:09:17Z</time><name>PT8339</name></trkpt>
<trkpt lat="52.053468" lon="05.820936"><ele>32.6</ele><time>2021-01-12T16:09:18Z</time><name>PT8340</name></trkpt>
<trkpt lat="52.053474" lon="05.820956"><ele>32.4</ele><time>2021-01-12T16:09:18Z</time><name>PT8341</name></trkpt>
<trkpt lat="52.053478" lon="05.820972"><ele>32.5</ele><time>2021-01-12T16:09:20Z</time><name>PT8342</name></trkpt>
<trkpt lat="52.053483" lon="05.820986"><ele>32.4</ele><time>2021-01-12T16:09:21Z</time><name>PT8343</name></trkpt>
<trkpt lat="52.053489" lon="05.821002"><ele>32.4</ele><time>2021-01-12T16:09:21Z</time><name>PT8344</name></trkpt>
<trkpt lat="52.053494" lon="05.821015"><ele>32.5</ele><time>2021-01-12T16:09:23Z</time><name>PT8345</name></trkpt>
<trkpt lat="52.053501" lon="05.821028"><ele>32.5</ele><time>2021-01-12T16:09:24Z</time><name>PT8346</name></trkpt>
<trkpt lat="52.053507" lon="05.821042"><ele>32.5</ele><time>2021-01-12T16:09:24Z</time><name>PT8347</name></trkpt>
<trkpt lat="52.053512" lon="05.821055"><ele>32.5</ele><time>2021-01-12T16:09:26Z</time><name>PT8348</name></trkpt>
<trkpt lat="52.053516" lon="05.821069"><ele>32.5</ele><time>2021-01-12T16:09:27Z</time><name>PT8349</name></trkpt>
<trkpt lat="52.053519" lon="05.821084"><ele>32.5</ele><time>2021-01-12T16:09:27Z</time><name>PT8350</name></trkpt>
<trkpt lat="52.053524" lon="05.821100"><ele>32.5</ele><time>2021-01-12T16:09:29Z</time><name>PT8351</name></trkpt>
<trkpt lat="52.053529" lon="05.821117"><ele>32.5</ele><time>2021-01-12T16:09:30Z</time><name>PT8352</name></trkpt>
<trkpt lat="52.053534" lon="05.821135"><ele>32.5</ele><time>2021-01-12T16:09:30Z</time><name>PT8353</name></trkpt>
<trkpt lat="52.053539" lon="05.821154"><ele>32.5</ele><time>2021-01-12T16:09:32Z</time><name>PT8354</name></trkpt>
<trkpt lat="52.053541" lon="05.821170"><ele>32.6</ele><time>2021-01-12T16:09:33Z</time><name>PT8355</name></trkpt>
<trkpt lat="52.053545" lon="05.821182"><ele>32.6</ele><time>2021-01-12T16:09:33Z</time><name>PT8356</name></trkpt>
<trkpt lat="52.053549" lon="05.821197"><ele>32.7</ele><time>2021-01-12T16:09:35Z</time><name>PT8357</name></trkpt>
<trkpt lat="52.053553" lon="05.821212"><ele>32.8</ele><time>2021-01-12T16:09:36Z</time><name>PT8358</name></trkpt>
<trkpt lat="52.053557" lon="05.821227"><ele>32.8</ele><time>2021-01-12T16:09:36Z</time><name>PT8359</name></trkpt>
<trkpt lat="52.053562" lon="05.821240"><ele>32.9</ele><time>2021-01-12T16:09:38Z</time><name>PT8360</name></trkpt>
<trkpt lat="52.053566" lon="05.821252"><ele>32.8</ele><time>2021-01-12T16:09:39Z</time><name>PT8361</name></trkpt>
<trkpt lat="52.053569" lon="05.821266"><ele>32.7</ele><time>2021-01-12T16:09:39Z</time><name>PT8362</name></trkpt>
<trkpt lat="52.053575" lon="05.821283"><ele>32.8</ele><time>2021-01-12T16:09:41Z</time><name>PT8363</name></trkpt>
<trkpt lat="52.053582" lon="05.821300"><ele>32.9</ele><time>2021-01-12T16:09:42Z</time><name>PT8364</name></trkpt>
<trkpt lat="52.053587" lon="05.821318"><ele>32.9</ele><time>2021-01-12T16:09:42Z</time><name>PT8365</name></trkpt>
<trkpt lat="52.053591" lon="05.821334"><ele>32.9</ele><time>2021-01-12T16:09:44Z</time><name>PT8366</name></trkpt>
<trkpt lat="52.053596" lon="05.821349"><ele>32.9</ele><time>2021-01-12T16:09:45Z</time><name>PT8367</name></trkpt>
<trkpt lat="52.053601" lon="05.821363"><ele>33</ele><time>2021-01-12T16:09:45Z</time><name>PT8368</name></trkpt>
<trkpt lat="52.053606" lon="05.821376"><ele>32.9</ele><time>2021-01-12T16:09:47Z</time><name>PT8369</name></trkpt>
<trkpt lat="52.053611" lon="05.821391"><ele>33</ele><time>2021-01-12T16:09:48Z</time><name>PT8370</name></trkpt>
<trkpt lat="52.053618" lon="05.821407"><ele>33</ele><time>2021-01-12T16:09:48Z</time><name>PT8371</name></trkpt>
<trkpt lat="52.053623" lon="05.821421"><ele>32.8</ele><time>2021-01-12T16:09:50Z</time><name>PT8372</name></trkpt>
<trkpt lat="52.053628" lon="05.821436"><ele>32.9</ele><time>2021-01-12T16:09:51Z</time><name>PT8373</name></trkpt>
<trkpt lat="52.053632" lon="05.821452"><ele>32.9</ele><time>2021-01-12T16:09:51Z</time><name>PT8374</name></trkpt>
<trkpt lat="52.053637" lon="05.821468"><ele>33</ele><time>2021-01-12T16:09:53Z</time><name>PT8375</name></trkpt>
<trkpt lat="52.053641" lon="05.821486"><ele>33.1</ele><time>2021-01-12T16:09:54Z</time><name>PT8376</name></trkpt>
<trkpt lat="52.053645" lon="05.821505"><ele>33.2</ele><time>2021-01-12T16:09:54Z</time><name>PT8377</name></trkpt>
<trkpt lat="52.053648" lon="05.821524"><ele>33.1</ele><time>2021-01-12T16:09:56Z</time><name>PT8378</name></trkpt>
<trkpt lat="52.053652" lon="05.821544"><ele>33</ele><time>2021-01-12T16:09:57Z</time><name>PT8379</name></trkpt>
<trkpt lat="52.053656" lon="05.821558"><ele>32.8</ele><time>2021-01-12T16:09:57Z</time><name>PT8380</name></trkpt>
<trkpt lat="52.053659" lon="05.821576"><ele>33</ele><time>2021-01-12T16:09:59Z</time><name>PT8381</name></trkpt>
<trkpt lat="52.053663" lon="05.821594"><ele>33.2</ele><time>2021-01-12T16:10:00Z</time><name>PT8382</name></trkpt>
<trkpt lat="52.053668" lon="05.821611"><ele>33.2</ele><time>2021-01-12T16:10:00Z</time><name>PT8383</name></trkpt>
<trkpt lat="52.053674" lon="05.821627"><ele>33.2</ele><time>2021-01-12T16:10:02Z</time><name>PT8384</name></trkpt>
<trkpt lat="52.053679" lon="05.821644"><ele>33.2</ele><time>2021-01-12T16:10:03Z</time><name>PT8385</name></trkpt>
<trkpt lat="52.053686" lon="05.821661"><ele>33.1</ele><time>2021-01-12T16:10:03Z</time><name>PT8386</name></trkpt>
<trkpt lat="52.053693" lon="05.821678"><ele>33.2</ele><time>2021-01-12T16:10:05Z</time><name>PT8387</name></trkpt>
<trkpt lat="52.053698" lon="05.821694"><ele>33.2</ele><time>2021-01-12T16:10:06Z</time><name>PT8388</name></trkpt>
<trkpt lat="52.053703" lon="05.821710"><ele>33.1</ele><time>2021-01-12T16:10:06Z</time><name>PT8389</name></trkpt>
<trkpt lat="52.053708" lon="05.821725"><ele>33.3</ele><time>2021-01-12T16:10:08Z</time><name>PT8390</name></trkpt>
<trkpt lat="52.053711" lon="05.821742"><ele>33.3</ele><time>2021-01-12T16:10:09Z</time><name>PT8391</name></trkpt>
<trkpt lat="52.053716" lon="05.821757"><ele>33.4</ele><time>2021-01-12T16:10:09Z</time><name>PT8392</name></trkpt>
<trkpt lat="52.053721" lon="05.821773"><ele>33.5</ele><time>2021-01-12T16:10:11Z</time><name>PT8393</name></trkpt>
<trkpt lat="52.053726" lon="05.821793"><ele>33.5</ele><time>2021-01-12T16:10:12Z</time><name>PT8394</name></trkpt>
<trkpt lat="52.053730" lon="05.821811"><ele>33.6</ele><time>2021-01-12T16:10:12Z</time><name>PT8395</name></trkpt>
<trkpt lat="52.053733" lon="05.821827"><ele>33.6</ele><time>2021-01-12T16:10:14Z</time><name>PT8396</name></trkpt>
<trkpt lat="52.053734" lon="05.821842"><ele>33.6</ele><time>2021-01-12T16:10:15Z</time><name>PT8397</name></trkpt>
<trkpt lat="52.053741" lon="05.821858"><ele>33.7</ele><time>2021-01-12T16:10:15Z</time><name>PT8398</name></trkpt>
<trkpt lat="52.053748" lon="05.821873"><ele>33.8</ele><time>2021-01-12T16:10:17Z</time><name>PT8399</name></trkpt>
<trkpt lat="52.053754" lon="05.821888"><ele>33.8</ele><time>2021-01-12T16:10:18Z</time><name>PT8400</name></trkpt>
<trkpt lat="52.053755" lon="05.821903"><ele>33.9</ele><time>2021-01-12T16:10:18Z</time><name>PT8401</name></trkpt>
<trkpt lat="52.053758" lon="05.821918"><ele>34</ele><time>2021-01-12T16:10:20Z</time><name>PT8402</name></trkpt>
<trkpt lat="52.053763" lon="05.821933"><ele>34</ele><time>2021-01-12T16:10:21Z</time><name>PT8403</name></trkpt>
<trkpt lat="52.053770" lon="05.821947"><ele>34</ele><time>2021-01-12T16:10:21Z</time><name>PT8404</name></trkpt>
<trkpt lat="52.053775" lon="05.821965"><ele>34</ele><time>2021-01-12T16:10:23Z</time><name>PT8405</name></trkpt>
<trkpt lat="52.053777" lon="05.821985"><ele>34</ele><time>2021-01-12T16:10:24Z</time><name>PT8406</name></trkpt>
<trkpt lat="52.053778" lon="05.821997"><ele>34.1</ele><time>2021-01-12T16:10:24Z</time><name>PT8407</name></trkpt>
<trkpt lat="52.053782" lon="05.822008"><ele>33.9</ele><time>2021-01-12T16:10:26Z</time><name>PT8408</name></trkpt>
<trkpt lat="52.053784" lon="05.822019"><ele>34</ele><time>2021-01-12T16:10:27Z</time><name>PT8409</name></trkpt>
<trkpt lat="52.053788" lon="05.822035"><ele>33.9</ele><time>2021-01-12T16:10:27Z</time><name>PT8410</name></trkpt>
<trkpt lat="52.053791" lon="05.822049"><ele>33.5</ele><time>2021-01-12T16:10:29Z</time><name>PT8411</name></trkpt>
<trkpt lat="52.053790" lon="05.822070"><ele>33.5</ele><time>2021-01-12T16:10:30Z</time><name>PT8412</name></trkpt>
<trkpt lat="52.053795" lon="05.822090"><ele>33.5</ele><time>2021-01-12T16:10:30Z</time><name>PT8413</name></trkpt>
<trkpt lat="52.053797" lon="05.822112"><ele>33.5</ele><time>2021-01-12T16:10:32Z</time><name>PT8414</name></trkpt>
<trkpt lat="52.053800" lon="05.822133"><ele>33.7</ele><time>2021-01-12T16:10:33Z</time><name>PT8415</name></trkpt>
<trkpt lat="52.053806" lon="05.822150"><ele>33.8</ele><time>2021-01-12T16:10:33Z</time><name>PT8416</name></trkpt>
<trkpt lat="52.053812" lon="05.822165"><ele>33.5</ele><time>2021-01-12T16:10:35Z</time><name>PT8417</name></trkpt>
<trkpt lat="52.053818" lon="05.822177"><ele>33.5</ele><time>2021-01-12T16:10:36Z</time><name>PT8418</name></trkpt>
<trkpt lat="52.053825" lon="05.822188"><ele>33.5</ele><time>2021-01-12T16:10:36Z</time><name>PT8419</name></trkpt>
<trkpt lat="52.053831" lon="05.822200"><ele>33.5</ele><time>2021-01-12T16:10:38Z</time><name>PT8420</name></trkpt>
<trkpt lat="52.053836" lon="05.822218"><ele>33.5</ele><time>2021-01-12T16:10:39Z</time><name>PT8421</name></trkpt>
<trkpt lat="52.053842" lon="05.822235"><ele>33.4</ele><time>2021-01-12T16:10:39Z</time><name>PT8422</name></trkpt>
<trkpt lat="52.053850" lon="05.822251"><ele>33.5</ele><time>2021-01-12T16:10:41Z</time><name>PT8423</name></trkpt>
<trkpt lat="52.053855" lon="05.822268"><ele>33.5</ele><time>2021-01-12T16:10:42Z</time><name>PT8424</name></trkpt>
<trkpt lat="52.053859" lon="05.822285"><ele>33.6</ele><time>2021-01-12T16:10:42Z</time><name>PT8425</name></trkpt>
<trkpt lat="52.053864" lon="05.822300"><ele>33.6</ele><time>2021-01-12T16:10:44Z</time><name>PT8426</name></trkpt>
<trkpt lat="52.053869" lon="05.822318"><ele>33.8</ele><time>2021-01-12T16:10:45Z</time><name>PT8427</name></trkpt>
<trkpt lat="52.053874" lon="05.822334"><ele>33.9</ele><time>2021-01-12T16:10:45Z</time><name>PT8428</name></trkpt>
<trkpt lat="52.053880" lon="05.822349"><ele>33.8</ele><time>2021-01-12T16:10:47Z</time><name>PT8429</name></trkpt>
<trkpt lat="52.053887" lon="05.822362"><ele>33.7</ele><time>2021-01-12T16:10:48Z</time><name>PT8430</name></trkpt>
<trkpt lat="52.053891" lon="05.822375"><ele>33.8</ele><time>2021-01-12T16:10:48Z</time><name>PT8431</name></trkpt>
<trkpt lat="52.053895" lon="05.822392"><ele>33.7</ele><time>2021-01-12T16:10:50Z</time><name>PT8432</name></trkpt>
<trkpt lat="52.053898" lon="05.822408"><ele>33.7</ele><time>2021-01-12T16:10:51Z</time><name>PT8433</name></trkpt>
<trkpt lat="52.053903" lon="05.822425"><ele>33.9</ele><time>2021-01-12T16:10:51Z</time><name>PT8434</name></trkpt>
<trkpt lat="52.053908" lon="05.822440"><ele>34</ele><time>2021-01-12T16:10:53Z</time><name>PT8435</name></trkpt>
<trkpt lat="52.053915" lon="05.822455"><ele>34.1</ele><time>2021-01-12T16:10:54Z</time><name>PT8436</name></trkpt>
<trkpt lat="52.053921" lon="05.822473"><ele>34.2</ele><time>2021-01-12T16:10:54Z</time><name>PT8437</name></trkpt>
<trkpt lat="52.053928" lon="05.822492"><ele>34.1</ele><time>2021-01-12T16:10:56Z</time><name>PT8438</name></trkpt>
<trkpt lat="52.053933" lon="05.822508"><ele>34.2</ele><time>2021-01-12T16:10:57Z</time><name>PT8439</name></trkpt>
<trkpt lat="52.053939" lon="05.822524"><ele>34.3</ele><time>2021-01-12T16:10:57Z</time><name>PT8440</name></trkpt>
<trkpt lat="52.053942" lon="05.822542"><ele>34.2</ele><time>2021-01-12T16:10:59Z</time><name>PT8441</name></trkpt>
<trkpt lat="52.053947" lon="05.822563"><ele>34.2</ele><time>2021-01-12T16:11:00Z</time><name>PT8442</name></trkpt>
<trkpt lat="52.053950" lon="05.822582"><ele>34.2</ele><time>2021-01-12T16:11:00Z</time><name>PT8443</name></trkpt>
<trkpt lat="52.053955" lon="05.822599"><ele>34</ele><time>2021-01-12T16:11:02Z</time><name>PT8444</name></trkpt>
<trkpt lat="52.053955" lon="05.822617"><ele>34</ele><time>2021-01-12T16:11:03Z</time><name>PT8445</name></trkpt>
<trkpt lat="52.053957" lon="05.822636"><ele>34</ele><time>2021-01-12T16:11:03Z</time><name>PT8446</name></trkpt>
<trkpt lat="52.053962" lon="05.822651"><ele>33.8</ele><time>2021-01-12T16:11:05Z</time><name>PT8447</name></trkpt>
<trkpt lat="52.053968" lon="05.822669"><ele>33.7</ele><time>2021-01-12T16:11:06Z</time><name>PT8448</name></trkpt>
<trkpt lat="52.053974" lon="05.822688"><ele>33.7</ele><time>2021-01-12T16:11:06Z</time><name>PT8449</name></trkpt>
<trkpt lat="52.053979" lon="05.822705"><ele>33.9</ele><time>2021-01-12T16:11:08Z</time><name>PT8450</name></trkpt>
<trkpt lat="52.053984" lon="05.822722"><ele>34</ele><time>2021-01-12T16:11:09Z</time><name>PT8451</name></trkpt>
<trkpt lat="52.053989" lon="05.822737"><ele>34</ele><time>2021-01-12T16:11:09Z</time><name>PT8452</name></trkpt>
<trkpt lat="52.053994" lon="05.822754"><ele>33.9</ele><time>2021-01-12T16:11:11Z</time><name>PT8453</name></trkpt>
<trkpt lat="52.054000" lon="05.822772"><ele>33.8</ele><time>2021-01-12T16:11:12Z</time><name>PT8454</name></trkpt>
<trkpt lat="52.054006" lon="05.822789"><ele>33.7</ele><time>2021-01-12T16:11:12Z</time><name>PT8455</name></trkpt>
<trkpt lat="52.054010" lon="05.822807"><ele>33.7</ele><time>2021-01-12T16:11:14Z</time><name>PT8456</name></trkpt>
<trkpt lat="52.054014" lon="05.822829"><ele>33.6</ele><time>2021-01-12T16:11:15Z</time><name>PT8457</name></trkpt>
<trkpt lat="52.054016" lon="05.822848"><ele>33.6</ele><time>2021-01-12T16:11:15Z</time><name>PT8458</name></trkpt>
<trkpt lat="52.054019" lon="05.822865"><ele>33.8</ele><time>2021-01-12T16:11:17Z</time><name>PT8459</name></trkpt>
<trkpt lat="52.054021" lon="05.822887"><ele>33.9</ele><time>2021-01-12T16:11:18Z</time><name>PT8460</name></trkpt>
<trkpt lat="52.054026" lon="05.822903"><ele>33.9</ele><time>2021-01-12T16:11:18Z</time><name>PT8461</name></trkpt>
<trkpt lat="52.054034" lon="05.822921"><ele>34</ele><time>2021-01-12T16:11:20Z</time><name>PT8462</name></trkpt>
<trkpt lat="52.054042" lon="05.822938"><ele>33.7</ele><time>2021-01-12T16:11:21Z</time><name>PT8463</name></trkpt>
<trkpt lat="52.054048" lon="05.822955"><ele>33.7</ele><time>2021-01-12T16:11:21Z</time><name>PT8464</name></trkpt>
<trkpt lat="52.054054" lon="05.822972"><ele>33.5</ele><time>2021-01-12T16:11:23Z</time><name>PT8465</name></trkpt>
<trkpt lat="52.054057" lon="05.822986"><ele>33.6</ele><time>2021-01-12T16:11:24Z</time><name>PT8466</name></trkpt>
<trkpt lat="52.054062" lon="05.823001"><ele>33.6</ele><time>2021-01-12T16:11:24Z</time><name>PT8467</name></trkpt>
<trkpt lat="52.054067" lon="05.823014"><ele>33.8</ele><time>2021-01-12T16:11:26Z</time><name>PT8468</name></trkpt>
<trkpt lat="52.054072" lon="05.823030"><ele>34</ele><time>2021-01-12T16:11:27Z</time><name>PT8469</name></trkpt>
<trkpt lat="52.054078" lon="05.823046"><ele>34.2</ele><time>2021-01-12T16:11:27Z</time><name>PT8470</name></trkpt>
<trkpt lat="52.054082" lon="05.823063"><ele>34.2</ele><time>2021-01-12T16:11:29Z</time><name>PT8471</name></trkpt>
<trkpt lat="52.054088" lon="05.823078"><ele>34</ele><time>2021-01-12T16:11:30Z</time><name>PT8472</name></trkpt>
<trkpt lat="52.054095" lon="05.823093"><ele>34</ele><time>2021-01-12T16:11:30Z</time><name>PT8473</name></trkpt>
<trkpt lat="52.054102" lon="05.823107"><ele>33.7</ele><time>2021-01-12T16:11:32Z</time><name>PT8474</name></trkpt>
<trkpt lat="52.054108" lon="05.823123"><ele>33.7</ele><time>2021-01-12T16:11:33Z</time><name>PT8475</name></trkpt>
<trkpt lat="52.054115" lon="05.823135"><ele>33.8</ele><time>2021-01-12T16:11:33Z</time><name>PT8476</name></trkpt>
<trkpt lat="52.054119" lon="05.823146"><ele>33.9</ele><time>2021-01-12T16:11:35Z</time><name>PT8477</name></trkpt>
<trkpt lat="52.054123" lon="05.823159"><ele>34</ele><time>2021-01-12T16:11:36Z</time><name>PT8478</name></trkpt>
<trkpt lat="52.054129" lon="05.823177"><ele>34</ele><time>2021-01-12T16:11:36Z</time><name>PT8479</name></trkpt>
<trkpt lat="52.054136" lon="05.823194"><ele>34</ele><time>2021-01-12T16:11:38Z</time><name>PT8480</name></trkpt>
<trkpt lat="52.054143" lon="05.823210"><ele>34.1</ele><time>2021-01-12T16:11:39Z</time><name>PT8481</name></trkpt>
<trkpt lat="52.054149" lon="05.823224"><ele>34.2</ele><time>2021-01-12T16:11:39Z</time><name>PT8482</name></trkpt>
<trkpt lat="52.054155" lon="05.823237"><ele>34.4</ele><time>2021-01-12T16:11:41Z</time><name>PT8483</name></trkpt>
<trkpt lat="52.054161" lon="05.823253"><ele>34.5</ele><time>2021-01-12T16:11:42Z</time><name>PT8484</name></trkpt>
<trkpt lat="52.054167" lon="05.823265"><ele>34.5</ele><time>2021-01-12T16:11:42Z</time><name>PT8485</name></trkpt>
<trkpt lat="52.054175" lon="05.823284"><ele>34.5</ele><time>2021-01-12T16:11:44Z</time><name>PT8486</name></trkpt>
<trkpt lat="52.054179" lon="05.823290"><ele>34.4</ele><time>2021-01-12T16:11:45Z</time><name>PT8487</name></trkpt>
<trkpt lat="52.054182" lon="05.823293"><ele>34.4</ele><time>2021-01-12T16:11:45Z</time><name>PT8488</name></trkpt>
<trkpt lat="52.054185" lon="05.823297"><ele>34.4</ele><time>2021-01-12T16:11:47Z</time><name>PT8489</name></trkpt>
<trkpt lat="52.054187" lon="05.823301"><ele>34.5</ele><time>2021-01-12T16:11:48Z</time><name>PT8490</name></trkpt>
<trkpt lat="52.054190" lon="05.823313"><ele>34.5</ele><time>2021-01-12T16:11:48Z</time><name>PT8491</name></trkpt>
<trkpt lat="52.054193" lon="05.823330"><ele>34.4</ele><time>2021-01-12T16:11:50Z</time><name>PT8492</name></trkpt>
<trkpt lat="52.054198" lon="05.823347"><ele>34.5</ele><time>2021-01-12T16:11:51Z</time><name>PT8493</name></trkpt>
<trkpt lat="52.054201" lon="05.823362"><ele>34.5</ele><time>2021-01-12T16:11:51Z</time><name>PT8494</name></trkpt>
<trkpt lat="52.054207" lon="05.823377"><ele>34.5</ele><time>2021-01-12T16:11:53Z</time><name>PT8495</name></trkpt>
<trkpt lat="52.054213" lon="05.823393"><ele>34.5</ele><time>2021-01-12T16:11:54Z</time><name>PT8496</name></trkpt>
<trkpt lat="52.054220" lon="05.823408"><ele>34.5</ele><time>2021-01-12T16:11:54Z</time><name>PT8497</name></trkpt>
<trkpt lat="52.054225" lon="05.823426"><ele>34.8</ele><time>2021-01-12T16:11:56Z</time><name>PT8498</name></trkpt>
<trkpt lat="52.054229" lon="05.823441"><ele>34.7</ele><time>2021-01-12T16:11:57Z</time><name>PT8499</name></trkpt>
<trkpt lat="52.054235" lon="05.823458"><ele>34.7</ele><time>2021-01-12T16:11:57Z</time><name>PT8500</name></trkpt>
<trkpt lat="52.054242" lon="05.823477"><ele>34.5</ele><time>2021-01-12T16:11:59Z</time><name>PT8501</name></trkpt>
<trkpt lat="52.054248" lon="05.823495"><ele>34.4</ele><time>2021-01-12T16:12:00Z</time><name>PT8502</name></trkpt>
<trkpt lat="52.054253" lon="05.823514"><ele>34.5</ele><time>2021-01-12T16:12:00Z</time><name>PT8503</name></trkpt>
<trkpt lat="52.054259" lon="05.823533"><ele>34.6</ele><time>2021-01-12T16:12:02Z</time><name>PT8504</name></trkpt>
<trkpt lat="52.054265" lon="05.823552"><ele>34.8</ele><time>2021-01-12T16:12:03Z</time><name>PT8505</name></trkpt>
<trkpt lat="52.054272" lon="05.823572"><ele>34.9</ele><time>2021-01-12T16:12:03Z</time><name>PT8506</name></trkpt>
<trkpt lat="52.054275" lon="05.823589"><ele>34.8</ele><time>2021-01-12T16:12:05Z</time><name>PT8507</name></trkpt>
<trkpt lat="52.054281" lon="05.823606"><ele>34.9</ele><time>2021-01-12T16:12:06Z</time><name>PT8508</name></trkpt>
<trkpt lat="52.054286" lon="05.823625"><ele>34.8</ele><time>2021-01-12T16:12:06Z</time><name>PT8509</name></trkpt>
<trkpt lat="52.054292" lon="05.823642"><ele>34.9</ele><time>2021-01-12T16:12:08Z</time><name>PT8510</name></trkpt>
<trkpt lat="52.054299" lon="05.823658"><ele>35</ele><time>2021-01-12T16:12:09Z</time><name>PT8511</name></trkpt>
<trkpt lat="52.054306" lon="05.823676"><ele>35</ele><time>2021-01-12T16:12:09Z</time><name>PT8512</name></trkpt>
<trkpt lat="52.054312" lon="05.823692"><ele>35.1</ele><time>2021-01-12T16:12:11Z</time><name>PT8513</name></trkpt>
<trkpt lat="52.054318" lon="05.823710"><ele>35.1</ele><time>2021-01-12T16:12:12Z</time><name>PT8514</name></trkpt>
<trkpt lat="52.054324" lon="05.823728"><ele>35</ele><time>2021-01-12T16:12:12Z</time><name>PT8515</name></trkpt>
<trkpt lat="52.054332" lon="05.823747"><ele>35.1</ele><time>2021-01-12T16:12:14Z</time><name>PT8516</name></trkpt>
<trkpt lat="52.054340" lon="05.823765"><ele>35.1</ele><time>2021-01-12T16:12:15Z</time><name>PT8517</name></trkpt>
<trkpt lat="52.054346" lon="05.823785"><ele>35</ele><time>2021-01-12T16:12:15Z</time><name>PT8518</name></trkpt>
<trkpt lat="52.054352" lon="05.823803"><ele>35</ele><time>2021-01-12T16:12:17Z</time><name>PT8519</name></trkpt>
<trkpt lat="52.054357" lon="05.823822"><ele>35.1</ele><time>2021-01-12T16:12:18Z</time><name>PT8520</name></trkpt>
<trkpt lat="52.054361" lon="05.823840"><ele>35</ele><time>2021-01-12T16:12:18Z</time><name>PT8521</name></trkpt>
<trkpt lat="52.054365" lon="05.823853"><ele>34.9</ele><time>2021-01-12T16:12:20Z</time><name>PT8522</name></trkpt>
<trkpt lat="52.054370" lon="05.823869"><ele>34.9</ele><time>2021-01-12T16:12:21Z</time><name>PT8523</name></trkpt>
<trkpt lat="52.054377" lon="05.823885"><ele>34.8</ele><time>2021-01-12T16:12:21Z</time><name>PT8524</name></trkpt>
<trkpt lat="52.054383" lon="05.823901"><ele>34.7</ele><time>2021-01-12T16:12:23Z</time><name>PT8525</name></trkpt>
<trkpt lat="52.054389" lon="05.823917"><ele>34.6</ele><time>2021-01-12T16:12:24Z</time><name>PT8526</name></trkpt>
<trkpt lat="52.054392" lon="05.823934"><ele>34.7</ele><time>2021-01-12T16:12:24Z</time><name>PT8527</name></trkpt>
<trkpt lat="52.054397" lon="05.823951"><ele>34.7</ele><time>2021-01-12T16:12:26Z</time><name>PT8528</name></trkpt>
<trkpt lat="52.054402" lon="05.823970"><ele>34.7</ele><time>2021-01-12T16:12:27Z</time><name>PT8529</name></trkpt>
<trkpt lat="52.054409" lon="05.823988"><ele>34.8</ele><time>2021-01-12T16:12:27Z</time><name>PT8530</name></trkpt>
<trkpt lat="52.054414" lon="05.824007"><ele>34.8</ele><time>2021-01-12T16:12:29Z</time><name>PT8531</name></trkpt>
<trkpt lat="52.054419" lon="05.824023"><ele>34.6</ele><time>2021-01-12T16:12:30Z</time><name>PT8532</name></trkpt>
<trkpt lat="52.054424" lon="05.824039"><ele>34.5</ele><time>2021-01-12T16:12:30Z</time><name>PT8533</name></trkpt>
<trkpt lat="52.054430" lon="05.824056"><ele>34.4</ele><time>2021-01-12T16:12:32Z</time><name>PT8534</name></trkpt>
<trkpt lat="52.054435" lon="05.824072"><ele>34.4</ele><time>2021-01-12T16:12:33Z</time><name>PT8535</name></trkpt>
<trkpt lat="52.054441" lon="05.824090"><ele>34.4</ele><time>2021-01-12T16:12:33Z</time><name>PT8536</name></trkpt>
<trkpt lat="52.054445" lon="05.824106"><ele>34.4</ele><time>2021-01-12T16:12:35Z</time><name>PT8537</name></trkpt>
<trkpt lat="52.054451" lon="05.824121"><ele>34.3</ele><time>2021-01-12T16:12:36Z</time><name>PT8538</name></trkpt>
<trkpt lat="52.054455" lon="05.824135"><ele>34.4</ele><time>2021-01-12T16:12:36Z</time><name>PT8539</name></trkpt>
<trkpt lat="52.054459" lon="05.824149"><ele>34.4</ele><time>2021-01-12T16:12:38Z</time><name>PT8540</name></trkpt>
<trkpt lat="52.054463" lon="05.824166"><ele>34.8</ele><time>2021-01-12T16:12:39Z</time><name>PT8541</name></trkpt>
<trkpt lat="52.054468" lon="05.824184"><ele>34.9</ele><time>2021-01-12T16:12:39Z</time><name>PT8542</name></trkpt>
<trkpt lat="52.054472" lon="05.824201"><ele>35.1</ele><time>2021-01-12T16:12:41Z</time><name>PT8543</name></trkpt>
<trkpt lat="52.054480" lon="05.824220"><ele>35.1</ele><time>2021-01-12T16:12:42Z</time><name>PT8544</name></trkpt>
<trkpt lat="52.054484" lon="05.824239"><ele>35.1</ele><time>2021-01-12T16:12:42Z</time><name>PT8545</name></trkpt>
<trkpt lat="52.054490" lon="05.824259"><ele>35</ele><time>2021-01-12T16:12:44Z</time><name>PT8546</name></trkpt>
<trkpt lat="52.054495" lon="05.824278"><ele>35.1</ele><time>2021-01-12T16:12:45Z</time><name>PT8547</name></trkpt>
<trkpt lat="52.054501" lon="05.824297"><ele>35</ele><time>2021-01-12T16:12:45Z</time><name>PT8548</name></trkpt>
<trkpt lat="52.054506" lon="05.824316"><ele>35</ele><time>2021-01-12T16:12:47Z</time><name>PT8549</name></trkpt>
<trkpt lat="52.054510" lon="05.824333"><ele>35.1</ele><time>2021-01-12T16:12:48Z</time><name>PT8550</name></trkpt>
<trkpt lat="52.054515" lon="05.824352"><ele>35</ele><time>2021-01-12T16:12:49Z</time><name>PT8551</name></trkpt>
<trkpt lat="52.054519" lon="05.824369"><ele>35.1</ele><time>2021-01-12T16:12:50Z</time><name>PT8552</name></trkpt>
<trkpt lat="52.054527" lon="05.824387"><ele>35.1</ele><time>2021-01-12T16:12:51Z</time><name>PT8553</name></trkpt>
<trkpt lat="52.054532" lon="05.824401"><ele>35</ele><time>2021-01-12T16:12:51Z</time><name>PT8554</name></trkpt>
<trkpt lat="52.054535" lon="05.824415"><ele>34.9</ele><time>2021-01-12T16:12:53Z</time><name>PT8555</name></trkpt>
<trkpt lat="52.054539" lon="05.824430"><ele>34.7</ele><time>2021-01-12T16:12:54Z</time><name>PT8556</name></trkpt>
<trkpt lat="52.054545" lon="05.824447"><ele>34.8</ele><time>2021-01-12T16:12:54Z</time><name>PT8557</name></trkpt>
<trkpt lat="52.054551" lon="05.824462"><ele>34.7</ele><time>2021-01-12T16:12:56Z</time><name>PT8558</name></trkpt>
<trkpt lat="52.054557" lon="05.824476"><ele>34.5</ele><time>2021-01-12T16:12:57Z</time><name>PT8559</name></trkpt>
<trkpt lat="52.054560" lon="05.824490"><ele>34.6</ele><time>2021-01-12T16:12:57Z</time><name>PT8560</name></trkpt>
<trkpt lat="52.054564" lon="05.824504"><ele>34.5</ele><time>2021-01-12T16:12:59Z</time><name>PT8561</name></trkpt>
<trkpt lat="52.054567" lon="05.824520"><ele>34.4</ele><time>2021-01-12T16:13:00Z</time><name>PT8562</name></trkpt>
<trkpt lat="52.054572" lon="05.824536"><ele>34.5</ele><time>2021-01-12T16:13:00Z</time><name>PT8563</name></trkpt>
<trkpt lat="52.054576" lon="05.824554"><ele>34.4</ele><time>2021-01-12T16:13:02Z</time><name>PT8564</name></trkpt>
<trkpt lat="52.054581" lon="05.824568"><ele>34.5</ele><time>2021-01-12T16:13:03Z</time><name>PT8565</name></trkpt>
<trkpt lat="52.054588" lon="05.824583"><ele>34.5</ele><time>2021-01-12T16:13:03Z</time><name>PT8566</name></trkpt>
<trkpt lat="52.054594" lon="05.824597"><ele>34.5</ele><time>2021-01-12T16:13:05Z</time><name>PT8567</name></trkpt>
<trkpt lat="52.054601" lon="05.824613"><ele>34.5</ele><time>2021-01-12T16:13:06Z</time><name>PT8568</name></trkpt>
<trkpt lat="52.054609" lon="05.824629"><ele>34.5</ele><time>2021-01-12T16:13:06Z</time><name>PT8569</name></trkpt>
<trkpt lat="52.054614" lon="05.824645"><ele>34.9</ele><time>2021-01-12T16:13:08Z</time><name>PT8570</name></trkpt>
<trkpt lat="52.054617" lon="05.824660"><ele>34.7</ele><time>2021-01-12T16:13:09Z</time><name>PT8571</name></trkpt>
<trkpt lat="52.054621" lon="05.824679"><ele>34.7</ele><time>2021-01-12T16:13:09Z</time><name>PT8572</name></trkpt>
<trkpt lat="52.054625" lon="05.824696"><ele>35</ele><time>2021-01-12T16:13:11Z</time><name>PT8573</name></trkpt>
<trkpt lat="52.054631" lon="05.824716"><ele>35.1</ele><time>2021-01-12T16:13:12Z</time><name>PT8574</name></trkpt>
<trkpt lat="52.054635" lon="05.824733"><ele>35.5</ele><time>2021-01-12T16:13:12Z</time><name>PT8575</name></trkpt>
<trkpt lat="52.054639" lon="05.824748"><ele>35.7</ele><time>2021-01-12T16:13:14Z</time><name>PT8576</name></trkpt>
<trkpt lat="52.054645" lon="05.824765"><ele>35.6</ele><time>2021-01-12T16:13:15Z</time><name>PT8577</name></trkpt>
<trkpt lat="52.054652" lon="05.824780"><ele>35.5</ele><time>2021-01-12T16:13:15Z</time><name>PT8578</name></trkpt>
<trkpt lat="52.054658" lon="05.824798"><ele>35.3</ele><time>2021-01-12T16:13:17Z</time><name>PT8579</name></trkpt>
<trkpt lat="52.054662" lon="05.824811"><ele>35.1</ele><time>2021-01-12T16:13:18Z</time><name>PT8580</name></trkpt>
<trkpt lat="52.054666" lon="05.824822"><ele>35.1</ele><time>2021-01-12T16:13:18Z</time><name>PT8581</name></trkpt>
<trkpt lat="52.054671" lon="05.824835"><ele>35.1</ele><time>2021-01-12T16:13:20Z</time><name>PT8582</name></trkpt>
<trkpt lat="52.054677" lon="05.824852"><ele>35.1</ele><time>2021-01-12T16:13:21Z</time><name>PT8583</name></trkpt>
<trkpt lat="52.054682" lon="05.824868"><ele>35.1</ele><time>2021-01-12T16:13:21Z</time><name>PT8584</name></trkpt>
<trkpt lat="52.054688" lon="05.824887"><ele>35.4</ele><time>2021-01-12T16:13:23Z</time><name>PT8585</name></trkpt>
<trkpt lat="52.054692" lon="05.824903"><ele>35.4</ele><time>2021-01-12T16:13:24Z</time><name>PT8586</name></trkpt>
<trkpt lat="52.054699" lon="05.824915"><ele>35.5</ele><time>2021-01-12T16:13:24Z</time><name>PT8587</name></trkpt>
<trkpt lat="52.054703" lon="05.824927"><ele>35.5</ele><time>2021-01-12T16:13:26Z</time><name>PT8588</name></trkpt>
<trkpt lat="52.054709" lon="05.824941"><ele>35.3</ele><time>2021-01-12T16:13:27Z</time><name>PT8589</name></trkpt>
<trkpt lat="52.054715" lon="05.824951"><ele>35.2</ele><time>2021-01-12T16:13:27Z</time><name>PT8590</name></trkpt>
<trkpt lat="52.054718" lon="05.824964"><ele>35</ele><time>2021-01-12T16:13:29Z</time><name>PT8591</name></trkpt>
<trkpt lat="52.054722" lon="05.824976"><ele>34.9</ele><time>2021-01-12T16:13:30Z</time><name>PT8592</name></trkpt>
<trkpt lat="52.054728" lon="05.824990"><ele>34.8</ele><time>2021-01-12T16:13:30Z</time><name>PT8593</name></trkpt>
<trkpt lat="52.054732" lon="05.825003"><ele>35</ele><time>2021-01-12T16:13:32Z</time><name>PT8594</name></trkpt>
<trkpt lat="52.054736" lon="05.825015"><ele>35</ele><time>2021-01-12T16:13:33Z</time><name>PT8595</name></trkpt>
<trkpt lat="52.054739" lon="05.825029"><ele>35.1</ele><time>2021-01-12T16:13:33Z</time><name>PT8596</name></trkpt>
<trkpt lat="52.054743" lon="05.825045"><ele>35</ele><time>2021-01-12T16:13:35Z</time><name>PT8597</name></trkpt>
<trkpt lat="52.054747" lon="05.825061"><ele>35.1</ele><time>2021-01-12T16:13:36Z</time><name>PT8598</name></trkpt>
<trkpt lat="52.054750" lon="05.825074"><ele>35.1</ele><time>2021-01-12T16:13:36Z</time><name>PT8599</name></trkpt>
<trkpt lat="52.054754" lon="05.825086"><ele>35.3</ele><time>2021-01-12T16:13:38Z</time><name>PT8600</name></trkpt>
<trkpt lat="52.054759" lon="05.825100"><ele>35.4</ele><time>2021-01-12T16:13:39Z</time><name>PT8601</name></trkpt>
<trkpt lat="52.054765" lon="05.825113"><ele>35.5</ele><time>2021-01-12T16:13:39Z</time><name>PT8602</name></trkpt>
<trkpt lat="52.054771" lon="05.825126"><ele>35.4</ele><time>2021-01-12T16:13:41Z</time><name>PT8603</name></trkpt>
<trkpt lat="52.054776" lon="05.825138"><ele>35.3</ele><time>2021-01-12T16:13:42Z</time><name>PT8604</name></trkpt>
<trkpt lat="52.054780" lon="05.825150"><ele>35.4</ele><time>2021-01-12T16:13:42Z</time><name>PT8605</name></trkpt>
<trkpt lat="52.054781" lon="05.825162"><ele>35.6</ele><time>2021-01-12T16:13:44Z</time><name>PT8606</name></trkpt>
<trkpt lat="52.054783" lon="05.825174"><ele>35.7</ele><time>2021-01-12T16:13:45Z</time><name>PT8607</name></trkpt>
<trkpt lat="52.054787" lon="05.825187"><ele>35.7</ele><time>2021-01-12T16:13:45Z</time><name>PT8608</name></trkpt>
<trkpt lat="52.054789" lon="05.825202"><ele>35.6</ele><time>2021-01-12T16:13:47Z</time><name>PT8609</name></trkpt>
<trkpt lat="52.054790" lon="05.825215"><ele>35.7</ele><time>2021-01-12T16:13:48Z</time><name>PT8610</name></trkpt>
<trkpt lat="52.054791" lon="05.825219"><ele>35.6</ele><time>2021-01-12T16:13:48Z</time><name>PT8611</name></trkpt>
<trkpt lat="52.054792" lon="05.825220"><ele>35.6</ele><time>2021-01-12T16:13:50Z</time><name>PT8612</name></trkpt>
<trkpt lat="52.054793" lon="05.825221"><ele>35.8</ele><time>2021-01-12T16:13:51Z</time><name>PT8613</name></trkpt>
<trkpt lat="52.054794" lon="05.825225"><ele>35.6</ele><time>2021-01-12T16:13:53Z</time><name>PT8614</name></trkpt>
<trkpt lat="52.054798" lon="05.825239"><ele>35.6</ele><time>2021-01-12T16:13:54Z</time><name>PT8615</name></trkpt>
<trkpt lat="52.054802" lon="05.825253"><ele>35.6</ele><time>2021-01-12T16:13:54Z</time><name>PT8616</name></trkpt>
<trkpt lat="52.054806" lon="05.825266"><ele>35.4</ele><time>2021-01-12T16:13:56Z</time><name>PT8617</name></trkpt>
<trkpt lat="52.054808" lon="05.825276"><ele>35.5</ele><time>2021-01-12T16:13:57Z</time><name>PT8618</name></trkpt>
<trkpt lat="52.054809" lon="05.825283"><ele>35.3</ele><time>2021-01-12T16:13:57Z</time><name>PT8619</name></trkpt>
<trkpt lat="52.054813" lon="05.825296"><ele>35.5</ele><time>2021-01-12T16:13:59Z</time><name>PT8620</name></trkpt>
<trkpt lat="52.054814" lon="05.825313"><ele>35.6</ele><time>2021-01-12T16:14:00Z</time><name>PT8621</name></trkpt>
<trkpt lat="52.054815" lon="05.825330"><ele>35.6</ele><time>2021-01-12T16:14:00Z</time><name>PT8622</name></trkpt>
<trkpt lat="52.054818" lon="05.825346"><ele>35.6</ele><time>2021-01-12T16:14:02Z</time><name>PT8623</name></trkpt>
<trkpt lat="52.054822" lon="05.825364"><ele>35.6</ele><time>2021-01-12T16:14:03Z</time><name>PT8624</name></trkpt>
<trkpt lat="52.054827" lon="05.825381"><ele>35.5</ele><time>2021-01-12T16:14:03Z</time><name>PT8625</name></trkpt>
<trkpt lat="52.054831" lon="05.825400"><ele>35.5</ele><time>2021-01-12T16:14:05Z</time><name>PT8626</name></trkpt>
<trkpt lat="52.054835" lon="05.825421"><ele>35.3</ele><time>2021-01-12T16:14:06Z</time><name>PT8627</name></trkpt>
<trkpt lat="52.054838" lon="05.825439"><ele>35.3</ele><time>2021-01-12T16:14:06Z</time><name>PT8628</name></trkpt>
<trkpt lat="52.054844" lon="05.825452"><ele>35.4</ele><time>2021-01-12T16:14:08Z</time><name>PT8629</name></trkpt>
<trkpt lat="52.054850" lon="05.825467"><ele>35.4</ele><time>2021-01-12T16:14:09Z</time><name>PT8630</name></trkpt>
<trkpt lat="52.054857" lon="05.825482"><ele>35.5</ele><time>2021-01-12T16:14:09Z</time><name>PT8631</name></trkpt>
<trkpt lat="52.054862" lon="05.825497"><ele>35.6</ele><time>2021-01-12T16:14:11Z</time><name>PT8632</name></trkpt>
<trkpt lat="52.054867" lon="05.825511"><ele>35.6</ele><time>2021-01-12T16:14:12Z</time><name>PT8633</name></trkpt>
<trkpt lat="52.054870" lon="05.825527"><ele>35.6</ele><time>2021-01-12T16:14:12Z</time><name>PT8634</name></trkpt>
<trkpt lat="52.054875" lon="05.825543"><ele>35.7</ele><time>2021-01-12T16:14:14Z</time><name>PT8635</name></trkpt>
<trkpt lat="52.054880" lon="05.825562"><ele>35.7</ele><time>2021-01-12T16:14:15Z</time><name>PT8636</name></trkpt>
<trkpt lat="52.054883" lon="05.825582"><ele>35.9</ele><time>2021-01-12T16:14:15Z</time><name>PT8637</name></trkpt>
<trkpt lat="52.054886" lon="05.825601"><ele>35.9</ele><time>2021-01-12T16:14:17Z</time><name>PT8638</name></trkpt>
<trkpt lat="52.054889" lon="05.825619"><ele>35.9</ele><time>2021-01-12T16:14:18Z</time><name>PT8639</name></trkpt>
<trkpt lat="52.054891" lon="05.825636"><ele>35.8</ele><time>2021-01-12T16:14:18Z</time><name>PT8640</name></trkpt>
<trkpt lat="52.054894" lon="05.825653"><ele>35.7</ele><time>2021-01-12T16:14:20Z</time><name>PT8641</name></trkpt>
<trkpt lat="52.054901" lon="05.825670"><ele>35.9</ele><time>2021-01-12T16:14:21Z</time><name>PT8642</name></trkpt>
<trkpt lat="52.054906" lon="05.825687"><ele>35.9</ele><time>2021-01-12T16:14:21Z</time><name>PT8643</name></trkpt>
<trkpt lat="52.054912" lon="05.825703"><ele>35.9</ele><time>2021-01-12T16:14:23Z</time><name>PT8644</name></trkpt>
<trkpt lat="52.054918" lon="05.825718"><ele>35.8</ele><time>2021-01-12T16:14:24Z</time><name>PT8645</name></trkpt>
<trkpt lat="52.054921" lon="05.825730"><ele>35.6</ele><time>2021-01-12T16:14:24Z</time><name>PT8646</name></trkpt>
<trkpt lat="52.054926" lon="05.825743"><ele>35.6</ele><time>2021-01-12T16:14:26Z</time><name>PT8647</name></trkpt>
<trkpt lat="52.054929" lon="05.825759"><ele>35.7</ele><time>2021-01-12T16:14:27Z</time><name>PT8648</name></trkpt>
<trkpt lat="52.054934" lon="05.825777"><ele>35.7</ele><time>2021-01-12T16:14:27Z</time><name>PT8649</name></trkpt>
<trkpt lat="52.054938" lon="05.825797"><ele>35.6</ele><time>2021-01-12T16:14:29Z</time><name>PT8650</name></trkpt>
<trkpt lat="52.054943" lon="05.825820"><ele>35.6</ele><time>2021-01-12T16:14:30Z</time><name>PT8651</name></trkpt>
<trkpt lat="52.054947" lon="05.825841"><ele>35.3</ele><time>2021-01-12T16:14:30Z</time><name>PT8652</name></trkpt>
<trkpt lat="52.054952" lon="05.825860"><ele>35.4</ele><time>2021-01-12T16:14:32Z</time><name>PT8653</name></trkpt>
<trkpt lat="52.054955" lon="05.825880"><ele>35.5</ele><time>2021-01-12T16:14:33Z</time><name>PT8654</name></trkpt>
<trkpt lat="52.054959" lon="05.825899"><ele>35.4</ele><time>2021-01-12T16:14:33Z</time><name>PT8655</name></trkpt>
<trkpt lat="52.054964" lon="05.825917"><ele>35.5</ele><time>2021-01-12T16:14:35Z</time><name>PT8656</name></trkpt>
<trkpt lat="52.054971" lon="05.825934"><ele>35.6</ele><time>2021-01-12T16:14:36Z</time><name>PT8657</name></trkpt>
<trkpt lat="52.054977" lon="05.825950"><ele>35.4</ele><time>2021-01-12T16:14:36Z</time><name>PT8658</name></trkpt>
<trkpt lat="52.054985" lon="05.825964"><ele>35.6</ele><time>2021-01-12T16:14:38Z</time><name>PT8659</name></trkpt>
<trkpt lat="52.054992" lon="05.825978"><ele>35.6</ele><time>2021-01-12T16:14:39Z</time><name>PT8660</name></trkpt>
<trkpt lat="52.054997" lon="05.825992"><ele>35.6</ele><time>2021-01-12T16:14:39Z</time><name>PT8661</name></trkpt>
<trkpt lat="52.055002" lon="05.826010"><ele>35.8</ele><time>2021-01-12T16:14:41Z</time><name>PT8662</name></trkpt>
<trkpt lat="52.055006" lon="05.826028"><ele>36</ele><time>2021-01-12T16:14:42Z</time><name>PT8663</name></trkpt>
<trkpt lat="52.055009" lon="05.826044"><ele>36</ele><time>2021-01-12T16:14:42Z</time><name>PT8664</name></trkpt>
<trkpt lat="52.055011" lon="05.826050"><ele>36.1</ele><time>2021-01-12T16:14:44Z</time><name>PT8665</name></trkpt>
<trkpt lat="52.055013" lon="05.826058"><ele>36</ele><time>2021-01-12T16:14:45Z</time><name>PT8666</name></trkpt>
<trkpt lat="52.055017" lon="05.826068"><ele>36.1</ele><time>2021-01-12T16:14:45Z</time><name>PT8667</name></trkpt>
<trkpt lat="52.055023" lon="05.826081"><ele>36.1</ele><time>2021-01-12T16:14:47Z</time><name>PT8668</name></trkpt>
<trkpt lat="52.055030" lon="05.826094"><ele>36</ele><time>2021-01-12T16:14:48Z</time><name>PT8669</name></trkpt>
<trkpt lat="52.055035" lon="05.826105"><ele>36</ele><time>2021-01-12T16:14:48Z</time><name>PT8670</name></trkpt>
<trkpt lat="52.055040" lon="05.826117"><ele>35.8</ele><time>2021-01-12T16:14:50Z</time><name>PT8671</name></trkpt>
<trkpt lat="52.055045" lon="05.826131"><ele>35.6</ele><time>2021-01-12T16:14:51Z</time><name>PT8672</name></trkpt>
<trkpt lat="52.055049" lon="05.826148"><ele>35.5</ele><time>2021-01-12T16:14:51Z</time><name>PT8673</name></trkpt>
<trkpt lat="52.055054" lon="05.826161"><ele>35.4</ele><time>2021-01-12T16:14:53Z</time><name>PT8674</name></trkpt>
<trkpt lat="52.055060" lon="05.826172"><ele>35</ele><time>2021-01-12T16:14:54Z</time><name>PT8675</name></trkpt>
<trkpt lat="52.055067" lon="05.826183"><ele>34.9</ele><time>2021-01-12T16:14:54Z</time><name>PT8676</name></trkpt>
<trkpt lat="52.055075" lon="05.826195"><ele>35</ele><time>2021-01-12T16:14:56Z</time><name>PT8677</name></trkpt>
<trkpt lat="52.055081" lon="05.826204"><ele>35</ele><time>2021-01-12T16:14:57Z</time><name>PT8678</name></trkpt>
<trkpt lat="52.055087" lon="05.826213"><ele>35.1</ele><time>2021-01-12T16:14:57Z</time><name>PT8679</name></trkpt>
<trkpt lat="52.055093" lon="05.826222"><ele>35.3</ele><time>2021-01-12T16:14:59Z</time><name>PT8680</name></trkpt>
<trkpt lat="52.055100" lon="05.826234"><ele>35.5</ele><time>2021-01-12T16:15:00Z</time><name>PT8681</name></trkpt>
<trkpt lat="52.055109" lon="05.826246"><ele>35.6</ele><time>2021-01-12T16:15:00Z</time><name>PT8682</name></trkpt>
<trkpt lat="52.055116" lon="05.826255"><ele>35.6</ele><time>2021-01-12T16:15:02Z</time><name>PT8683</name></trkpt>
<trkpt lat="52.055120" lon="05.826262"><ele>35.7</ele><time>2021-01-12T16:15:03Z</time><name>PT8684</name></trkpt>
<trkpt lat="52.055124" lon="05.826269"><ele>35.8</ele><time>2021-01-12T16:15:03Z</time><name>PT8685</name></trkpt>
<trkpt lat="52.055131" lon="05.826277"><ele>35.7</ele><time>2021-01-12T16:15:05Z</time><name>PT8686</name></trkpt>
<trkpt lat="52.055139" lon="05.826286"><ele>35.6</ele><time>2021-01-12T16:15:06Z</time><name>PT8687</name></trkpt>
<trkpt lat="52.055146" lon="05.826296"><ele>35.6</ele><time>2021-01-12T16:15:06Z</time><name>PT8688</name></trkpt>
<trkpt lat="52.055156" lon="05.826305"><ele>35.4</ele><time>2021-01-12T16:15:08Z</time><name>PT8689</name></trkpt>
<trkpt lat="52.055165" lon="05.826312"><ele>35.3</ele><time>2021-01-12T16:15:09Z</time><name>PT8690</name></trkpt>
<trkpt lat="52.055176" lon="05.826320"><ele>35.1</ele><time>2021-01-12T16:15:09Z</time><name>PT8691</name></trkpt>
<trkpt lat="52.055185" lon="05.826328"><ele>35.4</ele><time>2021-01-12T16:15:11Z</time><name>PT8692</name></trkpt>
<trkpt lat="52.055192" lon="05.826337"><ele>35.6</ele><time>2021-01-12T16:15:12Z</time><name>PT8693</name></trkpt>
<trkpt lat="52.055200" lon="05.826349"><ele>35.6</ele><time>2021-01-12T16:15:12Z</time><name>PT8694</name></trkpt>
<trkpt lat="52.055206" lon="05.826363"><ele>35.8</ele><time>2021-01-12T16:15:14Z</time><name>PT8695</name></trkpt>
<trkpt lat="52.055214" lon="05.826377"><ele>35.9</ele><time>2021-01-12T16:15:15Z</time><name>PT8696</name></trkpt>
<trkpt lat="52.055221" lon="05.826390"><ele>36.1</ele><time>2021-01-12T16:15:15Z</time><name>PT8697</name></trkpt>
<trkpt lat="52.055232" lon="05.826401"><ele>36.4</ele><time>2021-01-12T16:15:17Z</time><name>PT8698</name></trkpt>
<trkpt lat="52.055242" lon="05.826412"><ele>36.2</ele><time>2021-01-12T16:15:18Z</time><name>PT8699</name></trkpt>
<trkpt lat="52.055254" lon="05.826423"><ele>36.4</ele><time>2021-01-12T16:15:18Z</time><name>PT8700</name></trkpt>
<trkpt lat="52.055265" lon="05.826436"><ele>36.2</ele><time>2021-01-12T16:15:20Z</time><name>PT8701</name></trkpt>
<trkpt lat="52.055274" lon="05.826449"><ele>36</ele><time>2021-01-12T16:15:21Z</time><name>PT8702</name></trkpt>
<trkpt lat="52.055280" lon="05.826458"><ele>36.1</ele><time>2021-01-12T16:15:21Z</time><name>PT8703</name></trkpt>
<trkpt lat="52.055290" lon="05.826471"><ele>36.1</ele><time>2021-01-12T16:15:23Z</time><name>PT8704</name></trkpt>
<trkpt lat="52.055298" lon="05.826483"><ele>36.1</ele><time>2021-01-12T16:15:24Z</time><name>PT8705</name></trkpt>
<trkpt lat="52.055307" lon="05.826493"><ele>36.2</ele><time>2021-01-12T16:15:24Z</time><name>PT8706</name></trkpt>
<trkpt lat="52.055316" lon="05.826499"><ele>36.3</ele><time>2021-01-12T16:15:26Z</time><name>PT8707</name></trkpt>
<trkpt lat="52.055326" lon="05.826507"><ele>36.4</ele><time>2021-01-12T16:15:27Z</time><name>PT8708</name></trkpt>
<trkpt lat="52.055335" lon="05.826517"><ele>36.6</ele><time>2021-01-12T16:15:27Z</time><name>PT8709</name></trkpt>
<trkpt lat="52.055345" lon="05.826528"><ele>36.3</ele><time>2021-01-12T16:15:29Z</time><name>PT8710</name></trkpt>
<trkpt lat="52.055354" lon="05.826535"><ele>36.2</ele><time>2021-01-12T16:15:30Z</time><name>PT8711</name></trkpt>
<trkpt lat="52.055364" lon="05.826542"><ele>36.2</ele><time>2021-01-12T16:15:30Z</time><name>PT8712</name></trkpt>
<trkpt lat="52.055371" lon="05.826552"><ele>36</ele><time>2021-01-12T16:15:32Z</time><name>PT8713</name></trkpt>
<trkpt lat="52.055374" lon="05.826564"><ele>36</ele><time>2021-01-12T16:15:33Z</time><name>PT8714</name></trkpt>
<trkpt lat="52.055381" lon="05.826574"><ele>36</ele><time>2021-01-12T16:15:33Z</time><name>PT8715</name></trkpt>
<trkpt lat="52.055388" lon="05.826587"><ele>36.1</ele><time>2021-01-12T16:15:35Z</time><name>PT8716</name></trkpt>
<trkpt lat="52.055400" lon="05.826603"><ele>36.2</ele><time>2021-01-12T16:15:36Z</time><name>PT8717</name></trkpt>
<trkpt lat="52.055409" lon="05.826617"><ele>36.3</ele><time>2021-01-12T16:15:36Z</time><name>PT8718</name></trkpt>
<trkpt lat="52.055417" lon="05.826627"><ele>36.4</ele><time>2021-01-12T16:15:38Z</time><name>PT8719</name></trkpt>
<trkpt lat="52.055424" lon="05.826640"><ele>36.6</ele><time>2021-01-12T16:15:39Z</time><name>PT8720</name></trkpt>
<trkpt lat="52.055432" lon="05.826652"><ele>36.6</ele><time>2021-01-12T16:15:39Z</time><name>PT8721</name></trkpt>
<trkpt lat="52.055443" lon="05.826665"><ele>36.8</ele><time>2021-01-12T16:15:41Z</time><name>PT8722</name></trkpt>
<trkpt lat="52.055453" lon="05.826678"><ele>37</ele><time>2021-01-12T16:15:42Z</time><name>PT8723</name></trkpt>
<trkpt lat="52.055460" lon="05.826691"><ele>37</ele><time>2021-01-12T16:15:42Z</time><name>PT8724</name></trkpt>
<trkpt lat="52.055469" lon="05.826702"><ele>36.9</ele><time>2021-01-12T16:15:44Z</time><name>PT8725</name></trkpt>
<trkpt lat="52.055474" lon="05.826716"><ele>36.8</ele><time>2021-01-12T16:15:45Z</time><name>PT8726</name></trkpt>
<trkpt lat="52.055483" lon="05.826732"><ele>36.7</ele><time>2021-01-12T16:15:45Z</time><name>PT8727</name></trkpt>
<trkpt lat="52.055491" lon="05.826745"><ele>36.7</ele><time>2021-01-12T16:15:47Z</time><name>PT8728</name></trkpt>
<trkpt lat="52.055502" lon="05.826759"><ele>36.8</ele><time>2021-01-12T16:15:48Z</time><name>PT8729</name></trkpt>
<trkpt lat="52.055510" lon="05.826773"><ele>36.9</ele><time>2021-01-12T16:15:48Z</time><name>PT8730</name></trkpt>
<trkpt lat="52.055519" lon="05.826786"><ele>37</ele><time>2021-01-12T16:15:50Z</time><name>PT8731</name></trkpt>
<trkpt lat="52.055527" lon="05.826802"><ele>37.1</ele><time>2021-01-12T16:15:51Z</time><name>PT8732</name></trkpt>
<trkpt lat="52.055536" lon="05.826818"><ele>37</ele><time>2021-01-12T16:15:51Z</time><name>PT8733</name></trkpt>
<trkpt lat="52.055543" lon="05.826831"><ele>36.8</ele><time>2021-01-12T16:15:53Z</time><name>PT8734</name></trkpt>
<trkpt lat="52.055550" lon="05.826843"><ele>36.9</ele><time>2021-01-12T16:15:54Z</time><name>PT8735</name></trkpt>
<trkpt lat="52.055558" lon="05.826858"><ele>36.9</ele><time>2021-01-12T16:15:54Z</time><name>PT8736</name></trkpt>
<trkpt lat="52.055567" lon="05.826871"><ele>36.7</ele><time>2021-01-12T16:15:56Z</time><name>PT8737</name></trkpt>
<trkpt lat="52.055576" lon="05.826883"><ele>37</ele><time>2021-01-12T16:15:57Z</time><name>PT8738</name></trkpt>
<trkpt lat="52.055584" lon="05.826894"><ele>36.9</ele><time>2021-01-12T16:15:57Z</time><name>PT8739</name></trkpt>
<trkpt lat="52.055590" lon="05.826905"><ele>36.8</ele><time>2021-01-12T16:15:59Z</time><name>PT8740</name></trkpt>
<trkpt lat="52.055595" lon="05.826918"><ele>36.9</ele><time>2021-01-12T16:16:00Z</time><name>PT8741</name></trkpt>
<trkpt lat="52.055600" lon="05.826932"><ele>37</ele><time>2021-01-12T16:16:00Z</time><name>PT8742</name></trkpt>
<trkpt lat="52.055604" lon="05.826950"><ele>37</ele><time>2021-01-12T16:16:02Z</time><name>PT8743</name></trkpt>
<trkpt lat="52.055611" lon="05.826968"><ele>37</ele><time>2021-01-12T16:16:03Z</time><name>PT8744</name></trkpt>
<trkpt lat="52.055618" lon="05.826983"><ele>36.9</ele><time>2021-01-12T16:16:03Z</time><name>PT8745</name></trkpt>
<trkpt lat="52.055623" lon="05.826997"><ele>37.1</ele><time>2021-01-12T16:16:05Z</time><name>PT8746</name></trkpt>
<trkpt lat="52.055629" lon="05.827011"><ele>37.1</ele><time>2021-01-12T16:16:06Z</time><name>PT8747</name></trkpt>
<trkpt lat="52.055636" lon="05.827024"><ele>37.2</ele><time>2021-01-12T16:16:06Z</time><name>PT8748</name></trkpt>
<trkpt lat="52.055644" lon="05.827039"><ele>37.4</ele><time>2021-01-12T16:16:08Z</time><name>PT8749</name></trkpt>
<trkpt lat="52.055652" lon="05.827055"><ele>37.4</ele><time>2021-01-12T16:16:09Z</time><name>PT8750</name></trkpt>
<trkpt lat="52.055658" lon="05.827071"><ele>37.6</ele><time>2021-01-12T16:16:09Z</time><name>PT8751</name></trkpt>
<trkpt lat="52.055666" lon="05.827088"><ele>37.8</ele><time>2021-01-12T16:16:11Z</time><name>PT8752</name></trkpt>
<trkpt lat="52.055672" lon="05.827100"><ele>37.8</ele><time>2021-01-12T16:16:12Z</time><name>PT8753</name></trkpt>
<trkpt lat="52.055677" lon="05.827115"><ele>37.9</ele><time>2021-01-12T16:16:12Z</time><name>PT8754</name></trkpt>
<trkpt lat="52.055678" lon="05.827132"><ele>37.8</ele><time>2021-01-12T16:16:14Z</time><name>PT8755</name></trkpt>
<trkpt lat="52.055683" lon="05.827153"><ele>37.6</ele><time>2021-01-12T16:16:15Z</time><name>PT8756</name></trkpt>
<trkpt lat="52.055689" lon="05.827173"><ele>37.6</ele><time>2021-01-12T16:16:15Z</time><name>PT8757</name></trkpt>
<trkpt lat="52.055692" lon="05.827188"><ele>37.8</ele><time>2021-01-12T16:16:17Z</time><name>PT8758</name></trkpt>
<trkpt lat="52.055698" lon="05.827206"><ele>37.6</ele><time>2021-01-12T16:16:18Z</time><name>PT8759</name></trkpt>
<trkpt lat="52.055702" lon="05.827227"><ele>37.7</ele><time>2021-01-12T16:16:18Z</time><name>PT8760</name></trkpt>
<trkpt lat="52.055705" lon="05.827244"><ele>37.7</ele><time>2021-01-12T16:16:20Z</time><name>PT8761</name></trkpt>
<trkpt lat="52.055711" lon="05.827263"><ele>37.4</ele><time>2021-01-12T16:16:21Z</time><name>PT8762</name></trkpt>
<trkpt lat="52.055714" lon="05.827281"><ele>37.4</ele><time>2021-01-12T16:16:21Z</time><name>PT8763</name></trkpt>
<trkpt lat="52.055716" lon="05.827299"><ele>37.3</ele><time>2021-01-12T16:16:23Z</time><name>PT8764</name></trkpt>
<trkpt lat="52.055717" lon="05.827315"><ele>37.3</ele><time>2021-01-12T16:16:24Z</time><name>PT8765</name></trkpt>
<trkpt lat="52.055719" lon="05.827331"><ele>37.3</ele><time>2021-01-12T16:16:24Z</time><name>PT8766</name></trkpt>
<trkpt lat="52.055722" lon="05.827347"><ele>37.3</ele><time>2021-01-12T16:16:26Z</time><name>PT8767</name></trkpt>
<trkpt lat="52.055725" lon="05.827364"><ele>37.2</ele><time>2021-01-12T16:16:27Z</time><name>PT8768</name></trkpt>
<trkpt lat="52.055727" lon="05.827382"><ele>37.1</ele><time>2021-01-12T16:16:27Z</time><name>PT8769</name></trkpt>
<trkpt lat="52.055730" lon="05.827400"><ele>36.7</ele><time>2021-01-12T16:16:29Z</time><name>PT8770</name></trkpt>
<trkpt lat="52.055731" lon="05.827417"><ele>36.6</ele><time>2021-01-12T16:16:30Z</time><name>PT8771</name></trkpt>
<trkpt lat="52.055734" lon="05.827434"><ele>36.6</ele><time>2021-01-12T16:16:30Z</time><name>PT8772</name></trkpt>
<trkpt lat="52.055740" lon="05.827450"><ele>36.5</ele><time>2021-01-12T16:16:32Z</time><name>PT8773</name></trkpt>
<trkpt lat="52.055745" lon="05.827468"><ele>36.6</ele><time>2021-01-12T16:16:33Z</time><name>PT8774</name></trkpt>
<trkpt lat="52.055749" lon="05.827484"><ele>36.5</ele><time>2021-01-12T16:16:33Z</time><name>PT8775</name></trkpt>
<trkpt lat="52.055754" lon="05.827503"><ele>36.6</ele><time>2021-01-12T16:16:35Z</time><name>PT8776</name></trkpt>
<trkpt lat="52.055759" lon="05.827521"><ele>36.8</ele><time>2021-01-12T16:16:36Z</time><name>PT8777</name></trkpt>
<trkpt lat="52.055766" lon="05.827539"><ele>36.9</ele><time>2021-01-12T16:16:36Z</time><name>PT8778</name></trkpt>
<trkpt lat="52.055771" lon="05.827555"><ele>36.8</ele><time>2021-01-12T16:16:38Z</time><name>PT8779</name></trkpt>
<trkpt lat="52.055777" lon="05.827573"><ele>36.9</ele><time>2021-01-12T16:16:39Z</time><name>PT8780</name></trkpt>
<trkpt lat="52.055783" lon="05.827590"><ele>36.9</ele><time>2021-01-12T16:16:39Z</time><name>PT8781</name></trkpt>
<trkpt lat="52.055785" lon="05.827610"><ele>36.9</ele><time>2021-01-12T16:16:41Z</time><name>PT8782</name></trkpt>
<trkpt lat="52.055787" lon="05.827628"><ele>37</ele><time>2021-01-12T16:16:42Z</time><name>PT8783</name></trkpt>
<trkpt lat="52.055791" lon="05.827645"><ele>37.1</ele><time>2021-01-12T16:16:42Z</time><name>PT8784</name></trkpt>
<trkpt lat="52.055795" lon="05.827664"><ele>37.1</ele><time>2021-01-12T16:16:44Z</time><name>PT8785</name></trkpt>
<trkpt lat="52.055798" lon="05.827679"><ele>37.1</ele><time>2021-01-12T16:16:45Z</time><name>PT8786</name></trkpt>
<trkpt lat="52.055804" lon="05.827696"><ele>37.1</ele><time>2021-01-12T16:16:45Z</time><name>PT8787</name></trkpt>
<trkpt lat="52.055809" lon="05.827711"><ele>37.3</ele><time>2021-01-12T16:16:47Z</time><name>PT8788</name></trkpt>
<trkpt lat="52.055814" lon="05.827728"><ele>37.1</ele><time>2021-01-12T16:16:48Z</time><name>PT8789</name></trkpt>
<trkpt lat="52.055818" lon="05.827743"><ele>37.1</ele><time>2021-01-12T16:16:48Z</time><name>PT8790</name></trkpt>
<trkpt lat="52.055821" lon="05.827759"><ele>37.4</ele><time>2021-01-12T16:16:50Z</time><name>PT8791</name></trkpt>
<trkpt lat="52.055824" lon="05.827775"><ele>37.3</ele><time>2021-01-12T16:16:51Z</time><name>PT8792</name></trkpt>
<trkpt lat="52.055828" lon="05.827795"><ele>37.4</ele><time>2021-01-12T16:16:51Z</time><name>PT8793</name></trkpt>
<trkpt lat="52.055831" lon="05.827812"><ele>37.3</ele><time>2021-01-12T16:16:53Z</time><name>PT8794</name></trkpt>
<trkpt lat="52.055833" lon="05.827831"><ele>37.1</ele><time>2021-01-12T16:16:54Z</time><name>PT8795</name></trkpt>
<trkpt lat="52.055834" lon="05.827853"><ele>37.2</ele><time>2021-01-12T16:16:54Z</time><name>PT8796</name></trkpt>
<trkpt lat="52.055836" lon="05.827874"><ele>37.3</ele><time>2021-01-12T16:16:56Z</time><name>PT8797</name></trkpt>
<trkpt lat="52.055837" lon="05.827891"><ele>37.5</ele><time>2021-01-12T16:16:57Z</time><name>PT8798</name></trkpt>
<trkpt lat="52.055840" lon="05.827907"><ele>37.6</ele><time>2021-01-12T16:16:57Z</time><name>PT8799</name></trkpt>
<trkpt lat="52.055841" lon="05.827921"><ele>37.5</ele><time>2021-01-12T16:16:59Z</time><name>PT8800</name></trkpt>
<trkpt lat="52.055844" lon="05.827940"><ele>37.6</ele><time>2021-01-12T16:17:00Z</time><name>PT8801</name></trkpt>
<trkpt lat="52.055848" lon="05.827960"><ele>37.5</ele><time>2021-01-12T16:17:00Z</time><name>PT8802</name></trkpt>
<trkpt lat="52.055854" lon="05.827977"><ele>37.3</ele><time>2021-01-12T16:17:02Z</time><name>PT8803</name></trkpt>
<trkpt lat="52.055858" lon="05.827994"><ele>37.2</ele><time>2021-01-12T16:17:03Z</time><name>PT8804</name></trkpt>
<trkpt lat="52.055861" lon="05.828010"><ele>37.1</ele><time>2021-01-12T16:17:03Z</time><name>PT8805</name></trkpt>
<trkpt lat="52.055864" lon="05.828026"><ele>37.1</ele><time>2021-01-12T16:17:05Z</time><name>PT8806</name></trkpt>
<trkpt lat="52.055867" lon="05.828044"><ele>37.4</ele><time>2021-01-12T16:17:06Z</time><name>PT8807</name></trkpt>
<trkpt lat="52.055869" lon="05.828065"><ele>37.5</ele><time>2021-01-12T16:17:06Z</time><name>PT8808</name></trkpt>
<trkpt lat="52.055874" lon="05.828087"><ele>37.4</ele><time>2021-01-12T16:17:08Z</time><name>PT8809</name></trkpt>
<trkpt lat="52.055876" lon="05.828105"><ele>37.4</ele><time>2021-01-12T16:17:09Z</time><name>PT8810</name></trkpt>
<trkpt lat="52.055877" lon="05.828120"><ele>37.2</ele><time>2021-01-12T16:17:09Z</time><name>PT8811</name></trkpt>
<trkpt lat="52.055880" lon="05.828134"><ele>37.2</ele><time>2021-01-12T16:17:11Z</time><name>PT8812</name></trkpt>
<trkpt lat="52.055883" lon="05.828151"><ele>37.5</ele><time>2021-01-12T16:17:12Z</time><name>PT8813</name></trkpt>
<trkpt lat="52.055885" lon="05.828168"><ele>37.6</ele><time>2021-01-12T16:17:12Z</time><name>PT8814</name></trkpt>
<trkpt lat="52.055891" lon="05.828183"><ele>37.4</ele><time>2021-01-12T16:17:14Z</time><name>PT8815</name></trkpt>
<trkpt lat="52.055895" lon="05.828201"><ele>37.3</ele><time>2021-01-12T16:17:15Z</time><name>PT8816</name></trkpt>
<trkpt lat="52.055899" lon="05.828218"><ele>37.2</ele><time>2021-01-12T16:17:15Z</time><name>PT8817</name></trkpt>
<trkpt lat="52.055900" lon="05.828234"><ele>37.1</ele><time>2021-01-12T16:17:17Z</time><name>PT8818</name></trkpt>
<trkpt lat="52.055904" lon="05.828254"><ele>37.1</ele><time>2021-01-12T16:17:18Z</time><name>PT8819</name></trkpt>
<trkpt lat="52.055907" lon="05.828273"><ele>37.1</ele><time>2021-01-12T16:17:18Z</time><name>PT8820</name></trkpt>
<trkpt lat="52.055910" lon="05.828291"><ele>37.3</ele><time>2021-01-12T16:17:20Z</time><name>PT8821</name></trkpt>
<trkpt lat="52.055915" lon="05.828309"><ele>37.3</ele><time>2021-01-12T16:17:21Z</time><name>PT8822</name></trkpt>
<trkpt lat="52.055919" lon="05.828327"><ele>37.2</ele><time>2021-01-12T16:17:21Z</time><name>PT8823</name></trkpt>
<trkpt lat="52.055925" lon="05.828347"><ele>37.1</ele><time>2021-01-12T16:17:23Z</time><name>PT8824</name></trkpt>
<trkpt lat="52.055930" lon="05.828365"><ele>37.2</ele><time>2021-01-12T16:17:24Z</time><name>PT8825</name></trkpt>
<trkpt lat="52.055935" lon="05.828382"><ele>37.3</ele><time>2021-01-12T16:17:24Z</time><name>PT8826</name></trkpt>
<trkpt lat="52.055941" lon="05.828402"><ele>37.3</ele><time>2021-01-12T16:17:26Z</time><name>PT8827</name></trkpt>
<trkpt lat="52.055945" lon="05.828419"><ele>37.4</ele><time>2021-01-12T16:17:27Z</time><name>PT8828</name></trkpt>
<trkpt lat="52.055948" lon="05.828438"><ele>37.1</ele><time>2021-01-12T16:17:27Z</time><name>PT8829</name></trkpt>
<trkpt lat="52.055951" lon="05.828456"><ele>37.3</ele><time>2021-01-12T16:17:29Z</time><name>PT8830</name></trkpt>
<trkpt lat="52.055954" lon="05.828471"><ele>37.3</ele><time>2021-01-12T16:17:30Z</time><name>PT8831</name></trkpt>
<trkpt lat="52.055956" lon="05.828487"><ele>37.4</ele><time>2021-01-12T16:17:30Z</time><name>PT8832</name></trkpt>
<trkpt lat="52.055955" lon="05.828503"><ele>37.3</ele><time>2021-01-12T16:17:32Z</time><name>PT8833</name></trkpt>
<trkpt lat="52.055955" lon="05.828523"><ele>37.1</ele><time>2021-01-12T16:17:33Z</time><name>PT8834</name></trkpt>
<trkpt lat="52.055956" lon="05.828542"><ele>37.1</ele><time>2021-01-12T16:17:33Z</time><name>PT8835</name></trkpt>
<trkpt lat="52.055957" lon="05.828564"><ele>37</ele><time>2021-01-12T16:17:35Z</time><name>PT8836</name></trkpt>
<trkpt lat="52.055960" lon="05.828583"><ele>36.9</ele><time>2021-01-12T16:17:36Z</time><name>PT8837</name></trkpt>
<trkpt lat="52.055962" lon="05.828601"><ele>36.9</ele><time>2021-01-12T16:17:36Z</time><name>PT8838</name></trkpt>
<trkpt lat="52.055963" lon="05.828620"><ele>36.7</ele><time>2021-01-12T16:17:38Z</time><name>PT8839</name></trkpt>
<trkpt lat="52.055968" lon="05.828638"><ele>36.6</ele><time>2021-01-12T16:17:39Z</time><name>PT8840</name></trkpt>
<trkpt lat="52.055972" lon="05.828655"><ele>36.6</ele><time>2021-01-12T16:17:39Z</time><name>PT8841</name></trkpt>
<trkpt lat="52.055975" lon="05.828670"><ele>36.7</ele><time>2021-01-12T16:17:41Z</time><name>PT8842</name></trkpt>
<trkpt lat="52.055978" lon="05.828686"><ele>36.8</ele><time>2021-01-12T16:17:42Z</time><name>PT8843</name></trkpt>
<trkpt lat="52.055981" lon="05.828702"><ele>37</ele><time>2021-01-12T16:17:42Z</time><name>PT8844</name></trkpt>
<trkpt lat="52.055983" lon="05.828717"><ele>37.1</ele><time>2021-01-12T16:17:44Z</time><name>PT8845</name></trkpt>
<trkpt lat="52.055984" lon="05.828734"><ele>37.1</ele><time>2021-01-12T16:17:45Z</time><name>PT8846</name></trkpt>
<trkpt lat="52.055987" lon="05.828754"><ele>37</ele><time>2021-01-12T16:17:45Z</time><name>PT8847</name></trkpt>
<trkpt lat="52.055992" lon="05.828773"><ele>37.1</ele><time>2021-01-12T16:17:47Z</time><name>PT8848</name></trkpt>
<trkpt lat="52.055995" lon="05.828788"><ele>37</ele><time>2021-01-12T16:17:48Z</time><name>PT8849</name></trkpt>
<trkpt lat="52.055998" lon="05.828805"><ele>37</ele><time>2021-01-12T16:17:48Z</time><name>PT8850</name></trkpt>
<trkpt lat="52.056003" lon="05.828823"><ele>37</ele><time>2021-01-12T16:17:50Z</time><name>PT8851</name></trkpt>
<trkpt lat="52.056007" lon="05.828841"><ele>36.8</ele><time>2021-01-12T16:17:51Z</time><name>PT8852</name></trkpt>
<trkpt lat="52.056011" lon="05.828858"><ele>36.8</ele><time>2021-01-12T16:17:51Z</time><name>PT8853</name></trkpt>
<trkpt lat="52.056015" lon="05.828876"><ele>36.7</ele><time>2021-01-12T16:17:53Z</time><name>PT8854</name></trkpt>
<trkpt lat="52.056021" lon="05.828896"><ele>36.6</ele><time>2021-01-12T16:17:54Z</time><name>PT8855</name></trkpt>
<trkpt lat="52.056025" lon="05.828914"><ele>36.6</ele><time>2021-01-12T16:17:54Z</time><name>PT8856</name></trkpt>
<trkpt lat="52.056032" lon="05.828933"><ele>36.6</ele><time>2021-01-12T16:17:56Z</time><name>PT8857</name></trkpt>
<trkpt lat="52.056037" lon="05.828956"><ele>36.6</ele><time>2021-01-12T16:17:57Z</time><name>PT8858</name></trkpt>
<trkpt lat="52.056040" lon="05.828974"><ele>36.7</ele><time>2021-01-12T16:17:57Z</time><name>PT8859</name></trkpt>
<trkpt lat="52.056041" lon="05.828989"><ele>36.7</ele><time>2021-01-12T16:17:59Z</time><name>PT8860</name></trkpt>
<trkpt lat="52.056046" lon="05.829006"><ele>36.8</ele><time>2021-01-12T16:18:00Z</time><name>PT8861</name></trkpt>
<trkpt lat="52.056050" lon="05.829023"><ele>36.8</ele><time>2021-01-12T16:18:00Z</time><name>PT8862</name></trkpt>
<trkpt lat="52.056055" lon="05.829040"><ele>36.8</ele><time>2021-01-12T16:18:02Z</time><name>PT8863</name></trkpt>
<trkpt lat="52.056060" lon="05.829060"><ele>36.9</ele><time>2021-01-12T16:18:03Z</time><name>PT8864</name></trkpt>
<trkpt lat="52.056064" lon="05.829077"><ele>36.9</ele><time>2021-01-12T16:18:03Z</time><name>PT8865</name></trkpt>
<trkpt lat="52.056067" lon="05.829095"><ele>37.1</ele><time>2021-01-12T16:18:05Z</time><name>PT8866</name></trkpt>
<trkpt lat="52.056070" lon="05.829112"><ele>37.1</ele><time>2021-01-12T16:18:06Z</time><name>PT8867</name></trkpt>
<trkpt lat="52.056074" lon="05.829131"><ele>36.9</ele><time>2021-01-12T16:18:06Z</time><name>PT8868</name></trkpt>
<trkpt lat="52.056078" lon="05.829152"><ele>36.9</ele><time>2021-01-12T16:18:08Z</time><name>PT8869</name></trkpt>
<trkpt lat="52.056083" lon="05.829173"><ele>36.8</ele><time>2021-01-12T16:18:09Z</time><name>PT8870</name></trkpt>
<trkpt lat="52.056084" lon="05.829190"><ele>36.9</ele><time>2021-01-12T16:18:09Z</time><name>PT8871</name></trkpt>
<trkpt lat="52.056088" lon="05.829208"><ele>37.1</ele><time>2021-01-12T16:18:11Z</time><name>PT8872</name></trkpt>
<trkpt lat="52.056089" lon="05.829227"><ele>37.1</ele><time>2021-01-12T16:18:12Z</time><name>PT8873</name></trkpt>
<trkpt lat="52.056089" lon="05.829247"><ele>37.2</ele><time>2021-01-12T16:18:12Z</time><name>PT8874</name></trkpt>
<trkpt lat="52.056091" lon="05.829265"><ele>37.4</ele><time>2021-01-12T16:18:14Z</time><name>PT8875</name></trkpt>
<trkpt lat="52.056094" lon="05.829284"><ele>37.3</ele><time>2021-01-12T16:18:15Z</time><name>PT8876</name></trkpt>
<trkpt lat="52.056097" lon="05.829304"><ele>37.3</ele><time>2021-01-12T16:18:15Z</time><name>PT8877</name></trkpt>
<trkpt lat="52.056100" lon="05.829324"><ele>37.4</ele><time>2021-01-12T16:18:17Z</time><name>PT8878</name></trkpt>
<trkpt lat="52.056100" lon="05.829342"><ele>37.3</ele><time>2021-01-12T16:18:18Z</time><name>PT8879</name></trkpt>
<trkpt lat="52.056102" lon="05.829360"><ele>37.4</ele><time>2021-01-12T16:18:18Z</time><name>PT8880</name></trkpt>
<trkpt lat="52.056105" lon="05.829377"><ele>37.6</ele><time>2021-01-12T16:18:20Z</time><name>PT8881</name></trkpt>
<trkpt lat="52.056109" lon="05.829395"><ele>37.8</ele><time>2021-01-12T16:18:21Z</time><name>PT8882</name></trkpt>
<trkpt lat="52.056112" lon="05.829413"><ele>37.8</ele><time>2021-01-12T16:18:21Z</time><name>PT8883</name></trkpt>
<trkpt lat="52.056115" lon="05.829429"><ele>38</ele><time>2021-01-12T16:18:23Z</time><name>PT8884</name></trkpt>
<trkpt lat="52.056116" lon="05.829444"><ele>38.1</ele><time>2021-01-12T16:18:24Z</time><name>PT8885</name></trkpt>
<trkpt lat="52.056118" lon="05.829462"><ele>38.1</ele><time>2021-01-12T16:18:24Z</time><name>PT8886</name></trkpt>
<trkpt lat="52.056119" lon="05.829483"><ele>38.1</ele><time>2021-01-12T16:18:26Z</time><name>PT8887</name></trkpt>
<trkpt lat="52.056120" lon="05.829504"><ele>37.9</ele><time>2021-01-12T16:18:27Z</time><name>PT8888</name></trkpt>
<trkpt lat="52.056124" lon="05.829522"><ele>37.6</ele><time>2021-01-12T16:18:27Z</time><name>PT8889</name></trkpt>
<trkpt lat="52.056128" lon="05.829536"><ele>37.5</ele><time>2021-01-12T16:18:29Z</time><name>PT8890</name></trkpt>
<trkpt lat="52.056134" lon="05.829554"><ele>37.4</ele><time>2021-01-12T16:18:30Z</time><name>PT8891</name></trkpt>
<trkpt lat="52.056140" lon="05.829570"><ele>37.4</ele><time>2021-01-12T16:18:30Z</time><name>PT8892</name></trkpt>
<trkpt lat="52.056144" lon="05.829586"><ele>37.2</ele><time>2021-01-12T16:18:32Z</time><name>PT8893</name></trkpt>
<trkpt lat="52.056149" lon="05.829601"><ele>37.3</ele><time>2021-01-12T16:18:33Z</time><name>PT8894</name></trkpt>
<trkpt lat="52.056148" lon="05.829619"><ele>37.1</ele><time>2021-01-12T16:18:33Z</time><name>PT8895</name></trkpt>
<trkpt lat="52.056154" lon="05.829638"><ele>37.3</ele><time>2021-01-12T16:18:35Z</time><name>PT8896</name></trkpt>
<trkpt lat="52.056159" lon="05.829655"><ele>37.3</ele><time>2021-01-12T16:18:36Z</time><name>PT8897</name></trkpt>
<trkpt lat="52.056164" lon="05.829671"><ele>37.4</ele><time>2021-01-12T16:18:36Z</time><name>PT8898</name></trkpt>
<trkpt lat="52.056168" lon="05.829689"><ele>37.4</ele><time>2021-01-12T16:18:38Z</time><name>PT8899</name></trkpt>
<trkpt lat="52.056172" lon="05.829708"><ele>37.4</ele><time>2021-01-12T16:18:39Z</time><name>PT8900</name></trkpt>
<trkpt lat="52.056175" lon="05.829728"><ele>37.4</ele><time>2021-01-12T16:18:39Z</time><name>PT8901</name></trkpt>
<trkpt lat="52.056176" lon="05.829743"><ele>37.5</ele><time>2021-01-12T16:18:41Z</time><name>PT8902</name></trkpt>
<trkpt lat="52.056177" lon="05.829759"><ele>37.5</ele><time>2021-01-12T16:18:42Z</time><name>PT8903</name></trkpt>
<trkpt lat="52.056182" lon="05.829778"><ele>37.4</ele><time>2021-01-12T16:18:42Z</time><name>PT8904</name></trkpt>
<trkpt lat="52.056186" lon="05.829796"><ele>37.5</ele><time>2021-01-12T16:18:44Z</time><name>PT8905</name></trkpt>
<trkpt lat="52.056190" lon="05.829812"><ele>37.6</ele><time>2021-01-12T16:18:45Z</time><name>PT8906</name></trkpt>
<trkpt lat="52.056195" lon="05.829828"><ele>37.6</ele><time>2021-01-12T16:18:45Z</time><name>PT8907</name></trkpt>
<trkpt lat="52.056200" lon="05.829846"><ele>37.6</ele><time>2021-01-12T16:18:47Z</time><name>PT8908</name></trkpt>
<trkpt lat="52.056205" lon="05.829864"><ele>37.5</ele><time>2021-01-12T16:18:48Z</time><name>PT8909</name></trkpt>
<trkpt lat="52.056210" lon="05.829883"><ele>37.5</ele><time>2021-01-12T16:18:48Z</time><name>PT8910</name></trkpt>
<trkpt lat="52.056214" lon="05.829899"><ele>37.6</ele><time>2021-01-12T16:18:50Z</time><name>PT8911</name></trkpt>
<trkpt lat="52.056218" lon="05.829917"><ele>37.7</ele><time>2021-01-12T16:18:51Z</time><name>PT8912</name></trkpt>
<trkpt lat="52.056220" lon="05.829937"><ele>37.8</ele><time>2021-01-12T16:18:51Z</time><name>PT8913</name></trkpt>
<trkpt lat="52.056225" lon="05.829957"><ele>37.7</ele><time>2021-01-12T16:18:53Z</time><name>PT8914</name></trkpt>
<trkpt lat="52.056230" lon="05.829973"><ele>37.7</ele><time>2021-01-12T16:18:54Z</time><name>PT8915</name></trkpt>
<trkpt lat="52.056232" lon="05.829991"><ele>37.7</ele><time>2021-01-12T16:18:54Z</time><name>PT8916</name></trkpt>
<trkpt lat="52.056237" lon="05.830011"><ele>37.6</ele><time>2021-01-12T16:18:56Z</time><name>PT8917</name></trkpt>
<trkpt lat="52.056243" lon="05.830032"><ele>37.6</ele><time>2021-01-12T16:18:57Z</time><name>PT8918</name></trkpt>
<trkpt lat="52.056248" lon="05.830048"><ele>37.5</ele><time>2021-01-12T16:18:57Z</time><name>PT8919</name></trkpt>
<trkpt lat="52.056250" lon="05.830065"><ele>37.6</ele><time>2021-01-12T16:18:59Z</time><name>PT8920</name></trkpt>
<trkpt lat="52.056251" lon="05.830085"><ele>37.6</ele><time>2021-01-12T16:19:00Z</time><name>PT8921</name></trkpt>
<trkpt lat="52.056254" lon="05.830106"><ele>37.6</ele><time>2021-01-12T16:19:00Z</time><name>PT8922</name></trkpt>
<trkpt lat="52.056258" lon="05.830127"><ele>37.6</ele><time>2021-01-12T16:19:02Z</time><name>PT8923</name></trkpt>
<trkpt lat="52.056260" lon="05.830147"><ele>37.5</ele><time>2021-01-12T16:19:03Z</time><name>PT8924</name></trkpt>
<trkpt lat="52.056262" lon="05.830164"><ele>37.4</ele><time>2021-01-12T16:19:03Z</time><name>PT8925</name></trkpt>
<trkpt lat="52.056265" lon="05.830182"><ele>37.3</ele><time>2021-01-12T16:19:05Z</time><name>PT8926</name></trkpt>
<trkpt lat="52.056271" lon="05.830200"><ele>37.2</ele><time>2021-01-12T16:19:06Z</time><name>PT8927</name></trkpt>
<trkpt lat="52.056277" lon="05.830219"><ele>37.1</ele><time>2021-01-12T16:19:06Z</time><name>PT8928</name></trkpt>
<trkpt lat="52.056283" lon="05.830236"><ele>37.1</ele><time>2021-01-12T16:19:08Z</time><name>PT8929</name></trkpt>
<trkpt lat="52.056285" lon="05.830251"><ele>37.1</ele><time>2021-01-12T16:19:09Z</time><name>PT8930</name></trkpt>
<trkpt lat="52.056287" lon="05.830268"><ele>37.1</ele><time>2021-01-12T16:19:09Z</time><name>PT8931</name></trkpt>
<trkpt lat="52.056290" lon="05.830287"><ele>37.1</ele><time>2021-01-12T16:19:11Z</time><name>PT8932</name></trkpt>
<trkpt lat="52.056293" lon="05.830307"><ele>37.4</ele><time>2021-01-12T16:19:12Z</time><name>PT8933</name></trkpt>
<trkpt lat="52.056298" lon="05.830323"><ele>37.4</ele><time>2021-01-12T16:19:12Z</time><name>PT8934</name></trkpt>
<trkpt lat="52.056302" lon="05.830340"><ele>37.6</ele><time>2021-01-12T16:19:14Z</time><name>PT8935</name></trkpt>
<trkpt lat="52.056307" lon="05.830357"><ele>37.7</ele><time>2021-01-12T16:19:15Z</time><name>PT8936</name></trkpt>
<trkpt lat="52.056313" lon="05.830374"><ele>37.6</ele><time>2021-01-12T16:19:15Z</time><name>PT8937</name></trkpt>
<trkpt lat="52.056317" lon="05.830392"><ele>37.6</ele><time>2021-01-12T16:19:17Z</time><name>PT8938</name></trkpt>
<trkpt lat="52.056320" lon="05.830406"><ele>37.7</ele><time>2021-01-12T16:19:18Z</time><name>PT8939</name></trkpt>
<trkpt lat="52.056323" lon="05.830422"><ele>37.7</ele><time>2021-01-12T16:19:18Z</time><name>PT8940</name></trkpt>
<trkpt lat="52.056327" lon="05.830442"><ele>37.8</ele><time>2021-01-12T16:19:20Z</time><name>PT8941</name></trkpt>
<trkpt lat="52.056331" lon="05.830462"><ele>38</ele><time>2021-01-12T16:19:21Z</time><name>PT8942</name></trkpt>
<trkpt lat="52.056335" lon="05.830480"><ele>38.1</ele><time>2021-01-12T16:19:21Z</time><name>PT8943</name></trkpt>
<trkpt lat="52.056340" lon="05.830498"><ele>38.3</ele><time>2021-01-12T16:19:23Z</time><name>PT8944</name></trkpt>
<trkpt lat="52.056346" lon="05.830513"><ele>38.7</ele><time>2021-01-12T16:19:24Z</time><name>PT8945</name></trkpt>
<trkpt lat="52.056353" lon="05.830531"><ele>38.8</ele><time>2021-01-12T16:19:24Z</time><name>PT8946</name></trkpt>
<trkpt lat="52.056359" lon="05.830550"><ele>38.9</ele><time>2021-01-12T16:19:26Z</time><name>PT8947</name></trkpt>
<trkpt lat="52.056369" lon="05.830568"><ele>39.1</ele><time>2021-01-12T16:19:27Z</time><name>PT8948</name></trkpt>
<trkpt lat="52.056375" lon="05.830583"><ele>39</ele><time>2021-01-12T16:19:27Z</time><name>PT8949</name></trkpt>
<trkpt lat="52.056377" lon="05.830597"><ele>38.9</ele><time>2021-01-12T16:19:29Z</time><name>PT8950</name></trkpt>
<trkpt lat="52.056378" lon="05.830614"><ele>38.6</ele><time>2021-01-12T16:19:30Z</time><name>PT8951</name></trkpt>
<trkpt lat="52.056383" lon="05.830635"><ele>38.5</ele><time>2021-01-12T16:19:30Z</time><name>PT8952</name></trkpt>
<trkpt lat="52.056389" lon="05.830655"><ele>38.4</ele><time>2021-01-12T16:19:32Z</time><name>PT8953</name></trkpt>
<trkpt lat="52.056394" lon="05.830672"><ele>38</ele><time>2021-01-12T16:19:33Z</time><name>PT8954</name></trkpt>
<trkpt lat="52.056400" lon="05.830688"><ele>37.8</ele><time>2021-01-12T16:19:33Z</time><name>PT8955</name></trkpt>
<trkpt lat="52.056406" lon="05.830704"><ele>37.6</ele><time>2021-01-12T16:19:35Z</time><name>PT8956</name></trkpt>
<trkpt lat="52.056411" lon="05.830721"><ele>37.2</ele><time>2021-01-12T16:19:36Z</time><name>PT8957</name></trkpt>
<trkpt lat="52.056415" lon="05.830733"><ele>37.2</ele><time>2021-01-12T16:19:36Z</time><name>PT8958</name></trkpt>
<trkpt lat="52.056418" lon="05.830746"><ele>37.1</ele><time>2021-01-12T16:19:38Z</time><name>PT8959</name></trkpt>
<trkpt lat="52.056421" lon="05.830755"><ele>36.9</ele><time>2021-01-12T16:19:39Z</time><name>PT8960</name></trkpt>
<trkpt lat="52.056425" lon="05.830767"><ele>36.8</ele><time>2021-01-12T16:19:39Z</time><name>PT8961</name></trkpt>
<trkpt lat="52.056429" lon="05.830780"><ele>36.5</ele><time>2021-01-12T16:19:41Z</time><name>PT8962</name></trkpt>
<trkpt lat="52.056435" lon="05.830793"><ele>36.5</ele><time>2021-01-12T16:19:42Z</time><name>PT8963</name></trkpt>
<trkpt lat="52.056441" lon="05.830811"><ele>36.6</ele><time>2021-01-12T16:19:42Z</time><name>PT8964</name></trkpt>
<trkpt lat="52.056448" lon="05.830827"><ele>36.6</ele><time>2021-01-12T16:19:44Z</time><name>PT8965</name></trkpt>
<trkpt lat="52.056451" lon="05.830843"><ele>36.9</ele><time>2021-01-12T16:19:45Z</time><name>PT8966</name></trkpt>
<trkpt lat="52.056453" lon="05.830855"><ele>37.1</ele><time>2021-01-12T16:19:45Z</time><name>PT8967</name></trkpt>
<trkpt lat="52.056458" lon="05.830870"><ele>37.4</ele><time>2021-01-12T16:19:47Z</time><name>PT8968</name></trkpt>
<trkpt lat="52.056463" lon="05.830887"><ele>37.5</ele><time>2021-01-12T16:19:48Z</time><name>PT8969</name></trkpt>
<trkpt lat="52.056468" lon="05.830904"><ele>37.4</ele><time>2021-01-12T16:19:48Z</time><name>PT8970</name></trkpt>
<trkpt lat="52.056474" lon="05.830923"><ele>37.3</ele><time>2021-01-12T16:19:50Z</time><name>PT8971</name></trkpt>
<trkpt lat="52.056480" lon="05.830940"><ele>37.2</ele><time>2021-01-12T16:19:51Z</time><name>PT8972</name></trkpt>
<trkpt lat="52.056485" lon="05.830956"><ele>37.1</ele><time>2021-01-12T16:19:51Z</time><name>PT8973</name></trkpt>
<trkpt lat="52.056492" lon="05.830972"><ele>37.1</ele><time>2021-01-12T16:19:53Z</time><name>PT8974</name></trkpt>
<trkpt lat="52.056500" lon="05.830986"><ele>37</ele><time>2021-01-12T16:19:54Z</time><name>PT8975</name></trkpt>
<trkpt lat="52.056509" lon="05.831002"><ele>36.8</ele><time>2021-01-12T16:19:54Z</time><name>PT8976</name></trkpt>
<trkpt lat="52.056515" lon="05.831016"><ele>37</ele><time>2021-01-12T16:19:56Z</time><name>PT8977</name></trkpt>
<trkpt lat="52.056520" lon="05.831029"><ele>37</ele><time>2021-01-12T16:19:57Z</time><name>PT8978</name></trkpt>
<trkpt lat="52.056522" lon="05.831042"><ele>37</ele><time>2021-01-12T16:19:57Z</time><name>PT8979</name></trkpt>
<trkpt lat="52.056527" lon="05.831060"><ele>37.1</ele><time>2021-01-12T16:19:59Z</time><name>PT8980</name></trkpt>
<trkpt lat="52.056533" lon="05.831079"><ele>37.1</ele><time>2021-01-12T16:20:00Z</time><name>PT8981</name></trkpt>
<trkpt lat="52.056538" lon="05.831093"><ele>37.2</ele><time>2021-01-12T16:20:00Z</time><name>PT8982</name></trkpt>
<trkpt lat="52.056545" lon="05.831106"><ele>37</ele><time>2021-01-12T16:20:02Z</time><name>PT8983</name></trkpt>
<trkpt lat="52.056553" lon="05.831122"><ele>36.8</ele><time>2021-01-12T16:20:03Z</time><name>PT8984</name></trkpt>
<trkpt lat="52.056559" lon="05.831138"><ele>36.8</ele><time>2021-01-12T16:20:03Z</time><name>PT8985</name></trkpt>
<trkpt lat="52.056566" lon="05.831152"><ele>36.7</ele><time>2021-01-12T16:20:05Z</time><name>PT8986</name></trkpt>
<trkpt lat="52.056570" lon="05.831162"><ele>36.7</ele><time>2021-01-12T16:20:06Z</time><name>PT8987</name></trkpt>
<trkpt lat="52.056575" lon="05.831176"><ele>36.8</ele><time>2021-01-12T16:20:06Z</time><name>PT8988</name></trkpt>
<trkpt lat="52.056579" lon="05.831195"><ele>36.7</ele><time>2021-01-12T16:20:08Z</time><name>PT8989</name></trkpt>
<trkpt lat="52.056585" lon="05.831213"><ele>36.9</ele><time>2021-01-12T16:20:09Z</time><name>PT8990</name></trkpt>
<trkpt lat="52.056591" lon="05.831230"><ele>36.9</ele><time>2021-01-12T16:20:09Z</time><name>PT8991</name></trkpt>
<trkpt lat="52.056597" lon="05.831246"><ele>37.1</ele><time>2021-01-12T16:20:11Z</time><name>PT8992</name></trkpt>
<trkpt lat="52.056604" lon="05.831264"><ele>37.1</ele><time>2021-01-12T16:20:12Z</time><name>PT8993</name></trkpt>
<trkpt lat="52.056610" lon="05.831279"><ele>37.2</ele><time>2021-01-12T16:20:12Z</time><name>PT8994</name></trkpt>
<trkpt lat="52.056616" lon="05.831296"><ele>37.2</ele><time>2021-01-12T16:20:14Z</time><name>PT8995</name></trkpt>
<trkpt lat="52.056622" lon="05.831311"><ele>37.5</ele><time>2021-01-12T16:20:15Z</time><name>PT8996</name></trkpt>
<trkpt lat="52.056626" lon="05.831325"><ele>37.6</ele><time>2021-01-12T16:20:15Z</time><name>PT8997</name></trkpt>
<trkpt lat="52.056632" lon="05.831340"><ele>37.6</ele><time>2021-01-12T16:20:17Z</time><name>PT8998</name></trkpt>
<trkpt lat="52.056635" lon="05.831357"><ele>37.7</ele><time>2021-01-12T16:20:18Z</time><name>PT8999</name></trkpt>
<trkpt lat="52.056640" lon="05.831374"><ele>37.7</ele><time>2021-01-12T16:20:18Z</time><name>PT9000</name></trkpt>
<trkpt lat="52.056643" lon="05.831390"><ele>37.8</ele><time>2021-01-12T16:20:20Z</time><name>PT9001</name></trkpt>
<trkpt lat="52.056648" lon="05.831404"><ele>37.8</ele><time>2021-01-12T16:20:21Z</time><name>PT9002</name></trkpt>
<trkpt lat="52.056653" lon="05.831423"><ele>37.7</ele><time>2021-01-12T16:20:21Z</time><name>PT9003</name></trkpt>
<trkpt lat="52.056658" lon="05.831440"><ele>37.7</ele><time>2021-01-12T16:20:23Z</time><name>PT9004</name></trkpt>
<trkpt lat="52.056661" lon="05.831458"><ele>37.6</ele><time>2021-01-12T16:20:24Z</time><name>PT9005</name></trkpt>
<trkpt lat="52.056664" lon="05.831471"><ele>37.6</ele><time>2021-01-12T16:20:24Z</time><name>PT9006</name></trkpt>
<trkpt lat="52.056668" lon="05.831485"><ele>37.6</ele><time>2021-01-12T16:20:26Z</time><name>PT9007</name></trkpt>
<trkpt lat="52.056675" lon="05.831503"><ele>37.4</ele><time>2021-01-12T16:20:27Z</time><name>PT9008</name></trkpt>
<trkpt lat="52.056680" lon="05.831523"><ele>37.6</ele><time>2021-01-12T16:20:27Z</time><name>PT9009</name></trkpt>
<trkpt lat="52.056685" lon="05.831543"><ele>37.4</ele><time>2021-01-12T16:20:29Z</time><name>PT9010</name></trkpt>
<trkpt lat="52.056690" lon="05.831558"><ele>37.2</ele><time>2021-01-12T16:20:30Z</time><name>PT9011</name></trkpt>
<trkpt lat="52.056695" lon="05.831574"><ele>37.3</ele><time>2021-01-12T16:20:30Z</time><name>PT9012</name></trkpt>
<trkpt lat="52.056699" lon="05.831587"><ele>37.3</ele><time>2021-01-12T16:20:32Z</time><name>PT9013</name></trkpt>
<trkpt lat="52.056705" lon="05.831603"><ele>37.3</ele><time>2021-01-12T16:20:33Z</time><name>PT9014</name></trkpt>
<trkpt lat="52.056710" lon="05.831618"><ele>37.4</ele><time>2021-01-12T16:20:33Z</time><name>PT9015</name></trkpt>
<trkpt lat="52.056714" lon="05.831631"><ele>37.5</ele><time>2021-01-12T16:20:35Z</time><name>PT9016</name></trkpt>
<trkpt lat="52.056719" lon="05.831646"><ele>37.4</ele><time>2021-01-12T16:20:36Z</time><name>PT9017</name></trkpt>
<trkpt lat="52.056722" lon="05.831663"><ele>37.4</ele><time>2021-01-12T16:20:36Z</time><name>PT9018</name></trkpt>
<trkpt lat="52.056730" lon="05.831683"><ele>37.4</ele><time>2021-01-12T16:20:38Z</time><name>PT9019</name></trkpt>
<trkpt lat="52.056734" lon="05.831701"><ele>37.5</ele><time>2021-01-12T16:20:39Z</time><name>PT9020</name></trkpt>
<trkpt lat="52.056739" lon="05.831717"><ele>37.6</ele><time>2021-01-12T16:20:39Z</time><name>PT9021</name></trkpt>
<trkpt lat="52.056745" lon="05.831730"><ele>37.8</ele><time>2021-01-12T16:20:41Z</time><name>PT9022</name></trkpt>
<trkpt lat="52.056747" lon="05.831744"><ele>37.9</ele><time>2021-01-12T16:20:42Z</time><name>PT9023</name></trkpt>
<trkpt lat="52.056753" lon="05.831763"><ele>37.9</ele><time>2021-01-12T16:20:42Z</time><name>PT9024</name></trkpt>
<trkpt lat="52.056759" lon="05.831777"><ele>38</ele><time>2021-01-12T16:20:44Z</time><name>PT9025</name></trkpt>
<trkpt lat="52.056765" lon="05.831793"><ele>37.7</ele><time>2021-01-12T16:20:45Z</time><name>PT9026</name></trkpt>
<trkpt lat="52.056770" lon="05.831813"><ele>37.7</ele><time>2021-01-12T16:20:45Z</time><name>PT9027</name></trkpt>
<trkpt lat="52.056775" lon="05.831829"><ele>37.7</ele><time>2021-01-12T16:20:47Z</time><name>PT9028</name></trkpt>
<trkpt lat="52.056782" lon="05.831848"><ele>37.6</ele><time>2021-01-12T16:20:48Z</time><name>PT9029</name></trkpt>
<trkpt lat="52.056787" lon="05.831865"><ele>37.6</ele><time>2021-01-12T16:20:48Z</time><name>PT9030</name></trkpt>
<trkpt lat="52.056793" lon="05.831880"><ele>37.5</ele><time>2021-01-12T16:20:50Z</time><name>PT9031</name></trkpt>
<trkpt lat="52.056798" lon="05.831898"><ele>37.4</ele><time>2021-01-12T16:20:51Z</time><name>PT9032</name></trkpt>
<trkpt lat="52.056802" lon="05.831913"><ele>37.4</ele><time>2021-01-12T16:20:51Z</time><name>PT9033</name></trkpt>
<trkpt lat="52.056807" lon="05.831926"><ele>37.4</ele><time>2021-01-12T16:20:53Z</time><name>PT9034</name></trkpt>
<trkpt lat="52.056811" lon="05.831940"><ele>37.6</ele><time>2021-01-12T16:20:54Z</time><name>PT9035</name></trkpt>
<trkpt lat="52.056816" lon="05.831957"><ele>37.6</ele><time>2021-01-12T16:20:54Z</time><name>PT9036</name></trkpt>
<trkpt lat="52.056822" lon="05.831976"><ele>37.7</ele><time>2021-01-12T16:20:56Z</time><name>PT9037</name></trkpt>
<trkpt lat="52.056828" lon="05.831995"><ele>37.9</ele><time>2021-01-12T16:20:57Z</time><name>PT9038</name></trkpt>
<trkpt lat="52.056834" lon="05.832011"><ele>37.9</ele><time>2021-01-12T16:20:57Z</time><name>PT9039</name></trkpt>
<trkpt lat="52.056840" lon="05.832026"><ele>37.9</ele><time>2021-01-12T16:20:59Z</time><name>PT9040</name></trkpt>
<trkpt lat="52.056846" lon="05.832039"><ele>37.6</ele><time>2021-01-12T16:21:00Z</time><name>PT9041</name></trkpt>
<trkpt lat="52.056852" lon="05.832052"><ele>37.6</ele><time>2021-01-12T16:21:00Z</time><name>PT9042</name></trkpt>
<trkpt lat="52.056855" lon="05.832067"><ele>37.5</ele><time>2021-01-12T16:21:02Z</time><name>PT9043</name></trkpt>
<trkpt lat="52.056858" lon="05.832088"><ele>37.5</ele><time>2021-01-12T16:21:03Z</time><name>PT9044</name></trkpt>
<trkpt lat="52.056862" lon="05.832107"><ele>37.6</ele><time>2021-01-12T16:21:03Z</time><name>PT9045</name></trkpt>
<trkpt lat="52.056866" lon="05.832123"><ele>37.8</ele><time>2021-01-12T16:21:05Z</time><name>PT9046</name></trkpt>
<trkpt lat="52.056871" lon="05.832140"><ele>37.7</ele><time>2021-01-12T16:21:06Z</time><name>PT9047</name></trkpt>
<trkpt lat="52.056875" lon="05.832156"><ele>37.6</ele><time>2021-01-12T16:21:06Z</time><name>PT9048</name></trkpt>
<trkpt lat="52.056880" lon="05.832176"><ele>37.7</ele><time>2021-01-12T16:21:08Z</time><name>PT9049</name></trkpt>
<trkpt lat="52.056885" lon="05.832195"><ele>37.8</ele><time>2021-01-12T16:21:09Z</time><name>PT9050</name></trkpt>
<trkpt lat="52.056889" lon="05.832210"><ele>37.7</ele><time>2021-01-12T16:21:09Z</time><name>PT9051</name></trkpt>
<trkpt lat="52.056894" lon="05.832223"><ele>37.8</ele><time>2021-01-12T16:21:11Z</time><name>PT9052</name></trkpt>
<trkpt lat="52.056898" lon="05.832239"><ele>37.7</ele><time>2021-01-12T16:21:12Z</time><name>PT9053</name></trkpt>
<trkpt lat="52.056905" lon="05.832257"><ele>37.7</ele><time>2021-01-12T16:21:12Z</time><name>PT9054</name></trkpt>
<trkpt lat="52.056913" lon="05.832281"><ele>37.6</ele><time>2021-01-12T16:21:14Z</time><name>PT9055</name></trkpt>
<trkpt lat="52.056918" lon="05.832300"><ele>37.7</ele><time>2021-01-12T16:21:15Z</time><name>PT9056</name></trkpt>
<trkpt lat="52.056925" lon="05.832311"><ele>37.7</ele><time>2021-01-12T16:21:15Z</time><name>PT9057</name></trkpt>
<trkpt lat="52.056932" lon="05.832328"><ele>37.8</ele><time>2021-01-12T16:21:17Z</time><name>PT9058</name></trkpt>
<trkpt lat="52.056940" lon="05.832345"><ele>37.9</ele><time>2021-01-12T16:21:18Z</time><name>PT9059</name></trkpt>
<trkpt lat="52.056947" lon="05.832359"><ele>37.9</ele><time>2021-01-12T16:21:18Z</time><name>PT9060</name></trkpt>
<trkpt lat="52.056952" lon="05.832372"><ele>37.8</ele><time>2021-01-12T16:21:20Z</time><name>PT9061</name></trkpt>
<trkpt lat="52.056959" lon="05.832389"><ele>37.8</ele><time>2021-01-12T16:21:21Z</time><name>PT9062</name></trkpt>
<trkpt lat="52.056964" lon="05.832412"><ele>37.8</ele><time>2021-01-12T16:21:21Z</time><name>PT9063</name></trkpt>
<trkpt lat="52.056971" lon="05.832431"><ele>37.6</ele><time>2021-01-12T16:21:23Z</time><name>PT9064</name></trkpt>
<trkpt lat="52.056977" lon="05.832444"><ele>37.4</ele><time>2021-01-12T16:21:24Z</time><name>PT9065</name></trkpt>
<trkpt lat="52.056982" lon="05.832455"><ele>37.4</ele><time>2021-01-12T16:21:24Z</time><name>PT9066</name></trkpt>
<trkpt lat="52.056989" lon="05.832469"><ele>37.4</ele><time>2021-01-12T16:21:26Z</time><name>PT9067</name></trkpt>
<trkpt lat="52.056997" lon="05.832488"><ele>37.4</ele><time>2021-01-12T16:21:27Z</time><name>PT9068</name></trkpt>
<trkpt lat="52.057005" lon="05.832506"><ele>37.5</ele><time>2021-01-12T16:21:27Z</time><name>PT9069</name></trkpt>
<trkpt lat="52.057011" lon="05.832524"><ele>37.6</ele><time>2021-01-12T16:21:29Z</time><name>PT9070</name></trkpt>
<trkpt lat="52.057018" lon="05.832540"><ele>37.4</ele><time>2021-01-12T16:21:30Z</time><name>PT9071</name></trkpt>
<trkpt lat="52.057024" lon="05.832556"><ele>37.4</ele><time>2021-01-12T16:21:30Z</time><name>PT9072</name></trkpt>
<trkpt lat="52.057029" lon="05.832571"><ele>37.4</ele><time>2021-01-12T16:21:32Z</time><name>PT9073</name></trkpt>
<trkpt lat="52.057032" lon="05.832585"><ele>37.3</ele><time>2021-01-12T16:21:33Z</time><name>PT9074</name></trkpt>
<trkpt lat="52.057036" lon="05.832603"><ele>37.4</ele><time>2021-01-12T16:21:33Z</time><name>PT9075</name></trkpt>
<trkpt lat="52.057039" lon="05.832622"><ele>37.5</ele><time>2021-01-12T16:21:35Z</time><name>PT9076</name></trkpt>
<trkpt lat="52.057042" lon="05.832640"><ele>37.4</ele><time>2021-01-12T16:21:36Z</time><name>PT9077</name></trkpt>
<trkpt lat="52.057047" lon="05.832655"><ele>37.4</ele><time>2021-01-12T16:21:36Z</time><name>PT9078</name></trkpt>
<trkpt lat="52.057053" lon="05.832671"><ele>37.3</ele><time>2021-01-12T16:21:38Z</time><name>PT9079</name></trkpt>
<trkpt lat="52.057059" lon="05.832689"><ele>37.1</ele><time>2021-01-12T16:21:39Z</time><name>PT9080</name></trkpt>
<trkpt lat="52.057067" lon="05.832706"><ele>37.1</ele><time>2021-01-12T16:21:39Z</time><name>PT9081</name></trkpt>
<trkpt lat="52.057072" lon="05.832722"><ele>37.1</ele><time>2021-01-12T16:21:41Z</time><name>PT9082</name></trkpt>
<trkpt lat="52.057080" lon="05.832739"><ele>37.4</ele><time>2021-01-12T16:21:42Z</time><name>PT9083</name></trkpt>
<trkpt lat="52.057088" lon="05.832754"><ele>37.5</ele><time>2021-01-12T16:21:42Z</time><name>PT9084</name></trkpt>
<trkpt lat="52.057094" lon="05.832767"><ele>37.2</ele><time>2021-01-12T16:21:44Z</time><name>PT9085</name></trkpt>
<trkpt lat="52.057099" lon="05.832783"><ele>37.1</ele><time>2021-01-12T16:21:45Z</time><name>PT9086</name></trkpt>
<trkpt lat="52.057106" lon="05.832797"><ele>37</ele><time>2021-01-12T16:21:45Z</time><name>PT9087</name></trkpt>
<trkpt lat="52.057111" lon="05.832815"><ele>36.9</ele><time>2021-01-12T16:21:47Z</time><name>PT9088</name></trkpt>
<trkpt lat="52.057118" lon="05.832834"><ele>36.9</ele><time>2021-01-12T16:21:48Z</time><name>PT9089</name></trkpt>
<trkpt lat="52.057127" lon="05.832853"><ele>36.9</ele><time>2021-01-12T16:21:48Z</time><name>PT9090</name></trkpt>
<trkpt lat="52.057135" lon="05.832868"><ele>36.8</ele><time>2021-01-12T16:21:50Z</time><name>PT9091</name></trkpt>
<trkpt lat="52.057142" lon="05.832885"><ele>36.9</ele><time>2021-01-12T16:21:51Z</time><name>PT9092</name></trkpt>
<trkpt lat="52.057147" lon="05.832901"><ele>36.9</ele><time>2021-01-12T16:21:51Z</time><name>PT9093</name></trkpt>
<trkpt lat="52.057152" lon="05.832918"><ele>36.9</ele><time>2021-01-12T16:21:53Z</time><name>PT9094</name></trkpt>
<trkpt lat="52.057158" lon="05.832932"><ele>36.9</ele><time>2021-01-12T16:21:54Z</time><name>PT9095</name></trkpt>
<trkpt lat="52.057163" lon="05.832945"><ele>36.9</ele><time>2021-01-12T16:21:54Z</time><name>PT9096</name></trkpt>
<trkpt lat="52.057166" lon="05.832960"><ele>37</ele><time>2021-01-12T16:21:56Z</time><name>PT9097</name></trkpt>
<trkpt lat="52.057170" lon="05.832978"><ele>36.9</ele><time>2021-01-12T16:21:57Z</time><name>PT9098</name></trkpt>
<trkpt lat="52.057173" lon="05.832998"><ele>36.8</ele><time>2021-01-12T16:21:57Z</time><name>PT9099</name></trkpt>
<trkpt lat="52.057178" lon="05.833016"><ele>36.9</ele><time>2021-01-12T16:21:59Z</time><name>PT9100</name></trkpt>
<trkpt lat="52.057183" lon="05.833034"><ele>36.9</ele><time>2021-01-12T16:22:00Z</time><name>PT9101</name></trkpt>
<trkpt lat="52.057187" lon="05.833049"><ele>36.8</ele><time>2021-01-12T16:22:00Z</time><name>PT9102</name></trkpt>
<trkpt lat="52.057191" lon="05.833063"><ele>36.8</ele><time>2021-01-12T16:22:02Z</time><name>PT9103</name></trkpt>
<trkpt lat="52.057195" lon="05.833078"><ele>36.8</ele><time>2021-01-12T16:22:03Z</time><name>PT9104</name></trkpt>
<trkpt lat="52.057198" lon="05.833098"><ele>36.9</ele><time>2021-01-12T16:22:03Z</time><name>PT9105</name></trkpt>
<trkpt lat="52.057202" lon="05.833115"><ele>36.9</ele><time>2021-01-12T16:22:05Z</time><name>PT9106</name></trkpt>
<trkpt lat="52.057206" lon="05.833131"><ele>37</ele><time>2021-01-12T16:22:06Z</time><name>PT9107</name></trkpt>
<trkpt lat="52.057211" lon="05.833151"><ele>37.1</ele><time>2021-01-12T16:22:06Z</time><name>PT9108</name></trkpt>
<trkpt lat="52.057217" lon="05.833168"><ele>37.1</ele><time>2021-01-12T16:22:08Z</time><name>PT9109</name></trkpt>
<trkpt lat="52.057220" lon="05.833185"><ele>37.2</ele><time>2021-01-12T16:22:09Z</time><name>PT9110</name></trkpt>
<trkpt lat="52.057228" lon="05.833203"><ele>37.1</ele><time>2021-01-12T16:22:09Z</time><name>PT9111</name></trkpt>
<trkpt lat="52.057234" lon="05.833220"><ele>37.1</ele><time>2021-01-12T16:22:11Z</time><name>PT9112</name></trkpt>
<trkpt lat="52.057241" lon="05.833236"><ele>37</ele><time>2021-01-12T16:22:12Z</time><name>PT9113</name></trkpt>
<trkpt lat="52.057246" lon="05.833253"><ele>37</ele><time>2021-01-12T16:22:12Z</time><name>PT9114</name></trkpt>
<trkpt lat="52.057250" lon="05.833267"><ele>37.1</ele><time>2021-01-12T16:22:14Z</time><name>PT9115</name></trkpt>
<trkpt lat="52.057255" lon="05.833284"><ele>36.9</ele><time>2021-01-12T16:22:15Z</time><name>PT9116</name></trkpt>
<trkpt lat="52.057261" lon="05.833302"><ele>36.9</ele><time>2021-01-12T16:22:15Z</time><name>PT9117</name></trkpt>
<trkpt lat="52.057267" lon="05.833322"><ele>37</ele><time>2021-01-12T16:22:17Z</time><name>PT9118</name></trkpt>
<trkpt lat="52.057274" lon="05.833338"><ele>37</ele><time>2021-01-12T16:22:18Z</time><name>PT9119</name></trkpt>
<trkpt lat="52.057280" lon="05.833352"><ele>36.8</ele><time>2021-01-12T16:22:18Z</time><name>PT9120</name></trkpt>
<trkpt lat="52.057289" lon="05.833368"><ele>36.7</ele><time>2021-01-12T16:22:20Z</time><name>PT9121</name></trkpt>
<trkpt lat="52.057298" lon="05.833384"><ele>36.8</ele><time>2021-01-12T16:22:21Z</time><name>PT9122</name></trkpt>
<trkpt lat="52.057304" lon="05.833402"><ele>36.8</ele><time>2021-01-12T16:22:21Z</time><name>PT9123</name></trkpt>
<trkpt lat="52.057308" lon="05.833417"><ele>37</ele><time>2021-01-12T16:22:23Z</time><name>PT9124</name></trkpt>
<trkpt lat="52.057312" lon="05.833433"><ele>37.1</ele><time>2021-01-12T16:22:24Z</time><name>PT9125</name></trkpt>
<trkpt lat="52.057317" lon="05.833450"><ele>37.1</ele><time>2021-01-12T16:22:24Z</time><name>PT9126</name></trkpt>
<trkpt lat="52.057320" lon="05.833469"><ele>37</ele><time>2021-01-12T16:22:26Z</time><name>PT9127</name></trkpt>
<trkpt lat="52.057325" lon="05.833491"><ele>37</ele><time>2021-01-12T16:22:27Z</time><name>PT9128</name></trkpt>
<trkpt lat="52.057331" lon="05.833511"><ele>36.8</ele><time>2021-01-12T16:22:27Z</time><name>PT9129</name></trkpt>
<trkpt lat="52.057337" lon="05.833528"><ele>36.7</ele><time>2021-01-12T16:22:29Z</time><name>PT9130</name></trkpt>
<trkpt lat="52.057345" lon="05.833544"><ele>37</ele><time>2021-01-12T16:22:30Z</time><name>PT9131</name></trkpt>
<trkpt lat="52.057351" lon="05.833561"><ele>37</ele><time>2021-01-12T16:22:30Z</time><name>PT9132</name></trkpt>
<trkpt lat="52.057357" lon="05.833575"><ele>36.9</ele><time>2021-01-12T16:22:32Z</time><name>PT9133</name></trkpt>
<trkpt lat="52.057364" lon="05.833592"><ele>36.9</ele><time>2021-01-12T16:22:33Z</time><name>PT9134</name></trkpt>
<trkpt lat="52.057370" lon="05.833606"><ele>36.8</ele><time>2021-01-12T16:22:33Z</time><name>PT9135</name></trkpt>
<trkpt lat="52.057374" lon="05.833618"><ele>36.8</ele><time>2021-01-12T16:22:35Z</time><name>PT9136</name></trkpt>
<trkpt lat="52.057379" lon="05.833631"><ele>36.9</ele><time>2021-01-12T16:22:36Z</time><name>PT9137</name></trkpt>
<trkpt lat="52.057384" lon="05.833650"><ele>37</ele><time>2021-01-12T16:22:36Z</time><name>PT9138</name></trkpt>
<trkpt lat="52.057389" lon="05.833670"><ele>37.1</ele><time>2021-01-12T16:22:38Z</time><name>PT9139</name></trkpt>
<trkpt lat="52.057394" lon="05.833690"><ele>37</ele><time>2021-01-12T16:22:39Z</time><name>PT9140</name></trkpt>
<trkpt lat="52.057401" lon="05.833706"><ele>36.8</ele><time>2021-01-12T16:22:39Z</time><name>PT9141</name></trkpt>
<trkpt lat="52.057407" lon="05.833720"><ele>37</ele><time>2021-01-12T16:22:41Z</time><name>PT9142</name></trkpt>
<trkpt lat="52.057412" lon="05.833735"><ele>36.8</ele><time>2021-01-12T16:22:42Z</time><name>PT9143</name></trkpt>
<trkpt lat="52.057418" lon="05.833750"><ele>36.9</ele><time>2021-01-12T16:22:42Z</time><name>PT9144</name></trkpt>
<trkpt lat="52.057427" lon="05.833766"><ele>36.9</ele><time>2021-01-12T16:22:44Z</time><name>PT9145</name></trkpt>
<trkpt lat="52.057431" lon="05.833780"><ele>36.6</ele><time>2021-01-12T16:22:45Z</time><name>PT9146</name></trkpt>
<trkpt lat="52.057437" lon="05.833797"><ele>36.6</ele><time>2021-01-12T16:22:45Z</time><name>PT9147</name></trkpt>
<trkpt lat="52.057442" lon="05.833815"><ele>36.5</ele><time>2021-01-12T16:22:47Z</time><name>PT9148</name></trkpt>
<trkpt lat="52.057447" lon="05.833834"><ele>36.6</ele><time>2021-01-12T16:22:48Z</time><name>PT9149</name></trkpt>
<trkpt lat="52.057454" lon="05.833851"><ele>36.6</ele><time>2021-01-12T16:22:48Z</time><name>PT9150</name></trkpt>
<trkpt lat="52.057461" lon="05.833868"><ele>36.6</ele><time>2021-01-12T16:22:50Z</time><name>PT9151</name></trkpt>
<trkpt lat="52.057467" lon="05.833886"><ele>36.6</ele><time>2021-01-12T16:22:51Z</time><name>PT9152</name></trkpt>
<trkpt lat="52.057475" lon="05.833903"><ele>36.6</ele><time>2021-01-12T16:22:51Z</time><name>PT9153</name></trkpt>
<trkpt lat="52.057480" lon="05.833918"><ele>36.7</ele><time>2021-01-12T16:22:53Z</time><name>PT9154</name></trkpt>
<trkpt lat="52.057486" lon="05.833934"><ele>36.7</ele><time>2021-01-12T16:22:54Z</time><name>PT9155</name></trkpt>
<trkpt lat="52.057491" lon="05.833952"><ele>36.9</ele><time>2021-01-12T16:22:54Z</time><name>PT9156</name></trkpt>
<trkpt lat="52.057497" lon="05.833969"><ele>37</ele><time>2021-01-12T16:22:56Z</time><name>PT9157</name></trkpt>
<trkpt lat="52.057503" lon="05.833987"><ele>37</ele><time>2021-01-12T16:22:57Z</time><name>PT9158</name></trkpt>
<trkpt lat="52.057510" lon="05.834005"><ele>37</ele><time>2021-01-12T16:22:57Z</time><name>PT9159</name></trkpt>
<trkpt lat="52.057516" lon="05.834021"><ele>36.9</ele><time>2021-01-12T16:22:59Z</time><name>PT9160</name></trkpt>
<trkpt lat="52.057522" lon="05.834035"><ele>36.9</ele><time>2021-01-12T16:23:00Z</time><name>PT9161</name></trkpt>
<trkpt lat="52.057526" lon="05.834050"><ele>37</ele><time>2021-01-12T16:23:00Z</time><name>PT9162</name></trkpt>
<trkpt lat="52.057534" lon="05.834066"><ele>37</ele><time>2021-01-12T16:23:02Z</time><name>PT9163</name></trkpt>
<trkpt lat="52.057539" lon="05.834082"><ele>37.2</ele><time>2021-01-12T16:23:03Z</time><name>PT9164</name></trkpt>
<trkpt lat="52.057545" lon="05.834098"><ele>37.2</ele><time>2021-01-12T16:23:03Z</time><name>PT9165</name></trkpt>
<trkpt lat="52.057548" lon="05.834116"><ele>37.1</ele><time>2021-01-12T16:23:05Z</time><name>PT9166</name></trkpt>
<trkpt lat="52.057555" lon="05.834133"><ele>37.2</ele><time>2021-01-12T16:23:06Z</time><name>PT9167</name></trkpt>
<trkpt lat="52.057562" lon="05.834151"><ele>37.3</ele><time>2021-01-12T16:23:06Z</time><name>PT9168</name></trkpt>
<trkpt lat="52.057568" lon="05.834170"><ele>37.1</ele><time>2021-01-12T16:23:08Z</time><name>PT9169</name></trkpt>
<trkpt lat="52.057573" lon="05.834188"><ele>37.1</ele><time>2021-01-12T16:23:09Z</time><name>PT9170</name></trkpt>
<trkpt lat="52.057578" lon="05.834204"><ele>37.1</ele><time>2021-01-12T16:23:09Z</time><name>PT9171</name></trkpt>
<trkpt lat="52.057586" lon="05.834219"><ele>36.9</ele><time>2021-01-12T16:23:11Z</time><name>PT9172</name></trkpt>
<trkpt lat="52.057593" lon="05.834235"><ele>37.1</ele><time>2021-01-12T16:23:12Z</time><name>PT9173</name></trkpt>
<trkpt lat="52.057598" lon="05.834246"><ele>37.1</ele><time>2021-01-12T16:23:12Z</time><name>PT9174</name></trkpt>
<trkpt lat="52.057605" lon="05.834263"><ele>37.1</ele><time>2021-01-12T16:23:14Z</time><name>PT9175</name></trkpt>
<trkpt lat="52.057610" lon="05.834279"><ele>37.3</ele><time>2021-01-12T16:23:15Z</time><name>PT9176</name></trkpt>
<trkpt lat="52.057615" lon="05.834293"><ele>37.3</ele><time>2021-01-12T16:23:15Z</time><name>PT9177</name></trkpt>
<trkpt lat="52.057619" lon="05.834305"><ele>37.1</ele><time>2021-01-12T16:23:17Z</time><name>PT9178</name></trkpt>
<trkpt lat="52.057628" lon="05.834325"><ele>37.1</ele><time>2021-01-12T16:23:18Z</time><name>PT9179</name></trkpt>
<trkpt lat="52.057630" lon="05.834343"><ele>37.1</ele><time>2021-01-12T16:23:18Z</time><name>PT9180</name></trkpt>
<trkpt lat="52.057633" lon="05.834364"><ele>37.2</ele><time>2021-01-12T16:23:20Z</time><name>PT9181</name></trkpt>
<trkpt lat="52.057640" lon="05.834375"><ele>37.4</ele><time>2021-01-12T16:23:21Z</time><name>PT9182</name></trkpt>
<trkpt lat="52.057647" lon="05.834387"><ele>37.4</ele><time>2021-01-12T16:23:21Z</time><name>PT9183</name></trkpt>
<trkpt lat="52.057656" lon="05.834399"><ele>37.6</ele><time>2021-01-12T16:23:23Z</time><name>PT9184</name></trkpt>
<trkpt lat="52.057663" lon="05.834413"><ele>37.6</ele><time>2021-01-12T16:23:24Z</time><name>PT9185</name></trkpt>
<trkpt lat="52.057668" lon="05.834429"><ele>37.5</ele><time>2021-01-12T16:23:24Z</time><name>PT9186</name></trkpt>
<trkpt lat="52.057675" lon="05.834444"><ele>37.4</ele><time>2021-01-12T16:23:26Z</time><name>PT9187</name></trkpt>
<trkpt lat="52.057679" lon="05.834460"><ele>37.1</ele><time>2021-01-12T16:23:27Z</time><name>PT9188</name></trkpt>
<trkpt lat="52.057684" lon="05.834476"><ele>37.2</ele><time>2021-01-12T16:23:27Z</time><name>PT9189</name></trkpt>
<trkpt lat="52.057692" lon="05.834496"><ele>37.5</ele><time>2021-01-12T16:23:29Z</time><name>PT9190</name></trkpt>
<trkpt lat="52.057698" lon="05.834511"><ele>37.5</ele><time>2021-01-12T16:23:30Z</time><name>PT9191</name></trkpt>
<trkpt lat="52.057704" lon="05.834524"><ele>37.4</ele><time>2021-01-12T16:23:30Z</time><name>PT9192</name></trkpt>
<trkpt lat="52.057711" lon="05.834537"><ele>37.5</ele><time>2021-01-12T16:23:32Z</time><name>PT9193</name></trkpt>
<trkpt lat="52.057718" lon="05.834552"><ele>37.3</ele><time>2021-01-12T16:23:33Z</time><name>PT9194</name></trkpt>
<trkpt lat="52.057726" lon="05.834567"><ele>37.4</ele><time>2021-01-12T16:23:33Z</time><name>PT9195</name></trkpt>
<trkpt lat="52.057734" lon="05.834580"><ele>37.7</ele><time>2021-01-12T16:23:35Z</time><name>PT9196</name></trkpt>
<trkpt lat="52.057741" lon="05.834596"><ele>37.7</ele><time>2021-01-12T16:23:36Z</time><name>PT9197</name></trkpt>
<trkpt lat="52.057749" lon="05.834611"><ele>37.7</ele><time>2021-01-12T16:23:36Z</time><name>PT9198</name></trkpt>
<trkpt lat="52.057754" lon="05.834626"><ele>37.8</ele><time>2021-01-12T16:23:38Z</time><name>PT9199</name></trkpt>
<trkpt lat="52.057759" lon="05.834640"><ele>37.7</ele><time>2021-01-12T16:23:39Z</time><name>PT9200</name></trkpt>
<trkpt lat="52.057766" lon="05.834657"><ele>37.7</ele><time>2021-01-12T16:23:39Z</time><name>PT9201</name></trkpt>
<trkpt lat="52.057774" lon="05.834671"><ele>37.7</ele><time>2021-01-12T16:23:41Z</time><name>PT9202</name></trkpt>
<trkpt lat="52.057779" lon="05.834685"><ele>37.6</ele><time>2021-01-12T16:23:42Z</time><name>PT9203</name></trkpt>
<trkpt lat="52.057785" lon="05.834697"><ele>37.6</ele><time>2021-01-12T16:23:42Z</time><name>PT9204</name></trkpt>
<trkpt lat="52.057791" lon="05.834715"><ele>37.3</ele><time>2021-01-12T16:23:44Z</time><name>PT9205</name></trkpt>
<trkpt lat="52.057797" lon="05.834731"><ele>37.2</ele><time>2021-01-12T16:23:45Z</time><name>PT9206</name></trkpt>
<trkpt lat="52.057803" lon="05.834745"><ele>37.2</ele><time>2021-01-12T16:23:45Z</time><name>PT9207</name></trkpt>
<trkpt lat="52.057810" lon="05.834759"><ele>37.1</ele><time>2021-01-12T16:23:47Z</time><name>PT9208</name></trkpt>
<trkpt lat="52.057820" lon="05.834775"><ele>37.1</ele><time>2021-01-12T16:23:48Z</time><name>PT9209</name></trkpt>
<trkpt lat="52.057828" lon="05.834794"><ele>37.1</ele><time>2021-01-12T16:23:48Z</time><name>PT9210</name></trkpt>
<trkpt lat="52.057836" lon="05.834810"><ele>37.1</ele><time>2021-01-12T16:23:50Z</time><name>PT9211</name></trkpt>
<trkpt lat="52.057843" lon="05.834824"><ele>37.1</ele><time>2021-01-12T16:23:51Z</time><name>PT9212</name></trkpt>
<trkpt lat="52.057851" lon="05.834836"><ele>37.1</ele><time>2021-01-12T16:23:51Z</time><name>PT9213</name></trkpt>
<trkpt lat="52.057859" lon="05.834851"><ele>37.2</ele><time>2021-01-12T16:23:53Z</time><name>PT9214</name></trkpt>
<trkpt lat="52.057866" lon="05.834865"><ele>37.4</ele><time>2021-01-12T16:23:54Z</time><name>PT9215</name></trkpt>
<trkpt lat="52.057872" lon="05.834878"><ele>37.6</ele><time>2021-01-12T16:23:54Z</time><name>PT9216</name></trkpt>
<trkpt lat="52.057876" lon="05.834890"><ele>37.5</ele><time>2021-01-12T16:23:56Z</time><name>PT9217</name></trkpt>
<trkpt lat="52.057882" lon="05.834903"><ele>37.4</ele><time>2021-01-12T16:23:57Z</time><name>PT9218</name></trkpt>
<trkpt lat="52.057889" lon="05.834918"><ele>37.2</ele><time>2021-01-12T16:23:57Z</time><name>PT9219</name></trkpt>
<trkpt lat="52.057895" lon="05.834934"><ele>37.1</ele><time>2021-01-12T16:23:59Z</time><name>PT9220</name></trkpt>
<trkpt lat="52.057904" lon="05.834946"><ele>37.1</ele><time>2021-01-12T16:24:00Z</time><name>PT9221</name></trkpt>
<trkpt lat="52.057912" lon="05.834959"><ele>37.1</ele><time>2021-01-12T16:24:00Z</time><name>PT9222</name></trkpt>
<trkpt lat="52.057921" lon="05.834973"><ele>37.1</ele><time>2021-01-12T16:24:02Z</time><name>PT9223</name></trkpt>
<trkpt lat="52.057928" lon="05.834987"><ele>37.1</ele><time>2021-01-12T16:24:03Z</time><name>PT9224</name></trkpt>
<trkpt lat="52.057934" lon="05.834998"><ele>37.1</ele><time>2021-01-12T16:24:03Z</time><name>PT9225</name></trkpt>
<trkpt lat="52.057938" lon="05.835009"><ele>37.1</ele><time>2021-01-12T16:24:05Z</time><name>PT9226</name></trkpt>
<trkpt lat="52.057945" lon="05.835024"><ele>37</ele><time>2021-01-12T16:24:06Z</time><name>PT9227</name></trkpt>
<trkpt lat="52.057953" lon="05.835040"><ele>37.1</ele><time>2021-01-12T16:24:06Z</time><name>PT9228</name></trkpt>
<trkpt lat="52.057959" lon="05.835053"><ele>37.1</ele><time>2021-01-12T16:24:08Z</time><name>PT9229</name></trkpt>
<trkpt lat="52.057965" lon="05.835064"><ele>37.1</ele><time>2021-01-12T16:24:09Z</time><name>PT9230</name></trkpt>
<trkpt lat="52.057974" lon="05.835079"><ele>37.1</ele><time>2021-01-12T16:24:09Z</time><name>PT9231</name></trkpt>
<trkpt lat="52.057984" lon="05.835093"><ele>37.1</ele><time>2021-01-12T16:24:11Z</time><name>PT9232</name></trkpt>
<trkpt lat="52.057992" lon="05.835105"><ele>37.3</ele><time>2021-01-12T16:24:12Z</time><name>PT9233</name></trkpt>
<trkpt lat="52.057998" lon="05.835115"><ele>37.3</ele><time>2021-01-12T16:24:12Z</time><name>PT9234</name></trkpt>
<trkpt lat="52.058004" lon="05.835125"><ele>37.3</ele><time>2021-01-12T16:24:14Z</time><name>PT9235</name></trkpt>
<trkpt lat="52.058011" lon="05.835137"><ele>37.5</ele><time>2021-01-12T16:24:15Z</time><name>PT9236</name></trkpt>
<trkpt lat="52.058020" lon="05.835153"><ele>37.2</ele><time>2021-01-12T16:24:15Z</time><name>PT9237</name></trkpt>
<trkpt lat="52.058029" lon="05.835168"><ele>37.1</ele><time>2021-01-12T16:24:17Z</time><name>PT9238</name></trkpt>
<trkpt lat="52.058038" lon="05.835183"><ele>37.1</ele><time>2021-01-12T16:24:18Z</time><name>PT9239</name></trkpt>
<trkpt lat="52.058045" lon="05.835196"><ele>37.1</ele><time>2021-01-12T16:24:18Z</time><name>PT9240</name></trkpt>
<trkpt lat="52.058053" lon="05.835208"><ele>37.1</ele><time>2021-01-12T16:24:20Z</time><name>PT9241</name></trkpt>
<trkpt lat="52.058064" lon="05.835220"><ele>37.1</ele><time>2021-01-12T16:24:21Z</time><name>PT9242</name></trkpt>
<trkpt lat="52.058073" lon="05.835234"><ele>37</ele><time>2021-01-12T16:24:21Z</time><name>PT9243</name></trkpt>
<trkpt lat="52.058082" lon="05.835247"><ele>37</ele><time>2021-01-12T16:24:23Z</time><name>PT9244</name></trkpt>
<trkpt lat="52.058091" lon="05.835261"><ele>37.1</ele><time>2021-01-12T16:24:24Z</time><name>PT9245</name></trkpt>
<trkpt lat="52.058099" lon="05.835271"><ele>37.1</ele><time>2021-01-12T16:24:24Z</time><name>PT9246</name></trkpt>
<trkpt lat="52.058107" lon="05.835282"><ele>37.3</ele><time>2021-01-12T16:24:26Z</time><name>PT9247</name></trkpt>
<trkpt lat="52.058117" lon="05.835297"><ele>37.2</ele><time>2021-01-12T16:24:27Z</time><name>PT9248</name></trkpt>
<trkpt lat="52.058128" lon="05.835311"><ele>37.1</ele><time>2021-01-12T16:24:27Z</time><name>PT9249</name></trkpt>
<trkpt lat="52.058137" lon="05.835326"><ele>37.2</ele><time>2021-01-12T16:24:29Z</time><name>PT9250</name></trkpt>
<trkpt lat="52.058143" lon="05.835339"><ele>37.1</ele><time>2021-01-12T16:24:30Z</time><name>PT9251</name></trkpt>
<trkpt lat="52.058149" lon="05.835349"><ele>37.1</ele><time>2021-01-12T16:24:30Z</time><name>PT9252</name></trkpt>
<trkpt lat="52.058157" lon="05.835361"><ele>37.1</ele><time>2021-01-12T16:24:32Z</time><name>PT9253</name></trkpt>
<trkpt lat="52.058168" lon="05.835376"><ele>37</ele><time>2021-01-12T16:24:33Z</time><name>PT9254</name></trkpt>
<trkpt lat="52.058176" lon="05.835388"><ele>37</ele><time>2021-01-12T16:24:33Z</time><name>PT9255</name></trkpt>
<trkpt lat="52.058182" lon="05.835400"><ele>37.1</ele><time>2021-01-12T16:24:35Z</time><name>PT9256</name></trkpt>
<trkpt lat="52.058187" lon="05.835417"><ele>37.1</ele><time>2021-01-12T16:24:36Z</time><name>PT9257</name></trkpt>
<trkpt lat="52.058194" lon="05.835430"><ele>37.3</ele><time>2021-01-12T16:24:36Z</time><name>PT9258</name></trkpt>
<trkpt lat="52.058203" lon="05.835443"><ele>37.1</ele><time>2021-01-12T16:24:38Z</time><name>PT9259</name></trkpt>
<trkpt lat="52.058214" lon="05.835456"><ele>37</ele><time>2021-01-12T16:24:39Z</time><name>PT9260</name></trkpt>
<trkpt lat="52.058223" lon="05.835467"><ele>37</ele><time>2021-01-12T16:24:39Z</time><name>PT9261</name></trkpt>
<trkpt lat="52.058229" lon="05.835479"><ele>36.9</ele><time>2021-01-12T16:24:41Z</time><name>PT9262</name></trkpt>
<trkpt lat="52.058239" lon="05.835494"><ele>37.2</ele><time>2021-01-12T16:24:42Z</time><name>PT9263</name></trkpt>
<trkpt lat="52.058248" lon="05.835508"><ele>37.1</ele><time>2021-01-12T16:24:42Z</time><name>PT9264</name></trkpt>
<trkpt lat="52.058256" lon="05.835520"><ele>37.1</ele><time>2021-01-12T16:24:44Z</time><name>PT9265</name></trkpt>
<trkpt lat="52.058264" lon="05.835527"><ele>37.1</ele><time>2021-01-12T16:24:45Z</time><name>PT9266</name></trkpt>
<trkpt lat="52.058274" lon="05.835534"><ele>37.1</ele><time>2021-01-12T16:24:45Z</time><name>PT9267</name></trkpt>
<trkpt lat="52.058284" lon="05.835544"><ele>37.1</ele><time>2021-01-12T16:24:47Z</time><name>PT9268</name></trkpt>
<trkpt lat="52.058291" lon="05.835555"><ele>37.3</ele><time>2021-01-12T16:24:48Z</time><name>PT9269</name></trkpt>
<trkpt lat="52.058296" lon="05.835567"><ele>37.3</ele><time>2021-01-12T16:24:48Z</time><name>PT9270</name></trkpt>
<trkpt lat="52.058304" lon="05.835583"><ele>37.3</ele><time>2021-01-12T16:24:50Z</time><name>PT9271</name></trkpt>
<trkpt lat="52.058311" lon="05.835596"><ele>37.3</ele><time>2021-01-12T16:24:51Z</time><name>PT9272</name></trkpt>
<trkpt lat="52.058316" lon="05.835606"><ele>37.3</ele><time>2021-01-12T16:24:51Z</time><name>PT9273</name></trkpt>
<trkpt lat="52.058324" lon="05.835618"><ele>37.4</ele><time>2021-01-12T16:24:53Z</time><name>PT9274</name></trkpt>
<trkpt lat="52.058334" lon="05.835631"><ele>37.5</ele><time>2021-01-12T16:24:54Z</time><name>PT9275</name></trkpt>
<trkpt lat="52.058343" lon="05.835647"><ele>37.5</ele><time>2021-01-12T16:24:54Z</time><name>PT9276</name></trkpt>
<trkpt lat="52.058351" lon="05.835661"><ele>37.5</ele><time>2021-01-12T16:24:56Z</time><name>PT9277</name></trkpt>
<trkpt lat="52.058358" lon="05.835674"><ele>37.6</ele><time>2021-01-12T16:24:57Z</time><name>PT9278</name></trkpt>
<trkpt lat="52.058368" lon="05.835689"><ele>37.6</ele><time>2021-01-12T16:24:57Z</time><name>PT9279</name></trkpt>
<trkpt lat="52.058376" lon="05.835701"><ele>37.6</ele><time>2021-01-12T16:24:59Z</time><name>PT9280</name></trkpt>
<trkpt lat="52.058386" lon="05.835715"><ele>37.6</ele><time>2021-01-12T16:25:00Z</time><name>PT9281</name></trkpt>
<trkpt lat="52.058394" lon="05.835727"><ele>37.7</ele><time>2021-01-12T16:25:00Z</time><name>PT9282</name></trkpt>
<trkpt lat="52.058402" lon="05.835739"><ele>37.7</ele><time>2021-01-12T16:25:02Z</time><name>PT9283</name></trkpt>
<trkpt lat="52.058413" lon="05.835751"><ele>37.7</ele><time>2021-01-12T16:25:03Z</time><name>PT9284</name></trkpt>
<trkpt lat="52.058426" lon="05.835762"><ele>37.6</ele><time>2021-01-12T16:25:03Z</time><name>PT9285</name></trkpt>
<trkpt lat="52.058437" lon="05.835773"><ele>37.4</ele><time>2021-01-12T16:25:05Z</time><name>PT9286</name></trkpt>
<trkpt lat="52.058447" lon="05.835785"><ele>37.3</ele><time>2021-01-12T16:25:06Z</time><name>PT9287</name></trkpt>
<trkpt lat="52.058455" lon="05.835798"><ele>37.3</ele><time>2021-01-12T16:25:06Z</time><name>PT9288</name></trkpt>
<trkpt lat="52.058463" lon="05.835808"><ele>37.5</ele><time>2021-01-12T16:25:08Z</time><name>PT9289</name></trkpt>
<trkpt lat="52.058471" lon="05.835822"><ele>37.4</ele><time>2021-01-12T16:25:09Z</time><name>PT9290</name></trkpt>
<trkpt lat="52.058480" lon="05.835838"><ele>37.6</ele><time>2021-01-12T16:25:09Z</time><name>PT9291</name></trkpt>
<trkpt lat="52.058491" lon="05.835853"><ele>37.3</ele><time>2021-01-12T16:25:11Z</time><name>PT9292</name></trkpt>
<trkpt lat="52.058500" lon="05.835864"><ele>37.1</ele><time>2021-01-12T16:25:12Z</time><name>PT9293</name></trkpt>
<trkpt lat="52.058508" lon="05.835876"><ele>37.2</ele><time>2021-01-12T16:25:12Z</time><name>PT9294</name></trkpt>
<trkpt lat="52.058517" lon="05.835890"><ele>37.3</ele><time>2021-01-12T16:25:14Z</time><name>PT9295</name></trkpt>
<trkpt lat="52.058527" lon="05.835901"><ele>37.4</ele><time>2021-01-12T16:25:15Z</time><name>PT9296</name></trkpt>
<trkpt lat="52.058539" lon="05.835913"><ele>37.5</ele><time>2021-01-12T16:25:15Z</time><name>PT9297</name></trkpt>
<trkpt lat="52.058549" lon="05.835926"><ele>37.3</ele><time>2021-01-12T16:25:17Z</time><name>PT9298</name></trkpt>
<trkpt lat="52.058559" lon="05.835940"><ele>37.3</ele><time>2021-01-12T16:25:18Z</time><name>PT9299</name></trkpt>
<trkpt lat="52.058568" lon="05.835954"><ele>37.1</ele><time>2021-01-12T16:25:18Z</time><name>PT9300</name></trkpt>
<trkpt lat="52.058576" lon="05.835966"><ele>37.1</ele><time>2021-01-12T16:25:20Z</time><name>PT9301</name></trkpt>
<trkpt lat="52.058583" lon="05.835977"><ele>37.1</ele><time>2021-01-12T16:25:21Z</time><name>PT9302</name></trkpt>
<trkpt lat="52.058587" lon="05.835987"><ele>37.1</ele><time>2021-01-12T16:25:21Z</time><name>PT9303</name></trkpt>
<trkpt lat="52.058594" lon="05.836005"><ele>37.2</ele><time>2021-01-12T16:25:23Z</time><name>PT9304</name></trkpt>
<trkpt lat="52.058601" lon="05.836021"><ele>37.3</ele><time>2021-01-12T16:25:24Z</time><name>PT9305</name></trkpt>
<trkpt lat="52.058607" lon="05.836034"><ele>37.3</ele><time>2021-01-12T16:25:24Z</time><name>PT9306</name></trkpt>
<trkpt lat="52.058612" lon="05.836046"><ele>37.5</ele><time>2021-01-12T16:25:26Z</time><name>PT9307</name></trkpt>
<trkpt lat="52.058620" lon="05.836061"><ele>37.6</ele><time>2021-01-12T16:25:27Z</time><name>PT9308</name></trkpt>
<trkpt lat="52.058629" lon="05.836077"><ele>37.6</ele><time>2021-01-12T16:25:27Z</time><name>PT9309</name></trkpt>
<trkpt lat="52.058637" lon="05.836092"><ele>37.7</ele><time>2021-01-12T16:25:29Z</time><name>PT9310</name></trkpt>
<trkpt lat="52.058643" lon="05.836107"><ele>37.6</ele><time>2021-01-12T16:25:30Z</time><name>PT9311</name></trkpt>
<trkpt lat="52.058648" lon="05.836122"><ele>37.5</ele><time>2021-01-12T16:25:30Z</time><name>PT9312</name></trkpt>
<trkpt lat="52.058654" lon="05.836136"><ele>37.5</ele><time>2021-01-12T16:25:32Z</time><name>PT9313</name></trkpt>
<trkpt lat="52.058660" lon="05.836150"><ele>37.3</ele><time>2021-01-12T16:25:33Z</time><name>PT9314</name></trkpt>
<trkpt lat="52.058667" lon="05.836164"><ele>37.2</ele><time>2021-01-12T16:25:33Z</time><name>PT9315</name></trkpt>
<trkpt lat="52.058675" lon="05.836175"><ele>37.3</ele><time>2021-01-12T16:25:35Z</time><name>PT9316</name></trkpt>
<trkpt lat="52.058681" lon="05.836189"><ele>37.2</ele><time>2021-01-12T16:25:36Z</time><name>PT9317</name></trkpt>
<trkpt lat="52.058689" lon="05.836202"><ele>37.2</ele><time>2021-01-12T16:25:36Z</time><name>PT9318</name></trkpt>
<trkpt lat="52.058695" lon="05.836214"><ele>37.1</ele><time>2021-01-12T16:25:38Z</time><name>PT9319</name></trkpt>
<trkpt lat="52.058701" lon="05.836231"><ele>37.1</ele><time>2021-01-12T16:25:39Z</time><name>PT9320</name></trkpt>
<trkpt lat="52.058707" lon="05.836246"><ele>37.1</ele><time>2021-01-12T16:25:39Z</time><name>PT9321</name></trkpt>
<trkpt lat="52.058712" lon="05.836261"><ele>37.3</ele><time>2021-01-12T16:25:41Z</time><name>PT9322</name></trkpt>
<trkpt lat="52.058716" lon="05.836275"><ele>37.3</ele><time>2021-01-12T16:25:42Z</time><name>PT9323</name></trkpt>
<trkpt lat="52.058720" lon="05.836286"><ele>37.4</ele><time>2021-01-12T16:25:42Z</time><name>PT9324</name></trkpt>
<trkpt lat="52.058723" lon="05.836296"><ele>37.3</ele><time>2021-01-12T16:25:44Z</time><name>PT9325</name></trkpt>
<trkpt lat="52.058727" lon="05.836309"><ele>37.2</ele><time>2021-01-12T16:25:45Z</time><name>PT9326</name></trkpt>
<trkpt lat="52.058733" lon="05.836321"><ele>37.3</ele><time>2021-01-12T16:25:45Z</time><name>PT9327</name></trkpt>
<trkpt lat="52.058742" lon="05.836337"><ele>37.4</ele><time>2021-01-12T16:25:47Z</time><name>PT9328</name></trkpt>
<trkpt lat="52.058747" lon="05.836351"><ele>37.6</ele><time>2021-01-12T16:25:48Z</time><name>PT9329</name></trkpt>
<trkpt lat="52.058753" lon="05.836365"><ele>37.8</ele><time>2021-01-12T16:25:48Z</time><name>PT9330</name></trkpt>
<trkpt lat="52.058759" lon="05.836380"><ele>37.8</ele><time>2021-01-12T16:25:50Z</time><name>PT9331</name></trkpt>
<trkpt lat="52.058764" lon="05.836397"><ele>37.7</ele><time>2021-01-12T16:25:51Z</time><name>PT9332</name></trkpt>
<trkpt lat="52.058772" lon="05.836408"><ele>37.6</ele><time>2021-01-12T16:25:51Z</time><name>PT9333</name></trkpt>
<trkpt lat="52.058779" lon="05.836420"><ele>37.5</ele><time>2021-01-12T16:25:53Z</time><name>PT9334</name></trkpt>
<trkpt lat="52.058784" lon="05.836432"><ele>37.4</ele><time>2021-01-12T16:25:54Z</time><name>PT9335</name></trkpt>
<trkpt lat="52.058790" lon="05.836448"><ele>37.4</ele><time>2021-01-12T16:25:54Z</time><name>PT9336</name></trkpt>
<trkpt lat="52.058796" lon="05.836461"><ele>37.5</ele><time>2021-01-12T16:25:56Z</time><name>PT9337</name></trkpt>
<trkpt lat="52.058800" lon="05.836473"><ele>37.3</ele><time>2021-01-12T16:25:57Z</time><name>PT9338</name></trkpt>
<trkpt lat="52.058805" lon="05.836491"><ele>37.3</ele><time>2021-01-12T16:25:57Z</time><name>PT9339</name></trkpt>
<trkpt lat="52.058808" lon="05.836508"><ele>37.2</ele><time>2021-01-12T16:25:59Z</time><name>PT9340</name></trkpt>
<trkpt lat="52.058814" lon="05.836523"><ele>37.1</ele><time>2021-01-12T16:26:00Z</time><name>PT9341</name></trkpt>
<trkpt lat="52.058822" lon="05.836541"><ele>37.3</ele><time>2021-01-12T16:26:00Z</time><name>PT9342</name></trkpt>
<trkpt lat="52.058830" lon="05.836558"><ele>37.4</ele><time>2021-01-12T16:26:02Z</time><name>PT9343</name></trkpt>
<trkpt lat="52.058837" lon="05.836573"><ele>37.3</ele><time>2021-01-12T16:26:03Z</time><name>PT9344</name></trkpt>
<trkpt lat="52.058843" lon="05.836591"><ele>37.3</ele><time>2021-01-12T16:26:03Z</time><name>PT9345</name></trkpt>
<trkpt lat="52.058849" lon="05.836606"><ele>37.1</ele><time>2021-01-12T16:26:05Z</time><name>PT9346</name></trkpt>
<trkpt lat="52.058853" lon="05.836622"><ele>36.9</ele><time>2021-01-12T16:26:06Z</time><name>PT9347</name></trkpt>
<trkpt lat="52.058856" lon="05.836635"><ele>36.8</ele><time>2021-01-12T16:26:06Z</time><name>PT9348</name></trkpt>
<trkpt lat="52.058859" lon="05.836651"><ele>36.8</ele><time>2021-01-12T16:26:08Z</time><name>PT9349</name></trkpt>
<trkpt lat="52.058864" lon="05.836668"><ele>36.8</ele><time>2021-01-12T16:26:09Z</time><name>PT9350</name></trkpt>
<trkpt lat="52.058868" lon="05.836687"><ele>36.8</ele><time>2021-01-12T16:26:09Z</time><name>PT9351</name></trkpt>
<trkpt lat="52.058873" lon="05.836706"><ele>36.7</ele><time>2021-01-12T16:26:11Z</time><name>PT9352</name></trkpt>
<trkpt lat="52.058878" lon="05.836720"><ele>36.6</ele><time>2021-01-12T16:26:12Z</time><name>PT9353</name></trkpt>
<trkpt lat="52.058884" lon="05.836737"><ele>36.6</ele><time>2021-01-12T16:26:12Z</time><name>PT9354</name></trkpt>
<trkpt lat="52.058892" lon="05.836754"><ele>36.8</ele><time>2021-01-12T16:26:14Z</time><name>PT9355</name></trkpt>
<trkpt lat="52.058897" lon="05.836768"><ele>36.9</ele><time>2021-01-12T16:26:15Z</time><name>PT9356</name></trkpt>
<trkpt lat="52.058901" lon="05.836786"><ele>37</ele><time>2021-01-12T16:26:15Z</time><name>PT9357</name></trkpt>
<trkpt lat="52.058906" lon="05.836804"><ele>36.9</ele><time>2021-01-12T16:26:17Z</time><name>PT9358</name></trkpt>
<trkpt lat="52.058910" lon="05.836821"><ele>37</ele><time>2021-01-12T16:26:18Z</time><name>PT9359</name></trkpt>
<trkpt lat="52.058915" lon="05.836838"><ele>37</ele><time>2021-01-12T16:26:18Z</time><name>PT9360</name></trkpt>
<trkpt lat="52.058924" lon="05.836851"><ele>37</ele><time>2021-01-12T16:26:20Z</time><name>PT9361</name></trkpt>
<trkpt lat="52.058931" lon="05.836866"><ele>36.9</ele><time>2021-01-12T16:26:21Z</time><name>PT9362</name></trkpt>
<trkpt lat="52.058938" lon="05.836883"><ele>36.6</ele><time>2021-01-12T16:26:21Z</time><name>PT9363</name></trkpt>
<trkpt lat="52.058945" lon="05.836899"><ele>36.7</ele><time>2021-01-12T16:26:23Z</time><name>PT9364</name></trkpt>
<trkpt lat="52.058948" lon="05.836912"><ele>36.6</ele><time>2021-01-12T16:26:24Z</time><name>PT9365</name></trkpt>
<trkpt lat="52.058952" lon="05.836926"><ele>36.8</ele><time>2021-01-12T16:26:24Z</time><name>PT9366</name></trkpt>
<trkpt lat="52.058957" lon="05.836942"><ele>36.9</ele><time>2021-01-12T16:26:26Z</time><name>PT9367</name></trkpt>
<trkpt lat="52.058960" lon="05.836965"><ele>36.8</ele><time>2021-01-12T16:26:27Z</time><name>PT9368</name></trkpt>
<trkpt lat="52.058965" lon="05.836985"><ele>36.7</ele><time>2021-01-12T16:26:27Z</time><name>PT9369</name></trkpt>
<trkpt lat="52.058968" lon="05.837003"><ele>36.5</ele><time>2021-01-12T16:26:29Z</time><name>PT9370</name></trkpt>
<trkpt lat="52.058973" lon="05.837018"><ele>36.4</ele><time>2021-01-12T16:26:30Z</time><name>PT9371</name></trkpt>
<trkpt lat="52.058978" lon="05.837035"><ele>36.6</ele><time>2021-01-12T16:26:30Z</time><name>PT9372</name></trkpt>
<trkpt lat="52.058983" lon="05.837050"><ele>36.6</ele><time>2021-01-12T16:26:32Z</time><name>PT9373</name></trkpt>
<trkpt lat="52.058991" lon="05.837063"><ele>36.6</ele><time>2021-01-12T16:26:33Z</time><name>PT9374</name></trkpt>
<trkpt lat="52.058996" lon="05.837075"><ele>36.6</ele><time>2021-01-12T16:26:33Z</time><name>PT9375</name></trkpt>
<trkpt lat="52.058998" lon="05.837083"><ele>36.4</ele><time>2021-01-12T16:26:35Z</time><name>PT9376</name></trkpt>
<trkpt lat="52.059000" lon="05.837104"><ele>36.5</ele><time>2021-01-12T16:26:36Z</time><name>PT9377</name></trkpt>
<trkpt lat="52.059003" lon="05.837121"><ele>36.6</ele><time>2021-01-12T16:26:36Z</time><name>PT9378</name></trkpt>
<trkpt lat="52.059005" lon="05.837137"><ele>36.5</ele><time>2021-01-12T16:26:38Z</time><name>PT9379</name></trkpt>
<trkpt lat="52.059008" lon="05.837155"><ele>36.6</ele><time>2021-01-12T16:26:39Z</time><name>PT9380</name></trkpt>
<trkpt lat="52.059011" lon="05.837167"><ele>36.4</ele><time>2021-01-12T16:26:39Z</time><name>PT9381</name></trkpt>
<trkpt lat="52.059014" lon="05.837183"><ele>36.1</ele><time>2021-01-12T16:26:41Z</time><name>PT9382</name></trkpt>
<trkpt lat="52.059018" lon="05.837202"><ele>36.1</ele><time>2021-01-12T16:26:42Z</time><name>PT9383</name></trkpt>
<trkpt lat="52.059024" lon="05.837217"><ele>36.2</ele><time>2021-01-12T16:26:42Z</time><name>PT9384</name></trkpt>
<trkpt lat="52.059028" lon="05.837232"><ele>36.2</ele><time>2021-01-12T16:26:44Z</time><name>PT9385</name></trkpt>
<trkpt lat="52.059032" lon="05.837246"><ele>36.1</ele><time>2021-01-12T16:26:45Z</time><name>PT9386</name></trkpt>
<trkpt lat="52.059034" lon="05.837263"><ele>36.2</ele><time>2021-01-12T16:26:45Z</time><name>PT9387</name></trkpt>
<trkpt lat="52.059036" lon="05.837278"><ele>36.1</ele><time>2021-01-12T16:26:47Z</time><name>PT9388</name></trkpt>
<trkpt lat="52.059035" lon="05.837297"><ele>36.3</ele><time>2021-01-12T16:26:48Z</time><name>PT9389</name></trkpt>
<trkpt lat="52.059039" lon="05.837316"><ele>36.1</ele><time>2021-01-12T16:26:48Z</time><name>PT9390</name></trkpt>
<trkpt lat="52.059042" lon="05.837336"><ele>36.2</ele><time>2021-01-12T16:26:50Z</time><name>PT9391</name></trkpt>
<trkpt lat="52.059046" lon="05.837349"><ele>36.1</ele><time>2021-01-12T16:26:51Z</time><name>PT9392</name></trkpt>
<trkpt lat="52.059051" lon="05.837362"><ele>36.1</ele><time>2021-01-12T16:26:51Z</time><name>PT9393</name></trkpt>
<trkpt lat="52.059057" lon="05.837381"><ele>36.1</ele><time>2021-01-12T16:26:53Z</time><name>PT9394</name></trkpt>
<trkpt lat="52.059062" lon="05.837396"><ele>36.1</ele><time>2021-01-12T16:26:54Z</time><name>PT9395</name></trkpt>
<trkpt lat="52.059068" lon="05.837413"><ele>36.1</ele><time>2021-01-12T16:26:54Z</time><name>PT9396</name></trkpt>
<trkpt lat="52.059071" lon="05.837432"><ele>36.1</ele><time>2021-01-12T16:26:56Z</time><name>PT9397</name></trkpt>
<trkpt lat="52.059073" lon="05.837451"><ele>36.1</ele><time>2021-01-12T16:26:57Z</time><name>PT9398</name></trkpt>
<trkpt lat="52.059077" lon="05.837469"><ele>36.1</ele><time>2021-01-12T16:26:57Z</time><name>PT9399</name></trkpt>
<trkpt lat="52.059079" lon="05.837481"><ele>36</ele><time>2021-01-12T16:26:59Z</time><name>PT9400</name></trkpt>
<trkpt lat="52.059083" lon="05.837493"><ele>36.1</ele><time>2021-01-12T16:27:00Z</time><name>PT9401</name></trkpt>
<trkpt lat="52.059089" lon="05.837511"><ele>36</ele><time>2021-01-12T16:27:00Z</time><name>PT9402</name></trkpt>
<trkpt lat="52.059095" lon="05.837530"><ele>36.1</ele><time>2021-01-12T16:27:02Z</time><name>PT9403</name></trkpt>
<trkpt lat="52.059100" lon="05.837548"><ele>36</ele><time>2021-01-12T16:27:03Z</time><name>PT9404</name></trkpt>
<trkpt lat="52.059107" lon="05.837563"><ele>36</ele><time>2021-01-12T16:27:03Z</time><name>PT9405</name></trkpt>
<trkpt lat="52.059113" lon="05.837575"><ele>35.9</ele><time>2021-01-12T16:27:05Z</time><name>PT9406</name></trkpt>
<trkpt lat="52.059117" lon="05.837590"><ele>35.7</ele><time>2021-01-12T16:27:06Z</time><name>PT9407</name></trkpt>
<trkpt lat="52.059120" lon="05.837607"><ele>35.9</ele><time>2021-01-12T16:27:06Z</time><name>PT9408</name></trkpt>
<trkpt lat="52.059125" lon="05.837625"><ele>36</ele><time>2021-01-12T16:27:08Z</time><name>PT9409</name></trkpt>
<trkpt lat="52.059131" lon="05.837638"><ele>36.1</ele><time>2021-01-12T16:27:09Z</time><name>PT9410</name></trkpt>
<trkpt lat="52.059136" lon="05.837655"><ele>36.2</ele><time>2021-01-12T16:27:09Z</time><name>PT9411</name></trkpt>
<trkpt lat="52.059140" lon="05.837669"><ele>36.3</ele><time>2021-01-12T16:27:11Z</time><name>PT9412</name></trkpt>
<trkpt lat="52.059144" lon="05.837687"><ele>36.2</ele><time>2021-01-12T16:27:12Z</time><name>PT9413</name></trkpt>
<trkpt lat="52.059149" lon="05.837712"><ele>36.1</ele><time>2021-01-12T16:27:12Z</time><name>PT9414</name></trkpt>
<trkpt lat="52.059155" lon="05.837732"><ele>36.1</ele><time>2021-01-12T16:27:14Z</time><name>PT9415</name></trkpt>
<trkpt lat="52.059162" lon="05.837748"><ele>36.2</ele><time>2021-01-12T16:27:15Z</time><name>PT9416</name></trkpt>
<trkpt lat="52.059169" lon="05.837766"><ele>36.1</ele><time>2021-01-12T16:27:15Z</time><name>PT9417</name></trkpt>
<trkpt lat="52.059177" lon="05.837783"><ele>36.4</ele><time>2021-01-12T16:27:17Z</time><name>PT9418</name></trkpt>
<trkpt lat="52.059184" lon="05.837795"><ele>36.3</ele><time>2021-01-12T16:27:18Z</time><name>PT9419</name></trkpt>
<trkpt lat="52.059191" lon="05.837808"><ele>36.3</ele><time>2021-01-12T16:27:18Z</time><name>PT9420</name></trkpt>
<trkpt lat="52.059197" lon="05.837820"><ele>36.6</ele><time>2021-01-12T16:27:20Z</time><name>PT9421</name></trkpt>
<trkpt lat="52.059200" lon="05.837833"><ele>36.4</ele><time>2021-01-12T16:27:21Z</time><name>PT9422</name></trkpt>
<trkpt lat="52.059206" lon="05.837849"><ele>36.4</ele><time>2021-01-12T16:27:21Z</time><name>PT9423</name></trkpt>
<trkpt lat="52.059211" lon="05.837863"><ele>36.3</ele><time>2021-01-12T16:27:23Z</time><name>PT9424</name></trkpt>
<trkpt lat="52.059217" lon="05.837873"><ele>36.1</ele><time>2021-01-12T16:27:24Z</time><name>PT9425</name></trkpt>
<trkpt lat="52.059223" lon="05.837887"><ele>36.1</ele><time>2021-01-12T16:27:24Z</time><name>PT9426</name></trkpt>
<trkpt lat="52.059230" lon="05.837902"><ele>36.1</ele><time>2021-01-12T16:27:26Z</time><name>PT9427</name></trkpt>
<trkpt lat="52.059236" lon="05.837914"><ele>36.2</ele><time>2021-01-12T16:27:27Z</time><name>PT9428</name></trkpt>
<trkpt lat="52.059242" lon="05.837929"><ele>36.2</ele><time>2021-01-12T16:27:27Z</time><name>PT9429</name></trkpt>
<trkpt lat="52.059249" lon="05.837942"><ele>36.3</ele><time>2021-01-12T16:27:29Z</time><name>PT9430</name></trkpt>
<trkpt lat="52.059258" lon="05.837955"><ele>36.4</ele><time>2021-01-12T16:27:30Z</time><name>PT9431</name></trkpt>
<trkpt lat="52.059265" lon="05.837968"><ele>36.5</ele><time>2021-01-12T16:27:30Z</time><name>PT9432</name></trkpt>
<trkpt lat="52.059270" lon="05.837983"><ele>36.6</ele><time>2021-01-12T16:27:32Z</time><name>PT9433</name></trkpt>
<trkpt lat="52.059278" lon="05.837996"><ele>36.8</ele><time>2021-01-12T16:27:33Z</time><name>PT9434</name></trkpt>
<trkpt lat="52.059286" lon="05.838011"><ele>36.7</ele><time>2021-01-12T16:27:33Z</time><name>PT9435</name></trkpt>
<trkpt lat="52.059291" lon="05.838030"><ele>36.8</ele><time>2021-01-12T16:27:35Z</time><name>PT9436</name></trkpt>
<trkpt lat="52.059297" lon="05.838050"><ele>37.2</ele><time>2021-01-12T16:27:36Z</time><name>PT9437</name></trkpt>
<trkpt lat="52.059304" lon="05.838070"><ele>37.2</ele><time>2021-01-12T16:27:36Z</time><name>PT9438</name></trkpt>
<trkpt lat="52.059310" lon="05.838087"><ele>37.2</ele><time>2021-01-12T16:27:38Z</time><name>PT9439</name></trkpt>
<trkpt lat="52.059317" lon="05.838099"><ele>37.4</ele><time>2021-01-12T16:27:39Z</time><name>PT9440</name></trkpt>
<trkpt lat="52.059325" lon="05.838113"><ele>37.6</ele><time>2021-01-12T16:27:39Z</time><name>PT9441</name></trkpt>
<trkpt lat="52.059331" lon="05.838126"><ele>37.4</ele><time>2021-01-12T16:27:41Z</time><name>PT9442</name></trkpt>
<trkpt lat="52.059339" lon="05.838141"><ele>37.5</ele><time>2021-01-12T16:27:42Z</time><name>PT9443</name></trkpt>
<trkpt lat="52.059344" lon="05.838154"><ele>37.4</ele><time>2021-01-12T16:27:42Z</time><name>PT9444</name></trkpt>
<trkpt lat="52.059345" lon="05.838168"><ele>37.1</ele><time>2021-01-12T16:27:44Z</time><name>PT9445</name></trkpt>
<trkpt lat="52.059349" lon="05.838180"><ele>37.1</ele><time>2021-01-12T16:27:45Z</time><name>PT9446</name></trkpt>
<trkpt lat="52.059357" lon="05.838195"><ele>37.1</ele><time>2021-01-12T16:27:45Z</time><name>PT9447</name></trkpt>
<trkpt lat="52.059364" lon="05.838214"><ele>37.1</ele><time>2021-01-12T16:27:47Z</time><name>PT9448</name></trkpt>
<trkpt lat="52.059371" lon="05.838229"><ele>37.1</ele><time>2021-01-12T16:27:48Z</time><name>PT9449</name></trkpt>
<trkpt lat="52.059378" lon="05.838243"><ele>37.1</ele><time>2021-01-12T16:27:48Z</time><name>PT9450</name></trkpt>
<trkpt lat="52.059384" lon="05.838255"><ele>37.1</ele><time>2021-01-12T16:27:50Z</time><name>PT9451</name></trkpt>
<trkpt lat="52.059389" lon="05.838268"><ele>37.1</ele><time>2021-01-12T16:27:51Z</time><name>PT9452</name></trkpt>
<trkpt lat="52.059393" lon="05.838282"><ele>37.1</ele><time>2021-01-12T16:27:51Z</time><name>PT9453</name></trkpt>
<trkpt lat="52.059398" lon="05.838296"><ele>37.2</ele><time>2021-01-12T16:27:53Z</time><name>PT9454</name></trkpt>
<trkpt lat="52.059407" lon="05.838312"><ele>37.3</ele><time>2021-01-12T16:27:54Z</time><name>PT9455</name></trkpt>
<trkpt lat="52.059412" lon="05.838330"><ele>37.3</ele><time>2021-01-12T16:27:54Z</time><name>PT9456</name></trkpt>
<trkpt lat="52.059415" lon="05.838346"><ele>37.3</ele><time>2021-01-12T16:27:56Z</time><name>PT9457</name></trkpt>
<trkpt lat="52.059420" lon="05.838360"><ele>37.4</ele><time>2021-01-12T16:27:57Z</time><name>PT9458</name></trkpt>
<trkpt lat="52.059427" lon="05.838376"><ele>37.5</ele><time>2021-01-12T16:27:57Z</time><name>PT9459</name></trkpt>
<trkpt lat="52.059433" lon="05.838392"><ele>37.4</ele><time>2021-01-12T16:27:59Z</time><name>PT9460</name></trkpt>
<trkpt lat="52.059438" lon="05.838407"><ele>37.6</ele><time>2021-01-12T16:28:00Z</time><name>PT9461</name></trkpt>
<trkpt lat="52.059444" lon="05.838419"><ele>37.5</ele><time>2021-01-12T16:28:00Z</time><name>PT9462</name></trkpt>
<trkpt lat="52.059450" lon="05.838432"><ele>37.6</ele><time>2021-01-12T16:28:02Z</time><name>PT9463</name></trkpt>
<trkpt lat="52.059455" lon="05.838448"><ele>37.5</ele><time>2021-01-12T16:28:03Z</time><name>PT9464</name></trkpt>
<trkpt lat="52.059460" lon="05.838470"><ele>37.5</ele><time>2021-01-12T16:28:03Z</time><name>PT9465</name></trkpt>
<trkpt lat="52.059462" lon="05.838489"><ele>37.5</ele><time>2021-01-12T16:28:05Z</time><name>PT9466</name></trkpt>
<trkpt lat="52.059468" lon="05.838504"><ele>37.5</ele><time>2021-01-12T16:28:06Z</time><name>PT9467</name></trkpt>
<trkpt lat="52.059475" lon="05.838519"><ele>37.5</ele><time>2021-01-12T16:28:06Z</time><name>PT9468</name></trkpt>
<trkpt lat="52.059482" lon="05.838535"><ele>37.5</ele><time>2021-01-12T16:28:08Z</time><name>PT9469</name></trkpt>
<trkpt lat="52.059487" lon="05.838549"><ele>37.2</ele><time>2021-01-12T16:28:09Z</time><name>PT9470</name></trkpt>
<trkpt lat="52.059495" lon="05.838562"><ele>37.1</ele><time>2021-01-12T16:28:09Z</time><name>PT9471</name></trkpt>
<trkpt lat="52.059499" lon="05.838573"><ele>37.2</ele><time>2021-01-12T16:28:11Z</time><name>PT9472</name></trkpt>
<trkpt lat="52.059503" lon="05.838589"><ele>37.2</ele><time>2021-01-12T16:28:12Z</time><name>PT9473</name></trkpt>
<trkpt lat="52.059509" lon="05.838606"><ele>37.3</ele><time>2021-01-12T16:28:12Z</time><name>PT9474</name></trkpt>
<trkpt lat="52.059515" lon="05.838617"><ele>37.6</ele><time>2021-01-12T16:28:14Z</time><name>PT9475</name></trkpt>
<trkpt lat="52.059524" lon="05.838627"><ele>37.5</ele><time>2021-01-12T16:28:15Z</time><name>PT9476</name></trkpt>
<trkpt lat="52.059529" lon="05.838641"><ele>37.5</ele><time>2021-01-12T16:28:15Z</time><name>PT9477</name></trkpt>
<trkpt lat="52.059536" lon="05.838657"><ele>37.6</ele><time>2021-01-12T16:28:17Z</time><name>PT9478</name></trkpt>
<trkpt lat="52.059543" lon="05.838672"><ele>37.4</ele><time>2021-01-12T16:28:18Z</time><name>PT9479</name></trkpt>
<trkpt lat="52.059549" lon="05.838687"><ele>37.5</ele><time>2021-01-12T16:28:18Z</time><name>PT9480</name></trkpt>
<trkpt lat="52.059556" lon="05.838700"><ele>37.6</ele><time>2021-01-12T16:28:20Z</time><name>PT9481</name></trkpt>
<trkpt lat="52.059561" lon="05.838715"><ele>37.7</ele><time>2021-01-12T16:28:21Z</time><name>PT9482</name></trkpt>
<trkpt lat="52.059566" lon="05.838731"><ele>37.8</ele><time>2021-01-12T16:28:21Z</time><name>PT9483</name></trkpt>
<trkpt lat="52.059571" lon="05.838748"><ele>37.8</ele><time>2021-01-12T16:28:23Z</time><name>PT9484</name></trkpt>
<trkpt lat="52.059576" lon="05.838765"><ele>37.9</ele><time>2021-01-12T16:28:24Z</time><name>PT9485</name></trkpt>
<trkpt lat="52.059580" lon="05.838778"><ele>38</ele><time>2021-01-12T16:28:24Z</time><name>PT9486</name></trkpt>
<trkpt lat="52.059585" lon="05.838794"><ele>38</ele><time>2021-01-12T16:28:26Z</time><name>PT9487</name></trkpt>
<trkpt lat="52.059592" lon="05.838808"><ele>37.8</ele><time>2021-01-12T16:28:27Z</time><name>PT9488</name></trkpt>
<trkpt lat="52.059599" lon="05.838823"><ele>37.9</ele><time>2021-01-12T16:28:27Z</time><name>PT9489</name></trkpt>
<trkpt lat="52.059607" lon="05.838836"><ele>37.7</ele><time>2021-01-12T16:28:29Z</time><name>PT9490</name></trkpt>
<trkpt lat="52.059612" lon="05.838851"><ele>37.8</ele><time>2021-01-12T16:28:30Z</time><name>PT9491</name></trkpt>
<trkpt lat="52.059617" lon="05.838865"><ele>37.8</ele><time>2021-01-12T16:28:30Z</time><name>PT9492</name></trkpt>
<trkpt lat="52.059623" lon="05.838879"><ele>38</ele><time>2021-01-12T16:28:32Z</time><name>PT9493</name></trkpt>
<trkpt lat="52.059629" lon="05.838897"><ele>38.1</ele><time>2021-01-12T16:28:33Z</time><name>PT9494</name></trkpt>
<trkpt lat="52.059636" lon="05.838922"><ele>38</ele><time>2021-01-12T16:28:33Z</time><name>PT9495</name></trkpt>
<trkpt lat="52.059641" lon="05.838943"><ele>38</ele><time>2021-01-12T16:28:35Z</time><name>PT9496</name></trkpt>
<trkpt lat="52.059646" lon="05.838960"><ele>38.1</ele><time>2021-01-12T16:28:36Z</time><name>PT9497</name></trkpt>
<trkpt lat="52.059650" lon="05.838977"><ele>38.1</ele><time>2021-01-12T16:28:36Z</time><name>PT9498</name></trkpt>
<trkpt lat="52.059654" lon="05.838993"><ele>38.2</ele><time>2021-01-12T16:28:38Z</time><name>PT9499</name></trkpt>
<trkpt lat="52.059658" lon="05.839008"><ele>38.2</ele><time>2021-01-12T16:28:39Z</time><name>PT9500</name></trkpt>
<trkpt lat="52.059664" lon="05.839022"><ele>38.2</ele><time>2021-01-12T16:28:39Z</time><name>PT9501</name></trkpt>
<trkpt lat="52.059665" lon="05.839032"><ele>38.2</ele><time>2021-01-12T16:28:41Z</time><name>PT9502</name></trkpt>
<trkpt lat="52.059665" lon="05.839047"><ele>38.1</ele><time>2021-01-12T16:28:42Z</time><name>PT9503</name></trkpt>
<trkpt lat="52.059669" lon="05.839062"><ele>38.1</ele><time>2021-01-12T16:28:42Z</time><name>PT9504</name></trkpt>
<trkpt lat="52.059673" lon="05.839076"><ele>38</ele><time>2021-01-12T16:28:44Z</time><name>PT9505</name></trkpt>
<trkpt lat="52.059678" lon="05.839093"><ele>37.9</ele><time>2021-01-12T16:28:45Z</time><name>PT9506</name></trkpt>
<trkpt lat="52.059685" lon="05.839109"><ele>38.1</ele><time>2021-01-12T16:28:45Z</time><name>PT9507</name></trkpt>
<trkpt lat="52.059691" lon="05.839125"><ele>38.1</ele><time>2021-01-12T16:28:47Z</time><name>PT9508</name></trkpt>
<trkpt lat="52.059694" lon="05.839142"><ele>38.1</ele><time>2021-01-12T16:28:48Z</time><name>PT9509</name></trkpt>
<trkpt lat="52.059695" lon="05.839156"><ele>38.1</ele><time>2021-01-12T16:28:48Z</time><name>PT9510</name></trkpt>
<trkpt lat="52.059700" lon="05.839172"><ele>37.9</ele><time>2021-01-12T16:28:50Z</time><name>PT9511</name></trkpt>
<trkpt lat="52.059706" lon="05.839195"><ele>37.8</ele><time>2021-01-12T16:28:51Z</time><name>PT9512</name></trkpt>
<trkpt lat="52.059709" lon="05.839211"><ele>37.7</ele><time>2021-01-12T16:28:51Z</time><name>PT9513</name></trkpt>
<trkpt lat="52.059714" lon="05.839227"><ele>37.8</ele><time>2021-01-12T16:28:53Z</time><name>PT9514</name></trkpt>
<trkpt lat="52.059720" lon="05.839243"><ele>37.7</ele><time>2021-01-12T16:28:54Z</time><name>PT9515</name></trkpt>
<trkpt lat="52.059726" lon="05.839260"><ele>37.7</ele><time>2021-01-12T16:28:54Z</time><name>PT9516</name></trkpt>
<trkpt lat="52.059733" lon="05.839278"><ele>37.6</ele><time>2021-01-12T16:28:56Z</time><name>PT9517</name></trkpt>
<trkpt lat="52.059737" lon="05.839294"><ele>37.6</ele><time>2021-01-12T16:28:57Z</time><name>PT9518</name></trkpt>
<trkpt lat="52.059742" lon="05.839310"><ele>37.6</ele><time>2021-01-12T16:28:57Z</time><name>PT9519</name></trkpt>
<trkpt lat="52.059749" lon="05.839327"><ele>37.7</ele><time>2021-01-12T16:28:59Z</time><name>PT9520</name></trkpt>
<trkpt lat="52.059754" lon="05.839342"><ele>37.9</ele><time>2021-01-12T16:29:00Z</time><name>PT9521</name></trkpt>
<trkpt lat="52.059758" lon="05.839354"><ele>37.9</ele><time>2021-01-12T16:29:00Z</time><name>PT9522</name></trkpt>
<trkpt lat="52.059764" lon="05.839373"><ele>37.9</ele><time>2021-01-12T16:29:02Z</time><name>PT9523</name></trkpt>
<trkpt lat="52.059768" lon="05.839387"><ele>38</ele><time>2021-01-12T16:29:03Z</time><name>PT9524</name></trkpt>
<trkpt lat="52.059771" lon="05.839402"><ele>37.9</ele><time>2021-01-12T16:29:03Z</time><name>PT9525</name></trkpt>
<trkpt lat="52.059775" lon="05.839415"><ele>37.8</ele><time>2021-01-12T16:29:05Z</time><name>PT9526</name></trkpt>
<trkpt lat="52.059780" lon="05.839434"><ele>38</ele><time>2021-01-12T16:29:06Z</time><name>PT9527</name></trkpt>
<trkpt lat="52.059786" lon="05.839449"><ele>38</ele><time>2021-01-12T16:29:06Z</time><name>PT9528</name></trkpt>
<trkpt lat="52.059791" lon="05.839466"><ele>38.1</ele><time>2021-01-12T16:29:08Z</time><name>PT9529</name></trkpt>
<trkpt lat="52.059796" lon="05.839483"><ele>38.1</ele><time>2021-01-12T16:29:09Z</time><name>PT9530</name></trkpt>
<trkpt lat="52.059799" lon="05.839498"><ele>38.1</ele><time>2021-01-12T16:29:09Z</time><name>PT9531</name></trkpt>
<trkpt lat="52.059804" lon="05.839517"><ele>38</ele><time>2021-01-12T16:29:11Z</time><name>PT9532</name></trkpt>
<trkpt lat="52.059810" lon="05.839538"><ele>37.9</ele><time>2021-01-12T16:29:12Z</time><name>PT9533</name></trkpt>
<trkpt lat="52.059812" lon="05.839552"><ele>37.7</ele><time>2021-01-12T16:29:12Z</time><name>PT9534</name></trkpt>
<trkpt lat="52.059817" lon="05.839571"><ele>37.8</ele><time>2021-01-12T16:29:14Z</time><name>PT9535</name></trkpt>
<trkpt lat="52.059822" lon="05.839588"><ele>37.8</ele><time>2021-01-12T16:29:15Z</time><name>PT9536</name></trkpt>
<trkpt lat="52.059825" lon="05.839603"><ele>37.8</ele><time>2021-01-12T16:29:15Z</time><name>PT9537</name></trkpt>
<trkpt lat="52.059830" lon="05.839617"><ele>38.1</ele><time>2021-01-12T16:29:17Z</time><name>PT9538</name></trkpt>
<trkpt lat="52.059835" lon="05.839635"><ele>38.1</ele><time>2021-01-12T16:29:18Z</time><name>PT9539</name></trkpt>
<trkpt lat="52.059842" lon="05.839652"><ele>38.1</ele><time>2021-01-12T16:29:18Z</time><name>PT9540</name></trkpt>
<trkpt lat="52.059850" lon="05.839666"><ele>38.1</ele><time>2021-01-12T16:29:20Z</time><name>PT9541</name></trkpt>
<trkpt lat="52.059856" lon="05.839679"><ele>37.9</ele><time>2021-01-12T16:29:21Z</time><name>PT9542</name></trkpt>
<trkpt lat="52.059861" lon="05.839696"><ele>38</ele><time>2021-01-12T16:29:21Z</time><name>PT9543</name></trkpt>
<trkpt lat="52.059865" lon="05.839713"><ele>37.9</ele><time>2021-01-12T16:29:23Z</time><name>PT9544</name></trkpt>
<trkpt lat="52.059872" lon="05.839732"><ele>38</ele><time>2021-01-12T16:29:24Z</time><name>PT9545</name></trkpt>
<trkpt lat="52.059880" lon="05.839750"><ele>37.9</ele><time>2021-01-12T16:29:24Z</time><name>PT9546</name></trkpt>
<trkpt lat="52.059887" lon="05.839767"><ele>37.9</ele><time>2021-01-12T16:29:26Z</time><name>PT9547</name></trkpt>
<trkpt lat="52.059891" lon="05.839782"><ele>37.9</ele><time>2021-01-12T16:29:27Z</time><name>PT9548</name></trkpt>
<trkpt lat="52.059898" lon="05.839796"><ele>38</ele><time>2021-01-12T16:29:27Z</time><name>PT9549</name></trkpt>
<trkpt lat="52.059903" lon="05.839808"><ele>38.2</ele><time>2021-01-12T16:29:29Z</time><name>PT9550</name></trkpt>
<trkpt lat="52.059907" lon="05.839820"><ele>38.2</ele><time>2021-01-12T16:29:30Z</time><name>PT9551</name></trkpt>
<trkpt lat="52.059911" lon="05.839833"><ele>38.2</ele><time>2021-01-12T16:29:30Z</time><name>PT9552</name></trkpt>
<trkpt lat="52.059914" lon="05.839842"><ele>38.3</ele><time>2021-01-12T16:29:32Z</time><name>PT9553</name></trkpt>
<trkpt lat="52.059917" lon="05.839853"><ele>38.4</ele><time>2021-01-12T16:29:33Z</time><name>PT9554</name></trkpt>
<trkpt lat="52.059920" lon="05.839862"><ele>38.4</ele><time>2021-01-12T16:29:33Z</time><name>PT9555</name></trkpt>
<trkpt lat="52.059923" lon="05.839869"><ele>38.2</ele><time>2021-01-12T16:29:35Z</time><name>PT9556</name></trkpt>
<trkpt lat="52.059927" lon="05.839878"><ele>38.2</ele><time>2021-01-12T16:29:36Z</time><name>PT9557</name></trkpt>
<trkpt lat="52.059927" lon="05.839888"><ele>38.1</ele><time>2021-01-12T16:29:39Z</time><name>PT9558</name></trkpt>
<trkpt lat="52.059935" lon="05.839909"><ele>38.1</ele><time>2021-01-12T16:29:39Z</time><name>PT9559</name></trkpt>
<trkpt lat="52.059942" lon="05.839935"><ele>38.1</ele><time>2021-01-12T16:29:41Z</time><name>PT9560</name></trkpt>
<trkpt lat="52.059945" lon="05.839957"><ele>38.1</ele><time>2021-01-12T16:29:42Z</time><name>PT9561</name></trkpt>
<trkpt lat="52.059952" lon="05.839972"><ele>38.1</ele><time>2021-01-12T16:29:42Z</time><name>PT9562</name></trkpt>
<trkpt lat="52.059959" lon="05.839986"><ele>38.1</ele><time>2021-01-12T16:29:44Z</time><name>PT9563</name></trkpt>
<trkpt lat="52.059966" lon="05.840004"><ele>38.1</ele><time>2021-01-12T16:29:45Z</time><name>PT9564</name></trkpt>
<trkpt lat="52.059978" lon="05.840022"><ele>38.2</ele><time>2021-01-12T16:29:45Z</time><name>PT9565</name></trkpt>
<trkpt lat="52.059983" lon="05.840044"><ele>38.2</ele><time>2021-01-12T16:29:47Z</time><name>PT9566</name></trkpt>
<trkpt lat="52.059990" lon="05.840065"><ele>38.1</ele><time>2021-01-12T16:29:48Z</time><name>PT9567</name></trkpt>
<trkpt lat="52.059997" lon="05.840085"><ele>38.1</ele><time>2021-01-12T16:29:48Z</time><name>PT9568</name></trkpt>
<trkpt lat="52.060002" lon="05.840099"><ele>38</ele><time>2021-01-12T16:29:50Z</time><name>PT9569</name></trkpt>
<trkpt lat="52.060006" lon="05.840114"><ele>38</ele><time>2021-01-12T16:29:51Z</time><name>PT9570</name></trkpt>
<trkpt lat="52.060015" lon="05.840130"><ele>38</ele><time>2021-01-12T16:29:51Z</time><name>PT9571</name></trkpt>
<trkpt lat="52.060023" lon="05.840146"><ele>38</ele><time>2021-01-12T16:29:53Z</time><name>PT9572</name></trkpt>
<trkpt lat="52.060029" lon="05.840161"><ele>38.1</ele><time>2021-01-12T16:29:54Z</time><name>PT9573</name></trkpt>
<trkpt lat="52.060037" lon="05.840170"><ele>38.1</ele><time>2021-01-12T16:29:54Z</time><name>PT9574</name></trkpt>
<trkpt lat="52.060045" lon="05.840188"><ele>38.3</ele><time>2021-01-12T16:29:56Z</time><name>PT9575</name></trkpt>
<trkpt lat="52.060051" lon="05.840205"><ele>38.7</ele><time>2021-01-12T16:29:57Z</time><name>PT9576</name></trkpt>
<trkpt lat="52.060058" lon="05.840223"><ele>39</ele><time>2021-01-12T16:29:57Z</time><name>PT9577</name></trkpt>
<trkpt lat="52.060065" lon="05.840241"><ele>39.3</ele><time>2021-01-12T16:29:59Z</time><name>PT9578</name></trkpt>
<trkpt lat="52.060072" lon="05.840255"><ele>39.5</ele><time>2021-01-12T16:30:00Z</time><name>PT9579</name></trkpt>
<trkpt lat="52.060078" lon="05.840268"><ele>39.5</ele><time>2021-01-12T16:30:00Z</time><name>PT9580</name></trkpt>
<trkpt lat="52.060085" lon="05.840277"><ele>39.2</ele><time>2021-01-12T16:30:02Z</time><name>PT9581</name></trkpt>
<trkpt lat="52.060093" lon="05.840291"><ele>39.3</ele><time>2021-01-12T16:30:03Z</time><name>PT9582</name></trkpt>
<trkpt lat="52.060101" lon="05.840305"><ele>39.3</ele><time>2021-01-12T16:30:03Z</time><name>PT9583</name></trkpt>
<trkpt lat="52.060109" lon="05.840317"><ele>39.2</ele><time>2021-01-12T16:30:05Z</time><name>PT9584</name></trkpt>
<trkpt lat="52.060115" lon="05.840331"><ele>39.2</ele><time>2021-01-12T16:30:06Z</time><name>PT9585</name></trkpt>
<trkpt lat="52.060121" lon="05.840344"><ele>39.3</ele><time>2021-01-12T16:30:06Z</time><name>PT9586</name></trkpt>
<trkpt lat="52.060125" lon="05.840355"><ele>39.3</ele><time>2021-01-12T16:30:08Z</time><name>PT9587</name></trkpt>
<trkpt lat="52.060129" lon="05.840368"><ele>39.3</ele><time>2021-01-12T16:30:09Z</time><name>PT9588</name></trkpt>
<trkpt lat="52.060132" lon="05.840380"><ele>39.2</ele><time>2021-01-12T16:30:09Z</time><name>PT9589</name></trkpt>
<trkpt lat="52.060139" lon="05.840394"><ele>39.1</ele><time>2021-01-12T16:30:11Z</time><name>PT9590</name></trkpt>
<trkpt lat="52.060146" lon="05.840411"><ele>39.1</ele><time>2021-01-12T16:30:12Z</time><name>PT9591</name></trkpt>
<trkpt lat="52.060149" lon="05.840427"><ele>39.1</ele><time>2021-01-12T16:30:12Z</time><name>PT9592</name></trkpt>
<trkpt lat="52.060156" lon="05.840442"><ele>39</ele><time>2021-01-12T16:30:14Z</time><name>PT9593</name></trkpt>
<trkpt lat="52.060163" lon="05.840458"><ele>39</ele><time>2021-01-12T16:30:15Z</time><name>PT9594</name></trkpt>
<trkpt lat="52.060170" lon="05.840472"><ele>39</ele><time>2021-01-12T16:30:15Z</time><name>PT9595</name></trkpt>
<trkpt lat="52.060177" lon="05.840483"><ele>39</ele><time>2021-01-12T16:30:17Z</time><name>PT9596</name></trkpt>
<trkpt lat="52.060183" lon="05.840497"><ele>38.9</ele><time>2021-01-12T16:30:18Z</time><name>PT9597</name></trkpt>
<trkpt lat="52.060191" lon="05.840511"><ele>38.9</ele><time>2021-01-12T16:30:18Z</time><name>PT9598</name></trkpt>
<trkpt lat="52.060198" lon="05.840524"><ele>39.1</ele><time>2021-01-12T16:30:20Z</time><name>PT9599</name></trkpt>
<trkpt lat="52.060201" lon="05.840538"><ele>39.1</ele><time>2021-01-12T16:30:21Z</time><name>PT9600</name></trkpt>
<trkpt lat="52.060203" lon="05.840551"><ele>39.2</ele><time>2021-01-12T16:30:21Z</time><name>PT9601</name></trkpt>
<trkpt lat="52.060208" lon="05.840568"><ele>39.2</ele><time>2021-01-12T16:30:23Z</time><name>PT9602</name></trkpt>
<trkpt lat="52.060214" lon="05.840585"><ele>39.1</ele><time>2021-01-12T16:30:24Z</time><name>PT9603</name></trkpt>
<trkpt lat="52.060219" lon="05.840602"><ele>39.1</ele><time>2021-01-12T16:30:24Z</time><name>PT9604</name></trkpt>
<trkpt lat="52.060224" lon="05.840618"><ele>39.2</ele><time>2021-01-12T16:30:26Z</time><name>PT9605</name></trkpt>
<trkpt lat="52.060229" lon="05.840631"><ele>39.5</ele><time>2021-01-12T16:30:27Z</time><name>PT9606</name></trkpt>
<trkpt lat="52.060233" lon="05.840646"><ele>39.6</ele><time>2021-01-12T16:30:27Z</time><name>PT9607</name></trkpt>
<trkpt lat="52.060241" lon="05.840664"><ele>39.6</ele><time>2021-01-12T16:30:29Z</time><name>PT9608</name></trkpt>
<trkpt lat="52.060250" lon="05.840681"><ele>39.6</ele><time>2021-01-12T16:30:30Z</time><name>PT9609</name></trkpt>
<trkpt lat="52.060254" lon="05.840696"><ele>39.6</ele><time>2021-01-12T16:30:30Z</time><name>PT9610</name></trkpt>
<trkpt lat="52.060258" lon="05.840709"><ele>39.4</ele><time>2021-01-12T16:30:32Z</time><name>PT9611</name></trkpt>
<trkpt lat="52.060262" lon="05.840725"><ele>39.4</ele><time>2021-01-12T16:30:33Z</time><name>PT9612</name></trkpt>
<trkpt lat="52.060268" lon="05.840745"><ele>39.4</ele><time>2021-01-12T16:30:33Z</time><name>PT9613</name></trkpt>
<trkpt lat="52.060275" lon="05.840761"><ele>39.4</ele><time>2021-01-12T16:30:35Z</time><name>PT9614</name></trkpt>
<trkpt lat="52.060281" lon="05.840776"><ele>39.5</ele><time>2021-01-12T16:30:36Z</time><name>PT9615</name></trkpt>
<trkpt lat="52.060289" lon="05.840795"><ele>39.6</ele><time>2021-01-12T16:30:36Z</time><name>PT9616</name></trkpt>
<trkpt lat="52.060291" lon="05.840813"><ele>39.6</ele><time>2021-01-12T16:30:38Z</time><name>PT9617</name></trkpt>
<trkpt lat="52.060296" lon="05.840828"><ele>39.7</ele><time>2021-01-12T16:30:39Z</time><name>PT9618</name></trkpt>
<trkpt lat="52.060302" lon="05.840840"><ele>39.7</ele><time>2021-01-12T16:30:39Z</time><name>PT9619</name></trkpt>
<trkpt lat="52.060306" lon="05.840855"><ele>39.7</ele><time>2021-01-12T16:30:41Z</time><name>PT9620</name></trkpt>
<trkpt lat="52.060310" lon="05.840867"><ele>39.9</ele><time>2021-01-12T16:30:42Z</time><name>PT9621</name></trkpt>
<trkpt lat="52.060315" lon="05.840878"><ele>39.9</ele><time>2021-01-12T16:30:42Z</time><name>PT9622</name></trkpt>
<trkpt lat="52.060321" lon="05.840893"><ele>39.9</ele><time>2021-01-12T16:30:44Z</time><name>PT9623</name></trkpt>
<trkpt lat="52.060325" lon="05.840904"><ele>39.7</ele><time>2021-01-12T16:30:45Z</time><name>PT9624</name></trkpt>
<trkpt lat="52.060329" lon="05.840918"><ele>39.6</ele><time>2021-01-12T16:30:45Z</time><name>PT9625</name></trkpt>
<trkpt lat="52.060330" lon="05.840930"><ele>39.6</ele><time>2021-01-12T16:30:47Z</time><name>PT9626</name></trkpt>
<trkpt lat="52.060335" lon="05.840940"><ele>39.4</ele><time>2021-01-12T16:30:48Z</time><name>PT9627</name></trkpt>
<trkpt lat="52.060339" lon="05.840951"><ele>39.2</ele><time>2021-01-12T16:30:48Z</time><name>PT9628</name></trkpt>
<trkpt lat="52.060342" lon="05.840963"><ele>39.3</ele><time>2021-01-12T16:30:50Z</time><name>PT9629</name></trkpt>
<trkpt lat="52.060346" lon="05.840975"><ele>39.1</ele><time>2021-01-12T16:30:51Z</time><name>PT9630</name></trkpt>
<trkpt lat="52.060349" lon="05.840992"><ele>39</ele><time>2021-01-12T16:30:51Z</time><name>PT9631</name></trkpt>
<trkpt lat="52.060351" lon="05.841008"><ele>39.1</ele><time>2021-01-12T16:30:53Z</time><name>PT9632</name></trkpt>
<trkpt lat="52.060354" lon="05.841021"><ele>39.1</ele><time>2021-01-12T16:30:54Z</time><name>PT9633</name></trkpt>
<trkpt lat="52.060356" lon="05.841038"><ele>39.1</ele><time>2021-01-12T16:30:54Z</time><name>PT9634</name></trkpt>
<trkpt lat="52.060359" lon="05.841053"><ele>39.1</ele><time>2021-01-12T16:30:56Z</time><name>PT9635</name></trkpt>
<trkpt lat="52.060362" lon="05.841065"><ele>39.1</ele><time>2021-01-12T16:30:57Z</time><name>PT9636</name></trkpt>
<trkpt lat="52.060362" lon="05.841078"><ele>39.1</ele><time>2021-01-12T16:30:57Z</time><name>PT9637</name></trkpt>
<trkpt lat="52.060361" lon="05.841091"><ele>39.2</ele><time>2021-01-12T16:30:59Z</time><name>PT9638</name></trkpt>
<trkpt lat="52.060363" lon="05.841107"><ele>39.2</ele><time>2021-01-12T16:31:00Z</time><name>PT9639</name></trkpt>
<trkpt lat="52.060366" lon="05.841120"><ele>39.1</ele><time>2021-01-12T16:31:00Z</time><name>PT9640</name></trkpt>
<trkpt lat="52.060369" lon="05.841133"><ele>39.2</ele><time>2021-01-12T16:31:02Z</time><name>PT9641</name></trkpt>
<trkpt lat="52.060372" lon="05.841145"><ele>39</ele><time>2021-01-12T16:31:03Z</time><name>PT9642</name></trkpt>
<trkpt lat="52.060373" lon="05.841159"><ele>38.9</ele><time>2021-01-12T16:31:03Z</time><name>PT9643</name></trkpt>
<trkpt lat="52.060375" lon="05.841175"><ele>39.1</ele><time>2021-01-12T16:31:05Z</time><name>PT9644</name></trkpt>
<trkpt lat="52.060377" lon="05.841192"><ele>39</ele><time>2021-01-12T16:31:06Z</time><name>PT9645</name></trkpt>
<trkpt lat="52.060380" lon="05.841208"><ele>38.9</ele><time>2021-01-12T16:31:06Z</time><name>PT9646</name></trkpt>
<trkpt lat="52.060383" lon="05.841221"><ele>39.1</ele><time>2021-01-12T16:31:08Z</time><name>PT9647</name></trkpt>
<trkpt lat="52.060388" lon="05.841237"><ele>39.1</ele><time>2021-01-12T16:31:09Z</time><name>PT9648</name></trkpt>
<trkpt lat="52.060391" lon="05.841251"><ele>39</ele><time>2021-01-12T16:31:09Z</time><name>PT9649</name></trkpt>
<trkpt lat="52.060393" lon="05.841263"><ele>39</ele><time>2021-01-12T16:31:11Z</time><name>PT9650</name></trkpt>
<trkpt lat="52.060396" lon="05.841279"><ele>38.8</ele><time>2021-01-12T16:31:12Z</time><name>PT9651</name></trkpt>
<trkpt lat="52.060397" lon="05.841296"><ele>38.6</ele><time>2021-01-12T16:31:12Z</time><name>PT9652</name></trkpt>
<trkpt lat="52.060400" lon="05.841309"><ele>38.6</ele><time>2021-01-12T16:31:14Z</time><name>PT9653</name></trkpt>
<trkpt lat="52.060404" lon="05.841323"><ele>38.6</ele><time>2021-01-12T16:31:15Z</time><name>PT9654</name></trkpt>
<trkpt lat="52.060408" lon="05.841334"><ele>38.5</ele><time>2021-01-12T16:31:15Z</time><name>PT9655</name></trkpt>
<trkpt lat="52.060410" lon="05.841349"><ele>38.6</ele><time>2021-01-12T16:31:17Z</time><name>PT9656</name></trkpt>
<trkpt lat="52.060411" lon="05.841365"><ele>38.5</ele><time>2021-01-12T16:31:18Z</time><name>PT9657</name></trkpt>
<trkpt lat="52.060411" lon="05.841380"><ele>38.6</ele><time>2021-01-12T16:31:18Z</time><name>PT9658</name></trkpt>
<trkpt lat="52.060411" lon="05.841397"><ele>38.6</ele><time>2021-01-12T16:31:20Z</time><name>PT9659</name></trkpt>
<trkpt lat="52.060414" lon="05.841408"><ele>38.6</ele><time>2021-01-12T16:31:21Z</time><name>PT9660</name></trkpt>
<trkpt lat="52.060415" lon="05.841416"><ele>38.7</ele><time>2021-01-12T16:31:21Z</time><name>PT9661</name></trkpt>
<trkpt lat="52.060414" lon="05.841419"><ele>38.6</ele><time>2021-01-12T16:31:23Z</time><name>PT9662</name></trkpt>
<trkpt lat="52.060413" lon="05.841419"><ele>38.4</ele><time>2021-01-12T16:31:24Z</time><name>PT9663</name></trkpt>
<trkpt lat="52.060413" lon="05.841422"><ele>38.3</ele><time>2021-01-12T16:31:24Z</time><name>PT9664</name></trkpt>
<trkpt lat="52.060413" lon="05.841425"><ele>38.1</ele><time>2021-01-12T16:31:26Z</time><name>PT9665</name></trkpt>
<trkpt lat="52.060416" lon="05.841434"><ele>38.1</ele><time>2021-01-12T16:31:27Z</time><name>PT9666</name></trkpt>
<trkpt lat="52.060417" lon="05.841453"><ele>38.1</ele><time>2021-01-12T16:31:29Z</time><name>PT9667</name></trkpt>
<trkpt lat="52.060419" lon="05.841469"><ele>38.1</ele><time>2021-01-12T16:31:30Z</time><name>PT9668</name></trkpt>
<trkpt lat="52.060417" lon="05.841480"><ele>38.1</ele><time>2021-01-12T16:31:30Z</time><name>PT9669</name></trkpt>
<trkpt lat="52.060413" lon="05.841495"><ele>38</ele><time>2021-01-12T16:31:32Z</time><name>PT9670</name></trkpt>
<trkpt lat="52.060406" lon="05.841510"><ele>37.8</ele><time>2021-01-12T16:31:33Z</time><name>PT9671</name></trkpt>
<trkpt lat="52.060401" lon="05.841526"><ele>37.7</ele><time>2021-01-12T16:31:33Z</time><name>PT9672</name></trkpt>
<trkpt lat="52.060396" lon="05.841541"><ele>37.6</ele><time>2021-01-12T16:31:35Z</time><name>PT9673</name></trkpt>
<trkpt lat="52.060394" lon="05.841552"><ele>37.6</ele><time>2021-01-12T16:31:36Z</time><name>PT9674</name></trkpt>
<trkpt lat="52.060389" lon="05.841566"><ele>37.5</ele><time>2021-01-12T16:31:36Z</time><name>PT9675</name></trkpt>
<trkpt lat="52.060385" lon="05.841576"><ele>37.5</ele><time>2021-01-12T16:31:38Z</time><name>PT9676</name></trkpt>
<trkpt lat="52.060380" lon="05.841586"><ele>37.5</ele><time>2021-01-12T16:31:39Z</time><name>PT9677</name></trkpt>
<trkpt lat="52.060375" lon="05.841606"><ele>37.4</ele><time>2021-01-12T16:31:39Z</time><name>PT9678</name></trkpt>
<trkpt lat="52.060367" lon="05.841626"><ele>37.5</ele><time>2021-01-12T16:31:41Z</time><name>PT9679</name></trkpt>
<trkpt lat="52.060360" lon="05.841640"><ele>37.5</ele><time>2021-01-12T16:31:42Z</time><name>PT9680</name></trkpt>
<trkpt lat="52.060352" lon="05.841652"><ele>37.4</ele><time>2021-01-12T16:31:42Z</time><name>PT9681</name></trkpt>
<trkpt lat="52.060343" lon="05.841665"><ele>37.4</ele><time>2021-01-12T16:31:44Z</time><name>PT9682</name></trkpt>
<trkpt lat="52.060337" lon="05.841681"><ele>37.4</ele><time>2021-01-12T16:31:45Z</time><name>PT9683</name></trkpt>
<trkpt lat="52.060334" lon="05.841696"><ele>37.3</ele><time>2021-01-12T16:31:45Z</time><name>PT9684</name></trkpt>
<trkpt lat="52.060326" lon="05.841708"><ele>37.4</ele><time>2021-01-12T16:31:47Z</time><name>PT9685</name></trkpt>
<trkpt lat="52.060319" lon="05.841724"><ele>37.4</ele><time>2021-01-12T16:31:48Z</time><name>PT9686</name></trkpt>
<trkpt lat="52.060312" lon="05.841738"><ele>37.4</ele><time>2021-01-12T16:31:48Z</time><name>PT9687</name></trkpt>
<trkpt lat="52.060306" lon="05.841750"><ele>37.3</ele><time>2021-01-12T16:31:50Z</time><name>PT9688</name></trkpt>
<trkpt lat="52.060298" lon="05.841765"><ele>37.4</ele><time>2021-01-12T16:31:51Z</time><name>PT9689</name></trkpt>
<trkpt lat="52.060291" lon="05.841780"><ele>37.2</ele><time>2021-01-12T16:31:51Z</time><name>PT9690</name></trkpt>
<trkpt lat="52.060286" lon="05.841793"><ele>37.1</ele><time>2021-01-12T16:31:53Z</time><name>PT9691</name></trkpt>
<trkpt lat="52.060282" lon="05.841809"><ele>37.1</ele><time>2021-01-12T16:31:54Z</time><name>PT9692</name></trkpt>
<trkpt lat="52.060273" lon="05.841822"><ele>37.1</ele><time>2021-01-12T16:31:54Z</time><name>PT9693</name></trkpt>
<trkpt lat="52.060265" lon="05.841837"><ele>37.1</ele><time>2021-01-12T16:31:56Z</time><name>PT9694</name></trkpt>
<trkpt lat="52.060260" lon="05.841853"><ele>37.1</ele><time>2021-01-12T16:31:57Z</time><name>PT9695</name></trkpt>
<trkpt lat="52.060256" lon="05.841867"><ele>37.1</ele><time>2021-01-12T16:31:57Z</time><name>PT9696</name></trkpt>
<trkpt lat="52.060251" lon="05.841884"><ele>37.1</ele><time>2021-01-12T16:31:59Z</time><name>PT9697</name></trkpt>
<trkpt lat="52.060248" lon="05.841898"><ele>36.9</ele><time>2021-01-12T16:32:00Z</time><name>PT9698</name></trkpt>
<trkpt lat="52.060246" lon="05.841911"><ele>36.7</ele><time>2021-01-12T16:32:00Z</time><name>PT9699</name></trkpt>
<trkpt lat="52.060243" lon="05.841923"><ele>36.6</ele><time>2021-01-12T16:32:02Z</time><name>PT9700</name></trkpt>
<trkpt lat="52.060240" lon="05.841935"><ele>36.6</ele><time>2021-01-12T16:32:03Z</time><name>PT9701</name></trkpt>
<trkpt lat="52.060234" lon="05.841948"><ele>36.4</ele><time>2021-01-12T16:32:03Z</time><name>PT9702</name></trkpt>
<trkpt lat="52.060228" lon="05.841957"><ele>36.3</ele><time>2021-01-12T16:32:05Z</time><name>PT9703</name></trkpt>
<trkpt lat="52.060220" lon="05.841969"><ele>36.1</ele><time>2021-01-12T16:32:06Z</time><name>PT9704</name></trkpt>
<trkpt lat="52.060213" lon="05.841986"><ele>36.1</ele><time>2021-01-12T16:32:06Z</time><name>PT9705</name></trkpt>
<trkpt lat="52.060209" lon="05.842001"><ele>36</ele><time>2021-01-12T16:32:08Z</time><name>PT9706</name></trkpt>
<trkpt lat="52.060206" lon="05.842014"><ele>36.1</ele><time>2021-01-12T16:32:09Z</time><name>PT9707</name></trkpt>
<trkpt lat="52.060202" lon="05.842029"><ele>36</ele><time>2021-01-12T16:32:09Z</time><name>PT9708</name></trkpt>
<trkpt lat="52.060199" lon="05.842043"><ele>35.6</ele><time>2021-01-12T16:32:11Z</time><name>PT9709</name></trkpt>
<trkpt lat="52.060196" lon="05.842057"><ele>35.6</ele><time>2021-01-12T16:32:12Z</time><name>PT9710</name></trkpt>
<trkpt lat="52.060193" lon="05.842066"><ele>35.6</ele><time>2021-01-12T16:32:12Z</time><name>PT9711</name></trkpt>
<trkpt lat="52.060188" lon="05.842079"><ele>35.6</ele><time>2021-01-12T16:32:14Z</time><name>PT9712</name></trkpt>
<trkpt lat="52.060184" lon="05.842097"><ele>35.7</ele><time>2021-01-12T16:32:15Z</time><name>PT9713</name></trkpt>
<trkpt lat="52.060177" lon="05.842113"><ele>35.6</ele><time>2021-01-12T16:32:15Z</time><name>PT9714</name></trkpt>
<trkpt lat="52.060174" lon="05.842131"><ele>35.6</ele><time>2021-01-12T16:32:17Z</time><name>PT9715</name></trkpt>
<trkpt lat="52.060170" lon="05.842144"><ele>35.5</ele><time>2021-01-12T16:32:18Z</time><name>PT9716</name></trkpt>
<trkpt lat="52.060166" lon="05.842156"><ele>35.4</ele><time>2021-01-12T16:32:18Z</time><name>PT9717</name></trkpt>
<trkpt lat="52.060161" lon="05.842173"><ele>35.3</ele><time>2021-01-12T16:32:20Z</time><name>PT9718</name></trkpt>
<trkpt lat="52.060155" lon="05.842190"><ele>35.1</ele><time>2021-01-12T16:32:21Z</time><name>PT9719</name></trkpt>
<trkpt lat="52.060151" lon="05.842207"><ele>35</ele><time>2021-01-12T16:32:21Z</time><name>PT9720</name></trkpt>
<trkpt lat="52.060150" lon="05.842220"><ele>35.1</ele><time>2021-01-12T16:32:23Z</time><name>PT9721</name></trkpt>
<trkpt lat="52.060145" lon="05.842234"><ele>35.1</ele><time>2021-01-12T16:32:24Z</time><name>PT9722</name></trkpt>
<trkpt lat="52.060139" lon="05.842247"><ele>35.1</ele><time>2021-01-12T16:32:24Z</time><name>PT9723</name></trkpt>
<trkpt lat="52.060137" lon="05.842255"><ele>35.1</ele><time>2021-01-12T16:32:26Z</time><name>PT9724</name></trkpt>
<trkpt lat="52.060137" lon="05.842270"><ele>35</ele><time>2021-01-12T16:32:27Z</time><name>PT9725</name></trkpt>
<trkpt lat="52.060134" lon="05.842317"><ele>34.9</ele><time>2021-01-12T16:32:27Z</time><name>PT9726</name></trkpt>
<trkpt lat="52.060134" lon="05.842325"><ele>34.8</ele><time>2021-01-12T16:32:29Z</time><name>PT9727</name></trkpt>
<trkpt lat="52.060133" lon="05.842328"><ele>34.9</ele><time>2021-01-12T16:32:30Z</time><name>PT9728</name></trkpt>
<trkpt lat="52.060131" lon="05.842328"><ele>35</ele><time>2021-01-12T16:32:30Z</time><name>PT9729</name></trkpt>
<trkpt lat="52.060131" lon="05.842331"><ele>35</ele><time>2021-01-12T16:32:32Z</time><name>PT9730</name></trkpt>
<trkpt lat="52.060131" lon="05.842335"><ele>35</ele><time>2021-01-12T16:32:33Z</time><name>PT9731</name></trkpt>
<trkpt lat="52.060131" lon="05.842336"><ele>34.8</ele><time>2021-01-12T16:32:35Z</time><name>PT9732</name></trkpt>
<trkpt lat="52.060130" lon="05.842337"><ele>34.8</ele><time>2021-01-12T16:32:36Z</time><name>PT9733</name></trkpt>
<trkpt lat="52.060130" lon="05.842340"><ele>34.8</ele><time>2021-01-12T16:32:36Z</time><name>PT9734</name></trkpt>
<trkpt lat="52.060134" lon="05.842350"><ele>34.4</ele><time>2021-01-12T16:32:45Z</time><name>PT9735</name></trkpt>
<trkpt lat="52.060136" lon="05.842350"><ele>34.4</ele><time>2021-01-12T16:32:45Z</time><name>PT9736</name></trkpt>
<trkpt lat="52.060131" lon="05.842365"><ele>34.8</ele><time>2021-01-12T16:33:00Z</time><name>PT9737</name></trkpt>
<trkpt lat="52.060126" lon="05.842372"><ele>34.8</ele><time>2021-01-12T16:33:00Z</time><name>PT9738</name></trkpt>
<trkpt lat="52.060121" lon="05.842385"><ele>34.6</ele><time>2021-01-12T16:33:01Z</time><name>PT9739</name></trkpt>
<trkpt lat="52.060113" lon="05.842392"><ele>34.5</ele><time>2021-01-12T16:33:03Z</time><name>PT9740</name></trkpt>
<trkpt lat="52.060105" lon="05.842402"><ele>34.4</ele><time>2021-01-12T16:33:03Z</time><name>PT9741</name></trkpt>
<trkpt lat="52.060100" lon="05.842413"><ele>34.4</ele><time>2021-01-12T16:33:05Z</time><name>PT9742</name></trkpt>
<trkpt lat="52.060091" lon="05.842428"><ele>34.1</ele><time>2021-01-12T16:33:06Z</time><name>PT9743</name></trkpt>
<trkpt lat="52.060084" lon="05.842441"><ele>34</ele><time>2021-01-12T16:33:06Z</time><name>PT9744</name></trkpt>
<trkpt lat="52.060074" lon="05.842448"><ele>34.2</ele><time>2021-01-12T16:33:08Z</time><name>PT9745</name></trkpt>
<trkpt lat="52.060064" lon="05.842457"><ele>34</ele><time>2021-01-12T16:33:09Z</time><name>PT9746</name></trkpt>
<trkpt lat="52.060055" lon="05.842468"><ele>34.2</ele><time>2021-01-12T16:33:09Z</time><name>PT9747</name></trkpt>
<trkpt lat="52.060047" lon="05.842482"><ele>34</ele><time>2021-01-12T16:33:11Z</time><name>PT9748</name></trkpt>
<trkpt lat="52.060040" lon="05.842490"><ele>34.1</ele><time>2021-01-12T16:33:12Z</time><name>PT9749</name></trkpt>
<trkpt lat="52.060033" lon="05.842496"><ele>34</ele><time>2021-01-12T16:33:12Z</time><name>PT9750</name></trkpt>
<trkpt lat="52.060030" lon="05.842502"><ele>33.8</ele><time>2021-01-12T16:33:14Z</time><name>PT9751</name></trkpt>
<trkpt lat="52.060029" lon="05.842504"><ele>34</ele><time>2021-01-12T16:33:15Z</time><name>PT9752</name></trkpt>
<trkpt lat="52.060028" lon="05.842503"><ele>33.9</ele><time>2021-01-12T16:33:15Z</time><name>PT9753</name></trkpt>
<trkpt lat="52.060026" lon="05.842504"><ele>34</ele><time>2021-01-12T16:33:17Z</time><name>PT9754</name></trkpt>
<trkpt lat="52.060027" lon="05.842508"><ele>34.2</ele><time>2021-01-12T16:33:20Z</time><name>PT9755</name></trkpt>
<trkpt lat="52.060023" lon="05.842515"><ele>34.2</ele><time>2021-01-12T16:33:21Z</time><name>PT9756</name></trkpt>
<trkpt lat="52.060019" lon="05.842520"><ele>34.2</ele><time>2021-01-12T16:33:21Z</time><name>PT9757</name></trkpt>
<trkpt lat="52.060008" lon="05.842534"><ele>34</ele><time>2021-01-12T16:33:23Z</time><name>PT9758</name></trkpt>
<trkpt lat="52.059999" lon="05.842545"><ele>34.1</ele><time>2021-01-12T16:33:24Z</time><name>PT9759</name></trkpt>
<trkpt lat="52.059994" lon="05.842554"><ele>34.2</ele><time>2021-01-12T16:33:24Z</time><name>PT9760</name></trkpt>
<trkpt lat="52.059991" lon="05.842564"><ele>34.1</ele><time>2021-01-12T16:33:26Z</time><name>PT9761</name></trkpt>
<trkpt lat="52.059992" lon="05.842566"><ele>34.2</ele><time>2021-01-12T16:33:27Z</time><name>PT9762</name></trkpt>
<trkpt lat="52.059994" lon="05.842568"><ele>34.1</ele><time>2021-01-12T16:33:27Z</time><name>PT9763</name></trkpt>
<trkpt lat="52.059993" lon="05.842570"><ele>34</ele><time>2021-01-12T16:33:29Z</time><name>PT9764</name></trkpt>
<trkpt lat="52.059989" lon="05.842573"><ele>34</ele><time>2021-01-12T16:33:35Z</time><name>PT9765</name></trkpt>
<trkpt lat="52.059981" lon="05.842584"><ele>33.8</ele><time>2021-01-12T16:33:36Z</time><name>PT9766</name></trkpt>
<trkpt lat="52.059973" lon="05.842595"><ele>33.9</ele><time>2021-01-12T16:33:36Z</time><name>PT9767</name></trkpt>
<trkpt lat="52.059963" lon="05.842608"><ele>34</ele><time>2021-01-12T16:33:38Z</time><name>PT9768</name></trkpt>
<trkpt lat="52.059954" lon="05.842609"><ele>34</ele><time>2021-01-12T16:33:39Z</time><name>PT9769</name></trkpt>
<trkpt lat="52.059946" lon="05.842612"><ele>34</ele><time>2021-01-12T16:33:39Z</time><name>PT9770</name></trkpt>
<trkpt lat="52.059935" lon="05.842617"><ele>34</ele><time>2021-01-12T16:33:41Z</time><name>PT9771</name></trkpt>
<trkpt lat="52.059926" lon="05.842628"><ele>33.8</ele><time>2021-01-12T16:33:42Z</time><name>PT9772</name></trkpt>
<trkpt lat="52.059911" lon="05.842636"><ele>33.8</ele><time>2021-01-12T16:33:42Z</time><name>PT9773</name></trkpt>
<trkpt lat="52.059899" lon="05.842645"><ele>33.8</ele><time>2021-01-12T16:33:44Z</time><name>PT9774</name></trkpt>
<trkpt lat="52.059889" lon="05.842653"><ele>33.7</ele><time>2021-01-12T16:33:45Z</time><name>PT9775</name></trkpt>
<trkpt lat="52.059877" lon="05.842660"><ele>33.6</ele><time>2021-01-12T16:33:45Z</time><name>PT9776</name></trkpt>
<trkpt lat="52.059871" lon="05.842671"><ele>33.4</ele><time>2021-01-12T16:33:47Z</time><name>PT9777</name></trkpt>
<trkpt lat="52.059864" lon="05.842676"><ele>33.4</ele><time>2021-01-12T16:33:48Z</time><name>PT9778</name></trkpt>
<trkpt lat="52.059857" lon="05.842680"><ele>33.5</ele><time>2021-01-12T16:33:48Z</time><name>PT9779</name></trkpt>
<trkpt lat="52.059847" lon="05.842689"><ele>33.5</ele><time>2021-01-12T16:33:50Z</time><name>PT9780</name></trkpt>
<trkpt lat="52.059836" lon="05.842697"><ele>33.7</ele><time>2021-01-12T16:33:51Z</time><name>PT9781</name></trkpt>
<trkpt lat="52.059828" lon="05.842702"><ele>33.7</ele><time>2021-01-12T16:33:51Z</time><name>PT9782</name></trkpt>
<trkpt lat="52.059821" lon="05.842707"><ele>33.7</ele><time>2021-01-12T16:33:53Z</time><name>PT9783</name></trkpt>
<trkpt lat="52.059815" lon="05.842717"><ele>33.7</ele><time>2021-01-12T16:33:54Z</time><name>PT9784</name></trkpt>
<trkpt lat="52.059809" lon="05.842724"><ele>33.7</ele><time>2021-01-12T16:33:54Z</time><name>PT9785</name></trkpt>
<trkpt lat="52.059802" lon="05.842732"><ele>33.6</ele><time>2021-01-12T16:33:56Z</time><name>PT9786</name></trkpt>
<trkpt lat="52.059792" lon="05.842741"><ele>33.6</ele><time>2021-01-12T16:33:57Z</time><name>PT9787</name></trkpt>
<trkpt lat="52.059778" lon="05.842751"><ele>33.6</ele><time>2021-01-12T16:33:57Z</time><name>PT9788</name></trkpt>
<trkpt lat="52.059768" lon="05.842761"><ele>33.8</ele><time>2021-01-12T16:33:59Z</time><name>PT9789</name></trkpt>
<trkpt lat="52.059762" lon="05.842772"><ele>33.8</ele><time>2021-01-12T16:34:00Z</time><name>PT9790</name></trkpt>
<trkpt lat="52.059754" lon="05.842778"><ele>33.9</ele><time>2021-01-12T16:34:00Z</time><name>PT9791</name></trkpt>
<trkpt lat="52.059750" lon="05.842784"><ele>34</ele><time>2021-01-12T16:34:02Z</time><name>PT9792</name></trkpt>
<trkpt lat="52.059749" lon="05.842782"><ele>34</ele><time>2021-01-12T16:34:03Z</time><name>PT9793</name></trkpt>
<trkpt lat="52.059748" lon="05.842781"><ele>34</ele><time>2021-01-12T16:34:03Z</time><name>PT9794</name></trkpt>
<trkpt lat="52.059747" lon="05.842782"><ele>34.1</ele><time>2021-01-12T16:34:05Z</time><name>PT9795</name></trkpt>
<trkpt lat="52.059745" lon="05.842784"><ele>34.2</ele><time>2021-01-12T16:34:06Z</time><name>PT9796</name></trkpt>
<trkpt lat="52.059742" lon="05.842789"><ele>34.1</ele><time>2021-01-12T16:34:06Z</time><name>PT9797</name></trkpt>
<trkpt lat="52.059743" lon="05.842788"><ele>34.1</ele><time>2021-01-12T16:34:08Z</time><name>PT9798</name></trkpt>
<trkpt lat="52.059740" lon="05.842793"><ele>34.3</ele><time>2021-01-12T16:34:09Z</time><name>PT9799</name></trkpt>
<trkpt lat="52.059738" lon="05.842798"><ele>34.1</ele><time>2021-01-12T16:34:09Z</time><name>PT9800</name></trkpt>
<trkpt lat="52.059738" lon="05.842802"><ele>34.3</ele><time>2021-01-12T16:34:11Z</time><name>PT9801</name></trkpt>
<trkpt lat="52.059733" lon="05.842809"><ele>34</ele><time>2021-01-12T16:34:15Z</time><name>PT9802</name></trkpt>
<trkpt lat="52.059724" lon="05.842817"><ele>33.9</ele><time>2021-01-12T16:34:17Z</time><name>PT9803</name></trkpt>
<trkpt lat="52.059721" lon="05.842817"><ele>34</ele><time>2021-01-12T16:34:18Z</time><name>PT9804</name></trkpt>
<trkpt lat="52.059720" lon="05.842822"><ele>33.8</ele><time>2021-01-12T16:34:18Z</time><name>PT9805</name></trkpt>
<trkpt lat="52.059716" lon="05.842829"><ele>33.7</ele><time>2021-01-12T16:34:20Z</time><name>PT9806</name></trkpt>
<trkpt lat="52.059709" lon="05.842835"><ele>33.6</ele><time>2021-01-12T16:34:21Z</time><name>PT9807</name></trkpt>
<trkpt lat="52.059703" lon="05.842847"><ele>33.6</ele><time>2021-01-12T16:34:21Z</time><name>PT9808</name></trkpt>
<trkpt lat="52.059697" lon="05.842855"><ele>33.6</ele><time>2021-01-12T16:34:23Z</time><name>PT9809</name></trkpt>
<trkpt lat="52.059692" lon="05.842865"><ele>33.6</ele><time>2021-01-12T16:34:24Z</time><name>PT9810</name></trkpt>
<trkpt lat="52.059684" lon="05.842879"><ele>33.6</ele><time>2021-01-12T16:34:24Z</time><name>PT9811</name></trkpt>
<trkpt lat="52.059676" lon="05.842886"><ele>33.6</ele><time>2021-01-12T16:34:26Z</time><name>PT9812</name></trkpt>
<trkpt lat="52.059670" lon="05.842895"><ele>33.5</ele><time>2021-01-12T16:34:27Z</time><name>PT9813</name></trkpt>
<trkpt lat="52.059663" lon="05.842906"><ele>33.5</ele><time>2021-01-12T16:34:27Z</time><name>PT9814</name></trkpt>
<trkpt lat="52.059661" lon="05.842920"><ele>33.5</ele><time>2021-01-12T16:34:29Z</time><name>PT9815</name></trkpt>
<trkpt lat="52.059658" lon="05.842932"><ele>33.5</ele><time>2021-01-12T16:34:30Z</time><name>PT9816</name></trkpt>
<trkpt lat="52.059651" lon="05.842942"><ele>33.5</ele><time>2021-01-12T16:34:30Z</time><name>PT9817</name></trkpt>
<trkpt lat="52.059642" lon="05.842953"><ele>33.5</ele><time>2021-01-12T16:34:32Z</time><name>PT9818</name></trkpt>
<trkpt lat="52.059636" lon="05.842965"><ele>33.4</ele><time>2021-01-12T16:34:33Z</time><name>PT9819</name></trkpt>
<trkpt lat="52.059630" lon="05.842976"><ele>33.2</ele><time>2021-01-12T16:34:33Z</time><name>PT9820</name></trkpt>
<trkpt lat="52.059623" lon="05.842985"><ele>33.3</ele><time>2021-01-12T16:34:35Z</time><name>PT9821</name></trkpt>
<trkpt lat="52.059617" lon="05.842993"><ele>33</ele><time>2021-01-12T16:34:36Z</time><name>PT9822</name></trkpt>
<trkpt lat="52.059610" lon="05.843006"><ele>33</ele><time>2021-01-12T16:34:36Z</time><name>PT9823</name></trkpt>
<trkpt lat="52.059603" lon="05.843017"><ele>33</ele><time>2021-01-12T16:34:38Z</time><name>PT9824</name></trkpt>
<trkpt lat="52.059596" lon="05.843029"><ele>32.8</ele><time>2021-01-12T16:34:39Z</time><name>PT9825</name></trkpt>
<trkpt lat="52.059591" lon="05.843039"><ele>32.6</ele><time>2021-01-12T16:34:39Z</time><name>PT9826</name></trkpt>
<trkpt lat="52.059585" lon="05.843046"><ele>32.5</ele><time>2021-01-12T16:34:41Z</time><name>PT9827</name></trkpt>
<trkpt lat="52.059581" lon="05.843053"><ele>32.5</ele><time>2021-01-12T16:34:42Z</time><name>PT9828</name></trkpt>
<trkpt lat="52.059574" lon="05.843061"><ele>32.5</ele><time>2021-01-12T16:34:42Z</time><name>PT9829</name></trkpt>
<trkpt lat="52.059567" lon="05.843069"><ele>32.5</ele><time>2021-01-12T16:34:44Z</time><name>PT9830</name></trkpt>
<trkpt lat="52.059566" lon="05.843077"><ele>32.4</ele><time>2021-01-12T16:34:45Z</time><name>PT9831</name></trkpt>
<trkpt lat="52.059563" lon="05.843089"><ele>32.3</ele><time>2021-01-12T16:34:45Z</time><name>PT9832</name></trkpt>
<trkpt lat="52.059559" lon="05.843102"><ele>32</ele><time>2021-01-12T16:34:47Z</time><name>PT9833</name></trkpt>
<trkpt lat="52.059555" lon="05.843118"><ele>32</ele><time>2021-01-12T16:34:48Z</time><name>PT9834</name></trkpt>
<trkpt lat="52.059555" lon="05.843132"><ele>32</ele><time>2021-01-12T16:34:48Z</time><name>PT9835</name></trkpt>
<trkpt lat="52.059558" lon="05.843147"><ele>32</ele><time>2021-01-12T16:34:50Z</time><name>PT9836</name></trkpt>
<trkpt lat="52.059563" lon="05.843159"><ele>32.1</ele><time>2021-01-12T16:34:51Z</time><name>PT9837</name></trkpt>
<trkpt lat="52.059566" lon="05.843171"><ele>32</ele><time>2021-01-12T16:34:51Z</time><name>PT9838</name></trkpt>
<trkpt lat="52.059571" lon="05.843185"><ele>32.1</ele><time>2021-01-12T16:34:53Z</time><name>PT9839</name></trkpt>
<trkpt lat="52.059576" lon="05.843203"><ele>32.2</ele><time>2021-01-12T16:34:54Z</time><name>PT9840</name></trkpt>
<trkpt lat="52.059579" lon="05.843223"><ele>32</ele><time>2021-01-12T16:34:54Z</time><name>PT9841</name></trkpt>
<trkpt lat="52.059582" lon="05.843239"><ele>32.1</ele><time>2021-01-12T16:34:56Z</time><name>PT9842</name></trkpt>
<trkpt lat="52.059584" lon="05.843254"><ele>32</ele><time>2021-01-12T16:34:57Z</time><name>PT9843</name></trkpt>
<trkpt lat="52.059588" lon="05.843267"><ele>32.1</ele><time>2021-01-12T16:34:57Z</time><name>PT9844</name></trkpt>
<trkpt lat="52.059594" lon="05.843278"><ele>32.2</ele><time>2021-01-12T16:34:59Z</time><name>PT9845</name></trkpt>
<trkpt lat="52.059597" lon="05.843287"><ele>32.1</ele><time>2021-01-12T16:35:00Z</time><name>PT9846</name></trkpt>
<trkpt lat="52.059602" lon="05.843294"><ele>32.1</ele><time>2021-01-12T16:35:00Z</time><name>PT9847</name></trkpt>
<trkpt lat="52.059609" lon="05.843310"><ele>32.2</ele><time>2021-01-12T16:35:02Z</time><name>PT9848</name></trkpt>
<trkpt lat="52.059618" lon="05.843322"><ele>32.2</ele><time>2021-01-12T16:35:03Z</time><name>PT9849</name></trkpt>
<trkpt lat="52.059626" lon="05.843333"><ele>32.3</ele><time>2021-01-12T16:35:03Z</time><name>PT9850</name></trkpt>
<trkpt lat="52.059633" lon="05.843344"><ele>32.1</ele><time>2021-01-12T16:35:04Z</time><name>PT9851</name></trkpt>
<trkpt lat="52.059641" lon="05.843354"><ele>32.1</ele><time>2021-01-12T16:35:06Z</time><name>PT9852</name></trkpt>
<trkpt lat="52.059649" lon="05.843364"><ele>32.1</ele><time>2021-01-12T16:35:06Z</time><name>PT9853</name></trkpt>
<trkpt lat="52.059656" lon="05.843375"><ele>32.2</ele><time>2021-01-12T16:35:08Z</time><name>PT9854</name></trkpt>
<trkpt lat="52.059665" lon="05.843382"><ele>32.3</ele><time>2021-01-12T16:35:09Z</time><name>PT9855</name></trkpt>
<trkpt lat="52.059676" lon="05.843387"><ele>32.5</ele><time>2021-01-12T16:35:09Z</time><name>PT9856</name></trkpt>
<trkpt lat="52.059684" lon="05.843385"><ele>32.5</ele><time>2021-01-12T16:35:11Z</time><name>PT9857</name></trkpt>
<trkpt lat="52.059695" lon="05.843385"><ele>32.5</ele><time>2021-01-12T16:35:12Z</time><name>PT9858</name></trkpt>
<trkpt lat="52.059706" lon="05.843383"><ele>32.5</ele><time>2021-01-12T16:35:12Z</time><name>PT9859</name></trkpt>
<trkpt lat="52.059716" lon="05.843380"><ele>32.6</ele><time>2021-01-12T16:35:14Z</time><name>PT9860</name></trkpt>
<trkpt lat="52.059726" lon="05.843382"><ele>32.8</ele><time>2021-01-12T16:35:15Z</time><name>PT9861</name></trkpt>
<trkpt lat="52.059736" lon="05.843379"><ele>32.8</ele><time>2021-01-12T16:35:15Z</time><name>PT9862</name></trkpt>
<trkpt lat="52.059745" lon="05.843375"><ele>33</ele><time>2021-01-12T16:35:17Z</time><name>PT9863</name></trkpt>
<trkpt lat="52.059751" lon="05.843373"><ele>33</ele><time>2021-01-12T16:35:18Z</time><name>PT9864</name></trkpt>
<trkpt lat="52.059761" lon="05.843368"><ele>33</ele><time>2021-01-12T16:35:18Z</time><name>PT9865</name></trkpt>
<trkpt lat="52.059772" lon="05.843361"><ele>33</ele><time>2021-01-12T16:35:20Z</time><name>PT9866</name></trkpt>
<trkpt lat="52.059784" lon="05.843354"><ele>33.2</ele><time>2021-01-12T16:35:21Z</time><name>PT9867</name></trkpt>
<trkpt lat="52.059796" lon="05.843350"><ele>33.2</ele><time>2021-01-12T16:35:21Z</time><name>PT9868</name></trkpt>
<trkpt lat="52.059807" lon="05.843343"><ele>33.4</ele><time>2021-01-12T16:35:23Z</time><name>PT9869</name></trkpt>
<trkpt lat="52.059815" lon="05.843335"><ele>33.4</ele><time>2021-01-12T16:35:24Z</time><name>PT9870</name></trkpt>
<trkpt lat="52.059825" lon="05.843325"><ele>33.3</ele><time>2021-01-12T16:35:24Z</time><name>PT9871</name></trkpt>
<trkpt lat="52.059836" lon="05.843316"><ele>33.2</ele><time>2021-01-12T16:35:26Z</time><name>PT9872</name></trkpt>
<trkpt lat="52.059844" lon="05.843307"><ele>33.2</ele><time>2021-01-12T16:35:27Z</time><name>PT9873</name></trkpt>
<trkpt lat="52.059852" lon="05.843300"><ele>33.1</ele><time>2021-01-12T16:35:27Z</time><name>PT9874</name></trkpt>
<trkpt lat="52.059861" lon="05.843296"><ele>33</ele><time>2021-01-12T16:35:29Z</time><name>PT9875</name></trkpt>
<trkpt lat="52.059870" lon="05.843292"><ele>33</ele><time>2021-01-12T16:35:30Z</time><name>PT9876</name></trkpt>
<trkpt lat="52.059880" lon="05.843287"><ele>33</ele><time>2021-01-12T16:35:30Z</time><name>PT9877</name></trkpt>
<trkpt lat="52.059889" lon="05.843281"><ele>33.2</ele><time>2021-01-12T16:35:32Z</time><name>PT9878</name></trkpt>
<trkpt lat="52.059900" lon="05.843274"><ele>33.3</ele><time>2021-01-12T16:35:33Z</time><name>PT9879</name></trkpt>
<trkpt lat="52.059908" lon="05.843267"><ele>33.2</ele><time>2021-01-12T16:35:33Z</time><name>PT9880</name></trkpt>
<trkpt lat="52.059918" lon="05.843261"><ele>33.4</ele><time>2021-01-12T16:35:35Z</time><name>PT9881</name></trkpt>
<trkpt lat="52.059924" lon="05.843255"><ele>33.3</ele><time>2021-01-12T16:35:36Z</time><name>PT9882</name></trkpt>
<trkpt lat="52.059926" lon="05.843252"><ele>33.2</ele><time>2021-01-12T16:35:36Z</time><name>PT9883</name></trkpt>
<trkpt lat="52.059927" lon="05.843246"><ele>33.1</ele><time>2021-01-12T16:35:38Z</time><name>PT9884</name></trkpt>
<trkpt lat="52.059933" lon="05.843239"><ele>33</ele><time>2021-01-12T16:35:39Z</time><name>PT9885</name></trkpt>
<trkpt lat="52.059946" lon="05.843233"><ele>33</ele><time>2021-01-12T16:35:39Z</time><name>PT9886</name></trkpt>
<trkpt lat="52.059957" lon="05.843229"><ele>33</ele><time>2021-01-12T16:35:41Z</time><name>PT9887</name></trkpt>
<trkpt lat="52.059967" lon="05.843222"><ele>33</ele><time>2021-01-12T16:35:42Z</time><name>PT9888</name></trkpt>
<trkpt lat="52.059981" lon="05.843211"><ele>33</ele><time>2021-01-12T16:35:42Z</time><name>PT9889</name></trkpt>
<trkpt lat="52.059991" lon="05.843200"><ele>33.1</ele><time>2021-01-12T16:35:43Z</time><name>PT9890</name></trkpt>
<trkpt lat="52.060001" lon="05.843189"><ele>33.1</ele><time>2021-01-12T16:35:45Z</time><name>PT9891</name></trkpt>
<trkpt lat="52.060012" lon="05.843178"><ele>33.2</ele><time>2021-01-12T16:35:45Z</time><name>PT9892</name></trkpt>
<trkpt lat="52.060020" lon="05.843168"><ele>33.2</ele><time>2021-01-12T16:35:47Z</time><name>PT9893</name></trkpt>
<trkpt lat="52.060030" lon="05.843157"><ele>33.1</ele><time>2021-01-12T16:35:48Z</time><name>PT9894</name></trkpt>
<trkpt lat="52.060049" lon="05.843141"><ele>33</ele><time>2021-01-12T16:35:48Z</time><name>PT9895</name></trkpt>
<trkpt lat="52.060060" lon="05.843129"><ele>33.2</ele><time>2021-01-12T16:35:50Z</time><name>PT9896</name></trkpt>
<trkpt lat="52.060074" lon="05.843126"><ele>33</ele><time>2021-01-12T16:35:51Z</time><name>PT9897</name></trkpt>
<trkpt lat="52.060087" lon="05.843125"><ele>33.1</ele><time>2021-01-12T16:35:51Z</time><name>PT9898</name></trkpt>
<trkpt lat="52.060097" lon="05.843122"><ele>33</ele><time>2021-01-12T16:35:52Z</time><name>PT9899</name></trkpt>
<trkpt lat="52.060107" lon="05.843115"><ele>32.7</ele><time>2021-01-12T16:35:54Z</time><name>PT9900</name></trkpt>
<trkpt lat="52.060116" lon="05.843110"><ele>32.6</ele><time>2021-01-12T16:35:54Z</time><name>PT9901</name></trkpt>
<trkpt lat="52.060121" lon="05.843106"><ele>32.6</ele><time>2021-01-12T16:35:56Z</time><name>PT9902</name></trkpt>
<trkpt lat="52.060125" lon="05.843102"><ele>32.5</ele><time>2021-01-12T16:35:57Z</time><name>PT9903</name></trkpt>
<trkpt lat="52.060134" lon="05.843099"><ele>32.5</ele><time>2021-01-12T16:35:57Z</time><name>PT9904</name></trkpt>
<trkpt lat="52.060144" lon="05.843090"><ele>32.7</ele><time>2021-01-12T16:35:59Z</time><name>PT9905</name></trkpt>
<trkpt lat="52.060158" lon="05.843077"><ele>32.7</ele><time>2021-01-12T16:36:00Z</time><name>PT9906</name></trkpt>
<trkpt lat="52.060167" lon="05.843071"><ele>32.8</ele><time>2021-01-12T16:36:00Z</time><name>PT9907</name></trkpt>
<trkpt lat="52.060176" lon="05.843064"><ele>32.7</ele><time>2021-01-12T16:36:01Z</time><name>PT9908</name></trkpt>
<trkpt lat="52.060182" lon="05.843056"><ele>32.5</ele><time>2021-01-12T16:36:03Z</time><name>PT9909</name></trkpt>
<trkpt lat="52.060189" lon="05.843048"><ele>32.5</ele><time>2021-01-12T16:36:03Z</time><name>PT9910</name></trkpt>
<trkpt lat="52.060197" lon="05.843039"><ele>32.5</ele><time>2021-01-12T16:36:05Z</time><name>PT9911</name></trkpt>
<trkpt lat="52.060204" lon="05.843028"><ele>32.5</ele><time>2021-01-12T16:36:09Z</time><name>PT9912</name></trkpt>
<trkpt lat="52.060217" lon="05.843012"><ele>32.6</ele><time>2021-01-12T16:36:09Z</time><name>PT9913</name></trkpt>
<trkpt lat="52.060232" lon="05.842987"><ele>32.7</ele><time>2021-01-12T16:36:11Z</time><name>PT9914</name></trkpt>
<trkpt lat="52.060250" lon="05.842974"><ele>32.5</ele><time>2021-01-12T16:36:12Z</time><name>PT9915</name></trkpt>
<trkpt lat="52.060259" lon="05.842959"><ele>32.5</ele><time>2021-01-12T16:36:12Z</time><name>PT9916</name></trkpt>
<trkpt lat="52.060277" lon="05.842955"><ele>32.6</ele><time>2021-01-12T16:36:14Z</time><name>PT9917</name></trkpt>
<trkpt lat="52.060293" lon="05.842950"><ele>32.6</ele><time>2021-01-12T16:36:15Z</time><name>PT9918</name></trkpt>
<trkpt lat="52.060311" lon="05.842951"><ele>32.9</ele><time>2021-01-12T16:36:15Z</time><name>PT9919</name></trkpt>
<trkpt lat="52.060325" lon="05.842940"><ele>33</ele><time>2021-01-12T16:36:17Z</time><name>PT9920</name></trkpt>
<trkpt lat="52.060336" lon="05.842944"><ele>33.1</ele><time>2021-01-12T16:36:18Z</time><name>PT9921</name></trkpt>
<trkpt lat="52.060348" lon="05.842939"><ele>33</ele><time>2021-01-12T16:36:18Z</time><name>PT9922</name></trkpt>
<trkpt lat="52.060358" lon="05.842933"><ele>33.1</ele><time>2021-01-12T16:36:20Z</time><name>PT9923</name></trkpt>
<trkpt lat="52.060369" lon="05.842931"><ele>33.1</ele><time>2021-01-12T16:36:21Z</time><name>PT9924</name></trkpt>
<trkpt lat="52.060381" lon="05.842920"><ele>33.2</ele><time>2021-01-12T16:36:21Z</time><name>PT9925</name></trkpt>
<trkpt lat="52.060388" lon="05.842915"><ele>33.3</ele><time>2021-01-12T16:36:22Z</time><name>PT9926</name></trkpt>
<trkpt lat="52.060397" lon="05.842905"><ele>33.5</ele><time>2021-01-12T16:36:24Z</time><name>PT9927</name></trkpt>
<trkpt lat="52.060403" lon="05.842897"><ele>33.5</ele><time>2021-01-12T16:36:24Z</time><name>PT9928</name></trkpt>
<trkpt lat="52.060406" lon="05.842894"><ele>33.8</ele><time>2021-01-12T16:36:29Z</time><name>PT9929</name></trkpt>
<trkpt lat="52.060422" lon="05.842880"><ele>33.8</ele><time>2021-01-12T16:36:30Z</time><name>PT9930</name></trkpt>
<trkpt lat="52.060430" lon="05.842870"><ele>33.6</ele><time>2021-01-12T16:36:30Z</time><name>PT9931</name></trkpt>
<trkpt lat="52.060439" lon="05.842862"><ele>33.6</ele><time>2021-01-12T16:36:32Z</time><name>PT9932</name></trkpt>
<trkpt lat="52.060452" lon="05.842851"><ele>33.6</ele><time>2021-01-12T16:36:33Z</time><name>PT9933</name></trkpt>
<trkpt lat="52.060466" lon="05.842842"><ele>33.5</ele><time>2021-01-12T16:36:33Z</time><name>PT9934</name></trkpt>
<trkpt lat="52.060478" lon="05.842837"><ele>33.5</ele><time>2021-01-12T16:36:35Z</time><name>PT9935</name></trkpt>
<trkpt lat="52.060495" lon="05.842822"><ele>33.7</ele><time>2021-01-12T16:36:36Z</time><name>PT9936</name></trkpt>
<trkpt lat="52.060511" lon="05.842806"><ele>33.7</ele><time>2021-01-12T16:36:36Z</time><name>PT9937</name></trkpt>
<trkpt lat="52.060519" lon="05.842792"><ele>33.9</ele><time>2021-01-12T16:36:37Z</time><name>PT9938</name></trkpt>
<trkpt lat="52.060536" lon="05.842777"><ele>34</ele><time>2021-01-12T16:36:39Z</time><name>PT9939</name></trkpt>
<trkpt lat="52.060546" lon="05.842768"><ele>33.9</ele><time>2021-01-12T16:36:39Z</time><name>PT9940</name></trkpt>
<trkpt lat="52.060558" lon="05.842759"><ele>34</ele><time>2021-01-12T16:36:40Z</time><name>PT9941</name></trkpt>
<trkpt lat="52.060567" lon="05.842747"><ele>33.8</ele><time>2021-01-12T16:36:42Z</time><name>PT9942</name></trkpt>
<trkpt lat="52.060574" lon="05.842739"><ele>33.8</ele><time>2021-01-12T16:36:42Z</time><name>PT9943</name></trkpt>
<trkpt lat="52.060586" lon="05.842728"><ele>33.8</ele><time>2021-01-12T16:36:43Z</time><name>PT9944</name></trkpt>
<trkpt lat="52.060596" lon="05.842717"><ele>33.8</ele><time>2021-01-12T16:36:45Z</time><name>PT9945</name></trkpt>
<trkpt lat="52.060605" lon="05.842706"><ele>33.9</ele><time>2021-01-12T16:36:45Z</time><name>PT9946</name></trkpt>
<trkpt lat="52.060615" lon="05.842695"><ele>34</ele><time>2021-01-12T16:36:47Z</time><name>PT9947</name></trkpt>
<trkpt lat="52.060625" lon="05.842687"><ele>34.1</ele><time>2021-01-12T16:36:48Z</time><name>PT9948</name></trkpt>
<trkpt lat="52.060638" lon="05.842680"><ele>34.3</ele><time>2021-01-12T16:36:48Z</time><name>PT9949</name></trkpt>
<trkpt lat="52.060651" lon="05.842672"><ele>34.3</ele><time>2021-01-12T16:36:50Z</time><name>PT9950</name></trkpt>
<trkpt lat="52.060663" lon="05.842663"><ele>34.3</ele><time>2021-01-12T16:36:51Z</time><name>PT9951</name></trkpt>
<trkpt lat="52.060673" lon="05.842655"><ele>34.4</ele><time>2021-01-12T16:36:51Z</time><name>PT9952</name></trkpt>
<trkpt lat="52.060687" lon="05.842650"><ele>34.6</ele><time>2021-01-12T16:36:52Z</time><name>PT9953</name></trkpt>
<trkpt lat="52.060694" lon="05.842643"><ele>34.9</ele><time>2021-01-12T16:36:54Z</time><name>PT9954</name></trkpt>
<trkpt lat="52.060700" lon="05.842635"><ele>35</ele><time>2021-01-12T16:36:54Z</time><name>PT9955</name></trkpt>
<trkpt lat="52.060708" lon="05.842627"><ele>35.1</ele><time>2021-01-12T16:36:56Z</time><name>PT9956</name></trkpt>
<trkpt lat="52.060717" lon="05.842617"><ele>34.9</ele><time>2021-01-12T16:36:57Z</time><name>PT9957</name></trkpt>
<trkpt lat="52.060722" lon="05.842611"><ele>34.9</ele><time>2021-01-12T16:36:57Z</time><name>PT9958</name></trkpt>
<trkpt lat="52.060726" lon="05.842605"><ele>34.9</ele><time>2021-01-12T16:36:59Z</time><name>PT9959</name></trkpt>
<trkpt lat="52.060735" lon="05.842597"><ele>34.9</ele><time>2021-01-12T16:37:00Z</time><name>PT9960</name></trkpt>
<trkpt lat="52.060747" lon="05.842590"><ele>35</ele><time>2021-01-12T16:37:00Z</time><name>PT9961</name></trkpt>
<trkpt lat="52.060757" lon="05.842583"><ele>35.1</ele><time>2021-01-12T16:37:01Z</time><name>PT9962</name></trkpt>
<trkpt lat="52.060766" lon="05.842574"><ele>35.4</ele><time>2021-01-12T16:37:03Z</time><name>PT9963</name></trkpt>
<trkpt lat="52.060777" lon="05.842567"><ele>35.3</ele><time>2021-01-12T16:37:03Z</time><name>PT9964</name></trkpt>
<trkpt lat="52.060785" lon="05.842563"><ele>35.1</ele><time>2021-01-12T16:37:04Z</time><name>PT9965</name></trkpt>
<trkpt lat="52.060798" lon="05.842557"><ele>35.2</ele><time>2021-01-12T16:37:06Z</time><name>PT9966</name></trkpt>
<trkpt lat="52.060807" lon="05.842549"><ele>35.1</ele><time>2021-01-12T16:37:06Z</time><name>PT9967</name></trkpt>
<trkpt lat="52.060817" lon="05.842541"><ele>35.3</ele><time>2021-01-12T16:37:08Z</time><name>PT9968</name></trkpt>
<trkpt lat="52.060834" lon="05.842533"><ele>35.5</ele><time>2021-01-12T16:37:09Z</time><name>PT9969</name></trkpt>
<trkpt lat="52.060838" lon="05.842527"><ele>35.6</ele><time>2021-01-12T16:37:09Z</time><name>PT9970</name></trkpt>
<trkpt lat="52.060843" lon="05.842522"><ele>35.8</ele><time>2021-01-12T16:37:11Z</time><name>PT9971</name></trkpt>
<trkpt lat="52.060853" lon="05.842517"><ele>35.6</ele><time>2021-01-12T16:37:12Z</time><name>PT9972</name></trkpt>
<trkpt lat="52.060863" lon="05.842510"><ele>35.6</ele><time>2021-01-12T16:37:12Z</time><name>PT9973</name></trkpt>
<trkpt lat="52.060874" lon="05.842497"><ele>35.7</ele><time>2021-01-12T16:37:13Z</time><name>PT9974</name></trkpt>
<trkpt lat="52.060886" lon="05.842482"><ele>35.7</ele><time>2021-01-12T16:37:15Z</time><name>PT9975</name></trkpt>
<trkpt lat="52.060897" lon="05.842472"><ele>35.8</ele><time>2021-01-12T16:37:15Z</time><name>PT9976</name></trkpt>
<trkpt lat="52.060910" lon="05.842462"><ele>35.8</ele><time>2021-01-12T16:37:17Z</time><name>PT9977</name></trkpt>
<trkpt lat="52.060919" lon="05.842455"><ele>36</ele><time>2021-01-12T16:37:18Z</time><name>PT9978</name></trkpt>
<trkpt lat="52.060941" lon="05.842439"><ele>35.9</ele><time>2021-01-12T16:37:18Z</time><name>PT9979</name></trkpt>
<trkpt lat="52.060951" lon="05.842435"><ele>35.9</ele><time>2021-01-12T16:37:19Z</time><name>PT9980</name></trkpt>
<trkpt lat="52.060964" lon="05.842427"><ele>36.1</ele><time>2021-01-12T16:37:21Z</time><name>PT9981</name></trkpt>
<trkpt lat="52.060974" lon="05.842418"><ele>36</ele><time>2021-01-12T16:37:21Z</time><name>PT9982</name></trkpt>
<trkpt lat="52.060984" lon="05.842412"><ele>36.1</ele><time>2021-01-12T16:37:23Z</time><name>PT9983</name></trkpt>
<trkpt lat="52.060992" lon="05.842406"><ele>36.1</ele><time>2021-01-12T16:37:24Z</time><name>PT9984</name></trkpt>
<trkpt lat="52.061000" lon="05.842402"><ele>36.1</ele><time>2021-01-12T16:37:24Z</time><name>PT9985</name></trkpt>
<trkpt lat="52.061006" lon="05.842399"><ele>36.2</ele><time>2021-01-12T16:37:25Z</time><name>PT9986</name></trkpt>
<trkpt lat="52.061013" lon="05.842393"><ele>36.4</ele><time>2021-01-12T16:37:27Z</time><name>PT9987</name></trkpt>
<trkpt lat="52.061021" lon="05.842389"><ele>36.4</ele><time>2021-01-12T16:37:27Z</time><name>PT9988</name></trkpt>
<trkpt lat="52.061027" lon="05.842387"><ele>36.5</ele><time>2021-01-12T16:37:29Z</time><name>PT9989</name></trkpt>
<trkpt lat="52.061037" lon="05.842379"><ele>36.5</ele><time>2021-01-12T16:37:30Z</time><name>PT9990</name></trkpt>
<trkpt lat="52.061047" lon="05.842373"><ele>36.5</ele><time>2021-01-12T16:37:30Z</time><name>PT9991</name></trkpt>
<trkpt lat="52.061059" lon="05.842366"><ele>36.7</ele><time>2021-01-12T16:37:31Z</time><name>PT9992</name></trkpt>
<trkpt lat="52.061072" lon="05.842358"><ele>36.6</ele><time>2021-01-12T16:37:33Z</time><name>PT9993</name></trkpt>
<trkpt lat="52.061081" lon="05.842353"><ele>36.6</ele><time>2021-01-12T16:37:33Z</time><name>PT9994</name></trkpt>
<trkpt lat="52.061095" lon="05.842344"><ele>36.6</ele><time>2021-01-12T16:37:34Z</time><name>PT9995</name></trkpt>
<trkpt lat="52.061104" lon="05.842337"><ele>36.6</ele><time>2021-01-12T16:37:36Z</time><name>PT9996</name></trkpt>
<trkpt lat="52.061121" lon="05.842322"><ele>36.6</ele><time>2021-01-12T16:37:36Z</time><name>PT9997</name></trkpt>
<trkpt lat="52.061131" lon="05.842315"><ele>36.6</ele><time>2021-01-12T16:37:37Z</time><name>PT9998</name></trkpt>
<trkpt lat="52.061139" lon="05.842302"><ele>36.7</ele><time>2021-01-12T16:37:39Z</time><name>PT9999</name></trkpt>
<trkpt lat="52.061150" lon="05.842289"><ele>36.8</ele><time>2021-01-12T16:37:39Z</time><name>PT10000</name></trkpt>
<trkpt lat="52.061154" lon="05.842278"><ele>36.9</ele><time>2021-01-12T16:37:41Z</time><name>PT10001</name></trkpt>
<trkpt lat="52.061159" lon="05.842270"><ele>37</ele><time>2021-01-12T16:37:42Z</time><name>PT10002</name></trkpt>
<trkpt lat="52.061173" lon="05.842254"><ele>36.9</ele><time>2021-01-12T16:37:42Z</time><name>PT10003</name></trkpt>
<trkpt lat="52.061179" lon="05.842248"><ele>36.9</ele><time>2021-01-12T16:37:43Z</time><name>PT10004</name></trkpt>
<trkpt lat="52.061205" lon="05.842232"><ele>37.1</ele><time>2021-01-12T16:37:45Z</time><name>PT10005</name></trkpt>
<trkpt lat="52.061218" lon="05.842223"><ele>37</ele><time>2021-01-12T16:37:45Z</time><name>PT10006</name></trkpt>
<trkpt lat="52.061245" lon="05.842201"><ele>36.9</ele><time>2021-01-12T16:37:47Z</time><name>PT10007</name></trkpt>
<trkpt lat="52.061269" lon="05.842187"><ele>36.8</ele><time>2021-01-12T16:37:48Z</time><name>PT10008</name></trkpt>
<trkpt lat="52.061283" lon="05.842174"><ele>36.7</ele><time>2021-01-12T16:37:48Z</time><name>PT10009</name></trkpt>
<trkpt lat="52.061293" lon="05.842164"><ele>36.6</ele><time>2021-01-12T16:37:50Z</time><name>PT10010</name></trkpt>
<trkpt lat="52.061300" lon="05.842157"><ele>36.6</ele><time>2021-01-12T16:37:51Z</time><name>PT10011</name></trkpt>
<trkpt lat="52.061313" lon="05.842146"><ele>36.7</ele><time>2021-01-12T16:37:51Z</time><name>PT10012</name></trkpt>
<trkpt lat="52.061324" lon="05.842133"><ele>36.8</ele><time>2021-01-12T16:37:52Z</time><name>PT10013</name></trkpt>
<trkpt lat="52.061328" lon="05.842129"><ele>36.9</ele><time>2021-01-12T16:37:54Z</time><name>PT10014</name></trkpt>
<trkpt lat="52.061338" lon="05.842117"><ele>37.1</ele><time>2021-01-12T16:37:54Z</time><name>PT10015</name></trkpt>
<trkpt lat="52.061352" lon="05.842104"><ele>37</ele><time>2021-01-12T16:37:55Z</time><name>PT10016</name></trkpt>
<trkpt lat="52.061367" lon="05.842094"><ele>36.9</ele><time>2021-01-12T16:37:57Z</time><name>PT10017</name></trkpt>
<trkpt lat="52.061380" lon="05.842086"><ele>36.9</ele><time>2021-01-12T16:37:57Z</time><name>PT10018</name></trkpt>
<trkpt lat="52.061391" lon="05.842080"><ele>36.9</ele><time>2021-01-12T16:37:59Z</time><name>PT10019</name></trkpt>
<trkpt lat="52.061401" lon="05.842073"><ele>36.9</ele><time>2021-01-12T16:38:00Z</time><name>PT10020</name></trkpt>
<trkpt lat="52.061411" lon="05.842068"><ele>37</ele><time>2021-01-12T16:38:00Z</time><name>PT10021</name></trkpt>
<trkpt lat="52.061420" lon="05.842062"><ele>37.1</ele><time>2021-01-12T16:38:01Z</time><name>PT10022</name></trkpt>
<trkpt lat="52.061425" lon="05.842055"><ele>37</ele><time>2021-01-12T16:38:03Z</time><name>PT10023</name></trkpt>
<trkpt lat="52.061438" lon="05.842043"><ele>37</ele><time>2021-01-12T16:38:03Z</time><name>PT10024</name></trkpt>
<trkpt lat="52.061445" lon="05.842033"><ele>37.1</ele><time>2021-01-12T16:38:04Z</time><name>PT10025</name></trkpt>
<trkpt lat="52.061455" lon="05.842027"><ele>37</ele><time>2021-01-12T16:38:06Z</time><name>PT10026</name></trkpt>
<trkpt lat="52.061466" lon="05.842015"><ele>36.8</ele><time>2021-01-12T16:38:06Z</time><name>PT10027</name></trkpt>
<trkpt lat="52.061479" lon="05.842000"><ele>36.7</ele><time>2021-01-12T16:38:08Z</time><name>PT10028</name></trkpt>
<trkpt lat="52.061490" lon="05.841988"><ele>36.7</ele><time>2021-01-12T16:38:09Z</time><name>PT10029</name></trkpt>
<trkpt lat="52.061499" lon="05.841978"><ele>36.7</ele><time>2021-01-12T16:38:09Z</time><name>PT10030</name></trkpt>
<trkpt lat="52.061507" lon="05.841969"><ele>36.8</ele><time>2021-01-12T16:38:11Z</time><name>PT10031</name></trkpt>
<trkpt lat="52.061509" lon="05.841964"><ele>37</ele><time>2021-01-12T16:38:12Z</time><name>PT10032</name></trkpt>
<trkpt lat="52.061517" lon="05.841951"><ele>37</ele><time>2021-01-12T16:38:12Z</time><name>PT10033</name></trkpt>
<trkpt lat="52.061526" lon="05.841942"><ele>37.1</ele><time>2021-01-12T16:38:14Z</time><name>PT10034</name></trkpt>
<trkpt lat="52.061539" lon="05.841931"><ele>37.2</ele><time>2021-01-12T16:38:15Z</time><name>PT10035</name></trkpt>
<trkpt lat="52.061552" lon="05.841918"><ele>37.2</ele><time>2021-01-12T16:38:15Z</time><name>PT10036</name></trkpt>
<trkpt lat="52.061561" lon="05.841907"><ele>37.1</ele><time>2021-01-12T16:38:16Z</time><name>PT10037</name></trkpt>
<trkpt lat="52.061576" lon="05.841900"><ele>37.1</ele><time>2021-01-12T16:38:18Z</time><name>PT10038</name></trkpt>
<trkpt lat="52.061585" lon="05.841889"><ele>37</ele><time>2021-01-12T16:38:18Z</time><name>PT10039</name></trkpt>
<trkpt lat="52.061604" lon="05.841875"><ele>37.1</ele><time>2021-01-12T16:38:20Z</time><name>PT10040</name></trkpt>
<trkpt lat="52.061617" lon="05.841864"><ele>57</ele><time>2021-01-12T16:38:21Z</time><name>PT10041</name></trkpt>
<trkpt lat="52.061629" lon="05.841852"><ele>57</ele><time>2021-01-12T16:38:21Z</time><name>PT10042</name></trkpt>
<trkpt lat="52.061642" lon="05.841839"><ele>57.1</ele><time>2021-01-12T16:38:22Z</time><name>PT10043</name></trkpt>
<trkpt lat="52.061658" lon="05.841829"><ele>56.9</ele><time>2021-01-12T16:38:24Z</time><name>PT10044</name></trkpt>
<trkpt lat="52.061670" lon="05.841819"><ele>56.8</ele><time>2021-01-12T16:38:24Z</time><name>PT10045</name></trkpt>
<trkpt lat="52.061679" lon="05.841811"><ele>56.6</ele><time>2021-01-12T16:38:25Z</time><name>PT10046</name></trkpt>
<trkpt lat="52.061686" lon="05.841800"><ele>56.6</ele><time>2021-01-12T16:38:27Z</time><name>PT10047</name></trkpt>
<trkpt lat="52.061695" lon="05.841787"><ele>56.7</ele><time>2021-01-12T16:38:27Z</time><name>PT10048</name></trkpt>
<trkpt lat="52.061705" lon="05.841774"><ele>56.8</ele><time>2021-01-12T16:38:28Z</time><name>PT10049</name></trkpt>
<trkpt lat="52.061711" lon="05.841764"><ele>56.7</ele><time>2021-01-12T16:38:30Z</time><name>PT10050</name></trkpt>
<trkpt lat="52.061721" lon="05.841754"><ele>56.7</ele><time>2021-01-12T16:38:30Z</time><name>PT10051</name></trkpt>
<trkpt lat="52.061734" lon="05.841745"><ele>56.5</ele><time>2021-01-12T16:38:32Z</time><name>PT10052</name></trkpt>
<trkpt lat="52.061739" lon="05.841737"><ele>56.5</ele><time>2021-01-12T16:38:33Z</time><name>PT10053</name></trkpt>
<trkpt lat="52.061747" lon="05.841729"><ele>56.5</ele><time>2021-01-12T16:38:33Z</time><name>PT10054</name></trkpt>
<trkpt lat="52.061752" lon="05.841720"><ele>56.6</ele><time>2021-01-12T16:38:34Z</time><name>PT10055</name></trkpt>
<trkpt lat="52.061762" lon="05.841707"><ele>56.6</ele><time>2021-01-12T16:38:36Z</time><name>PT10056</name></trkpt>
<trkpt lat="52.061769" lon="05.841697"><ele>56.7</ele><time>2021-01-12T16:38:36Z</time><name>PT10057</name></trkpt>
<trkpt lat="52.061778" lon="05.841689"><ele>56.5</ele><time>2021-01-12T16:38:37Z</time><name>PT10058</name></trkpt>
<trkpt lat="52.061786" lon="05.841681"><ele>56.6</ele><time>2021-01-12T16:38:39Z</time><name>PT10059</name></trkpt>
<trkpt lat="52.061802" lon="05.841672"><ele>56.7</ele><time>2021-01-12T16:38:39Z</time><name>PT10060</name></trkpt>
<trkpt lat="52.061818" lon="05.841660"><ele>56.7</ele><time>2021-01-12T16:38:40Z</time><name>PT10061</name></trkpt>
<trkpt lat="52.061824" lon="05.841652"><ele>56.7</ele><time>2021-01-12T16:38:42Z</time><name>PT10062</name></trkpt>
<trkpt lat="52.061832" lon="05.841644"><ele>56.6</ele><time>2021-01-12T16:38:42Z</time><name>PT10063</name></trkpt>
<trkpt lat="52.061841" lon="05.841633"><ele>56.5</ele><time>2021-01-12T16:38:43Z</time><name>PT10064</name></trkpt>
<trkpt lat="52.061846" lon="05.841624"><ele>56.3</ele><time>2021-01-12T16:38:45Z</time><name>PT10065</name></trkpt>
<trkpt lat="52.061850" lon="05.841614"><ele>56.2</ele><time>2021-01-12T16:38:45Z</time><name>PT10066</name></trkpt>
<trkpt lat="52.061849" lon="05.841608"><ele>56.3</ele><time>2021-01-12T16:38:46Z</time><name>PT10067</name></trkpt>
<trkpt lat="52.061857" lon="05.841598"><ele>56.2</ele><time>2021-01-12T16:38:48Z</time><name>PT10068</name></trkpt>
<trkpt lat="52.061869" lon="05.841586"><ele>56</ele><time>2021-01-12T16:38:48Z</time><name>PT10069</name></trkpt>
<trkpt lat="52.061875" lon="05.841577"><ele>56.1</ele><time>2021-01-12T16:38:49Z</time><name>PT10070</name></trkpt>
<trkpt lat="52.061885" lon="05.841567"><ele>56.2</ele><time>2021-01-12T16:38:51Z</time><name>PT10071</name></trkpt>
<trkpt lat="52.061895" lon="05.841553"><ele>56.2</ele><time>2021-01-12T16:38:51Z</time><name>PT10072</name></trkpt>
<trkpt lat="52.061903" lon="05.841542"><ele>56.3</ele><time>2021-01-12T16:38:52Z</time><name>PT10073</name></trkpt>
<trkpt lat="52.061911" lon="05.841531"><ele>56.5</ele><time>2021-01-12T16:38:54Z</time><name>PT10074</name></trkpt>
<trkpt lat="52.061921" lon="05.841522"><ele>56.3</ele><time>2021-01-12T16:38:54Z</time><name>PT10075</name></trkpt>
<trkpt lat="52.061928" lon="05.841511"><ele>56.2</ele><time>2021-01-12T16:38:55Z</time><name>PT10076</name></trkpt>
<trkpt lat="52.061936" lon="05.841501"><ele>56.3</ele><time>2021-01-12T16:38:57Z</time><name>PT10077</name></trkpt>
<trkpt lat="52.061941" lon="05.841497"><ele>56.1</ele><time>2021-01-12T16:38:57Z</time><name>PT10078</name></trkpt>
<trkpt lat="52.061948" lon="05.841489"><ele>56.1</ele><time>2021-01-12T16:38:58Z</time><name>PT10079</name></trkpt>
<trkpt lat="52.061956" lon="05.841480"><ele>56</ele><time>2021-01-12T16:39:00Z</time><name>PT10080</name></trkpt>
<trkpt lat="52.061962" lon="05.841470"><ele>56</ele><time>2021-01-12T16:39:00Z</time><name>PT10081</name></trkpt>
<trkpt lat="52.061974" lon="05.841456"><ele>56</ele><time>2021-01-12T16:39:01Z</time><name>PT10082</name></trkpt>
<trkpt lat="52.061981" lon="05.841446"><ele>56</ele><time>2021-01-12T16:39:03Z</time><name>PT10083</name></trkpt>
<trkpt lat="52.061986" lon="05.841437"><ele>56</ele><time>2021-01-12T16:39:03Z</time><name>PT10084</name></trkpt>
<trkpt lat="52.061998" lon="05.841426"><ele>56.1</ele><time>2021-01-12T16:39:04Z</time><name>PT10085</name></trkpt>
<trkpt lat="52.062010" lon="05.841412"><ele>56.2</ele><time>2021-01-12T16:39:06Z</time><name>PT10086</name></trkpt>
<trkpt lat="52.062019" lon="05.841401"><ele>56.2</ele><time>2021-01-12T16:39:06Z</time><name>PT10087</name></trkpt>
<trkpt lat="52.062023" lon="05.841392"><ele>56.5</ele><time>2021-01-12T16:39:07Z</time><name>PT10088</name></trkpt>
<trkpt lat="52.062031" lon="05.841379"><ele>56.4</ele><time>2021-01-12T16:39:09Z</time><name>PT10089</name></trkpt>
<trkpt lat="52.062043" lon="05.841369"><ele>56.5</ele><time>2021-01-12T16:39:09Z</time><name>PT10090</name></trkpt>
<trkpt lat="52.062052" lon="05.841361"><ele>56.5</ele><time>2021-01-12T16:39:11Z</time><name>PT10091</name></trkpt>
<trkpt lat="52.062066" lon="05.841348"><ele>56.5</ele><time>2021-01-12T16:39:12Z</time><name>PT10092</name></trkpt>
<trkpt lat="52.062080" lon="05.841334"><ele>56.5</ele><time>2021-01-12T16:39:12Z</time><name>PT10093</name></trkpt>
<trkpt lat="52.062091" lon="05.841322"><ele>56.8</ele><time>2021-01-12T16:39:14Z</time><name>PT10094</name></trkpt>
<trkpt lat="52.062100" lon="05.841312"><ele>56.8</ele><time>2021-01-12T16:39:15Z</time><name>PT10095</name></trkpt>
<trkpt lat="52.062109" lon="05.841303"><ele>57</ele><time>2021-01-12T16:39:15Z</time><name>PT10096</name></trkpt>
<trkpt lat="52.062119" lon="05.841294"><ele>57.1</ele><time>2021-01-12T16:39:16Z</time><name>PT10097</name></trkpt>
<trkpt lat="52.062137" lon="05.841279"><ele>57</ele><time>2021-01-12T16:39:18Z</time><name>PT10098</name></trkpt>
<trkpt lat="52.062152" lon="05.841264"><ele>57.1</ele><time>2021-01-12T16:39:18Z</time><name>PT10099</name></trkpt>
<trkpt lat="52.062164" lon="05.841254"><ele>57.1</ele><time>2021-01-12T16:39:20Z</time><name>PT10100</name></trkpt>
<trkpt lat="52.062174" lon="05.841248"><ele>57.2</ele><time>2021-01-12T16:39:21Z</time><name>PT10101</name></trkpt>
<trkpt lat="52.062180" lon="05.841232"><ele>57.1</ele><time>2021-01-12T16:39:21Z</time><name>PT10102</name></trkpt>
<trkpt lat="52.062187" lon="05.841216"><ele>57.1</ele><time>2021-01-12T16:39:23Z</time><name>PT10103</name></trkpt>
<trkpt lat="52.062195" lon="05.841205"><ele>57.2</ele><time>2021-01-12T16:39:24Z</time><name>PT10104</name></trkpt>
<trkpt lat="52.062202" lon="05.841195"><ele>57.2</ele><time>2021-01-12T16:39:24Z</time><name>PT10105</name></trkpt>
<trkpt lat="52.062211" lon="05.841179"><ele>57.2</ele><time>2021-01-12T16:39:25Z</time><name>PT10106</name></trkpt>
<trkpt lat="52.062229" lon="05.841156"><ele>57</ele><time>2021-01-12T16:39:27Z</time><name>PT10107</name></trkpt>
<trkpt lat="52.062240" lon="05.841145"><ele>57</ele><time>2021-01-12T16:39:27Z</time><name>PT10108</name></trkpt>
<trkpt lat="52.062251" lon="05.841131"><ele>56.9</ele><time>2021-01-12T16:39:28Z</time><name>PT10109</name></trkpt>
<trkpt lat="52.062266" lon="05.841119"><ele>57</ele><time>2021-01-12T16:39:30Z</time><name>PT10110</name></trkpt>
<trkpt lat="52.062278" lon="05.841107"><ele>57</ele><time>2021-01-12T16:39:30Z</time><name>PT10111</name></trkpt>
<trkpt lat="52.062286" lon="05.841097"><ele>57</ele><time>2021-01-12T16:39:31Z</time><name>PT10112</name></trkpt>
<trkpt lat="52.062291" lon="05.841088"><ele>57.3</ele><time>2021-01-12T16:39:33Z</time><name>PT10113</name></trkpt>
<trkpt lat="52.062302" lon="05.841075"><ele>57.5</ele><time>2021-01-12T16:39:33Z</time><name>PT10114</name></trkpt>
<trkpt lat="52.062312" lon="05.841060"><ele>57.5</ele><time>2021-01-12T16:39:34Z</time><name>PT10115</name></trkpt>
<trkpt lat="52.062322" lon="05.841048"><ele>57.4</ele><time>2021-01-12T16:39:36Z</time><name>PT10116</name></trkpt>
<trkpt lat="52.062333" lon="05.841033"><ele>57.3</ele><time>2021-01-12T16:39:36Z</time><name>PT10117</name></trkpt>
<trkpt lat="52.062342" lon="05.841025"><ele>57.1</ele><time>2021-01-12T16:39:38Z</time><name>PT10118</name></trkpt>
<trkpt lat="52.062349" lon="05.841018"><ele>57.1</ele><time>2021-01-12T16:39:39Z</time><name>PT10119</name></trkpt>
<trkpt lat="52.062358" lon="05.841006"><ele>57.2</ele><time>2021-01-12T16:39:39Z</time><name>PT10120</name></trkpt>
<trkpt lat="52.062367" lon="05.840995"><ele>57.4</ele><time>2021-01-12T16:39:41Z</time><name>PT10121</name></trkpt>
<trkpt lat="52.062373" lon="05.840987"><ele>57.2</ele><time>2021-01-12T16:39:42Z</time><name>PT10122</name></trkpt>
<trkpt lat="52.062382" lon="05.840977"><ele>57.1</ele><time>2021-01-12T16:39:42Z</time><name>PT10123</name></trkpt>
<trkpt lat="52.062376" lon="05.840981"><ele>57</ele><time>2021-01-12T16:39:43Z</time><name>PT10124</name></trkpt>
<trkpt lat="52.062378" lon="05.840973"><ele>56.8</ele><time>2021-01-12T16:39:45Z</time><name>PT10125</name></trkpt>
<trkpt lat="52.062387" lon="05.840963"><ele>56.9</ele><time>2021-01-12T16:39:45Z</time><name>PT10126</name></trkpt>
<trkpt lat="52.062396" lon="05.840950"><ele>57.2</ele><time>2021-01-12T16:39:46Z</time><name>PT10127</name></trkpt>
<trkpt lat="52.062411" lon="05.840935"><ele>57.2</ele><time>2021-01-12T16:39:48Z</time><name>PT10128</name></trkpt>
<trkpt lat="52.062433" lon="05.840924"><ele>57.3</ele><time>2021-01-12T16:39:48Z</time><name>PT10129</name></trkpt>
<trkpt lat="52.062443" lon="05.840914"><ele>57.2</ele><time>2021-01-12T16:39:49Z</time><name>PT10130</name></trkpt>
<trkpt lat="52.062453" lon="05.840902"><ele>57</ele><time>2021-01-12T16:39:51Z</time><name>PT10131</name></trkpt>
<trkpt lat="52.062463" lon="05.840887"><ele>57</ele><time>2021-01-12T16:39:51Z</time><name>PT10132</name></trkpt>
<trkpt lat="52.062473" lon="05.840876"><ele>56.9</ele><time>2021-01-12T16:39:52Z</time><name>PT10133</name></trkpt>
<trkpt lat="52.062479" lon="05.840868"><ele>56.9</ele><time>2021-01-12T16:39:54Z</time><name>PT10134</name></trkpt>
<trkpt lat="52.062487" lon="05.840858"><ele>57</ele><time>2021-01-12T16:39:54Z</time><name>PT10135</name></trkpt>
<trkpt lat="52.062500" lon="05.840840"><ele>57.2</ele><time>2021-01-12T16:39:55Z</time><name>PT10136</name></trkpt>
<trkpt lat="52.062518" lon="05.840821"><ele>57</ele><time>2021-01-12T16:39:57Z</time><name>PT10137</name></trkpt>
<trkpt lat="52.062525" lon="05.840809"><ele>57</ele><time>2021-01-12T16:39:57Z</time><name>PT10138</name></trkpt>
<trkpt lat="52.062543" lon="05.840802"><ele>56.8</ele><time>2021-01-12T16:39:58Z</time><name>PT10139</name></trkpt>
<trkpt lat="52.062557" lon="05.840789"><ele>56.6</ele><time>2021-01-12T16:40:00Z</time><name>PT10140</name></trkpt>
<trkpt lat="52.062562" lon="05.840778"><ele>56.6</ele><time>2021-01-12T16:40:00Z</time><name>PT10141</name></trkpt>
<trkpt lat="52.062569" lon="05.840764"><ele>56.6</ele><time>2021-01-12T16:40:01Z</time><name>PT10142</name></trkpt>
<trkpt lat="52.062581" lon="05.840750"><ele>56.8</ele><time>2021-01-12T16:40:03Z</time><name>PT10143</name></trkpt>
<trkpt lat="52.062589" lon="05.840736"><ele>56.7</ele><time>2021-01-12T16:40:03Z</time><name>PT10144</name></trkpt>
<trkpt lat="52.062595" lon="05.840725"><ele>56.6</ele><time>2021-01-12T16:40:04Z</time><name>PT10145</name></trkpt>
<trkpt lat="52.062607" lon="05.840711"><ele>56.5</ele><time>2021-01-12T16:40:06Z</time><name>PT10146</name></trkpt>
<trkpt lat="52.062619" lon="05.840693"><ele>56.5</ele><time>2021-01-12T16:40:06Z</time><name>PT10147</name></trkpt>
<trkpt lat="52.062629" lon="05.840681"><ele>56.6</ele><time>2021-01-12T16:40:07Z</time><name>PT10148</name></trkpt>
<trkpt lat="52.062637" lon="05.840666"><ele>56.6</ele><time>2021-01-12T16:40:09Z</time><name>PT10149</name></trkpt>
<trkpt lat="52.062644" lon="05.840656"><ele>56.5</ele><time>2021-01-12T16:40:09Z</time><name>PT10150</name></trkpt>
<trkpt lat="52.062659" lon="05.840646"><ele>56.7</ele><time>2021-01-12T16:40:10Z</time><name>PT10151</name></trkpt>
<trkpt lat="52.062667" lon="05.840635"><ele>56.6</ele><time>2021-01-12T16:40:12Z</time><name>PT10152</name></trkpt>
<trkpt lat="52.062675" lon="05.840622"><ele>56.6</ele><time>2021-01-12T16:40:12Z</time><name>PT10153</name></trkpt>
<trkpt lat="52.062682" lon="05.840614"><ele>56.6</ele><time>2021-01-12T16:40:13Z</time><name>PT10154</name></trkpt>
<trkpt lat="52.062690" lon="05.840600"><ele>56.6</ele><time>2021-01-12T16:40:15Z</time><name>PT10155</name></trkpt>
<trkpt lat="52.062704" lon="05.840581"><ele>56.5</ele><time>2021-01-12T16:40:15Z</time><name>PT10156</name></trkpt>
<trkpt lat="52.062712" lon="05.840567"><ele>56.5</ele><time>2021-01-12T16:40:16Z</time><name>PT10157</name></trkpt>
<trkpt lat="52.062726" lon="05.840559"><ele>56.6</ele><time>2021-01-12T16:40:18Z</time><name>PT10158</name></trkpt>
<trkpt lat="52.062737" lon="05.840548"><ele>56.7</ele><time>2021-01-12T16:40:18Z</time><name>PT10159</name></trkpt>
<trkpt lat="52.062748" lon="05.840534"><ele>56.7</ele><time>2021-01-12T16:40:19Z</time><name>PT10160</name></trkpt>
<trkpt lat="52.062757" lon="05.840524"><ele>56.8</ele><time>2021-01-12T16:40:21Z</time><name>PT10161</name></trkpt>
<trkpt lat="52.062767" lon="05.840512"><ele>56.9</ele><time>2021-01-12T16:40:21Z</time><name>PT10162</name></trkpt>
<trkpt lat="52.062775" lon="05.840499"><ele>56.8</ele><time>2021-01-12T16:40:22Z</time><name>PT10163</name></trkpt>
<trkpt lat="52.062780" lon="05.840487"><ele>56.8</ele><time>2021-01-12T16:40:24Z</time><name>PT10164</name></trkpt>
<trkpt lat="52.062788" lon="05.840475"><ele>56.8</ele><time>2021-01-12T16:40:24Z</time><name>PT10165</name></trkpt>
<trkpt lat="52.062799" lon="05.840464"><ele>56.8</ele><time>2021-01-12T16:40:26Z</time><name>PT10166</name></trkpt>
<trkpt lat="52.062809" lon="05.840456"><ele>56.7</ele><time>2021-01-12T16:40:27Z</time><name>PT10167</name></trkpt>
<trkpt lat="52.062819" lon="05.840449"><ele>56.7</ele><time>2021-01-12T16:40:27Z</time><name>PT10168</name></trkpt>
<trkpt lat="52.062826" lon="05.840440"><ele>56.7</ele><time>2021-01-12T16:40:28Z</time><name>PT10169</name></trkpt>
<trkpt lat="52.062836" lon="05.840429"><ele>56.5</ele><time>2021-01-12T16:40:30Z</time><name>PT10170</name></trkpt>
<trkpt lat="52.062843" lon="05.840417"><ele>56.6</ele><time>2021-01-12T16:40:30Z</time><name>PT10171</name></trkpt>
<trkpt lat="52.062851" lon="05.840407"><ele>56.6</ele><time>2021-01-12T16:40:31Z</time><name>PT10172</name></trkpt>
<trkpt lat="52.062864" lon="05.840397"><ele>56.6</ele><time>2021-01-12T16:40:33Z</time><name>PT10173</name></trkpt>
<trkpt lat="52.062881" lon="05.840389"><ele>56.8</ele><time>2021-01-12T16:40:33Z</time><name>PT10174</name></trkpt>
<trkpt lat="52.062892" lon="05.840384"><ele>56.7</ele><time>2021-01-12T16:40:34Z</time><name>PT10175</name></trkpt>
<trkpt lat="52.062903" lon="05.840373"><ele>56.6</ele><time>2021-01-12T16:40:36Z</time><name>PT10176</name></trkpt>
<trkpt lat="52.062915" lon="05.840364"><ele>56.7</ele><time>2021-01-12T16:40:36Z</time><name>PT10177</name></trkpt>
<trkpt lat="52.062926" lon="05.840357"><ele>56.5</ele><time>2021-01-12T16:40:37Z</time><name>PT10178</name></trkpt>
<trkpt lat="52.062934" lon="05.840349"><ele>56.7</ele><time>2021-01-12T16:40:39Z</time><name>PT10179</name></trkpt>
<trkpt lat="52.062944" lon="05.840339"><ele>56.7</ele><time>2021-01-12T16:40:39Z</time><name>PT10180</name></trkpt>
<trkpt lat="52.062954" lon="05.840336"><ele>56.8</ele><time>2021-01-12T16:40:40Z</time><name>PT10181</name></trkpt>
<trkpt lat="52.062957" lon="05.840331"><ele>56.9</ele><time>2021-01-12T16:40:42Z</time><name>PT10182</name></trkpt>
<trkpt lat="52.062967" lon="05.840326"><ele>56.8</ele><time>2021-01-12T16:40:42Z</time><name>PT10183</name></trkpt>
<trkpt lat="52.062976" lon="05.840317"><ele>56.9</ele><time>2021-01-12T16:40:43Z</time><name>PT10184</name></trkpt>
<trkpt lat="52.062985" lon="05.840307"><ele>56.7</ele><time>2021-01-12T16:40:45Z</time><name>PT10185</name></trkpt>
<trkpt lat="52.062993" lon="05.840292"><ele>56.8</ele><time>2021-01-12T16:40:45Z</time><name>PT10186</name></trkpt>
<trkpt lat="52.062998" lon="05.840280"><ele>56.8</ele><time>2021-01-12T16:40:46Z</time><name>PT10187</name></trkpt>
<trkpt lat="52.063005" lon="05.840273"><ele>56.7</ele><time>2021-01-12T16:40:48Z</time><name>PT10188</name></trkpt>
<trkpt lat="52.063013" lon="05.840264"><ele>56.8</ele><time>2021-01-12T16:40:48Z</time><name>PT10189</name></trkpt>
<trkpt lat="52.063021" lon="05.840250"><ele>56.7</ele><time>2021-01-12T16:40:49Z</time><name>PT10190</name></trkpt>
<trkpt lat="52.063031" lon="05.840236"><ele>56.5</ele><time>2021-01-12T16:40:51Z</time><name>PT10191</name></trkpt>
<trkpt lat="52.063038" lon="05.840225"><ele>56.5</ele><time>2021-01-12T16:40:51Z</time><name>PT10192</name></trkpt>
<trkpt lat="52.063049" lon="05.840217"><ele>56.5</ele><time>2021-01-12T16:40:52Z</time><name>PT10193</name></trkpt>
<trkpt lat="52.063055" lon="05.840202"><ele>56.7</ele><time>2021-01-12T16:40:54Z</time><name>PT10194</name></trkpt>
<trkpt lat="52.063062" lon="05.840193"><ele>56.9</ele><time>2021-01-12T16:40:54Z</time><name>PT10195</name></trkpt>
<trkpt lat="52.063068" lon="05.840182"><ele>57</ele><time>2021-01-12T16:40:55Z</time><name>PT10196</name></trkpt>
<trkpt lat="52.063080" lon="05.840171"><ele>57</ele><time>2021-01-12T16:40:57Z</time><name>PT10197</name></trkpt>
<trkpt lat="52.063089" lon="05.840163"><ele>57</ele><time>2021-01-12T16:40:57Z</time><name>PT10198</name></trkpt>
<trkpt lat="52.063096" lon="05.840156"><ele>56.7</ele><time>2021-01-12T16:40:58Z</time><name>PT10199</name></trkpt>
<trkpt lat="52.063106" lon="05.840148"><ele>56.6</ele><time>2021-01-12T16:41:00Z</time><name>PT10200</name></trkpt>
<trkpt lat="52.063118" lon="05.840141"><ele>56.7</ele><time>2021-01-12T16:41:00Z</time><name>PT10201</name></trkpt>
<trkpt lat="52.063129" lon="05.840131"><ele>56.9</ele><time>2021-01-12T16:41:01Z</time><name>PT10202</name></trkpt>
<trkpt lat="52.063139" lon="05.840117"><ele>57</ele><time>2021-01-12T16:41:03Z</time><name>PT10203</name></trkpt>
<trkpt lat="52.063149" lon="05.840104"><ele>57</ele><time>2021-01-12T16:41:03Z</time><name>PT10204</name></trkpt>
<trkpt lat="52.063159" lon="05.840095"><ele>57</ele><time>2021-01-12T16:41:04Z</time><name>PT10205</name></trkpt>
<trkpt lat="52.063166" lon="05.840085"><ele>56.7</ele><time>2021-01-12T16:41:06Z</time><name>PT10206</name></trkpt>
<trkpt lat="52.063171" lon="05.840073"><ele>56.7</ele><time>2021-01-12T16:41:06Z</time><name>PT10207</name></trkpt>
<trkpt lat="52.063179" lon="05.840063"><ele>56.5</ele><time>2021-01-12T16:41:07Z</time><name>PT10208</name></trkpt>
<trkpt lat="52.063190" lon="05.840056"><ele>56.5</ele><time>2021-01-12T16:41:09Z</time><name>PT10209</name></trkpt>
<trkpt lat="52.063197" lon="05.840048"><ele>56.5</ele><time>2021-01-12T16:41:09Z</time><name>PT10210</name></trkpt>
<trkpt lat="52.063205" lon="05.840041"><ele>56.5</ele><time>2021-01-12T16:41:10Z</time><name>PT10211</name></trkpt>
<trkpt lat="52.063214" lon="05.840031"><ele>56.4</ele><time>2021-01-12T16:41:12Z</time><name>PT10212</name></trkpt>
<trkpt lat="52.063225" lon="05.840020"><ele>56.3</ele><time>2021-01-12T16:41:12Z</time><name>PT10213</name></trkpt>
<trkpt lat="52.063235" lon="05.840007"><ele>56.3</ele><time>2021-01-12T16:41:13Z</time><name>PT10214</name></trkpt>
<trkpt lat="52.063241" lon="05.839994"><ele>56.3</ele><time>2021-01-12T16:41:15Z</time><name>PT10215</name></trkpt>
<trkpt lat="52.063246" lon="05.839981"><ele>56.2</ele><time>2021-01-12T16:41:15Z</time><name>PT10216</name></trkpt>
<trkpt lat="52.063254" lon="05.839969"><ele>56.4</ele><time>2021-01-12T16:41:16Z</time><name>PT10217</name></trkpt>
<trkpt lat="52.063260" lon="05.839961"><ele>56.5</ele><time>2021-01-12T16:41:18Z</time><name>PT10218</name></trkpt>
<trkpt lat="52.063272" lon="05.839955"><ele>56.5</ele><time>2021-01-12T16:41:18Z</time><name>PT10219</name></trkpt>
<trkpt lat="52.063286" lon="05.839944"><ele>56.7</ele><time>2021-01-12T16:41:19Z</time><name>PT10220</name></trkpt>
<trkpt lat="52.063296" lon="05.839939"><ele>56.8</ele><time>2021-01-12T16:41:21Z</time><name>PT10221</name></trkpt>
<trkpt lat="52.063306" lon="05.839930"><ele>56.7</ele><time>2021-01-12T16:41:21Z</time><name>PT10222</name></trkpt>
<trkpt lat="52.063314" lon="05.839921"><ele>56.5</ele><time>2021-01-12T16:41:22Z</time><name>PT10223</name></trkpt>
<trkpt lat="52.063320" lon="05.839908"><ele>56.6</ele><time>2021-01-12T16:41:24Z</time><name>PT10224</name></trkpt>
<trkpt lat="52.063328" lon="05.839896"><ele>56.5</ele><time>2021-01-12T16:41:24Z</time><name>PT10225</name></trkpt>
<trkpt lat="52.063333" lon="05.839886"><ele>56.5</ele><time>2021-01-12T16:41:25Z</time><name>PT10226</name></trkpt>
<trkpt lat="52.063339" lon="05.839876"><ele>56.5</ele><time>2021-01-12T16:41:27Z</time><name>PT10227</name></trkpt>
<trkpt lat="52.063345" lon="05.839868"><ele>56.5</ele><time>2021-01-12T16:41:27Z</time><name>PT10228</name></trkpt>
<trkpt lat="52.063356" lon="05.839852"><ele>56.8</ele><time>2021-01-12T16:41:29Z</time><name>PT10229</name></trkpt>
<trkpt lat="52.063364" lon="05.839843"><ele>56.8</ele><time>2021-01-12T16:41:30Z</time><name>PT10230</name></trkpt>
<trkpt lat="52.063375" lon="05.839835"><ele>56.9</ele><time>2021-01-12T16:41:30Z</time><name>PT10231</name></trkpt>
<trkpt lat="52.063383" lon="05.839830"><ele>57</ele><time>2021-01-12T16:41:31Z</time><name>PT10232</name></trkpt>
<trkpt lat="52.063388" lon="05.839827"><ele>57.1</ele><time>2021-01-12T16:41:33Z</time><name>PT10233</name></trkpt>
<trkpt lat="52.063396" lon="05.839821"><ele>57.1</ele><time>2021-01-12T16:41:33Z</time><name>PT10234</name></trkpt>
<trkpt lat="52.063402" lon="05.839820"><ele>57.1</ele><time>2021-01-12T16:41:34Z</time><name>PT10235</name></trkpt>
<trkpt lat="52.063415" lon="05.839808"><ele>57</ele><time>2021-01-12T16:41:36Z</time><name>PT10236</name></trkpt>
<trkpt lat="52.063427" lon="05.839801"><ele>57</ele><time>2021-01-12T16:41:36Z</time><name>PT10237</name></trkpt>
<trkpt lat="52.063439" lon="05.839789"><ele>56.9</ele><time>2021-01-12T16:41:37Z</time><name>PT10238</name></trkpt>
<trkpt lat="52.063443" lon="05.839786"><ele>56.9</ele><time>2021-01-12T16:41:39Z</time><name>PT10239</name></trkpt>
<trkpt lat="52.063450" lon="05.839782"><ele>56.8</ele><time>2021-01-12T16:41:39Z</time><name>PT10240</name></trkpt>
<trkpt lat="52.063463" lon="05.839771"><ele>56.6</ele><time>2021-01-12T16:41:41Z</time><name>PT10241</name></trkpt>
<trkpt lat="52.063474" lon="05.839764"><ele>56.6</ele><time>2021-01-12T16:41:42Z</time><name>PT10242</name></trkpt>
<trkpt lat="52.063479" lon="05.839743"><ele>56.7</ele><time>2021-01-12T16:41:42Z</time><name>PT10243</name></trkpt>
<trkpt lat="52.063487" lon="05.839743"><ele>56.7</ele><time>2021-01-12T16:41:43Z</time><name>PT10244</name></trkpt>
<trkpt lat="52.063494" lon="05.839745"><ele>56.7</ele><time>2021-01-12T16:41:45Z</time><name>PT10245</name></trkpt>
<trkpt lat="52.063501" lon="05.839751"><ele>56.7</ele><time>2021-01-12T16:41:45Z</time><name>PT10246</name></trkpt>
<trkpt lat="52.063512" lon="05.839750"><ele>56.6</ele><time>2021-01-12T16:41:46Z</time><name>PT10247</name></trkpt>
<trkpt lat="52.063522" lon="05.839749"><ele>56.5</ele><time>2021-01-12T16:41:48Z</time><name>PT10248</name></trkpt>
<trkpt lat="52.063531" lon="05.839743"><ele>56.5</ele><time>2021-01-12T16:41:48Z</time><name>PT10249</name></trkpt>
<trkpt lat="52.063541" lon="05.839737"><ele>56.7</ele><time>2021-01-12T16:41:49Z</time><name>PT10250</name></trkpt>
<trkpt lat="52.063547" lon="05.839739"><ele>57</ele><time>2021-01-12T16:41:51Z</time><name>PT10251</name></trkpt>
<trkpt lat="52.063561" lon="05.839733"><ele>57</ele><time>2021-01-12T16:41:51Z</time><name>PT10252</name></trkpt>
<trkpt lat="52.063586" lon="05.839713"><ele>56.9</ele><time>2021-01-12T16:41:58Z</time><name>PT10253</name></trkpt>
<trkpt lat="52.063595" lon="05.839722"><ele>57.1</ele><time>2021-01-12T16:42:00Z</time><name>PT10254</name></trkpt>
<trkpt lat="52.063607" lon="05.839714"><ele>56.8</ele><time>2021-01-12T16:42:00Z</time><name>PT10255</name></trkpt></trkseg></trk></gpx>